<?xml version="1.0" encoding="UTF-8" standalone="no" ?>
<gpx xmlns="http://www.topografix.com/GPX/1/1" xmlns:xsi="http://www.w3.org/2001/XMLSchema-instance" xsi:schemaLocation="http://www.topografix.com/GPX/1/1 http://www.topografix.com/GPX/1/1/gpx.xsd" version="1.1" creator="VisuGPX - https://www.visugpx.com">
  <metadata>
    <name>Balade hivernale</name>
    <desc><![CDATA[Balade effectuée du 9 décembre 2022 au 7 janvier 2023.]]></desc>
  </metadata>
  <trk>
    <name><![CDATA[Redon - Nort sur Erdre]]></name>
    <extensions>
      <line xmlns="http://www.topografix.com/GPX/gpx_style/0/2">
        <color>0000ff</color>
        <width>4</width>
      </line>
    </extensions>
    <trkseg>
      <trkpt lat="47.67596" lon="-2.09305">
        <ele>49.614326</ele>
        <time>2022-12-15T10:59:38.341Z</time>
      </trkpt>
      <trkpt lat="47.67588" lon="-2.09295">
        <ele>49.614326</ele>
        <time>2022-12-15T11:02:11.552Z</time>
      </trkpt>
      <trkpt lat="47.6758" lon="-2.09285">
        <ele>49.614326</ele>
        <time>2022-12-15T11:02:17.545Z</time>
      </trkpt>
      <trkpt lat="47.67572" lon="-2.09276">
        <ele>49.614326</ele>
        <time>2022-12-15T11:02:21.557Z</time>
      </trkpt>
      <trkpt lat="47.67563" lon="-2.09264">
        <ele>49.614326</ele>
        <time>2022-12-15T11:02:25.554Z</time>
      </trkpt>
      <trkpt lat="47.67555" lon="-2.09257">
        <ele>49.614326</ele>
        <time>2022-12-15T11:02:28.561Z</time>
      </trkpt>
      <trkpt lat="47.67546" lon="-2.09246">
        <ele>49.614326</ele>
        <time>2022-12-15T11:02:32.565Z</time>
      </trkpt>
      <trkpt lat="47.67538" lon="-2.09236">
        <ele>49.614326</ele>
        <time>2022-12-15T11:02:36.557Z</time>
      </trkpt>
      <trkpt lat="47.6753" lon="-2.09228">
        <ele>49.614326</ele>
        <time>2022-12-15T11:02:39.556Z</time>
      </trkpt>
      <trkpt lat="47.67522" lon="-2.0922">
        <ele>49.554627</ele>
        <time>2022-12-15T11:02:42.557Z</time>
      </trkpt>
      <trkpt lat="47.67514" lon="-2.09211">
        <ele>49.369918</ele>
        <time>2022-12-15T11:02:45.552Z</time>
      </trkpt>
      <trkpt lat="47.67506" lon="-2.09202">
        <ele>49.181461</ele>
        <time>2022-12-15T11:02:48.562Z</time>
      </trkpt>
      <trkpt lat="47.67498" lon="-2.09194">
        <ele>49.001983</ele>
        <time>2022-12-15T11:02:51.559Z</time>
      </trkpt>
      <trkpt lat="47.67489" lon="-2.09183">
        <ele>48.791207</ele>
        <time>2022-12-15T11:02:54.563Z</time>
      </trkpt>
      <trkpt lat="47.67481" lon="-2.09174">
        <ele>48.599741</ele>
        <time>2022-12-15T11:02:57.555Z</time>
      </trkpt>
      <trkpt lat="47.67472" lon="-2.09164">
        <ele>48.391957</ele>
        <time>2022-12-15T11:03:00.573Z</time>
      </trkpt>
      <trkpt lat="47.67464" lon="-2.09155">
        <ele>48.199081</ele>
        <time>2022-12-15T11:03:03.570Z</time>
      </trkpt>
      <trkpt lat="47.67455" lon="-2.09145">
        <ele>47.996526</ele>
        <time>2022-12-15T11:03:06.557Z</time>
      </trkpt>
      <trkpt lat="47.67446" lon="-2.09135">
        <ele>47.79695</ele>
        <time>2022-12-15T11:03:09.561Z</time>
      </trkpt>
      <trkpt lat="47.67438" lon="-2.09126">
        <ele>47.605551</ele>
        <time>2022-12-15T11:03:12.554Z</time>
      </trkpt>
      <trkpt lat="47.67431" lon="-2.09117">
        <ele>47.434609</ele>
        <time>2022-12-15T11:03:15.559Z</time>
      </trkpt>
      <trkpt lat="47.67424" lon="-2.09109">
        <ele>47.258841</ele>
        <time>2022-12-15T11:03:18.564Z</time>
      </trkpt>
      <trkpt lat="47.67415" lon="-2.09099">
        <ele>47.051057</ele>
        <time>2022-12-15T11:03:22.566Z</time>
      </trkpt>
      <trkpt lat="47.67407" lon="-2.09091">
        <ele>46.881263</ele>
        <time>2022-12-15T11:03:25.564Z</time>
      </trkpt>
      <trkpt lat="47.674" lon="-2.09082">
        <ele>46.706248</ele>
        <time>2022-12-15T11:03:28.555Z</time>
      </trkpt>
      <trkpt lat="47.67392" lon="-2.09073">
        <ele>46.517099</ele>
        <time>2022-12-15T11:03:31.560Z</time>
      </trkpt>
      <trkpt lat="47.67383" lon="-2.09064">
        <ele>46.318975</ele>
        <time>2022-12-15T11:03:34.565Z</time>
      </trkpt>
      <trkpt lat="47.67374" lon="-2.09054">
        <ele>46.278707</ele>
        <time>2022-12-15T11:03:37.569Z</time>
      </trkpt>
      <trkpt lat="47.67365" lon="-2.09044">
        <ele>46.279901</ele>
        <time>2022-12-15T11:03:40.569Z</time>
      </trkpt>
      <trkpt lat="47.67355" lon="-2.09034">
        <ele>46.281186</ele>
        <time>2022-12-15T11:03:43.572Z</time>
      </trkpt>
      <trkpt lat="47.67346" lon="-2.09024">
        <ele>46.282427</ele>
        <time>2022-12-15T11:03:46.566Z</time>
      </trkpt>
      <trkpt lat="47.67337" lon="-2.09014">
        <ele>46.283664</ele>
        <time>2022-12-15T11:03:49.555Z</time>
      </trkpt>
      <trkpt lat="47.67328" lon="-2.09003">
        <ele>46.284898</ele>
        <time>2022-12-15T11:03:52.566Z</time>
      </trkpt>
      <trkpt lat="47.6732" lon="-2.08994">
        <ele>46.286013</ele>
        <time>2022-12-15T11:03:55.562Z</time>
      </trkpt>
      <trkpt lat="47.6731" lon="-2.08983">
        <ele>46.287281</ele>
        <time>2022-12-15T11:03:58.562Z</time>
      </trkpt>
      <trkpt lat="47.67301" lon="-2.08973">
        <ele>46.288513</ele>
        <time>2022-12-15T11:04:01.561Z</time>
      </trkpt>
      <trkpt lat="47.67292" lon="-2.08963">
        <ele>46.289742</ele>
        <time>2022-12-15T11:04:04.571Z</time>
      </trkpt>
      <trkpt lat="47.67284" lon="-2.08951">
        <ele>46.291008</ele>
        <time>2022-12-15T11:04:07.563Z</time>
      </trkpt>
      <trkpt lat="47.67274" lon="-2.08941">
        <ele>46.292314</ele>
        <time>2022-12-15T11:04:10.568Z</time>
      </trkpt>
      <trkpt lat="47.67266" lon="-2.08931">
        <ele>46.293439</ele>
        <time>2022-12-15T11:04:13.556Z</time>
      </trkpt>
      <trkpt lat="47.67257" lon="-2.08921">
        <ele>46.294676</ele>
        <time>2022-12-15T11:04:17.553Z</time>
      </trkpt>
      <trkpt lat="47.67248" lon="-2.0891">
        <ele>46.295887</ele>
        <time>2022-12-15T11:04:20.556Z</time>
      </trkpt>
      <trkpt lat="47.67238" lon="-2.089">
        <ele>46.297142</ele>
        <time>2022-12-15T11:04:23.560Z</time>
      </trkpt>
      <trkpt lat="47.67228" lon="-2.08891">
        <ele>46.415056</ele>
        <time>2022-12-15T11:04:26.566Z</time>
      </trkpt>
      <trkpt lat="47.67217" lon="-2.08881">
        <ele>46.53646</ele>
        <time>2022-12-15T11:04:29.560Z</time>
      </trkpt>
      <trkpt lat="47.67206" lon="-2.08871">
        <ele>46.658664</ele>
        <time>2022-12-15T11:04:32.556Z</time>
      </trkpt>
      <trkpt lat="47.67195" lon="-2.08864">
        <ele>46.783106</ele>
        <time>2022-12-15T11:04:35.553Z</time>
      </trkpt>
      <trkpt lat="47.67183" lon="-2.08857">
        <ele>46.899273</ele>
        <time>2022-12-15T11:04:38.551Z</time>
      </trkpt>
      <trkpt lat="47.67172" lon="-2.08851">
        <ele>47.014251</ele>
        <time>2022-12-15T11:04:41.563Z</time>
      </trkpt>
      <trkpt lat="47.67162" lon="-2.08846">
        <ele>47.122069</ele>
        <time>2022-12-15T11:04:44.553Z</time>
      </trkpt>
      <trkpt lat="47.67151" lon="-2.08842">
        <ele>47.226912</ele>
        <time>2022-12-15T11:04:47.566Z</time>
      </trkpt>
      <trkpt lat="47.67141" lon="-2.08838">
        <ele>47.33373</ele>
        <time>2022-12-15T11:04:50.566Z</time>
      </trkpt>
      <trkpt lat="47.67129" lon="-2.08835">
        <ele>47.448002</ele>
        <time>2022-12-15T11:04:53.558Z</time>
      </trkpt>
      <trkpt lat="47.67117" lon="-2.08833">
        <ele>47.566932</ele>
        <time>2022-12-15T11:04:56.552Z</time>
      </trkpt>
      <trkpt lat="47.67106" lon="-2.08832">
        <ele>47.67596</ele>
        <time>2022-12-15T11:04:59.556Z</time>
      </trkpt>
      <trkpt lat="47.67095" lon="-2.08831">
        <ele>47.779831</ele>
        <time>2022-12-15T11:05:02.553Z</time>
      </trkpt>
      <trkpt lat="47.67084" lon="-2.0883">
        <ele>47.888576</ele>
        <time>2022-12-15T11:05:05.559Z</time>
      </trkpt>
      <trkpt lat="47.67072" lon="-2.08831">
        <ele>47.999258</ele>
        <time>2022-12-15T11:05:08.565Z</time>
      </trkpt>
      <trkpt lat="47.67061" lon="-2.08833">
        <ele>48.111868</ele>
        <time>2022-12-15T11:05:11.553Z</time>
      </trkpt>
      <trkpt lat="47.67049" lon="-2.08835">
        <ele>48.233304</ele>
        <time>2022-12-15T11:05:14.567Z</time>
      </trkpt>
      <trkpt lat="47.67036" lon="-2.08838">
        <ele>48.359899</ele>
        <time>2022-12-15T11:05:17.577Z</time>
      </trkpt>
      <trkpt lat="47.67024" lon="-2.08842">
        <ele>48.480971</ele>
        <time>2022-12-15T11:05:20.564Z</time>
      </trkpt>
      <trkpt lat="47.67013" lon="-2.08846">
        <ele>48.590526</ele>
        <time>2022-12-15T11:05:23.552Z</time>
      </trkpt>
      <trkpt lat="47.67002" lon="-2.08851">
        <ele>48.703658</ele>
        <time>2022-12-15T11:05:26.556Z</time>
      </trkpt>
      <trkpt lat="47.66991" lon="-2.08856">
        <ele>48.820765</ele>
        <time>2022-12-15T11:05:29.548Z</time>
      </trkpt>
      <trkpt lat="47.66979" lon="-2.08862">
        <ele>48.944498</ele>
        <time>2022-12-15T11:05:32.556Z</time>
      </trkpt>
      <trkpt lat="47.66967" lon="-2.0887">
        <ele>49.074925</ele>
        <time>2022-12-15T11:05:35.557Z</time>
      </trkpt>
      <trkpt lat="47.66956" lon="-2.08879">
        <ele>49.201705</ele>
        <time>2022-12-15T11:05:38.564Z</time>
      </trkpt>
      <trkpt lat="47.66944" lon="-2.08889">
        <ele>49.332886</ele>
        <time>2022-12-15T11:05:41.566Z</time>
      </trkpt>
      <trkpt lat="47.66933" lon="-2.089">
        <ele>49.462395</ele>
        <time>2022-12-15T11:05:44.566Z</time>
      </trkpt>
      <trkpt lat="47.66923" lon="-2.0891">
        <ele>49.585379</ele>
        <time>2022-12-15T11:05:47.553Z</time>
      </trkpt>
      <trkpt lat="47.66914" lon="-2.08922">
        <ele>49.705623</ele>
        <time>2022-12-15T11:05:50.568Z</time>
      </trkpt>
      <trkpt lat="47.66905" lon="-2.08935">
        <ele>49.813019</ele>
        <time>2022-12-15T11:05:53.568Z</time>
      </trkpt>
      <trkpt lat="47.66896" lon="-2.08948">
        <ele>49.77888</ele>
        <time>2022-12-15T11:05:56.553Z</time>
      </trkpt>
      <trkpt lat="47.66886" lon="-2.08961">
        <ele>49.744624</ele>
        <time>2022-12-15T11:05:59.562Z</time>
      </trkpt>
      <trkpt lat="47.66877" lon="-2.08975">
        <ele>49.71067</ele>
        <time>2022-12-15T11:06:02.566Z</time>
      </trkpt>
      <trkpt lat="47.66869" lon="-2.0899">
        <ele>49.677122</ele>
        <time>2022-12-15T11:06:05.570Z</time>
      </trkpt>
      <trkpt lat="47.66861" lon="-2.09004">
        <ele>49.644833</ele>
        <time>2022-12-15T11:06:08.564Z</time>
      </trkpt>
      <trkpt lat="47.66855" lon="-2.09017">
        <ele>49.61546</ele>
        <time>2022-12-15T11:06:11.569Z</time>
      </trkpt>
      <trkpt lat="47.66847" lon="-2.09031">
        <ele>49.584156</ele>
        <time>2022-12-15T11:06:14.568Z</time>
      </trkpt>
      <trkpt lat="47.6684" lon="-2.09045">
        <ele>49.551699</ele>
        <time>2022-12-15T11:06:17.564Z</time>
      </trkpt>
      <trkpt lat="47.66833" lon="-2.0906">
        <ele>49.519327</ele>
        <time>2022-12-15T11:06:20.559Z</time>
      </trkpt>
      <trkpt lat="47.66826" lon="-2.09074">
        <ele>49.488516</ele>
        <time>2022-12-15T11:06:23.556Z</time>
      </trkpt>
      <trkpt lat="47.66818" lon="-2.09089">
        <ele>49.455616</ele>
        <time>2022-12-15T11:06:26.559Z</time>
      </trkpt>
      <trkpt lat="47.66811" lon="-2.09104">
        <ele>49.421859</ele>
        <time>2022-12-15T11:06:29.571Z</time>
      </trkpt>
      <trkpt lat="47.66804" lon="-2.0912">
        <ele>49.387659</ele>
        <time>2022-12-15T11:06:32.548Z</time>
      </trkpt>
      <trkpt lat="47.66797" lon="-2.09137">
        <ele>49.353013</ele>
        <time>2022-12-15T11:06:35.560Z</time>
      </trkpt>
      <trkpt lat="47.66789" lon="-2.09153">
        <ele>49.29908</ele>
        <time>2022-12-15T11:06:38.543Z</time>
      </trkpt>
      <trkpt lat="47.66782" lon="-2.09169">
        <ele>49.235272</ele>
        <time>2022-12-15T11:06:41.564Z</time>
      </trkpt>
      <trkpt lat="47.66774" lon="-2.09185">
        <ele>49.170061</ele>
        <time>2022-12-15T11:06:44.566Z</time>
      </trkpt>
      <trkpt lat="47.66767" lon="-2.09201">
        <ele>49.105709</ele>
        <time>2022-12-15T11:06:47.552Z</time>
      </trkpt>
      <trkpt lat="47.66759" lon="-2.09216">
        <ele>49.041197</ele>
        <time>2022-12-15T11:06:50.570Z</time>
      </trkpt>
      <trkpt lat="47.66751" lon="-2.09231">
        <ele>48.978402</ele>
        <time>2022-12-15T11:06:53.546Z</time>
      </trkpt>
      <trkpt lat="47.66744" lon="-2.09248">
        <ele>48.915611</ele>
        <time>2022-12-15T11:06:56.575Z</time>
      </trkpt>
      <trkpt lat="47.66737" lon="-2.09263">
        <ele>48.853988</ele>
        <time>2022-12-15T11:06:59.573Z</time>
      </trkpt>
      <trkpt lat="47.6673" lon="-2.09278">
        <ele>48.790955</ele>
        <time>2022-12-15T11:07:02.567Z</time>
      </trkpt>
      <trkpt lat="47.66722" lon="-2.09293">
        <ele>48.728983</ele>
        <time>2022-12-15T11:07:05.566Z</time>
      </trkpt>
      <trkpt lat="47.66714" lon="-2.09308">
        <ele>48.666154</ele>
        <time>2022-12-15T11:07:08.573Z</time>
      </trkpt>
      <trkpt lat="47.66707" lon="-2.09323">
        <ele>48.605826</ele>
        <time>2022-12-15T11:07:11.546Z</time>
      </trkpt>
      <trkpt lat="47.667" lon="-2.09337">
        <ele>48.549081</ele>
        <time>2022-12-15T11:07:14.559Z</time>
      </trkpt>
      <trkpt lat="47.66693" lon="-2.09351">
        <ele>48.490449</ele>
        <time>2022-12-15T11:07:17.569Z</time>
      </trkpt>
      <trkpt lat="47.66686" lon="-2.09366">
        <ele>48.462709</ele>
        <time>2022-12-15T11:07:20.566Z</time>
      </trkpt>
      <trkpt lat="47.6668" lon="-2.0938">
        <ele>48.46972</ele>
        <time>2022-12-15T11:07:23.559Z</time>
      </trkpt>
      <trkpt lat="47.66673" lon="-2.09396">
        <ele>48.477073</ele>
        <time>2022-12-15T11:07:26.569Z</time>
      </trkpt>
      <trkpt lat="47.66666" lon="-2.09411">
        <ele>48.484485</ele>
        <time>2022-12-15T11:07:29.565Z</time>
      </trkpt>
      <trkpt lat="47.6666" lon="-2.09425">
        <ele>48.49113</ele>
        <time>2022-12-15T11:07:32.576Z</time>
      </trkpt>
      <trkpt lat="47.66653" lon="-2.09439">
        <ele>48.498216</ele>
        <time>2022-12-15T11:07:35.566Z</time>
      </trkpt>
      <trkpt lat="47.66645" lon="-2.09453">
        <ele>48.505423</ele>
        <time>2022-12-15T11:07:38.566Z</time>
      </trkpt>
      <trkpt lat="47.66638" lon="-2.09468">
        <ele>48.512947</ele>
        <time>2022-12-15T11:07:41.568Z</time>
      </trkpt>
      <trkpt lat="47.6663" lon="-2.09483">
        <ele>48.520595</ele>
        <time>2022-12-15T11:07:44.584Z</time>
      </trkpt>
      <trkpt lat="47.66623" lon="-2.09498">
        <ele>48.528219</ele>
        <time>2022-12-15T11:07:47.554Z</time>
      </trkpt>
      <trkpt lat="47.66616" lon="-2.09512">
        <ele>48.535131</ele>
        <time>2022-12-15T11:07:50.567Z</time>
      </trkpt>
      <trkpt lat="47.6661" lon="-2.09526">
        <ele>48.541743</ele>
        <time>2022-12-15T11:07:53.570Z</time>
      </trkpt>
      <trkpt lat="47.66603" lon="-2.0954">
        <ele>48.548626</ele>
        <time>2022-12-15T11:07:56.566Z</time>
      </trkpt>
      <trkpt lat="47.66596" lon="-2.09554">
        <ele>48.555772</ele>
        <time>2022-12-15T11:07:59.566Z</time>
      </trkpt>
      <trkpt lat="47.66589" lon="-2.0957">
        <ele>48.563317</ele>
        <time>2022-12-15T11:08:02.567Z</time>
      </trkpt>
      <trkpt lat="47.66584" lon="-2.09581">
        <ele>48.497562</ele>
        <time>2022-12-15T11:08:05.564Z</time>
      </trkpt>
      <trkpt lat="47.6659" lon="-2.0957">
        <ele>48.279023</ele>
        <time>2022-12-15T11:08:39.554Z</time>
      </trkpt>
      <trkpt lat="47.66594" lon="-2.09569">
        <ele>48.177312</ele>
        <time>2022-12-15T11:09:03.505Z</time>
      </trkpt>
      <trkpt lat="47.66606" lon="-2.09546">
        <ele>47.728669</ele>
        <time>2022-12-15T11:14:25.554Z</time>
      </trkpt>
      <trkpt lat="47.66612" lon="-2.09535">
        <ele>47.511501</ele>
        <time>2022-12-15T11:14:29.572Z</time>
      </trkpt>
      <trkpt lat="47.66618" lon="-2.09519">
        <ele>47.23139</ele>
        <time>2022-12-15T11:14:33.583Z</time>
      </trkpt>
      <trkpt lat="47.66624" lon="-2.09507">
        <ele>46.994943</ele>
        <time>2022-12-15T11:14:36.551Z</time>
      </trkpt>
      <trkpt lat="47.6663" lon="-2.09493">
        <ele>46.740731</ele>
        <time>2022-12-15T11:14:39.558Z</time>
      </trkpt>
      <trkpt lat="47.66637" lon="-2.09479">
        <ele>46.478815</ele>
        <time>2022-12-15T11:14:42.572Z</time>
      </trkpt>
      <trkpt lat="47.66643" lon="-2.09465">
        <ele>46.219408</ele>
        <time>2022-12-15T11:14:45.568Z</time>
      </trkpt>
      <trkpt lat="47.66649" lon="-2.09451">
        <ele>45.956194</ele>
        <time>2022-12-15T11:14:48.556Z</time>
      </trkpt>
      <trkpt lat="47.66656" lon="-2.09437">
        <ele>45.689007</ele>
        <time>2022-12-15T11:14:51.554Z</time>
      </trkpt>
      <trkpt lat="47.66663" lon="-2.09423">
        <ele>45.424483</ele>
        <time>2022-12-15T11:14:54.571Z</time>
      </trkpt>
      <trkpt lat="47.66669" lon="-2.09409">
        <ele>45.161225</ele>
        <time>2022-12-15T11:14:57.578Z</time>
      </trkpt>
      <trkpt lat="47.66676" lon="-2.09395">
        <ele>44.894165</ele>
        <time>2022-12-15T11:15:00.573Z</time>
      </trkpt>
      <trkpt lat="47.66683" lon="-2.0938">
        <ele>44.619392</ele>
        <time>2022-12-15T11:15:03.567Z</time>
      </trkpt>
      <trkpt lat="47.6669" lon="-2.09366">
        <ele>44.371117</ele>
        <time>2022-12-15T11:15:06.575Z</time>
      </trkpt>
      <trkpt lat="47.66696" lon="-2.09352">
        <ele>44.193604</ele>
        <time>2022-12-15T11:15:09.571Z</time>
      </trkpt>
      <trkpt lat="47.66703" lon="-2.09338">
        <ele>44.009071</ele>
        <time>2022-12-15T11:15:12.560Z</time>
      </trkpt>
      <trkpt lat="47.6671" lon="-2.09323">
        <ele>43.817638</ele>
        <time>2022-12-15T11:15:15.552Z</time>
      </trkpt>
      <trkpt lat="47.66717" lon="-2.09308">
        <ele>43.630492</ele>
        <time>2022-12-15T11:15:18.562Z</time>
      </trkpt>
      <trkpt lat="47.66724" lon="-2.09293">
        <ele>43.438057</ele>
        <time>2022-12-15T11:15:21.570Z</time>
      </trkpt>
      <trkpt lat="47.66732" lon="-2.09279">
        <ele>43.243657</ele>
        <time>2022-12-15T11:15:24.574Z</time>
      </trkpt>
      <trkpt lat="47.66739" lon="-2.09264">
        <ele>43.052814</ele>
        <time>2022-12-15T11:15:27.573Z</time>
      </trkpt>
      <trkpt lat="47.66746" lon="-2.0925">
        <ele>42.866521</ele>
        <time>2022-12-15T11:15:30.571Z</time>
      </trkpt>
      <trkpt lat="47.66754" lon="-2.09236">
        <ele>42.684352</ele>
        <time>2022-12-15T11:15:33.557Z</time>
      </trkpt>
      <trkpt lat="47.6676" lon="-2.09223">
        <ele>42.511972</ele>
        <time>2022-12-15T11:15:36.567Z</time>
      </trkpt>
      <trkpt lat="47.66766" lon="-2.09209">
        <ele>42.337958</ele>
        <time>2022-12-15T11:15:39.573Z</time>
      </trkpt>
      <trkpt lat="47.66773" lon="-2.09196">
        <ele>42.164569</ele>
        <time>2022-12-15T11:15:42.571Z</time>
      </trkpt>
      <trkpt lat="47.66778" lon="-2.09184">
        <ele>42.016355</ele>
        <time>2022-12-15T11:15:45.573Z</time>
      </trkpt>
      <trkpt lat="47.66784" lon="-2.09172">
        <ele>41.862191</ele>
        <time>2022-12-15T11:15:48.576Z</time>
      </trkpt>
      <trkpt lat="47.6679" lon="-2.09159">
        <ele>41.695988</ele>
        <time>2022-12-15T11:15:51.569Z</time>
      </trkpt>
      <trkpt lat="47.66797" lon="-2.09144">
        <ele>41.588195</ele>
        <time>2022-12-15T11:15:54.572Z</time>
      </trkpt>
      <trkpt lat="47.66804" lon="-2.09129">
        <ele>41.520926</ele>
        <time>2022-12-15T11:15:57.566Z</time>
      </trkpt>
      <trkpt lat="47.66811" lon="-2.09113">
        <ele>41.450328</ele>
        <time>2022-12-15T11:16:00.570Z</time>
      </trkpt>
      <trkpt lat="47.66819" lon="-2.09098">
        <ele>41.378805</ele>
        <time>2022-12-15T11:16:03.574Z</time>
      </trkpt>
      <trkpt lat="47.66826" lon="-2.09083">
        <ele>41.311254</ele>
        <time>2022-12-15T11:16:06.549Z</time>
      </trkpt>
      <trkpt lat="47.66832" lon="-2.09067">
        <ele>41.244929</ele>
        <time>2022-12-15T11:16:09.567Z</time>
      </trkpt>
      <trkpt lat="47.66839" lon="-2.09054">
        <ele>41.183142</ele>
        <time>2022-12-15T11:16:12.572Z</time>
      </trkpt>
      <trkpt lat="47.66846" lon="-2.0904">
        <ele>41.12076</ele>
        <time>2022-12-15T11:16:15.567Z</time>
      </trkpt>
      <trkpt lat="47.66853" lon="-2.09026">
        <ele>41.057137</ele>
        <time>2022-12-15T11:16:18.578Z</time>
      </trkpt>
      <trkpt lat="47.66859" lon="-2.09012">
        <ele>40.993557</ele>
        <time>2022-12-15T11:16:21.571Z</time>
      </trkpt>
      <trkpt lat="47.66867" lon="-2.08998">
        <ele>40.928221</ele>
        <time>2022-12-15T11:16:24.565Z</time>
      </trkpt>
      <trkpt lat="47.66874" lon="-2.08985">
        <ele>40.864567</ele>
        <time>2022-12-15T11:16:27.562Z</time>
      </trkpt>
      <trkpt lat="47.66882" lon="-2.08971">
        <ele>40.799227</ele>
        <time>2022-12-15T11:16:30.572Z</time>
      </trkpt>
      <trkpt lat="47.6689" lon="-2.08959">
        <ele>40.735257</ele>
        <time>2022-12-15T11:16:33.577Z</time>
      </trkpt>
      <trkpt lat="47.66897" lon="-2.08947">
        <ele>40.675365</ele>
        <time>2022-12-15T11:16:36.578Z</time>
      </trkpt>
      <trkpt lat="47.66905" lon="-2.08934">
        <ele>40.761897</ele>
        <time>2022-12-15T11:16:39.560Z</time>
      </trkpt>
      <trkpt lat="47.66913" lon="-2.08923">
        <ele>40.967456</ele>
        <time>2022-12-15T11:16:42.571Z</time>
      </trkpt>
      <trkpt lat="47.66921" lon="-2.08912">
        <ele>41.174044</ele>
        <time>2022-12-15T11:16:45.558Z</time>
      </trkpt>
      <trkpt lat="47.6693" lon="-2.08902">
        <ele>41.383183</ele>
        <time>2022-12-15T11:16:48.578Z</time>
      </trkpt>
      <trkpt lat="47.6694" lon="-2.08892">
        <ele>41.60363</ele>
        <time>2022-12-15T11:16:51.573Z</time>
      </trkpt>
      <trkpt lat="47.66951" lon="-2.08883">
        <ele>41.838697</ele>
        <time>2022-12-15T11:16:54.563Z</time>
      </trkpt>
      <trkpt lat="47.66963" lon="-2.08875">
        <ele>42.079705</ele>
        <time>2022-12-15T11:16:57.571Z</time>
      </trkpt>
      <trkpt lat="47.66975" lon="-2.08867">
        <ele>42.322397</ele>
        <time>2022-12-15T11:17:00.560Z</time>
      </trkpt>
      <trkpt lat="47.66984" lon="-2.08863">
        <ele>42.493195</ele>
        <time>2022-12-15T11:17:02.573Z</time>
      </trkpt>
      <trkpt lat="47.66996" lon="-2.08856">
        <ele>42.726964</ele>
        <time>2022-12-15T11:17:05.565Z</time>
      </trkpt>
      <trkpt lat="47.67006" lon="-2.0885">
        <ele>42.937296</ele>
        <time>2022-12-15T11:17:08.576Z</time>
      </trkpt>
      <trkpt lat="47.67017" lon="-2.08846">
        <ele>43.146386</ele>
        <time>2022-12-15T11:17:11.576Z</time>
      </trkpt>
      <trkpt lat="47.67028" lon="-2.08842">
        <ele>43.357268</ele>
        <time>2022-12-15T11:17:14.572Z</time>
      </trkpt>
      <trkpt lat="47.67039" lon="-2.08838">
        <ele>43.564286</ele>
        <time>2022-12-15T11:17:17.572Z</time>
      </trkpt>
      <trkpt lat="47.6705" lon="-2.08835">
        <ele>43.777327</ele>
        <time>2022-12-15T11:17:20.553Z</time>
      </trkpt>
      <trkpt lat="47.67062" lon="-2.08833">
        <ele>43.996848</ele>
        <time>2022-12-15T11:17:23.564Z</time>
      </trkpt>
      <trkpt lat="47.67074" lon="-2.08831">
        <ele>44.216591</ele>
        <time>2022-12-15T11:17:26.571Z</time>
      </trkpt>
      <trkpt lat="47.67087" lon="-2.08831">
        <ele>44.431561</ele>
        <time>2022-12-15T11:17:29.572Z</time>
      </trkpt>
      <trkpt lat="47.67099" lon="-2.08831">
        <ele>44.648236</ele>
        <time>2022-12-15T11:17:32.572Z</time>
      </trkpt>
      <trkpt lat="47.67111" lon="-2.08832">
        <ele>44.86741</ele>
        <time>2022-12-15T11:17:35.560Z</time>
      </trkpt>
      <trkpt lat="47.67123" lon="-2.08835">
        <ele>45.078765</ele>
        <time>2022-12-15T11:17:38.570Z</time>
      </trkpt>
      <trkpt lat="47.67135" lon="-2.08837">
        <ele>45.290618</ele>
        <time>2022-12-15T11:17:41.566Z</time>
      </trkpt>
      <trkpt lat="47.67147" lon="-2.08842">
        <ele>45.509845</ele>
        <time>2022-12-15T11:17:44.566Z</time>
      </trkpt>
      <trkpt lat="47.67159" lon="-2.08846">
        <ele>45.728836</ele>
        <time>2022-12-15T11:17:47.551Z</time>
      </trkpt>
      <trkpt lat="47.6717" lon="-2.08851">
        <ele>45.933486</ele>
        <time>2022-12-15T11:17:50.557Z</time>
      </trkpt>
      <trkpt lat="47.6718" lon="-2.08857">
        <ele>46.13625</ele>
        <time>2022-12-15T11:17:53.572Z</time>
      </trkpt>
      <trkpt lat="47.67191" lon="-2.08863">
        <ele>46.341876</ele>
        <time>2022-12-15T11:17:56.569Z</time>
      </trkpt>
      <trkpt lat="47.67202" lon="-2.0887">
        <ele>46.552002</ele>
        <time>2022-12-15T11:17:59.568Z</time>
      </trkpt>
      <trkpt lat="47.67212" lon="-2.08879">
        <ele>46.760898</ele>
        <time>2022-12-15T11:18:02.562Z</time>
      </trkpt>
      <trkpt lat="47.67222" lon="-2.08889">
        <ele>46.966247</ele>
        <time>2022-12-15T11:18:05.568Z</time>
      </trkpt>
      <trkpt lat="47.67231" lon="-2.08899">
        <ele>47.176855</ele>
        <time>2022-12-15T11:18:08.563Z</time>
      </trkpt>
      <trkpt lat="47.6724" lon="-2.0891">
        <ele>47.413461</ele>
        <time>2022-12-15T11:18:11.575Z</time>
      </trkpt>
      <trkpt lat="47.6725" lon="-2.08921">
        <ele>47.665538</ele>
        <time>2022-12-15T11:18:14.570Z</time>
      </trkpt>
      <trkpt lat="47.67259" lon="-2.08931">
        <ele>47.894666</ele>
        <time>2022-12-15T11:18:17.574Z</time>
      </trkpt>
      <trkpt lat="47.67267" lon="-2.0894">
        <ele>48.101881</ele>
        <time>2022-12-15T11:18:20.556Z</time>
      </trkpt>
      <trkpt lat="47.67276" lon="-2.08951">
        <ele>48.333585</ele>
        <time>2022-12-15T11:18:23.570Z</time>
      </trkpt>
      <trkpt lat="47.67285" lon="-2.08961">
        <ele>48.573355</ele>
        <time>2022-12-15T11:18:26.571Z</time>
      </trkpt>
      <trkpt lat="47.67295" lon="-2.08972">
        <ele>48.816463</ele>
        <time>2022-12-15T11:18:29.547Z</time>
      </trkpt>
      <trkpt lat="47.67303" lon="-2.08982">
        <ele>49.040095</ele>
        <time>2022-12-15T11:18:32.573Z</time>
      </trkpt>
      <trkpt lat="47.67313" lon="-2.08992">
        <ele>49.273345</ele>
        <time>2022-12-15T11:18:35.573Z</time>
      </trkpt>
      <trkpt lat="47.67323" lon="-2.09003">
        <ele>49.527048</ele>
        <time>2022-12-15T11:18:38.560Z</time>
      </trkpt>
      <trkpt lat="47.67332" lon="-2.09014">
        <ele>49.775835</ele>
        <time>2022-12-15T11:18:41.570Z</time>
      </trkpt>
      <trkpt lat="47.67342" lon="-2.09026">
        <ele>50.032816</ele>
        <time>2022-12-15T11:18:44.571Z</time>
      </trkpt>
      <trkpt lat="47.67353" lon="-2.09037">
        <ele>50.298766</ele>
        <time>2022-12-15T11:18:47.575Z</time>
      </trkpt>
      <trkpt lat="47.67363" lon="-2.09048">
        <ele>50.557351</ele>
        <time>2022-12-15T11:18:50.571Z</time>
      </trkpt>
      <trkpt lat="47.67372" lon="-2.09059">
        <ele>50.793105</ele>
        <time>2022-12-15T11:18:53.573Z</time>
      </trkpt>
      <trkpt lat="47.67382" lon="-2.09069">
        <ele>50.663527</ele>
        <time>2022-12-15T11:18:56.571Z</time>
      </trkpt>
      <trkpt lat="47.67392" lon="-2.0908">
        <ele>50.418662</ele>
        <time>2022-12-15T11:18:59.563Z</time>
      </trkpt>
      <trkpt lat="47.67402" lon="-2.09091">
        <ele>50.169838</ele>
        <time>2022-12-15T11:19:02.570Z</time>
      </trkpt>
      <trkpt lat="47.6741" lon="-2.09101">
        <ele>49.954805</ele>
        <time>2022-12-15T11:19:05.578Z</time>
      </trkpt>
      <trkpt lat="47.67418" lon="-2.09111">
        <ele>49.754256</ele>
        <time>2022-12-15T11:19:08.563Z</time>
      </trkpt>
      <trkpt lat="47.67427" lon="-2.09121">
        <ele>49.536164</ele>
        <time>2022-12-15T11:19:11.576Z</time>
      </trkpt>
      <trkpt lat="47.67436" lon="-2.09132">
        <ele>49.304546</ele>
        <time>2022-12-15T11:19:14.568Z</time>
      </trkpt>
      <trkpt lat="47.67445" lon="-2.09143">
        <ele>49.067567</ele>
        <time>2022-12-15T11:19:17.558Z</time>
      </trkpt>
      <trkpt lat="47.67455" lon="-2.09153">
        <ele>48.838473</ele>
        <time>2022-12-15T11:19:20.559Z</time>
      </trkpt>
      <trkpt lat="47.67462" lon="-2.09161">
        <ele>48.657007</ele>
        <time>2022-12-15T11:19:23.570Z</time>
      </trkpt>
      <trkpt lat="47.6747" lon="-2.0917">
        <ele>48.4549</ele>
        <time>2022-12-15T11:19:26.577Z</time>
      </trkpt>
      <trkpt lat="47.67479" lon="-2.0918">
        <ele>48.245669</ele>
        <time>2022-12-15T11:19:29.575Z</time>
      </trkpt>
      <trkpt lat="47.67487" lon="-2.09189">
        <ele>48.036438</ele>
        <time>2022-12-15T11:19:32.580Z</time>
      </trkpt>
      <trkpt lat="47.67495" lon="-2.09199">
        <ele>47.835068</ele>
        <time>2022-12-15T11:19:35.580Z</time>
      </trkpt>
      <trkpt lat="47.67504" lon="-2.09208">
        <ele>47.621088</ele>
        <time>2022-12-15T11:19:38.574Z</time>
      </trkpt>
      <trkpt lat="47.67512" lon="-2.09217">
        <ele>47.418221</ele>
        <time>2022-12-15T11:19:41.570Z</time>
      </trkpt>
      <trkpt lat="47.67521" lon="-2.09226">
        <ele>47.289345</ele>
        <time>2022-12-15T11:19:44.578Z</time>
      </trkpt>
      <trkpt lat="47.67529" lon="-2.09235">
        <ele>47.282748</ele>
        <time>2022-12-15T11:19:47.579Z</time>
      </trkpt>
      <trkpt lat="47.67538" lon="-2.09245">
        <ele>47.275422</ele>
        <time>2022-12-15T11:19:50.574Z</time>
      </trkpt>
      <trkpt lat="47.67547" lon="-2.09255">
        <ele>47.267992</ele>
        <time>2022-12-15T11:19:53.579Z</time>
      </trkpt>
      <trkpt lat="47.67554" lon="-2.09264">
        <ele>47.261845</ele>
        <time>2022-12-15T11:19:56.576Z</time>
      </trkpt>
      <trkpt lat="47.67562" lon="-2.09272">
        <ele>47.255771</ele>
        <time>2022-12-15T11:19:59.568Z</time>
      </trkpt>
      <trkpt lat="47.6757" lon="-2.09282">
        <ele>47.248941</ele>
        <time>2022-12-15T11:20:03.572Z</time>
      </trkpt>
      <trkpt lat="47.67577" lon="-2.0929">
        <ele>47.243023</ele>
        <time>2022-12-15T11:20:07.559Z</time>
      </trkpt>
      <trkpt lat="47.67585" lon="-2.093">
        <ele>47.236407</ele>
        <time>2022-12-15T11:20:12.566Z</time>
      </trkpt>
      <trkpt lat="47.6759" lon="-2.09314">
        <ele>47.229552</ele>
        <time>2022-12-15T11:20:17.573Z</time>
      </trkpt>
      <trkpt lat="47.67595" lon="-2.09326">
        <ele>47.223477</ele>
        <time>2022-12-15T11:20:22.556Z</time>
      </trkpt>
      <trkpt lat="47.67602" lon="-2.09334">
        <ele>47.217612</ele>
        <time>2022-12-15T11:20:27.551Z</time>
      </trkpt>
      <trkpt lat="47.67611" lon="-2.09341">
        <ele>47.211348</ele>
        <time>2022-12-15T11:20:32.574Z</time>
      </trkpt>
      <trkpt lat="47.6762" lon="-2.09344">
        <ele>47.205186</ele>
        <time>2022-12-15T11:20:38.563Z</time>
      </trkpt>
      <trkpt lat="47.67618" lon="-2.09329">
        <ele>47.198372</ele>
        <time>2022-12-15T11:20:44.569Z</time>
      </trkpt>
      <trkpt lat="47.67616" lon="-2.09313">
        <ele>47.191516</ele>
        <time>2022-12-15T11:20:48.574Z</time>
      </trkpt>
      <trkpt lat="47.67615" lon="-2.09298">
        <ele>47.185012</ele>
        <time>2022-12-15T11:20:52.570Z</time>
      </trkpt>
      <trkpt lat="47.67615" lon="-2.09284">
        <ele>47.178842</ele>
        <time>2022-12-15T11:20:56.570Z</time>
      </trkpt>
      <trkpt lat="47.67613" lon="-2.09267">
        <ele>47.295798</ele>
        <time>2022-12-15T11:21:00.571Z</time>
      </trkpt>
      <trkpt lat="47.67612" lon="-2.09253">
        <ele>47.501885</ele>
        <time>2022-12-15T11:21:03.581Z</time>
      </trkpt>
      <trkpt lat="47.6761" lon="-2.09239">
        <ele>47.717186</ele>
        <time>2022-12-15T11:21:06.564Z</time>
      </trkpt>
      <trkpt lat="47.67609" lon="-2.09225">
        <ele>47.919317</ele>
        <time>2022-12-15T11:21:09.576Z</time>
      </trkpt>
      <trkpt lat="47.67606" lon="-2.09209">
        <ele>48.159992</ele>
        <time>2022-12-15T11:21:13.584Z</time>
      </trkpt>
      <trkpt lat="47.67602" lon="-2.09193">
        <ele>48.403845</ele>
        <time>2022-12-15T11:21:17.561Z</time>
      </trkpt>
      <trkpt lat="47.67599" lon="-2.0918">
        <ele>48.607006</ele>
        <time>2022-12-15T11:21:20.573Z</time>
      </trkpt>
      <trkpt lat="47.67595" lon="-2.09167">
        <ele>48.808962</ele>
        <time>2022-12-15T11:21:23.560Z</time>
      </trkpt>
      <trkpt lat="47.67591" lon="-2.09151">
        <ele>49.056559</ele>
        <time>2022-12-15T11:21:27.573Z</time>
      </trkpt>
      <trkpt lat="47.67588" lon="-2.09134">
        <ele>49.307183</ele>
        <time>2022-12-15T11:21:31.578Z</time>
      </trkpt>
      <trkpt lat="47.67586" lon="-2.09121">
        <ele>49.507434</ele>
        <time>2022-12-15T11:21:34.580Z</time>
      </trkpt>
      <trkpt lat="47.67583" lon="-2.09106">
        <ele>49.739375</ele>
        <time>2022-12-15T11:21:38.579Z</time>
      </trkpt>
      <trkpt lat="47.67581" lon="-2.0909">
        <ele>49.968945</ele>
        <time>2022-12-15T11:21:42.571Z</time>
      </trkpt>
      <trkpt lat="47.6758" lon="-2.09076">
        <ele>50.173056</ele>
        <time>2022-12-15T11:21:45.570Z</time>
      </trkpt>
      <trkpt lat="47.67578" lon="-2.09062">
        <ele>50.381482</ele>
        <time>2022-12-15T11:21:48.577Z</time>
      </trkpt>
      <trkpt lat="47.67579" lon="-2.09047">
        <ele>50.601001</ele>
        <time>2022-12-15T11:21:52.571Z</time>
      </trkpt>
      <trkpt lat="47.6758" lon="-2.09032">
        <ele>50.812523</ele>
        <time>2022-12-15T11:21:56.573Z</time>
      </trkpt>
      <trkpt lat="47.67579" lon="-2.09017">
        <ele>51.023389</ele>
        <time>2022-12-15T11:22:00.561Z</time>
      </trkpt>
      <trkpt lat="47.67578" lon="-2.09004">
        <ele>51.077767</ele>
        <time>2022-12-15T11:22:04.572Z</time>
      </trkpt>
      <trkpt lat="47.67576" lon="-2.0899">
        <ele>51.117895</ele>
        <time>2022-12-15T11:22:09.572Z</time>
      </trkpt>
      <trkpt lat="47.67581" lon="-2.09008">
        <ele>51.171464</ele>
        <time>2022-12-15T11:26:08.581Z</time>
      </trkpt>
      <trkpt lat="47.67581" lon="-2.09025">
        <ele>51.219912</ele>
        <time>2022-12-15T11:26:11.577Z</time>
      </trkpt>
      <trkpt lat="47.67581" lon="-2.09038">
        <ele>51.258236</ele>
        <time>2022-12-15T11:26:13.576Z</time>
      </trkpt>
      <trkpt lat="47.67581" lon="-2.09054">
        <ele>51.302971</ele>
        <time>2022-12-15T11:26:15.575Z</time>
      </trkpt>
      <trkpt lat="47.67581" lon="-2.09069">
        <ele>51.347137</ele>
        <time>2022-12-15T11:26:17.575Z</time>
      </trkpt>
      <trkpt lat="47.67582" lon="-2.09084">
        <ele>51.38818</ele>
        <time>2022-12-15T11:26:19.573Z</time>
      </trkpt>
      <trkpt lat="47.67583" lon="-2.09103">
        <ele>51.442348</ele>
        <time>2022-12-15T11:26:22.557Z</time>
      </trkpt>
      <trkpt lat="47.67586" lon="-2.09118">
        <ele>51.489204</ele>
        <time>2022-12-15T11:26:25.564Z</time>
      </trkpt>
      <trkpt lat="47.67591" lon="-2.09132">
        <ele>51.534301</ele>
        <time>2022-12-15T11:26:28.577Z</time>
      </trkpt>
      <trkpt lat="47.67596" lon="-2.09146">
        <ele>51.578486</ele>
        <time>2022-12-15T11:26:31.576Z</time>
      </trkpt>
      <trkpt lat="47.676" lon="-2.0916">
        <ele>51.62155</ele>
        <time>2022-12-15T11:26:34.575Z</time>
      </trkpt>
      <trkpt lat="47.67604" lon="-2.09175">
        <ele>51.665664</ele>
        <time>2022-12-15T11:26:37.575Z</time>
      </trkpt>
      <trkpt lat="47.67607" lon="-2.0919">
        <ele>51.710123</ele>
        <time>2022-12-15T11:26:40.575Z</time>
      </trkpt>
      <trkpt lat="47.67609" lon="-2.09203">
        <ele>51.750492</ele>
        <time>2022-12-15T11:26:43.605Z</time>
      </trkpt>
      <trkpt lat="47.67612" lon="-2.09218">
        <ele>51.795524</ele>
        <time>2022-12-15T11:26:46.555Z</time>
      </trkpt>
      <trkpt lat="47.67614" lon="-2.09236">
        <ele>51.64323</ele>
        <time>2022-12-15T11:26:49.556Z</time>
      </trkpt>
      <trkpt lat="47.67615" lon="-2.09253">
        <ele>51.448302</ele>
        <time>2022-12-15T11:26:52.577Z</time>
      </trkpt>
      <trkpt lat="47.67616" lon="-2.09267">
        <ele>51.290075</ele>
        <time>2022-12-15T11:26:55.577Z</time>
      </trkpt>
      <trkpt lat="47.67618" lon="-2.09281">
        <ele>51.131387</ele>
        <time>2022-12-15T11:26:58.576Z</time>
      </trkpt>
      <trkpt lat="47.67618" lon="-2.09295">
        <ele>50.972881</ele>
        <time>2022-12-15T11:27:01.577Z</time>
      </trkpt>
      <trkpt lat="47.67619" lon="-2.09311">
        <ele>50.790327</ele>
        <time>2022-12-15T11:27:05.633Z</time>
      </trkpt>
      <trkpt lat="47.6762" lon="-2.09327">
        <ele>50.608267</ele>
        <time>2022-12-15T11:27:09.578Z</time>
      </trkpt>
      <trkpt lat="47.67615" lon="-2.09339">
        <ele>50.445076</ele>
        <time>2022-12-15T11:27:14.574Z</time>
      </trkpt>
      <trkpt lat="47.67605" lon="-2.09333">
        <ele>50.268437</ele>
        <time>2022-12-15T11:27:19.578Z</time>
      </trkpt>
      <trkpt lat="47.67597" lon="-2.09323">
        <ele>50.085608</ele>
        <time>2022-12-15T11:27:24.575Z</time>
      </trkpt>
      <trkpt lat="47.6759" lon="-2.0931">
        <ele>49.908025</ele>
        <time>2022-12-15T11:27:29.624Z</time>
      </trkpt>
      <trkpt lat="47.67585" lon="-2.09297">
        <ele>49.740094</ele>
        <time>2022-12-15T11:27:34.577Z</time>
      </trkpt>
      <trkpt lat="47.67577" lon="-2.09289">
        <ele>49.570388</ele>
        <time>2022-12-15T11:27:38.577Z</time>
      </trkpt>
      <trkpt lat="47.67568" lon="-2.09278">
        <ele>49.374491</ele>
        <time>2022-12-15T11:27:42.577Z</time>
      </trkpt>
      <trkpt lat="47.6756" lon="-2.09269">
        <ele>49.204825</ele>
        <time>2022-12-15T11:27:45.558Z</time>
      </trkpt>
      <trkpt lat="47.67552" lon="-2.0926">
        <ele>49.039529</ele>
        <time>2022-12-15T11:27:48.578Z</time>
      </trkpt>
      <trkpt lat="47.67544" lon="-2.09251">
        <ele>48.871738</ele>
        <time>2022-12-15T11:27:51.574Z</time>
      </trkpt>
      <trkpt lat="47.67535" lon="-2.09242">
        <ele>48.810991</ele>
        <time>2022-12-15T11:27:54.576Z</time>
      </trkpt>
      <trkpt lat="47.67526" lon="-2.09232">
        <ele>48.855797</ele>
        <time>2022-12-15T11:27:57.575Z</time>
      </trkpt>
      <trkpt lat="47.67518" lon="-2.09221">
        <ele>48.899665</ele>
        <time>2022-12-15T11:28:00.580Z</time>
      </trkpt>
      <trkpt lat="47.67509" lon="-2.09211">
        <ele>48.943389</ele>
        <time>2022-12-15T11:28:03.565Z</time>
      </trkpt>
      <trkpt lat="47.675" lon="-2.092">
        <ele>48.991064</ele>
        <time>2022-12-15T11:28:06.581Z</time>
      </trkpt>
      <trkpt lat="47.67489" lon="-2.09188">
        <ele>49.043097</ele>
        <time>2022-12-15T11:28:09.640Z</time>
      </trkpt>
      <trkpt lat="47.67479" lon="-2.09175">
        <ele>49.096356</ele>
        <time>2022-12-15T11:28:12.577Z</time>
      </trkpt>
      <trkpt lat="47.67469" lon="-2.09164">
        <ele>49.14561</ele>
        <time>2022-12-15T11:28:15.579Z</time>
      </trkpt>
      <trkpt lat="47.67461" lon="-2.09154">
        <ele>49.187468</ele>
        <time>2022-12-15T11:28:18.578Z</time>
      </trkpt>
      <trkpt lat="47.67453" lon="-2.09145">
        <ele>49.228151</ele>
        <time>2022-12-15T11:28:21.577Z</time>
      </trkpt>
      <trkpt lat="47.67444" lon="-2.09135">
        <ele>49.272477</ele>
        <time>2022-12-15T11:28:24.577Z</time>
      </trkpt>
      <trkpt lat="47.67434" lon="-2.09125">
        <ele>49.317279</ele>
        <time>2022-12-15T11:28:27.578Z</time>
      </trkpt>
      <trkpt lat="47.67425" lon="-2.09115">
        <ele>49.364628</ele>
        <time>2022-12-15T11:28:30.577Z</time>
      </trkpt>
      <trkpt lat="47.67415" lon="-2.09104">
        <ele>49.412133</ele>
        <time>2022-12-15T11:28:33.576Z</time>
      </trkpt>
      <trkpt lat="47.67405" lon="-2.09093">
        <ele>49.460448</ele>
        <time>2022-12-15T11:28:36.588Z</time>
      </trkpt>
      <trkpt lat="47.67395" lon="-2.09081">
        <ele>49.464887</ele>
        <time>2022-12-15T11:28:39.581Z</time>
      </trkpt>
      <trkpt lat="47.67385" lon="-2.0907">
        <ele>49.318082</ele>
        <time>2022-12-15T11:28:42.560Z</time>
      </trkpt>
      <trkpt lat="47.67376" lon="-2.09061">
        <ele>49.189545</ele>
        <time>2022-12-15T11:28:45.579Z</time>
      </trkpt>
      <trkpt lat="47.67368" lon="-2.09052">
        <ele>49.069856</ele>
        <time>2022-12-15T11:28:48.577Z</time>
      </trkpt>
      <trkpt lat="47.67358" lon="-2.09042">
        <ele>48.936647</ele>
        <time>2022-12-15T11:28:51.576Z</time>
      </trkpt>
      <trkpt lat="47.67349" lon="-2.09031">
        <ele>48.801429</ele>
        <time>2022-12-15T11:28:54.574Z</time>
      </trkpt>
      <trkpt lat="47.6734" lon="-2.0902">
        <ele>48.663051</ele>
        <time>2022-12-15T11:28:57.579Z</time>
      </trkpt>
      <trkpt lat="47.6733" lon="-2.09009">
        <ele>48.519509</ele>
        <time>2022-12-15T11:29:00.576Z</time>
      </trkpt>
      <trkpt lat="47.6732" lon="-2.08997">
        <ele>48.371767</ele>
        <time>2022-12-15T11:29:03.561Z</time>
      </trkpt>
      <trkpt lat="47.67309" lon="-2.08986">
        <ele>48.218842</ele>
        <time>2022-12-15T11:29:06.576Z</time>
      </trkpt>
      <trkpt lat="47.67301" lon="-2.08975">
        <ele>48.084411</ele>
        <time>2022-12-15T11:29:09.576Z</time>
      </trkpt>
      <trkpt lat="47.6729" lon="-2.08964">
        <ele>47.93343</ele>
        <time>2022-12-15T11:29:12.573Z</time>
      </trkpt>
      <trkpt lat="47.6728" lon="-2.08953">
        <ele>47.783364</ele>
        <time>2022-12-15T11:29:15.572Z</time>
      </trkpt>
      <trkpt lat="47.67271" lon="-2.08942">
        <ele>47.650144</ele>
        <time>2022-12-15T11:29:18.567Z</time>
      </trkpt>
      <trkpt lat="47.67262" lon="-2.08933">
        <ele>47.529481</ele>
        <time>2022-12-15T11:29:21.576Z</time>
      </trkpt>
      <trkpt lat="47.67255" lon="-2.08923">
        <ele>47.411407</ele>
        <time>2022-12-15T11:29:24.593Z</time>
      </trkpt>
      <trkpt lat="47.67246" lon="-2.08914">
        <ele>47.445758</ele>
        <time>2022-12-15T11:29:27.581Z</time>
      </trkpt>
      <trkpt lat="47.67236" lon="-2.08904">
        <ele>47.489607</ele>
        <time>2022-12-15T11:29:30.568Z</time>
      </trkpt>
      <trkpt lat="47.67227" lon="-2.08895">
        <ele>47.529892</ele>
        <time>2022-12-15T11:29:33.577Z</time>
      </trkpt>
      <trkpt lat="47.67218" lon="-2.08886">
        <ele>47.571125</ele>
        <time>2022-12-15T11:29:36.585Z</time>
      </trkpt>
      <trkpt lat="47.67208" lon="-2.08878">
        <ele>47.61598</ele>
        <time>2022-12-15T11:29:39.576Z</time>
      </trkpt>
      <trkpt lat="47.67198" lon="-2.0887">
        <ele>47.660636</ele>
        <time>2022-12-15T11:29:42.579Z</time>
      </trkpt>
      <trkpt lat="47.67187" lon="-2.08863">
        <ele>47.706522</ele>
        <time>2022-12-15T11:29:45.585Z</time>
      </trkpt>
      <trkpt lat="47.67176" lon="-2.08856">
        <ele>47.752213</ele>
        <time>2022-12-15T11:29:48.575Z</time>
      </trkpt>
      <trkpt lat="47.67164" lon="-2.08851">
        <ele>47.797922</ele>
        <time>2022-12-15T11:29:51.577Z</time>
      </trkpt>
      <trkpt lat="47.67153" lon="-2.08846">
        <ele>47.841138</ele>
        <time>2022-12-15T11:29:54.564Z</time>
      </trkpt>
      <trkpt lat="47.67143" lon="-2.08842">
        <ele>47.880564</ele>
        <time>2022-12-15T11:29:57.577Z</time>
      </trkpt>
      <trkpt lat="47.67133" lon="-2.08838">
        <ele>47.921657</ele>
        <time>2022-12-15T11:30:00.573Z</time>
      </trkpt>
      <trkpt lat="47.67121" lon="-2.08836">
        <ele>47.965942</ele>
        <time>2022-12-15T11:30:03.568Z</time>
      </trkpt>
      <trkpt lat="47.67111" lon="-2.08835">
        <ele>48.00719</ele>
        <time>2022-12-15T11:30:06.577Z</time>
      </trkpt>
      <trkpt lat="47.67099" lon="-2.08834">
        <ele>48.0515</ele>
        <time>2022-12-15T11:30:09.574Z</time>
      </trkpt>
      <trkpt lat="47.67088" lon="-2.08834">
        <ele>48.112948</ele>
        <time>2022-12-15T11:30:12.578Z</time>
      </trkpt>
      <trkpt lat="47.67076" lon="-2.08834">
        <ele>48.401306</ele>
        <time>2022-12-15T11:30:15.581Z</time>
      </trkpt>
      <trkpt lat="47.67064" lon="-2.08835">
        <ele>48.705062</ele>
        <time>2022-12-15T11:30:18.575Z</time>
      </trkpt>
      <trkpt lat="47.67052" lon="-2.08838">
        <ele>49.013759</ele>
        <time>2022-12-15T11:30:21.577Z</time>
      </trkpt>
      <trkpt lat="47.6704" lon="-2.0884">
        <ele>49.326194</ele>
        <time>2022-12-15T11:30:24.585Z</time>
      </trkpt>
      <trkpt lat="47.67028" lon="-2.08844">
        <ele>49.628692</ele>
        <time>2022-12-15T11:30:27.577Z</time>
      </trkpt>
      <trkpt lat="47.67016" lon="-2.08849">
        <ele>49.947845</ele>
        <time>2022-12-15T11:30:30.578Z</time>
      </trkpt>
      <trkpt lat="47.67004" lon="-2.08854">
        <ele>50.271046</ele>
        <time>2022-12-15T11:30:33.576Z</time>
      </trkpt>
      <trkpt lat="47.66991" lon="-2.08859">
        <ele>50.592484</ele>
        <time>2022-12-15T11:30:36.578Z</time>
      </trkpt>
      <trkpt lat="47.66979" lon="-2.08865">
        <ele>50.91801</ele>
        <time>2022-12-15T11:30:39.579Z</time>
      </trkpt>
      <trkpt lat="47.66967" lon="-2.08873">
        <ele>51.247633</ele>
        <time>2022-12-15T11:30:42.579Z</time>
      </trkpt>
      <trkpt lat="47.66956" lon="-2.0888">
        <ele>51.561324</ele>
        <time>2022-12-15T11:30:45.576Z</time>
      </trkpt>
      <trkpt lat="47.66945" lon="-2.0889">
        <ele>51.876574</ele>
        <time>2022-12-15T11:30:48.576Z</time>
      </trkpt>
      <trkpt lat="47.66935" lon="-2.089">
        <ele>52.195736</ele>
        <time>2022-12-15T11:30:51.578Z</time>
      </trkpt>
      <trkpt lat="47.66925" lon="-2.0891">
        <ele>52.493373</ele>
        <time>2022-12-15T11:30:54.575Z</time>
      </trkpt>
      <trkpt lat="47.66916" lon="-2.08921">
        <ele>52.691698</ele>
        <time>2022-12-15T11:30:57.577Z</time>
      </trkpt>
      <trkpt lat="47.66907" lon="-2.08932">
        <ele>52.787742</ele>
        <time>2022-12-15T11:31:00.576Z</time>
      </trkpt>
      <trkpt lat="47.669" lon="-2.08942">
        <ele>52.871242</ele>
        <time>2022-12-15T11:31:03.608Z</time>
      </trkpt>
      <trkpt lat="47.66892" lon="-2.08953">
        <ele>52.96511</ele>
        <time>2022-12-15T11:31:06.578Z</time>
      </trkpt>
      <trkpt lat="47.66885" lon="-2.08965">
        <ele>53.057512</ele>
        <time>2022-12-15T11:31:09.638Z</time>
      </trkpt>
      <trkpt lat="47.66876" lon="-2.0898">
        <ele>53.168108</ele>
        <time>2022-12-15T11:31:12.576Z</time>
      </trkpt>
      <trkpt lat="47.66868" lon="-2.08996">
        <ele>53.283748</ele>
        <time>2022-12-15T11:31:15.625Z</time>
      </trkpt>
      <trkpt lat="47.6686" lon="-2.09011">
        <ele>53.391465</ele>
        <time>2022-12-15T11:31:18.590Z</time>
      </trkpt>
      <trkpt lat="47.66853" lon="-2.09025">
        <ele>53.489173</ele>
        <time>2022-12-15T11:31:21.622Z</time>
      </trkpt>
      <trkpt lat="47.66845" lon="-2.09039">
        <ele>53.597613</ele>
        <time>2022-12-15T11:31:24.576Z</time>
      </trkpt>
      <trkpt lat="47.66838" lon="-2.09055">
        <ele>53.707571</ele>
        <time>2022-12-15T11:31:27.626Z</time>
      </trkpt>
      <trkpt lat="47.66831" lon="-2.09071">
        <ele>53.812788</ele>
        <time>2022-12-15T11:31:30.575Z</time>
      </trkpt>
      <trkpt lat="47.66824" lon="-2.09086">
        <ele>53.921821</ele>
        <time>2022-12-15T11:31:33.621Z</time>
      </trkpt>
      <trkpt lat="47.66816" lon="-2.09102">
        <ele>54.034726</ele>
        <time>2022-12-15T11:31:36.576Z</time>
      </trkpt>
      <trkpt lat="47.66811" lon="-2.09113">
        <ele>54.111037</ele>
        <time>2022-12-15T11:31:38.576Z</time>
      </trkpt>
      <trkpt lat="47.66803" lon="-2.09129">
        <ele>54.185444</ele>
        <time>2022-12-15T11:31:41.579Z</time>
      </trkpt>
      <trkpt lat="47.66797" lon="-2.09145">
        <ele>54.222818</ele>
        <time>2022-12-15T11:31:44.576Z</time>
      </trkpt>
      <trkpt lat="47.66789" lon="-2.0916">
        <ele>54.261212</ele>
        <time>2022-12-15T11:31:47.583Z</time>
      </trkpt>
      <trkpt lat="47.66782" lon="-2.09176">
        <ele>54.298751</ele>
        <time>2022-12-15T11:31:50.582Z</time>
      </trkpt>
      <trkpt lat="47.66775" lon="-2.0919">
        <ele>54.334207</ele>
        <time>2022-12-15T11:31:53.576Z</time>
      </trkpt>
      <trkpt lat="47.66767" lon="-2.09205">
        <ele>54.371477</ele>
        <time>2022-12-15T11:31:56.576Z</time>
      </trkpt>
      <trkpt lat="47.6676" lon="-2.0922">
        <ele>54.408028</ele>
        <time>2022-12-15T11:31:59.575Z</time>
      </trkpt>
      <trkpt lat="47.66753" lon="-2.09235">
        <ele>54.444902</ele>
        <time>2022-12-15T11:32:02.575Z</time>
      </trkpt>
      <trkpt lat="47.66745" lon="-2.0925">
        <ele>54.482037</ele>
        <time>2022-12-15T11:32:05.576Z</time>
      </trkpt>
      <trkpt lat="47.66738" lon="-2.09265">
        <ele>54.519742</ele>
        <time>2022-12-15T11:32:08.560Z</time>
      </trkpt>
      <trkpt lat="47.66731" lon="-2.09282">
        <ele>54.559108</ele>
        <time>2022-12-15T11:32:11.561Z</time>
      </trkpt>
      <trkpt lat="47.66723" lon="-2.09297">
        <ele>54.598177</ele>
        <time>2022-12-15T11:32:14.575Z</time>
      </trkpt>
      <trkpt lat="47.66716" lon="-2.09312">
        <ele>54.634253</ele>
        <time>2022-12-15T11:32:17.578Z</time>
      </trkpt>
      <trkpt lat="47.66709" lon="-2.09326">
        <ele>54.668801</ele>
        <time>2022-12-15T11:32:20.630Z</time>
      </trkpt>
      <trkpt lat="47.66702" lon="-2.09341">
        <ele>54.683976</ele>
        <time>2022-12-15T11:32:23.576Z</time>
      </trkpt>
      <trkpt lat="47.66695" lon="-2.09356">
        <ele>54.528352</ele>
        <time>2022-12-15T11:32:26.635Z</time>
      </trkpt>
      <trkpt lat="47.66688" lon="-2.0937">
        <ele>54.376117</ele>
        <time>2022-12-15T11:32:29.576Z</time>
      </trkpt>
      <trkpt lat="47.6668" lon="-2.09386">
        <ele>54.217033</ele>
        <time>2022-12-15T11:32:32.563Z</time>
      </trkpt>
      <trkpt lat="47.66674" lon="-2.09401">
        <ele>54.060089</ele>
        <time>2022-12-15T11:32:35.578Z</time>
      </trkpt>
      <trkpt lat="47.66666" lon="-2.09417">
        <ele>53.900348</ele>
        <time>2022-12-15T11:32:38.578Z</time>
      </trkpt>
      <trkpt lat="47.66658" lon="-2.09432">
        <ele>53.738226</ele>
        <time>2022-12-15T11:32:41.552Z</time>
      </trkpt>
      <trkpt lat="47.66651" lon="-2.09447">
        <ele>53.586108</ele>
        <time>2022-12-15T11:32:44.576Z</time>
      </trkpt>
      <trkpt lat="47.66644" lon="-2.09462">
        <ele>53.432522</ele>
        <time>2022-12-15T11:32:47.578Z</time>
      </trkpt>
      <trkpt lat="47.66637" lon="-2.09477">
        <ele>53.278992</ele>
        <time>2022-12-15T11:32:50.573Z</time>
      </trkpt>
      <trkpt lat="47.6663" lon="-2.09492">
        <ele>53.121344</ele>
        <time>2022-12-15T11:32:53.586Z</time>
      </trkpt>
      <trkpt lat="47.66622" lon="-2.09507">
        <ele>52.963567</ele>
        <time>2022-12-15T11:32:56.638Z</time>
      </trkpt>
      <trkpt lat="47.66614" lon="-2.09522">
        <ele>52.805719</ele>
        <time>2022-12-15T11:32:59.575Z</time>
      </trkpt>
      <trkpt lat="47.66607" lon="-2.09538">
        <ele>52.645261</ele>
        <time>2022-12-15T11:33:02.624Z</time>
      </trkpt>
      <trkpt lat="47.666" lon="-2.09551">
        <ele>52.502544</ele>
        <time>2022-12-15T11:33:05.581Z</time>
      </trkpt>
      <trkpt lat="47.66592" lon="-2.09565">
        <ele>52.556399</ele>
        <time>2022-12-15T11:33:08.563Z</time>
      </trkpt>
      <trkpt lat="47.66585" lon="-2.09579">
        <ele>52.69654</ele>
        <time>2022-12-15T11:33:11.576Z</time>
      </trkpt>
      <trkpt lat="47.66578" lon="-2.09593">
        <ele>52.83109</ele>
        <time>2022-12-15T11:33:14.587Z</time>
      </trkpt>
      <trkpt lat="47.66571" lon="-2.09606">
        <ele>52.959468</ele>
        <time>2022-12-15T11:33:17.576Z</time>
      </trkpt>
      <trkpt lat="47.66564" lon="-2.0962">
        <ele>53.09693</ele>
        <time>2022-12-15T11:33:20.576Z</time>
      </trkpt>
      <trkpt lat="47.66557" lon="-2.09635">
        <ele>53.241336</ele>
        <time>2022-12-15T11:33:23.578Z</time>
      </trkpt>
      <trkpt lat="47.6655" lon="-2.0965">
        <ele>53.38372</ele>
        <time>2022-12-15T11:33:26.576Z</time>
      </trkpt>
      <trkpt lat="47.66543" lon="-2.09665">
        <ele>53.528093</ele>
        <time>2022-12-15T11:33:29.579Z</time>
      </trkpt>
      <trkpt lat="47.66536" lon="-2.0968">
        <ele>53.672549</ele>
        <time>2022-12-15T11:33:32.588Z</time>
      </trkpt>
      <trkpt lat="47.66528" lon="-2.09696">
        <ele>53.827448</ele>
        <time>2022-12-15T11:33:35.576Z</time>
      </trkpt>
      <trkpt lat="47.66521" lon="-2.09712">
        <ele>53.981601</ele>
        <time>2022-12-15T11:33:38.579Z</time>
      </trkpt>
      <trkpt lat="47.66513" lon="-2.09727">
        <ele>54.130208</ele>
        <time>2022-12-15T11:33:41.583Z</time>
      </trkpt>
      <trkpt lat="47.66505" lon="-2.09742">
        <ele>54.28461</ele>
        <time>2022-12-15T11:33:44.563Z</time>
      </trkpt>
      <trkpt lat="47.66496" lon="-2.09757">
        <ele>54.440493</ele>
        <time>2022-12-15T11:33:47.578Z</time>
      </trkpt>
      <trkpt lat="47.66488" lon="-2.09772">
        <ele>54.557124</ele>
        <time>2022-12-15T11:33:50.578Z</time>
      </trkpt>
      <trkpt lat="47.66479" lon="-2.09784">
        <ele>54.552189</ele>
        <time>2022-12-15T11:33:53.578Z</time>
      </trkpt>
      <trkpt lat="47.6647" lon="-2.09794">
        <ele>54.547848</ele>
        <time>2022-12-15T11:33:56.576Z</time>
      </trkpt>
      <trkpt lat="47.66461" lon="-2.09802">
        <ele>54.543679</ele>
        <time>2022-12-15T11:33:59.613Z</time>
      </trkpt>
      <trkpt lat="47.66452" lon="-2.09808">
        <ele>54.539344</ele>
        <time>2022-12-15T11:34:02.580Z</time>
      </trkpt>
      <trkpt lat="47.6644" lon="-2.09815">
        <ele>54.534416</ele>
        <time>2022-12-15T11:34:05.576Z</time>
      </trkpt>
      <trkpt lat="47.66429" lon="-2.09822">
        <ele>54.529404</ele>
        <time>2022-12-15T11:34:08.586Z</time>
      </trkpt>
      <trkpt lat="47.66417" lon="-2.09828">
        <ele>54.524409</ele>
        <time>2022-12-15T11:34:11.578Z</time>
      </trkpt>
      <trkpt lat="47.66405" lon="-2.09835">
        <ele>54.519387</ele>
        <time>2022-12-15T11:34:14.587Z</time>
      </trkpt>
      <trkpt lat="47.66392" lon="-2.09844">
        <ele>54.513645</ele>
        <time>2022-12-15T11:34:17.576Z</time>
      </trkpt>
      <trkpt lat="47.66384" lon="-2.09849">
        <ele>54.509898</ele>
        <time>2022-12-15T11:34:19.578Z</time>
      </trkpt>
      <trkpt lat="47.66373" lon="-2.09855">
        <ele>54.505037</ele>
        <time>2022-12-15T11:34:22.589Z</time>
      </trkpt>
      <trkpt lat="47.66361" lon="-2.09861">
        <ele>54.500289</ele>
        <time>2022-12-15T11:34:25.580Z</time>
      </trkpt>
      <trkpt lat="47.66349" lon="-2.09867">
        <ele>54.495159</ele>
        <time>2022-12-15T11:34:28.562Z</time>
      </trkpt>
      <trkpt lat="47.66338" lon="-2.09874">
        <ele>54.490192</ele>
        <time>2022-12-15T11:34:31.583Z</time>
      </trkpt>
      <trkpt lat="47.66326" lon="-2.0988">
        <ele>54.477261</ele>
        <time>2022-12-15T11:34:34.578Z</time>
      </trkpt>
      <trkpt lat="47.66314" lon="-2.09887">
        <ele>54.414389</ele>
        <time>2022-12-15T11:34:37.580Z</time>
      </trkpt>
      <trkpt lat="47.66303" lon="-2.09893">
        <ele>54.354037</ele>
        <time>2022-12-15T11:34:40.578Z</time>
      </trkpt>
      <trkpt lat="47.66293" lon="-2.09896">
        <ele>54.298244</ele>
        <time>2022-12-15T11:34:43.579Z</time>
      </trkpt>
      <trkpt lat="47.66283" lon="-2.09903">
        <ele>54.243482</ele>
        <time>2022-12-15T11:34:46.590Z</time>
      </trkpt>
      <trkpt lat="47.66272" lon="-2.0991">
        <ele>54.183784</ele>
        <time>2022-12-15T11:34:49.578Z</time>
      </trkpt>
      <trkpt lat="47.66265" lon="-2.09917">
        <ele>54.137109</ele>
        <time>2022-12-15T11:34:52.576Z</time>
      </trkpt>
      <trkpt lat="47.66257" lon="-2.09925">
        <ele>54.088828</ele>
        <time>2022-12-15T11:34:56.578Z</time>
      </trkpt>
      <trkpt lat="47.66246" lon="-2.09932">
        <ele>54.028016</ele>
        <time>2022-12-15T11:35:00.575Z</time>
      </trkpt>
      <trkpt lat="47.66235" lon="-2.09938">
        <ele>53.970285</ele>
        <time>2022-12-15T11:35:03.564Z</time>
      </trkpt>
      <trkpt lat="47.66224" lon="-2.09944">
        <ele>53.909095</ele>
        <time>2022-12-15T11:35:06.583Z</time>
      </trkpt>
      <trkpt lat="47.66212" lon="-2.09951">
        <ele>53.8437</ele>
        <time>2022-12-15T11:35:09.655Z</time>
      </trkpt>
      <trkpt lat="47.66201" lon="-2.09959">
        <ele>53.779425</ele>
        <time>2022-12-15T11:35:12.589Z</time>
      </trkpt>
      <trkpt lat="47.66189" lon="-2.09966">
        <ele>53.716398</ele>
        <time>2022-12-15T11:35:15.624Z</time>
      </trkpt>
      <trkpt lat="47.66178" lon="-2.09974">
        <ele>53.652163</ele>
        <time>2022-12-15T11:35:18.590Z</time>
      </trkpt>
      <trkpt lat="47.66166" lon="-2.0998">
        <ele>53.589048</ele>
        <time>2022-12-15T11:35:21.650Z</time>
      </trkpt>
      <trkpt lat="47.66158" lon="-2.09985">
        <ele>53.601117</ele>
        <time>2022-12-15T11:35:23.587Z</time>
      </trkpt>
      <trkpt lat="47.66145" lon="-2.09992">
        <ele>53.697875</ele>
        <time>2022-12-15T11:35:26.590Z</time>
      </trkpt>
      <trkpt lat="47.66136" lon="-2.09996">
        <ele>53.765842</ele>
        <time>2022-12-15T11:35:28.580Z</time>
      </trkpt>
      <trkpt lat="47.66127" lon="-2.10001">
        <ele>53.838505</ele>
        <time>2022-12-15T11:35:30.581Z</time>
      </trkpt>
      <trkpt lat="47.66115" lon="-2.10008">
        <ele>53.935435</ele>
        <time>2022-12-15T11:35:33.657Z</time>
      </trkpt>
      <trkpt lat="47.66101" lon="-2.10013">
        <ele>54.0353</ele>
        <time>2022-12-15T11:35:36.579Z</time>
      </trkpt>
      <trkpt lat="47.66092" lon="-2.10017">
        <ele>54.10495</ele>
        <time>2022-12-15T11:35:38.578Z</time>
      </trkpt>
      <trkpt lat="47.66083" lon="-2.10019">
        <ele>54.175004</ele>
        <time>2022-12-15T11:35:40.577Z</time>
      </trkpt>
      <trkpt lat="47.6607" lon="-2.10023">
        <ele>54.267352</ele>
        <time>2022-12-15T11:35:43.589Z</time>
      </trkpt>
      <trkpt lat="47.66057" lon="-2.10026">
        <ele>54.363896</ele>
        <time>2022-12-15T11:35:46.579Z</time>
      </trkpt>
      <trkpt lat="47.66048" lon="-2.10029">
        <ele>54.432296</ele>
        <time>2022-12-15T11:35:48.578Z</time>
      </trkpt>
      <trkpt lat="47.66039" lon="-2.10031">
        <ele>54.500263</ele>
        <time>2022-12-15T11:35:50.577Z</time>
      </trkpt>
      <trkpt lat="47.66029" lon="-2.10035">
        <ele>54.571897</ele>
        <time>2022-12-15T11:35:52.576Z</time>
      </trkpt>
      <trkpt lat="47.6602" lon="-2.10038">
        <ele>54.639582</ele>
        <time>2022-12-15T11:35:54.576Z</time>
      </trkpt>
      <trkpt lat="47.66011" lon="-2.1004">
        <ele>54.706109</ele>
        <time>2022-12-15T11:35:56.576Z</time>
      </trkpt>
      <trkpt lat="47.66002" lon="-2.10042">
        <ele>54.773729</ele>
        <time>2022-12-15T11:35:58.590Z</time>
      </trkpt>
      <trkpt lat="47.65993" lon="-2.10044">
        <ele>54.841512</ele>
        <time>2022-12-15T11:36:00.578Z</time>
      </trkpt>
      <trkpt lat="47.65984" lon="-2.10047">
        <ele>54.866086</ele>
        <time>2022-12-15T11:36:02.587Z</time>
      </trkpt>
      <trkpt lat="47.65975" lon="-2.1005">
        <ele>54.838489</ele>
        <time>2022-12-15T11:36:04.578Z</time>
      </trkpt>
      <trkpt lat="47.65965" lon="-2.10053">
        <ele>54.809451</ele>
        <time>2022-12-15T11:36:06.589Z</time>
      </trkpt>
      <trkpt lat="47.65955" lon="-2.10055">
        <ele>54.780803</ele>
        <time>2022-12-15T11:36:08.577Z</time>
      </trkpt>
      <trkpt lat="47.65946" lon="-2.10059">
        <ele>54.752489</ele>
        <time>2022-12-15T11:36:10.579Z</time>
      </trkpt>
      <trkpt lat="47.65937" lon="-2.10062">
        <ele>54.725797</ele>
        <time>2022-12-15T11:36:12.586Z</time>
      </trkpt>
      <trkpt lat="47.65928" lon="-2.10064">
        <ele>54.698113</ele>
        <time>2022-12-15T11:36:14.588Z</time>
      </trkpt>
      <trkpt lat="47.65919" lon="-2.10066">
        <ele>54.671332</ele>
        <time>2022-12-15T11:36:16.577Z</time>
      </trkpt>
      <trkpt lat="47.6591" lon="-2.10069">
        <ele>54.643295</ele>
        <time>2022-12-15T11:36:18.576Z</time>
      </trkpt>
      <trkpt lat="47.659" lon="-2.10071">
        <ele>54.615551</ele>
        <time>2022-12-15T11:36:20.579Z</time>
      </trkpt>
      <trkpt lat="47.65888" lon="-2.10075">
        <ele>54.577423</ele>
        <time>2022-12-15T11:36:23.568Z</time>
      </trkpt>
      <trkpt lat="47.65875" lon="-2.10079">
        <ele>54.538429</ele>
        <time>2022-12-15T11:36:26.561Z</time>
      </trkpt>
      <trkpt lat="47.65866" lon="-2.10082">
        <ele>54.5112</ele>
        <time>2022-12-15T11:36:28.581Z</time>
      </trkpt>
      <trkpt lat="47.65857" lon="-2.10084">
        <ele>54.484296</ele>
        <time>2022-12-15T11:36:30.575Z</time>
      </trkpt>
      <trkpt lat="47.65844" lon="-2.10087">
        <ele>54.445916</ele>
        <time>2022-12-15T11:36:33.598Z</time>
      </trkpt>
      <trkpt lat="47.65835" lon="-2.10091">
        <ele>54.418861</ele>
        <time>2022-12-15T11:36:35.580Z</time>
      </trkpt>
      <trkpt lat="47.65826" lon="-2.10094">
        <ele>54.390535</ele>
        <time>2022-12-15T11:36:37.588Z</time>
      </trkpt>
      <trkpt lat="47.65816" lon="-2.10097">
        <ele>54.362618</ele>
        <time>2022-12-15T11:36:39.650Z</time>
      </trkpt>
      <trkpt lat="47.65807" lon="-2.10101">
        <ele>54.306238</ele>
        <time>2022-12-15T11:36:41.589Z</time>
      </trkpt>
      <trkpt lat="47.65798" lon="-2.10103">
        <ele>54.218618</ele>
        <time>2022-12-15T11:36:43.579Z</time>
      </trkpt>
      <trkpt lat="47.65788" lon="-2.10106">
        <ele>54.132182</ele>
        <time>2022-12-15T11:36:45.603Z</time>
      </trkpt>
      <trkpt lat="47.65779" lon="-2.10108">
        <ele>54.045194</ele>
        <time>2022-12-15T11:36:47.589Z</time>
      </trkpt>
      <trkpt lat="47.65769" lon="-2.10111">
        <ele>53.957879</ele>
        <time>2022-12-15T11:36:49.591Z</time>
      </trkpt>
      <trkpt lat="47.65759" lon="-2.10113">
        <ele>53.865463</ele>
        <time>2022-12-15T11:36:51.643Z</time>
      </trkpt>
      <trkpt lat="47.65749" lon="-2.10116">
        <ele>53.777736</ele>
        <time>2022-12-15T11:36:53.578Z</time>
      </trkpt>
      <trkpt lat="47.6574" lon="-2.10118">
        <ele>53.68923</ele>
        <time>2022-12-15T11:36:55.587Z</time>
      </trkpt>
      <trkpt lat="47.65731" lon="-2.10121">
        <ele>53.607443</ele>
        <time>2022-12-15T11:36:57.629Z</time>
      </trkpt>
      <trkpt lat="47.65719" lon="-2.10125">
        <ele>53.495156</ele>
        <time>2022-12-15T11:37:00.581Z</time>
      </trkpt>
      <trkpt lat="47.65706" lon="-2.10128">
        <ele>53.377232</ele>
        <time>2022-12-15T11:37:03.596Z</time>
      </trkpt>
      <trkpt lat="47.65694" lon="-2.10132">
        <ele>53.270441</ele>
        <time>2022-12-15T11:37:06.578Z</time>
      </trkpt>
      <trkpt lat="47.65681" lon="-2.10136">
        <ele>53.151844</ele>
        <time>2022-12-15T11:37:09.595Z</time>
      </trkpt>
      <trkpt lat="47.65672" lon="-2.1014">
        <ele>53.070486</ele>
        <time>2022-12-15T11:37:11.590Z</time>
      </trkpt>
      <trkpt lat="47.65659" lon="-2.10144">
        <ele>52.945481</ele>
        <time>2022-12-15T11:37:14.577Z</time>
      </trkpt>
      <trkpt lat="47.65649" lon="-2.10146">
        <ele>52.855956</ele>
        <time>2022-12-15T11:37:16.564Z</time>
      </trkpt>
      <trkpt lat="47.65639" lon="-2.10149">
        <ele>52.768641</ele>
        <time>2022-12-15T11:37:18.568Z</time>
      </trkpt>
      <trkpt lat="47.6563" lon="-2.10151">
        <ele>52.700118</ele>
        <time>2022-12-15T11:37:20.576Z</time>
      </trkpt>
      <trkpt lat="47.6562" lon="-2.10154">
        <ele>52.645258</ele>
        <time>2022-12-15T11:37:22.573Z</time>
      </trkpt>
      <trkpt lat="47.65611" lon="-2.10156">
        <ele>52.593724</ele>
        <time>2022-12-15T11:37:24.562Z</time>
      </trkpt>
      <trkpt lat="47.656" lon="-2.1016">
        <ele>52.529836</ele>
        <time>2022-12-15T11:37:27.612Z</time>
      </trkpt>
      <trkpt lat="47.65589" lon="-2.10163">
        <ele>52.465953</ele>
        <time>2022-12-15T11:37:30.586Z</time>
      </trkpt>
      <trkpt lat="47.65579" lon="-2.10165">
        <ele>52.407412</ele>
        <time>2022-12-15T11:37:33.653Z</time>
      </trkpt>
      <trkpt lat="47.65569" lon="-2.10161">
        <ele>52.348083</ele>
        <time>2022-12-15T11:37:36.586Z</time>
      </trkpt>
      <trkpt lat="47.65559" lon="-2.10152">
        <ele>52.283463</ele>
        <time>2022-12-15T11:37:40.569Z</time>
      </trkpt>
      <trkpt lat="47.6555" lon="-2.10152">
        <ele>52.230226</ele>
        <time>2022-12-15T11:37:44.576Z</time>
      </trkpt>
      <trkpt lat="47.6554" lon="-2.10156">
        <ele>52.174265</ele>
        <time>2022-12-15T11:37:49.580Z</time>
      </trkpt>
      <trkpt lat="47.65533" lon="-2.10164">
        <ele>52.122702</ele>
        <time>2022-12-15T11:37:52.577Z</time>
      </trkpt>
      <trkpt lat="47.65523" lon="-2.10167">
        <ele>52.063652</ele>
        <time>2022-12-15T11:37:55.578Z</time>
      </trkpt>
      <trkpt lat="47.65512" lon="-2.10167">
        <ele>52.002543</ele>
        <time>2022-12-15T11:37:58.582Z</time>
      </trkpt>
      <trkpt lat="47.65501" lon="-2.10167">
        <ele>51.941452</ele>
        <time>2022-12-15T11:38:01.592Z</time>
      </trkpt>
      <trkpt lat="47.65489" lon="-2.10166">
        <ele>51.873394</ele>
        <time>2022-12-15T11:38:04.572Z</time>
      </trkpt>
      <trkpt lat="47.65476" lon="-2.10165">
        <ele>51.802021</ele>
        <time>2022-12-15T11:38:07.577Z</time>
      </trkpt>
      <trkpt lat="47.65465" lon="-2.10168">
        <ele>51.735694</ele>
        <time>2022-12-15T11:38:10.589Z</time>
      </trkpt>
      <trkpt lat="47.65454" lon="-2.10164">
        <ele>51.681529</ele>
        <time>2022-12-15T11:38:13.582Z</time>
      </trkpt>
      <trkpt lat="47.65444" lon="-2.10155">
        <ele>51.628249</ele>
        <time>2022-12-15T11:38:16.580Z</time>
      </trkpt>
      <trkpt lat="47.65435" lon="-2.10147">
        <ele>51.576949</ele>
        <time>2022-12-15T11:38:19.581Z</time>
      </trkpt>
      <trkpt lat="47.65425" lon="-2.1014">
        <ele>51.527698</ele>
        <time>2022-12-15T11:38:22.578Z</time>
      </trkpt>
      <trkpt lat="47.65418" lon="-2.10133">
        <ele>51.486068</ele>
        <time>2022-12-15T11:38:25.581Z</time>
      </trkpt>
      <trkpt lat="47.65406" lon="-2.10124">
        <ele>51.427732</ele>
        <time>2022-12-15T11:38:29.589Z</time>
      </trkpt>
      <trkpt lat="47.65395" lon="-2.10115">
        <ele>51.366373</ele>
        <time>2022-12-15T11:38:32.620Z</time>
      </trkpt>
      <trkpt lat="47.65383" lon="-2.10107">
        <ele>51.308606</ele>
        <time>2022-12-15T11:38:35.577Z</time>
      </trkpt>
      <trkpt lat="47.65374" lon="-2.10098">
        <ele>51.25588</ele>
        <time>2022-12-15T11:38:38.624Z</time>
      </trkpt>
      <trkpt lat="47.65364" lon="-2.10089">
        <ele>51.203384</ele>
        <time>2022-12-15T11:38:41.578Z</time>
      </trkpt>
      <trkpt lat="47.65354" lon="-2.10079">
        <ele>51.149592</ele>
        <time>2022-12-15T11:38:44.651Z</time>
      </trkpt>
      <trkpt lat="47.65345" lon="-2.10069">
        <ele>51.097099</ele>
        <time>2022-12-15T11:38:47.577Z</time>
      </trkpt>
      <trkpt lat="47.65337" lon="-2.10057">
        <ele>51.043736</ele>
        <time>2022-12-15T11:38:50.647Z</time>
      </trkpt>
      <trkpt lat="47.65329" lon="-2.10047">
        <ele>50.995471</ele>
        <time>2022-12-15T11:38:53.580Z</time>
      </trkpt>
      <trkpt lat="47.65322" lon="-2.10036">
        <ele>50.951835</ele>
        <time>2022-12-15T11:38:56.652Z</time>
      </trkpt>
      <trkpt lat="47.65315" lon="-2.10025">
        <ele>50.903845</ele>
        <time>2022-12-15T11:38:59.590Z</time>
      </trkpt>
      <trkpt lat="47.65308" lon="-2.10013">
        <ele>50.715885</ele>
        <time>2022-12-15T11:39:02.651Z</time>
      </trkpt>
      <trkpt lat="47.65301" lon="-2.10002">
        <ele>50.467385</ele>
        <time>2022-12-15T11:39:05.582Z</time>
      </trkpt>
      <trkpt lat="47.65293" lon="-2.09988">
        <ele>50.166912</ele>
        <time>2022-12-15T11:39:08.652Z</time>
      </trkpt>
      <trkpt lat="47.65286" lon="-2.09974">
        <ele>49.883373</ele>
        <time>2022-12-15T11:39:11.587Z</time>
      </trkpt>
      <trkpt lat="47.65279" lon="-2.09961">
        <ele>49.601364</ele>
        <time>2022-12-15T11:39:14.631Z</time>
      </trkpt>
      <trkpt lat="47.65273" lon="-2.09947">
        <ele>49.325726</ele>
        <time>2022-12-15T11:39:17.593Z</time>
      </trkpt>
      <trkpt lat="47.65266" lon="-2.09933">
        <ele>49.047315</ele>
        <time>2022-12-15T11:39:20.651Z</time>
      </trkpt>
      <trkpt lat="47.6526" lon="-2.09919">
        <ele>48.767445</ele>
        <time>2022-12-15T11:39:23.573Z</time>
      </trkpt>
      <trkpt lat="47.65254" lon="-2.09904">
        <ele>48.487651</ele>
        <time>2022-12-15T11:39:26.588Z</time>
      </trkpt>
      <trkpt lat="47.65249" lon="-2.0989">
        <ele>48.221438</ele>
        <time>2022-12-15T11:39:29.578Z</time>
      </trkpt>
      <trkpt lat="47.65243" lon="-2.09875">
        <ele>47.935657</ele>
        <time>2022-12-15T11:39:32.575Z</time>
      </trkpt>
      <trkpt lat="47.65239" lon="-2.0986">
        <ele>47.665354</ele>
        <time>2022-12-15T11:39:35.580Z</time>
      </trkpt>
      <trkpt lat="47.65234" lon="-2.09845">
        <ele>47.391474</ele>
        <time>2022-12-15T11:39:38.591Z</time>
      </trkpt>
      <trkpt lat="47.65229" lon="-2.0983">
        <ele>47.11099</ele>
        <time>2022-12-15T11:39:41.578Z</time>
      </trkpt>
      <trkpt lat="47.65223" lon="-2.09816">
        <ele>46.853909</ele>
        <time>2022-12-15T11:39:44.580Z</time>
      </trkpt>
      <trkpt lat="47.65219" lon="-2.09803">
        <ele>46.60594</ele>
        <time>2022-12-15T11:39:47.579Z</time>
      </trkpt>
      <trkpt lat="47.65214" lon="-2.09788">
        <ele>46.355682</ele>
        <time>2022-12-15T11:39:50.591Z</time>
      </trkpt>
      <trkpt lat="47.65209" lon="-2.09774">
        <ele>46.121803</ele>
        <time>2022-12-15T11:39:53.583Z</time>
      </trkpt>
      <trkpt lat="47.65204" lon="-2.0976">
        <ele>45.883936</ele>
        <time>2022-12-15T11:39:56.585Z</time>
      </trkpt>
      <trkpt lat="47.65199" lon="-2.09745">
        <ele>45.639184</ele>
        <time>2022-12-15T11:39:59.577Z</time>
      </trkpt>
      <trkpt lat="47.65194" lon="-2.09729">
        <ele>45.381134</ele>
        <time>2022-12-15T11:40:02.578Z</time>
      </trkpt>
      <trkpt lat="47.65189" lon="-2.09714">
        <ele>45.131083</ele>
        <time>2022-12-15T11:40:05.581Z</time>
      </trkpt>
      <trkpt lat="47.65185" lon="-2.09698">
        <ele>44.880549</ele>
        <time>2022-12-15T11:40:08.583Z</time>
      </trkpt>
      <trkpt lat="47.6518" lon="-2.09683">
        <ele>44.62754</ele>
        <time>2022-12-15T11:40:11.624Z</time>
      </trkpt>
      <trkpt lat="47.65174" lon="-2.09667">
        <ele>44.357319</ele>
        <time>2022-12-15T11:40:14.576Z</time>
      </trkpt>
      <trkpt lat="47.65169" lon="-2.09651">
        <ele>44.10099</ele>
        <time>2022-12-15T11:40:17.625Z</time>
      </trkpt>
      <trkpt lat="47.65165" lon="-2.09636">
        <ele>43.852412</ele>
        <time>2022-12-15T11:40:20.581Z</time>
      </trkpt>
      <trkpt lat="47.6516" lon="-2.09621">
        <ele>43.606337</ele>
        <time>2022-12-15T11:40:23.587Z</time>
      </trkpt>
      <trkpt lat="47.65155" lon="-2.09606">
        <ele>43.360853</ele>
        <time>2022-12-15T11:40:26.588Z</time>
      </trkpt>
      <trkpt lat="47.6515" lon="-2.0959">
        <ele>43.110421</ele>
        <time>2022-12-15T11:40:29.579Z</time>
      </trkpt>
      <trkpt lat="47.65145" lon="-2.09575">
        <ele>42.860496</ele>
        <time>2022-12-15T11:40:32.584Z</time>
      </trkpt>
      <trkpt lat="47.6514" lon="-2.0956">
        <ele>42.615011</ele>
        <time>2022-12-15T11:40:35.580Z</time>
      </trkpt>
      <trkpt lat="47.65135" lon="-2.09544">
        <ele>42.482854</ele>
        <time>2022-12-15T11:40:38.586Z</time>
      </trkpt>
      <trkpt lat="47.65131" lon="-2.09527">
        <ele>42.394176</ele>
        <time>2022-12-15T11:40:41.579Z</time>
      </trkpt>
      <trkpt lat="47.65126" lon="-2.09511">
        <ele>42.311216</ele>
        <time>2022-12-15T11:40:44.601Z</time>
      </trkpt>
      <trkpt lat="47.65121" lon="-2.09496">
        <ele>42.230233</ele>
        <time>2022-12-15T11:40:47.589Z</time>
      </trkpt>
      <trkpt lat="47.65117" lon="-2.09481">
        <ele>42.151049</ele>
        <time>2022-12-15T11:40:50.580Z</time>
      </trkpt>
      <trkpt lat="47.65112" lon="-2.09465">
        <ele>42.070255</ele>
        <time>2022-12-15T11:40:53.571Z</time>
      </trkpt>
      <trkpt lat="47.65107" lon="-2.0945">
        <ele>41.989906</ele>
        <time>2022-12-15T11:40:56.592Z</time>
      </trkpt>
      <trkpt lat="47.65102" lon="-2.09436">
        <ele>41.907847</ele>
        <time>2022-12-15T11:40:59.582Z</time>
      </trkpt>
      <trkpt lat="47.65096" lon="-2.09421">
        <ele>41.827147</ele>
        <time>2022-12-15T11:41:02.589Z</time>
      </trkpt>
      <trkpt lat="47.65091" lon="-2.09405">
        <ele>41.743608</ele>
        <time>2022-12-15T11:41:05.577Z</time>
      </trkpt>
      <trkpt lat="47.65087" lon="-2.09389">
        <ele>41.658874</ele>
        <time>2022-12-15T11:41:08.587Z</time>
      </trkpt>
      <trkpt lat="47.65082" lon="-2.09373">
        <ele>41.571672</ele>
        <time>2022-12-15T11:41:11.577Z</time>
      </trkpt>
      <trkpt lat="47.65077" lon="-2.09358">
        <ele>41.493685</ele>
        <time>2022-12-15T11:41:14.591Z</time>
      </trkpt>
      <trkpt lat="47.65072" lon="-2.09345">
        <ele>41.422701</ele>
        <time>2022-12-15T11:41:17.581Z</time>
      </trkpt>
      <trkpt lat="47.65067" lon="-2.09329">
        <ele>41.338127</ele>
        <time>2022-12-15T11:41:20.588Z</time>
      </trkpt>
      <trkpt lat="47.65062" lon="-2.09314">
        <ele>41.254186</ele>
        <time>2022-12-15T11:41:23.568Z</time>
      </trkpt>
      <trkpt lat="47.65057" lon="-2.09298">
        <ele>41.183815</ele>
        <time>2022-12-15T11:41:26.581Z</time>
      </trkpt>
      <trkpt lat="47.65052" lon="-2.09283">
        <ele>41.11461</ele>
        <time>2022-12-15T11:41:29.580Z</time>
      </trkpt>
      <trkpt lat="47.65047" lon="-2.09267">
        <ele>41.043881</ele>
        <time>2022-12-15T11:41:32.589Z</time>
      </trkpt>
      <trkpt lat="47.65042" lon="-2.09251">
        <ele>40.970034</ele>
        <time>2022-12-15T11:41:35.578Z</time>
      </trkpt>
      <trkpt lat="47.65037" lon="-2.09234">
        <ele>40.896061</ele>
        <time>2022-12-15T11:41:38.573Z</time>
      </trkpt>
      <trkpt lat="47.65033" lon="-2.09218">
        <ele>40.822707</ele>
        <time>2022-12-15T11:41:41.578Z</time>
      </trkpt>
      <trkpt lat="47.65027" lon="-2.09202">
        <ele>40.751121</ele>
        <time>2022-12-15T11:41:44.590Z</time>
      </trkpt>
      <trkpt lat="47.65022" lon="-2.09189">
        <ele>40.687626</ele>
        <time>2022-12-15T11:41:47.588Z</time>
      </trkpt>
      <trkpt lat="47.65017" lon="-2.09175">
        <ele>40.622904</ele>
        <time>2022-12-15T11:41:50.582Z</time>
      </trkpt>
      <trkpt lat="47.65012" lon="-2.0916">
        <ele>40.55478</ele>
        <time>2022-12-15T11:41:53.579Z</time>
      </trkpt>
      <trkpt lat="47.65007" lon="-2.09145">
        <ele>40.485282</ele>
        <time>2022-12-15T11:41:56.580Z</time>
      </trkpt>
      <trkpt lat="47.65002" lon="-2.09129">
        <ele>40.413298</ele>
        <time>2022-12-15T11:41:59.590Z</time>
      </trkpt>
      <trkpt lat="47.64998" lon="-2.09113">
        <ele>40.341821</ele>
        <time>2022-12-15T11:42:02.579Z</time>
      </trkpt>
      <trkpt lat="47.64992" lon="-2.09096">
        <ele>40.267091</ele>
        <time>2022-12-15T11:42:05.588Z</time>
      </trkpt>
      <trkpt lat="47.64987" lon="-2.09079">
        <ele>40.190245</ele>
        <time>2022-12-15T11:42:08.579Z</time>
      </trkpt>
      <trkpt lat="47.64982" lon="-2.09063">
        <ele>40.398457</ele>
        <time>2022-12-15T11:42:11.580Z</time>
      </trkpt>
      <trkpt lat="47.64977" lon="-2.09048">
        <ele>40.75587</ele>
        <time>2022-12-15T11:42:14.585Z</time>
      </trkpt>
      <trkpt lat="47.64973" lon="-2.09032">
        <ele>41.131837</ele>
        <time>2022-12-15T11:42:17.589Z</time>
      </trkpt>
      <trkpt lat="47.64968" lon="-2.09017">
        <ele>41.484871</ele>
        <time>2022-12-15T11:42:20.580Z</time>
      </trkpt>
      <trkpt lat="47.64964" lon="-2.09003">
        <ele>41.794617</ele>
        <time>2022-12-15T11:42:23.578Z</time>
      </trkpt>
      <trkpt lat="47.64959" lon="-2.08987">
        <ele>42.16932</ele>
        <time>2022-12-15T11:42:27.656Z</time>
      </trkpt>
      <trkpt lat="47.64955" lon="-2.08972">
        <ele>42.497038</ele>
        <time>2022-12-15T11:42:30.579Z</time>
      </trkpt>
      <trkpt lat="47.64951" lon="-2.08956">
        <ele>42.850898</ele>
        <time>2022-12-15T11:42:33.620Z</time>
      </trkpt>
      <trkpt lat="47.64946" lon="-2.0894">
        <ele>43.230238</ele>
        <time>2022-12-15T11:42:36.580Z</time>
      </trkpt>
      <trkpt lat="47.64941" lon="-2.08923">
        <ele>43.625534</ele>
        <time>2022-12-15T11:42:39.627Z</time>
      </trkpt>
      <trkpt lat="47.64936" lon="-2.08907">
        <ele>43.99766</ele>
        <time>2022-12-15T11:42:42.578Z</time>
      </trkpt>
      <trkpt lat="47.64931" lon="-2.08893">
        <ele>44.331427</ele>
        <time>2022-12-15T11:42:45.641Z</time>
      </trkpt>
      <trkpt lat="47.64926" lon="-2.0888">
        <ele>44.653778</ele>
        <time>2022-12-15T11:42:48.578Z</time>
      </trkpt>
      <trkpt lat="47.64922" lon="-2.08866">
        <ele>44.961245</ele>
        <time>2022-12-15T11:42:51.661Z</time>
      </trkpt>
      <trkpt lat="47.64918" lon="-2.08853">
        <ele>45.260367</ele>
        <time>2022-12-15T11:42:54.580Z</time>
      </trkpt>
      <trkpt lat="47.64914" lon="-2.08841">
        <ele>45.551853</ele>
        <time>2022-12-15T11:42:57.633Z</time>
      </trkpt>
      <trkpt lat="47.64909" lon="-2.08825">
        <ele>45.848987</ele>
        <time>2022-12-15T11:43:01.568Z</time>
      </trkpt>
      <trkpt lat="47.64904" lon="-2.08811">
        <ele>46.006932</ele>
        <time>2022-12-15T11:43:05.576Z</time>
      </trkpt>
      <trkpt lat="47.649" lon="-2.088">
        <ele>46.144381</ele>
        <time>2022-12-15T11:43:09.671Z</time>
      </trkpt>
      <trkpt lat="47.64895" lon="-2.08788">
        <ele>46.283501</ele>
        <time>2022-12-15T11:43:14.590Z</time>
      </trkpt>
      <trkpt lat="47.6489" lon="-2.08776">
        <ele>46.426349</ele>
        <time>2022-12-15T11:43:19.592Z</time>
      </trkpt>
      <trkpt lat="47.64886" lon="-2.08764">
        <ele>46.5663</ele>
        <time>2022-12-15T11:43:24.569Z</time>
      </trkpt>
      <trkpt lat="47.64875" lon="-2.08763">
        <ele>46.730959</ele>
        <time>2022-12-15T11:43:29.560Z</time>
      </trkpt>
      <trkpt lat="47.64864" lon="-2.08764">
        <ele>46.889542</ele>
        <time>2022-12-15T11:43:34.576Z</time>
      </trkpt>
      <trkpt lat="47.64858" lon="-2.08754">
        <ele>47.026663</ele>
        <time>2022-12-15T11:43:38.633Z</time>
      </trkpt>
      <trkpt lat="47.64853" lon="-2.08739">
        <ele>47.192971</ele>
        <time>2022-12-15T11:43:42.592Z</time>
      </trkpt>
      <trkpt lat="47.64848" lon="-2.08726">
        <ele>47.350811</ele>
        <time>2022-12-15T11:43:46.569Z</time>
      </trkpt>
      <trkpt lat="47.64844" lon="-2.08711">
        <ele>47.511842</ele>
        <time>2022-12-15T11:43:51.584Z</time>
      </trkpt>
      <trkpt lat="47.6484" lon="-2.08698">
        <ele>47.663288</ele>
        <time>2022-12-15T11:43:56.578Z</time>
      </trkpt>
      <trkpt lat="47.64839" lon="-2.08683">
        <ele>47.817244</ele>
        <time>2022-12-15T11:44:00.590Z</time>
      </trkpt>
      <trkpt lat="47.64841" lon="-2.08668">
        <ele>47.97361</ele>
        <time>2022-12-15T11:44:04.573Z</time>
      </trkpt>
      <trkpt lat="47.64844" lon="-2.08652">
        <ele>48.143691</ele>
        <time>2022-12-15T11:44:08.626Z</time>
      </trkpt>
      <trkpt lat="47.64846" lon="-2.08635">
        <ele>48.311096</ele>
        <time>2022-12-15T11:44:12.578Z</time>
      </trkpt>
      <trkpt lat="47.64843" lon="-2.08619">
        <ele>48.481177</ele>
        <time>2022-12-15T11:44:16.581Z</time>
      </trkpt>
      <trkpt lat="47.64838" lon="-2.08604">
        <ele>48.527021</ele>
        <time>2022-12-15T11:44:20.641Z</time>
      </trkpt>
      <trkpt lat="47.64834" lon="-2.08591">
        <ele>48.550301</ele>
        <time>2022-12-15T11:44:23.581Z</time>
      </trkpt>
      <trkpt lat="47.6483" lon="-2.08577">
        <ele>48.575086</ele>
        <time>2022-12-15T11:44:26.579Z</time>
      </trkpt>
      <trkpt lat="47.64825" lon="-2.08564">
        <ele>48.599977</ele>
        <time>2022-12-15T11:44:29.585Z</time>
      </trkpt>
      <trkpt lat="47.64821" lon="-2.08549">
        <ele>48.625357</ele>
        <time>2022-12-15T11:44:32.569Z</time>
      </trkpt>
      <trkpt lat="47.64817" lon="-2.08535">
        <ele>48.650737</ele>
        <time>2022-12-15T11:44:35.565Z</time>
      </trkpt>
      <trkpt lat="47.64813" lon="-2.08522">
        <ele>48.674041</ele>
        <time>2022-12-15T11:44:38.582Z</time>
      </trkpt>
      <trkpt lat="47.64811" lon="-2.08507">
        <ele>48.699611</ele>
        <time>2022-12-15T11:44:42.581Z</time>
      </trkpt>
      <trkpt lat="47.64805" lon="-2.08493">
        <ele>48.726235</ele>
        <time>2022-12-15T11:44:46.652Z</time>
      </trkpt>
      <trkpt lat="47.64801" lon="-2.0848">
        <ele>48.749477</ele>
        <time>2022-12-15T11:44:50.589Z</time>
      </trkpt>
      <trkpt lat="47.64805" lon="-2.08466">
        <ele>48.774459</ele>
        <time>2022-12-15T11:44:56.583Z</time>
      </trkpt>
      <trkpt lat="47.64813" lon="-2.08461">
        <ele>48.796528</ele>
        <time>2022-12-15T11:45:00.578Z</time>
      </trkpt>
      <trkpt lat="47.64822" lon="-2.08453">
        <ele>48.821926</ele>
        <time>2022-12-15T11:45:05.581Z</time>
      </trkpt>
      <trkpt lat="47.64831" lon="-2.08444">
        <ele>48.847599</ele>
        <time>2022-12-15T11:45:11.580Z</time>
      </trkpt>
      <trkpt lat="47.64831" lon="-2.0843">
        <ele>48.871421</ele>
        <time>2022-12-15T11:45:16.570Z</time>
      </trkpt>
      <trkpt lat="47.64826" lon="-2.08414">
        <ele>48.900456</ele>
        <time>2022-12-15T11:45:20.579Z</time>
      </trkpt>
      <trkpt lat="47.64821" lon="-2.08401">
        <ele>48.922963</ele>
        <time>2022-12-15T11:45:23.567Z</time>
      </trkpt>
      <trkpt lat="47.64817" lon="-2.08388">
        <ele>48.901006</ele>
        <time>2022-12-15T11:45:26.586Z</time>
      </trkpt>
      <trkpt lat="47.64813" lon="-2.08374">
        <ele>48.757179</ele>
        <time>2022-12-15T11:45:29.579Z</time>
      </trkpt>
      <trkpt lat="47.64808" lon="-2.08361">
        <ele>48.624912</ele>
        <time>2022-12-15T11:45:32.580Z</time>
      </trkpt>
      <trkpt lat="47.64801" lon="-2.08351">
        <ele>48.493558</ele>
        <time>2022-12-15T11:45:36.579Z</time>
      </trkpt>
      <trkpt lat="47.64785" lon="-2.08357">
        <ele>48.258995</ele>
        <time>2022-12-15T11:45:58.591Z</time>
      </trkpt>
      <trkpt lat="47.64775" lon="-2.08366">
        <ele>48.109065</ele>
        <time>2022-12-15T11:46:02.640Z</time>
      </trkpt>
      <trkpt lat="47.64766" lon="-2.08368">
        <ele>47.980396</ele>
        <time>2022-12-15T11:46:06.583Z</time>
      </trkpt>
      <trkpt lat="47.64757" lon="-2.08356">
        <ele>47.817551</ele>
        <time>2022-12-15T11:46:10.574Z</time>
      </trkpt>
      <trkpt lat="47.64752" lon="-2.08345">
        <ele>47.695892</ele>
        <time>2022-12-15T11:46:13.580Z</time>
      </trkpt>
      <trkpt lat="47.64748" lon="-2.0833">
        <ele>47.547937</ele>
        <time>2022-12-15T11:46:17.576Z</time>
      </trkpt>
      <trkpt lat="47.64743" lon="-2.08313">
        <ele>47.38304</ele>
        <time>2022-12-15T11:46:21.588Z</time>
      </trkpt>
      <trkpt lat="47.6474" lon="-2.08299">
        <ele>47.248953</ele>
        <time>2022-12-15T11:46:24.580Z</time>
      </trkpt>
      <trkpt lat="47.64735" lon="-2.08286">
        <ele>47.109333</ele>
        <time>2022-12-15T11:46:27.570Z</time>
      </trkpt>
      <trkpt lat="47.64731" lon="-2.08271">
        <ele>46.96292</ele>
        <time>2022-12-15T11:46:30.596Z</time>
      </trkpt>
      <trkpt lat="47.64728" lon="-2.08256">
        <ele>46.821046</ele>
        <time>2022-12-15T11:46:33.593Z</time>
      </trkpt>
      <trkpt lat="47.64723" lon="-2.08242">
        <ele>46.67945</ele>
        <time>2022-12-15T11:46:36.589Z</time>
      </trkpt>
      <trkpt lat="47.64719" lon="-2.08227">
        <ele>46.530666</ele>
        <time>2022-12-15T11:46:39.589Z</time>
      </trkpt>
      <trkpt lat="47.64714" lon="-2.08212">
        <ele>46.391151</ele>
        <time>2022-12-15T11:46:42.591Z</time>
      </trkpt>
      <trkpt lat="47.64709" lon="-2.08197">
        <ele>46.250853</ele>
        <time>2022-12-15T11:46:45.593Z</time>
      </trkpt>
      <trkpt lat="47.64704" lon="-2.08182">
        <ele>46.110326</ele>
        <time>2022-12-15T11:46:48.579Z</time>
      </trkpt>
      <trkpt lat="47.647" lon="-2.08166">
        <ele>45.967535</ele>
        <time>2022-12-15T11:46:51.579Z</time>
      </trkpt>
      <trkpt lat="47.64695" lon="-2.08151">
        <ele>45.82445</ele>
        <time>2022-12-15T11:46:54.580Z</time>
      </trkpt>
      <trkpt lat="47.64689" lon="-2.08135">
        <ele>45.679725</ele>
        <time>2022-12-15T11:46:57.579Z</time>
      </trkpt>
      <trkpt lat="47.64684" lon="-2.0812">
        <ele>45.535914</ele>
        <time>2022-12-15T11:47:00.583Z</time>
      </trkpt>
      <trkpt lat="47.64679" lon="-2.08105">
        <ele>45.393411</ele>
        <time>2022-12-15T11:47:03.588Z</time>
      </trkpt>
      <trkpt lat="47.64674" lon="-2.08089">
        <ele>45.24829</ele>
        <time>2022-12-15T11:47:06.565Z</time>
      </trkpt>
      <trkpt lat="47.64669" lon="-2.08073">
        <ele>45.107642</ele>
        <time>2022-12-15T11:47:09.580Z</time>
      </trkpt>
      <trkpt lat="47.64665" lon="-2.08058">
        <ele>44.972951</ele>
        <time>2022-12-15T11:47:12.650Z</time>
      </trkpt>
      <trkpt lat="47.6466" lon="-2.08043">
        <ele>44.833951</ele>
        <time>2022-12-15T11:47:15.594Z</time>
      </trkpt>
      <trkpt lat="47.64656" lon="-2.08028">
        <ele>44.699471</ele>
        <time>2022-12-15T11:47:18.669Z</time>
      </trkpt>
      <trkpt lat="47.64652" lon="-2.08014">
        <ele>44.56854</ele>
        <time>2022-12-15T11:47:21.579Z</time>
      </trkpt>
      <trkpt lat="47.64647" lon="-2.07998">
        <ele>44.427016</ele>
        <time>2022-12-15T11:47:24.623Z</time>
      </trkpt>
      <trkpt lat="47.64643" lon="-2.07983">
        <ele>44.285232</ele>
        <time>2022-12-15T11:47:27.578Z</time>
      </trkpt>
      <trkpt lat="47.64638" lon="-2.07967">
        <ele>44.334044</ele>
        <time>2022-12-15T11:47:30.652Z</time>
      </trkpt>
      <trkpt lat="47.64634" lon="-2.07951">
        <ele>44.391042</ele>
        <time>2022-12-15T11:47:33.583Z</time>
      </trkpt>
      <trkpt lat="47.64629" lon="-2.07933">
        <ele>44.45204</ele>
        <time>2022-12-15T11:47:36.654Z</time>
      </trkpt>
      <trkpt lat="47.64623" lon="-2.07917">
        <ele>44.512461</ele>
        <time>2022-12-15T11:47:39.589Z</time>
      </trkpt>
      <trkpt lat="47.64618" lon="-2.079">
        <ele>44.573559</ele>
        <time>2022-12-15T11:47:42.655Z</time>
      </trkpt>
      <trkpt lat="47.64612" lon="-2.07883">
        <ele>44.633395</ele>
        <time>2022-12-15T11:47:45.591Z</time>
      </trkpt>
      <trkpt lat="47.64607" lon="-2.07867">
        <ele>44.691643</ele>
        <time>2022-12-15T11:47:48.623Z</time>
      </trkpt>
      <trkpt lat="47.64602" lon="-2.07851">
        <ele>44.750478</ele>
        <time>2022-12-15T11:47:51.580Z</time>
      </trkpt>
      <trkpt lat="47.64597" lon="-2.07834">
        <ele>44.810105</ele>
        <time>2022-12-15T11:47:54.582Z</time>
      </trkpt>
      <trkpt lat="47.64591" lon="-2.07818">
        <ele>44.868737</ele>
        <time>2022-12-15T11:47:57.584Z</time>
      </trkpt>
      <trkpt lat="47.64586" lon="-2.07801">
        <ele>44.930038</ele>
        <time>2022-12-15T11:48:00.582Z</time>
      </trkpt>
      <trkpt lat="47.6458" lon="-2.07784">
        <ele>44.991386</ele>
        <time>2022-12-15T11:48:03.579Z</time>
      </trkpt>
      <trkpt lat="47.64575" lon="-2.07767">
        <ele>45.053314</ele>
        <time>2022-12-15T11:48:06.591Z</time>
      </trkpt>
      <trkpt lat="47.64569" lon="-2.0775">
        <ele>45.113735</ele>
        <time>2022-12-15T11:48:09.582Z</time>
      </trkpt>
      <trkpt lat="47.64564" lon="-2.07733">
        <ele>45.167665</ele>
        <time>2022-12-15T11:48:12.581Z</time>
      </trkpt>
      <trkpt lat="47.64559" lon="-2.07716">
        <ele>45.212333</ele>
        <time>2022-12-15T11:48:15.578Z</time>
      </trkpt>
      <trkpt lat="47.64554" lon="-2.077">
        <ele>45.257908</ele>
        <time>2022-12-15T11:48:18.581Z</time>
      </trkpt>
      <trkpt lat="47.64548" lon="-2.07683">
        <ele>45.303975</ele>
        <time>2022-12-15T11:48:21.569Z</time>
      </trkpt>
      <trkpt lat="47.64543" lon="-2.07666">
        <ele>45.349096</ele>
        <time>2022-12-15T11:48:24.592Z</time>
      </trkpt>
      <trkpt lat="47.64538" lon="-2.07651">
        <ele>45.392795</ele>
        <time>2022-12-15T11:48:27.581Z</time>
      </trkpt>
      <trkpt lat="47.64533" lon="-2.07634">
        <ele>45.437323</ele>
        <time>2022-12-15T11:48:30.583Z</time>
      </trkpt>
      <trkpt lat="47.64528" lon="-2.07618">
        <ele>45.482338</ele>
        <time>2022-12-15T11:48:33.591Z</time>
      </trkpt>
      <trkpt lat="47.64523" lon="-2.07602">
        <ele>45.52716</ele>
        <time>2022-12-15T11:48:36.580Z</time>
      </trkpt>
      <trkpt lat="47.64517" lon="-2.07585">
        <ele>45.571982</ele>
        <time>2022-12-15T11:48:39.581Z</time>
      </trkpt>
      <trkpt lat="47.64513" lon="-2.07569">
        <ele>45.615595</ele>
        <time>2022-12-15T11:48:42.579Z</time>
      </trkpt>
      <trkpt lat="47.64508" lon="-2.07553">
        <ele>45.65966</ele>
        <time>2022-12-15T11:48:45.596Z</time>
      </trkpt>
      <trkpt lat="47.64503" lon="-2.07537">
        <ele>45.702684</ele>
        <time>2022-12-15T11:48:48.592Z</time>
      </trkpt>
      <trkpt lat="47.64499" lon="-2.07523">
        <ele>45.740047</ele>
        <time>2022-12-15T11:48:51.575Z</time>
      </trkpt>
      <trkpt lat="47.64495" lon="-2.07508">
        <ele>45.779945</ele>
        <time>2022-12-15T11:48:54.621Z</time>
      </trkpt>
      <trkpt lat="47.6449" lon="-2.07493">
        <ele>45.817863</ele>
        <time>2022-12-15T11:48:57.592Z</time>
      </trkpt>
      <trkpt lat="47.64485" lon="-2.07475">
        <ele>45.845905</ele>
        <time>2022-12-15T11:49:00.652Z</time>
      </trkpt>
      <trkpt lat="47.6448" lon="-2.07458">
        <ele>45.874264</ele>
        <time>2022-12-15T11:49:03.584Z</time>
      </trkpt>
      <trkpt lat="47.64475" lon="-2.07442">
        <ele>45.901619</ele>
        <time>2022-12-15T11:49:06.625Z</time>
      </trkpt>
      <trkpt lat="47.6447" lon="-2.07425">
        <ele>45.92865</ele>
        <time>2022-12-15T11:49:09.589Z</time>
      </trkpt>
      <trkpt lat="47.64465" lon="-2.07409">
        <ele>45.955043</ele>
        <time>2022-12-15T11:49:12.579Z</time>
      </trkpt>
      <trkpt lat="47.6446" lon="-2.07393">
        <ele>45.981989</ele>
        <time>2022-12-15T11:49:15.592Z</time>
      </trkpt>
      <trkpt lat="47.64454" lon="-2.07378">
        <ele>46.007927</ele>
        <time>2022-12-15T11:49:18.565Z</time>
      </trkpt>
      <trkpt lat="47.64449" lon="-2.07361">
        <ele>46.035051</ele>
        <time>2022-12-15T11:49:21.590Z</time>
      </trkpt>
      <trkpt lat="47.64444" lon="-2.07344">
        <ele>46.063683</ele>
        <time>2022-12-15T11:49:24.588Z</time>
      </trkpt>
      <trkpt lat="47.64439" lon="-2.07326">
        <ele>46.092724</ele>
        <time>2022-12-15T11:49:27.579Z</time>
      </trkpt>
      <trkpt lat="47.64433" lon="-2.07309">
        <ele>46.121681</ele>
        <time>2022-12-15T11:49:30.579Z</time>
      </trkpt>
      <trkpt lat="47.64428" lon="-2.07293">
        <ele>46.148444</ele>
        <time>2022-12-15T11:49:33.579Z</time>
      </trkpt>
      <trkpt lat="47.64423" lon="-2.07277">
        <ele>46.174716</ele>
        <time>2022-12-15T11:49:36.588Z</time>
      </trkpt>
      <trkpt lat="47.64417" lon="-2.07261">
        <ele>46.201392</ele>
        <time>2022-12-15T11:49:39.585Z</time>
      </trkpt>
      <trkpt lat="47.64413" lon="-2.07247">
        <ele>46.411966</ele>
        <time>2022-12-15T11:49:42.587Z</time>
      </trkpt>
      <trkpt lat="47.64407" lon="-2.07232">
        <ele>46.728443</ele>
        <time>2022-12-15T11:49:45.572Z</time>
      </trkpt>
      <trkpt lat="47.64402" lon="-2.07219">
        <ele>47.027315</ele>
        <time>2022-12-15T11:49:48.577Z</time>
      </trkpt>
      <trkpt lat="47.64395" lon="-2.07209">
        <ele>47.304067</ele>
        <time>2022-12-15T11:49:51.584Z</time>
      </trkpt>
      <trkpt lat="47.64388" lon="-2.07198">
        <ele>47.587629</ele>
        <time>2022-12-15T11:49:54.591Z</time>
      </trkpt>
      <trkpt lat="47.64381" lon="-2.07189">
        <ele>47.857531</ele>
        <time>2022-12-15T11:49:57.580Z</time>
      </trkpt>
      <trkpt lat="47.64374" lon="-2.07181">
        <ele>48.126804</ele>
        <time>2022-12-15T11:50:00.591Z</time>
      </trkpt>
      <trkpt lat="47.64365" lon="-2.07174">
        <ele>48.404328</ele>
        <time>2022-12-15T11:50:03.590Z</time>
      </trkpt>
      <trkpt lat="47.64355" lon="-2.07168">
        <ele>48.743172</ele>
        <time>2022-12-15T11:50:07.585Z</time>
      </trkpt>
      <trkpt lat="47.64344" lon="-2.07167">
        <ele>49.050087</ele>
        <time>2022-12-15T11:50:11.584Z</time>
      </trkpt>
      <trkpt lat="47.64332" lon="-2.07168">
        <ele>49.388977</ele>
        <time>2022-12-15T11:50:15.660Z</time>
      </trkpt>
      <trkpt lat="47.64322" lon="-2.0717">
        <ele>49.694095</ele>
        <time>2022-12-15T11:50:19.588Z</time>
      </trkpt>
      <trkpt lat="47.64311" lon="-2.07173">
        <ele>50.024952</ele>
        <time>2022-12-15T11:50:24.579Z</time>
      </trkpt>
      <trkpt lat="47.64302" lon="-2.07177">
        <ele>50.289343</ele>
        <time>2022-12-15T11:50:28.586Z</time>
      </trkpt>
      <trkpt lat="47.64293" lon="-2.07169">
        <ele>50.58268</ele>
        <time>2022-12-15T11:50:34.585Z</time>
      </trkpt>
      <trkpt lat="47.6429" lon="-2.07155">
        <ele>50.866295</ele>
        <time>2022-12-15T11:50:39.620Z</time>
      </trkpt>
      <trkpt lat="47.64287" lon="-2.07142">
        <ele>51.141306</ele>
        <time>2022-12-15T11:50:44.591Z</time>
      </trkpt>
      <trkpt lat="47.64287" lon="-2.07127">
        <ele>51.401403</ele>
        <time>2022-12-15T11:50:48.580Z</time>
      </trkpt>
      <trkpt lat="47.64297" lon="-2.07119">
        <ele>51.309299</ele>
        <time>2022-12-15T11:50:52.571Z</time>
      </trkpt>
      <trkpt lat="47.64307" lon="-2.07114">
        <ele>51.230045</ele>
        <time>2022-12-15T11:50:55.581Z</time>
      </trkpt>
      <trkpt lat="47.64318" lon="-2.0711">
        <ele>51.13642</ele>
        <time>2022-12-15T11:50:58.584Z</time>
      </trkpt>
      <trkpt lat="47.64331" lon="-2.07108">
        <ele>51.028231</ele>
        <time>2022-12-15T11:51:01.589Z</time>
      </trkpt>
      <trkpt lat="47.64341" lon="-2.07105">
        <ele>50.948959</ele>
        <time>2022-12-15T11:51:03.644Z</time>
      </trkpt>
      <trkpt lat="47.6435" lon="-2.07106">
        <ele>50.871256</ele>
        <time>2022-12-15T11:51:05.572Z</time>
      </trkpt>
      <trkpt lat="47.64359" lon="-2.07111">
        <ele>50.798361</ele>
        <time>2022-12-15T11:51:07.580Z</time>
      </trkpt>
      <trkpt lat="47.64371" lon="-2.07116">
        <ele>50.696077</ele>
        <time>2022-12-15T11:51:10.579Z</time>
      </trkpt>
      <trkpt lat="47.64382" lon="-2.07121">
        <ele>50.605217</ele>
        <time>2022-12-15T11:51:13.580Z</time>
      </trkpt>
      <trkpt lat="47.64391" lon="-2.07128">
        <ele>50.526857</ele>
        <time>2022-12-15T11:51:16.566Z</time>
      </trkpt>
      <trkpt lat="47.644" lon="-2.07137">
        <ele>50.437851</ele>
        <time>2022-12-15T11:51:20.581Z</time>
      </trkpt>
      <trkpt lat="47.64409" lon="-2.07147">
        <ele>50.34411</ele>
        <time>2022-12-15T11:51:24.593Z</time>
      </trkpt>
      <trkpt lat="47.64418" lon="-2.07159">
        <ele>50.248166</ele>
        <time>2022-12-15T11:51:28.591Z</time>
      </trkpt>
      <trkpt lat="47.64424" lon="-2.0717">
        <ele>50.168419</ele>
        <time>2022-12-15T11:51:32.583Z</time>
      </trkpt>
      <trkpt lat="47.64427" lon="-2.07184">
        <ele>50.090567</ele>
        <time>2022-12-15T11:51:37.574Z</time>
      </trkpt>
      <trkpt lat="47.64436" lon="-2.07189">
        <ele>50.01765</ele>
        <time>2022-12-15T11:51:43.585Z</time>
      </trkpt>
      <trkpt lat="47.64446" lon="-2.07194">
        <ele>49.971534</ele>
        <time>2022-12-15T11:51:48.578Z</time>
      </trkpt>
      <trkpt lat="47.64449" lon="-2.07208">
        <ele>50.012099</ele>
        <time>2022-12-15T11:51:51.621Z</time>
      </trkpt>
      <trkpt lat="47.64452" lon="-2.07222">
        <ele>50.056134</ele>
        <time>2022-12-15T11:51:54.564Z</time>
      </trkpt>
      <trkpt lat="47.64457" lon="-2.07234">
        <ele>50.094055</ele>
        <time>2022-12-15T11:51:57.621Z</time>
      </trkpt>
      <trkpt lat="47.64466" lon="-2.07235">
        <ele>50.133264</ele>
        <time>2022-12-15T11:52:02.580Z</time>
      </trkpt>
      <trkpt lat="47.64477" lon="-2.0723">
        <ele>50.178978</ele>
        <time>2022-12-15T11:52:06.592Z</time>
      </trkpt>
      <trkpt lat="47.64483" lon="-2.07244">
        <ele>50.226448</ele>
        <time>2022-12-15T11:52:10.566Z</time>
      </trkpt>
      <trkpt lat="47.64483" lon="-2.07259">
        <ele>50.268384</ele>
        <time>2022-12-15T11:52:13.592Z</time>
      </trkpt>
      <trkpt lat="47.64482" lon="-2.07273">
        <ele>50.309497</ele>
        <time>2022-12-15T11:52:16.579Z</time>
      </trkpt>
      <trkpt lat="47.64482" lon="-2.07288">
        <ele>50.352659</ele>
        <time>2022-12-15T11:52:19.566Z</time>
      </trkpt>
      <trkpt lat="47.64481" lon="-2.07305">
        <ele>50.399213</ele>
        <time>2022-12-15T11:52:22.570Z</time>
      </trkpt>
      <trkpt lat="47.64483" lon="-2.07318">
        <ele>50.438561</ele>
        <time>2022-12-15T11:52:25.590Z</time>
      </trkpt>
      <trkpt lat="47.64487" lon="-2.07331">
        <ele>50.47776</ele>
        <time>2022-12-15T11:52:28.572Z</time>
      </trkpt>
      <trkpt lat="47.64492" lon="-2.07346">
        <ele>50.525242</ele>
        <time>2022-12-15T11:52:31.584Z</time>
      </trkpt>
      <trkpt lat="47.64496" lon="-2.07363">
        <ele>50.576723</ele>
        <time>2022-12-15T11:52:34.574Z</time>
      </trkpt>
      <trkpt lat="47.64502" lon="-2.0738">
        <ele>50.631402</ele>
        <time>2022-12-15T11:52:37.579Z</time>
      </trkpt>
      <trkpt lat="47.64507" lon="-2.07396">
        <ele>50.681035</ele>
        <time>2022-12-15T11:52:40.584Z</time>
      </trkpt>
      <trkpt lat="47.64512" lon="-2.07411">
        <ele>50.767029</ele>
        <time>2022-12-15T11:52:43.591Z</time>
      </trkpt>
      <trkpt lat="47.64517" lon="-2.07427">
        <ele>50.984098</ele>
        <time>2022-12-15T11:52:46.586Z</time>
      </trkpt>
      <trkpt lat="47.64522" lon="-2.07443">
        <ele>51.188099</ele>
        <time>2022-12-15T11:52:49.580Z</time>
      </trkpt>
      <trkpt lat="47.64526" lon="-2.07458">
        <ele>51.385259</ele>
        <time>2022-12-15T11:52:52.580Z</time>
      </trkpt>
      <trkpt lat="47.64535" lon="-2.07467">
        <ele>51.570961</ele>
        <time>2022-12-15T11:52:55.593Z</time>
      </trkpt>
      <trkpt lat="47.64545" lon="-2.07461">
        <ele>51.768355</ele>
        <time>2022-12-15T11:52:58.591Z</time>
      </trkpt>
      <trkpt lat="47.64554" lon="-2.07451">
        <ele>51.965425</ele>
        <time>2022-12-15T11:53:01.578Z</time>
      </trkpt>
      <trkpt lat="47.64562" lon="-2.07442">
        <ele>52.142756</ele>
        <time>2022-12-15T11:53:04.592Z</time>
      </trkpt>
      <trkpt lat="47.64568" lon="-2.0743">
        <ele>52.324036</ele>
        <time>2022-12-15T11:53:09.581Z</time>
      </trkpt>
      <trkpt lat="47.64566" lon="-2.07416">
        <ele>52.500851</ele>
        <time>2022-12-15T11:53:13.584Z</time>
      </trkpt>
      <trkpt lat="47.6456" lon="-2.07403">
        <ele>52.683092</ele>
        <time>2022-12-15T11:53:17.580Z</time>
      </trkpt>
      <trkpt lat="47.64562" lon="-2.07389">
        <ele>52.849689</ele>
        <time>2022-12-15T11:53:22.578Z</time>
      </trkpt>
      <trkpt lat="47.64563" lon="-2.07401">
        <ele>52.994905</ele>
        <time>2022-12-15T11:54:39.561Z</time>
      </trkpt>
      <trkpt lat="47.64554" lon="-2.07372">
        <ele>53.378749</ele>
        <time>2022-12-15T12:13:32.147Z</time>
      </trkpt>
      <trkpt lat="47.64563" lon="-2.07382">
        <ele>53.585327</ele>
        <time>2022-12-15T12:15:18.574Z</time>
      </trkpt>
      <trkpt lat="47.64558" lon="-2.07393">
        <ele>53.74672</ele>
        <time>2022-12-15T12:15:33.571Z</time>
      </trkpt>
      <trkpt lat="47.64552" lon="-2.07407">
        <ele>53.852369</ele>
        <time>2022-12-15T12:15:38.568Z</time>
      </trkpt>
      <trkpt lat="47.64548" lon="-2.07423">
        <ele>53.619613</ele>
        <time>2022-12-15T12:15:42.574Z</time>
      </trkpt>
      <trkpt lat="47.64544" lon="-2.07438">
        <ele>53.396696</ele>
        <time>2022-12-15T12:15:46.568Z</time>
      </trkpt>
      <trkpt lat="47.64544" lon="-2.07452">
        <ele>53.212161</ele>
        <time>2022-12-15T12:15:50.566Z</time>
      </trkpt>
      <trkpt lat="47.64541" lon="-2.07466">
        <ele>53.011701</ele>
        <time>2022-12-15T12:15:54.588Z</time>
      </trkpt>
      <trkpt lat="47.64537" lon="-2.07479">
        <ele>52.817627</ele>
        <time>2022-12-15T12:15:58.563Z</time>
      </trkpt>
      <trkpt lat="47.64527" lon="-2.07481">
        <ele>52.608416</ele>
        <time>2022-12-15T12:16:10.574Z</time>
      </trkpt>
      <trkpt lat="47.64518" lon="-2.07476">
        <ele>52.424271</ele>
        <time>2022-12-15T12:16:15.570Z</time>
      </trkpt>
      <trkpt lat="47.64515" lon="-2.0746">
        <ele>52.198919</ele>
        <time>2022-12-15T12:16:21.573Z</time>
      </trkpt>
      <trkpt lat="47.64512" lon="-2.07446">
        <ele>51.995695</ele>
        <time>2022-12-15T12:16:25.581Z</time>
      </trkpt>
      <trkpt lat="47.64509" lon="-2.07433">
        <ele>51.804206</ele>
        <time>2022-12-15T12:16:29.574Z</time>
      </trkpt>
      <trkpt lat="47.64505" lon="-2.07418">
        <ele>51.59782</ele>
        <time>2022-12-15T12:16:33.566Z</time>
      </trkpt>
      <trkpt lat="47.64501" lon="-2.07403">
        <ele>51.378174</ele>
        <time>2022-12-15T12:16:37.587Z</time>
      </trkpt>
      <trkpt lat="47.64496" lon="-2.07391">
        <ele>51.17756</ele>
        <time>2022-12-15T12:16:39.598Z</time>
      </trkpt>
      <trkpt lat="47.64492" lon="-2.07377">
        <ele>50.968308</ele>
        <time>2022-12-15T12:16:42.577Z</time>
      </trkpt>
      <trkpt lat="47.64488" lon="-2.07363">
        <ele>50.767376</ele>
        <time>2022-12-15T12:16:45.591Z</time>
      </trkpt>
      <trkpt lat="47.64482" lon="-2.07348">
        <ele>50.538181</ele>
        <time>2022-12-15T12:16:48.591Z</time>
      </trkpt>
      <trkpt lat="47.64477" lon="-2.07332">
        <ele>50.290496</ele>
        <time>2022-12-15T12:16:51.588Z</time>
      </trkpt>
      <trkpt lat="47.64473" lon="-2.07317">
        <ele>50.266004</ele>
        <time>2022-12-15T12:16:54.590Z</time>
      </trkpt>
      <trkpt lat="47.64469" lon="-2.07304">
        <ele>50.253344</ele>
        <time>2022-12-15T12:16:57.584Z</time>
      </trkpt>
      <trkpt lat="47.64464" lon="-2.07289">
        <ele>50.23816</ele>
        <time>2022-12-15T12:17:00.583Z</time>
      </trkpt>
      <trkpt lat="47.64459" lon="-2.07274">
        <ele>50.223528</ele>
        <time>2022-12-15T12:17:03.565Z</time>
      </trkpt>
      <trkpt lat="47.64454" lon="-2.07259">
        <ele>50.209101</ele>
        <time>2022-12-15T12:17:06.584Z</time>
      </trkpt>
      <trkpt lat="47.64449" lon="-2.07244">
        <ele>50.194643</ele>
        <time>2022-12-15T12:17:09.585Z</time>
      </trkpt>
      <trkpt lat="47.64445" lon="-2.07231">
        <ele>50.181742</ele>
        <time>2022-12-15T12:17:12.579Z</time>
      </trkpt>
      <trkpt lat="47.6444" lon="-2.07217">
        <ele>50.167716</ele>
        <time>2022-12-15T12:17:15.577Z</time>
      </trkpt>
      <trkpt lat="47.64435" lon="-2.07204">
        <ele>50.15431</ele>
        <time>2022-12-15T12:17:18.589Z</time>
      </trkpt>
      <trkpt lat="47.64431" lon="-2.07189">
        <ele>50.140686</ele>
        <time>2022-12-15T12:17:21.582Z</time>
      </trkpt>
      <trkpt lat="47.64426" lon="-2.07174">
        <ele>50.125699</ele>
        <time>2022-12-15T12:17:24.587Z</time>
      </trkpt>
      <trkpt lat="47.64419" lon="-2.07161">
        <ele>50.110878</ele>
        <time>2022-12-15T12:17:27.585Z</time>
      </trkpt>
      <trkpt lat="47.6441" lon="-2.07149">
        <ele>50.095559</ele>
        <time>2022-12-15T12:17:30.586Z</time>
      </trkpt>
      <trkpt lat="47.64401" lon="-2.07142">
        <ele>50.081699</ele>
        <time>2022-12-15T12:17:33.564Z</time>
      </trkpt>
      <trkpt lat="47.64391" lon="-2.07137">
        <ele>50.067265</ele>
        <time>2022-12-15T12:17:36.591Z</time>
      </trkpt>
      <trkpt lat="47.6438" lon="-2.0713">
        <ele>50.052864</ele>
        <time>2022-12-15T12:17:39.589Z</time>
      </trkpt>
      <trkpt lat="47.6437" lon="-2.07126">
        <ele>50.004739</ele>
        <time>2022-12-15T12:17:42.598Z</time>
      </trkpt>
      <trkpt lat="47.64361" lon="-2.07121">
        <ele>49.896573</ele>
        <time>2022-12-15T12:17:45.585Z</time>
      </trkpt>
      <trkpt lat="47.64351" lon="-2.07117">
        <ele>49.793047</ele>
        <time>2022-12-15T12:17:48.587Z</time>
      </trkpt>
      <trkpt lat="47.64341" lon="-2.07115">
        <ele>49.676497</ele>
        <time>2022-12-15T12:17:51.588Z</time>
      </trkpt>
      <trkpt lat="47.6433" lon="-2.07117">
        <ele>49.557233</ele>
        <time>2022-12-15T12:17:54.584Z</time>
      </trkpt>
      <trkpt lat="47.64319" lon="-2.07121">
        <ele>49.439339</ele>
        <time>2022-12-15T12:17:57.580Z</time>
      </trkpt>
      <trkpt lat="47.64309" lon="-2.07124">
        <ele>49.329724</ele>
        <time>2022-12-15T12:18:00.587Z</time>
      </trkpt>
      <trkpt lat="47.643" lon="-2.07127">
        <ele>49.228462</ele>
        <time>2022-12-15T12:18:04.584Z</time>
      </trkpt>
      <trkpt lat="47.6429" lon="-2.07128">
        <ele>49.12431</ele>
        <time>2022-12-15T12:18:09.578Z</time>
      </trkpt>
      <trkpt lat="47.64286" lon="-2.0714">
        <ele>49.026822</ele>
        <time>2022-12-15T12:18:13.567Z</time>
      </trkpt>
      <trkpt lat="47.64288" lon="-2.07155">
        <ele>48.912622</ele>
        <time>2022-12-15T12:18:18.589Z</time>
      </trkpt>
      <trkpt lat="47.64292" lon="-2.07169">
        <ele>48.802992</ele>
        <time>2022-12-15T12:18:23.567Z</time>
      </trkpt>
      <trkpt lat="47.64288" lon="-2.07183">
        <ele>48.693284</ele>
        <time>2022-12-15T12:18:27.587Z</time>
      </trkpt>
      <trkpt lat="47.64275" lon="-2.07187">
        <ele>48.559982</ele>
        <time>2022-12-15T12:18:30.588Z</time>
      </trkpt>
      <trkpt lat="47.64265" lon="-2.0719">
        <ele>48.450296</ele>
        <time>2022-12-15T12:18:32.585Z</time>
      </trkpt>
      <trkpt lat="47.64256" lon="-2.07192">
        <ele>48.349165</ele>
        <time>2022-12-15T12:18:34.586Z</time>
      </trkpt>
      <trkpt lat="47.64245" lon="-2.07198">
        <ele>48.227027</ele>
        <time>2022-12-15T12:18:36.589Z</time>
      </trkpt>
      <trkpt lat="47.64236" lon="-2.07203">
        <ele>48.123688</ele>
        <time>2022-12-15T12:18:38.581Z</time>
      </trkpt>
      <trkpt lat="47.64225" lon="-2.07209">
        <ele>47.834475</ele>
        <time>2022-12-15T12:18:40.586Z</time>
      </trkpt>
      <trkpt lat="47.64213" lon="-2.07215">
        <ele>47.537211</ele>
        <time>2022-12-15T12:18:42.587Z</time>
      </trkpt>
      <trkpt lat="47.64201" lon="-2.0722">
        <ele>47.225964</ele>
        <time>2022-12-15T12:18:44.586Z</time>
      </trkpt>
      <trkpt lat="47.64191" lon="-2.07224">
        <ele>46.963705</ele>
        <time>2022-12-15T12:18:46.587Z</time>
      </trkpt>
      <trkpt lat="47.64179" lon="-2.07229">
        <ele>46.658386</ele>
        <time>2022-12-15T12:18:48.591Z</time>
      </trkpt>
      <trkpt lat="47.64168" lon="-2.07233">
        <ele>46.396127</ele>
        <time>2022-12-15T12:18:50.587Z</time>
      </trkpt>
      <trkpt lat="47.64158" lon="-2.07239">
        <ele>46.122016</ele>
        <time>2022-12-15T12:18:52.585Z</time>
      </trkpt>
      <trkpt lat="47.64145" lon="-2.07243">
        <ele>45.8029</ele>
        <time>2022-12-15T12:18:55.577Z</time>
      </trkpt>
      <trkpt lat="47.64134" lon="-2.07248">
        <ele>45.517867</ele>
        <time>2022-12-15T12:18:58.590Z</time>
      </trkpt>
      <trkpt lat="47.64124" lon="-2.0725">
        <ele>45.276816</ele>
        <time>2022-12-15T12:19:01.586Z</time>
      </trkpt>
      <trkpt lat="47.64112" lon="-2.07254">
        <ele>44.968345</ele>
        <time>2022-12-15T12:19:04.580Z</time>
      </trkpt>
      <trkpt lat="47.64099" lon="-2.0726">
        <ele>44.644935</ele>
        <time>2022-12-15T12:19:07.577Z</time>
      </trkpt>
      <trkpt lat="47.6409" lon="-2.07264">
        <ele>44.418407</ele>
        <time>2022-12-15T12:19:09.588Z</time>
      </trkpt>
      <trkpt lat="47.64081" lon="-2.07267">
        <ele>44.194473</ele>
        <time>2022-12-15T12:19:11.596Z</time>
      </trkpt>
      <trkpt lat="47.64072" lon="-2.0727">
        <ele>43.96777</ele>
        <time>2022-12-15T12:19:13.565Z</time>
      </trkpt>
      <trkpt lat="47.64063" lon="-2.07274">
        <ele>43.745795</ele>
        <time>2022-12-15T12:19:15.592Z</time>
      </trkpt>
      <trkpt lat="47.64054" lon="-2.07277">
        <ele>43.861175</ele>
        <time>2022-12-15T12:19:17.586Z</time>
      </trkpt>
      <trkpt lat="47.64045" lon="-2.0728">
        <ele>44.009085</ele>
        <time>2022-12-15T12:19:19.590Z</time>
      </trkpt>
      <trkpt lat="47.64031" lon="-2.07285">
        <ele>44.226826</ele>
        <time>2022-12-15T12:19:22.588Z</time>
      </trkpt>
      <trkpt lat="47.64018" lon="-2.0729">
        <ele>44.434556</ele>
        <time>2022-12-15T12:19:25.588Z</time>
      </trkpt>
      <trkpt lat="47.64005" lon="-2.07295">
        <ele>44.644585</ele>
        <time>2022-12-15T12:19:28.589Z</time>
      </trkpt>
      <trkpt lat="47.63995" lon="-2.07298">
        <ele>44.807152</ele>
        <time>2022-12-15T12:19:30.585Z</time>
      </trkpt>
      <trkpt lat="47.63984" lon="-2.07301">
        <ele>44.972552</ele>
        <time>2022-12-15T12:19:32.592Z</time>
      </trkpt>
      <trkpt lat="47.63971" lon="-2.07306">
        <ele>45.191563</ele>
        <time>2022-12-15T12:19:35.586Z</time>
      </trkpt>
      <trkpt lat="47.63961" lon="-2.0731">
        <ele>45.346085</ele>
        <time>2022-12-15T12:19:37.588Z</time>
      </trkpt>
      <trkpt lat="47.63952" lon="-2.07314">
        <ele>45.49424</ele>
        <time>2022-12-15T12:19:39.588Z</time>
      </trkpt>
      <trkpt lat="47.63942" lon="-2.07318">
        <ele>45.656812</ele>
        <time>2022-12-15T12:19:41.574Z</time>
      </trkpt>
      <trkpt lat="47.63932" lon="-2.07322">
        <ele>45.809005</ele>
        <time>2022-12-15T12:19:43.567Z</time>
      </trkpt>
      <trkpt lat="47.63923" lon="-2.07325">
        <ele>45.956444</ele>
        <time>2022-12-15T12:19:45.576Z</time>
      </trkpt>
      <trkpt lat="47.63914" lon="-2.07329">
        <ele>46.104853</ele>
        <time>2022-12-15T12:19:47.586Z</time>
      </trkpt>
      <trkpt lat="47.63904" lon="-2.07332">
        <ele>46.254511</ele>
        <time>2022-12-15T12:19:49.582Z</time>
      </trkpt>
      <trkpt lat="47.6389" lon="-2.07335">
        <ele>46.469959</ele>
        <time>2022-12-15T12:19:52.587Z</time>
      </trkpt>
      <trkpt lat="47.6388" lon="-2.0734">
        <ele>46.550219</ele>
        <time>2022-12-15T12:19:54.593Z</time>
      </trkpt>
      <trkpt lat="47.63871" lon="-2.07343">
        <ele>46.597389</ele>
        <time>2022-12-15T12:19:56.595Z</time>
      </trkpt>
      <trkpt lat="47.63862" lon="-2.07347">
        <ele>46.646398</ele>
        <time>2022-12-15T12:19:58.577Z</time>
      </trkpt>
      <trkpt lat="47.63849" lon="-2.0735">
        <ele>46.708686</ele>
        <time>2022-12-15T12:20:01.586Z</time>
      </trkpt>
      <trkpt lat="47.63837" lon="-2.07354">
        <ele>46.770973</ele>
        <time>2022-12-15T12:20:04.587Z</time>
      </trkpt>
      <trkpt lat="47.63825" lon="-2.07358">
        <ele>46.833379</ele>
        <time>2022-12-15T12:20:07.590Z</time>
      </trkpt>
      <trkpt lat="47.63812" lon="-2.07363">
        <ele>46.896605</ele>
        <time>2022-12-15T12:20:10.588Z</time>
      </trkpt>
      <trkpt lat="47.638" lon="-2.07368">
        <ele>46.961578</ele>
        <time>2022-12-15T12:20:13.566Z</time>
      </trkpt>
      <trkpt lat="47.63788" lon="-2.07372">
        <ele>47.020401</ele>
        <time>2022-12-15T12:20:16.592Z</time>
      </trkpt>
      <trkpt lat="47.63776" lon="-2.07376">
        <ele>47.080323</ele>
        <time>2022-12-15T12:20:19.588Z</time>
      </trkpt>
      <trkpt lat="47.63762" lon="-2.0738">
        <ele>47.152043</ele>
        <time>2022-12-15T12:20:22.587Z</time>
      </trkpt>
      <trkpt lat="47.6375" lon="-2.07384">
        <ele>47.215924</ele>
        <time>2022-12-15T12:20:25.588Z</time>
      </trkpt>
      <trkpt lat="47.63738" lon="-2.07389">
        <ele>47.27715</ele>
        <time>2022-12-15T12:20:28.585Z</time>
      </trkpt>
      <trkpt lat="47.63726" lon="-2.07393">
        <ele>47.338275</ele>
        <time>2022-12-15T12:20:31.572Z</time>
      </trkpt>
      <trkpt lat="47.63712" lon="-2.07398">
        <ele>47.418498</ele>
        <time>2022-12-15T12:20:34.586Z</time>
      </trkpt>
      <trkpt lat="47.637" lon="-2.07402">
        <ele>47.726703</ele>
        <time>2022-12-15T12:20:37.590Z</time>
      </trkpt>
      <trkpt lat="47.63688" lon="-2.07408">
        <ele>48.051037</ele>
        <time>2022-12-15T12:20:40.586Z</time>
      </trkpt>
      <trkpt lat="47.63676" lon="-2.07413">
        <ele>48.36487</ele>
        <time>2022-12-15T12:20:43.566Z</time>
      </trkpt>
      <trkpt lat="47.63665" lon="-2.07417">
        <ele>48.642677</ele>
        <time>2022-12-15T12:20:46.569Z</time>
      </trkpt>
      <trkpt lat="47.63655" lon="-2.07419">
        <ele>48.899665</ele>
        <time>2022-12-15T12:20:49.579Z</time>
      </trkpt>
      <trkpt lat="47.63645" lon="-2.07423">
        <ele>49.166581</ele>
        <time>2022-12-15T12:20:52.577Z</time>
      </trkpt>
      <trkpt lat="47.63634" lon="-2.07426">
        <ele>49.432164</ele>
        <time>2022-12-15T12:20:55.592Z</time>
      </trkpt>
      <trkpt lat="47.63624" lon="-2.07429">
        <ele>49.708904</ele>
        <time>2022-12-15T12:20:58.587Z</time>
      </trkpt>
      <trkpt lat="47.63613" lon="-2.07433">
        <ele>49.975278</ele>
        <time>2022-12-15T12:21:01.596Z</time>
      </trkpt>
      <trkpt lat="47.63604" lon="-2.07437">
        <ele>50.222215</ele>
        <time>2022-12-15T12:21:04.587Z</time>
      </trkpt>
      <trkpt lat="47.63593" lon="-2.0744">
        <ele>50.491941</ele>
        <time>2022-12-15T12:21:07.587Z</time>
      </trkpt>
      <trkpt lat="47.63583" lon="-2.07445">
        <ele>50.764456</ele>
        <time>2022-12-15T12:21:10.578Z</time>
      </trkpt>
      <trkpt lat="47.63572" lon="-2.0745">
        <ele>51.047033</ele>
        <time>2022-12-15T12:21:13.564Z</time>
      </trkpt>
      <trkpt lat="47.63562" lon="-2.07456">
        <ele>51.330575</ele>
        <time>2022-12-15T12:21:16.583Z</time>
      </trkpt>
      <trkpt lat="47.6355" lon="-2.0746">
        <ele>51.626639</ele>
        <time>2022-12-15T12:21:19.588Z</time>
      </trkpt>
      <trkpt lat="47.6354" lon="-2.07464">
        <ele>51.892217</ele>
        <time>2022-12-15T12:21:22.588Z</time>
      </trkpt>
      <trkpt lat="47.63529" lon="-2.07468">
        <ele>51.554733</ele>
        <time>2022-12-15T12:21:26.588Z</time>
      </trkpt>
      <trkpt lat="47.63518" lon="-2.07473">
        <ele>51.15454</ele>
        <time>2022-12-15T12:21:30.585Z</time>
      </trkpt>
      <trkpt lat="47.63508" lon="-2.07476">
        <ele>50.803119</ele>
        <time>2022-12-15T12:21:33.568Z</time>
      </trkpt>
      <trkpt lat="47.63497" lon="-2.0748">
        <ele>50.383775</ele>
        <time>2022-12-15T12:21:36.578Z</time>
      </trkpt>
      <trkpt lat="47.63487" lon="-2.07483">
        <ele>50.033436</ele>
        <time>2022-12-15T12:21:38.583Z</time>
      </trkpt>
      <trkpt lat="47.63478" lon="-2.07486">
        <ele>49.687748</ele>
        <time>2022-12-15T12:21:40.596Z</time>
      </trkpt>
      <trkpt lat="47.63468" lon="-2.0749">
        <ele>49.332799</ele>
        <time>2022-12-15T12:21:42.578Z</time>
      </trkpt>
      <trkpt lat="47.63456" lon="-2.07494">
        <ele>48.885405</ele>
        <time>2022-12-15T12:21:45.592Z</time>
      </trkpt>
      <trkpt lat="47.63444" lon="-2.07498">
        <ele>48.465515</ele>
        <time>2022-12-15T12:21:48.593Z</time>
      </trkpt>
      <trkpt lat="47.63433" lon="-2.07501">
        <ele>48.063829</ele>
        <time>2022-12-15T12:21:51.587Z</time>
      </trkpt>
      <trkpt lat="47.6342" lon="-2.07505">
        <ele>47.59372</ele>
        <time>2022-12-15T12:21:54.588Z</time>
      </trkpt>
      <trkpt lat="47.6341" lon="-2.0751">
        <ele>47.252929</ele>
        <time>2022-12-15T12:21:56.594Z</time>
      </trkpt>
      <trkpt lat="47.63397" lon="-2.07514">
        <ele>46.773513</ele>
        <time>2022-12-15T12:21:59.587Z</time>
      </trkpt>
      <trkpt lat="47.63388" lon="-2.07517">
        <ele>46.445487</ele>
        <time>2022-12-15T12:22:01.593Z</time>
      </trkpt>
      <trkpt lat="47.63375" lon="-2.07521">
        <ele>45.989178</ele>
        <time>2022-12-15T12:22:04.592Z</time>
      </trkpt>
      <trkpt lat="47.63367" lon="-2.07525">
        <ele>45.666705</ele>
        <time>2022-12-15T12:22:06.587Z</time>
      </trkpt>
      <trkpt lat="47.63354" lon="-2.07528">
        <ele>45.77926</ele>
        <time>2022-12-15T12:22:09.586Z</time>
      </trkpt>
      <trkpt lat="47.63345" lon="-2.07532">
        <ele>45.968477</ele>
        <time>2022-12-15T12:22:11.577Z</time>
      </trkpt>
      <trkpt lat="47.63333" lon="-2.07534">
        <ele>46.218528</ele>
        <time>2022-12-15T12:22:14.582Z</time>
      </trkpt>
      <trkpt lat="47.63324" lon="-2.07535">
        <ele>46.407553</ele>
        <time>2022-12-15T12:22:16.588Z</time>
      </trkpt>
      <trkpt lat="47.63314" lon="-2.07535">
        <ele>46.59606</ele>
        <time>2022-12-15T12:22:18.590Z</time>
      </trkpt>
      <trkpt lat="47.63302" lon="-2.07538">
        <ele>46.847786</ele>
        <time>2022-12-15T12:22:21.589Z</time>
      </trkpt>
      <trkpt lat="47.63291" lon="-2.07539">
        <ele>47.065968</ele>
        <time>2022-12-15T12:22:24.587Z</time>
      </trkpt>
      <trkpt lat="47.63281" lon="-2.07543">
        <ele>47.289106</ele>
        <time>2022-12-15T12:22:27.583Z</time>
      </trkpt>
      <trkpt lat="47.6327" lon="-2.07547">
        <ele>47.503164</ele>
        <time>2022-12-15T12:22:30.583Z</time>
      </trkpt>
      <trkpt lat="47.63261" lon="-2.07552">
        <ele>47.700526</ele>
        <time>2022-12-15T12:22:33.568Z</time>
      </trkpt>
      <trkpt lat="47.63251" lon="-2.07554">
        <ele>47.918207</ele>
        <time>2022-12-15T12:22:37.589Z</time>
      </trkpt>
      <trkpt lat="47.63244" lon="-2.07543">
        <ele>48.123711</ele>
        <time>2022-12-15T12:22:44.568Z</time>
      </trkpt>
      <trkpt lat="47.63244" lon="-2.07529">
        <ele>48.310776</ele>
        <time>2022-12-15T12:22:50.583Z</time>
      </trkpt>
      <trkpt lat="47.63244" lon="-2.07515">
        <ele>48.503302</ele>
        <time>2022-12-15T12:22:55.589Z</time>
      </trkpt>
      <trkpt lat="47.63244" lon="-2.07499">
        <ele>48.723134</ele>
        <time>2022-12-15T12:23:01.585Z</time>
      </trkpt>
      <trkpt lat="47.63237" lon="-2.07488">
        <ele>48.924941</ele>
        <time>2022-12-15T12:23:05.587Z</time>
      </trkpt>
      <trkpt lat="47.63225" lon="-2.07491">
        <ele>49.164639</ele>
        <time>2022-12-15T12:23:08.570Z</time>
      </trkpt>
      <trkpt lat="47.63216" lon="-2.07492">
        <ele>49.074238</ele>
        <time>2022-12-15T12:23:10.589Z</time>
      </trkpt>
      <trkpt lat="47.63205" lon="-2.07493">
        <ele>48.849511</ele>
        <time>2022-12-15T12:23:12.569Z</time>
      </trkpt>
      <trkpt lat="47.63195" lon="-2.07493">
        <ele>48.627435</ele>
        <time>2022-12-15T12:23:14.573Z</time>
      </trkpt>
      <trkpt lat="47.63185" lon="-2.07494">
        <ele>48.411226</ele>
        <time>2022-12-15T12:23:16.578Z</time>
      </trkpt>
      <trkpt lat="47.63176" lon="-2.07495">
        <ele>48.212655</ele>
        <time>2022-12-15T12:23:18.586Z</time>
      </trkpt>
      <trkpt lat="47.63166" lon="-2.07495">
        <ele>48.005441</ele>
        <time>2022-12-15T12:23:20.590Z</time>
      </trkpt>
      <trkpt lat="47.63153" lon="-2.07494">
        <ele>47.727169</ele>
        <time>2022-12-15T12:23:23.569Z</time>
      </trkpt>
      <trkpt lat="47.63141" lon="-2.07493">
        <ele>47.468697</ele>
        <time>2022-12-15T12:23:26.586Z</time>
      </trkpt>
      <trkpt lat="47.6313" lon="-2.07491">
        <ele>47.225904</ele>
        <time>2022-12-15T12:23:29.575Z</time>
      </trkpt>
      <trkpt lat="47.63119" lon="-2.0749">
        <ele>46.990704</ele>
        <time>2022-12-15T12:23:32.586Z</time>
      </trkpt>
      <trkpt lat="47.63107" lon="-2.07489">
        <ele>46.749027</ele>
        <time>2022-12-15T12:23:35.583Z</time>
      </trkpt>
      <trkpt lat="47.63095" lon="-2.0749">
        <ele>46.486394</ele>
        <time>2022-12-15T12:23:38.592Z</time>
      </trkpt>
      <trkpt lat="47.63083" lon="-2.07489">
        <ele>46.223603</ele>
        <time>2022-12-15T12:23:41.586Z</time>
      </trkpt>
      <trkpt lat="47.63069" lon="-2.07489">
        <ele>45.937506</ele>
        <time>2022-12-15T12:23:44.579Z</time>
      </trkpt>
      <trkpt lat="47.6306" lon="-2.07488">
        <ele>45.732304</ele>
        <time>2022-12-15T12:23:46.590Z</time>
      </trkpt>
      <trkpt lat="47.6305" lon="-2.07488">
        <ele>45.5335</ele>
        <time>2022-12-15T12:23:48.592Z</time>
      </trkpt>
      <trkpt lat="47.63036" lon="-2.07487">
        <ele>45.474457</ele>
        <time>2022-12-15T12:23:51.595Z</time>
      </trkpt>
      <trkpt lat="47.63023" lon="-2.07487">
        <ele>45.665402</ele>
        <time>2022-12-15T12:23:54.591Z</time>
      </trkpt>
      <trkpt lat="47.63009" lon="-2.07488">
        <ele>45.853934</ele>
        <time>2022-12-15T12:23:57.586Z</time>
      </trkpt>
      <trkpt lat="47.63" lon="-2.07488">
        <ele>45.979414</ele>
        <time>2022-12-15T12:23:59.584Z</time>
      </trkpt>
      <trkpt lat="47.6299" lon="-2.0749">
        <ele>46.115063</ele>
        <time>2022-12-15T12:24:01.581Z</time>
      </trkpt>
      <trkpt lat="47.62981" lon="-2.07491">
        <ele>46.249115</ele>
        <time>2022-12-15T12:24:03.568Z</time>
      </trkpt>
      <trkpt lat="47.62971" lon="-2.07492">
        <ele>46.393441</ele>
        <time>2022-12-15T12:24:05.569Z</time>
      </trkpt>
      <trkpt lat="47.62961" lon="-2.07494">
        <ele>46.533511</ele>
        <time>2022-12-15T12:24:07.591Z</time>
      </trkpt>
      <trkpt lat="47.6295" lon="-2.07496">
        <ele>46.679658</ele>
        <time>2022-12-15T12:24:09.586Z</time>
      </trkpt>
      <trkpt lat="47.62939" lon="-2.07499">
        <ele>46.841346</ele>
        <time>2022-12-15T12:24:11.582Z</time>
      </trkpt>
      <trkpt lat="47.62927" lon="-2.07501">
        <ele>47.006079</ele>
        <time>2022-12-15T12:24:13.572Z</time>
      </trkpt>
      <trkpt lat="47.62916" lon="-2.07504">
        <ele>47.159033</ele>
        <time>2022-12-15T12:24:15.585Z</time>
      </trkpt>
      <trkpt lat="47.62906" lon="-2.07507">
        <ele>47.306505</ele>
        <time>2022-12-15T12:24:17.582Z</time>
      </trkpt>
      <trkpt lat="47.62896" lon="-2.0751">
        <ele>47.439591</ele>
        <time>2022-12-15T12:24:19.573Z</time>
      </trkpt>
      <trkpt lat="47.62887" lon="-2.07512">
        <ele>47.574216</ele>
        <time>2022-12-15T12:24:21.585Z</time>
      </trkpt>
      <trkpt lat="47.62877" lon="-2.07515">
        <ele>47.717072</ele>
        <time>2022-12-15T12:24:23.568Z</time>
      </trkpt>
      <trkpt lat="47.62867" lon="-2.07518">
        <ele>47.853418</ele>
        <time>2022-12-15T12:24:25.577Z</time>
      </trkpt>
      <trkpt lat="47.62857" lon="-2.07521">
        <ele>48.052292</ele>
        <time>2022-12-15T12:24:27.581Z</time>
      </trkpt>
      <trkpt lat="47.62846" lon="-2.07525">
        <ele>48.260278</ele>
        <time>2022-12-15T12:24:29.585Z</time>
      </trkpt>
      <trkpt lat="47.62837" lon="-2.07527">
        <ele>48.453228</ele>
        <time>2022-12-15T12:24:31.587Z</time>
      </trkpt>
      <trkpt lat="47.62826" lon="-2.07531">
        <ele>48.663431</ele>
        <time>2022-12-15T12:24:33.576Z</time>
      </trkpt>
      <trkpt lat="47.62816" lon="-2.07533">
        <ele>48.87172</ele>
        <time>2022-12-15T12:24:35.591Z</time>
      </trkpt>
      <trkpt lat="47.62806" lon="-2.07535">
        <ele>49.076187</ele>
        <time>2022-12-15T12:24:37.586Z</time>
      </trkpt>
      <trkpt lat="47.62796" lon="-2.07539">
        <ele>49.275908</ele>
        <time>2022-12-15T12:24:39.592Z</time>
      </trkpt>
      <trkpt lat="47.62786" lon="-2.07543">
        <ele>49.481669</ele>
        <time>2022-12-15T12:24:41.591Z</time>
      </trkpt>
      <trkpt lat="47.62776" lon="-2.07546">
        <ele>49.683028</ele>
        <time>2022-12-15T12:24:43.568Z</time>
      </trkpt>
      <trkpt lat="47.62767" lon="-2.07548">
        <ele>49.861078</ele>
        <time>2022-12-15T12:24:45.587Z</time>
      </trkpt>
      <trkpt lat="47.62754" lon="-2.07553">
        <ele>50.126805</ele>
        <time>2022-12-15T12:24:48.589Z</time>
      </trkpt>
      <trkpt lat="47.62744" lon="-2.07555">
        <ele>50.311146</ele>
        <time>2022-12-15T12:24:50.569Z</time>
      </trkpt>
      <trkpt lat="47.62735" lon="-2.07558">
        <ele>50.504816</ele>
        <time>2022-12-15T12:24:52.580Z</time>
      </trkpt>
      <trkpt lat="47.62725" lon="-2.07562">
        <ele>50.69878</ele>
        <time>2022-12-15T12:24:54.587Z</time>
      </trkpt>
      <trkpt lat="47.62715" lon="-2.07564">
        <ele>50.896674</ele>
        <time>2022-12-15T12:24:56.575Z</time>
      </trkpt>
      <trkpt lat="47.62706" lon="-2.07567">
        <ele>51.085131</ele>
        <time>2022-12-15T12:24:58.597Z</time>
      </trkpt>
      <trkpt lat="47.62692" lon="-2.07569">
        <ele>51.360425</ele>
        <time>2022-12-15T12:25:01.578Z</time>
      </trkpt>
      <trkpt lat="47.62682" lon="-2.07574">
        <ele>51.454148</ele>
        <time>2022-12-15T12:25:03.593Z</time>
      </trkpt>
      <trkpt lat="47.62672" lon="-2.07577">
        <ele>51.493606</ele>
        <time>2022-12-15T12:25:05.597Z</time>
      </trkpt>
      <trkpt lat="47.62662" lon="-2.0758">
        <ele>51.532009</ele>
        <time>2022-12-15T12:25:07.595Z</time>
      </trkpt>
      <trkpt lat="47.62652" lon="-2.07584">
        <ele>51.570468</ele>
        <time>2022-12-15T12:25:09.595Z</time>
      </trkpt>
      <trkpt lat="47.62642" lon="-2.07587">
        <ele>51.609032</ele>
        <time>2022-12-15T12:25:11.594Z</time>
      </trkpt>
      <trkpt lat="47.62632" lon="-2.07589">
        <ele>51.64621</ele>
        <time>2022-12-15T12:25:13.591Z</time>
      </trkpt>
      <trkpt lat="47.62623" lon="-2.07592">
        <ele>51.683024</ele>
        <time>2022-12-15T12:25:15.593Z</time>
      </trkpt>
      <trkpt lat="47.62613" lon="-2.07595">
        <ele>51.721637</ele>
        <time>2022-12-15T12:25:17.643Z</time>
      </trkpt>
      <trkpt lat="47.62603" lon="-2.07596">
        <ele>51.757419</ele>
        <time>2022-12-15T12:25:19.593Z</time>
      </trkpt>
      <trkpt lat="47.62591" lon="-2.07598">
        <ele>51.805281</ele>
        <time>2022-12-15T12:25:22.590Z</time>
      </trkpt>
      <trkpt lat="47.62579" lon="-2.07599">
        <ele>51.850838</ele>
        <time>2022-12-15T12:25:25.592Z</time>
      </trkpt>
      <trkpt lat="47.62568" lon="-2.076">
        <ele>51.889889</ele>
        <time>2022-12-15T12:25:28.596Z</time>
      </trkpt>
      <trkpt lat="47.62557" lon="-2.076">
        <ele>51.931949</ele>
        <time>2022-12-15T12:25:32.598Z</time>
      </trkpt>
      <trkpt lat="47.62549" lon="-2.07605">
        <ele>51.966204</ele>
        <time>2022-12-15T12:25:36.593Z</time>
      </trkpt>
      <trkpt lat="47.62538" lon="-2.07611">
        <ele>52.010294</ele>
        <time>2022-12-15T12:25:40.639Z</time>
      </trkpt>
      <trkpt lat="47.62525" lon="-2.07617">
        <ele>52.062107</ele>
        <time>2022-12-15T12:25:43.592Z</time>
      </trkpt>
      <trkpt lat="47.62515" lon="-2.07621">
        <ele>52.099346</ele>
        <time>2022-12-15T12:25:45.594Z</time>
      </trkpt>
      <trkpt lat="47.62506" lon="-2.07625">
        <ele>52.084402</ele>
        <time>2022-12-15T12:25:47.580Z</time>
      </trkpt>
      <trkpt lat="47.62496" lon="-2.07628">
        <ele>52.05372</ele>
        <time>2022-12-15T12:25:49.581Z</time>
      </trkpt>
      <trkpt lat="47.62486" lon="-2.07631">
        <ele>52.025471</ele>
        <time>2022-12-15T12:25:51.595Z</time>
      </trkpt>
      <trkpt lat="47.62476" lon="-2.07636">
        <ele>51.993918</ele>
        <time>2022-12-15T12:25:53.576Z</time>
      </trkpt>
      <trkpt lat="47.62467" lon="-2.07639">
        <ele>51.966031</ele>
        <time>2022-12-15T12:25:55.590Z</time>
      </trkpt>
      <trkpt lat="47.62457" lon="-2.07641">
        <ele>51.937595</ele>
        <time>2022-12-15T12:25:57.592Z</time>
      </trkpt>
      <trkpt lat="47.62448" lon="-2.07643">
        <ele>51.91029</ele>
        <time>2022-12-15T12:25:59.593Z</time>
      </trkpt>
      <trkpt lat="47.62439" lon="-2.07647">
        <ele>51.880602</ele>
        <time>2022-12-15T12:26:01.596Z</time>
      </trkpt>
      <trkpt lat="47.62429" lon="-2.07649">
        <ele>51.850865</ele>
        <time>2022-12-15T12:26:03.596Z</time>
      </trkpt>
      <trkpt lat="47.62419" lon="-2.07652">
        <ele>51.821521</ele>
        <time>2022-12-15T12:26:05.595Z</time>
      </trkpt>
      <trkpt lat="47.62408" lon="-2.07653">
        <ele>51.790002</ele>
        <time>2022-12-15T12:26:07.593Z</time>
      </trkpt>
      <trkpt lat="47.62398" lon="-2.07656">
        <ele>51.758382</ele>
        <time>2022-12-15T12:26:09.595Z</time>
      </trkpt>
      <trkpt lat="47.62387" lon="-2.07658">
        <ele>51.727225</ele>
        <time>2022-12-15T12:26:11.594Z</time>
      </trkpt>
      <trkpt lat="47.62377" lon="-2.07661">
        <ele>51.697161</ele>
        <time>2022-12-15T12:26:13.574Z</time>
      </trkpt>
      <trkpt lat="47.62367" lon="-2.07664">
        <ele>51.665823</ele>
        <time>2022-12-15T12:26:15.643Z</time>
      </trkpt>
      <trkpt lat="47.62357" lon="-2.07667">
        <ele>51.634775</ele>
        <time>2022-12-15T12:26:17.581Z</time>
      </trkpt>
      <trkpt lat="47.62347" lon="-2.07671">
        <ele>51.604375</ele>
        <time>2022-12-15T12:26:19.594Z</time>
      </trkpt>
      <trkpt lat="47.62337" lon="-2.07674">
        <ele>51.579622</ele>
        <time>2022-12-15T12:26:21.645Z</time>
      </trkpt>
      <trkpt lat="47.62326" lon="-2.07676">
        <ele>51.643108</ele>
        <time>2022-12-15T12:26:23.575Z</time>
      </trkpt>
      <trkpt lat="47.62316" lon="-2.0768">
        <ele>51.708041</ele>
        <time>2022-12-15T12:26:25.574Z</time>
      </trkpt>
      <trkpt lat="47.62306" lon="-2.07682">
        <ele>51.770426</ele>
        <time>2022-12-15T12:26:27.649Z</time>
      </trkpt>
      <trkpt lat="47.62296" lon="-2.07685">
        <ele>51.835887</ele>
        <time>2022-12-15T12:26:29.596Z</time>
      </trkpt>
      <trkpt lat="47.62285" lon="-2.07688">
        <ele>51.903423</ele>
        <time>2022-12-15T12:26:31.593Z</time>
      </trkpt>
      <trkpt lat="47.62275" lon="-2.07692">
        <ele>51.967473</ele>
        <time>2022-12-15T12:26:33.613Z</time>
      </trkpt>
      <trkpt lat="47.62265" lon="-2.07694">
        <ele>52.028519</ele>
        <time>2022-12-15T12:26:35.597Z</time>
      </trkpt>
      <trkpt lat="47.62252" lon="-2.07697">
        <ele>52.11334</ele>
        <time>2022-12-15T12:26:38.587Z</time>
      </trkpt>
      <trkpt lat="47.62243" lon="-2.077">
        <ele>52.172282</ele>
        <time>2022-12-15T12:26:40.583Z</time>
      </trkpt>
      <trkpt lat="47.62233" lon="-2.07703">
        <ele>52.232614</ele>
        <time>2022-12-15T12:26:42.593Z</time>
      </trkpt>
      <trkpt lat="47.62223" lon="-2.07706">
        <ele>52.297359</ele>
        <time>2022-12-15T12:26:44.596Z</time>
      </trkpt>
      <trkpt lat="47.62213" lon="-2.0771">
        <ele>52.360804</ele>
        <time>2022-12-15T12:26:46.578Z</time>
      </trkpt>
      <trkpt lat="47.62203" lon="-2.07713">
        <ele>52.425203</ele>
        <time>2022-12-15T12:26:48.596Z</time>
      </trkpt>
      <trkpt lat="47.62192" lon="-2.07716">
        <ele>52.489948</ele>
        <time>2022-12-15T12:26:50.595Z</time>
      </trkpt>
      <trkpt lat="47.62182" lon="-2.07719">
        <ele>52.553823</ele>
        <time>2022-12-15T12:26:52.578Z</time>
      </trkpt>
      <trkpt lat="47.62173" lon="-2.07722">
        <ele>52.613808</ele>
        <time>2022-12-15T12:26:54.595Z</time>
      </trkpt>
      <trkpt lat="47.62164" lon="-2.07725">
        <ele>52.669728</ele>
        <time>2022-12-15T12:26:56.596Z</time>
      </trkpt>
      <trkpt lat="47.62155" lon="-2.07728">
        <ele>52.655259</ele>
        <time>2022-12-15T12:26:58.597Z</time>
      </trkpt>
      <trkpt lat="47.62143" lon="-2.07732">
        <ele>52.579815</ele>
        <time>2022-12-15T12:27:01.599Z</time>
      </trkpt>
      <trkpt lat="47.62131" lon="-2.07736">
        <ele>52.507528</ele>
        <time>2022-12-15T12:27:04.597Z</time>
      </trkpt>
      <trkpt lat="47.62121" lon="-2.07739">
        <ele>52.449077</ele>
        <time>2022-12-15T12:27:06.577Z</time>
      </trkpt>
      <trkpt lat="47.62111" lon="-2.07742">
        <ele>52.389641</ele>
        <time>2022-12-15T12:27:08.640Z</time>
      </trkpt>
      <trkpt lat="47.62102" lon="-2.07745">
        <ele>52.33219</ele>
        <time>2022-12-15T12:27:10.580Z</time>
      </trkpt>
      <trkpt lat="47.62093" lon="-2.07748">
        <ele>52.277804</ele>
        <time>2022-12-15T12:27:12.578Z</time>
      </trkpt>
      <trkpt lat="47.62083" lon="-2.07752">
        <ele>52.213975</ele>
        <time>2022-12-15T12:27:14.646Z</time>
      </trkpt>
      <trkpt lat="47.62073" lon="-2.07754">
        <ele>52.157061</ele>
        <time>2022-12-15T12:27:16.595Z</time>
      </trkpt>
      <trkpt lat="47.62064" lon="-2.07756">
        <ele>52.100029</ele>
        <time>2022-12-15T12:27:18.596Z</time>
      </trkpt>
      <trkpt lat="47.62053" lon="-2.07758">
        <ele>52.038948</ele>
        <time>2022-12-15T12:27:20.580Z</time>
      </trkpt>
      <trkpt lat="47.62043" lon="-2.0776">
        <ele>51.975991</ele>
        <time>2022-12-15T12:27:22.595Z</time>
      </trkpt>
      <trkpt lat="47.62032" lon="-2.07764">
        <ele>51.911</ele>
        <time>2022-12-15T12:27:24.594Z</time>
      </trkpt>
      <trkpt lat="47.62022" lon="-2.07767">
        <ele>51.846837</ele>
        <time>2022-12-15T12:27:26.593Z</time>
      </trkpt>
      <trkpt lat="47.62012" lon="-2.0777">
        <ele>51.787139</ele>
        <time>2022-12-15T12:27:28.598Z</time>
      </trkpt>
      <trkpt lat="47.62003" lon="-2.07774">
        <ele>51.730804</ele>
        <time>2022-12-15T12:27:30.594Z</time>
      </trkpt>
      <trkpt lat="47.61994" lon="-2.07777">
        <ele>51.675616</ele>
        <time>2022-12-15T12:27:32.593Z</time>
      </trkpt>
      <trkpt lat="47.61985" lon="-2.07781">
        <ele>51.621551</ele>
        <time>2022-12-15T12:27:34.594Z</time>
      </trkpt>
      <trkpt lat="47.61972" lon="-2.07784">
        <ele>51.542519</ele>
        <time>2022-12-15T12:27:37.578Z</time>
      </trkpt>
      <trkpt lat="47.61958" lon="-2.07788">
        <ele>51.460149</ele>
        <time>2022-12-15T12:27:40.590Z</time>
      </trkpt>
      <trkpt lat="47.61949" lon="-2.07791">
        <ele>51.40274</ele>
        <time>2022-12-15T12:27:42.642Z</time>
      </trkpt>
      <trkpt lat="47.6194" lon="-2.07794">
        <ele>51.343476</ele>
        <time>2022-12-15T12:27:44.596Z</time>
      </trkpt>
      <trkpt lat="47.61926" lon="-2.07798">
        <ele>51.260072</ele>
        <time>2022-12-15T12:27:47.596Z</time>
      </trkpt>
      <trkpt lat="47.61916" lon="-2.07801">
        <ele>51.200541</ele>
        <time>2022-12-15T12:27:49.594Z</time>
      </trkpt>
      <trkpt lat="47.61906" lon="-2.07803">
        <ele>51.139964</ele>
        <time>2022-12-15T12:27:51.597Z</time>
      </trkpt>
      <trkpt lat="47.61896" lon="-2.07806">
        <ele>51.078502</ele>
        <time>2022-12-15T12:27:53.596Z</time>
      </trkpt>
      <trkpt lat="47.61883" lon="-2.07809">
        <ele>50.998126</ele>
        <time>2022-12-15T12:27:56.596Z</time>
      </trkpt>
      <trkpt lat="47.61874" lon="-2.07812">
        <ele>50.941126</ele>
        <time>2022-12-15T12:27:58.597Z</time>
      </trkpt>
      <trkpt lat="47.61861" lon="-2.07816">
        <ele>50.860195</ele>
        <time>2022-12-15T12:28:01.596Z</time>
      </trkpt>
      <trkpt lat="47.61847" lon="-2.0782">
        <ele>50.776483</ele>
        <time>2022-12-15T12:28:04.598Z</time>
      </trkpt>
      <trkpt lat="47.61838" lon="-2.07823">
        <ele>50.72073</ele>
        <time>2022-12-15T12:28:06.612Z</time>
      </trkpt>
      <trkpt lat="47.61829" lon="-2.07826">
        <ele>50.66373</ele>
        <time>2022-12-15T12:28:08.595Z</time>
      </trkpt>
      <trkpt lat="47.6182" lon="-2.0783">
        <ele>50.605855</ele>
        <time>2022-12-15T12:28:10.593Z</time>
      </trkpt>
      <trkpt lat="47.6181" lon="-2.07833">
        <ele>50.547267</ele>
        <time>2022-12-15T12:28:12.672Z</time>
      </trkpt>
      <trkpt lat="47.61801" lon="-2.07836">
        <ele>50.677352</ele>
        <time>2022-12-15T12:28:14.588Z</time>
      </trkpt>
      <trkpt lat="47.61792" lon="-2.07839">
        <ele>50.834479</ele>
        <time>2022-12-15T12:28:16.594Z</time>
      </trkpt>
      <trkpt lat="47.61782" lon="-2.07842">
        <ele>51.005379</ele>
        <time>2022-12-15T12:28:18.638Z</time>
      </trkpt>
      <trkpt lat="47.61772" lon="-2.07846">
        <ele>51.17301</ele>
        <time>2022-12-15T12:28:20.595Z</time>
      </trkpt>
      <trkpt lat="47.61763" lon="-2.07849">
        <ele>51.339178</ele>
        <time>2022-12-15T12:28:22.595Z</time>
      </trkpt>
      <trkpt lat="47.61753" lon="-2.07852">
        <ele>51.516017</ele>
        <time>2022-12-15T12:28:24.603Z</time>
      </trkpt>
      <trkpt lat="47.61742" lon="-2.07854">
        <ele>51.695189</ele>
        <time>2022-12-15T12:28:26.599Z</time>
      </trkpt>
      <trkpt lat="47.61728" lon="-2.07857">
        <ele>51.938509</ele>
        <time>2022-12-15T12:28:29.594Z</time>
      </trkpt>
      <trkpt lat="47.61718" lon="-2.07857">
        <ele>52.100267</ele>
        <time>2022-12-15T12:28:31.594Z</time>
      </trkpt>
      <trkpt lat="47.61707" lon="-2.07857">
        <ele>52.289092</ele>
        <time>2022-12-15T12:28:34.586Z</time>
      </trkpt>
      <trkpt lat="47.61697" lon="-2.07859">
        <ele>52.473673</ele>
        <time>2022-12-15T12:28:38.574Z</time>
      </trkpt>
      <trkpt lat="47.61687" lon="-2.07858">
        <ele>52.632034</ele>
        <time>2022-12-15T12:28:42.637Z</time>
      </trkpt>
      <trkpt lat="47.61677" lon="-2.07863">
        <ele>52.807543</ele>
        <time>2022-12-15T12:28:47.578Z</time>
      </trkpt>
      <trkpt lat="47.61666" lon="-2.0787">
        <ele>53.014392</ele>
        <time>2022-12-15T12:28:51.597Z</time>
      </trkpt>
      <trkpt lat="47.61656" lon="-2.07879">
        <ele>53.211688</ele>
        <time>2022-12-15T12:28:54.594Z</time>
      </trkpt>
      <trkpt lat="47.61647" lon="-2.07886">
        <ele>53.384282</ele>
        <time>2022-12-15T12:28:56.595Z</time>
      </trkpt>
      <trkpt lat="47.61639" lon="-2.07892">
        <ele>53.540284</ele>
        <time>2022-12-15T12:28:58.601Z</time>
      </trkpt>
      <trkpt lat="47.61629" lon="-2.07899">
        <ele>53.619277</ele>
        <time>2022-12-15T12:29:01.598Z</time>
      </trkpt>
      <trkpt lat="47.61617" lon="-2.07906">
        <ele>53.653852</ele>
        <time>2022-12-15T12:29:04.596Z</time>
      </trkpt>
      <trkpt lat="47.61606" lon="-2.07916">
        <ele>53.688538</ele>
        <time>2022-12-15T12:29:07.592Z</time>
      </trkpt>
      <trkpt lat="47.61595" lon="-2.07925">
        <ele>53.72341</ele>
        <time>2022-12-15T12:29:10.595Z</time>
      </trkpt>
      <trkpt lat="47.61587" lon="-2.07933">
        <ele>53.749339</ele>
        <time>2022-12-15T12:29:12.593Z</time>
      </trkpt>
      <trkpt lat="47.61579" lon="-2.07941">
        <ele>53.775131</ele>
        <time>2022-12-15T12:29:14.596Z</time>
      </trkpt>
      <trkpt lat="47.61571" lon="-2.07949">
        <ele>53.801686</ele>
        <time>2022-12-15T12:29:16.592Z</time>
      </trkpt>
      <trkpt lat="47.61564" lon="-2.07958">
        <ele>53.827811</ele>
        <time>2022-12-15T12:29:18.589Z</time>
      </trkpt>
      <trkpt lat="47.61556" lon="-2.07967">
        <ele>53.854587</ele>
        <time>2022-12-15T12:29:20.594Z</time>
      </trkpt>
      <trkpt lat="47.61548" lon="-2.07976">
        <ele>53.881804</ele>
        <time>2022-12-15T12:29:22.596Z</time>
      </trkpt>
      <trkpt lat="47.6154" lon="-2.07984">
        <ele>53.908808</ele>
        <time>2022-12-15T12:29:24.595Z</time>
      </trkpt>
      <trkpt lat="47.61532" lon="-2.07994">
        <ele>53.936595</ele>
        <time>2022-12-15T12:29:26.594Z</time>
      </trkpt>
      <trkpt lat="47.61525" lon="-2.08004">
        <ele>53.96387</ele>
        <time>2022-12-15T12:29:28.575Z</time>
      </trkpt>
      <trkpt lat="47.61518" lon="-2.08017">
        <ele>53.994333</ele>
        <time>2022-12-15T12:29:30.594Z</time>
      </trkpt>
      <trkpt lat="47.61511" lon="-2.08027">
        <ele>54.021536</ele>
        <time>2022-12-15T12:29:32.594Z</time>
      </trkpt>
      <trkpt lat="47.61502" lon="-2.08038">
        <ele>54.052496</ele>
        <time>2022-12-15T12:29:34.593Z</time>
      </trkpt>
      <trkpt lat="47.61495" lon="-2.0805">
        <ele>54.082613</ele>
        <time>2022-12-15T12:29:36.592Z</time>
      </trkpt>
      <trkpt lat="47.61488" lon="-2.08061">
        <ele>54.062644</ele>
        <time>2022-12-15T12:29:38.596Z</time>
      </trkpt>
      <trkpt lat="47.61478" lon="-2.08074">
        <ele>54.020025</ele>
        <time>2022-12-15T12:29:41.599Z</time>
      </trkpt>
      <trkpt lat="47.61472" lon="-2.08085">
        <ele>53.987587</ele>
        <time>2022-12-15T12:29:43.595Z</time>
      </trkpt>
      <trkpt lat="47.61464" lon="-2.08096">
        <ele>53.954445</ele>
        <time>2022-12-15T12:29:45.645Z</time>
      </trkpt>
      <trkpt lat="47.61458" lon="-2.08106">
        <ele>53.923258</ele>
        <time>2022-12-15T12:29:47.596Z</time>
      </trkpt>
      <trkpt lat="47.6145" lon="-2.08119">
        <ele>53.88446</ele>
        <time>2022-12-15T12:29:49.594Z</time>
      </trkpt>
      <trkpt lat="47.61442" lon="-2.08131">
        <ele>53.848374</ele>
        <time>2022-12-15T12:29:51.643Z</time>
      </trkpt>
      <trkpt lat="47.61433" lon="-2.08142">
        <ele>53.811911</ele>
        <time>2022-12-15T12:29:53.595Z</time>
      </trkpt>
      <trkpt lat="47.61425" lon="-2.08148">
        <ele>53.782476</ele>
        <time>2022-12-15T12:29:55.598Z</time>
      </trkpt>
      <trkpt lat="47.61418" lon="-2.08156">
        <ele>53.753034</ele>
        <time>2022-12-15T12:29:57.643Z</time>
      </trkpt>
      <trkpt lat="47.61408" lon="-2.08164">
        <ele>53.715336</ele>
        <time>2022-12-15T12:30:00.609Z</time>
      </trkpt>
      <trkpt lat="47.61398" lon="-2.08173">
        <ele>53.676731</ele>
        <time>2022-12-15T12:30:03.640Z</time>
      </trkpt>
      <trkpt lat="47.61386" lon="-2.08181">
        <ele>53.635436</ele>
        <time>2022-12-15T12:30:06.598Z</time>
      </trkpt>
      <trkpt lat="47.61375" lon="-2.0819">
        <ele>53.593634</ele>
        <time>2022-12-15T12:30:09.595Z</time>
      </trkpt>
      <trkpt lat="47.61367" lon="-2.08197">
        <ele>53.563532</ele>
        <time>2022-12-15T12:30:11.595Z</time>
      </trkpt>
      <trkpt lat="47.61357" lon="-2.08205">
        <ele>53.52652</ele>
        <time>2022-12-15T12:30:14.642Z</time>
      </trkpt>
      <trkpt lat="47.61348" lon="-2.08209">
        <ele>53.478997</ele>
        <time>2022-12-15T12:30:16.595Z</time>
      </trkpt>
      <trkpt lat="47.61335" lon="-2.08212">
        <ele>53.324988</ele>
        <time>2022-12-15T12:30:19.597Z</time>
      </trkpt>
      <trkpt lat="47.61323" lon="-2.08215">
        <ele>53.174839</ele>
        <time>2022-12-15T12:30:22.594Z</time>
      </trkpt>
      <trkpt lat="47.6131" lon="-2.08217">
        <ele>53.026583</ele>
        <time>2022-12-15T12:30:25.596Z</time>
      </trkpt>
      <trkpt lat="47.61301" lon="-2.08219">
        <ele>52.919936</ele>
        <time>2022-12-15T12:30:27.595Z</time>
      </trkpt>
      <trkpt lat="47.61288" lon="-2.08221">
        <ele>52.764652</ele>
        <time>2022-12-15T12:30:30.607Z</time>
      </trkpt>
      <trkpt lat="47.61276" lon="-2.08225">
        <ele>52.614756</ele>
        <time>2022-12-15T12:30:33.579Z</time>
      </trkpt>
      <trkpt lat="47.61265" lon="-2.0823">
        <ele>52.486157</ele>
        <time>2022-12-15T12:30:36.586Z</time>
      </trkpt>
      <trkpt lat="47.61253" lon="-2.08232">
        <ele>52.342181</ele>
        <time>2022-12-15T12:30:39.593Z</time>
      </trkpt>
      <trkpt lat="47.61241" lon="-2.08235">
        <ele>52.197345</ele>
        <time>2022-12-15T12:30:42.595Z</time>
      </trkpt>
      <trkpt lat="47.61228" lon="-2.08237">
        <ele>52.043233</ele>
        <time>2022-12-15T12:30:45.598Z</time>
      </trkpt>
      <trkpt lat="47.61215" lon="-2.08239">
        <ele>51.884434</ele>
        <time>2022-12-15T12:30:48.597Z</time>
      </trkpt>
      <trkpt lat="47.61206" lon="-2.08241">
        <ele>51.77624</ele>
        <time>2022-12-15T12:30:50.645Z</time>
      </trkpt>
      <trkpt lat="47.61192" lon="-2.08243">
        <ele>51.616269</ele>
        <time>2022-12-15T12:30:53.575Z</time>
      </trkpt>
      <trkpt lat="47.61183" lon="-2.08244">
        <ele>51.505839</ele>
        <time>2022-12-15T12:30:55.596Z</time>
      </trkpt>
      <trkpt lat="47.61173" lon="-2.08246">
        <ele>51.392971</ele>
        <time>2022-12-15T12:30:57.578Z</time>
      </trkpt>
      <trkpt lat="47.61164" lon="-2.08248">
        <ele>51.422515</ele>
        <time>2022-12-15T12:30:59.595Z</time>
      </trkpt>
      <trkpt lat="47.61154" lon="-2.08249">
        <ele>51.463562</ele>
        <time>2022-12-15T12:31:01.593Z</time>
      </trkpt>
      <trkpt lat="47.61144" lon="-2.08251">
        <ele>51.508137</ele>
        <time>2022-12-15T12:31:03.590Z</time>
      </trkpt>
      <trkpt lat="47.61134" lon="-2.08252">
        <ele>51.552335</ele>
        <time>2022-12-15T12:31:05.574Z</time>
      </trkpt>
      <trkpt lat="47.61125" lon="-2.08254">
        <ele>51.591983</ele>
        <time>2022-12-15T12:31:07.583Z</time>
      </trkpt>
      <trkpt lat="47.61112" lon="-2.08256">
        <ele>51.652884</ele>
        <time>2022-12-15T12:31:10.596Z</time>
      </trkpt>
      <trkpt lat="47.61102" lon="-2.08258">
        <ele>51.693588</ele>
        <time>2022-12-15T12:31:12.594Z</time>
      </trkpt>
      <trkpt lat="47.61093" lon="-2.0826">
        <ele>51.736622</ele>
        <time>2022-12-15T12:31:14.639Z</time>
      </trkpt>
      <trkpt lat="47.61079" lon="-2.08262">
        <ele>51.797581</ele>
        <time>2022-12-15T12:31:17.597Z</time>
      </trkpt>
      <trkpt lat="47.6107" lon="-2.08264">
        <ele>51.839445</ele>
        <time>2022-12-15T12:31:19.583Z</time>
      </trkpt>
      <trkpt lat="47.6106" lon="-2.08265">
        <ele>51.883069</ele>
        <time>2022-12-15T12:31:21.584Z</time>
      </trkpt>
      <trkpt lat="47.6105" lon="-2.08268">
        <ele>51.92658</ele>
        <time>2022-12-15T12:31:23.573Z</time>
      </trkpt>
      <trkpt lat="47.6104" lon="-2.08269">
        <ele>51.968503</ele>
        <time>2022-12-15T12:31:25.597Z</time>
      </trkpt>
      <trkpt lat="47.61031" lon="-2.08272">
        <ele>52.011007</ele>
        <time>2022-12-15T12:31:27.595Z</time>
      </trkpt>
      <trkpt lat="47.61018" lon="-2.08273">
        <ele>52.067479</ele>
        <time>2022-12-15T12:31:30.595Z</time>
      </trkpt>
      <trkpt lat="47.61009" lon="-2.08275">
        <ele>52.10909</ele>
        <time>2022-12-15T12:31:32.637Z</time>
      </trkpt>
      <trkpt lat="47.61" lon="-2.08277">
        <ele>52.148645</ele>
        <time>2022-12-15T12:31:34.588Z</time>
      </trkpt>
      <trkpt lat="47.6099" lon="-2.08279">
        <ele>52.184324</ele>
        <time>2022-12-15T12:31:36.577Z</time>
      </trkpt>
      <trkpt lat="47.6098" lon="-2.08281">
        <ele>52.209714</ele>
        <time>2022-12-15T12:31:38.650Z</time>
      </trkpt>
      <trkpt lat="47.6097" lon="-2.08284">
        <ele>52.235425</ele>
        <time>2022-12-15T12:31:40.597Z</time>
      </trkpt>
      <trkpt lat="47.6096" lon="-2.08286">
        <ele>52.260316</ele>
        <time>2022-12-15T12:31:42.595Z</time>
      </trkpt>
      <trkpt lat="47.60951" lon="-2.08287">
        <ele>52.283805</ele>
        <time>2022-12-15T12:31:44.634Z</time>
      </trkpt>
      <trkpt lat="47.60941" lon="-2.08289">
        <ele>52.308797</ele>
        <time>2022-12-15T12:31:46.599Z</time>
      </trkpt>
      <trkpt lat="47.60928" lon="-2.08292">
        <ele>52.341305</ele>
        <time>2022-12-15T12:31:49.599Z</time>
      </trkpt>
      <trkpt lat="47.60917" lon="-2.08294">
        <ele>52.36919</ele>
        <time>2022-12-15T12:31:52.594Z</time>
      </trkpt>
      <trkpt lat="47.60907" lon="-2.08296">
        <ele>52.394786</ele>
        <time>2022-12-15T12:31:55.616Z</time>
      </trkpt>
      <trkpt lat="47.60895" lon="-2.08299">
        <ele>52.424662</ele>
        <time>2022-12-15T12:31:59.596Z</time>
      </trkpt>
      <trkpt lat="47.60885" lon="-2.08299">
        <ele>52.451837</ele>
        <time>2022-12-15T12:32:03.577Z</time>
      </trkpt>
      <trkpt lat="47.60875" lon="-2.08294">
        <ele>52.47736</ele>
        <time>2022-12-15T12:32:06.596Z</time>
      </trkpt>
      <trkpt lat="47.60864" lon="-2.08291">
        <ele>52.505194</ele>
        <time>2022-12-15T12:32:10.583Z</time>
      </trkpt>
      <trkpt lat="47.60853" lon="-2.08294">
        <ele>52.532921</ele>
        <time>2022-12-15T12:32:13.641Z</time>
      </trkpt>
      <trkpt lat="47.60841" lon="-2.08297">
        <ele>52.563984</ele>
        <time>2022-12-15T12:32:16.595Z</time>
      </trkpt>
      <trkpt lat="47.60832" lon="-2.08299">
        <ele>52.587122</ele>
        <time>2022-12-15T12:32:18.595Z</time>
      </trkpt>
      <trkpt lat="47.60822" lon="-2.08301">
        <ele>52.612663</ele>
        <time>2022-12-15T12:32:20.599Z</time>
      </trkpt>
      <trkpt lat="47.60812" lon="-2.08303">
        <ele>52.532644</ele>
        <time>2022-12-15T12:32:22.596Z</time>
      </trkpt>
      <trkpt lat="47.60798" lon="-2.08303">
        <ele>52.217644</ele>
        <time>2022-12-15T12:32:25.643Z</time>
      </trkpt>
      <trkpt lat="47.60785" lon="-2.08305">
        <ele>51.917636</ele>
        <time>2022-12-15T12:32:28.582Z</time>
      </trkpt>
      <trkpt lat="47.60772" lon="-2.08306">
        <ele>51.62064</ele>
        <time>2022-12-15T12:32:31.598Z</time>
      </trkpt>
      <trkpt lat="47.60763" lon="-2.08307">
        <ele>51.411295</ele>
        <time>2022-12-15T12:32:33.596Z</time>
      </trkpt>
      <trkpt lat="47.6075" lon="-2.08309">
        <ele>51.112982</ele>
        <time>2022-12-15T12:32:36.597Z</time>
      </trkpt>
      <trkpt lat="47.60736" lon="-2.08311">
        <ele>50.810162</ele>
        <time>2022-12-15T12:32:39.594Z</time>
      </trkpt>
      <trkpt lat="47.60724" lon="-2.08313">
        <ele>50.527271</ele>
        <time>2022-12-15T12:32:42.598Z</time>
      </trkpt>
      <trkpt lat="47.60711" lon="-2.08315">
        <ele>50.225126</ele>
        <time>2022-12-15T12:32:45.595Z</time>
      </trkpt>
      <trkpt lat="47.60698" lon="-2.08317">
        <ele>49.938386</ele>
        <time>2022-12-15T12:32:48.595Z</time>
      </trkpt>
      <trkpt lat="47.60686" lon="-2.08318">
        <ele>49.672822</ele>
        <time>2022-12-15T12:32:51.594Z</time>
      </trkpt>
      <trkpt lat="47.60674" lon="-2.0832">
        <ele>49.390108</ele>
        <time>2022-12-15T12:32:54.584Z</time>
      </trkpt>
      <trkpt lat="47.60665" lon="-2.08322">
        <ele>49.18373</ele>
        <time>2022-12-15T12:32:56.581Z</time>
      </trkpt>
      <trkpt lat="47.60656" lon="-2.08325">
        <ele>48.968767</ele>
        <time>2022-12-15T12:32:58.638Z</time>
      </trkpt>
      <trkpt lat="47.60647" lon="-2.08327">
        <ele>48.76038</ele>
        <time>2022-12-15T12:33:00.601Z</time>
      </trkpt>
      <trkpt lat="47.60637" lon="-2.08328">
        <ele>48.55528</ele>
        <time>2022-12-15T12:33:02.594Z</time>
      </trkpt>
      <trkpt lat="47.60628" lon="-2.08329">
        <ele>48.710734</ele>
        <time>2022-12-15T12:33:04.631Z</time>
      </trkpt>
      <trkpt lat="47.60619" lon="-2.0833">
        <ele>48.863189</ele>
        <time>2022-12-15T12:33:06.598Z</time>
      </trkpt>
      <trkpt lat="47.60609" lon="-2.08331">
        <ele>49.020249</ele>
        <time>2022-12-15T12:33:08.598Z</time>
      </trkpt>
      <trkpt lat="47.60597" lon="-2.08334">
        <ele>49.235216</ele>
        <time>2022-12-15T12:33:11.582Z</time>
      </trkpt>
      <trkpt lat="47.60585" lon="-2.08337">
        <ele>49.434632</ele>
        <time>2022-12-15T12:33:14.603Z</time>
      </trkpt>
      <trkpt lat="47.60573" lon="-2.08339">
        <ele>49.632956</ele>
        <time>2022-12-15T12:33:17.597Z</time>
      </trkpt>
      <trkpt lat="47.6056" lon="-2.08343">
        <ele>49.859416</ele>
        <time>2022-12-15T12:33:20.596Z</time>
      </trkpt>
      <trkpt lat="47.60549" lon="-2.08347">
        <ele>50.038427</ele>
        <time>2022-12-15T12:33:22.593Z</time>
      </trkpt>
      <trkpt lat="47.6054" lon="-2.08348">
        <ele>50.197213</ele>
        <time>2022-12-15T12:33:24.599Z</time>
      </trkpt>
      <trkpt lat="47.6053" lon="-2.08349">
        <ele>50.362142</ele>
        <time>2022-12-15T12:33:26.594Z</time>
      </trkpt>
      <trkpt lat="47.60517" lon="-2.08351">
        <ele>50.576321</ele>
        <time>2022-12-15T12:33:29.595Z</time>
      </trkpt>
      <trkpt lat="47.60508" lon="-2.08352">
        <ele>50.733671</ele>
        <time>2022-12-15T12:33:31.594Z</time>
      </trkpt>
      <trkpt lat="47.60494" lon="-2.08354">
        <ele>50.967326</ele>
        <time>2022-12-15T12:33:34.587Z</time>
      </trkpt>
      <trkpt lat="47.60484" lon="-2.08357">
        <ele>51.130174</ele>
        <time>2022-12-15T12:33:36.588Z</time>
      </trkpt>
      <trkpt lat="47.60475" lon="-2.08358">
        <ele>51.287524</ele>
        <time>2022-12-15T12:33:38.596Z</time>
      </trkpt>
      <trkpt lat="47.60462" lon="-2.08359">
        <ele>51.502936</ele>
        <time>2022-12-15T12:33:41.598Z</time>
      </trkpt>
      <trkpt lat="47.6045" lon="-2.08363">
        <ele>51.729972</ele>
        <time>2022-12-15T12:33:44.631Z</time>
      </trkpt>
      <trkpt lat="47.60439" lon="-2.08366">
        <ele>51.958113</ele>
        <time>2022-12-15T12:33:47.596Z</time>
      </trkpt>
      <trkpt lat="47.60427" lon="-2.0837">
        <ele>52.196051</ele>
        <time>2022-12-15T12:33:50.584Z</time>
      </trkpt>
      <trkpt lat="47.60418" lon="-2.08374">
        <ele>52.376238</ele>
        <time>2022-12-15T12:33:52.594Z</time>
      </trkpt>
      <trkpt lat="47.60409" lon="-2.08377">
        <ele>52.558659</ele>
        <time>2022-12-15T12:33:54.579Z</time>
      </trkpt>
      <trkpt lat="47.604" lon="-2.08382">
        <ele>52.737493</ele>
        <time>2022-12-15T12:33:56.595Z</time>
      </trkpt>
      <trkpt lat="47.60388" lon="-2.08389">
        <ele>52.999835</ele>
        <time>2022-12-15T12:33:59.596Z</time>
      </trkpt>
      <trkpt lat="47.60376" lon="-2.08397">
        <ele>53.257048</ele>
        <time>2022-12-15T12:34:02.595Z</time>
      </trkpt>
      <trkpt lat="47.60365" lon="-2.08405">
        <ele>53.489733</ele>
        <time>2022-12-15T12:34:05.597Z</time>
      </trkpt>
      <trkpt lat="47.60355" lon="-2.08411">
        <ele>53.692735</ele>
        <time>2022-12-15T12:34:07.582Z</time>
      </trkpt>
      <trkpt lat="47.60347" lon="-2.08417">
        <ele>53.878203</ele>
        <time>2022-12-15T12:34:09.595Z</time>
      </trkpt>
      <trkpt lat="47.60339" lon="-2.08424">
        <ele>54.060595</ele>
        <time>2022-12-15T12:34:11.585Z</time>
      </trkpt>
      <trkpt lat="47.60328" lon="-2.08433">
        <ele>54.295203</ele>
        <time>2022-12-15T12:34:14.597Z</time>
      </trkpt>
      <trkpt lat="47.60317" lon="-2.08441">
        <ele>54.535378</ele>
        <time>2022-12-15T12:34:17.604Z</time>
      </trkpt>
      <trkpt lat="47.60306" lon="-2.0845">
        <ele>54.771719</ele>
        <time>2022-12-15T12:34:20.596Z</time>
      </trkpt>
      <trkpt lat="47.60296" lon="-2.08459">
        <ele>55.006052</ele>
        <time>2022-12-15T12:34:23.578Z</time>
      </trkpt>
      <trkpt lat="47.60286" lon="-2.08471">
        <ele>54.972568</ele>
        <time>2022-12-15T12:34:26.575Z</time>
      </trkpt>
      <trkpt lat="47.60276" lon="-2.08482">
        <ele>54.872751</ele>
        <time>2022-12-15T12:34:29.595Z</time>
      </trkpt>
      <trkpt lat="47.60269" lon="-2.0849">
        <ele>54.798608</ele>
        <time>2022-12-15T12:34:31.597Z</time>
      </trkpt>
      <trkpt lat="47.60261" lon="-2.08499">
        <ele>54.723431</ele>
        <time>2022-12-15T12:34:33.582Z</time>
      </trkpt>
      <trkpt lat="47.60255" lon="-2.08508">
        <ele>54.651192</ele>
        <time>2022-12-15T12:34:35.585Z</time>
      </trkpt>
      <trkpt lat="47.60245" lon="-2.08521">
        <ele>54.54621</ele>
        <time>2022-12-15T12:34:38.594Z</time>
      </trkpt>
      <trkpt lat="47.60237" lon="-2.08533">
        <ele>54.451851</ele>
        <time>2022-12-15T12:34:41.596Z</time>
      </trkpt>
      <trkpt lat="47.60229" lon="-2.08545">
        <ele>54.363352</ele>
        <time>2022-12-15T12:34:44.598Z</time>
      </trkpt>
      <trkpt lat="47.60221" lon="-2.08557">
        <ele>54.27071</ele>
        <time>2022-12-15T12:34:47.600Z</time>
      </trkpt>
      <trkpt lat="47.60212" lon="-2.0857">
        <ele>54.174632</ele>
        <time>2022-12-15T12:34:50.599Z</time>
      </trkpt>
      <trkpt lat="47.60203" lon="-2.08583">
        <ele>54.071206</ele>
        <time>2022-12-15T12:34:53.580Z</time>
      </trkpt>
      <trkpt lat="47.60194" lon="-2.08597">
        <ele>53.970239</ele>
        <time>2022-12-15T12:34:56.597Z</time>
      </trkpt>
      <trkpt lat="47.60186" lon="-2.0861">
        <ele>53.873607</ele>
        <time>2022-12-15T12:34:59.599Z</time>
      </trkpt>
      <trkpt lat="47.60178" lon="-2.0862">
        <ele>53.788236</ele>
        <time>2022-12-15T12:35:02.595Z</time>
      </trkpt>
      <trkpt lat="47.60168" lon="-2.08634">
        <ele>53.677991</ele>
        <time>2022-12-15T12:35:05.575Z</time>
      </trkpt>
      <trkpt lat="47.60161" lon="-2.08645">
        <ele>53.598459</ele>
        <time>2022-12-15T12:35:07.595Z</time>
      </trkpt>
      <trkpt lat="47.60155" lon="-2.08655">
        <ele>53.52258</ele>
        <time>2022-12-15T12:35:09.595Z</time>
      </trkpt>
      <trkpt lat="47.60145" lon="-2.08668">
        <ele>53.420842</ele>
        <time>2022-12-15T12:35:12.642Z</time>
      </trkpt>
      <trkpt lat="47.60139" lon="-2.08679">
        <ele>53.343777</ele>
        <time>2022-12-15T12:35:14.597Z</time>
      </trkpt>
      <trkpt lat="47.60132" lon="-2.08691">
        <ele>53.260484</ele>
        <time>2022-12-15T12:35:16.595Z</time>
      </trkpt>
      <trkpt lat="47.60126" lon="-2.08701">
        <ele>53.182728</ele>
        <time>2022-12-15T12:35:18.596Z</time>
      </trkpt>
      <trkpt lat="47.60119" lon="-2.08712">
        <ele>53.105577</ele>
        <time>2022-12-15T12:35:20.597Z</time>
      </trkpt>
      <trkpt lat="47.60112" lon="-2.08722">
        <ele>53.028367</ele>
        <time>2022-12-15T12:35:22.596Z</time>
      </trkpt>
      <trkpt lat="47.60106" lon="-2.08733">
        <ele>52.949969</ele>
        <time>2022-12-15T12:35:24.608Z</time>
      </trkpt>
      <trkpt lat="47.60099" lon="-2.08742">
        <ele>52.876182</ele>
        <time>2022-12-15T12:35:26.606Z</time>
      </trkpt>
      <trkpt lat="47.60092" lon="-2.08753">
        <ele>52.796309</ele>
        <time>2022-12-15T12:35:28.600Z</time>
      </trkpt>
      <trkpt lat="47.60086" lon="-2.08763">
        <ele>52.722843</ele>
        <time>2022-12-15T12:35:30.596Z</time>
      </trkpt>
      <trkpt lat="47.60079" lon="-2.08774">
        <ele>52.641154</ele>
        <time>2022-12-15T12:35:32.604Z</time>
      </trkpt>
      <trkpt lat="47.60072" lon="-2.08785">
        <ele>52.559553</ele>
        <time>2022-12-15T12:35:34.650Z</time>
      </trkpt>
      <trkpt lat="47.60065" lon="-2.08796">
        <ele>52.477481</ele>
        <time>2022-12-15T12:35:36.589Z</time>
      </trkpt>
      <trkpt lat="47.60058" lon="-2.08807">
        <ele>52.394945</ele>
        <time>2022-12-15T12:35:38.600Z</time>
      </trkpt>
      <trkpt lat="47.60051" lon="-2.08817">
        <ele>52.320929</ele>
        <time>2022-12-15T12:35:40.647Z</time>
      </trkpt>
      <trkpt lat="47.60042" lon="-2.0883">
        <ele>52.217491</ele>
        <time>2022-12-15T12:35:43.598Z</time>
      </trkpt>
      <trkpt lat="47.60033" lon="-2.08844">
        <ele>52.239332</ele>
        <time>2022-12-15T12:35:46.641Z</time>
      </trkpt>
      <trkpt lat="47.60024" lon="-2.08858">
        <ele>52.326581</ele>
        <time>2022-12-15T12:35:49.596Z</time>
      </trkpt>
      <trkpt lat="47.60014" lon="-2.08872">
        <ele>52.418693</ele>
        <time>2022-12-15T12:35:52.595Z</time>
      </trkpt>
      <trkpt lat="47.60006" lon="-2.08887">
        <ele>52.509129</ele>
        <time>2022-12-15T12:35:55.595Z</time>
      </trkpt>
      <trkpt lat="47.6" lon="-2.08898">
        <ele>52.571099</ele>
        <time>2022-12-15T12:35:57.666Z</time>
      </trkpt>
      <trkpt lat="47.59995" lon="-2.0891">
        <ele>52.638646</ele>
        <time>2022-12-15T12:35:59.595Z</time>
      </trkpt>
      <trkpt lat="47.59989" lon="-2.08922">
        <ele>52.708904</ele>
        <time>2022-12-15T12:36:01.595Z</time>
      </trkpt>
      <trkpt lat="47.59985" lon="-2.08935">
        <ele>52.776236</ele>
        <time>2022-12-15T12:36:03.606Z</time>
      </trkpt>
      <trkpt lat="47.59981" lon="-2.0895">
        <ele>52.849984</ele>
        <time>2022-12-15T12:36:05.609Z</time>
      </trkpt>
      <trkpt lat="47.59976" lon="-2.08964">
        <ele>52.920644</ele>
        <time>2022-12-15T12:36:07.595Z</time>
      </trkpt>
      <trkpt lat="47.59972" lon="-2.08978">
        <ele>52.992655</ele>
        <time>2022-12-15T12:36:09.643Z</time>
      </trkpt>
      <trkpt lat="47.59968" lon="-2.08991">
        <ele>53.056411</ele>
        <time>2022-12-15T12:36:11.595Z</time>
      </trkpt>
      <trkpt lat="47.59963" lon="-2.09005">
        <ele>53.130268</ele>
        <time>2022-12-15T12:36:13.595Z</time>
      </trkpt>
      <trkpt lat="47.59957" lon="-2.09016">
        <ele>53.198578</ele>
        <time>2022-12-15T12:36:15.645Z</time>
      </trkpt>
      <trkpt lat="47.59949" lon="-2.09025">
        <ele>53.267043</ele>
        <time>2022-12-15T12:36:17.595Z</time>
      </trkpt>
      <trkpt lat="47.59941" lon="-2.09033">
        <ele>53.330113</ele>
        <time>2022-12-15T12:36:19.606Z</time>
      </trkpt>
      <trkpt lat="47.59931" lon="-2.09042">
        <ele>53.410562</ele>
        <time>2022-12-15T12:36:22.594Z</time>
      </trkpt>
      <trkpt lat="47.59923" lon="-2.09048">
        <ele>53.388503</ele>
        <time>2022-12-15T12:36:26.597Z</time>
      </trkpt>
      <trkpt lat="47.59912" lon="-2.09055">
        <ele>53.352697</ele>
        <time>2022-12-15T12:36:30.597Z</time>
      </trkpt>
      <trkpt lat="47.59902" lon="-2.09059">
        <ele>53.320008</ele>
        <time>2022-12-15T12:36:32.602Z</time>
      </trkpt>
      <trkpt lat="47.59893" lon="-2.09064">
        <ele>53.287979</ele>
        <time>2022-12-15T12:36:34.583Z</time>
      </trkpt>
      <trkpt lat="47.59883" lon="-2.09067">
        <ele>53.255945</ele>
        <time>2022-12-15T12:36:36.589Z</time>
      </trkpt>
      <trkpt lat="47.59874" lon="-2.09069">
        <ele>53.22742</ele>
        <time>2022-12-15T12:36:38.597Z</time>
      </trkpt>
      <trkpt lat="47.59861" lon="-2.09071">
        <ele>53.187043</ele>
        <time>2022-12-15T12:36:41.600Z</time>
      </trkpt>
      <trkpt lat="47.59849" lon="-2.09072">
        <ele>53.146856</ele>
        <time>2022-12-15T12:36:44.597Z</time>
      </trkpt>
      <trkpt lat="47.5984" lon="-2.09072">
        <ele>53.118086</ele>
        <time>2022-12-15T12:36:46.596Z</time>
      </trkpt>
      <trkpt lat="47.5983" lon="-2.09072">
        <ele>53.087419</ele>
        <time>2022-12-15T12:36:48.596Z</time>
      </trkpt>
      <trkpt lat="47.5982" lon="-2.0907">
        <ele>53.057167</ele>
        <time>2022-12-15T12:36:50.584Z</time>
      </trkpt>
      <trkpt lat="47.59811" lon="-2.09068">
        <ele>53.027286</ele>
        <time>2022-12-15T12:36:52.596Z</time>
      </trkpt>
      <trkpt lat="47.59802" lon="-2.09065">
        <ele>52.997326</ele>
        <time>2022-12-15T12:36:54.596Z</time>
      </trkpt>
      <trkpt lat="47.59793" lon="-2.09061">
        <ele>52.967495</ele>
        <time>2022-12-15T12:36:56.598Z</time>
      </trkpt>
      <trkpt lat="47.5978" lon="-2.09055">
        <ele>52.92495</ele>
        <time>2022-12-15T12:36:59.598Z</time>
      </trkpt>
      <trkpt lat="47.59771" lon="-2.09049">
        <ele>52.894256</ele>
        <time>2022-12-15T12:37:01.642Z</time>
      </trkpt>
      <trkpt lat="47.59763" lon="-2.09044">
        <ele>52.865226</ele>
        <time>2022-12-15T12:37:03.579Z</time>
      </trkpt>
      <trkpt lat="47.59754" lon="-2.09039">
        <ele>52.791104</ele>
        <time>2022-12-15T12:37:05.595Z</time>
      </trkpt>
      <trkpt lat="47.59745" lon="-2.09033">
        <ele>52.658856</ele>
        <time>2022-12-15T12:37:07.663Z</time>
      </trkpt>
      <trkpt lat="47.59736" lon="-2.09026">
        <ele>52.514645</ele>
        <time>2022-12-15T12:37:09.600Z</time>
      </trkpt>
      <trkpt lat="47.59724" lon="-2.09017">
        <ele>52.317664</ele>
        <time>2022-12-15T12:37:12.612Z</time>
      </trkpt>
      <trkpt lat="47.59712" lon="-2.0901">
        <ele>52.130838</ele>
        <time>2022-12-15T12:37:15.579Z</time>
      </trkpt>
      <trkpt lat="47.59704" lon="-2.09004">
        <ele>51.99566</ele>
        <time>2022-12-15T12:37:17.595Z</time>
      </trkpt>
      <trkpt lat="47.59695" lon="-2.08997">
        <ele>51.861327</ele>
        <time>2022-12-15T12:37:19.644Z</time>
      </trkpt>
      <trkpt lat="47.59687" lon="-2.08991">
        <ele>51.724439</ele>
        <time>2022-12-15T12:37:21.604Z</time>
      </trkpt>
      <trkpt lat="47.59678" lon="-2.08985">
        <ele>51.584451</ele>
        <time>2022-12-15T12:37:23.579Z</time>
      </trkpt>
      <trkpt lat="47.59669" lon="-2.08979">
        <ele>51.449716</ele>
        <time>2022-12-15T12:37:25.649Z</time>
      </trkpt>
      <trkpt lat="47.59661" lon="-2.08974">
        <ele>51.316082</ele>
        <time>2022-12-15T12:37:27.600Z</time>
      </trkpt>
      <trkpt lat="47.59652" lon="-2.08968">
        <ele>51.174883</ele>
        <time>2022-12-15T12:37:29.596Z</time>
      </trkpt>
      <trkpt lat="47.59643" lon="-2.08962">
        <ele>51.040189</ele>
        <time>2022-12-15T12:37:31.585Z</time>
      </trkpt>
      <trkpt lat="47.59635" lon="-2.08957">
        <ele>50.905316</ele>
        <time>2022-12-15T12:37:33.582Z</time>
      </trkpt>
      <trkpt lat="47.59625" lon="-2.08951">
        <ele>50.760207</ele>
        <time>2022-12-15T12:37:35.592Z</time>
      </trkpt>
      <trkpt lat="47.59617" lon="-2.08945">
        <ele>50.624018</ele>
        <time>2022-12-15T12:37:37.584Z</time>
      </trkpt>
      <trkpt lat="47.59608" lon="-2.08939">
        <ele>50.490552</ele>
        <time>2022-12-15T12:37:39.601Z</time>
      </trkpt>
      <trkpt lat="47.596" lon="-2.08934">
        <ele>50.357383</ele>
        <time>2022-12-15T12:37:41.597Z</time>
      </trkpt>
      <trkpt lat="47.59591" lon="-2.08927">
        <ele>50.272512</ele>
        <time>2022-12-15T12:37:43.584Z</time>
      </trkpt>
      <trkpt lat="47.59583" lon="-2.08922">
        <ele>50.297047</ele>
        <time>2022-12-15T12:37:45.596Z</time>
      </trkpt>
      <trkpt lat="47.59574" lon="-2.08916">
        <ele>50.321724</ele>
        <time>2022-12-15T12:37:47.608Z</time>
      </trkpt>
      <trkpt lat="47.59566" lon="-2.0891">
        <ele>50.346135</ele>
        <time>2022-12-15T12:37:49.588Z</time>
      </trkpt>
      <trkpt lat="47.59554" lon="-2.08902">
        <ele>50.382189</ele>
        <time>2022-12-15T12:37:52.596Z</time>
      </trkpt>
      <trkpt lat="47.59542" lon="-2.08894">
        <ele>50.416955</ele>
        <time>2022-12-15T12:37:55.587Z</time>
      </trkpt>
      <trkpt lat="47.5953" lon="-2.08886">
        <ele>50.450909</ele>
        <time>2022-12-15T12:37:58.599Z</time>
      </trkpt>
      <trkpt lat="47.59519" lon="-2.08877">
        <ele>50.485499</ele>
        <time>2022-12-15T12:38:01.607Z</time>
      </trkpt>
      <trkpt lat="47.59507" lon="-2.0887">
        <ele>50.520572</ele>
        <time>2022-12-15T12:38:04.608Z</time>
      </trkpt>
      <trkpt lat="47.59495" lon="-2.08862">
        <ele>50.554855</ele>
        <time>2022-12-15T12:38:07.603Z</time>
      </trkpt>
      <trkpt lat="47.59483" lon="-2.08854">
        <ele>50.58919</ele>
        <time>2022-12-15T12:38:10.599Z</time>
      </trkpt>
      <trkpt lat="47.59471" lon="-2.08846">
        <ele>50.624183</ele>
        <time>2022-12-15T12:38:13.582Z</time>
      </trkpt>
      <trkpt lat="47.5946" lon="-2.08838">
        <ele>50.656149</ele>
        <time>2022-12-15T12:38:16.598Z</time>
      </trkpt>
      <trkpt lat="47.59448" lon="-2.0883">
        <ele>50.691645</ele>
        <time>2022-12-15T12:38:19.600Z</time>
      </trkpt>
      <trkpt lat="47.59436" lon="-2.08822">
        <ele>50.726728</ele>
        <time>2022-12-15T12:38:22.596Z</time>
      </trkpt>
      <trkpt lat="47.59425" lon="-2.08814">
        <ele>50.719683</ele>
        <time>2022-12-15T12:38:25.597Z</time>
      </trkpt>
      <trkpt lat="47.59413" lon="-2.08806">
        <ele>50.674657</ele>
        <time>2022-12-15T12:38:28.598Z</time>
      </trkpt>
      <trkpt lat="47.59401" lon="-2.08798">
        <ele>50.628506</ele>
        <time>2022-12-15T12:38:31.608Z</time>
      </trkpt>
      <trkpt lat="47.59391" lon="-2.08791">
        <ele>50.589543</ele>
        <time>2022-12-15T12:38:34.597Z</time>
      </trkpt>
      <trkpt lat="47.59382" lon="-2.08786">
        <ele>50.554357</ele>
        <time>2022-12-15T12:38:37.595Z</time>
      </trkpt>
      <trkpt lat="47.59373" lon="-2.08778">
        <ele>50.516877</ele>
        <time>2022-12-15T12:38:40.596Z</time>
      </trkpt>
      <trkpt lat="47.59363" lon="-2.08772">
        <ele>50.478783</ele>
        <time>2022-12-15T12:38:43.583Z</time>
      </trkpt>
      <trkpt lat="47.59353" lon="-2.08766">
        <ele>50.438817</ele>
        <time>2022-12-15T12:38:46.673Z</time>
      </trkpt>
      <trkpt lat="47.59342" lon="-2.08759">
        <ele>50.396085</ele>
        <time>2022-12-15T12:38:49.597Z</time>
      </trkpt>
      <trkpt lat="47.59331" lon="-2.08751">
        <ele>50.354464</ele>
        <time>2022-12-15T12:38:52.642Z</time>
      </trkpt>
      <trkpt lat="47.59321" lon="-2.08744">
        <ele>50.312577</ele>
        <time>2022-12-15T12:38:55.606Z</time>
      </trkpt>
      <trkpt lat="47.5931" lon="-2.08737">
        <ele>50.270363</ele>
        <time>2022-12-15T12:38:58.594Z</time>
      </trkpt>
      <trkpt lat="47.593" lon="-2.0873">
        <ele>50.232773</ele>
        <time>2022-12-15T12:39:01.601Z</time>
      </trkpt>
      <trkpt lat="47.59291" lon="-2.08724">
        <ele>50.198373</ele>
        <time>2022-12-15T12:39:04.609Z</time>
      </trkpt>
      <trkpt lat="47.59281" lon="-2.08718">
        <ele>50.156674</ele>
        <time>2022-12-15T12:39:07.594Z</time>
      </trkpt>
      <trkpt lat="47.5927" lon="-2.08711">
        <ele>50.116641</ele>
        <time>2022-12-15T12:39:10.599Z</time>
      </trkpt>
      <trkpt lat="47.5926" lon="-2.08702">
        <ele>50.154116</ele>
        <time>2022-12-15T12:39:13.595Z</time>
      </trkpt>
      <trkpt lat="47.59248" lon="-2.08694">
        <ele>50.232865</ele>
        <time>2022-12-15T12:39:16.592Z</time>
      </trkpt>
      <trkpt lat="47.59237" lon="-2.08687">
        <ele>50.311464</ele>
        <time>2022-12-15T12:39:19.597Z</time>
      </trkpt>
      <trkpt lat="47.59226" lon="-2.08679">
        <ele>50.391045</ele>
        <time>2022-12-15T12:39:22.607Z</time>
      </trkpt>
      <trkpt lat="47.59214" lon="-2.08671">
        <ele>50.471553</ele>
        <time>2022-12-15T12:39:25.595Z</time>
      </trkpt>
      <trkpt lat="47.59203" lon="-2.08664">
        <ele>50.551134</ele>
        <time>2022-12-15T12:39:28.599Z</time>
      </trkpt>
      <trkpt lat="47.59192" lon="-2.08657">
        <ele>50.62406</ele>
        <time>2022-12-15T12:39:31.594Z</time>
      </trkpt>
      <trkpt lat="47.59184" lon="-2.08651">
        <ele>50.683883</ele>
        <time>2022-12-15T12:39:34.596Z</time>
      </trkpt>
      <trkpt lat="47.59174" lon="-2.08645">
        <ele>50.749962</ele>
        <time>2022-12-15T12:39:37.594Z</time>
      </trkpt>
      <trkpt lat="47.59163" lon="-2.08638">
        <ele>50.822667</ele>
        <time>2022-12-15T12:39:40.599Z</time>
      </trkpt>
      <trkpt lat="47.59152" lon="-2.08632">
        <ele>50.898109</ele>
        <time>2022-12-15T12:39:43.587Z</time>
      </trkpt>
      <trkpt lat="47.59141" lon="-2.08624">
        <ele>50.977286</ele>
        <time>2022-12-15T12:39:46.584Z</time>
      </trkpt>
      <trkpt lat="47.59129" lon="-2.08616">
        <ele>51.057215</ele>
        <time>2022-12-15T12:39:49.596Z</time>
      </trkpt>
      <trkpt lat="47.59118" lon="-2.08609">
        <ele>51.13871</ele>
        <time>2022-12-15T12:39:52.596Z</time>
      </trkpt>
      <trkpt lat="47.59106" lon="-2.08601">
        <ele>51.216911</ele>
        <time>2022-12-15T12:39:55.598Z</time>
      </trkpt>
      <trkpt lat="47.59096" lon="-2.08594">
        <ele>51.097055</ele>
        <time>2022-12-15T12:39:58.606Z</time>
      </trkpt>
      <trkpt lat="47.59086" lon="-2.08586">
        <ele>50.873312</ele>
        <time>2022-12-15T12:40:01.599Z</time>
      </trkpt>
      <trkpt lat="47.59075" lon="-2.08579">
        <ele>50.631538</ele>
        <time>2022-12-15T12:40:04.596Z</time>
      </trkpt>
      <trkpt lat="47.59063" lon="-2.08571">
        <ele>50.384092</ele>
        <time>2022-12-15T12:40:07.596Z</time>
      </trkpt>
      <trkpt lat="47.59051" lon="-2.08563">
        <ele>50.130612</ele>
        <time>2022-12-15T12:40:10.607Z</time>
      </trkpt>
      <trkpt lat="47.59039" lon="-2.08555">
        <ele>49.877777</ele>
        <time>2022-12-15T12:40:13.598Z</time>
      </trkpt>
      <trkpt lat="47.59028" lon="-2.08547">
        <ele>49.627707</ele>
        <time>2022-12-15T12:40:16.597Z</time>
      </trkpt>
      <trkpt lat="47.59017" lon="-2.08539">
        <ele>49.397609</ele>
        <time>2022-12-15T12:40:19.597Z</time>
      </trkpt>
      <trkpt lat="47.59006" lon="-2.08532">
        <ele>49.162808</ele>
        <time>2022-12-15T12:40:22.595Z</time>
      </trkpt>
      <trkpt lat="47.58995" lon="-2.08524">
        <ele>48.919313</ele>
        <time>2022-12-15T12:40:25.598Z</time>
      </trkpt>
      <trkpt lat="47.58984" lon="-2.08516">
        <ele>48.682745</ele>
        <time>2022-12-15T12:40:28.597Z</time>
      </trkpt>
      <trkpt lat="47.58972" lon="-2.08507">
        <ele>48.422929</ele>
        <time>2022-12-15T12:40:31.596Z</time>
      </trkpt>
      <trkpt lat="47.58961" lon="-2.08499">
        <ele>48.173026</ele>
        <time>2022-12-15T12:40:34.606Z</time>
      </trkpt>
      <trkpt lat="47.5895" lon="-2.08492">
        <ele>47.953237</ele>
        <time>2022-12-15T12:40:37.595Z</time>
      </trkpt>
      <trkpt lat="47.5894" lon="-2.08485">
        <ele>47.735935</ele>
        <time>2022-12-15T12:40:40.587Z</time>
      </trkpt>
      <trkpt lat="47.58929" lon="-2.08477">
        <ele>47.778925</ele>
        <time>2022-12-15T12:40:43.599Z</time>
      </trkpt>
      <trkpt lat="47.58917" lon="-2.08469">
        <ele>47.823208</ele>
        <time>2022-12-15T12:40:46.591Z</time>
      </trkpt>
      <trkpt lat="47.58905" lon="-2.08461">
        <ele>47.868208</ele>
        <time>2022-12-15T12:40:49.600Z</time>
      </trkpt>
      <trkpt lat="47.58893" lon="-2.08453">
        <ele>47.913265</ele>
        <time>2022-12-15T12:40:52.586Z</time>
      </trkpt>
      <trkpt lat="47.58882" lon="-2.08445">
        <ele>47.95582</ele>
        <time>2022-12-15T12:40:55.597Z</time>
      </trkpt>
      <trkpt lat="47.5887" lon="-2.08436">
        <ele>48.000316</ele>
        <time>2022-12-15T12:40:58.598Z</time>
      </trkpt>
      <trkpt lat="47.58859" lon="-2.08428">
        <ele>48.043982</ele>
        <time>2022-12-15T12:41:01.596Z</time>
      </trkpt>
      <trkpt lat="47.58849" lon="-2.08421">
        <ele>48.081844</ele>
        <time>2022-12-15T12:41:04.596Z</time>
      </trkpt>
      <trkpt lat="47.58838" lon="-2.08415">
        <ele>48.119706</ele>
        <time>2022-12-15T12:41:07.598Z</time>
      </trkpt>
      <trkpt lat="47.58828" lon="-2.08407">
        <ele>48.158462</ele>
        <time>2022-12-15T12:41:10.608Z</time>
      </trkpt>
      <trkpt lat="47.58817" lon="-2.084">
        <ele>48.199369</ele>
        <time>2022-12-15T12:41:13.596Z</time>
      </trkpt>
      <trkpt lat="47.58806" lon="-2.08391">
        <ele>48.242013</ele>
        <time>2022-12-15T12:41:16.600Z</time>
      </trkpt>
      <trkpt lat="47.58795" lon="-2.08383">
        <ele>48.286087</ele>
        <time>2022-12-15T12:41:19.611Z</time>
      </trkpt>
      <trkpt lat="47.58784" lon="-2.08376">
        <ele>48.32814</ele>
        <time>2022-12-15T12:41:22.585Z</time>
      </trkpt>
      <trkpt lat="47.58773" lon="-2.08368">
        <ele>48.373056</ele>
        <time>2022-12-15T12:41:25.609Z</time>
      </trkpt>
      <trkpt lat="47.58763" lon="-2.08362">
        <ele>48.417453</ele>
        <time>2022-12-15T12:41:28.589Z</time>
      </trkpt>
      <trkpt lat="47.58754" lon="-2.08356">
        <ele>48.458317</ele>
        <time>2022-12-15T12:41:31.584Z</time>
      </trkpt>
      <trkpt lat="47.58746" lon="-2.0835">
        <ele>48.498111</ele>
        <time>2022-12-15T12:41:34.585Z</time>
      </trkpt>
      <trkpt lat="47.58737" lon="-2.08344">
        <ele>48.538987</ele>
        <time>2022-12-15T12:41:37.593Z</time>
      </trkpt>
      <trkpt lat="47.58728" lon="-2.08338">
        <ele>48.579778</ele>
        <time>2022-12-15T12:41:40.612Z</time>
      </trkpt>
      <trkpt lat="47.58719" lon="-2.08332">
        <ele>48.622156</ele>
        <time>2022-12-15T12:41:43.601Z</time>
      </trkpt>
      <trkpt lat="47.58709" lon="-2.08325">
        <ele>48.66606</ele>
        <time>2022-12-15T12:41:46.588Z</time>
      </trkpt>
      <trkpt lat="47.587" lon="-2.08319">
        <ele>48.709187</ele>
        <time>2022-12-15T12:41:49.599Z</time>
      </trkpt>
      <trkpt lat="47.58691" lon="-2.08313">
        <ele>48.753089</ele>
        <time>2022-12-15T12:41:52.597Z</time>
      </trkpt>
      <trkpt lat="47.58681" lon="-2.08306">
        <ele>48.797221</ele>
        <time>2022-12-15T12:41:55.596Z</time>
      </trkpt>
      <trkpt lat="47.58671" lon="-2.08299">
        <ele>48.844633</ele>
        <time>2022-12-15T12:41:58.596Z</time>
      </trkpt>
      <trkpt lat="47.58661" lon="-2.08293">
        <ele>48.891513</ele>
        <time>2022-12-15T12:42:01.600Z</time>
      </trkpt>
      <trkpt lat="47.5865" lon="-2.08285">
        <ele>48.938924</ele>
        <time>2022-12-15T12:42:04.610Z</time>
      </trkpt>
      <trkpt lat="47.5864" lon="-2.08279">
        <ele>48.986097</ele>
        <time>2022-12-15T12:42:07.599Z</time>
      </trkpt>
      <trkpt lat="47.58631" lon="-2.08273">
        <ele>49.026851</ele>
        <time>2022-12-15T12:42:10.598Z</time>
      </trkpt>
      <trkpt lat="47.58622" lon="-2.08266">
        <ele>49.06961</ele>
        <time>2022-12-15T12:42:13.599Z</time>
      </trkpt>
      <trkpt lat="47.58612" lon="-2.08259">
        <ele>49.112927</ele>
        <time>2022-12-15T12:42:16.605Z</time>
      </trkpt>
      <trkpt lat="47.58601" lon="-2.08252">
        <ele>49.143112</ele>
        <time>2022-12-15T12:42:19.597Z</time>
      </trkpt>
      <trkpt lat="47.58591" lon="-2.08244">
        <ele>49.173261</ele>
        <time>2022-12-15T12:42:22.597Z</time>
      </trkpt>
      <trkpt lat="47.5858" lon="-2.08237">
        <ele>49.202586</ele>
        <time>2022-12-15T12:42:25.595Z</time>
      </trkpt>
      <trkpt lat="47.5857" lon="-2.0823">
        <ele>49.232143</ele>
        <time>2022-12-15T12:42:28.597Z</time>
      </trkpt>
      <trkpt lat="47.58559" lon="-2.08223">
        <ele>49.261383</ele>
        <time>2022-12-15T12:42:31.600Z</time>
      </trkpt>
      <trkpt lat="47.58549" lon="-2.08216">
        <ele>49.290467</ele>
        <time>2022-12-15T12:42:34.610Z</time>
      </trkpt>
      <trkpt lat="47.58539" lon="-2.0821">
        <ele>49.316383</ele>
        <time>2022-12-15T12:42:37.584Z</time>
      </trkpt>
      <trkpt lat="47.5853" lon="-2.08202">
        <ele>49.343145</ele>
        <time>2022-12-15T12:42:40.598Z</time>
      </trkpt>
      <trkpt lat="47.5852" lon="-2.08196">
        <ele>49.371564</ele>
        <time>2022-12-15T12:42:43.597Z</time>
      </trkpt>
      <trkpt lat="47.58509" lon="-2.08189">
        <ele>49.401915</ele>
        <time>2022-12-15T12:42:46.599Z</time>
      </trkpt>
      <trkpt lat="47.58498" lon="-2.08181">
        <ele>49.431991</ele>
        <time>2022-12-15T12:42:49.602Z</time>
      </trkpt>
      <trkpt lat="47.58487" lon="-2.08174">
        <ele>49.463824</ele>
        <time>2022-12-15T12:42:52.600Z</time>
      </trkpt>
      <trkpt lat="47.58476" lon="-2.08166">
        <ele>49.495124</ele>
        <time>2022-12-15T12:42:55.600Z</time>
      </trkpt>
      <trkpt lat="47.58464" lon="-2.08159">
        <ele>49.526311</ele>
        <time>2022-12-15T12:42:58.595Z</time>
      </trkpt>
      <trkpt lat="47.58454" lon="-2.08151">
        <ele>49.556534</ele>
        <time>2022-12-15T12:43:01.599Z</time>
      </trkpt>
      <trkpt lat="47.58443" lon="-2.08143">
        <ele>49.559238</ele>
        <time>2022-12-15T12:43:04.601Z</time>
      </trkpt>
      <trkpt lat="47.58432" lon="-2.08136">
        <ele>49.551483</ele>
        <time>2022-12-15T12:43:07.643Z</time>
      </trkpt>
      <trkpt lat="47.5842" lon="-2.08129">
        <ele>49.543422</ele>
        <time>2022-12-15T12:43:10.598Z</time>
      </trkpt>
      <trkpt lat="47.58408" lon="-2.0812">
        <ele>49.534976</ele>
        <time>2022-12-15T12:43:13.614Z</time>
      </trkpt>
      <trkpt lat="47.58396" lon="-2.08112">
        <ele>49.526273</ele>
        <time>2022-12-15T12:43:16.607Z</time>
      </trkpt>
      <trkpt lat="47.58385" lon="-2.08104">
        <ele>49.518153</ele>
        <time>2022-12-15T12:43:19.631Z</time>
      </trkpt>
      <trkpt lat="47.58374" lon="-2.08098">
        <ele>49.510986</ele>
        <time>2022-12-15T12:43:22.598Z</time>
      </trkpt>
      <trkpt lat="47.58364" lon="-2.08091">
        <ele>49.50375</ele>
        <time>2022-12-15T12:43:25.652Z</time>
      </trkpt>
      <trkpt lat="47.58354" lon="-2.08084">
        <ele>49.496508</ele>
        <time>2022-12-15T12:43:28.600Z</time>
      </trkpt>
      <trkpt lat="47.58343" lon="-2.08076">
        <ele>49.48904</ele>
        <time>2022-12-15T12:43:31.650Z</time>
      </trkpt>
      <trkpt lat="47.58332" lon="-2.08069">
        <ele>49.481081</ele>
        <time>2022-12-15T12:43:34.596Z</time>
      </trkpt>
      <trkpt lat="47.58321" lon="-2.0806">
        <ele>49.472924</ele>
        <time>2022-12-15T12:43:37.652Z</time>
      </trkpt>
      <trkpt lat="47.58309" lon="-2.08052">
        <ele>49.464727</ele>
        <time>2022-12-15T12:43:40.607Z</time>
      </trkpt>
      <trkpt lat="47.58298" lon="-2.08045">
        <ele>49.456699</ele>
        <time>2022-12-15T12:43:43.624Z</time>
      </trkpt>
      <trkpt lat="47.58287" lon="-2.08038">
        <ele>49.450577</ele>
        <time>2022-12-15T12:43:46.597Z</time>
      </trkpt>
      <trkpt lat="47.58276" lon="-2.08031">
        <ele>49.477647</ele>
        <time>2022-12-15T12:43:49.665Z</time>
      </trkpt>
      <trkpt lat="47.58266" lon="-2.08024">
        <ele>49.503816</ele>
        <time>2022-12-15T12:43:52.601Z</time>
      </trkpt>
      <trkpt lat="47.58256" lon="-2.08016">
        <ele>49.53081</ele>
        <time>2022-12-15T12:43:55.671Z</time>
      </trkpt>
      <trkpt lat="47.58246" lon="-2.08009">
        <ele>49.556892</ele>
        <time>2022-12-15T12:43:58.605Z</time>
      </trkpt>
      <trkpt lat="47.58236" lon="-2.08003">
        <ele>49.581587</ele>
        <time>2022-12-15T12:44:01.643Z</time>
      </trkpt>
      <trkpt lat="47.58226" lon="-2.07995">
        <ele>49.608446</ele>
        <time>2022-12-15T12:44:04.597Z</time>
      </trkpt>
      <trkpt lat="47.58215" lon="-2.07988">
        <ele>49.635998</ele>
        <time>2022-12-15T12:44:07.589Z</time>
      </trkpt>
      <trkpt lat="47.58205" lon="-2.07981">
        <ele>49.662298</ele>
        <time>2022-12-15T12:44:10.572Z</time>
      </trkpt>
      <trkpt lat="47.58196" lon="-2.07975">
        <ele>49.684833</ele>
        <time>2022-12-15T12:44:13.578Z</time>
      </trkpt>
      <trkpt lat="47.58186" lon="-2.07968">
        <ele>49.711645</ele>
        <time>2022-12-15T12:44:17.596Z</time>
      </trkpt>
      <trkpt lat="47.58177" lon="-2.07962">
        <ele>49.734376</ele>
        <time>2022-12-15T12:44:20.586Z</time>
      </trkpt>
      <trkpt lat="47.58168" lon="-2.07955">
        <ele>49.757662</ele>
        <time>2022-12-15T12:44:23.580Z</time>
      </trkpt>
      <trkpt lat="47.58158" lon="-2.07948">
        <ele>49.782556</ele>
        <time>2022-12-15T12:44:26.598Z</time>
      </trkpt>
      <trkpt lat="47.58148" lon="-2.07942">
        <ele>49.807981</ele>
        <time>2022-12-15T12:44:29.588Z</time>
      </trkpt>
      <trkpt lat="47.58138" lon="-2.07935">
        <ele>49.833937</ele>
        <time>2022-12-15T12:44:32.597Z</time>
      </trkpt>
      <trkpt lat="47.58127" lon="-2.07928">
        <ele>49.861844</ele>
        <time>2022-12-15T12:44:35.600Z</time>
      </trkpt>
      <trkpt lat="47.58117" lon="-2.07922">
        <ele>49.893756</ele>
        <time>2022-12-15T12:44:38.611Z</time>
      </trkpt>
      <trkpt lat="47.58108" lon="-2.07915">
        <ele>49.923097</ele>
        <time>2022-12-15T12:44:41.598Z</time>
      </trkpt>
      <trkpt lat="47.58099" lon="-2.0791">
        <ele>49.952829</ele>
        <time>2022-12-15T12:44:44.597Z</time>
      </trkpt>
      <trkpt lat="47.5809" lon="-2.07904">
        <ele>49.983077</ele>
        <time>2022-12-15T12:44:47.596Z</time>
      </trkpt>
      <trkpt lat="47.5808" lon="-2.07897">
        <ele>50.017206</ele>
        <time>2022-12-15T12:44:50.599Z</time>
      </trkpt>
      <trkpt lat="47.5807" lon="-2.0789">
        <ele>50.051826</ele>
        <time>2022-12-15T12:44:53.594Z</time>
      </trkpt>
      <trkpt lat="47.58059" lon="-2.07883">
        <ele>50.087569</ele>
        <time>2022-12-15T12:44:56.597Z</time>
      </trkpt>
      <trkpt lat="47.58048" lon="-2.07875">
        <ele>50.124116</ele>
        <time>2022-12-15T12:44:59.598Z</time>
      </trkpt>
      <trkpt lat="47.58038" lon="-2.07867">
        <ele>50.160745</ele>
        <time>2022-12-15T12:45:02.597Z</time>
      </trkpt>
      <trkpt lat="47.58027" lon="-2.0786">
        <ele>50.197572</ele>
        <time>2022-12-15T12:45:05.603Z</time>
      </trkpt>
      <trkpt lat="47.58016" lon="-2.07852">
        <ele>50.233396</ele>
        <time>2022-12-15T12:45:08.597Z</time>
      </trkpt>
      <trkpt lat="47.58005" lon="-2.07845">
        <ele>50.268774</ele>
        <time>2022-12-15T12:45:11.598Z</time>
      </trkpt>
      <trkpt lat="47.57994" lon="-2.07839">
        <ele>50.305391</ele>
        <time>2022-12-15T12:45:14.598Z</time>
      </trkpt>
      <trkpt lat="47.57984" lon="-2.07831">
        <ele>50.340108</ele>
        <time>2022-12-15T12:45:17.597Z</time>
      </trkpt>
      <trkpt lat="47.57975" lon="-2.07825">
        <ele>50.370904</ele>
        <time>2022-12-15T12:45:20.609Z</time>
      </trkpt>
      <trkpt lat="47.57966" lon="-2.07819">
        <ele>50.401383</ele>
        <time>2022-12-15T12:45:23.602Z</time>
      </trkpt>
      <trkpt lat="47.57957" lon="-2.07812">
        <ele>50.361312</ele>
        <time>2022-12-15T12:45:26.599Z</time>
      </trkpt>
      <trkpt lat="47.57947" lon="-2.07806">
        <ele>50.229988</ele>
        <time>2022-12-15T12:45:29.596Z</time>
      </trkpt>
      <trkpt lat="47.57938" lon="-2.07799">
        <ele>50.098056</ele>
        <time>2022-12-15T12:45:32.598Z</time>
      </trkpt>
      <trkpt lat="47.57928" lon="-2.07793">
        <ele>49.960284</ele>
        <time>2022-12-15T12:45:35.645Z</time>
      </trkpt>
      <trkpt lat="47.57919" lon="-2.07786">
        <ele>49.834246</ele>
        <time>2022-12-15T12:45:38.589Z</time>
      </trkpt>
      <trkpt lat="47.5791" lon="-2.07781">
        <ele>49.709779</ele>
        <time>2022-12-15T12:45:41.669Z</time>
      </trkpt>
      <trkpt lat="47.57901" lon="-2.07774">
        <ele>49.574142</ele>
        <time>2022-12-15T12:45:44.598Z</time>
      </trkpt>
      <trkpt lat="47.5789" lon="-2.07767">
        <ele>49.42709</ele>
        <time>2022-12-15T12:45:47.587Z</time>
      </trkpt>
      <trkpt lat="47.57879" lon="-2.0776">
        <ele>49.268726</ele>
        <time>2022-12-15T12:45:50.601Z</time>
      </trkpt>
      <trkpt lat="47.57868" lon="-2.07753">
        <ele>49.11271</ele>
        <time>2022-12-15T12:45:53.596Z</time>
      </trkpt>
      <trkpt lat="47.57859" lon="-2.07747">
        <ele>48.98512</ele>
        <time>2022-12-15T12:45:56.598Z</time>
      </trkpt>
      <trkpt lat="47.57851" lon="-2.0774">
        <ele>48.864046</ele>
        <time>2022-12-15T12:46:01.604Z</time>
      </trkpt>
      <trkpt lat="47.57842" lon="-2.07734">
        <ele>48.741758</ele>
        <time>2022-12-15T12:46:06.590Z</time>
      </trkpt>
      <trkpt lat="47.57829" lon="-2.07726">
        <ele>48.564675</ele>
        <time>2022-12-15T12:46:10.588Z</time>
      </trkpt>
      <trkpt lat="47.5782" lon="-2.07719">
        <ele>48.431356</ele>
        <time>2022-12-15T12:46:12.596Z</time>
      </trkpt>
      <trkpt lat="47.57811" lon="-2.07714">
        <ele>48.30623</ele>
        <time>2022-12-15T12:46:14.602Z</time>
      </trkpt>
      <trkpt lat="47.57803" lon="-2.07708">
        <ele>48.190033</ele>
        <time>2022-12-15T12:46:16.597Z</time>
      </trkpt>
      <trkpt lat="47.57792" lon="-2.07701">
        <ele>48.121827</ele>
        <time>2022-12-15T12:46:19.606Z</time>
      </trkpt>
      <trkpt lat="47.57783" lon="-2.07695">
        <ele>48.136817</ele>
        <time>2022-12-15T12:46:22.609Z</time>
      </trkpt>
      <trkpt lat="47.57774" lon="-2.07689">
        <ele>48.151576</ele>
        <time>2022-12-15T12:46:25.601Z</time>
      </trkpt>
      <trkpt lat="47.57763" lon="-2.07681">
        <ele>48.168979</ele>
        <time>2022-12-15T12:46:28.599Z</time>
      </trkpt>
      <trkpt lat="47.57752" lon="-2.07675">
        <ele>48.186651</ele>
        <time>2022-12-15T12:46:31.597Z</time>
      </trkpt>
      <trkpt lat="47.57741" lon="-2.07666">
        <ele>48.205223</ele>
        <time>2022-12-15T12:46:34.609Z</time>
      </trkpt>
      <trkpt lat="47.5773" lon="-2.07658">
        <ele>48.224691</ele>
        <time>2022-12-15T12:46:37.585Z</time>
      </trkpt>
      <trkpt lat="47.57719" lon="-2.0765">
        <ele>48.242453</ele>
        <time>2022-12-15T12:46:40.608Z</time>
      </trkpt>
      <trkpt lat="47.57709" lon="-2.07642">
        <ele>48.259413</ele>
        <time>2022-12-15T12:46:43.598Z</time>
      </trkpt>
      <trkpt lat="47.57699" lon="-2.07634">
        <ele>48.275942</ele>
        <time>2022-12-15T12:46:46.599Z</time>
      </trkpt>
      <trkpt lat="47.57691" lon="-2.07626">
        <ele>48.291289</ele>
        <time>2022-12-15T12:46:49.607Z</time>
      </trkpt>
      <trkpt lat="47.57681" lon="-2.07617">
        <ele>48.308614</ele>
        <time>2022-12-15T12:46:52.610Z</time>
      </trkpt>
      <trkpt lat="47.57671" lon="-2.07606">
        <ele>48.327667</ele>
        <time>2022-12-15T12:46:55.607Z</time>
      </trkpt>
      <trkpt lat="47.57661" lon="-2.07594">
        <ele>48.346969</ele>
        <time>2022-12-15T12:46:58.608Z</time>
      </trkpt>
      <trkpt lat="47.57651" lon="-2.07582">
        <ele>48.366587</ele>
        <time>2022-12-15T12:47:01.599Z</time>
      </trkpt>
      <trkpt lat="47.57641" lon="-2.07569">
        <ele>48.391616</ele>
        <time>2022-12-15T12:47:04.596Z</time>
      </trkpt>
      <trkpt lat="47.57632" lon="-2.07556">
        <ele>48.442368</ele>
        <time>2022-12-15T12:47:07.598Z</time>
      </trkpt>
      <trkpt lat="47.57625" lon="-2.07544">
        <ele>48.486003</ele>
        <time>2022-12-15T12:47:10.600Z</time>
      </trkpt>
      <trkpt lat="47.57619" lon="-2.07531">
        <ele>48.527643</ele>
        <time>2022-12-15T12:47:13.582Z</time>
      </trkpt>
      <trkpt lat="47.57614" lon="-2.07519">
        <ele>48.56752</ele>
        <time>2022-12-15T12:47:16.601Z</time>
      </trkpt>
      <trkpt lat="47.57609" lon="-2.07507">
        <ele>48.605162</ele>
        <time>2022-12-15T12:47:19.609Z</time>
      </trkpt>
      <trkpt lat="47.57605" lon="-2.07495">
        <ele>48.64231</ele>
        <time>2022-12-15T12:47:22.601Z</time>
      </trkpt>
      <trkpt lat="47.576" lon="-2.07482">
        <ele>48.682383</ele>
        <time>2022-12-15T12:47:25.600Z</time>
      </trkpt>
      <trkpt lat="47.57596" lon="-2.07469">
        <ele>48.722883</ele>
        <time>2022-12-15T12:47:28.601Z</time>
      </trkpt>
      <trkpt lat="47.57592" lon="-2.07455">
        <ele>48.763782</ele>
        <time>2022-12-15T12:47:31.610Z</time>
      </trkpt>
      <trkpt lat="47.57589" lon="-2.07439">
        <ele>48.80713</ele>
        <time>2022-12-15T12:47:34.585Z</time>
      </trkpt>
      <trkpt lat="47.57585" lon="-2.07425">
        <ele>48.850249</ele>
        <time>2022-12-15T12:47:37.597Z</time>
      </trkpt>
      <trkpt lat="47.57582" lon="-2.07409">
        <ele>48.89474</ele>
        <time>2022-12-15T12:47:40.598Z</time>
      </trkpt>
      <trkpt lat="47.57578" lon="-2.07394">
        <ele>48.939366</ele>
        <time>2022-12-15T12:47:43.581Z</time>
      </trkpt>
      <trkpt lat="47.57575" lon="-2.07378">
        <ele>48.985333</ele>
        <time>2022-12-15T12:47:46.605Z</time>
      </trkpt>
      <trkpt lat="47.57571" lon="-2.07361">
        <ele>49.032022</ele>
        <time>2022-12-15T12:47:49.610Z</time>
      </trkpt>
      <trkpt lat="47.57568" lon="-2.07344">
        <ele>49.080687</ele>
        <time>2022-12-15T12:47:52.600Z</time>
      </trkpt>
      <trkpt lat="47.57564" lon="-2.07327">
        <ele>49.105813</ele>
        <time>2022-12-15T12:47:55.603Z</time>
      </trkpt>
      <trkpt lat="47.5756" lon="-2.07311">
        <ele>49.093976</ele>
        <time>2022-12-15T12:47:58.607Z</time>
      </trkpt>
      <trkpt lat="47.57557" lon="-2.07294">
        <ele>49.082296</ele>
        <time>2022-12-15T12:48:01.598Z</time>
      </trkpt>
      <trkpt lat="47.57553" lon="-2.07277">
        <ele>49.070091</ele>
        <time>2022-12-15T12:48:04.600Z</time>
      </trkpt>
      <trkpt lat="47.5755" lon="-2.07258">
        <ele>49.057338</ele>
        <time>2022-12-15T12:48:07.585Z</time>
      </trkpt>
      <trkpt lat="47.57547" lon="-2.07242">
        <ele>49.04607</ele>
        <time>2022-12-15T12:48:11.598Z</time>
      </trkpt>
      <trkpt lat="47.57543" lon="-2.07229">
        <ele>49.035962</ele>
        <time>2022-12-15T12:48:16.596Z</time>
      </trkpt>
      <trkpt lat="47.57536" lon="-2.07221">
        <ele>49.026915</ele>
        <time>2022-12-15T12:48:20.669Z</time>
      </trkpt>
      <trkpt lat="47.57528" lon="-2.07215">
        <ele>49.017821</ele>
        <time>2022-12-15T12:48:25.600Z</time>
      </trkpt>
      <trkpt lat="47.57524" lon="-2.07202">
        <ele>49.008342</ele>
        <time>2022-12-15T12:48:31.590Z</time>
      </trkpt>
      <trkpt lat="47.5752" lon="-2.07189">
        <ele>48.999084</ele>
        <time>2022-12-15T12:48:49.601Z</time>
      </trkpt>
      <trkpt lat="47.57528" lon="-2.07165">
        <ele>48.980704</ele>
        <time>2022-12-15T12:50:42.605Z</time>
      </trkpt>
      <trkpt lat="47.57527" lon="-2.07147">
        <ele>48.969027</ele>
        <time>2022-12-15T12:50:46.645Z</time>
      </trkpt>
      <trkpt lat="47.57525" lon="-2.07134">
        <ele>48.959469</ele>
        <time>2022-12-15T12:50:49.598Z</time>
      </trkpt>
      <trkpt lat="47.57521" lon="-2.07119">
        <ele>48.949091</ele>
        <time>2022-12-15T12:50:52.664Z</time>
      </trkpt>
      <trkpt lat="47.57517" lon="-2.07103">
        <ele>48.937317</ele>
        <time>2022-12-15T12:50:55.606Z</time>
      </trkpt>
      <trkpt lat="47.57513" lon="-2.07087">
        <ele>48.912308</ele>
        <time>2022-12-15T12:50:58.600Z</time>
      </trkpt>
      <trkpt lat="47.5751" lon="-2.07071">
        <ele>48.870635</ele>
        <time>2022-12-15T12:51:01.600Z</time>
      </trkpt>
      <trkpt lat="47.57506" lon="-2.07056">
        <ele>48.831101</ele>
        <time>2022-12-15T12:51:04.599Z</time>
      </trkpt>
      <trkpt lat="47.57503" lon="-2.07041">
        <ele>48.792509</ele>
        <time>2022-12-15T12:51:07.600Z</time>
      </trkpt>
      <trkpt lat="47.575" lon="-2.07027">
        <ele>48.756045</ele>
        <time>2022-12-15T12:51:10.609Z</time>
      </trkpt>
      <trkpt lat="47.57497" lon="-2.07014">
        <ele>48.721231</ele>
        <time>2022-12-15T12:51:13.588Z</time>
      </trkpt>
      <trkpt lat="47.57493" lon="-2.06995">
        <ele>48.673064</ele>
        <time>2022-12-15T12:51:16.606Z</time>
      </trkpt>
      <trkpt lat="47.57489" lon="-2.06978">
        <ele>48.627503</ele>
        <time>2022-12-15T12:51:19.607Z</time>
      </trkpt>
      <trkpt lat="47.57485" lon="-2.06961">
        <ele>48.581362</ele>
        <time>2022-12-15T12:51:22.600Z</time>
      </trkpt>
      <trkpt lat="47.57481" lon="-2.06942">
        <ele>48.533096</ele>
        <time>2022-12-15T12:51:25.610Z</time>
      </trkpt>
      <trkpt lat="47.57476" lon="-2.06925">
        <ele>48.486719</ele>
        <time>2022-12-15T12:51:28.602Z</time>
      </trkpt>
      <trkpt lat="47.57473" lon="-2.06906">
        <ele>48.437702</ele>
        <time>2022-12-15T12:51:31.601Z</time>
      </trkpt>
      <trkpt lat="47.57469" lon="-2.06888">
        <ele>48.390027</ele>
        <time>2022-12-15T12:51:34.609Z</time>
      </trkpt>
      <trkpt lat="47.57465" lon="-2.0687">
        <ele>48.34528</ele>
        <time>2022-12-15T12:51:37.597Z</time>
      </trkpt>
      <trkpt lat="47.57462" lon="-2.06855">
        <ele>48.304191</ele>
        <time>2022-12-15T12:51:40.605Z</time>
      </trkpt>
      <trkpt lat="47.57459" lon="-2.06839">
        <ele>48.256046</ele>
        <time>2022-12-15T12:51:43.586Z</time>
      </trkpt>
      <trkpt lat="47.57455" lon="-2.06822">
        <ele>48.132705</ele>
        <time>2022-12-15T12:51:46.608Z</time>
      </trkpt>
      <trkpt lat="47.57451" lon="-2.06807">
        <ele>48.020839</ele>
        <time>2022-12-15T12:51:49.601Z</time>
      </trkpt>
      <trkpt lat="47.57448" lon="-2.06789">
        <ele>47.893147</ele>
        <time>2022-12-15T12:51:52.605Z</time>
      </trkpt>
      <trkpt lat="47.57445" lon="-2.06771">
        <ele>47.765345</ele>
        <time>2022-12-15T12:51:55.601Z</time>
      </trkpt>
      <trkpt lat="47.57442" lon="-2.06752">
        <ele>47.630923</ele>
        <time>2022-12-15T12:51:58.606Z</time>
      </trkpt>
      <trkpt lat="47.5744" lon="-2.06735">
        <ele>47.508645</ele>
        <time>2022-12-15T12:52:01.612Z</time>
      </trkpt>
      <trkpt lat="47.57437" lon="-2.06717">
        <ele>47.383215</ele>
        <time>2022-12-15T12:52:04.611Z</time>
      </trkpt>
      <trkpt lat="47.57434" lon="-2.06701">
        <ele>47.271522</ele>
        <time>2022-12-15T12:52:07.598Z</time>
      </trkpt>
      <trkpt lat="47.57433" lon="-2.06683">
        <ele>47.143541</ele>
        <time>2022-12-15T12:52:10.590Z</time>
      </trkpt>
      <trkpt lat="47.57432" lon="-2.06663">
        <ele>47.003982</ele>
        <time>2022-12-15T12:52:13.592Z</time>
      </trkpt>
      <trkpt lat="47.57431" lon="-2.06649">
        <ele>46.909956</ele>
        <time>2022-12-15T12:52:15.662Z</time>
      </trkpt>
      <trkpt lat="47.57429" lon="-2.06632">
        <ele>46.790657</ele>
        <time>2022-12-15T12:52:18.602Z</time>
      </trkpt>
      <trkpt lat="47.57427" lon="-2.06614">
        <ele>46.661196</ele>
        <time>2022-12-15T12:52:21.653Z</time>
      </trkpt>
      <trkpt lat="47.57426" lon="-2.06597">
        <ele>46.542747</ele>
        <time>2022-12-15T12:52:24.604Z</time>
      </trkpt>
      <trkpt lat="47.57425" lon="-2.06578">
        <ele>46.408371</ele>
        <time>2022-12-15T12:52:27.646Z</time>
      </trkpt>
      <trkpt lat="47.57424" lon="-2.0656">
        <ele>46.267965</ele>
        <time>2022-12-15T12:52:30.602Z</time>
      </trkpt>
      <trkpt lat="47.57422" lon="-2.06543">
        <ele>46.124726</ele>
        <time>2022-12-15T12:52:33.618Z</time>
      </trkpt>
      <trkpt lat="47.57421" lon="-2.06525">
        <ele>45.973926</ele>
        <time>2022-12-15T12:52:36.608Z</time>
      </trkpt>
      <trkpt lat="47.57419" lon="-2.06505">
        <ele>45.814114</ele>
        <time>2022-12-15T12:52:39.610Z</time>
      </trkpt>
      <trkpt lat="47.57417" lon="-2.06492">
        <ele>45.704997</ele>
        <time>2022-12-15T12:52:41.609Z</time>
      </trkpt>
      <trkpt lat="47.57415" lon="-2.06473">
        <ele>45.549837</ele>
        <time>2022-12-15T12:52:44.644Z</time>
      </trkpt>
      <trkpt lat="47.57414" lon="-2.06454">
        <ele>45.395694</ele>
        <time>2022-12-15T12:52:47.598Z</time>
      </trkpt>
      <trkpt lat="47.57413" lon="-2.06436">
        <ele>45.247599</ele>
        <time>2022-12-15T12:52:50.591Z</time>
      </trkpt>
      <trkpt lat="47.57412" lon="-2.06417">
        <ele>45.09253</ele>
        <time>2022-12-15T12:52:53.586Z</time>
      </trkpt>
      <trkpt lat="47.57411" lon="-2.06399">
        <ele>44.944456</ele>
        <time>2022-12-15T12:52:56.607Z</time>
      </trkpt>
      <trkpt lat="47.57409" lon="-2.06382">
        <ele>44.803473</ele>
        <time>2022-12-15T12:52:59.609Z</time>
      </trkpt>
      <trkpt lat="47.57407" lon="-2.06365">
        <ele>44.663141</ele>
        <time>2022-12-15T12:53:02.597Z</time>
      </trkpt>
      <trkpt lat="47.57405" lon="-2.06349">
        <ele>44.531622</ele>
        <time>2022-12-15T12:53:05.600Z</time>
      </trkpt>
      <trkpt lat="47.57404" lon="-2.06331">
        <ele>44.387291</ele>
        <time>2022-12-15T12:53:08.611Z</time>
      </trkpt>
      <trkpt lat="47.57403" lon="-2.06318">
        <ele>44.278869</ele>
        <time>2022-12-15T12:53:10.605Z</time>
      </trkpt>
      <trkpt lat="47.57402" lon="-2.06304">
        <ele>44.355806</ele>
        <time>2022-12-15T12:53:12.640Z</time>
      </trkpt>
      <trkpt lat="47.57401" lon="-2.0629">
        <ele>44.478039</ele>
        <time>2022-12-15T12:53:14.601Z</time>
      </trkpt>
      <trkpt lat="47.57399" lon="-2.06273">
        <ele>44.640967</ele>
        <time>2022-12-15T12:53:17.603Z</time>
      </trkpt>
      <trkpt lat="47.57398" lon="-2.06254">
        <ele>44.806462</ele>
        <time>2022-12-15T12:53:20.602Z</time>
      </trkpt>
      <trkpt lat="47.57397" lon="-2.06236">
        <ele>44.969322</ele>
        <time>2022-12-15T12:53:23.609Z</time>
      </trkpt>
      <trkpt lat="47.57395" lon="-2.06222">
        <ele>45.099414</ele>
        <time>2022-12-15T12:53:25.609Z</time>
      </trkpt>
      <trkpt lat="47.57393" lon="-2.06204">
        <ele>45.265702</ele>
        <time>2022-12-15T12:53:28.607Z</time>
      </trkpt>
      <trkpt lat="47.57391" lon="-2.06185">
        <ele>45.437758</ele>
        <time>2022-12-15T12:53:31.600Z</time>
      </trkpt>
      <trkpt lat="47.5739" lon="-2.06167">
        <ele>45.601729</ele>
        <time>2022-12-15T12:53:34.599Z</time>
      </trkpt>
      <trkpt lat="47.57389" lon="-2.06151">
        <ele>45.751432</ele>
        <time>2022-12-15T12:53:37.598Z</time>
      </trkpt>
      <trkpt lat="47.57388" lon="-2.06134">
        <ele>45.905628</ele>
        <time>2022-12-15T12:53:40.602Z</time>
      </trkpt>
      <trkpt lat="47.57387" lon="-2.06116">
        <ele>46.063693</ele>
        <time>2022-12-15T12:53:43.600Z</time>
      </trkpt>
      <trkpt lat="47.57385" lon="-2.06098">
        <ele>46.231968</ele>
        <time>2022-12-15T12:53:46.662Z</time>
      </trkpt>
      <trkpt lat="47.57383" lon="-2.06079">
        <ele>46.402602</ele>
        <time>2022-12-15T12:53:49.603Z</time>
      </trkpt>
      <trkpt lat="47.57382" lon="-2.0606">
        <ele>46.572969</ele>
        <time>2022-12-15T12:53:52.654Z</time>
      </trkpt>
      <trkpt lat="47.5738" lon="-2.06041">
        <ele>46.622243</ele>
        <time>2022-12-15T12:53:55.601Z</time>
      </trkpt>
      <trkpt lat="47.57378" lon="-2.06021">
        <ele>46.532443</ele>
        <time>2022-12-15T12:53:58.655Z</time>
      </trkpt>
      <trkpt lat="47.57377" lon="-2.06004">
        <ele>46.452217</ele>
        <time>2022-12-15T12:54:01.610Z</time>
      </trkpt>
      <trkpt lat="47.57376" lon="-2.05986">
        <ele>46.372369</ele>
        <time>2022-12-15T12:54:04.650Z</time>
      </trkpt>
      <trkpt lat="47.57374" lon="-2.05971">
        <ele>46.306249</ele>
        <time>2022-12-15T12:54:06.604Z</time>
      </trkpt>
      <trkpt lat="47.57373" lon="-2.05958">
        <ele>46.243664</ele>
        <time>2022-12-15T12:54:08.612Z</time>
      </trkpt>
      <trkpt lat="47.57372" lon="-2.05944">
        <ele>46.18268</ele>
        <time>2022-12-15T12:54:10.673Z</time>
      </trkpt>
      <trkpt lat="47.57371" lon="-2.0593">
        <ele>46.119989</ele>
        <time>2022-12-15T12:54:12.601Z</time>
      </trkpt>
      <trkpt lat="47.5737" lon="-2.05916">
        <ele>46.057115</ele>
        <time>2022-12-15T12:54:14.593Z</time>
      </trkpt>
      <trkpt lat="47.57368" lon="-2.05903">
        <ele>45.995085</ele>
        <time>2022-12-15T12:54:16.672Z</time>
      </trkpt>
      <trkpt lat="47.57367" lon="-2.05888">
        <ele>45.930078</ele>
        <time>2022-12-15T12:54:18.607Z</time>
      </trkpt>
      <trkpt lat="47.57366" lon="-2.05875">
        <ele>45.868854</ele>
        <time>2022-12-15T12:54:20.601Z</time>
      </trkpt>
      <trkpt lat="47.57365" lon="-2.05854">
        <ele>45.77734</ele>
        <time>2022-12-15T12:54:23.587Z</time>
      </trkpt>
      <trkpt lat="47.57364" lon="-2.0584">
        <ele>45.710634</ele>
        <time>2022-12-15T12:54:25.611Z</time>
      </trkpt>
      <trkpt lat="47.57362" lon="-2.05826">
        <ele>45.649205</ele>
        <time>2022-12-15T12:54:27.599Z</time>
      </trkpt>
      <trkpt lat="47.57361" lon="-2.05812">
        <ele>45.584212</ele>
        <time>2022-12-15T12:54:29.612Z</time>
      </trkpt>
      <trkpt lat="47.5736" lon="-2.05798">
        <ele>45.520922</ele>
        <time>2022-12-15T12:54:31.611Z</time>
      </trkpt>
      <trkpt lat="47.57359" lon="-2.05784">
        <ele>45.462343</ele>
        <time>2022-12-15T12:54:33.588Z</time>
      </trkpt>
      <trkpt lat="47.57358" lon="-2.05769">
        <ele>45.428999</ele>
        <time>2022-12-15T12:54:35.596Z</time>
      </trkpt>
      <trkpt lat="47.57357" lon="-2.05755">
        <ele>45.398222</ele>
        <time>2022-12-15T12:54:37.587Z</time>
      </trkpt>
      <trkpt lat="47.57356" lon="-2.05737">
        <ele>45.357667</ele>
        <time>2022-12-15T12:54:40.670Z</time>
      </trkpt>
      <trkpt lat="47.57355" lon="-2.0572">
        <ele>45.318831</ele>
        <time>2022-12-15T12:54:43.607Z</time>
      </trkpt>
      <trkpt lat="47.57353" lon="-2.05702">
        <ele>45.278936</ele>
        <time>2022-12-15T12:54:46.667Z</time>
      </trkpt>
      <trkpt lat="47.57351" lon="-2.05685">
        <ele>45.239532</ele>
        <time>2022-12-15T12:54:49.600Z</time>
      </trkpt>
      <trkpt lat="47.5735" lon="-2.05666">
        <ele>45.196385</ele>
        <time>2022-12-15T12:54:52.669Z</time>
      </trkpt>
      <trkpt lat="47.57349" lon="-2.05646">
        <ele>45.152224</ele>
        <time>2022-12-15T12:54:55.599Z</time>
      </trkpt>
      <trkpt lat="47.57347" lon="-2.05627">
        <ele>45.107839</ele>
        <time>2022-12-15T12:54:58.687Z</time>
      </trkpt>
      <trkpt lat="47.57345" lon="-2.05607">
        <ele>45.063761</ele>
        <time>2022-12-15T12:55:01.603Z</time>
      </trkpt>
      <trkpt lat="47.57343" lon="-2.05588">
        <ele>45.019375</ele>
        <time>2022-12-15T12:55:04.640Z</time>
      </trkpt>
      <trkpt lat="47.57341" lon="-2.05568">
        <ele>44.975165</ele>
        <time>2022-12-15T12:55:07.600Z</time>
      </trkpt>
      <trkpt lat="47.5734" lon="-2.05548">
        <ele>44.931005</ele>
        <time>2022-12-15T12:55:10.591Z</time>
      </trkpt>
      <trkpt lat="47.57338" lon="-2.05529">
        <ele>44.886695</ele>
        <time>2022-12-15T12:55:13.603Z</time>
      </trkpt>
      <trkpt lat="47.57337" lon="-2.05516">
        <ele>44.858266</ele>
        <time>2022-12-15T12:55:15.669Z</time>
      </trkpt>
      <trkpt lat="47.57335" lon="-2.05497">
        <ele>44.821135</ele>
        <time>2022-12-15T12:55:18.606Z</time>
      </trkpt>
      <trkpt lat="47.57334" lon="-2.05479">
        <ele>44.786631</ele>
        <time>2022-12-15T12:55:21.658Z</time>
      </trkpt>
      <trkpt lat="47.57332" lon="-2.05463">
        <ele>44.753755</ele>
        <time>2022-12-15T12:55:24.609Z</time>
      </trkpt>
      <trkpt lat="47.57331" lon="-2.05446">
        <ele>44.721042</ele>
        <time>2022-12-15T12:55:27.655Z</time>
      </trkpt>
      <trkpt lat="47.5733" lon="-2.0543">
        <ele>44.689393</ele>
        <time>2022-12-15T12:55:30.603Z</time>
      </trkpt>
      <trkpt lat="47.57328" lon="-2.05413">
        <ele>44.65618</ele>
        <time>2022-12-15T12:55:33.590Z</time>
      </trkpt>
      <trkpt lat="47.57327" lon="-2.05396">
        <ele>44.622926</ele>
        <time>2022-12-15T12:55:36.606Z</time>
      </trkpt>
      <trkpt lat="47.57326" lon="-2.0538">
        <ele>44.590274</ele>
        <time>2022-12-15T12:55:39.614Z</time>
      </trkpt>
      <trkpt lat="47.57324" lon="-2.05363">
        <ele>44.556131</ele>
        <time>2022-12-15T12:55:42.595Z</time>
      </trkpt>
      <trkpt lat="47.57323" lon="-2.05345">
        <ele>44.520627</ele>
        <time>2022-12-15T12:55:45.603Z</time>
      </trkpt>
      <trkpt lat="47.57322" lon="-2.05327">
        <ele>44.486638</ele>
        <time>2022-12-15T12:55:48.585Z</time>
      </trkpt>
      <trkpt lat="47.5732" lon="-2.05309">
        <ele>44.450477</ele>
        <time>2022-12-15T12:55:51.612Z</time>
      </trkpt>
      <trkpt lat="47.57318" lon="-2.0529">
        <ele>44.413772</ele>
        <time>2022-12-15T12:55:54.610Z</time>
      </trkpt>
      <trkpt lat="47.57317" lon="-2.05273">
        <ele>44.378657</ele>
        <time>2022-12-15T12:55:57.608Z</time>
      </trkpt>
      <trkpt lat="47.57316" lon="-2.05256">
        <ele>44.350863</ele>
        <time>2022-12-15T12:56:00.600Z</time>
      </trkpt>
      <trkpt lat="47.57314" lon="-2.05239">
        <ele>44.435858</ele>
        <time>2022-12-15T12:56:03.587Z</time>
      </trkpt>
      <trkpt lat="47.57312" lon="-2.05224">
        <ele>44.518063</ele>
        <time>2022-12-15T12:56:06.611Z</time>
      </trkpt>
      <trkpt lat="47.57311" lon="-2.05209">
        <ele>44.592749</ele>
        <time>2022-12-15T12:56:09.606Z</time>
      </trkpt>
      <trkpt lat="47.57309" lon="-2.05195">
        <ele>44.664524</ele>
        <time>2022-12-15T12:56:12.610Z</time>
      </trkpt>
      <trkpt lat="47.57307" lon="-2.05181">
        <ele>44.738194</ele>
        <time>2022-12-15T12:56:15.591Z</time>
      </trkpt>
      <trkpt lat="47.57305" lon="-2.05167">
        <ele>44.810164</ele>
        <time>2022-12-15T12:56:18.613Z</time>
      </trkpt>
      <trkpt lat="47.57304" lon="-2.05153">
        <ele>44.882327</ele>
        <time>2022-12-15T12:56:21.604Z</time>
      </trkpt>
      <trkpt lat="47.57302" lon="-2.05138">
        <ele>44.962099</ele>
        <time>2022-12-15T12:56:24.590Z</time>
      </trkpt>
      <trkpt lat="47.57299" lon="-2.05123">
        <ele>45.039781</ele>
        <time>2022-12-15T12:56:27.601Z</time>
      </trkpt>
      <trkpt lat="47.57296" lon="-2.05109">
        <ele>45.116402</ele>
        <time>2022-12-15T12:56:30.586Z</time>
      </trkpt>
      <trkpt lat="47.57294" lon="-2.05095">
        <ele>45.188967</ele>
        <time>2022-12-15T12:56:33.609Z</time>
      </trkpt>
      <trkpt lat="47.57291" lon="-2.05082">
        <ele>45.260472</ele>
        <time>2022-12-15T12:56:36.607Z</time>
      </trkpt>
      <trkpt lat="47.57288" lon="-2.05066">
        <ele>45.341888</ele>
        <time>2022-12-15T12:56:39.601Z</time>
      </trkpt>
      <trkpt lat="47.57284" lon="-2.05051">
        <ele>45.423831</ele>
        <time>2022-12-15T12:56:42.600Z</time>
      </trkpt>
      <trkpt lat="47.57281" lon="-2.05035">
        <ele>45.508141</ele>
        <time>2022-12-15T12:56:45.583Z</time>
      </trkpt>
      <trkpt lat="47.57277" lon="-2.05018">
        <ele>45.601154</ele>
        <time>2022-12-15T12:56:48.614Z</time>
      </trkpt>
      <trkpt lat="47.57272" lon="-2.05">
        <ele>45.701294</ele>
        <time>2022-12-15T12:56:51.603Z</time>
      </trkpt>
      <trkpt lat="47.57266" lon="-2.04982">
        <ele>45.681786</ele>
        <time>2022-12-15T12:56:54.602Z</time>
      </trkpt>
      <trkpt lat="47.57261" lon="-2.04965">
        <ele>45.656202</ele>
        <time>2022-12-15T12:56:57.601Z</time>
      </trkpt>
      <trkpt lat="47.57256" lon="-2.04949">
        <ele>45.632509</ele>
        <time>2022-12-15T12:57:00.588Z</time>
      </trkpt>
      <trkpt lat="47.57251" lon="-2.04936">
        <ele>45.612324</ele>
        <time>2022-12-15T12:57:03.588Z</time>
      </trkpt>
      <trkpt lat="47.57247" lon="-2.04922">
        <ele>45.591293</ele>
        <time>2022-12-15T12:57:06.611Z</time>
      </trkpt>
      <trkpt lat="47.57242" lon="-2.04906">
        <ele>45.568002</ele>
        <time>2022-12-15T12:57:09.673Z</time>
      </trkpt>
      <trkpt lat="47.57236" lon="-2.04891">
        <ele>45.544381</ele>
        <time>2022-12-15T12:57:12.603Z</time>
      </trkpt>
      <trkpt lat="47.57231" lon="-2.04875">
        <ele>45.521122</ele>
        <time>2022-12-15T12:57:15.632Z</time>
      </trkpt>
      <trkpt lat="47.57226" lon="-2.04862">
        <ele>45.500485</ele>
        <time>2022-12-15T12:57:18.602Z</time>
      </trkpt>
      <trkpt lat="47.57222" lon="-2.04849">
        <ele>45.481922</ele>
        <time>2022-12-15T12:57:21.644Z</time>
      </trkpt>
      <trkpt lat="47.57219" lon="-2.04836">
        <ele>45.461964</ele>
        <time>2022-12-15T12:57:24.582Z</time>
      </trkpt>
      <trkpt lat="47.57214" lon="-2.04822">
        <ele>45.441024</ele>
        <time>2022-12-15T12:57:27.670Z</time>
      </trkpt>
      <trkpt lat="47.57209" lon="-2.04807">
        <ele>45.418394</ele>
        <time>2022-12-15T12:57:30.596Z</time>
      </trkpt>
      <trkpt lat="47.57205" lon="-2.04793">
        <ele>45.397533</ele>
        <time>2022-12-15T12:57:33.623Z</time>
      </trkpt>
      <trkpt lat="47.57201" lon="-2.04778">
        <ele>45.376827</ele>
        <time>2022-12-15T12:57:36.601Z</time>
      </trkpt>
      <trkpt lat="47.57196" lon="-2.04764">
        <ele>45.355431</ele>
        <time>2022-12-15T12:57:39.691Z</time>
      </trkpt>
      <trkpt lat="47.57192" lon="-2.04749">
        <ele>45.391005</ele>
        <time>2022-12-15T12:57:42.601Z</time>
      </trkpt>
      <trkpt lat="47.57188" lon="-2.04733">
        <ele>45.463619</ele>
        <time>2022-12-15T12:57:45.625Z</time>
      </trkpt>
      <trkpt lat="47.57184" lon="-2.04717">
        <ele>45.537045</ele>
        <time>2022-12-15T12:57:48.603Z</time>
      </trkpt>
      <trkpt lat="47.5718" lon="-2.04701">
        <ele>45.612285</ele>
        <time>2022-12-15T12:57:51.672Z</time>
      </trkpt>
      <trkpt lat="47.57177" lon="-2.04684">
        <ele>45.68825</ele>
        <time>2022-12-15T12:57:54.607Z</time>
      </trkpt>
      <trkpt lat="47.57176" lon="-2.04668">
        <ele>45.762004</ele>
        <time>2022-12-15T12:57:57.644Z</time>
      </trkpt>
      <trkpt lat="47.57174" lon="-2.04653">
        <ele>45.825657</ele>
        <time>2022-12-15T12:58:00.600Z</time>
      </trkpt>
      <trkpt lat="47.57172" lon="-2.0464">
        <ele>45.884862</ele>
        <time>2022-12-15T12:58:03.633Z</time>
      </trkpt>
      <trkpt lat="47.5717" lon="-2.04627">
        <ele>45.943017</ele>
        <time>2022-12-15T12:58:06.612Z</time>
      </trkpt>
      <trkpt lat="47.57168" lon="-2.04608">
        <ele>46.026699</ele>
        <time>2022-12-15T12:58:09.594Z</time>
      </trkpt>
      <trkpt lat="47.57166" lon="-2.04592">
        <ele>46.097587</ele>
        <time>2022-12-15T12:58:11.603Z</time>
      </trkpt>
      <trkpt lat="47.57165" lon="-2.04577">
        <ele>46.161891</ele>
        <time>2022-12-15T12:58:13.611Z</time>
      </trkpt>
      <trkpt lat="47.57162" lon="-2.04563">
        <ele>46.22799</ele>
        <time>2022-12-15T12:58:15.591Z</time>
      </trkpt>
      <trkpt lat="47.5716" lon="-2.04545">
        <ele>46.30618</ele>
        <time>2022-12-15T12:58:18.605Z</time>
      </trkpt>
      <trkpt lat="47.57157" lon="-2.04528">
        <ele>46.381304</ele>
        <time>2022-12-15T12:58:21.595Z</time>
      </trkpt>
      <trkpt lat="47.57152" lon="-2.04511">
        <ele>46.461434</ele>
        <time>2022-12-15T12:58:24.608Z</time>
      </trkpt>
      <trkpt lat="47.57149" lon="-2.04498">
        <ele>46.495751</ele>
        <time>2022-12-15T12:58:26.641Z</time>
      </trkpt>
      <trkpt lat="47.57145" lon="-2.04485">
        <ele>46.430788</ele>
        <time>2022-12-15T12:58:28.607Z</time>
      </trkpt>
      <trkpt lat="47.57142" lon="-2.04473">
        <ele>46.369737</ele>
        <time>2022-12-15T12:58:30.610Z</time>
      </trkpt>
      <trkpt lat="47.57138" lon="-2.04461">
        <ele>46.307829</ele>
        <time>2022-12-15T12:58:32.653Z</time>
      </trkpt>
      <trkpt lat="47.57132" lon="-2.04443">
        <ele>46.218114</ele>
        <time>2022-12-15T12:58:35.596Z</time>
      </trkpt>
      <trkpt lat="47.57127" lon="-2.04427">
        <ele>46.135432</ele>
        <time>2022-12-15T12:58:38.673Z</time>
      </trkpt>
      <trkpt lat="47.57122" lon="-2.04411">
        <ele>46.054222</ele>
        <time>2022-12-15T12:58:41.612Z</time>
      </trkpt>
      <trkpt lat="47.57117" lon="-2.04395">
        <ele>45.972447</ele>
        <time>2022-12-15T12:58:44.607Z</time>
      </trkpt>
      <trkpt lat="47.57112" lon="-2.04379">
        <ele>45.891788</ele>
        <time>2022-12-15T12:58:47.606Z</time>
      </trkpt>
      <trkpt lat="47.57107" lon="-2.04363">
        <ele>45.814601</ele>
        <time>2022-12-15T12:58:50.621Z</time>
      </trkpt>
      <trkpt lat="47.57104" lon="-2.04348">
        <ele>45.740047</ele>
        <time>2022-12-15T12:58:53.602Z</time>
      </trkpt>
      <trkpt lat="47.57101" lon="-2.04332">
        <ele>45.665146</ele>
        <time>2022-12-15T12:58:56.611Z</time>
      </trkpt>
      <trkpt lat="47.57097" lon="-2.04318">
        <ele>45.597549</ele>
        <time>2022-12-15T12:58:59.611Z</time>
      </trkpt>
      <trkpt lat="47.57092" lon="-2.04304">
        <ele>45.5269</ele>
        <time>2022-12-15T12:59:02.614Z</time>
      </trkpt>
      <trkpt lat="47.57088" lon="-2.04288">
        <ele>45.444706</ele>
        <time>2022-12-15T12:59:05.612Z</time>
      </trkpt>
      <trkpt lat="47.57084" lon="-2.04271">
        <ele>45.362765</ele>
        <time>2022-12-15T12:59:08.610Z</time>
      </trkpt>
      <trkpt lat="47.57081" lon="-2.04252">
        <ele>45.277739</ele>
        <time>2022-12-15T12:59:11.606Z</time>
      </trkpt>
      <trkpt lat="47.57078" lon="-2.04239">
        <ele>45.227372</ele>
        <time>2022-12-15T12:59:13.602Z</time>
      </trkpt>
      <trkpt lat="47.57076" lon="-2.04221">
        <ele>45.159117</ele>
        <time>2022-12-15T12:59:16.607Z</time>
      </trkpt>
      <trkpt lat="47.57073" lon="-2.04206">
        <ele>45.099273</ele>
        <time>2022-12-15T12:59:19.667Z</time>
      </trkpt>
      <trkpt lat="47.57072" lon="-2.04188">
        <ele>45.030336</ele>
        <time>2022-12-15T12:59:22.604Z</time>
      </trkpt>
      <trkpt lat="47.5707" lon="-2.04169">
        <ele>44.961106</ele>
        <time>2022-12-15T12:59:25.668Z</time>
      </trkpt>
      <trkpt lat="47.57067" lon="-2.04151">
        <ele>44.892343</ele>
        <time>2022-12-15T12:59:28.611Z</time>
      </trkpt>
      <trkpt lat="47.57065" lon="-2.04133">
        <ele>44.822036</ele>
        <time>2022-12-15T12:59:31.657Z</time>
      </trkpt>
      <trkpt lat="47.57064" lon="-2.04115">
        <ele>44.756363</ele>
        <time>2022-12-15T12:59:34.611Z</time>
      </trkpt>
      <trkpt lat="47.57063" lon="-2.04098">
        <ele>44.691063</ele>
        <time>2022-12-15T12:59:37.639Z</time>
      </trkpt>
      <trkpt lat="47.57061" lon="-2.04081">
        <ele>44.626438</ele>
        <time>2022-12-15T12:59:40.612Z</time>
      </trkpt>
      <trkpt lat="47.5706" lon="-2.04065">
        <ele>44.564615</ele>
        <time>2022-12-15T12:59:43.627Z</time>
      </trkpt>
      <trkpt lat="47.57058" lon="-2.04048">
        <ele>44.501975</ele>
        <time>2022-12-15T12:59:46.616Z</time>
      </trkpt>
      <trkpt lat="47.57056" lon="-2.04031">
        <ele>44.436656</ele>
        <time>2022-12-15T12:59:49.671Z</time>
      </trkpt>
      <trkpt lat="47.57055" lon="-2.04015">
        <ele>44.375818</ele>
        <time>2022-12-15T12:59:52.608Z</time>
      </trkpt>
      <trkpt lat="47.57054" lon="-2.03998">
        <ele>44.312132</ele>
        <time>2022-12-15T12:59:55.663Z</time>
      </trkpt>
      <trkpt lat="47.57052" lon="-2.0398">
        <ele>44.261288</ele>
        <time>2022-12-15T12:59:58.609Z</time>
      </trkpt>
      <trkpt lat="47.57051" lon="-2.03962">
        <ele>44.219342</ele>
        <time>2022-12-15T13:00:01.646Z</time>
      </trkpt>
      <trkpt lat="47.57049" lon="-2.03945">
        <ele>44.177676</ele>
        <time>2022-12-15T13:00:04.605Z</time>
      </trkpt>
      <trkpt lat="47.57047" lon="-2.03925">
        <ele>44.130666</ele>
        <time>2022-12-15T13:00:07.671Z</time>
      </trkpt>
      <trkpt lat="47.57045" lon="-2.03907">
        <ele>44.086293</ele>
        <time>2022-12-15T13:00:10.611Z</time>
      </trkpt>
      <trkpt lat="47.57043" lon="-2.03889">
        <ele>44.041798</ele>
        <time>2022-12-15T13:00:13.670Z</time>
      </trkpt>
      <trkpt lat="47.57041" lon="-2.0387">
        <ele>43.997874</ele>
        <time>2022-12-15T13:00:16.604Z</time>
      </trkpt>
      <trkpt lat="47.5704" lon="-2.03853">
        <ele>43.957192</ele>
        <time>2022-12-15T13:00:19.671Z</time>
      </trkpt>
      <trkpt lat="47.57038" lon="-2.03837">
        <ele>43.917034</ele>
        <time>2022-12-15T13:00:22.612Z</time>
      </trkpt>
      <trkpt lat="47.57036" lon="-2.0382">
        <ele>43.876927</ele>
        <time>2022-12-15T13:00:25.637Z</time>
      </trkpt>
      <trkpt lat="47.57035" lon="-2.03803">
        <ele>43.835846</ele>
        <time>2022-12-15T13:00:28.615Z</time>
      </trkpt>
      <trkpt lat="47.57033" lon="-2.03785">
        <ele>43.794224</ele>
        <time>2022-12-15T13:00:31.683Z</time>
      </trkpt>
      <trkpt lat="47.57031" lon="-2.03769">
        <ele>43.753998</ele>
        <time>2022-12-15T13:00:34.602Z</time>
      </trkpt>
      <trkpt lat="47.5703" lon="-2.03751">
        <ele>43.710165</ele>
        <time>2022-12-15T13:00:37.644Z</time>
      </trkpt>
      <trkpt lat="47.57028" lon="-2.03731">
        <ele>43.663885</ele>
        <time>2022-12-15T13:00:40.606Z</time>
      </trkpt>
      <trkpt lat="47.57027" lon="-2.03718">
        <ele>43.643353</ele>
        <time>2022-12-15T13:00:42.612Z</time>
      </trkpt>
      <trkpt lat="47.57025" lon="-2.03705">
        <ele>43.626179</ele>
        <time>2022-12-15T13:00:44.606Z</time>
      </trkpt>
      <trkpt lat="47.57024" lon="-2.03685">
        <ele>43.600784</ele>
        <time>2022-12-15T13:00:47.611Z</time>
      </trkpt>
      <trkpt lat="47.57022" lon="-2.03666">
        <ele>43.576211</ele>
        <time>2022-12-15T13:00:50.609Z</time>
      </trkpt>
      <trkpt lat="47.5702" lon="-2.03647">
        <ele>43.551765</ele>
        <time>2022-12-15T13:00:53.612Z</time>
      </trkpt>
      <trkpt lat="47.57019" lon="-2.03631">
        <ele>43.530559</ele>
        <time>2022-12-15T13:00:56.663Z</time>
      </trkpt>
      <trkpt lat="47.57017" lon="-2.03618">
        <ele>43.512717</ele>
        <time>2022-12-15T13:00:59.606Z</time>
      </trkpt>
      <trkpt lat="47.57015" lon="-2.03602">
        <ele>43.492653</ele>
        <time>2022-12-15T13:01:02.673Z</time>
      </trkpt>
      <trkpt lat="47.57013" lon="-2.03588">
        <ele>43.473599</ele>
        <time>2022-12-15T13:01:05.600Z</time>
      </trkpt>
      <trkpt lat="47.57012" lon="-2.03572">
        <ele>43.453107</ele>
        <time>2022-12-15T13:01:08.626Z</time>
      </trkpt>
      <trkpt lat="47.5701" lon="-2.03554">
        <ele>43.430441</ele>
        <time>2022-12-15T13:01:11.610Z</time>
      </trkpt>
      <trkpt lat="47.57009" lon="-2.03536">
        <ele>43.406917</ele>
        <time>2022-12-15T13:01:14.672Z</time>
      </trkpt>
      <trkpt lat="47.57008" lon="-2.03518">
        <ele>43.382879</ele>
        <time>2022-12-15T13:01:17.612Z</time>
      </trkpt>
      <trkpt lat="47.57007" lon="-2.03499">
        <ele>43.359128</ele>
        <time>2022-12-15T13:01:20.665Z</time>
      </trkpt>
      <trkpt lat="47.57006" lon="-2.0348">
        <ele>43.334245</ele>
        <time>2022-12-15T13:01:23.598Z</time>
      </trkpt>
      <trkpt lat="47.57006" lon="-2.03461">
        <ele>43.312946</ele>
        <time>2022-12-15T13:01:26.664Z</time>
      </trkpt>
      <trkpt lat="47.57005" lon="-2.03444">
        <ele>43.308324</ele>
        <time>2022-12-15T13:01:29.607Z</time>
      </trkpt>
      <trkpt lat="47.57005" lon="-2.03427">
        <ele>43.303718</ele>
        <time>2022-12-15T13:01:32.672Z</time>
      </trkpt>
      <trkpt lat="47.57004" lon="-2.0341">
        <ele>43.299255</ele>
        <time>2022-12-15T13:01:35.612Z</time>
      </trkpt>
      <trkpt lat="47.57005" lon="-2.03396">
        <ele>43.295327</ele>
        <time>2022-12-15T13:01:38.644Z</time>
      </trkpt>
      <trkpt lat="47.57005" lon="-2.03381">
        <ele>43.291322</ele>
        <time>2022-12-15T13:01:41.609Z</time>
      </trkpt>
      <trkpt lat="47.57005" lon="-2.03362">
        <ele>43.28627</ele>
        <time>2022-12-15T13:01:44.690Z</time>
      </trkpt>
      <trkpt lat="47.57005" lon="-2.03343">
        <ele>43.28103</ele>
        <time>2022-12-15T13:01:47.606Z</time>
      </trkpt>
      <trkpt lat="47.57004" lon="-2.03325">
        <ele>43.27626</ele>
        <time>2022-12-15T13:01:50.587Z</time>
      </trkpt>
      <trkpt lat="47.57003" lon="-2.03306">
        <ele>43.271052</ele>
        <time>2022-12-15T13:01:53.587Z</time>
      </trkpt>
      <trkpt lat="47.57002" lon="-2.03289">
        <ele>43.26668</ele>
        <time>2022-12-15T13:01:56.612Z</time>
      </trkpt>
      <trkpt lat="47.57001" lon="-2.03272">
        <ele>43.262004</ele>
        <time>2022-12-15T13:01:59.611Z</time>
      </trkpt>
      <trkpt lat="47.57" lon="-2.03254">
        <ele>43.257179</ele>
        <time>2022-12-15T13:02:02.585Z</time>
      </trkpt>
      <trkpt lat="47.56998" lon="-2.03237">
        <ele>43.252561</ele>
        <time>2022-12-15T13:02:05.612Z</time>
      </trkpt>
      <trkpt lat="47.56995" lon="-2.03218">
        <ele>43.247256</ele>
        <time>2022-12-15T13:02:08.687Z</time>
      </trkpt>
      <trkpt lat="47.56992" lon="-2.032">
        <ele>43.24216</ele>
        <time>2022-12-15T13:02:11.612Z</time>
      </trkpt>
      <trkpt lat="47.56988" lon="-2.03186">
        <ele>43.296287</ele>
        <time>2022-12-15T13:02:13.614Z</time>
      </trkpt>
      <trkpt lat="47.56984" lon="-2.03168">
        <ele>43.370093</ele>
        <time>2022-12-15T13:02:16.612Z</time>
      </trkpt>
      <trkpt lat="47.56979" lon="-2.03151">
        <ele>43.437988</ele>
        <time>2022-12-15T13:02:19.610Z</time>
      </trkpt>
      <trkpt lat="47.56974" lon="-2.03135">
        <ele>43.506475</ele>
        <time>2022-12-15T13:02:22.613Z</time>
      </trkpt>
      <trkpt lat="47.56968" lon="-2.03119">
        <ele>43.575415</ele>
        <time>2022-12-15T13:02:25.614Z</time>
      </trkpt>
      <trkpt lat="47.56962" lon="-2.03106">
        <ele>43.637125</ele>
        <time>2022-12-15T13:02:28.612Z</time>
      </trkpt>
      <trkpt lat="47.56955" lon="-2.03092">
        <ele>43.704025</ele>
        <time>2022-12-15T13:02:31.605Z</time>
      </trkpt>
      <trkpt lat="47.56948" lon="-2.03078">
        <ele>43.771433</ele>
        <time>2022-12-15T13:02:34.606Z</time>
      </trkpt>
      <trkpt lat="47.5694" lon="-2.03064">
        <ele>43.837835</ele>
        <time>2022-12-15T13:02:37.602Z</time>
      </trkpt>
      <trkpt lat="47.56933" lon="-2.03052">
        <ele>43.898974</ele>
        <time>2022-12-15T13:02:40.607Z</time>
      </trkpt>
      <trkpt lat="47.56926" lon="-2.0304">
        <ele>43.963254</ele>
        <time>2022-12-15T13:02:43.602Z</time>
      </trkpt>
      <trkpt lat="47.56917" lon="-2.03028">
        <ele>44.028326</ele>
        <time>2022-12-15T13:02:46.612Z</time>
      </trkpt>
      <trkpt lat="47.56909" lon="-2.03016">
        <ele>44.094797</ele>
        <time>2022-12-15T13:02:49.611Z</time>
      </trkpt>
      <trkpt lat="47.569" lon="-2.03006">
        <ele>44.154583</ele>
        <time>2022-12-15T13:02:52.604Z</time>
      </trkpt>
      <trkpt lat="47.5689" lon="-2.02994">
        <ele>44.229868</ele>
        <time>2022-12-15T13:02:55.611Z</time>
      </trkpt>
      <trkpt lat="47.5688" lon="-2.02983">
        <ele>44.216214</ele>
        <time>2022-12-15T13:02:58.612Z</time>
      </trkpt>
      <trkpt lat="47.56873" lon="-2.02973">
        <ele>44.163541</ele>
        <time>2022-12-15T13:03:00.611Z</time>
      </trkpt>
      <trkpt lat="47.56864" lon="-2.02962">
        <ele>44.097151</ele>
        <time>2022-12-15T13:03:03.674Z</time>
      </trkpt>
      <trkpt lat="47.56856" lon="-2.02952">
        <ele>44.034705</ele>
        <time>2022-12-15T13:03:06.612Z</time>
      </trkpt>
      <trkpt lat="47.56848" lon="-2.02942">
        <ele>43.972271</ele>
        <time>2022-12-15T13:03:09.591Z</time>
      </trkpt>
      <trkpt lat="47.5684" lon="-2.02932">
        <ele>43.913931</ele>
        <time>2022-12-15T13:03:12.610Z</time>
      </trkpt>
      <trkpt lat="47.56831" lon="-2.02924">
        <ele>43.854666</ele>
        <time>2022-12-15T13:03:15.602Z</time>
      </trkpt>
      <trkpt lat="47.56823" lon="-2.02915">
        <ele>43.797799</ele>
        <time>2022-12-15T13:03:18.614Z</time>
      </trkpt>
      <trkpt lat="47.56815" lon="-2.02905">
        <ele>43.738519</ele>
        <time>2022-12-15T13:03:21.592Z</time>
      </trkpt>
      <trkpt lat="47.56808" lon="-2.02897">
        <ele>43.682811</ele>
        <time>2022-12-15T13:03:24.592Z</time>
      </trkpt>
      <trkpt lat="47.56799" lon="-2.02886">
        <ele>43.617314</ele>
        <time>2022-12-15T13:03:28.592Z</time>
      </trkpt>
      <trkpt lat="47.56791" lon="-2.02875">
        <ele>43.555207</ele>
        <time>2022-12-15T13:03:32.613Z</time>
      </trkpt>
      <trkpt lat="47.56784" lon="-2.02866">
        <ele>43.501016</ele>
        <time>2022-12-15T13:03:35.593Z</time>
      </trkpt>
      <trkpt lat="47.56778" lon="-2.02855">
        <ele>43.448098</ele>
        <time>2022-12-15T13:03:38.614Z</time>
      </trkpt>
      <trkpt lat="47.5677" lon="-2.02841">
        <ele>43.376101</ele>
        <time>2022-12-15T13:03:41.616Z</time>
      </trkpt>
      <trkpt lat="47.56762" lon="-2.02826">
        <ele>43.30265</ele>
        <time>2022-12-15T13:03:44.582Z</time>
      </trkpt>
      <trkpt lat="47.56756" lon="-2.02812">
        <ele>43.237961</ele>
        <time>2022-12-15T13:03:47.612Z</time>
      </trkpt>
      <trkpt lat="47.5675" lon="-2.02797">
        <ele>43.131158</ele>
        <time>2022-12-15T13:03:50.612Z</time>
      </trkpt>
      <trkpt lat="47.56745" lon="-2.02782">
        <ele>43.01995</ele>
        <time>2022-12-15T13:03:53.609Z</time>
      </trkpt>
      <trkpt lat="47.56741" lon="-2.02765">
        <ele>42.904593</ele>
        <time>2022-12-15T13:03:56.613Z</time>
      </trkpt>
      <trkpt lat="47.56738" lon="-2.02751">
        <ele>42.800043</ele>
        <time>2022-12-15T13:03:59.610Z</time>
      </trkpt>
      <trkpt lat="47.56735" lon="-2.02737">
        <ele>42.704601</ele>
        <time>2022-12-15T13:04:02.602Z</time>
      </trkpt>
      <trkpt lat="47.56731" lon="-2.02722">
        <ele>42.597199</ele>
        <time>2022-12-15T13:04:05.607Z</time>
      </trkpt>
      <trkpt lat="47.56729" lon="-2.02707">
        <ele>42.497114</ele>
        <time>2022-12-15T13:04:08.595Z</time>
      </trkpt>
      <trkpt lat="47.56726" lon="-2.0269">
        <ele>42.38232</ele>
        <time>2022-12-15T13:04:11.612Z</time>
      </trkpt>
      <trkpt lat="47.56724" lon="-2.02671">
        <ele>42.252343</ele>
        <time>2022-12-15T13:04:14.612Z</time>
      </trkpt>
      <trkpt lat="47.56721" lon="-2.02654">
        <ele>42.135181</ele>
        <time>2022-12-15T13:04:17.608Z</time>
      </trkpt>
      <trkpt lat="47.56719" lon="-2.02636">
        <ele>42.015724</ele>
        <time>2022-12-15T13:04:20.607Z</time>
      </trkpt>
      <trkpt lat="47.56717" lon="-2.02622">
        <ele>41.923133</ele>
        <time>2022-12-15T13:04:22.610Z</time>
      </trkpt>
      <trkpt lat="47.56715" lon="-2.02605">
        <ele>41.807916</ele>
        <time>2022-12-15T13:04:25.611Z</time>
      </trkpt>
      <trkpt lat="47.56712" lon="-2.02589">
        <ele>41.69486</ele>
        <time>2022-12-15T13:04:28.613Z</time>
      </trkpt>
      <trkpt lat="47.5671" lon="-2.02574">
        <ele>41.59173</ele>
        <time>2022-12-15T13:04:31.612Z</time>
      </trkpt>
      <trkpt lat="47.56708" lon="-2.0256">
        <ele>41.499178</ele>
        <time>2022-12-15T13:04:33.622Z</time>
      </trkpt>
      <trkpt lat="47.56706" lon="-2.02546">
        <ele>41.517727</ele>
        <time>2022-12-15T13:04:35.601Z</time>
      </trkpt>
      <trkpt lat="47.56704" lon="-2.0253">
        <ele>41.644705</ele>
        <time>2022-12-15T13:04:37.614Z</time>
      </trkpt>
      <trkpt lat="47.56702" lon="-2.02517">
        <ele>41.758754</ele>
        <time>2022-12-15T13:04:39.613Z</time>
      </trkpt>
      <trkpt lat="47.567" lon="-2.02503">
        <ele>41.874284</ele>
        <time>2022-12-15T13:04:41.590Z</time>
      </trkpt>
      <trkpt lat="47.56698" lon="-2.0249">
        <ele>41.986328</ele>
        <time>2022-12-15T13:04:43.602Z</time>
      </trkpt>
      <trkpt lat="47.56696" lon="-2.02475">
        <ele>42.112782</ele>
        <time>2022-12-15T13:04:46.616Z</time>
      </trkpt>
      <trkpt lat="47.56694" lon="-2.02461">
        <ele>42.227639</ele>
        <time>2022-12-15T13:04:49.608Z</time>
      </trkpt>
      <trkpt lat="47.56692" lon="-2.02444">
        <ele>42.368017</ele>
        <time>2022-12-15T13:04:52.606Z</time>
      </trkpt>
      <trkpt lat="47.5669" lon="-2.02429">
        <ele>42.495796</ele>
        <time>2022-12-15T13:04:55.606Z</time>
      </trkpt>
      <trkpt lat="47.56687" lon="-2.02412">
        <ele>42.638347</ele>
        <time>2022-12-15T13:04:58.615Z</time>
      </trkpt>
      <trkpt lat="47.56684" lon="-2.02395">
        <ele>42.778133</ele>
        <time>2022-12-15T13:05:01.610Z</time>
      </trkpt>
      <trkpt lat="47.56681" lon="-2.0238">
        <ele>42.91134</ele>
        <time>2022-12-15T13:05:04.602Z</time>
      </trkpt>
      <trkpt lat="47.56679" lon="-2.02362">
        <ele>43.061845</ele>
        <time>2022-12-15T13:05:07.605Z</time>
      </trkpt>
      <trkpt lat="47.56677" lon="-2.02345">
        <ele>43.20119</ele>
        <time>2022-12-15T13:05:10.609Z</time>
      </trkpt>
      <trkpt lat="47.56674" lon="-2.02328">
        <ele>43.343413</ele>
        <time>2022-12-15T13:05:13.603Z</time>
      </trkpt>
      <trkpt lat="47.56672" lon="-2.02311">
        <ele>43.48407</ele>
        <time>2022-12-15T13:05:16.613Z</time>
      </trkpt>
      <trkpt lat="47.56669" lon="-2.02294">
        <ele>43.627593</ele>
        <time>2022-12-15T13:05:19.614Z</time>
      </trkpt>
      <trkpt lat="47.56667" lon="-2.02277">
        <ele>43.905975</ele>
        <time>2022-12-15T13:05:22.605Z</time>
      </trkpt>
      <trkpt lat="47.56664" lon="-2.02259">
        <ele>44.195929</ele>
        <time>2022-12-15T13:05:25.608Z</time>
      </trkpt>
      <trkpt lat="47.56661" lon="-2.0224">
        <ele>44.501359</ele>
        <time>2022-12-15T13:05:28.591Z</time>
      </trkpt>
      <trkpt lat="47.56658" lon="-2.02221">
        <ele>44.815136</ele>
        <time>2022-12-15T13:05:31.610Z</time>
      </trkpt>
      <trkpt lat="47.56656" lon="-2.02203">
        <ele>45.110251</ele>
        <time>2022-12-15T13:05:34.661Z</time>
      </trkpt>
      <trkpt lat="47.56654" lon="-2.02187">
        <ele>45.373458</ele>
        <time>2022-12-15T13:05:37.598Z</time>
      </trkpt>
      <trkpt lat="47.56652" lon="-2.02173">
        <ele>45.608878</ele>
        <time>2022-12-15T13:05:40.659Z</time>
      </trkpt>
      <trkpt lat="47.56651" lon="-2.02158">
        <ele>45.846431</ele>
        <time>2022-12-15T13:05:44.613Z</time>
      </trkpt>
      <trkpt lat="47.56648" lon="-2.02144">
        <ele>46.07788</ele>
        <time>2022-12-15T13:05:49.608Z</time>
      </trkpt>
      <trkpt lat="47.56647" lon="-2.02135">
        <ele>46.230005</ele>
        <time>2022-12-15T13:06:21.046Z</time>
      </trkpt>
      <trkpt lat="47.56644" lon="-2.02119">
        <ele>46.496734</ele>
        <time>2022-12-15T13:12:42.611Z</time>
      </trkpt>
      <trkpt lat="47.56642" lon="-2.02103">
        <ele>46.757797</ele>
        <time>2022-12-15T13:12:45.593Z</time>
      </trkpt>
      <trkpt lat="47.5664" lon="-2.02087">
        <ele>47.01416</ele>
        <time>2022-12-15T13:12:48.598Z</time>
      </trkpt>
      <trkpt lat="47.56638" lon="-2.0207">
        <ele>47.288251</ele>
        <time>2022-12-15T13:12:52.610Z</time>
      </trkpt>
      <trkpt lat="47.56635" lon="-2.02057">
        <ele>47.511352</ele>
        <time>2022-12-15T13:12:55.592Z</time>
      </trkpt>
      <trkpt lat="47.56633" lon="-2.02042">
        <ele>47.747411</ele>
        <time>2022-12-15T13:12:58.611Z</time>
      </trkpt>
      <trkpt lat="47.56631" lon="-2.02029">
        <ele>47.904258</ele>
        <time>2022-12-15T13:13:01.602Z</time>
      </trkpt>
      <trkpt lat="47.56628" lon="-2.02012">
        <ele>47.868913</ele>
        <time>2022-12-15T13:13:05.597Z</time>
      </trkpt>
      <trkpt lat="47.56625" lon="-2.01994">
        <ele>47.834304</ele>
        <time>2022-12-15T13:13:08.589Z</time>
      </trkpt>
      <trkpt lat="47.56622" lon="-2.01975">
        <ele>47.795905</ele>
        <time>2022-12-15T13:13:11.610Z</time>
      </trkpt>
      <trkpt lat="47.5662" lon="-2.01958">
        <ele>47.760533</ele>
        <time>2022-12-15T13:13:14.600Z</time>
      </trkpt>
      <trkpt lat="47.56617" lon="-2.01942">
        <ele>47.729054</ele>
        <time>2022-12-15T13:13:17.603Z</time>
      </trkpt>
      <trkpt lat="47.56615" lon="-2.01929">
        <ele>47.702419</ele>
        <time>2022-12-15T13:13:19.623Z</time>
      </trkpt>
      <trkpt lat="47.56613" lon="-2.01916">
        <ele>47.676229</ele>
        <time>2022-12-15T13:13:21.609Z</time>
      </trkpt>
      <trkpt lat="47.56611" lon="-2.01896">
        <ele>47.637777</ele>
        <time>2022-12-15T13:13:24.601Z</time>
      </trkpt>
      <trkpt lat="47.56608" lon="-2.01877">
        <ele>47.599632</ele>
        <time>2022-12-15T13:13:27.608Z</time>
      </trkpt>
      <trkpt lat="47.56606" lon="-2.0186">
        <ele>47.565301</ele>
        <time>2022-12-15T13:13:30.609Z</time>
      </trkpt>
      <trkpt lat="47.56604" lon="-2.01846">
        <ele>47.537459</ele>
        <time>2022-12-15T13:13:32.609Z</time>
      </trkpt>
      <trkpt lat="47.56602" lon="-2.01833">
        <ele>47.511077</ele>
        <time>2022-12-15T13:13:34.607Z</time>
      </trkpt>
      <trkpt lat="47.566" lon="-2.01819">
        <ele>47.484187</ele>
        <time>2022-12-15T13:13:36.603Z</time>
      </trkpt>
      <trkpt lat="47.56597" lon="-2.01801">
        <ele>47.447364</ele>
        <time>2022-12-15T13:13:39.614Z</time>
      </trkpt>
      <trkpt lat="47.56596" lon="-2.01787">
        <ele>47.419314</ele>
        <time>2022-12-15T13:13:41.606Z</time>
      </trkpt>
      <trkpt lat="47.56593" lon="-2.01774">
        <ele>47.392805</ele>
        <time>2022-12-15T13:13:43.590Z</time>
      </trkpt>
      <trkpt lat="47.5659" lon="-2.01755">
        <ele>47.473328</ele>
        <time>2022-12-15T13:13:46.604Z</time>
      </trkpt>
      <trkpt lat="47.56587" lon="-2.01737">
        <ele>47.56361</ele>
        <time>2022-12-15T13:13:49.612Z</time>
      </trkpt>
      <trkpt lat="47.56585" lon="-2.01719">
        <ele>47.65128</ele>
        <time>2022-12-15T13:13:52.610Z</time>
      </trkpt>
      <trkpt lat="47.56582" lon="-2.01701">
        <ele>47.739058</ele>
        <time>2022-12-15T13:13:55.602Z</time>
      </trkpt>
      <trkpt lat="47.56579" lon="-2.01683">
        <ele>47.830014</ele>
        <time>2022-12-15T13:13:58.610Z</time>
      </trkpt>
      <trkpt lat="47.56576" lon="-2.01666">
        <ele>47.914379</ele>
        <time>2022-12-15T13:14:01.605Z</time>
      </trkpt>
      <trkpt lat="47.56573" lon="-2.01648">
        <ele>48.001079</ele>
        <time>2022-12-15T13:14:04.608Z</time>
      </trkpt>
      <trkpt lat="47.5657" lon="-2.0163">
        <ele>48.090585</ele>
        <time>2022-12-15T13:14:07.601Z</time>
      </trkpt>
      <trkpt lat="47.56567" lon="-2.01612">
        <ele>48.179965</ele>
        <time>2022-12-15T13:14:10.601Z</time>
      </trkpt>
      <trkpt lat="47.56565" lon="-2.01594">
        <ele>48.269152</ele>
        <time>2022-12-15T13:14:13.631Z</time>
      </trkpt>
      <trkpt lat="47.56563" lon="-2.01579">
        <ele>48.341981</ele>
        <time>2022-12-15T13:14:16.613Z</time>
      </trkpt>
      <trkpt lat="47.56561" lon="-2.01563">
        <ele>48.421093</ele>
        <time>2022-12-15T13:14:19.593Z</time>
      </trkpt>
      <trkpt lat="47.56559" lon="-2.01548">
        <ele>48.493242</ele>
        <time>2022-12-15T13:14:22.610Z</time>
      </trkpt>
      <trkpt lat="47.56556" lon="-2.01531">
        <ele>48.580249</ele>
        <time>2022-12-15T13:14:25.610Z</time>
      </trkpt>
      <trkpt lat="47.56554" lon="-2.01513">
        <ele>48.665372</ele>
        <time>2022-12-15T13:14:28.610Z</time>
      </trkpt>
      <trkpt lat="47.56551" lon="-2.01497">
        <ele>48.707407</ele>
        <time>2022-12-15T13:14:31.610Z</time>
      </trkpt>
      <trkpt lat="47.56548" lon="-2.01479">
        <ele>48.749745</ele>
        <time>2022-12-15T13:14:34.611Z</time>
      </trkpt>
      <trkpt lat="47.56544" lon="-2.01466">
        <ele>48.779778</ele>
        <time>2022-12-15T13:14:36.605Z</time>
      </trkpt>
      <trkpt lat="47.5654" lon="-2.01448">
        <ele>48.823703</ele>
        <time>2022-12-15T13:14:39.602Z</time>
      </trkpt>
      <trkpt lat="47.56535" lon="-2.01431">
        <ele>48.865761</ele>
        <time>2022-12-15T13:14:42.608Z</time>
      </trkpt>
      <trkpt lat="47.5653" lon="-2.01413">
        <ele>48.909226</ele>
        <time>2022-12-15T13:14:45.612Z</time>
      </trkpt>
      <trkpt lat="47.56524" lon="-2.01395">
        <ele>48.953721</ele>
        <time>2022-12-15T13:14:48.600Z</time>
      </trkpt>
      <trkpt lat="47.56519" lon="-2.01378">
        <ele>48.995749</ele>
        <time>2022-12-15T13:14:51.612Z</time>
      </trkpt>
      <trkpt lat="47.56512" lon="-2.01361">
        <ele>49.041355</ele>
        <time>2022-12-15T13:14:54.609Z</time>
      </trkpt>
      <trkpt lat="47.56505" lon="-2.01344">
        <ele>49.085291</ele>
        <time>2022-12-15T13:14:57.601Z</time>
      </trkpt>
      <trkpt lat="47.56498" lon="-2.01327">
        <ele>49.131115</ele>
        <time>2022-12-15T13:15:00.597Z</time>
      </trkpt>
      <trkpt lat="47.56492" lon="-2.01316">
        <ele>49.162172</ele>
        <time>2022-12-15T13:15:02.618Z</time>
      </trkpt>
      <trkpt lat="47.56487" lon="-2.01305">
        <ele>49.194534</ele>
        <time>2022-12-15T13:15:04.612Z</time>
      </trkpt>
      <trkpt lat="47.56481" lon="-2.01294">
        <ele>49.225101</ele>
        <time>2022-12-15T13:15:06.602Z</time>
      </trkpt>
      <trkpt lat="47.56475" lon="-2.01284">
        <ele>49.255959</ele>
        <time>2022-12-15T13:15:08.612Z</time>
      </trkpt>
      <trkpt lat="47.56467" lon="-2.01268">
        <ele>49.247775</ele>
        <time>2022-12-15T13:15:11.612Z</time>
      </trkpt>
      <trkpt lat="47.56461" lon="-2.01257">
        <ele>49.215549</ele>
        <time>2022-12-15T13:15:13.594Z</time>
      </trkpt>
      <trkpt lat="47.56452" lon="-2.01242">
        <ele>49.171922</ele>
        <time>2022-12-15T13:15:16.612Z</time>
      </trkpt>
      <trkpt lat="47.56445" lon="-2.01228">
        <ele>49.133689</ele>
        <time>2022-12-15T13:15:19.616Z</time>
      </trkpt>
      <trkpt lat="47.56437" lon="-2.01212">
        <ele>49.090696</ele>
        <time>2022-12-15T13:15:22.616Z</time>
      </trkpt>
      <trkpt lat="47.5643" lon="-2.01198">
        <ele>49.051689</ele>
        <time>2022-12-15T13:15:25.618Z</time>
      </trkpt>
      <trkpt lat="47.56423" lon="-2.01185">
        <ele>49.013403</ele>
        <time>2022-12-15T13:15:28.605Z</time>
      </trkpt>
      <trkpt lat="47.56414" lon="-2.01171">
        <ele>48.972179</ele>
        <time>2022-12-15T13:15:31.612Z</time>
      </trkpt>
      <trkpt lat="47.56409" lon="-2.0116">
        <ele>48.94249</ele>
        <time>2022-12-15T13:15:33.592Z</time>
      </trkpt>
      <trkpt lat="47.564" lon="-2.01145">
        <ele>48.899882</ele>
        <time>2022-12-15T13:15:36.611Z</time>
      </trkpt>
      <trkpt lat="47.56392" lon="-2.01131">
        <ele>48.858749</ele>
        <time>2022-12-15T13:15:39.608Z</time>
      </trkpt>
      <trkpt lat="47.56387" lon="-2.0112">
        <ele>48.828763</ele>
        <time>2022-12-15T13:15:41.603Z</time>
      </trkpt>
      <trkpt lat="47.56379" lon="-2.01104">
        <ele>48.785615</ele>
        <time>2022-12-15T13:15:44.607Z</time>
      </trkpt>
      <trkpt lat="47.56373" lon="-2.01093">
        <ele>48.753962</ele>
        <time>2022-12-15T13:15:46.612Z</time>
      </trkpt>
      <trkpt lat="47.56367" lon="-2.01082">
        <ele>48.722889</ele>
        <time>2022-12-15T13:15:48.608Z</time>
      </trkpt>
      <trkpt lat="47.5636" lon="-2.01072">
        <ele>48.692861</ele>
        <time>2022-12-15T13:15:50.591Z</time>
      </trkpt>
      <trkpt lat="47.56355" lon="-2.01061">
        <ele>48.648767</ele>
        <time>2022-12-15T13:15:52.603Z</time>
      </trkpt>
      <trkpt lat="47.56347" lon="-2.01048">
        <ele>48.58815</ele>
        <time>2022-12-15T13:15:55.612Z</time>
      </trkpt>
      <trkpt lat="47.56339" lon="-2.01035">
        <ele>48.529672</ele>
        <time>2022-12-15T13:15:58.602Z</time>
      </trkpt>
      <trkpt lat="47.56332" lon="-2.01021">
        <ele>48.468355</ele>
        <time>2022-12-15T13:16:01.610Z</time>
      </trkpt>
      <trkpt lat="47.56323" lon="-2.01006">
        <ele>48.399809</ele>
        <time>2022-12-15T13:16:04.612Z</time>
      </trkpt>
      <trkpt lat="47.56315" lon="-2.0099">
        <ele>48.331446</ele>
        <time>2022-12-15T13:16:07.611Z</time>
      </trkpt>
      <trkpt lat="47.56308" lon="-2.00975">
        <ele>48.267744</ele>
        <time>2022-12-15T13:16:10.609Z</time>
      </trkpt>
      <trkpt lat="47.563" lon="-2.0096">
        <ele>48.201872</ele>
        <time>2022-12-15T13:16:13.594Z</time>
      </trkpt>
      <trkpt lat="47.56292" lon="-2.00945">
        <ele>48.136218</ele>
        <time>2022-12-15T13:16:16.611Z</time>
      </trkpt>
      <trkpt lat="47.56284" lon="-2.00934">
        <ele>48.08076</ele>
        <time>2022-12-15T13:16:19.603Z</time>
      </trkpt>
      <trkpt lat="47.56276" lon="-2.0092">
        <ele>48.015441</ele>
        <time>2022-12-15T13:16:22.611Z</time>
      </trkpt>
      <trkpt lat="47.56268" lon="-2.00907">
        <ele>47.95397</ele>
        <time>2022-12-15T13:16:26.612Z</time>
      </trkpt>
      <trkpt lat="47.56259" lon="-2.00895">
        <ele>47.896218</ele>
        <time>2022-12-15T13:16:29.604Z</time>
      </trkpt>
      <trkpt lat="47.56251" lon="-2.00883">
        <ele>47.838811</ele>
        <time>2022-12-15T13:16:31.608Z</time>
      </trkpt>
      <trkpt lat="47.56244" lon="-2.00873">
        <ele>47.787235</ele>
        <time>2022-12-15T13:16:33.595Z</time>
      </trkpt>
      <trkpt lat="47.56237" lon="-2.00863">
        <ele>47.759643</ele>
        <time>2022-12-15T13:16:35.612Z</time>
      </trkpt>
      <trkpt lat="47.56228" lon="-2.0085">
        <ele>47.741312</ele>
        <time>2022-12-15T13:16:38.600Z</time>
      </trkpt>
      <trkpt lat="47.56217" lon="-2.00838">
        <ele>47.722783</ele>
        <time>2022-12-15T13:16:41.613Z</time>
      </trkpt>
      <trkpt lat="47.5621" lon="-2.00829">
        <ele>47.709938</ele>
        <time>2022-12-15T13:16:43.595Z</time>
      </trkpt>
      <trkpt lat="47.56202" lon="-2.0082">
        <ele>47.69512</ele>
        <time>2022-12-15T13:16:45.609Z</time>
      </trkpt>
      <trkpt lat="47.56195" lon="-2.00812">
        <ele>47.681946</ele>
        <time>2022-12-15T13:16:47.609Z</time>
      </trkpt>
      <trkpt lat="47.56183" lon="-2.008">
        <ele>47.662867</ele>
        <time>2022-12-15T13:16:50.593Z</time>
      </trkpt>
      <trkpt lat="47.56173" lon="-2.0079">
        <ele>47.64479</ele>
        <time>2022-12-15T13:16:53.593Z</time>
      </trkpt>
      <trkpt lat="47.56162" lon="-2.0078">
        <ele>47.62738</ele>
        <time>2022-12-15T13:16:56.609Z</time>
      </trkpt>
      <trkpt lat="47.56152" lon="-2.0077">
        <ele>47.609132</ele>
        <time>2022-12-15T13:16:59.601Z</time>
      </trkpt>
      <trkpt lat="47.56144" lon="-2.00762">
        <ele>47.596321</ele>
        <time>2022-12-15T13:17:01.609Z</time>
      </trkpt>
      <trkpt lat="47.56136" lon="-2.00756">
        <ele>47.583647</ele>
        <time>2022-12-15T13:17:03.591Z</time>
      </trkpt>
      <trkpt lat="47.56124" lon="-2.00747">
        <ele>47.564631</ele>
        <time>2022-12-15T13:17:06.608Z</time>
      </trkpt>
      <trkpt lat="47.56112" lon="-2.00738">
        <ele>47.546219</ele>
        <time>2022-12-15T13:17:09.619Z</time>
      </trkpt>
      <trkpt lat="47.56104" lon="-2.00732">
        <ele>47.533427</ele>
        <time>2022-12-15T13:17:11.613Z</time>
      </trkpt>
      <trkpt lat="47.56096" lon="-2.00727">
        <ele>47.520632</ele>
        <time>2022-12-15T13:17:13.592Z</time>
      </trkpt>
      <trkpt lat="47.56084" lon="-2.00718">
        <ele>47.550828</ele>
        <time>2022-12-15T13:17:16.613Z</time>
      </trkpt>
      <trkpt lat="47.56075" lon="-2.00711">
        <ele>47.594394</ele>
        <time>2022-12-15T13:17:18.601Z</time>
      </trkpt>
      <trkpt lat="47.56066" lon="-2.00703">
        <ele>47.638</ele>
        <time>2022-12-15T13:17:20.613Z</time>
      </trkpt>
      <trkpt lat="47.56058" lon="-2.00697">
        <ele>47.677287</ele>
        <time>2022-12-15T13:17:22.616Z</time>
      </trkpt>
      <trkpt lat="47.56047" lon="-2.00689">
        <ele>47.732733</ele>
        <time>2022-12-15T13:17:25.607Z</time>
      </trkpt>
      <trkpt lat="47.56036" lon="-2.00682">
        <ele>47.784574</ele>
        <time>2022-12-15T13:17:28.621Z</time>
      </trkpt>
      <trkpt lat="47.56024" lon="-2.00674">
        <ele>47.83846</ele>
        <time>2022-12-15T13:17:31.609Z</time>
      </trkpt>
      <trkpt lat="47.56013" lon="-2.00665">
        <ele>47.894289</ele>
        <time>2022-12-15T13:17:34.620Z</time>
      </trkpt>
      <trkpt lat="47.56001" lon="-2.00657">
        <ele>47.951034</ele>
        <time>2022-12-15T13:17:37.612Z</time>
      </trkpt>
      <trkpt lat="47.5599" lon="-2.00648">
        <ele>48.006478</ele>
        <time>2022-12-15T13:17:40.612Z</time>
      </trkpt>
      <trkpt lat="47.55978" lon="-2.0064">
        <ele>48.060881</ele>
        <time>2022-12-15T13:17:43.592Z</time>
      </trkpt>
      <trkpt lat="47.55967" lon="-2.00632">
        <ele>48.11438</ele>
        <time>2022-12-15T13:17:46.603Z</time>
      </trkpt>
      <trkpt lat="47.55956" lon="-2.00624">
        <ele>48.169852</ele>
        <time>2022-12-15T13:17:49.612Z</time>
      </trkpt>
      <trkpt lat="47.55944" lon="-2.00616">
        <ele>48.223612</ele>
        <time>2022-12-15T13:17:52.613Z</time>
      </trkpt>
      <trkpt lat="47.55933" lon="-2.00608">
        <ele>48.276855</ele>
        <time>2022-12-15T13:17:55.613Z</time>
      </trkpt>
      <trkpt lat="47.55921" lon="-2.006">
        <ele>48.24103</ele>
        <time>2022-12-15T13:17:58.610Z</time>
      </trkpt>
      <trkpt lat="47.55909" lon="-2.00592">
        <ele>48.17985</ele>
        <time>2022-12-15T13:18:01.614Z</time>
      </trkpt>
      <trkpt lat="47.559" lon="-2.00585">
        <ele>48.128467</ele>
        <time>2022-12-15T13:18:04.611Z</time>
      </trkpt>
      <trkpt lat="47.55888" lon="-2.00577">
        <ele>48.067869</ele>
        <time>2022-12-15T13:18:07.616Z</time>
      </trkpt>
      <trkpt lat="47.55877" lon="-2.00569">
        <ele>48.006493</ele>
        <time>2022-12-15T13:18:10.611Z</time>
      </trkpt>
      <trkpt lat="47.55867" lon="-2.00562">
        <ele>47.952974</ele>
        <time>2022-12-15T13:18:13.592Z</time>
      </trkpt>
      <trkpt lat="47.55858" lon="-2.00556">
        <ele>47.905822</ele>
        <time>2022-12-15T13:18:16.608Z</time>
      </trkpt>
      <trkpt lat="47.5585" lon="-2.00549">
        <ele>47.858862</ele>
        <time>2022-12-15T13:18:19.609Z</time>
      </trkpt>
      <trkpt lat="47.5584" lon="-2.00542">
        <ele>47.804918</ele>
        <time>2022-12-15T13:18:22.618Z</time>
      </trkpt>
      <trkpt lat="47.5583" lon="-2.00534">
        <ele>47.752271</ele>
        <time>2022-12-15T13:18:25.605Z</time>
      </trkpt>
      <trkpt lat="47.55819" lon="-2.00527">
        <ele>47.693977</ele>
        <time>2022-12-15T13:18:28.613Z</time>
      </trkpt>
      <trkpt lat="47.55808" lon="-2.00519">
        <ele>47.63626</ele>
        <time>2022-12-15T13:18:31.621Z</time>
      </trkpt>
      <trkpt lat="47.55797" lon="-2.00512">
        <ele>47.575273</ele>
        <time>2022-12-15T13:18:34.600Z</time>
      </trkpt>
      <trkpt lat="47.55785" lon="-2.00503">
        <ele>47.513229</ele>
        <time>2022-12-15T13:18:37.611Z</time>
      </trkpt>
      <trkpt lat="47.55774" lon="-2.00494">
        <ele>47.450295</ele>
        <time>2022-12-15T13:18:40.614Z</time>
      </trkpt>
      <trkpt lat="47.55766" lon="-2.00488">
        <ele>47.434638</ele>
        <time>2022-12-15T13:18:42.599Z</time>
      </trkpt>
      <trkpt lat="47.55755" lon="-2.00477">
        <ele>47.495791</ele>
        <time>2022-12-15T13:18:45.616Z</time>
      </trkpt>
      <trkpt lat="47.55744" lon="-2.00466">
        <ele>47.557504</ele>
        <time>2022-12-15T13:18:48.600Z</time>
      </trkpt>
      <trkpt lat="47.55733" lon="-2.00454">
        <ele>47.620475</ele>
        <time>2022-12-15T13:18:51.600Z</time>
      </trkpt>
      <trkpt lat="47.55725" lon="-2.00446">
        <ele>47.66467</ele>
        <time>2022-12-15T13:18:53.599Z</time>
      </trkpt>
      <trkpt lat="47.55717" lon="-2.00438">
        <ele>47.707187</ele>
        <time>2022-12-15T13:18:55.595Z</time>
      </trkpt>
      <trkpt lat="47.5571" lon="-2.00431">
        <ele>47.748682</ele>
        <time>2022-12-15T13:18:57.614Z</time>
      </trkpt>
      <trkpt lat="47.55698" lon="-2.00423">
        <ele>47.810354</ele>
        <time>2022-12-15T13:19:00.601Z</time>
      </trkpt>
      <trkpt lat="47.55686" lon="-2.00415">
        <ele>47.87277</ele>
        <time>2022-12-15T13:19:03.593Z</time>
      </trkpt>
      <trkpt lat="47.55677" lon="-2.0041">
        <ele>47.916474</ele>
        <time>2022-12-15T13:19:05.617Z</time>
      </trkpt>
      <trkpt lat="47.55665" lon="-2.00403">
        <ele>47.977572</ele>
        <time>2022-12-15T13:19:08.616Z</time>
      </trkpt>
      <trkpt lat="47.55654" lon="-2.00399">
        <ele>48.025972</ele>
        <time>2022-12-15T13:19:11.612Z</time>
      </trkpt>
      <trkpt lat="47.55645" lon="-2.00394">
        <ele>48.070653</ele>
        <time>2022-12-15T13:19:15.613Z</time>
      </trkpt>
      <trkpt lat="47.55635" lon="-2.00389">
        <ele>48.122762</ele>
        <time>2022-12-15T13:19:19.593Z</time>
      </trkpt>
      <trkpt lat="47.55623" lon="-2.00384">
        <ele>48.181097</ele>
        <time>2022-12-15T13:19:22.610Z</time>
      </trkpt>
      <trkpt lat="47.55611" lon="-2.00379">
        <ele>48.238096</ele>
        <time>2022-12-15T13:19:25.612Z</time>
      </trkpt>
      <trkpt lat="47.55598" lon="-2.00374">
        <ele>48.201639</ele>
        <time>2022-12-15T13:19:28.622Z</time>
      </trkpt>
      <trkpt lat="47.55585" lon="-2.00371">
        <ele>48.129043</ele>
        <time>2022-12-15T13:19:31.609Z</time>
      </trkpt>
      <trkpt lat="47.55572" lon="-2.00368">
        <ele>48.055208</ele>
        <time>2022-12-15T13:19:34.613Z</time>
      </trkpt>
      <trkpt lat="47.55559" lon="-2.00366">
        <ele>47.982838</ele>
        <time>2022-12-15T13:19:37.615Z</time>
      </trkpt>
      <trkpt lat="47.55546" lon="-2.00364">
        <ele>47.908041</ele>
        <time>2022-12-15T13:19:40.612Z</time>
      </trkpt>
      <trkpt lat="47.55537" lon="-2.00363">
        <ele>47.8571</ele>
        <time>2022-12-15T13:19:42.611Z</time>
      </trkpt>
      <trkpt lat="47.55523" lon="-2.00363">
        <ele>47.783386</ele>
        <time>2022-12-15T13:19:45.617Z</time>
      </trkpt>
      <trkpt lat="47.55512" lon="-2.00363">
        <ele>47.72196</ele>
        <time>2022-12-15T13:19:48.613Z</time>
      </trkpt>
      <trkpt lat="47.55501" lon="-2.00363">
        <ele>47.659989</ele>
        <time>2022-12-15T13:19:51.613Z</time>
      </trkpt>
      <trkpt lat="47.5549" lon="-2.00362">
        <ele>47.599097</ele>
        <time>2022-12-15T13:19:54.600Z</time>
      </trkpt>
      <trkpt lat="47.5548" lon="-2.00362">
        <ele>47.540994</ele>
        <time>2022-12-15T13:19:57.600Z</time>
      </trkpt>
      <trkpt lat="47.55467" lon="-2.00361">
        <ele>47.470014</ele>
        <time>2022-12-15T13:20:00.611Z</time>
      </trkpt>
      <trkpt lat="47.55455" lon="-2.00359">
        <ele>47.40056</ele>
        <time>2022-12-15T13:20:03.591Z</time>
      </trkpt>
      <trkpt lat="47.55443" lon="-2.00357">
        <ele>47.334213</ele>
        <time>2022-12-15T13:20:06.619Z</time>
      </trkpt>
      <trkpt lat="47.55432" lon="-2.00354">
        <ele>47.272414</ele>
        <time>2022-12-15T13:20:09.611Z</time>
      </trkpt>
      <trkpt lat="47.55422" lon="-2.00351">
        <ele>47.203781</ele>
        <time>2022-12-15T13:20:12.618Z</time>
      </trkpt>
      <trkpt lat="47.55412" lon="-2.00349">
        <ele>47.139908</ele>
        <time>2022-12-15T13:20:14.610Z</time>
      </trkpt>
      <trkpt lat="47.55403" lon="-2.00346">
        <ele>47.077587</ele>
        <time>2022-12-15T13:20:16.596Z</time>
      </trkpt>
      <trkpt lat="47.5539" lon="-2.00339">
        <ele>46.989057</ele>
        <time>2022-12-15T13:20:19.621Z</time>
      </trkpt>
      <trkpt lat="47.55382" lon="-2.00333">
        <ele>46.925192</ele>
        <time>2022-12-15T13:20:21.602Z</time>
      </trkpt>
      <trkpt lat="47.55369" lon="-2.00324">
        <ele>46.835152</ele>
        <time>2022-12-15T13:20:24.610Z</time>
      </trkpt>
      <trkpt lat="47.55361" lon="-2.00318">
        <ele>46.774665</ele>
        <time>2022-12-15T13:20:26.608Z</time>
      </trkpt>
      <trkpt lat="47.5535" lon="-2.00309">
        <ele>46.687802</ele>
        <time>2022-12-15T13:20:29.616Z</time>
      </trkpt>
      <trkpt lat="47.55338" lon="-2.003">
        <ele>46.598905</ele>
        <time>2022-12-15T13:20:32.613Z</time>
      </trkpt>
      <trkpt lat="47.55327" lon="-2.00291">
        <ele>46.51407</ele>
        <time>2022-12-15T13:20:35.613Z</time>
      </trkpt>
      <trkpt lat="47.55316" lon="-2.00283">
        <ele>46.436528</ele>
        <time>2022-12-15T13:20:38.596Z</time>
      </trkpt>
      <trkpt lat="47.55306" lon="-2.00276">
        <ele>46.364339</ele>
        <time>2022-12-15T13:20:41.613Z</time>
      </trkpt>
      <trkpt lat="47.55298" lon="-2.0027">
        <ele>46.303219</ele>
        <time>2022-12-15T13:20:44.611Z</time>
      </trkpt>
      <trkpt lat="47.55289" lon="-2.00265">
        <ele>46.242368</ele>
        <time>2022-12-15T13:20:47.616Z</time>
      </trkpt>
      <trkpt lat="47.55279" lon="-2.0026">
        <ele>46.170033</ele>
        <time>2022-12-15T13:20:50.597Z</time>
      </trkpt>
      <trkpt lat="47.55268" lon="-2.00254">
        <ele>46.093481</ele>
        <time>2022-12-15T13:20:53.593Z</time>
      </trkpt>
      <trkpt lat="47.55257" lon="-2.00248">
        <ele>45.978638</ele>
        <time>2022-12-15T13:20:56.619Z</time>
      </trkpt>
      <trkpt lat="47.55246" lon="-2.00243">
        <ele>45.841581</ele>
        <time>2022-12-15T13:20:59.600Z</time>
      </trkpt>
      <trkpt lat="47.55233" lon="-2.00238">
        <ele>45.6925</ele>
        <time>2022-12-15T13:21:02.615Z</time>
      </trkpt>
      <trkpt lat="47.55222" lon="-2.00232">
        <ele>45.55372</ele>
        <time>2022-12-15T13:21:05.614Z</time>
      </trkpt>
      <trkpt lat="47.55211" lon="-2.00226">
        <ele>45.41011</ele>
        <time>2022-12-15T13:21:08.603Z</time>
      </trkpt>
      <trkpt lat="47.55199" lon="-2.0022">
        <ele>45.270585</ele>
        <time>2022-12-15T13:21:11.613Z</time>
      </trkpt>
      <trkpt lat="47.55188" lon="-2.00214">
        <ele>45.127811</ele>
        <time>2022-12-15T13:21:14.610Z</time>
      </trkpt>
      <trkpt lat="47.55176" lon="-2.00208">
        <ele>44.980885</ele>
        <time>2022-12-15T13:21:17.610Z</time>
      </trkpt>
      <trkpt lat="47.55164" lon="-2.00202">
        <ele>44.831235</ele>
        <time>2022-12-15T13:21:20.614Z</time>
      </trkpt>
      <trkpt lat="47.55152" lon="-2.00196">
        <ele>44.682343</ele>
        <time>2022-12-15T13:21:23.592Z</time>
      </trkpt>
      <trkpt lat="47.5514" lon="-2.00191">
        <ele>44.540913</ele>
        <time>2022-12-15T13:21:26.592Z</time>
      </trkpt>
      <trkpt lat="47.55128" lon="-2.00185">
        <ele>44.394325</ele>
        <time>2022-12-15T13:21:29.616Z</time>
      </trkpt>
      <trkpt lat="47.55117" lon="-2.0018">
        <ele>44.253117</ele>
        <time>2022-12-15T13:21:32.612Z</time>
      </trkpt>
      <trkpt lat="47.55108" lon="-2.00176">
        <ele>44.146875</ele>
        <time>2022-12-15T13:21:34.611Z</time>
      </trkpt>
      <trkpt lat="47.55099" lon="-2.00172">
        <ele>44.039051</ele>
        <time>2022-12-15T13:21:36.608Z</time>
      </trkpt>
      <trkpt lat="47.55087" lon="-2.00166">
        <ele>43.962489</ele>
        <time>2022-12-15T13:21:39.606Z</time>
      </trkpt>
      <trkpt lat="47.55078" lon="-2.00162">
        <ele>43.973654</ele>
        <time>2022-12-15T13:21:41.617Z</time>
      </trkpt>
      <trkpt lat="47.55069" lon="-2.00157">
        <ele>43.984717</ele>
        <time>2022-12-15T13:21:43.595Z</time>
      </trkpt>
      <trkpt lat="47.55057" lon="-2.00152">
        <ele>44.000284</ele>
        <time>2022-12-15T13:21:46.601Z</time>
      </trkpt>
      <trkpt lat="47.55045" lon="-2.00147">
        <ele>44.015638</ele>
        <time>2022-12-15T13:21:49.617Z</time>
      </trkpt>
      <trkpt lat="47.55036" lon="-2.00141">
        <ele>44.027213</ele>
        <time>2022-12-15T13:21:51.602Z</time>
      </trkpt>
      <trkpt lat="47.55024" lon="-2.00135">
        <ele>44.042143</ele>
        <time>2022-12-15T13:21:54.623Z</time>
      </trkpt>
      <trkpt lat="47.55013" lon="-2.00131">
        <ele>44.056636</ele>
        <time>2022-12-15T13:21:57.610Z</time>
      </trkpt>
      <trkpt lat="47.55001" lon="-2.00125">
        <ele>44.071397</ele>
        <time>2022-12-15T13:22:00.607Z</time>
      </trkpt>
      <trkpt lat="47.5499" lon="-2.00119">
        <ele>44.086238</ele>
        <time>2022-12-15T13:22:03.596Z</time>
      </trkpt>
      <trkpt lat="47.54978" lon="-2.00113">
        <ele>44.101539</ele>
        <time>2022-12-15T13:22:06.613Z</time>
      </trkpt>
      <trkpt lat="47.54969" lon="-2.00109">
        <ele>44.112919</ele>
        <time>2022-12-15T13:22:08.612Z</time>
      </trkpt>
      <trkpt lat="47.5496" lon="-2.00104">
        <ele>44.124326</ele>
        <time>2022-12-15T13:22:10.613Z</time>
      </trkpt>
      <trkpt lat="47.54948" lon="-2.00098">
        <ele>44.139406</ele>
        <time>2022-12-15T13:22:13.598Z</time>
      </trkpt>
      <trkpt lat="47.54937" lon="-2.00093">
        <ele>44.153656</ele>
        <time>2022-12-15T13:22:16.617Z</time>
      </trkpt>
      <trkpt lat="47.54927" lon="-2.00088">
        <ele>44.166522</ele>
        <time>2022-12-15T13:22:19.600Z</time>
      </trkpt>
      <trkpt lat="47.54917" lon="-2.00082">
        <ele>44.166837</ele>
        <time>2022-12-15T13:22:22.602Z</time>
      </trkpt>
      <trkpt lat="47.54908" lon="-2.00077">
        <ele>44.155453</ele>
        <time>2022-12-15T13:22:25.613Z</time>
      </trkpt>
      <trkpt lat="47.54899" lon="-2.00071">
        <ele>44.142869</ele>
        <time>2022-12-15T13:22:29.605Z</time>
      </trkpt>
      <trkpt lat="47.54888" lon="-2.00061">
        <ele>44.127313</ele>
        <time>2022-12-15T13:22:33.596Z</time>
      </trkpt>
      <trkpt lat="47.54879" lon="-2.00053">
        <ele>44.114471</ele>
        <time>2022-12-15T13:22:36.590Z</time>
      </trkpt>
      <trkpt lat="47.5487" lon="-2.00044">
        <ele>44.101123</ele>
        <time>2022-12-15T13:22:39.614Z</time>
      </trkpt>
      <trkpt lat="47.54861" lon="-2.00034">
        <ele>44.08736</ele>
        <time>2022-12-15T13:22:42.611Z</time>
      </trkpt>
      <trkpt lat="47.54852" lon="-2.00023">
        <ele>44.072189</ele>
        <time>2022-12-15T13:22:45.595Z</time>
      </trkpt>
      <trkpt lat="47.54844" lon="-2.00011">
        <ele>44.057699</ele>
        <time>2022-12-15T13:22:48.613Z</time>
      </trkpt>
      <trkpt lat="47.54835" lon="-1.99996">
        <ele>44.04202</ele>
        <time>2022-12-15T13:22:51.619Z</time>
      </trkpt>
      <trkpt lat="47.54828" lon="-1.99982">
        <ele>44.026788</ele>
        <time>2022-12-15T13:22:54.601Z</time>
      </trkpt>
      <trkpt lat="47.54819" lon="-1.99969">
        <ele>44.011585</ele>
        <time>2022-12-15T13:22:57.612Z</time>
      </trkpt>
      <trkpt lat="47.54811" lon="-1.99956">
        <ele>43.997148</ele>
        <time>2022-12-15T13:23:00.606Z</time>
      </trkpt>
      <trkpt lat="47.54803" lon="-1.99942">
        <ele>43.981243</ele>
        <time>2022-12-15T13:23:03.593Z</time>
      </trkpt>
      <trkpt lat="47.54796" lon="-1.99926">
        <ele>43.965395</ele>
        <time>2022-12-15T13:23:06.612Z</time>
      </trkpt>
      <trkpt lat="47.54789" lon="-1.99911">
        <ele>43.949063</ele>
        <time>2022-12-15T13:23:09.612Z</time>
      </trkpt>
      <trkpt lat="47.54783" lon="-1.99896">
        <ele>43.875892</ele>
        <time>2022-12-15T13:23:12.606Z</time>
      </trkpt>
      <trkpt lat="47.54778" lon="-1.99883">
        <ele>43.81655</ele>
        <time>2022-12-15T13:23:15.618Z</time>
      </trkpt>
      <trkpt lat="47.54771" lon="-1.99869">
        <ele>43.746412</ele>
        <time>2022-12-15T13:23:18.592Z</time>
      </trkpt>
      <trkpt lat="47.54765" lon="-1.99857">
        <ele>43.684703</ele>
        <time>2022-12-15T13:23:21.608Z</time>
      </trkpt>
      <trkpt lat="47.54759" lon="-1.99847">
        <ele>43.628045</ele>
        <time>2022-12-15T13:23:24.594Z</time>
      </trkpt>
      <trkpt lat="47.5475" lon="-1.99834">
        <ele>43.551151</ele>
        <time>2022-12-15T13:23:28.613Z</time>
      </trkpt>
      <trkpt lat="47.54741" lon="-1.99821">
        <ele>43.477529</ele>
        <time>2022-12-15T13:23:31.616Z</time>
      </trkpt>
      <trkpt lat="47.54732" lon="-1.99809">
        <ele>43.405784</ele>
        <time>2022-12-15T13:23:34.594Z</time>
      </trkpt>
      <trkpt lat="47.54723" lon="-1.99796">
        <ele>43.331554</ele>
        <time>2022-12-15T13:23:37.615Z</time>
      </trkpt>
      <trkpt lat="47.54714" lon="-1.99785">
        <ele>43.260779</ele>
        <time>2022-12-15T13:23:40.595Z</time>
      </trkpt>
      <trkpt lat="47.54706" lon="-1.99778">
        <ele>43.205975</ele>
        <time>2022-12-15T13:23:42.617Z</time>
      </trkpt>
      <trkpt lat="47.54698" lon="-1.99772">
        <ele>43.150312</ele>
        <time>2022-12-15T13:23:44.614Z</time>
      </trkpt>
      <trkpt lat="47.54687" lon="-1.99765">
        <ele>43.076103</ele>
        <time>2022-12-15T13:23:47.593Z</time>
      </trkpt>
      <trkpt lat="47.54676" lon="-1.99761">
        <ele>43.007799</ele>
        <time>2022-12-15T13:23:51.612Z</time>
      </trkpt>
      <trkpt lat="47.54665" lon="-1.99761">
        <ele>42.944442</ele>
        <time>2022-12-15T13:23:54.615Z</time>
      </trkpt>
      <trkpt lat="47.54655" lon="-1.9976">
        <ele>42.882372</ele>
        <time>2022-12-15T13:23:57.620Z</time>
      </trkpt>
      <trkpt lat="47.54644" lon="-1.9976">
        <ele>42.853227</ele>
        <time>2022-12-15T13:24:00.613Z</time>
      </trkpt>
      <trkpt lat="47.54632" lon="-1.99761">
        <ele>42.833334</ele>
        <time>2022-12-15T13:24:03.599Z</time>
      </trkpt>
      <trkpt lat="47.54621" lon="-1.99761">
        <ele>42.813937</ele>
        <time>2022-12-15T13:24:06.611Z</time>
      </trkpt>
      <trkpt lat="47.54609" lon="-1.99762">
        <ele>42.793868</ele>
        <time>2022-12-15T13:24:09.612Z</time>
      </trkpt>
      <trkpt lat="47.54596" lon="-1.99762">
        <ele>42.772639</ele>
        <time>2022-12-15T13:24:12.616Z</time>
      </trkpt>
      <trkpt lat="47.54583" lon="-1.99762">
        <ele>42.750571</ele>
        <time>2022-12-15T13:24:15.613Z</time>
      </trkpt>
      <trkpt lat="47.54574" lon="-1.99762">
        <ele>42.735168</ele>
        <time>2022-12-15T13:24:17.599Z</time>
      </trkpt>
      <trkpt lat="47.54561" lon="-1.99758">
        <ele>42.713816</ele>
        <time>2022-12-15T13:24:20.599Z</time>
      </trkpt>
      <trkpt lat="47.54549" lon="-1.9975">
        <ele>42.691669</ele>
        <time>2022-12-15T13:24:23.596Z</time>
      </trkpt>
      <trkpt lat="47.54538" lon="-1.99739">
        <ele>42.67048</ele>
        <time>2022-12-15T13:24:26.597Z</time>
      </trkpt>
      <trkpt lat="47.54527" lon="-1.99728">
        <ele>42.648499</ele>
        <time>2022-12-15T13:24:29.613Z</time>
      </trkpt>
      <trkpt lat="47.54518" lon="-1.99719">
        <ele>42.628737</ele>
        <time>2022-12-15T13:24:32.622Z</time>
      </trkpt>
      <trkpt lat="47.5451" lon="-1.99711">
        <ele>42.613289</ele>
        <time>2022-12-15T13:24:34.612Z</time>
      </trkpt>
      <trkpt lat="47.54501" lon="-1.997">
        <ele>42.59401</ele>
        <time>2022-12-15T13:24:37.612Z</time>
      </trkpt>
      <trkpt lat="47.54493" lon="-1.99688">
        <ele>42.574625</ele>
        <time>2022-12-15T13:24:40.595Z</time>
      </trkpt>
      <trkpt lat="47.54486" lon="-1.99674">
        <ele>42.607484</ele>
        <time>2022-12-15T13:24:43.595Z</time>
      </trkpt>
      <trkpt lat="47.54478" lon="-1.99659">
        <ele>42.682886</ele>
        <time>2022-12-15T13:24:46.609Z</time>
      </trkpt>
      <trkpt lat="47.5447" lon="-1.99644">
        <ele>42.761584</ele>
        <time>2022-12-15T13:24:49.608Z</time>
      </trkpt>
      <trkpt lat="47.54461" lon="-1.9963">
        <ele>42.837664</ele>
        <time>2022-12-15T13:24:52.612Z</time>
      </trkpt>
      <trkpt lat="47.54455" lon="-1.99618">
        <ele>42.896173</ele>
        <time>2022-12-15T13:24:54.610Z</time>
      </trkpt>
      <trkpt lat="47.54448" lon="-1.99603">
        <ele>42.971693</ele>
        <time>2022-12-15T13:24:57.618Z</time>
      </trkpt>
      <trkpt lat="47.54441" lon="-1.99589">
        <ele>43.040037</ele>
        <time>2022-12-15T13:25:00.613Z</time>
      </trkpt>
      <trkpt lat="47.54434" lon="-1.99574">
        <ele>43.116764</ele>
        <time>2022-12-15T13:25:03.596Z</time>
      </trkpt>
      <trkpt lat="47.54426" lon="-1.99558">
        <ele>43.195523</ele>
        <time>2022-12-15T13:25:06.610Z</time>
      </trkpt>
      <trkpt lat="47.54418" lon="-1.99542">
        <ele>43.272869</ele>
        <time>2022-12-15T13:25:09.615Z</time>
      </trkpt>
      <trkpt lat="47.54411" lon="-1.99526">
        <ele>43.350546</ele>
        <time>2022-12-15T13:25:12.617Z</time>
      </trkpt>
      <trkpt lat="47.54404" lon="-1.99514">
        <ele>43.413563</ele>
        <time>2022-12-15T13:25:15.616Z</time>
      </trkpt>
      <trkpt lat="47.54399" lon="-1.99501">
        <ele>43.474686</ele>
        <time>2022-12-15T13:25:18.600Z</time>
      </trkpt>
      <trkpt lat="47.54393" lon="-1.99484">
        <ele>43.553459</ele>
        <time>2022-12-15T13:25:21.615Z</time>
      </trkpt>
      <trkpt lat="47.5439" lon="-1.99471">
        <ele>43.607229</ele>
        <time>2022-12-15T13:25:23.595Z</time>
      </trkpt>
      <trkpt lat="47.54386" lon="-1.99458">
        <ele>43.667477</ele>
        <time>2022-12-15T13:25:25.614Z</time>
      </trkpt>
      <trkpt lat="47.5438" lon="-1.9944">
        <ele>43.757963</ele>
        <time>2022-12-15T13:25:28.622Z</time>
      </trkpt>
      <trkpt lat="47.54374" lon="-1.99421">
        <ele>43.847243</ele>
        <time>2022-12-15T13:25:31.604Z</time>
      </trkpt>
      <trkpt lat="47.54369" lon="-1.99404">
        <ele>43.933282</ele>
        <time>2022-12-15T13:25:34.615Z</time>
      </trkpt>
      <trkpt lat="47.54365" lon="-1.99386">
        <ele>44.014646</ele>
        <time>2022-12-15T13:25:37.614Z</time>
      </trkpt>
      <trkpt lat="47.54362" lon="-1.9937">
        <ele>44.092081</ele>
        <time>2022-12-15T13:25:40.598Z</time>
      </trkpt>
      <trkpt lat="47.5436" lon="-1.99354">
        <ele>44.16357</ele>
        <time>2022-12-15T13:25:43.599Z</time>
      </trkpt>
      <trkpt lat="47.5436" lon="-1.99337">
        <ele>44.238121</ele>
        <time>2022-12-15T13:25:46.596Z</time>
      </trkpt>
      <trkpt lat="47.54361" lon="-1.99321">
        <ele>44.307844</ele>
        <time>2022-12-15T13:25:49.615Z</time>
      </trkpt>
      <trkpt lat="47.54361" lon="-1.99304">
        <ele>44.382813</ele>
        <time>2022-12-15T13:25:52.605Z</time>
      </trkpt>
      <trkpt lat="47.54361" lon="-1.99285">
        <ele>44.468894</ele>
        <time>2022-12-15T13:25:55.605Z</time>
      </trkpt>
      <trkpt lat="47.54362" lon="-1.99266">
        <ele>44.554271</ele>
        <time>2022-12-15T13:25:58.617Z</time>
      </trkpt>
      <trkpt lat="47.54364" lon="-1.99247">
        <ele>44.639382</ele>
        <time>2022-12-15T13:26:01.619Z</time>
      </trkpt>
      <trkpt lat="47.54366" lon="-1.99228">
        <ele>44.724212</ele>
        <time>2022-12-15T13:26:04.617Z</time>
      </trkpt>
      <trkpt lat="47.54368" lon="-1.99209">
        <ele>44.809761</ele>
        <time>2022-12-15T13:26:07.600Z</time>
      </trkpt>
      <trkpt lat="47.5437" lon="-1.99192">
        <ele>44.800956</ele>
        <time>2022-12-15T13:26:10.614Z</time>
      </trkpt>
      <trkpt lat="47.54372" lon="-1.99173">
        <ele>44.775578</ele>
        <time>2022-12-15T13:26:13.594Z</time>
      </trkpt>
      <trkpt lat="47.54373" lon="-1.99155">
        <ele>44.752534</ele>
        <time>2022-12-15T13:26:16.614Z</time>
      </trkpt>
      <trkpt lat="47.54375" lon="-1.99137">
        <ele>44.72796</ele>
        <time>2022-12-15T13:26:20.611Z</time>
      </trkpt>
      <trkpt lat="47.54377" lon="-1.99118">
        <ele>44.703312</ele>
        <time>2022-12-15T13:26:23.593Z</time>
      </trkpt>
      <trkpt lat="47.54378" lon="-1.991">
        <ele>44.67949</ele>
        <time>2022-12-15T13:26:26.615Z</time>
      </trkpt>
      <trkpt lat="47.5438" lon="-1.99083">
        <ele>44.657011</ele>
        <time>2022-12-15T13:26:29.601Z</time>
      </trkpt>
      <trkpt lat="47.54381" lon="-1.99066">
        <ele>44.634702</ele>
        <time>2022-12-15T13:26:32.613Z</time>
      </trkpt>
      <trkpt lat="47.54382" lon="-1.99046">
        <ele>44.60914</ele>
        <time>2022-12-15T13:26:35.613Z</time>
      </trkpt>
      <trkpt lat="47.54383" lon="-1.99028">
        <ele>44.584924</ele>
        <time>2022-12-15T13:26:38.615Z</time>
      </trkpt>
      <trkpt lat="47.54383" lon="-1.99014">
        <ele>44.567159</ele>
        <time>2022-12-15T13:26:40.608Z</time>
      </trkpt>
      <trkpt lat="47.54382" lon="-1.98996">
        <ele>44.542728</ele>
        <time>2022-12-15T13:26:43.596Z</time>
      </trkpt>
      <trkpt lat="47.54382" lon="-1.9898">
        <ele>44.521827</ele>
        <time>2022-12-15T13:26:46.620Z</time>
      </trkpt>
      <trkpt lat="47.54382" lon="-1.98965">
        <ele>44.502754</ele>
        <time>2022-12-15T13:26:48.616Z</time>
      </trkpt>
      <trkpt lat="47.54382" lon="-1.98951">
        <ele>44.484461</ele>
        <time>2022-12-15T13:26:50.620Z</time>
      </trkpt>
      <trkpt lat="47.54383" lon="-1.98935">
        <ele>44.483442</ele>
        <time>2022-12-15T13:26:52.608Z</time>
      </trkpt>
      <trkpt lat="47.54382" lon="-1.98916">
        <ele>44.519035</ele>
        <time>2022-12-15T13:26:55.614Z</time>
      </trkpt>
      <trkpt lat="47.54382" lon="-1.98901">
        <ele>44.54511</ele>
        <time>2022-12-15T13:26:57.615Z</time>
      </trkpt>
      <trkpt lat="47.54382" lon="-1.98882">
        <ele>44.580675</ele>
        <time>2022-12-15T13:27:00.613Z</time>
      </trkpt>
      <trkpt lat="47.54381" lon="-1.98862">
        <ele>44.617168</ele>
        <time>2022-12-15T13:27:03.594Z</time>
      </trkpt>
      <trkpt lat="47.54381" lon="-1.98848">
        <ele>44.64182</ele>
        <time>2022-12-15T13:27:05.619Z</time>
      </trkpt>
      <trkpt lat="47.5438" lon="-1.9883">
        <ele>44.675922</ele>
        <time>2022-12-15T13:27:08.612Z</time>
      </trkpt>
      <trkpt lat="47.54379" lon="-1.98813">
        <ele>44.706098</ele>
        <time>2022-12-15T13:27:11.601Z</time>
      </trkpt>
      <trkpt lat="47.54379" lon="-1.98798">
        <ele>44.733997</ele>
        <time>2022-12-15T13:27:15.602Z</time>
      </trkpt>
      <trkpt lat="47.54378" lon="-1.98781">
        <ele>44.76507</ele>
        <time>2022-12-15T13:27:19.597Z</time>
      </trkpt>
      <trkpt lat="47.54378" lon="-1.98766">
        <ele>44.791741</ele>
        <time>2022-12-15T13:27:22.609Z</time>
      </trkpt>
      <trkpt lat="47.54376" lon="-1.98752">
        <ele>44.818668</ele>
        <time>2022-12-15T13:27:25.598Z</time>
      </trkpt>
      <trkpt lat="47.54373" lon="-1.98734">
        <ele>44.852234</ele>
        <time>2022-12-15T13:27:28.606Z</time>
      </trkpt>
      <trkpt lat="47.54371" lon="-1.98719">
        <ele>44.880579</ele>
        <time>2022-12-15T13:27:31.616Z</time>
      </trkpt>
      <trkpt lat="47.54368" lon="-1.987">
        <ele>44.915803</ele>
        <time>2022-12-15T13:27:34.596Z</time>
      </trkpt>
      <trkpt lat="47.54365" lon="-1.98682">
        <ele>44.950273</ele>
        <time>2022-12-15T13:27:37.605Z</time>
      </trkpt>
      <trkpt lat="47.54362" lon="-1.98663">
        <ele>44.904988</ele>
        <time>2022-12-15T13:27:40.602Z</time>
      </trkpt>
      <trkpt lat="47.54359" lon="-1.98645">
        <ele>44.835026</ele>
        <time>2022-12-15T13:27:43.597Z</time>
      </trkpt>
      <trkpt lat="47.54357" lon="-1.98627">
        <ele>44.76862</ele>
        <time>2022-12-15T13:27:46.613Z</time>
      </trkpt>
      <trkpt lat="47.54355" lon="-1.9861">
        <ele>44.70432</ele>
        <time>2022-12-15T13:27:49.616Z</time>
      </trkpt>
      <trkpt lat="47.54352" lon="-1.98591">
        <ele>44.635307</ele>
        <time>2022-12-15T13:27:52.617Z</time>
      </trkpt>
      <trkpt lat="47.54349" lon="-1.98575">
        <ele>44.57365</ele>
        <time>2022-12-15T13:27:55.598Z</time>
      </trkpt>
      <trkpt lat="47.54346" lon="-1.9856">
        <ele>44.518499</ele>
        <time>2022-12-15T13:27:58.619Z</time>
      </trkpt>
      <trkpt lat="47.54344" lon="-1.98546">
        <ele>44.464324</ele>
        <time>2022-12-15T13:28:01.619Z</time>
      </trkpt>
      <trkpt lat="47.54341" lon="-1.98531">
        <ele>44.407376</ele>
        <time>2022-12-15T13:28:04.609Z</time>
      </trkpt>
      <trkpt lat="47.54337" lon="-1.98514">
        <ele>44.341255</ele>
        <time>2022-12-15T13:28:07.614Z</time>
      </trkpt>
      <trkpt lat="47.54331" lon="-1.98497">
        <ele>44.272578</ele>
        <time>2022-12-15T13:28:10.599Z</time>
      </trkpt>
      <trkpt lat="47.54325" lon="-1.9848">
        <ele>44.204228</ele>
        <time>2022-12-15T13:28:13.592Z</time>
      </trkpt>
      <trkpt lat="47.5432" lon="-1.98464">
        <ele>44.135306</ele>
        <time>2022-12-15T13:28:16.599Z</time>
      </trkpt>
      <trkpt lat="47.54313" lon="-1.98447">
        <ele>44.067552</ele>
        <time>2022-12-15T13:28:19.616Z</time>
      </trkpt>
      <trkpt lat="47.54308" lon="-1.98432">
        <ele>44.006776</ele>
        <time>2022-12-15T13:28:22.614Z</time>
      </trkpt>
      <trkpt lat="47.54304" lon="-1.98419">
        <ele>44.018861</ele>
        <time>2022-12-15T13:28:25.604Z</time>
      </trkpt>
      <trkpt lat="47.543" lon="-1.98404">
        <ele>44.076445</ele>
        <time>2022-12-15T13:28:28.621Z</time>
      </trkpt>
      <trkpt lat="47.54297" lon="-1.98387">
        <ele>44.138818</ele>
        <time>2022-12-15T13:28:31.600Z</time>
      </trkpt>
      <trkpt lat="47.54294" lon="-1.9837">
        <ele>44.201676</ele>
        <time>2022-12-15T13:28:34.614Z</time>
      </trkpt>
      <trkpt lat="47.54292" lon="-1.98353">
        <ele>44.264466</ele>
        <time>2022-12-15T13:28:37.618Z</time>
      </trkpt>
      <trkpt lat="47.54289" lon="-1.98335">
        <ele>44.332407</ele>
        <time>2022-12-15T13:28:40.617Z</time>
      </trkpt>
      <trkpt lat="47.54287" lon="-1.98318">
        <ele>44.397041</ele>
        <time>2022-12-15T13:28:43.597Z</time>
      </trkpt>
      <trkpt lat="47.54283" lon="-1.983">
        <ele>44.463406</ele>
        <time>2022-12-15T13:28:46.614Z</time>
      </trkpt>
      <trkpt lat="47.54281" lon="-1.98283">
        <ele>44.528395</ele>
        <time>2022-12-15T13:28:49.617Z</time>
      </trkpt>
      <trkpt lat="47.54278" lon="-1.98265">
        <ele>44.594208</ele>
        <time>2022-12-15T13:28:52.615Z</time>
      </trkpt>
      <trkpt lat="47.54276" lon="-1.98247">
        <ele>44.662044</ele>
        <time>2022-12-15T13:28:55.605Z</time>
      </trkpt>
      <trkpt lat="47.54273" lon="-1.98228">
        <ele>44.731298</ele>
        <time>2022-12-15T13:28:58.613Z</time>
      </trkpt>
      <trkpt lat="47.54271" lon="-1.9821">
        <ele>44.798514</ele>
        <time>2022-12-15T13:29:01.620Z</time>
      </trkpt>
      <trkpt lat="47.54271" lon="-1.98196">
        <ele>44.847211</ele>
        <time>2022-12-15T13:29:03.597Z</time>
      </trkpt>
      <trkpt lat="47.54271" lon="-1.98182">
        <ele>44.898803</ele>
        <time>2022-12-15T13:29:05.596Z</time>
      </trkpt>
      <trkpt lat="47.54271" lon="-1.98162">
        <ele>44.947397</ele>
        <time>2022-12-15T13:29:08.619Z</time>
      </trkpt>
      <trkpt lat="47.54272" lon="-1.98144">
        <ele>44.927303</ele>
        <time>2022-12-15T13:29:11.608Z</time>
      </trkpt>
      <trkpt lat="47.54272" lon="-1.98126">
        <ele>44.908274</ele>
        <time>2022-12-15T13:29:14.616Z</time>
      </trkpt>
      <trkpt lat="47.54273" lon="-1.9811">
        <ele>44.891299</ele>
        <time>2022-12-15T13:29:17.612Z</time>
      </trkpt>
      <trkpt lat="47.54274" lon="-1.98094">
        <ele>44.873701</ele>
        <time>2022-12-15T13:29:20.622Z</time>
      </trkpt>
      <trkpt lat="47.54275" lon="-1.98075">
        <ele>44.853853</ele>
        <time>2022-12-15T13:29:23.595Z</time>
      </trkpt>
      <trkpt lat="47.54276" lon="-1.98056">
        <ele>44.833605</ele>
        <time>2022-12-15T13:29:26.619Z</time>
      </trkpt>
      <trkpt lat="47.54277" lon="-1.98038">
        <ele>44.814487</ele>
        <time>2022-12-15T13:29:29.616Z</time>
      </trkpt>
      <trkpt lat="47.54279" lon="-1.98021">
        <ele>44.795333</ele>
        <time>2022-12-15T13:29:32.617Z</time>
      </trkpt>
      <trkpt lat="47.54281" lon="-1.98008">
        <ele>44.781077</ele>
        <time>2022-12-15T13:29:34.599Z</time>
      </trkpt>
      <trkpt lat="47.54284" lon="-1.97989">
        <ele>44.76075</ele>
        <time>2022-12-15T13:29:37.615Z</time>
      </trkpt>
      <trkpt lat="47.54288" lon="-1.97973">
        <ele>44.742814</ele>
        <time>2022-12-15T13:29:40.616Z</time>
      </trkpt>
      <trkpt lat="47.54291" lon="-1.97957">
        <ele>44.724525</ele>
        <time>2022-12-15T13:29:44.601Z</time>
      </trkpt>
      <trkpt lat="47.54294" lon="-1.9794">
        <ele>44.70589</ele>
        <time>2022-12-15T13:29:48.622Z</time>
      </trkpt>
      <trkpt lat="47.54296" lon="-1.97926">
        <ele>44.690424</ele>
        <time>2022-12-15T13:29:51.613Z</time>
      </trkpt>
      <trkpt lat="47.54299" lon="-1.97909">
        <ele>44.671811</ele>
        <time>2022-12-15T13:29:54.592Z</time>
      </trkpt>
      <trkpt lat="47.54303" lon="-1.97891">
        <ele>44.589822</ele>
        <time>2022-12-15T13:29:57.618Z</time>
      </trkpt>
      <trkpt lat="47.54307" lon="-1.97874">
        <ele>44.497126</ele>
        <time>2022-12-15T13:30:00.614Z</time>
      </trkpt>
      <trkpt lat="47.5431" lon="-1.97856">
        <ele>44.406147</ele>
        <time>2022-12-15T13:30:03.596Z</time>
      </trkpt>
      <trkpt lat="47.54312" lon="-1.97839">
        <ele>44.316697</ele>
        <time>2022-12-15T13:30:06.601Z</time>
      </trkpt>
      <trkpt lat="47.54316" lon="-1.97822">
        <ele>44.22541</ele>
        <time>2022-12-15T13:30:09.604Z</time>
      </trkpt>
      <trkpt lat="47.54319" lon="-1.97805">
        <ele>44.137388</ele>
        <time>2022-12-15T13:30:12.616Z</time>
      </trkpt>
      <trkpt lat="47.54321" lon="-1.97788">
        <ele>44.048925</ele>
        <time>2022-12-15T13:30:15.600Z</time>
      </trkpt>
      <trkpt lat="47.54324" lon="-1.97769">
        <ele>43.948682</ele>
        <time>2022-12-15T13:30:18.609Z</time>
      </trkpt>
      <trkpt lat="47.54327" lon="-1.97751">
        <ele>43.851592</ele>
        <time>2022-12-15T13:30:21.617Z</time>
      </trkpt>
      <trkpt lat="47.5433" lon="-1.97732">
        <ele>43.755897</ele>
        <time>2022-12-15T13:30:24.612Z</time>
      </trkpt>
      <trkpt lat="47.54333" lon="-1.97716">
        <ele>43.66856</ele>
        <time>2022-12-15T13:30:27.610Z</time>
      </trkpt>
      <trkpt lat="47.54336" lon="-1.977">
        <ele>43.583567</ele>
        <time>2022-12-15T13:30:30.607Z</time>
      </trkpt>
      <trkpt lat="47.54338" lon="-1.97684">
        <ele>43.503459</ele>
        <time>2022-12-15T13:30:33.596Z</time>
      </trkpt>
      <trkpt lat="47.54339" lon="-1.9767">
        <ele>43.429799</ele>
        <time>2022-12-15T13:30:36.619Z</time>
      </trkpt>
      <trkpt lat="47.54339" lon="-1.97654">
        <ele>43.349799</ele>
        <time>2022-12-15T13:30:39.593Z</time>
      </trkpt>
      <trkpt lat="47.54339" lon="-1.97637">
        <ele>43.297092</ele>
        <time>2022-12-15T13:30:42.601Z</time>
      </trkpt>
      <trkpt lat="47.54339" lon="-1.9762">
        <ele>43.271177</ele>
        <time>2022-12-15T13:30:45.625Z</time>
      </trkpt>
      <trkpt lat="47.54338" lon="-1.97601">
        <ele>43.242861</ele>
        <time>2022-12-15T13:30:48.611Z</time>
      </trkpt>
      <trkpt lat="47.54337" lon="-1.97581">
        <ele>43.213144</ele>
        <time>2022-12-15T13:30:51.606Z</time>
      </trkpt>
      <trkpt lat="47.54337" lon="-1.97567">
        <ele>43.19187</ele>
        <time>2022-12-15T13:30:53.597Z</time>
      </trkpt>
      <trkpt lat="47.54336" lon="-1.97554">
        <ele>43.171831</ele>
        <time>2022-12-15T13:30:55.616Z</time>
      </trkpt>
      <trkpt lat="47.54335" lon="-1.9754">
        <ele>43.151791</ele>
        <time>2022-12-15T13:30:57.615Z</time>
      </trkpt>
      <trkpt lat="47.54334" lon="-1.97527">
        <ele>43.131647</ele>
        <time>2022-12-15T13:30:59.613Z</time>
      </trkpt>
      <trkpt lat="47.54333" lon="-1.97514">
        <ele>43.111554</ele>
        <time>2022-12-15T13:31:01.615Z</time>
      </trkpt>
      <trkpt lat="47.54332" lon="-1.975">
        <ele>43.091191</ele>
        <time>2022-12-15T13:31:03.598Z</time>
      </trkpt>
      <trkpt lat="47.54331" lon="-1.97483">
        <ele>43.065397</ele>
        <time>2022-12-15T13:31:06.612Z</time>
      </trkpt>
      <trkpt lat="47.5433" lon="-1.97468">
        <ele>43.042032</ele>
        <time>2022-12-15T13:31:09.617Z</time>
      </trkpt>
      <trkpt lat="47.5433" lon="-1.97452">
        <ele>43.018672</ele>
        <time>2022-12-15T13:31:12.619Z</time>
      </trkpt>
      <trkpt lat="47.54331" lon="-1.97435">
        <ele>42.99297</ele>
        <time>2022-12-15T13:31:15.616Z</time>
      </trkpt>
      <trkpt lat="47.54333" lon="-1.97417">
        <ele>42.966642</ele>
        <time>2022-12-15T13:31:18.610Z</time>
      </trkpt>
      <trkpt lat="47.54335" lon="-1.97401">
        <ele>42.94143</ele>
        <time>2022-12-15T13:31:21.620Z</time>
      </trkpt>
      <trkpt lat="47.54336" lon="-1.97384">
        <ele>42.91675</ele>
        <time>2022-12-15T13:31:24.599Z</time>
      </trkpt>
      <trkpt lat="47.54339" lon="-1.97368">
        <ele>42.888692</ele>
        <time>2022-12-15T13:31:27.602Z</time>
      </trkpt>
      <trkpt lat="47.54346" lon="-1.97354">
        <ele>42.859355</ele>
        <time>2022-12-15T13:31:30.599Z</time>
      </trkpt>
      <trkpt lat="47.54354" lon="-1.97342">
        <ele>42.831581</ele>
        <time>2022-12-15T13:31:33.599Z</time>
      </trkpt>
      <trkpt lat="47.54362" lon="-1.9733">
        <ele>42.802313</ele>
        <time>2022-12-15T13:31:36.604Z</time>
      </trkpt>
      <trkpt lat="47.54372" lon="-1.97319">
        <ele>42.771486</ele>
        <time>2022-12-15T13:31:39.601Z</time>
      </trkpt>
      <trkpt lat="47.5438" lon="-1.97307">
        <ele>42.742857</ele>
        <time>2022-12-15T13:31:42.600Z</time>
      </trkpt>
      <trkpt lat="47.5439" lon="-1.97296">
        <ele>42.713231</ele>
        <time>2022-12-15T13:31:45.603Z</time>
      </trkpt>
      <trkpt lat="47.54399" lon="-1.97285">
        <ele>42.68311</ele>
        <time>2022-12-15T13:31:48.608Z</time>
      </trkpt>
      <trkpt lat="47.54407" lon="-1.97274">
        <ele>42.655857</ele>
        <time>2022-12-15T13:31:51.607Z</time>
      </trkpt>
      <trkpt lat="47.54414" lon="-1.97261">
        <ele>42.627485</ele>
        <time>2022-12-15T13:31:54.599Z</time>
      </trkpt>
      <trkpt lat="47.5442" lon="-1.97248">
        <ele>42.60052</ele>
        <time>2022-12-15T13:31:57.606Z</time>
      </trkpt>
      <trkpt lat="47.54424" lon="-1.97235">
        <ele>42.576229</ele>
        <time>2022-12-15T13:32:00.609Z</time>
      </trkpt>
      <trkpt lat="47.54429" lon="-1.9722">
        <ele>42.549014</ele>
        <time>2022-12-15T13:32:03.600Z</time>
      </trkpt>
      <trkpt lat="47.54433" lon="-1.97203">
        <ele>42.518351</ele>
        <time>2022-12-15T13:32:06.598Z</time>
      </trkpt>
      <trkpt lat="47.54435" lon="-1.97185">
        <ele>42.487273</ele>
        <time>2022-12-15T13:32:09.617Z</time>
      </trkpt>
      <trkpt lat="47.54438" lon="-1.97168">
        <ele>42.471662</ele>
        <time>2022-12-15T13:32:12.596Z</time>
      </trkpt>
      <trkpt lat="47.5444" lon="-1.97149">
        <ele>42.538851</ele>
        <time>2022-12-15T13:32:15.598Z</time>
      </trkpt>
      <trkpt lat="47.54443" lon="-1.97132">
        <ele>42.596212</ele>
        <time>2022-12-15T13:32:18.609Z</time>
      </trkpt>
      <trkpt lat="47.54446" lon="-1.97115">
        <ele>42.659492</ele>
        <time>2022-12-15T13:32:21.618Z</time>
      </trkpt>
      <trkpt lat="47.54448" lon="-1.97101">
        <ele>42.706225</ele>
        <time>2022-12-15T13:32:23.599Z</time>
      </trkpt>
      <trkpt lat="47.5445" lon="-1.97083">
        <ele>42.769457</ele>
        <time>2022-12-15T13:32:26.616Z</time>
      </trkpt>
      <trkpt lat="47.5445" lon="-1.97063">
        <ele>42.836842</ele>
        <time>2022-12-15T13:32:29.617Z</time>
      </trkpt>
      <trkpt lat="47.54449" lon="-1.9705">
        <ele>42.883475</ele>
        <time>2022-12-15T13:32:31.620Z</time>
      </trkpt>
      <trkpt lat="47.54447" lon="-1.97032">
        <ele>42.945954</ele>
        <time>2022-12-15T13:32:34.616Z</time>
      </trkpt>
      <trkpt lat="47.54445" lon="-1.97015">
        <ele>43.005867</ele>
        <time>2022-12-15T13:32:37.615Z</time>
      </trkpt>
      <trkpt lat="47.54443" lon="-1.96999">
        <ele>43.062574</ele>
        <time>2022-12-15T13:32:40.601Z</time>
      </trkpt>
      <trkpt lat="47.5444" lon="-1.96982">
        <ele>43.120521</ele>
        <time>2022-12-15T13:32:43.599Z</time>
      </trkpt>
      <trkpt lat="47.54437" lon="-1.96965">
        <ele>43.184042</ele>
        <time>2022-12-15T13:32:46.602Z</time>
      </trkpt>
      <trkpt lat="47.54432" lon="-1.96948">
        <ele>43.246494</ele>
        <time>2022-12-15T13:32:49.621Z</time>
      </trkpt>
      <trkpt lat="47.54427" lon="-1.96928">
        <ele>43.317699</ele>
        <time>2022-12-15T13:32:52.611Z</time>
      </trkpt>
      <trkpt lat="47.54424" lon="-1.96916">
        <ele>43.364101</ele>
        <time>2022-12-15T13:32:54.608Z</time>
      </trkpt>
      <trkpt lat="47.5442" lon="-1.96901">
        <ele>43.39729</ele>
        <time>2022-12-15T13:32:57.617Z</time>
      </trkpt>
      <trkpt lat="47.54415" lon="-1.96884">
        <ele>43.424109</ele>
        <time>2022-12-15T13:33:01.602Z</time>
      </trkpt>
      <trkpt lat="47.5441" lon="-1.9687">
        <ele>43.448973</ele>
        <time>2022-12-15T13:33:04.611Z</time>
      </trkpt>
      <trkpt lat="47.54406" lon="-1.96854">
        <ele>43.474438</ele>
        <time>2022-12-15T13:33:07.607Z</time>
      </trkpt>
      <trkpt lat="47.54402" lon="-1.96837">
        <ele>43.501998</ele>
        <time>2022-12-15T13:33:10.612Z</time>
      </trkpt>
      <trkpt lat="47.54398" lon="-1.96821">
        <ele>43.528872</ele>
        <time>2022-12-15T13:33:13.597Z</time>
      </trkpt>
      <trkpt lat="47.54393" lon="-1.96804">
        <ele>43.556659</ele>
        <time>2022-12-15T13:33:16.613Z</time>
      </trkpt>
      <trkpt lat="47.54388" lon="-1.96788">
        <ele>43.584309</ele>
        <time>2022-12-15T13:33:19.612Z</time>
      </trkpt>
      <trkpt lat="47.54382" lon="-1.96771">
        <ele>43.613448</ele>
        <time>2022-12-15T13:33:22.616Z</time>
      </trkpt>
      <trkpt lat="47.54376" lon="-1.96759">
        <ele>43.63508</ele>
        <time>2022-12-15T13:33:24.619Z</time>
      </trkpt>
      <trkpt lat="47.54369" lon="-1.96742">
        <ele>43.664934</ele>
        <time>2022-12-15T13:33:27.607Z</time>
      </trkpt>
      <trkpt lat="47.54362" lon="-1.96727">
        <ele>43.692636</ele>
        <time>2022-12-15T13:33:30.607Z</time>
      </trkpt>
      <trkpt lat="47.54356" lon="-1.96713">
        <ele>43.718694</ele>
        <time>2022-12-15T13:33:33.596Z</time>
      </trkpt>
      <trkpt lat="47.5435" lon="-1.967">
        <ele>43.743485</ele>
        <time>2022-12-15T13:33:36.619Z</time>
      </trkpt>
      <trkpt lat="47.54343" lon="-1.96686">
        <ele>43.769055</ele>
        <time>2022-12-15T13:33:39.616Z</time>
      </trkpt>
      <trkpt lat="47.54336" lon="-1.96674">
        <ele>43.800658</ele>
        <time>2022-12-15T13:33:42.599Z</time>
      </trkpt>
      <trkpt lat="47.54329" lon="-1.96658">
        <ele>43.856912</ele>
        <time>2022-12-15T13:33:45.603Z</time>
      </trkpt>
      <trkpt lat="47.54322" lon="-1.96645">
        <ele>43.906934</ele>
        <time>2022-12-15T13:33:48.607Z</time>
      </trkpt>
      <trkpt lat="47.54316" lon="-1.9663">
        <ele>43.958626</ele>
        <time>2022-12-15T13:33:51.620Z</time>
      </trkpt>
      <trkpt lat="47.54309" lon="-1.96615">
        <ele>44.011003</ele>
        <time>2022-12-15T13:33:54.599Z</time>
      </trkpt>
      <trkpt lat="47.54302" lon="-1.96602">
        <ele>44.058032</ele>
        <time>2022-12-15T13:33:57.620Z</time>
      </trkpt>
      <trkpt lat="47.54296" lon="-1.96588">
        <ele>44.106057</ele>
        <time>2022-12-15T13:34:00.618Z</time>
      </trkpt>
      <trkpt lat="47.54289" lon="-1.96574">
        <ele>44.156723</ele>
        <time>2022-12-15T13:34:03.599Z</time>
      </trkpt>
      <trkpt lat="47.54283" lon="-1.9656">
        <ele>44.206421</ele>
        <time>2022-12-15T13:34:06.609Z</time>
      </trkpt>
      <trkpt lat="47.54276" lon="-1.96545">
        <ele>44.258057</ele>
        <time>2022-12-15T13:34:09.620Z</time>
      </trkpt>
      <trkpt lat="47.54269" lon="-1.9653">
        <ele>44.312679</ele>
        <time>2022-12-15T13:34:12.617Z</time>
      </trkpt>
      <trkpt lat="47.54263" lon="-1.96518">
        <ele>44.356574</ele>
        <time>2022-12-15T13:34:15.601Z</time>
      </trkpt>
      <trkpt lat="47.54257" lon="-1.96506">
        <ele>44.399994</ele>
        <time>2022-12-15T13:34:18.618Z</time>
      </trkpt>
      <trkpt lat="47.54249" lon="-1.96491">
        <ele>44.457062</ele>
        <time>2022-12-15T13:34:21.599Z</time>
      </trkpt>
      <trkpt lat="47.54243" lon="-1.9648">
        <ele>44.498118</ele>
        <time>2022-12-15T13:34:23.601Z</time>
      </trkpt>
      <trkpt lat="47.54234" lon="-1.96466">
        <ele>44.553405</ele>
        <time>2022-12-15T13:34:26.619Z</time>
      </trkpt>
      <trkpt lat="47.54227" lon="-1.96457">
        <ele>44.522851</ele>
        <time>2022-12-15T13:34:29.609Z</time>
      </trkpt>
      <trkpt lat="47.54219" lon="-1.9645">
        <ele>44.464694</ele>
        <time>2022-12-15T13:34:32.599Z</time>
      </trkpt>
      <trkpt lat="47.54211" lon="-1.9644">
        <ele>44.397762</ele>
        <time>2022-12-15T13:34:35.597Z</time>
      </trkpt>
      <trkpt lat="47.54203" lon="-1.96432">
        <ele>44.342196</ele>
        <time>2022-12-15T13:34:38.608Z</time>
      </trkpt>
      <trkpt lat="47.54195" lon="-1.96424">
        <ele>44.284463</ele>
        <time>2022-12-15T13:34:41.620Z</time>
      </trkpt>
      <trkpt lat="47.54186" lon="-1.96413">
        <ele>44.210622</ele>
        <time>2022-12-15T13:34:45.614Z</time>
      </trkpt>
      <trkpt lat="47.54179" lon="-1.96405">
        <ele>44.152625</ele>
        <time>2022-12-15T13:34:48.595Z</time>
      </trkpt>
      <trkpt lat="47.5417" lon="-1.96395">
        <ele>44.087205</ele>
        <time>2022-12-15T13:34:51.610Z</time>
      </trkpt>
      <trkpt lat="47.54162" lon="-1.96386">
        <ele>44.020804</ele>
        <time>2022-12-15T13:34:54.612Z</time>
      </trkpt>
      <trkpt lat="47.54153" lon="-1.96375">
        <ele>43.949904</ele>
        <time>2022-12-15T13:34:57.615Z</time>
      </trkpt>
      <trkpt lat="47.54143" lon="-1.96365">
        <ele>43.880284</ele>
        <time>2022-12-15T13:35:00.610Z</time>
      </trkpt>
      <trkpt lat="47.54133" lon="-1.96355">
        <ele>43.804399</ele>
        <time>2022-12-15T13:35:03.601Z</time>
      </trkpt>
      <trkpt lat="47.54123" lon="-1.96344">
        <ele>43.728313</ele>
        <time>2022-12-15T13:35:06.604Z</time>
      </trkpt>
      <trkpt lat="47.54114" lon="-1.96335">
        <ele>43.659682</ele>
        <time>2022-12-15T13:35:09.613Z</time>
      </trkpt>
      <trkpt lat="47.54104" lon="-1.96326">
        <ele>43.586044</ele>
        <time>2022-12-15T13:35:12.619Z</time>
      </trkpt>
      <trkpt lat="47.54094" lon="-1.96318">
        <ele>43.518528</ele>
        <time>2022-12-15T13:35:15.614Z</time>
      </trkpt>
      <trkpt lat="47.54083" lon="-1.9631">
        <ele>43.444859</ele>
        <time>2022-12-15T13:35:18.608Z</time>
      </trkpt>
      <trkpt lat="47.54073" lon="-1.96305">
        <ele>43.383177</ele>
        <time>2022-12-15T13:35:21.621Z</time>
      </trkpt>
      <trkpt lat="47.54065" lon="-1.96301">
        <ele>43.330336</ele>
        <time>2022-12-15T13:35:24.617Z</time>
      </trkpt>
      <trkpt lat="47.54055" lon="-1.96296">
        <ele>43.271533</ele>
        <time>2022-12-15T13:35:27.609Z</time>
      </trkpt>
      <trkpt lat="47.54045" lon="-1.96293">
        <ele>43.209981</ele>
        <time>2022-12-15T13:35:30.617Z</time>
      </trkpt>
      <trkpt lat="47.54035" lon="-1.96288">
        <ele>43.147943</ele>
        <time>2022-12-15T13:35:33.601Z</time>
      </trkpt>
      <trkpt lat="47.54023" lon="-1.96283">
        <ele>43.078337</ele>
        <time>2022-12-15T13:35:36.616Z</time>
      </trkpt>
      <trkpt lat="47.54012" lon="-1.96278">
        <ele>43.009732</ele>
        <time>2022-12-15T13:35:39.613Z</time>
      </trkpt>
      <trkpt lat="47.54001" lon="-1.96274">
        <ele>42.946485</ele>
        <time>2022-12-15T13:35:42.614Z</time>
      </trkpt>
      <trkpt lat="47.5399" lon="-1.96269">
        <ele>42.876431</ele>
        <time>2022-12-15T13:35:45.621Z</time>
      </trkpt>
      <trkpt lat="47.53978" lon="-1.96264">
        <ele>42.804485</ele>
        <time>2022-12-15T13:35:48.618Z</time>
      </trkpt>
      <trkpt lat="47.53965" lon="-1.96259">
        <ele>42.729423</ele>
        <time>2022-12-15T13:35:51.612Z</time>
      </trkpt>
      <trkpt lat="47.53955" lon="-1.96253">
        <ele>42.663773</ele>
        <time>2022-12-15T13:35:54.613Z</time>
      </trkpt>
      <trkpt lat="47.53944" lon="-1.96249">
        <ele>42.597063</ele>
        <time>2022-12-15T13:35:57.608Z</time>
      </trkpt>
      <trkpt lat="47.53932" lon="-1.96246">
        <ele>42.527022</ele>
        <time>2022-12-15T13:36:00.618Z</time>
      </trkpt>
      <trkpt lat="47.53919" lon="-1.96243">
        <ele>42.453139</ele>
        <time>2022-12-15T13:36:03.600Z</time>
      </trkpt>
      <trkpt lat="47.53907" lon="-1.96241">
        <ele>42.503261</ele>
        <time>2022-12-15T13:36:06.605Z</time>
      </trkpt>
      <trkpt lat="47.53895" lon="-1.96239">
        <ele>42.721269</ele>
        <time>2022-12-15T13:36:09.617Z</time>
      </trkpt>
      <trkpt lat="47.53883" lon="-1.96237">
        <ele>42.940376</ele>
        <time>2022-12-15T13:36:12.612Z</time>
      </trkpt>
      <trkpt lat="47.53872" lon="-1.96236">
        <ele>43.136879</ele>
        <time>2022-12-15T13:36:15.617Z</time>
      </trkpt>
      <trkpt lat="47.53861" lon="-1.96235">
        <ele>43.340708</ele>
        <time>2022-12-15T13:36:18.616Z</time>
      </trkpt>
      <trkpt lat="47.53849" lon="-1.96234">
        <ele>43.562608</ele>
        <time>2022-12-15T13:36:21.620Z</time>
      </trkpt>
      <trkpt lat="47.53837" lon="-1.96233">
        <ele>43.78329</ele>
        <time>2022-12-15T13:36:24.623Z</time>
      </trkpt>
      <trkpt lat="47.53824" lon="-1.96231">
        <ele>44.011558</ele>
        <time>2022-12-15T13:36:27.611Z</time>
      </trkpt>
      <trkpt lat="47.53812" lon="-1.96229">
        <ele>44.228514</ele>
        <time>2022-12-15T13:36:30.608Z</time>
      </trkpt>
      <trkpt lat="47.53801" lon="-1.96229">
        <ele>44.437654</ele>
        <time>2022-12-15T13:36:33.597Z</time>
      </trkpt>
      <trkpt lat="47.53788" lon="-1.96227">
        <ele>44.674435</ele>
        <time>2022-12-15T13:36:36.616Z</time>
      </trkpt>
      <trkpt lat="47.53774" lon="-1.96225">
        <ele>44.915356</ele>
        <time>2022-12-15T13:36:39.618Z</time>
      </trkpt>
      <trkpt lat="47.53762" lon="-1.96223">
        <ele>45.147497</ele>
        <time>2022-12-15T13:36:42.620Z</time>
      </trkpt>
      <trkpt lat="47.5375" lon="-1.96222">
        <ele>45.356698</ele>
        <time>2022-12-15T13:36:45.613Z</time>
      </trkpt>
      <trkpt lat="47.53739" lon="-1.9622">
        <ele>45.563157</ele>
        <time>2022-12-15T13:36:48.603Z</time>
      </trkpt>
      <trkpt lat="47.53728" lon="-1.9622">
        <ele>45.646234</ele>
        <time>2022-12-15T13:36:51.619Z</time>
      </trkpt>
      <trkpt lat="47.53717" lon="-1.96217">
        <ele>45.561305</ele>
        <time>2022-12-15T13:36:54.619Z</time>
      </trkpt>
      <trkpt lat="47.53705" lon="-1.96216">
        <ele>45.473741</ele>
        <time>2022-12-15T13:36:57.619Z</time>
      </trkpt>
      <trkpt lat="47.53692" lon="-1.96214">
        <ele>45.378883</ele>
        <time>2022-12-15T13:37:00.623Z</time>
      </trkpt>
      <trkpt lat="47.5368" lon="-1.96213">
        <ele>45.288565</ele>
        <time>2022-12-15T13:37:03.598Z</time>
      </trkpt>
      <trkpt lat="47.53668" lon="-1.96211">
        <ele>45.200789</ele>
        <time>2022-12-15T13:37:06.616Z</time>
      </trkpt>
      <trkpt lat="47.53658" lon="-1.9621">
        <ele>45.127439</ele>
        <time>2022-12-15T13:37:09.605Z</time>
      </trkpt>
      <trkpt lat="47.53646" lon="-1.96208">
        <ele>45.037851</ele>
        <time>2022-12-15T13:37:12.608Z</time>
      </trkpt>
      <trkpt lat="47.53634" lon="-1.96207">
        <ele>44.949791</ele>
        <time>2022-12-15T13:37:15.619Z</time>
      </trkpt>
      <trkpt lat="47.53622" lon="-1.96206">
        <ele>44.863731</ele>
        <time>2022-12-15T13:37:18.621Z</time>
      </trkpt>
      <trkpt lat="47.5361" lon="-1.96203">
        <ele>44.776762</ele>
        <time>2022-12-15T13:37:21.618Z</time>
      </trkpt>
      <trkpt lat="47.53601" lon="-1.962">
        <ele>44.71094</ele>
        <time>2022-12-15T13:37:23.600Z</time>
      </trkpt>
      <trkpt lat="47.53589" lon="-1.96195">
        <ele>44.617776</ele>
        <time>2022-12-15T13:37:26.613Z</time>
      </trkpt>
      <trkpt lat="47.53578" lon="-1.96191">
        <ele>44.535735</ele>
        <time>2022-12-15T13:37:29.609Z</time>
      </trkpt>
      <trkpt lat="47.53569" lon="-1.96187">
        <ele>44.464745</ele>
        <time>2022-12-15T13:37:32.615Z</time>
      </trkpt>
      <trkpt lat="47.53557" lon="-1.96183">
        <ele>44.373957</ele>
        <time>2022-12-15T13:37:35.620Z</time>
      </trkpt>
      <trkpt lat="47.53547" lon="-1.96179">
        <ele>44.402583</ele>
        <time>2022-12-15T13:37:38.605Z</time>
      </trkpt>
      <trkpt lat="47.53537" lon="-1.96175">
        <ele>44.449976</ele>
        <time>2022-12-15T13:37:41.618Z</time>
      </trkpt>
      <trkpt lat="47.53526" lon="-1.96171">
        <ele>44.503951</ele>
        <time>2022-12-15T13:37:44.617Z</time>
      </trkpt>
      <trkpt lat="47.53515" lon="-1.96166">
        <ele>44.55764</ele>
        <time>2022-12-15T13:37:47.609Z</time>
      </trkpt>
      <trkpt lat="47.53505" lon="-1.96162">
        <ele>44.610412</ele>
        <time>2022-12-15T13:37:50.620Z</time>
      </trkpt>
      <trkpt lat="47.53492" lon="-1.96156">
        <ele>44.673813</ele>
        <time>2022-12-15T13:37:53.598Z</time>
      </trkpt>
      <trkpt lat="47.5348" lon="-1.96151">
        <ele>44.735757</ele>
        <time>2022-12-15T13:37:56.620Z</time>
      </trkpt>
      <trkpt lat="47.53467" lon="-1.96146">
        <ele>44.79641</ele>
        <time>2022-12-15T13:37:59.619Z</time>
      </trkpt>
      <trkpt lat="47.53455" lon="-1.96141">
        <ele>44.858951</ele>
        <time>2022-12-15T13:38:02.613Z</time>
      </trkpt>
      <trkpt lat="47.53446" lon="-1.96137">
        <ele>44.903952</ele>
        <time>2022-12-15T13:38:04.610Z</time>
      </trkpt>
      <trkpt lat="47.53433" lon="-1.96132">
        <ele>44.966818</ele>
        <time>2022-12-15T13:38:07.620Z</time>
      </trkpt>
      <trkpt lat="47.53424" lon="-1.96128">
        <ele>45.013462</ele>
        <time>2022-12-15T13:38:09.604Z</time>
      </trkpt>
      <trkpt lat="47.53411" lon="-1.96122">
        <ele>45.074846</ele>
        <time>2022-12-15T13:38:12.606Z</time>
      </trkpt>
      <trkpt lat="47.53399" lon="-1.96118">
        <ele>45.136924</ele>
        <time>2022-12-15T13:38:15.616Z</time>
      </trkpt>
      <trkpt lat="47.53386" lon="-1.96113">
        <ele>45.197862</ele>
        <time>2022-12-15T13:38:18.607Z</time>
      </trkpt>
      <trkpt lat="47.53374" lon="-1.96108">
        <ele>45.284187</ele>
        <time>2022-12-15T13:38:21.620Z</time>
      </trkpt>
      <trkpt lat="47.53362" lon="-1.96102">
        <ele>45.381316</ele>
        <time>2022-12-15T13:38:24.618Z</time>
      </trkpt>
      <trkpt lat="47.53349" lon="-1.96096">
        <ele>45.479949</ele>
        <time>2022-12-15T13:38:27.619Z</time>
      </trkpt>
      <trkpt lat="47.53338" lon="-1.96091">
        <ele>45.570217</ele>
        <time>2022-12-15T13:38:30.620Z</time>
      </trkpt>
      <trkpt lat="47.53328" lon="-1.96087">
        <ele>45.649586</ele>
        <time>2022-12-15T13:38:33.599Z</time>
      </trkpt>
      <trkpt lat="47.53316" lon="-1.96083">
        <ele>45.740539</ele>
        <time>2022-12-15T13:38:36.619Z</time>
      </trkpt>
      <trkpt lat="47.53303" lon="-1.96078">
        <ele>45.843574</ele>
        <time>2022-12-15T13:38:39.617Z</time>
      </trkpt>
      <trkpt lat="47.5329" lon="-1.96073">
        <ele>45.945536</ele>
        <time>2022-12-15T13:38:42.596Z</time>
      </trkpt>
      <trkpt lat="47.53278" lon="-1.96067">
        <ele>46.04699</ele>
        <time>2022-12-15T13:38:45.608Z</time>
      </trkpt>
      <trkpt lat="47.53265" lon="-1.96061">
        <ele>46.142808</ele>
        <time>2022-12-15T13:38:48.620Z</time>
      </trkpt>
      <trkpt lat="47.53257" lon="-1.96058">
        <ele>46.211472</ele>
        <time>2022-12-15T13:38:50.622Z</time>
      </trkpt>
      <trkpt lat="47.53248" lon="-1.96054">
        <ele>46.283484</ele>
        <time>2022-12-15T13:38:52.603Z</time>
      </trkpt>
      <trkpt lat="47.53238" lon="-1.96051">
        <ele>46.356443</ele>
        <time>2022-12-15T13:38:54.621Z</time>
      </trkpt>
      <trkpt lat="47.5323" lon="-1.96047">
        <ele>46.424946</ele>
        <time>2022-12-15T13:38:56.609Z</time>
      </trkpt>
      <trkpt lat="47.53217" lon="-1.96041">
        <ele>46.52793</ele>
        <time>2022-12-15T13:38:59.618Z</time>
      </trkpt>
      <trkpt lat="47.53205" lon="-1.96035">
        <ele>46.569742</ele>
        <time>2022-12-15T13:39:02.607Z</time>
      </trkpt>
      <trkpt lat="47.53195" lon="-1.96029">
        <ele>46.52186</ele>
        <time>2022-12-15T13:39:05.620Z</time>
      </trkpt>
      <trkpt lat="47.53184" lon="-1.96022">
        <ele>46.470616</ele>
        <time>2022-12-15T13:39:08.605Z</time>
      </trkpt>
      <trkpt lat="47.53175" lon="-1.96017">
        <ele>46.428303</ele>
        <time>2022-12-15T13:39:11.616Z</time>
      </trkpt>
      <trkpt lat="47.53164" lon="-1.96011">
        <ele>46.377288</ele>
        <time>2022-12-15T13:39:14.614Z</time>
      </trkpt>
      <trkpt lat="47.53153" lon="-1.96003">
        <ele>46.322945</ele>
        <time>2022-12-15T13:39:17.621Z</time>
      </trkpt>
      <trkpt lat="47.53144" lon="-1.95991">
        <ele>46.267548</ele>
        <time>2022-12-15T13:39:20.606Z</time>
      </trkpt>
      <trkpt lat="47.53134" lon="-1.95981">
        <ele>46.215554</ele>
        <time>2022-12-15T13:39:23.599Z</time>
      </trkpt>
      <trkpt lat="47.53124" lon="-1.95977">
        <ele>46.168731</ele>
        <time>2022-12-15T13:39:26.606Z</time>
      </trkpt>
      <trkpt lat="47.53114" lon="-1.95978">
        <ele>46.124154</ele>
        <time>2022-12-15T13:39:29.602Z</time>
      </trkpt>
      <trkpt lat="47.53103" lon="-1.95977">
        <ele>46.079503</ele>
        <time>2022-12-15T13:39:33.601Z</time>
      </trkpt>
      <trkpt lat="47.53091" lon="-1.95975">
        <ele>46.025391</ele>
        <time>2022-12-15T13:39:37.608Z</time>
      </trkpt>
      <trkpt lat="47.53081" lon="-1.95974">
        <ele>45.978959</ele>
        <time>2022-12-15T13:39:40.619Z</time>
      </trkpt>
      <trkpt lat="47.53071" lon="-1.95975">
        <ele>45.935399</ele>
        <time>2022-12-15T13:39:42.620Z</time>
      </trkpt>
      <trkpt lat="47.53059" lon="-1.9598">
        <ele>45.879214</ele>
        <time>2022-12-15T13:39:45.601Z</time>
      </trkpt>
      <trkpt lat="47.53046" lon="-1.95986">
        <ele>45.82059</ele>
        <time>2022-12-15T13:39:48.596Z</time>
      </trkpt>
      <trkpt lat="47.53034" lon="-1.95995">
        <ele>45.860621</ele>
        <time>2022-12-15T13:39:51.602Z</time>
      </trkpt>
      <trkpt lat="47.53024" lon="-1.96005">
        <ele>45.961741</ele>
        <time>2022-12-15T13:39:54.609Z</time>
      </trkpt>
      <trkpt lat="47.53015" lon="-1.96016">
        <ele>46.06257</ele>
        <time>2022-12-15T13:39:57.608Z</time>
      </trkpt>
      <trkpt lat="47.53006" lon="-1.96028">
        <ele>46.162164</ele>
        <time>2022-12-15T13:40:00.607Z</time>
      </trkpt>
      <trkpt lat="47.52997" lon="-1.96039">
        <ele>46.260846</ele>
        <time>2022-12-15T13:40:03.597Z</time>
      </trkpt>
      <trkpt lat="47.52986" lon="-1.96051">
        <ele>46.371747</ele>
        <time>2022-12-15T13:40:06.597Z</time>
      </trkpt>
      <trkpt lat="47.52979" lon="-1.96061">
        <ele>46.457345</ele>
        <time>2022-12-15T13:40:09.600Z</time>
      </trkpt>
      <trkpt lat="47.52969" lon="-1.96073">
        <ele>46.564591</ele>
        <time>2022-12-15T13:40:12.620Z</time>
      </trkpt>
      <trkpt lat="47.52958" lon="-1.96085">
        <ele>46.677095</ele>
        <time>2022-12-15T13:40:15.621Z</time>
      </trkpt>
      <trkpt lat="47.52948" lon="-1.96098">
        <ele>46.7845</ele>
        <time>2022-12-15T13:40:18.617Z</time>
      </trkpt>
      <trkpt lat="47.52938" lon="-1.96108">
        <ele>46.883952</ele>
        <time>2022-12-15T13:40:21.619Z</time>
      </trkpt>
      <trkpt lat="47.5293" lon="-1.96119">
        <ele>46.978768</ele>
        <time>2022-12-15T13:40:24.611Z</time>
      </trkpt>
      <trkpt lat="47.52921" lon="-1.9613">
        <ele>47.075317</ele>
        <time>2022-12-15T13:40:27.609Z</time>
      </trkpt>
      <trkpt lat="47.5291" lon="-1.96143">
        <ele>47.187927</ele>
        <time>2022-12-15T13:40:30.619Z</time>
      </trkpt>
      <trkpt lat="47.52903" lon="-1.96152">
        <ele>47.264074</ele>
        <time>2022-12-15T13:40:32.618Z</time>
      </trkpt>
      <trkpt lat="47.52893" lon="-1.96164">
        <ele>47.124489</ele>
        <time>2022-12-15T13:40:35.613Z</time>
      </trkpt>
      <trkpt lat="47.52882" lon="-1.96176">
        <ele>46.886591</ele>
        <time>2022-12-15T13:40:38.606Z</time>
      </trkpt>
      <trkpt lat="47.52874" lon="-1.96183">
        <ele>46.705638</ele>
        <time>2022-12-15T13:40:40.609Z</time>
      </trkpt>
      <trkpt lat="47.52865" lon="-1.96189">
        <ele>46.539226</ele>
        <time>2022-12-15T13:40:42.607Z</time>
      </trkpt>
      <trkpt lat="47.52856" lon="-1.96193">
        <ele>46.363827</ele>
        <time>2022-12-15T13:40:44.601Z</time>
      </trkpt>
      <trkpt lat="47.52847" lon="-1.96198">
        <ele>46.19171</ele>
        <time>2022-12-15T13:40:46.607Z</time>
      </trkpt>
      <trkpt lat="47.52833" lon="-1.96206">
        <ele>45.933849</ele>
        <time>2022-12-15T13:40:49.621Z</time>
      </trkpt>
      <trkpt lat="47.52821" lon="-1.96212">
        <ele>45.696772</ele>
        <time>2022-12-15T13:40:52.609Z</time>
      </trkpt>
      <trkpt lat="47.52808" lon="-1.96218">
        <ele>45.454013</ele>
        <time>2022-12-15T13:40:55.606Z</time>
      </trkpt>
      <trkpt lat="47.52799" lon="-1.96222">
        <ele>45.284356</ele>
        <time>2022-12-15T13:40:57.619Z</time>
      </trkpt>
      <trkpt lat="47.5279" lon="-1.96226">
        <ele>45.123534</ele>
        <time>2022-12-15T13:40:59.621Z</time>
      </trkpt>
      <trkpt lat="47.52778" lon="-1.9623">
        <ele>44.899114</ele>
        <time>2022-12-15T13:41:02.600Z</time>
      </trkpt>
      <trkpt lat="47.52768" lon="-1.96234">
        <ele>44.710714</ele>
        <time>2022-12-15T13:41:05.621Z</time>
      </trkpt>
      <trkpt lat="47.52759" lon="-1.96236">
        <ele>44.545097</ele>
        <time>2022-12-15T13:41:07.601Z</time>
      </trkpt>
      <trkpt lat="47.5275" lon="-1.96239">
        <ele>44.383871</ele>
        <time>2022-12-15T13:41:09.600Z</time>
      </trkpt>
      <trkpt lat="47.52741" lon="-1.96242">
        <ele>44.221125</ele>
        <time>2022-12-15T13:41:11.613Z</time>
      </trkpt>
      <trkpt lat="47.52732" lon="-1.96244">
        <ele>44.064617</ele>
        <time>2022-12-15T13:41:13.599Z</time>
      </trkpt>
      <trkpt lat="47.5272" lon="-1.96248">
        <ele>43.975392</ele>
        <time>2022-12-15T13:41:16.603Z</time>
      </trkpt>
      <trkpt lat="47.52709" lon="-1.96249">
        <ele>43.892712</ele>
        <time>2022-12-15T13:41:19.601Z</time>
      </trkpt>
      <trkpt lat="47.52699" lon="-1.96251">
        <ele>43.822333</ele>
        <time>2022-12-15T13:41:21.606Z</time>
      </trkpt>
      <trkpt lat="47.5269" lon="-1.96252">
        <ele>43.75442</ele>
        <time>2022-12-15T13:41:23.599Z</time>
      </trkpt>
      <trkpt lat="47.52681" lon="-1.96253">
        <ele>43.687335</ele>
        <time>2022-12-15T13:41:25.603Z</time>
      </trkpt>
      <trkpt lat="47.52672" lon="-1.96254">
        <ele>43.620977</ele>
        <time>2022-12-15T13:41:27.604Z</time>
      </trkpt>
      <trkpt lat="47.52663" lon="-1.96255">
        <ele>43.555279</ele>
        <time>2022-12-15T13:41:29.611Z</time>
      </trkpt>
      <trkpt lat="47.5265" lon="-1.96255">
        <ele>43.459875</ele>
        <time>2022-12-15T13:41:32.600Z</time>
      </trkpt>
      <trkpt lat="47.52636" lon="-1.96255">
        <ele>43.363029</ele>
        <time>2022-12-15T13:41:35.616Z</time>
      </trkpt>
      <trkpt lat="47.52623" lon="-1.96254">
        <ele>43.268214</ele>
        <time>2022-12-15T13:41:38.613Z</time>
      </trkpt>
      <trkpt lat="47.52611" lon="-1.96252">
        <ele>43.178751</ele>
        <time>2022-12-15T13:41:41.613Z</time>
      </trkpt>
      <trkpt lat="47.52602" lon="-1.96249">
        <ele>43.110993</ele>
        <time>2022-12-15T13:41:43.602Z</time>
      </trkpt>
      <trkpt lat="47.52591" lon="-1.96242">
        <ele>43.023273</ele>
        <time>2022-12-15T13:41:46.606Z</time>
      </trkpt>
      <trkpt lat="47.52583" lon="-1.96236">
        <ele>42.957084</ele>
        <time>2022-12-15T13:41:48.603Z</time>
      </trkpt>
      <trkpt lat="47.52572" lon="-1.96227">
        <ele>42.867771</ele>
        <time>2022-12-15T13:41:51.624Z</time>
      </trkpt>
      <trkpt lat="47.52563" lon="-1.96217">
        <ele>42.78409</ele>
        <time>2022-12-15T13:41:54.619Z</time>
      </trkpt>
      <trkpt lat="47.52554" lon="-1.96205">
        <ele>42.830816</ele>
        <time>2022-12-15T13:41:57.619Z</time>
      </trkpt>
      <trkpt lat="47.52545" lon="-1.96192">
        <ele>42.942357</ele>
        <time>2022-12-15T13:42:00.619Z</time>
      </trkpt>
      <trkpt lat="47.52536" lon="-1.96178">
        <ele>43.051789</ele>
        <time>2022-12-15T13:42:03.600Z</time>
      </trkpt>
      <trkpt lat="47.52528" lon="-1.96164">
        <ele>43.159137</ele>
        <time>2022-12-15T13:42:06.623Z</time>
      </trkpt>
      <trkpt lat="47.52521" lon="-1.96149">
        <ele>43.265685</ele>
        <time>2022-12-15T13:42:09.618Z</time>
      </trkpt>
      <trkpt lat="47.52514" lon="-1.96134">
        <ele>43.373936</ele>
        <time>2022-12-15T13:42:12.618Z</time>
      </trkpt>
      <trkpt lat="47.52507" lon="-1.96117">
        <ele>43.48902</ele>
        <time>2022-12-15T13:42:15.619Z</time>
      </trkpt>
      <trkpt lat="47.525" lon="-1.96101">
        <ele>43.599185</ele>
        <time>2022-12-15T13:42:18.617Z</time>
      </trkpt>
      <trkpt lat="47.52494" lon="-1.9609">
        <ele>43.678562</ele>
        <time>2022-12-15T13:42:20.619Z</time>
      </trkpt>
      <trkpt lat="47.52489" lon="-1.96078">
        <ele>43.761791</ele>
        <time>2022-12-15T13:42:22.616Z</time>
      </trkpt>
      <trkpt lat="47.52484" lon="-1.96066">
        <ele>43.845128</ele>
        <time>2022-12-15T13:42:24.618Z</time>
      </trkpt>
      <trkpt lat="47.52479" lon="-1.96054">
        <ele>43.926943</ele>
        <time>2022-12-15T13:42:26.617Z</time>
      </trkpt>
      <trkpt lat="47.52474" lon="-1.96042">
        <ele>44.010198</ele>
        <time>2022-12-15T13:42:28.605Z</time>
      </trkpt>
      <trkpt lat="47.52469" lon="-1.96031">
        <ele>44.088152</ele>
        <time>2022-12-15T13:42:30.620Z</time>
      </trkpt>
      <trkpt lat="47.52464" lon="-1.96019">
        <ele>44.168177</ele>
        <time>2022-12-15T13:42:32.605Z</time>
      </trkpt>
      <trkpt lat="47.52458" lon="-1.96003">
        <ele>44.27451</ele>
        <time>2022-12-15T13:42:35.622Z</time>
      </trkpt>
      <trkpt lat="47.52453" lon="-1.95991">
        <ele>44.338573</ele>
        <time>2022-12-15T13:42:37.619Z</time>
      </trkpt>
      <trkpt lat="47.52447" lon="-1.95977">
        <ele>44.403061</ele>
        <time>2022-12-15T13:42:40.626Z</time>
      </trkpt>
      <trkpt lat="47.5244" lon="-1.95962">
        <ele>44.468151</ele>
        <time>2022-12-15T13:42:43.599Z</time>
      </trkpt>
      <trkpt lat="47.52434" lon="-1.95948">
        <ele>44.533877</ele>
        <time>2022-12-15T13:42:46.615Z</time>
      </trkpt>
      <trkpt lat="47.52426" lon="-1.95933">
        <ele>44.606293</ele>
        <time>2022-12-15T13:42:49.600Z</time>
      </trkpt>
      <trkpt lat="47.52421" lon="-1.9592">
        <ele>44.665405</ele>
        <time>2022-12-15T13:42:51.620Z</time>
      </trkpt>
      <trkpt lat="47.52414" lon="-1.95902">
        <ele>44.74259</ele>
        <time>2022-12-15T13:42:54.608Z</time>
      </trkpt>
      <trkpt lat="47.52408" lon="-1.95891">
        <ele>44.794774</ele>
        <time>2022-12-15T13:42:56.610Z</time>
      </trkpt>
      <trkpt lat="47.52401" lon="-1.95874">
        <ele>44.871379</ele>
        <time>2022-12-15T13:42:59.618Z</time>
      </trkpt>
      <trkpt lat="47.52396" lon="-1.95863">
        <ele>44.923206</ele>
        <time>2022-12-15T13:43:01.604Z</time>
      </trkpt>
      <trkpt lat="47.52391" lon="-1.9585">
        <ele>44.979804</ele>
        <time>2022-12-15T13:43:03.602Z</time>
      </trkpt>
      <trkpt lat="47.52386" lon="-1.95838">
        <ele>45.032137</ele>
        <time>2022-12-15T13:43:05.620Z</time>
      </trkpt>
      <trkpt lat="47.52381" lon="-1.95827">
        <ele>45.083644</ele>
        <time>2022-12-15T13:43:07.621Z</time>
      </trkpt>
      <trkpt lat="47.52374" lon="-1.95811">
        <ele>45.154437</ele>
        <time>2022-12-15T13:43:10.625Z</time>
      </trkpt>
      <trkpt lat="47.52367" lon="-1.95796">
        <ele>45.225538</ele>
        <time>2022-12-15T13:43:13.600Z</time>
      </trkpt>
      <trkpt lat="47.5236" lon="-1.95781">
        <ele>45.295066</ele>
        <time>2022-12-15T13:43:16.602Z</time>
      </trkpt>
      <trkpt lat="47.52353" lon="-1.95767">
        <ele>45.268043</ele>
        <time>2022-12-15T13:43:19.623Z</time>
      </trkpt>
      <trkpt lat="47.52346" lon="-1.95753">
        <ele>45.180923</ele>
        <time>2022-12-15T13:43:22.619Z</time>
      </trkpt>
      <trkpt lat="47.52339" lon="-1.9574">
        <ele>45.096272</ele>
        <time>2022-12-15T13:43:26.620Z</time>
      </trkpt>
      <trkpt lat="47.52332" lon="-1.95728">
        <ele>45.018786</ele>
        <time>2022-12-15T13:43:29.617Z</time>
      </trkpt>
      <trkpt lat="47.52325" lon="-1.95716">
        <ele>44.939363</ele>
        <time>2022-12-15T13:43:32.617Z</time>
      </trkpt>
      <trkpt lat="47.52319" lon="-1.95702">
        <ele>44.853954</ele>
        <time>2022-12-15T13:43:35.625Z</time>
      </trkpt>
      <trkpt lat="47.52311" lon="-1.95686">
        <ele>44.759041</ele>
        <time>2022-12-15T13:43:38.620Z</time>
      </trkpt>
      <trkpt lat="47.52304" lon="-1.95671">
        <ele>44.663269</ele>
        <time>2022-12-15T13:43:41.614Z</time>
      </trkpt>
      <trkpt lat="47.52298" lon="-1.95655">
        <ele>44.570695</ele>
        <time>2022-12-15T13:43:44.616Z</time>
      </trkpt>
      <trkpt lat="47.52293" lon="-1.95639">
        <ele>44.484475</ele>
        <time>2022-12-15T13:43:47.608Z</time>
      </trkpt>
      <trkpt lat="47.52289" lon="-1.95622">
        <ele>44.397754</ele>
        <time>2022-12-15T13:43:50.603Z</time>
      </trkpt>
      <trkpt lat="47.52287" lon="-1.95606">
        <ele>44.312659</ele>
        <time>2022-12-15T13:43:53.602Z</time>
      </trkpt>
      <trkpt lat="47.52285" lon="-1.95588">
        <ele>44.222222</ele>
        <time>2022-12-15T13:43:56.621Z</time>
      </trkpt>
      <trkpt lat="47.52284" lon="-1.95572">
        <ele>44.142534</ele>
        <time>2022-12-15T13:43:59.603Z</time>
      </trkpt>
      <trkpt lat="47.52284" lon="-1.95556">
        <ele>44.062014</ele>
        <time>2022-12-15T13:44:02.621Z</time>
      </trkpt>
      <trkpt lat="47.52284" lon="-1.9554">
        <ele>43.994328</ele>
        <time>2022-12-15T13:44:05.621Z</time>
      </trkpt>
      <trkpt lat="47.52285" lon="-1.9552">
        <ele>44.05394</ele>
        <time>2022-12-15T13:44:08.618Z</time>
      </trkpt>
      <trkpt lat="47.52287" lon="-1.95502">
        <ele>44.110828</ele>
        <time>2022-12-15T13:44:11.614Z</time>
      </trkpt>
      <trkpt lat="47.52288" lon="-1.95486">
        <ele>44.161543</ele>
        <time>2022-12-15T13:44:14.595Z</time>
      </trkpt>
      <trkpt lat="47.52292" lon="-1.95467">
        <ele>44.221291</ele>
        <time>2022-12-15T13:44:17.622Z</time>
      </trkpt>
      <trkpt lat="47.52296" lon="-1.95455">
        <ele>44.262625</ele>
        <time>2022-12-15T13:44:19.601Z</time>
      </trkpt>
      <trkpt lat="47.52301" lon="-1.9544">
        <ele>44.314674</ele>
        <time>2022-12-15T13:44:22.600Z</time>
      </trkpt>
      <trkpt lat="47.52306" lon="-1.95426">
        <ele>44.363505</ele>
        <time>2022-12-15T13:44:25.623Z</time>
      </trkpt>
      <trkpt lat="47.5231" lon="-1.95412">
        <ele>44.408026</ele>
        <time>2022-12-15T13:44:28.628Z</time>
      </trkpt>
      <trkpt lat="47.52315" lon="-1.95398">
        <ele>44.45819</ele>
        <time>2022-12-15T13:44:31.608Z</time>
      </trkpt>
      <trkpt lat="47.52322" lon="-1.95385">
        <ele>44.507787</ele>
        <time>2022-12-15T13:44:34.602Z</time>
      </trkpt>
      <trkpt lat="47.52327" lon="-1.95373">
        <ele>44.552021</ele>
        <time>2022-12-15T13:44:37.617Z</time>
      </trkpt>
      <trkpt lat="47.52333" lon="-1.95358">
        <ele>44.605004</ele>
        <time>2022-12-15T13:44:40.621Z</time>
      </trkpt>
      <trkpt lat="47.52339" lon="-1.95344">
        <ele>44.658402</ele>
        <time>2022-12-15T13:44:43.601Z</time>
      </trkpt>
      <trkpt lat="47.52347" lon="-1.95333">
        <ele>44.708368</ele>
        <time>2022-12-15T13:44:46.601Z</time>
      </trkpt>
      <trkpt lat="47.52357" lon="-1.95325">
        <ele>44.75881</ele>
        <time>2022-12-15T13:44:50.602Z</time>
      </trkpt>
      <trkpt lat="47.52367" lon="-1.95316">
        <ele>44.81529</ele>
        <time>2022-12-15T13:44:54.621Z</time>
      </trkpt>
      <trkpt lat="47.52375" lon="-1.95306">
        <ele>44.951923</ele>
        <time>2022-12-15T13:44:58.606Z</time>
      </trkpt>
      <trkpt lat="47.52377" lon="-1.9529">
        <ele>45.08914</ele>
        <time>2022-12-15T13:45:02.608Z</time>
      </trkpt>
      <trkpt lat="47.52378" lon="-1.95277">
        <ele>45.204559</ele>
        <time>2022-12-15T13:45:05.612Z</time>
      </trkpt>
      <trkpt lat="47.52381" lon="-1.95264">
        <ele>45.324594</ele>
        <time>2022-12-15T13:45:08.601Z</time>
      </trkpt>
      <trkpt lat="47.52386" lon="-1.95252">
        <ele>45.445698</ele>
        <time>2022-12-15T13:45:12.606Z</time>
      </trkpt>
      <trkpt lat="47.52382" lon="-1.95265">
        <ele>45.572127</ele>
        <time>2022-12-15T13:45:54.614Z</time>
      </trkpt>
      <trkpt lat="47.52382" lon="-1.95281">
        <ele>45.711471</ele>
        <time>2022-12-15T13:45:59.618Z</time>
      </trkpt>
      <trkpt lat="47.52391" lon="-1.95287">
        <ele>45.828989</ele>
        <time>2022-12-15T13:46:04.610Z</time>
      </trkpt>
      <trkpt lat="47.52397" lon="-1.95277">
        <ele>45.943458</ele>
        <time>2022-12-15T13:46:08.599Z</time>
      </trkpt>
      <trkpt lat="47.52404" lon="-1.95266">
        <ele>46.071775</ele>
        <time>2022-12-15T13:46:13.603Z</time>
      </trkpt>
      <trkpt lat="47.52411" lon="-1.95257">
        <ele>46.192585</ele>
        <time>2022-12-15T13:46:18.609Z</time>
      </trkpt>
      <trkpt lat="47.52419" lon="-1.9525">
        <ele>46.316177</ele>
        <time>2022-12-15T13:46:23.602Z</time>
      </trkpt>
      <trkpt lat="47.52417" lon="-1.95239">
        <ele>46.418749</ele>
        <time>2022-12-15T13:47:28.274Z</time>
      </trkpt>
      <trkpt lat="47.5242" lon="-1.95245">
        <ele>46.483634</ele>
        <time>2022-12-15T14:08:57.343Z</time>
      </trkpt>
      <trkpt lat="47.5242" lon="-1.95245">
        <ele>46.483634</ele>
        <time>2022-12-15T14:08:57.610Z</time>
      </trkpt>
      <trkpt lat="47.52408" lon="-1.95264">
        <ele>46.699593</ele>
        <time>2022-12-15T14:09:32.623Z</time>
      </trkpt>
      <trkpt lat="47.524" lon="-1.95273">
        <ele>46.829949</ele>
        <time>2022-12-15T14:09:35.615Z</time>
      </trkpt>
      <trkpt lat="47.52393" lon="-1.95282">
        <ele>46.952123</ele>
        <time>2022-12-15T14:09:38.627Z</time>
      </trkpt>
      <trkpt lat="47.52383" lon="-1.9528">
        <ele>47.077828</ele>
        <time>2022-12-15T14:09:43.618Z</time>
      </trkpt>
      <trkpt lat="47.52378" lon="-1.95267">
        <ele>46.829687</ele>
        <time>2022-12-15T14:09:49.613Z</time>
      </trkpt>
      <trkpt lat="47.52383" lon="-1.95254">
        <ele>46.50224</ele>
        <time>2022-12-15T14:09:55.610Z</time>
      </trkpt>
      <trkpt lat="47.5239" lon="-1.95242">
        <ele>46.17601</ele>
        <time>2022-12-15T14:10:00.624Z</time>
      </trkpt>
      <trkpt lat="47.52395" lon="-1.95231">
        <ele>45.888139</ele>
        <time>2022-12-15T14:10:17.611Z</time>
      </trkpt>
      <trkpt lat="47.52399" lon="-1.95218">
        <ele>45.588329</ele>
        <time>2022-12-15T14:10:32.610Z</time>
      </trkpt>
      <trkpt lat="47.52406" lon="-1.95209">
        <ele>45.293567</ele>
        <time>2022-12-15T14:10:51.613Z</time>
      </trkpt>
      <trkpt lat="47.52413" lon="-1.95201">
        <ele>44.995541</ele>
        <time>2022-12-15T14:11:04.613Z</time>
      </trkpt>
      <trkpt lat="47.52422" lon="-1.95191">
        <ele>44.660392</ele>
        <time>2022-12-15T14:11:11.646Z</time>
      </trkpt>
      <trkpt lat="47.52428" lon="-1.95181">
        <ele>44.360255</ele>
        <time>2022-12-15T14:11:15.613Z</time>
      </trkpt>
      <trkpt lat="47.52437" lon="-1.95177">
        <ele>44.06247</ele>
        <time>2022-12-15T14:11:19.609Z</time>
      </trkpt>
      <trkpt lat="47.52447" lon="-1.9518">
        <ele>43.733778</ele>
        <time>2022-12-15T14:11:25.615Z</time>
      </trkpt>
      <trkpt lat="47.52457" lon="-1.9518">
        <ele>43.429888</ele>
        <time>2022-12-15T14:11:30.611Z</time>
      </trkpt>
      <trkpt lat="47.52468" lon="-1.95176">
        <ele>43.069005</ele>
        <time>2022-12-15T14:11:35.623Z</time>
      </trkpt>
      <trkpt lat="47.52478" lon="-1.95172">
        <ele>42.72403</ele>
        <time>2022-12-15T14:11:40.618Z</time>
      </trkpt>
      <trkpt lat="47.52488" lon="-1.95165">
        <ele>42.364013</ele>
        <time>2022-12-15T14:11:44.625Z</time>
      </trkpt>
      <trkpt lat="47.52497" lon="-1.95157">
        <ele>42.040685</ele>
        <time>2022-12-15T14:11:47.626Z</time>
      </trkpt>
      <trkpt lat="47.52505" lon="-1.95148">
        <ele>41.717146</ele>
        <time>2022-12-15T14:11:50.624Z</time>
      </trkpt>
      <trkpt lat="47.52514" lon="-1.95139">
        <ele>41.376921</ele>
        <time>2022-12-15T14:11:53.623Z</time>
      </trkpt>
      <trkpt lat="47.52521" lon="-1.95128">
        <ele>41.318822</ele>
        <time>2022-12-15T14:11:56.621Z</time>
      </trkpt>
      <trkpt lat="47.52527" lon="-1.95117">
        <ele>41.284878</ele>
        <time>2022-12-15T14:11:59.614Z</time>
      </trkpt>
      <trkpt lat="47.52533" lon="-1.95104">
        <ele>41.25085</ele>
        <time>2022-12-15T14:12:02.629Z</time>
      </trkpt>
      <trkpt lat="47.52536" lon="-1.95089">
        <ele>41.214602</ele>
        <time>2022-12-15T14:12:05.616Z</time>
      </trkpt>
      <trkpt lat="47.52539" lon="-1.95074">
        <ele>41.177448</ele>
        <time>2022-12-15T14:12:08.606Z</time>
      </trkpt>
      <trkpt lat="47.52541" lon="-1.95059">
        <ele>41.142507</ele>
        <time>2022-12-15T14:12:11.631Z</time>
      </trkpt>
      <trkpt lat="47.52542" lon="-1.95043">
        <ele>41.105352</ele>
        <time>2022-12-15T14:12:14.614Z</time>
      </trkpt>
      <trkpt lat="47.52541" lon="-1.95026">
        <ele>41.066106</ele>
        <time>2022-12-15T14:12:17.608Z</time>
      </trkpt>
      <trkpt lat="47.52539" lon="-1.95009">
        <ele>41.026506</ele>
        <time>2022-12-15T14:12:20.630Z</time>
      </trkpt>
      <trkpt lat="47.52537" lon="-1.94991">
        <ele>40.985381</ele>
        <time>2022-12-15T14:12:23.625Z</time>
      </trkpt>
      <trkpt lat="47.52535" lon="-1.94973">
        <ele>40.942717</ele>
        <time>2022-12-15T14:12:26.629Z</time>
      </trkpt>
      <trkpt lat="47.52533" lon="-1.94955">
        <ele>40.900227</ele>
        <time>2022-12-15T14:12:29.609Z</time>
      </trkpt>
      <trkpt lat="47.52531" lon="-1.94937">
        <ele>40.859556</ele>
        <time>2022-12-15T14:12:32.629Z</time>
      </trkpt>
      <trkpt lat="47.52529" lon="-1.94918">
        <ele>40.814385</ele>
        <time>2022-12-15T14:12:35.609Z</time>
      </trkpt>
      <trkpt lat="47.52527" lon="-1.94899">
        <ele>40.769679</ele>
        <time>2022-12-15T14:12:38.634Z</time>
      </trkpt>
      <trkpt lat="47.52525" lon="-1.94881">
        <ele>40.774005</ele>
        <time>2022-12-15T14:12:41.618Z</time>
      </trkpt>
      <trkpt lat="47.52523" lon="-1.94863">
        <ele>40.926109</ele>
        <time>2022-12-15T14:12:44.630Z</time>
      </trkpt>
      <trkpt lat="47.52521" lon="-1.94845">
        <ele>41.080604</ele>
        <time>2022-12-15T14:12:47.633Z</time>
      </trkpt>
      <trkpt lat="47.52519" lon="-1.94828">
        <ele>41.230383</ele>
        <time>2022-12-15T14:12:50.630Z</time>
      </trkpt>
      <trkpt lat="47.52517" lon="-1.9481">
        <ele>41.383551</ele>
        <time>2022-12-15T14:12:53.628Z</time>
      </trkpt>
      <trkpt lat="47.52514" lon="-1.94792">
        <ele>41.538158</ele>
        <time>2022-12-15T14:12:56.632Z</time>
      </trkpt>
      <trkpt lat="47.52512" lon="-1.94774">
        <ele>41.694437</ele>
        <time>2022-12-15T14:12:59.625Z</time>
      </trkpt>
      <trkpt lat="47.5251" lon="-1.94756">
        <ele>41.850092</ele>
        <time>2022-12-15T14:13:02.621Z</time>
      </trkpt>
      <trkpt lat="47.52509" lon="-1.9474">
        <ele>41.985506</ele>
        <time>2022-12-15T14:13:05.624Z</time>
      </trkpt>
      <trkpt lat="47.52506" lon="-1.94724">
        <ele>42.12907</ele>
        <time>2022-12-15T14:13:08.629Z</time>
      </trkpt>
      <trkpt lat="47.52502" lon="-1.94707">
        <ele>42.282445</ele>
        <time>2022-12-15T14:13:11.623Z</time>
      </trkpt>
      <trkpt lat="47.52496" lon="-1.94691">
        <ele>42.441419</ele>
        <time>2022-12-15T14:13:14.607Z</time>
      </trkpt>
      <trkpt lat="47.52488" lon="-1.94676">
        <ele>42.599277</ele>
        <time>2022-12-15T14:13:17.610Z</time>
      </trkpt>
      <trkpt lat="47.5248" lon="-1.94661">
        <ele>42.755774</ele>
        <time>2022-12-15T14:13:20.618Z</time>
      </trkpt>
      <trkpt lat="47.52474" lon="-1.9465">
        <ele>42.884521</ele>
        <time>2022-12-15T14:13:23.629Z</time>
      </trkpt>
      <trkpt lat="47.52468" lon="-1.94638">
        <ele>43.009189</ele>
        <time>2022-12-15T14:13:26.627Z</time>
      </trkpt>
      <trkpt lat="47.52462" lon="-1.94628">
        <ele>43.130406</ele>
        <time>2022-12-15T14:13:29.624Z</time>
      </trkpt>
      <trkpt lat="47.52454" lon="-1.94616">
        <ele>43.275818</ele>
        <time>2022-12-15T14:13:32.609Z</time>
      </trkpt>
      <trkpt lat="47.52446" lon="-1.94604">
        <ele>43.423018</ele>
        <time>2022-12-15T14:13:35.626Z</time>
      </trkpt>
      <trkpt lat="47.52435" lon="-1.94592">
        <ele>43.597391</ele>
        <time>2022-12-15T14:13:38.618Z</time>
      </trkpt>
      <trkpt lat="47.52425" lon="-1.94583">
        <ele>43.760881</ele>
        <time>2022-12-15T14:13:41.625Z</time>
      </trkpt>
      <trkpt lat="47.52416" lon="-1.94576">
        <ele>43.884063</ele>
        <time>2022-12-15T14:13:44.625Z</time>
      </trkpt>
      <trkpt lat="47.52405" lon="-1.94567">
        <ele>44.052745</ele>
        <time>2022-12-15T14:13:47.632Z</time>
      </trkpt>
      <trkpt lat="47.52395" lon="-1.94559">
        <ele>44.197603</ele>
        <time>2022-12-15T14:13:50.633Z</time>
      </trkpt>
      <trkpt lat="47.52385" lon="-1.9455">
        <ele>44.349422</ele>
        <time>2022-12-15T14:13:53.641Z</time>
      </trkpt>
      <trkpt lat="47.52374" lon="-1.94543">
        <ele>44.51108</ele>
        <time>2022-12-15T14:13:56.626Z</time>
      </trkpt>
      <trkpt lat="47.52365" lon="-1.94536">
        <ele>44.635408</ele>
        <time>2022-12-15T14:13:58.625Z</time>
      </trkpt>
      <trkpt lat="47.52354" lon="-1.94527">
        <ele>44.797845</ele>
        <time>2022-12-15T14:14:00.625Z</time>
      </trkpt>
      <trkpt lat="47.52343" lon="-1.94518">
        <ele>44.968305</ele>
        <time>2022-12-15T14:14:03.632Z</time>
      </trkpt>
      <trkpt lat="47.52331" lon="-1.94511">
        <ele>45.129995</ele>
        <time>2022-12-15T14:14:06.628Z</time>
      </trkpt>
      <trkpt lat="47.52319" lon="-1.94505">
        <ele>45.304686</ele>
        <time>2022-12-15T14:14:09.612Z</time>
      </trkpt>
      <trkpt lat="47.52308" lon="-1.94501">
        <ele>45.444734</ele>
        <time>2022-12-15T14:14:11.626Z</time>
      </trkpt>
      <trkpt lat="47.52299" lon="-1.94498">
        <ele>45.556128</ele>
        <time>2022-12-15T14:14:13.624Z</time>
      </trkpt>
      <trkpt lat="47.5229" lon="-1.94496">
        <ele>45.668977</ele>
        <time>2022-12-15T14:14:15.626Z</time>
      </trkpt>
      <trkpt lat="47.5228" lon="-1.94494">
        <ele>45.790229</ele>
        <time>2022-12-15T14:14:17.618Z</time>
      </trkpt>
      <trkpt lat="47.5227" lon="-1.94491">
        <ele>45.917715</ele>
        <time>2022-12-15T14:14:19.621Z</time>
      </trkpt>
      <trkpt lat="47.52259" lon="-1.9449">
        <ele>46.059287</ele>
        <time>2022-12-15T14:14:21.626Z</time>
      </trkpt>
      <trkpt lat="47.52248" lon="-1.94486">
        <ele>46.189326</ele>
        <time>2022-12-15T14:14:23.632Z</time>
      </trkpt>
      <trkpt lat="47.52236" lon="-1.94484">
        <ele>46.35019</ele>
        <time>2022-12-15T14:14:26.629Z</time>
      </trkpt>
      <trkpt lat="47.52222" lon="-1.9448">
        <ele>46.515132</ele>
        <time>2022-12-15T14:14:29.627Z</time>
      </trkpt>
      <trkpt lat="47.5221" lon="-1.94477">
        <ele>46.675995</ele>
        <time>2022-12-15T14:14:32.618Z</time>
      </trkpt>
      <trkpt lat="47.522" lon="-1.94477">
        <ele>46.789782</ele>
        <time>2022-12-15T14:14:34.629Z</time>
      </trkpt>
      <trkpt lat="47.52191" lon="-1.94476">
        <ele>46.90724</ele>
        <time>2022-12-15T14:14:36.610Z</time>
      </trkpt>
      <trkpt lat="47.52182" lon="-1.94477">
        <ele>47.020944</ele>
        <time>2022-12-15T14:14:38.607Z</time>
      </trkpt>
      <trkpt lat="47.52172" lon="-1.94478">
        <ele>47.141288</ele>
        <time>2022-12-15T14:14:40.633Z</time>
      </trkpt>
      <trkpt lat="47.52158" lon="-1.9448">
        <ele>47.31156</ele>
        <time>2022-12-15T14:14:43.629Z</time>
      </trkpt>
      <trkpt lat="47.52148" lon="-1.94482">
        <ele>47.437257</ele>
        <time>2022-12-15T14:14:45.625Z</time>
      </trkpt>
      <trkpt lat="47.52139" lon="-1.94482">
        <ele>47.551044</ele>
        <time>2022-12-15T14:14:47.625Z</time>
      </trkpt>
      <trkpt lat="47.52127" lon="-1.94483">
        <ele>47.409819</ele>
        <time>2022-12-15T14:14:50.606Z</time>
      </trkpt>
      <trkpt lat="47.52117" lon="-1.94484">
        <ele>47.272005</ele>
        <time>2022-12-15T14:14:52.628Z</time>
      </trkpt>
      <trkpt lat="47.52103" lon="-1.94486">
        <ele>47.07426</ele>
        <time>2022-12-15T14:14:55.625Z</time>
      </trkpt>
      <trkpt lat="47.52093" lon="-1.94486">
        <ele>46.933954</ele>
        <time>2022-12-15T14:14:57.618Z</time>
      </trkpt>
      <trkpt lat="47.52084" lon="-1.94487">
        <ele>46.796463</ele>
        <time>2022-12-15T14:14:59.606Z</time>
      </trkpt>
      <trkpt lat="47.52074" lon="-1.94488">
        <ele>46.653022</ele>
        <time>2022-12-15T14:15:01.627Z</time>
      </trkpt>
      <trkpt lat="47.5206" lon="-1.94488">
        <ele>46.454186</ele>
        <time>2022-12-15T14:15:04.633Z</time>
      </trkpt>
      <trkpt lat="47.52047" lon="-1.94489">
        <ele>46.265243</ele>
        <time>2022-12-15T14:15:07.629Z</time>
      </trkpt>
      <trkpt lat="47.52033" lon="-1.94489">
        <ele>46.072012</ele>
        <time>2022-12-15T14:15:10.626Z</time>
      </trkpt>
      <trkpt lat="47.52022" lon="-1.94491">
        <ele>45.912654</ele>
        <time>2022-12-15T14:15:12.614Z</time>
      </trkpt>
      <trkpt lat="47.52012" lon="-1.94492">
        <ele>45.77064</ele>
        <time>2022-12-15T14:15:14.634Z</time>
      </trkpt>
      <trkpt lat="47.52002" lon="-1.94493">
        <ele>45.625901</ele>
        <time>2022-12-15T14:15:17.626Z</time>
      </trkpt>
      <trkpt lat="47.51989" lon="-1.94494">
        <ele>45.439779</ele>
        <time>2022-12-15T14:15:20.625Z</time>
      </trkpt>
      <trkpt lat="47.51978" lon="-1.94495">
        <ele>45.274867</ele>
        <time>2022-12-15T14:15:23.634Z</time>
      </trkpt>
      <trkpt lat="47.51966" lon="-1.94496">
        <ele>45.101092</ele>
        <time>2022-12-15T14:15:25.616Z</time>
      </trkpt>
      <trkpt lat="47.51956" lon="-1.94498">
        <ele>44.991956</ele>
        <time>2022-12-15T14:15:27.618Z</time>
      </trkpt>
      <trkpt lat="47.51945" lon="-1.94499">
        <ele>44.979837</ele>
        <time>2022-12-15T14:15:30.627Z</time>
      </trkpt>
      <trkpt lat="47.51933" lon="-1.94498">
        <ele>44.966452</ele>
        <time>2022-12-15T14:15:33.627Z</time>
      </trkpt>
      <trkpt lat="47.51922" lon="-1.94498">
        <ele>44.955354</ele>
        <time>2022-12-15T14:15:35.629Z</time>
      </trkpt>
      <trkpt lat="47.51912" lon="-1.94498">
        <ele>44.944584</ele>
        <time>2022-12-15T14:15:37.628Z</time>
      </trkpt>
      <trkpt lat="47.51902" lon="-1.94499">
        <ele>44.933699</ele>
        <time>2022-12-15T14:15:39.612Z</time>
      </trkpt>
      <trkpt lat="47.5189" lon="-1.94499">
        <ele>44.920645</ele>
        <time>2022-12-15T14:15:42.614Z</time>
      </trkpt>
      <trkpt lat="47.51879" lon="-1.94497">
        <ele>44.908216</ele>
        <time>2022-12-15T14:15:46.614Z</time>
      </trkpt>
      <trkpt lat="47.51869" lon="-1.94494">
        <ele>44.897145</ele>
        <time>2022-12-15T14:15:51.619Z</time>
      </trkpt>
      <trkpt lat="47.5186" lon="-1.94489">
        <ele>44.887167</ele>
        <time>2022-12-15T14:15:58.619Z</time>
      </trkpt>
      <trkpt lat="47.51851" lon="-1.94486">
        <ele>44.876443</ele>
        <time>2022-12-15T14:16:03.616Z</time>
      </trkpt>
      <trkpt lat="47.51839" lon="-1.94485">
        <ele>44.863712</ele>
        <time>2022-12-15T14:16:07.611Z</time>
      </trkpt>
      <trkpt lat="47.51828" lon="-1.94484">
        <ele>44.851735</ele>
        <time>2022-12-15T14:16:10.614Z</time>
      </trkpt>
      <trkpt lat="47.51816" lon="-1.94485">
        <ele>44.83846</ele>
        <time>2022-12-15T14:16:13.625Z</time>
      </trkpt>
      <trkpt lat="47.51805" lon="-1.94489">
        <ele>44.825699</ele>
        <time>2022-12-15T14:16:16.616Z</time>
      </trkpt>
      <trkpt lat="47.51793" lon="-1.94495">
        <ele>44.812</ele>
        <time>2022-12-15T14:16:19.612Z</time>
      </trkpt>
      <trkpt lat="47.51781" lon="-1.94504">
        <ele>44.790382</ele>
        <time>2022-12-15T14:16:22.619Z</time>
      </trkpt>
      <trkpt lat="47.51772" lon="-1.94511">
        <ele>44.6144</ele>
        <time>2022-12-15T14:16:25.619Z</time>
      </trkpt>
      <trkpt lat="47.51763" lon="-1.94523">
        <ele>44.4067</ele>
        <time>2022-12-15T14:16:28.616Z</time>
      </trkpt>
      <trkpt lat="47.51754" lon="-1.94535">
        <ele>44.21054</ele>
        <time>2022-12-15T14:16:31.629Z</time>
      </trkpt>
      <trkpt lat="47.51746" lon="-1.94547">
        <ele>44.017951</ele>
        <time>2022-12-15T14:16:34.616Z</time>
      </trkpt>
      <trkpt lat="47.51738" lon="-1.94561">
        <ele>43.817022</ele>
        <time>2022-12-15T14:16:37.625Z</time>
      </trkpt>
      <trkpt lat="47.5173" lon="-1.94574">
        <ele>43.6127</ele>
        <time>2022-12-15T14:16:40.628Z</time>
      </trkpt>
      <trkpt lat="47.51722" lon="-1.94588">
        <ele>43.410927</ele>
        <time>2022-12-15T14:16:43.639Z</time>
      </trkpt>
      <trkpt lat="47.51714" lon="-1.94601">
        <ele>43.203838</ele>
        <time>2022-12-15T14:16:46.628Z</time>
      </trkpt>
      <trkpt lat="47.51708" lon="-1.94611">
        <ele>43.053482</ele>
        <time>2022-12-15T14:16:48.629Z</time>
      </trkpt>
      <trkpt lat="47.51701" lon="-1.94621">
        <ele>42.8992</ele>
        <time>2022-12-15T14:16:50.628Z</time>
      </trkpt>
      <trkpt lat="47.51692" lon="-1.94635">
        <ele>42.681643</ele>
        <time>2022-12-15T14:16:53.629Z</time>
      </trkpt>
      <trkpt lat="47.51684" lon="-1.94646">
        <ele>42.498805</ele>
        <time>2022-12-15T14:16:55.624Z</time>
      </trkpt>
      <trkpt lat="47.51676" lon="-1.94654">
        <ele>42.339038</ele>
        <time>2022-12-15T14:16:57.607Z</time>
      </trkpt>
      <trkpt lat="47.51665" lon="-1.94662">
        <ele>42.133314</ele>
        <time>2022-12-15T14:17:00.604Z</time>
      </trkpt>
      <trkpt lat="47.51656" lon="-1.94669">
        <ele>41.966042</ele>
        <time>2022-12-15T14:17:03.617Z</time>
      </trkpt>
      <trkpt lat="47.51645" lon="-1.94673">
        <ele>41.820756</ele>
        <time>2022-12-15T14:17:06.616Z</time>
      </trkpt>
      <trkpt lat="47.51633" lon="-1.94673">
        <ele>42.020504</ele>
        <time>2022-12-15T14:17:09.626Z</time>
      </trkpt>
      <trkpt lat="47.51624" lon="-1.94673">
        <ele>42.187209</ele>
        <time>2022-12-15T14:17:11.628Z</time>
      </trkpt>
      <trkpt lat="47.51614" lon="-1.94674">
        <ele>42.350541</ele>
        <time>2022-12-15T14:17:13.631Z</time>
      </trkpt>
      <trkpt lat="47.51601" lon="-1.94675">
        <ele>42.578528</ele>
        <time>2022-12-15T14:17:16.621Z</time>
      </trkpt>
      <trkpt lat="47.5159" lon="-1.94676">
        <ele>42.77492</ele>
        <time>2022-12-15T14:17:19.623Z</time>
      </trkpt>
      <trkpt lat="47.51577" lon="-1.94677">
        <ele>42.992434</ele>
        <time>2022-12-15T14:17:22.623Z</time>
      </trkpt>
      <trkpt lat="47.51567" lon="-1.94677">
        <ele>43.164348</ele>
        <time>2022-12-15T14:17:24.619Z</time>
      </trkpt>
      <trkpt lat="47.51558" lon="-1.94678">
        <ele>43.334779</ele>
        <time>2022-12-15T14:17:26.627Z</time>
      </trkpt>
      <trkpt lat="47.51545" lon="-1.94678">
        <ele>43.546631</ele>
        <time>2022-12-15T14:17:29.624Z</time>
      </trkpt>
      <trkpt lat="47.51536" lon="-1.94678">
        <ele>43.709926</ele>
        <time>2022-12-15T14:17:31.621Z</time>
      </trkpt>
      <trkpt lat="47.51524" lon="-1.94679">
        <ele>43.923627</ele>
        <time>2022-12-15T14:17:34.637Z</time>
      </trkpt>
      <trkpt lat="47.51512" lon="-1.9468">
        <ele>44.125469</ele>
        <time>2022-12-15T14:17:37.624Z</time>
      </trkpt>
      <trkpt lat="47.515" lon="-1.94679">
        <ele>44.334174</ele>
        <time>2022-12-15T14:17:40.627Z</time>
      </trkpt>
      <trkpt lat="47.5149" lon="-1.94677">
        <ele>44.517721</ele>
        <time>2022-12-15T14:17:43.628Z</time>
      </trkpt>
      <trkpt lat="47.51477" lon="-1.94676">
        <ele>44.73677</ele>
        <time>2022-12-15T14:17:45.634Z</time>
      </trkpt>
      <trkpt lat="47.51467" lon="-1.94676">
        <ele>44.910479</ele>
        <time>2022-12-15T14:17:47.641Z</time>
      </trkpt>
      <trkpt lat="47.51455" lon="-1.94674">
        <ele>44.934627</ele>
        <time>2022-12-15T14:17:50.632Z</time>
      </trkpt>
      <trkpt lat="47.51446" lon="-1.94674">
        <ele>44.948389</ele>
        <time>2022-12-15T14:17:52.630Z</time>
      </trkpt>
      <trkpt lat="47.51432" lon="-1.94673">
        <ele>44.967583</ele>
        <time>2022-12-15T14:17:55.629Z</time>
      </trkpt>
      <trkpt lat="47.51423" lon="-1.94672">
        <ele>44.982117</ele>
        <time>2022-12-15T14:17:57.634Z</time>
      </trkpt>
      <trkpt lat="47.51414" lon="-1.94669">
        <ele>44.995505</ele>
        <time>2022-12-15T14:17:59.610Z</time>
      </trkpt>
      <trkpt lat="47.51402" lon="-1.94668">
        <ele>45.011932</ele>
        <time>2022-12-15T14:18:02.616Z</time>
      </trkpt>
      <trkpt lat="47.51393" lon="-1.94672">
        <ele>45.02598</ele>
        <time>2022-12-15T14:18:05.621Z</time>
      </trkpt>
      <trkpt lat="47.51382" lon="-1.94673">
        <ele>45.041523</ele>
        <time>2022-12-15T14:18:08.616Z</time>
      </trkpt>
      <trkpt lat="47.51371" lon="-1.94672">
        <ele>45.058373</ele>
        <time>2022-12-15T14:18:11.610Z</time>
      </trkpt>
      <trkpt lat="47.5136" lon="-1.94672">
        <ele>45.074624</ele>
        <time>2022-12-15T14:18:14.627Z</time>
      </trkpt>
      <trkpt lat="47.51347" lon="-1.94671">
        <ele>45.093369</ele>
        <time>2022-12-15T14:18:17.634Z</time>
      </trkpt>
      <trkpt lat="47.51334" lon="-1.94671">
        <ele>45.113134</ele>
        <time>2022-12-15T14:18:20.618Z</time>
      </trkpt>
      <trkpt lat="47.51322" lon="-1.9467">
        <ele>45.13014</ele>
        <time>2022-12-15T14:18:23.628Z</time>
      </trkpt>
      <trkpt lat="47.51308" lon="-1.94671">
        <ele>45.150351</ele>
        <time>2022-12-15T14:18:26.628Z</time>
      </trkpt>
      <trkpt lat="47.51298" lon="-1.9467">
        <ele>45.165485</ele>
        <time>2022-12-15T14:18:28.632Z</time>
      </trkpt>
      <trkpt lat="47.51286" lon="-1.94669">
        <ele>45.180282</ele>
        <time>2022-12-15T14:18:30.611Z</time>
      </trkpt>
      <trkpt lat="47.51276" lon="-1.94668">
        <ele>45.17611</ele>
        <time>2022-12-15T14:18:32.621Z</time>
      </trkpt>
      <trkpt lat="47.51266" lon="-1.94667">
        <ele>45.172034</ele>
        <time>2022-12-15T14:18:34.613Z</time>
      </trkpt>
      <trkpt lat="47.51256" lon="-1.94665">
        <ele>45.168006</ele>
        <time>2022-12-15T14:18:36.617Z</time>
      </trkpt>
      <trkpt lat="47.51247" lon="-1.94662">
        <ele>45.164262</ele>
        <time>2022-12-15T14:18:38.605Z</time>
      </trkpt>
      <trkpt lat="47.51236" lon="-1.9466">
        <ele>45.159918</ele>
        <time>2022-12-15T14:18:40.630Z</time>
      </trkpt>
      <trkpt lat="47.51223" lon="-1.94657">
        <ele>45.154406</ele>
        <time>2022-12-15T14:18:43.631Z</time>
      </trkpt>
      <trkpt lat="47.51213" lon="-1.94655">
        <ele>45.150494</ele>
        <time>2022-12-15T14:18:45.612Z</time>
      </trkpt>
      <trkpt lat="47.51203" lon="-1.94652">
        <ele>45.146343</ele>
        <time>2022-12-15T14:18:48.625Z</time>
      </trkpt>
      <trkpt lat="47.5119" lon="-1.9465">
        <ele>45.141145</ele>
        <time>2022-12-15T14:18:51.629Z</time>
      </trkpt>
      <trkpt lat="47.51181" lon="-1.94648">
        <ele>45.137454</ele>
        <time>2022-12-15T14:18:53.633Z</time>
      </trkpt>
      <trkpt lat="47.51171" lon="-1.94645">
        <ele>45.13337</ele>
        <time>2022-12-15T14:18:55.622Z</time>
      </trkpt>
      <trkpt lat="47.51162" lon="-1.94643">
        <ele>45.129679</ele>
        <time>2022-12-15T14:18:57.628Z</time>
      </trkpt>
      <trkpt lat="47.51153" lon="-1.9464">
        <ele>45.125745</ele>
        <time>2022-12-15T14:18:59.623Z</time>
      </trkpt>
      <trkpt lat="47.51139" lon="-1.94638">
        <ele>45.120307</ele>
        <time>2022-12-15T14:19:02.625Z</time>
      </trkpt>
      <trkpt lat="47.5113" lon="-1.94635">
        <ele>45.116283</ele>
        <time>2022-12-15T14:19:04.629Z</time>
      </trkpt>
      <trkpt lat="47.5112" lon="-1.94632">
        <ele>45.112407</ele>
        <time>2022-12-15T14:19:06.627Z</time>
      </trkpt>
      <trkpt lat="47.51111" lon="-1.94629">
        <ele>45.108739</ele>
        <time>2022-12-15T14:19:08.634Z</time>
      </trkpt>
      <trkpt lat="47.51098" lon="-1.94626">
        <ele>45.184089</ele>
        <time>2022-12-15T14:19:11.628Z</time>
      </trkpt>
      <trkpt lat="47.51087" lon="-1.94623">
        <ele>45.259798</ele>
        <time>2022-12-15T14:19:14.631Z</time>
      </trkpt>
      <trkpt lat="47.51074" lon="-1.9462">
        <ele>45.345998</ele>
        <time>2022-12-15T14:19:17.630Z</time>
      </trkpt>
      <trkpt lat="47.51064" lon="-1.94618">
        <ele>45.407526</ele>
        <time>2022-12-15T14:19:19.620Z</time>
      </trkpt>
      <trkpt lat="47.51052" lon="-1.94616">
        <ele>45.488092</ele>
        <time>2022-12-15T14:19:22.633Z</time>
      </trkpt>
      <trkpt lat="47.51043" lon="-1.94615">
        <ele>45.550174</ele>
        <time>2022-12-15T14:19:24.632Z</time>
      </trkpt>
      <trkpt lat="47.5103" lon="-1.94611">
        <ele>45.634662</ele>
        <time>2022-12-15T14:19:27.628Z</time>
      </trkpt>
      <trkpt lat="47.51017" lon="-1.94607">
        <ele>45.718013</ele>
        <time>2022-12-15T14:19:30.622Z</time>
      </trkpt>
      <trkpt lat="47.51005" lon="-1.94604">
        <ele>45.802657</ele>
        <time>2022-12-15T14:19:33.628Z</time>
      </trkpt>
      <trkpt lat="47.50992" lon="-1.94601">
        <ele>45.883515</ele>
        <time>2022-12-15T14:19:36.628Z</time>
      </trkpt>
      <trkpt lat="47.50983" lon="-1.94598">
        <ele>45.946236</ele>
        <time>2022-12-15T14:19:39.626Z</time>
      </trkpt>
      <trkpt lat="47.50972" lon="-1.94591">
        <ele>46.022327</ele>
        <time>2022-12-15T14:19:42.618Z</time>
      </trkpt>
      <trkpt lat="47.50963" lon="-1.94585">
        <ele>46.088616</ele>
        <time>2022-12-15T14:19:45.606Z</time>
      </trkpt>
      <trkpt lat="47.50954" lon="-1.94579">
        <ele>46.149888</ele>
        <time>2022-12-15T14:19:47.629Z</time>
      </trkpt>
      <trkpt lat="47.50945" lon="-1.94574">
        <ele>46.211834</ele>
        <time>2022-12-15T14:19:49.632Z</time>
      </trkpt>
      <trkpt lat="47.50936" lon="-1.94568">
        <ele>46.276918</ele>
        <time>2022-12-15T14:19:51.639Z</time>
      </trkpt>
      <trkpt lat="47.50927" lon="-1.94563">
        <ele>46.252471</ele>
        <time>2022-12-15T14:19:53.626Z</time>
      </trkpt>
      <trkpt lat="47.50918" lon="-1.94558">
        <ele>46.228262</ele>
        <time>2022-12-15T14:19:55.628Z</time>
      </trkpt>
      <trkpt lat="47.50908" lon="-1.94554">
        <ele>46.201738</ele>
        <time>2022-12-15T14:19:57.629Z</time>
      </trkpt>
      <trkpt lat="47.50899" lon="-1.9455">
        <ele>46.176547</ele>
        <time>2022-12-15T14:19:59.629Z</time>
      </trkpt>
      <trkpt lat="47.50889" lon="-1.94546">
        <ele>46.150536</ele>
        <time>2022-12-15T14:20:01.622Z</time>
      </trkpt>
      <trkpt lat="47.50879" lon="-1.94542">
        <ele>46.124851</ele>
        <time>2022-12-15T14:20:03.627Z</time>
      </trkpt>
      <trkpt lat="47.50871" lon="-1.94539">
        <ele>46.101429</ele>
        <time>2022-12-15T14:20:05.627Z</time>
      </trkpt>
      <trkpt lat="47.50858" lon="-1.94535">
        <ele>46.068947</ele>
        <time>2022-12-15T14:20:08.636Z</time>
      </trkpt>
      <trkpt lat="47.50848" lon="-1.94529">
        <ele>46.04124</ele>
        <time>2022-12-15T14:20:11.628Z</time>
      </trkpt>
      <trkpt lat="47.5084" lon="-1.94522">
        <ele>46.016312</ele>
        <time>2022-12-15T14:20:14.616Z</time>
      </trkpt>
      <trkpt lat="47.50829" lon="-1.94513">
        <ele>45.984783</ele>
        <time>2022-12-15T14:20:17.629Z</time>
      </trkpt>
      <trkpt lat="47.50821" lon="-1.94507">
        <ele>45.961565</ele>
        <time>2022-12-15T14:20:19.621Z</time>
      </trkpt>
      <trkpt lat="47.50809" lon="-1.94498">
        <ele>45.927156</ele>
        <time>2022-12-15T14:20:22.630Z</time>
      </trkpt>
      <trkpt lat="47.508" lon="-1.94491">
        <ele>45.900843</ele>
        <time>2022-12-15T14:20:24.621Z</time>
      </trkpt>
      <trkpt lat="47.50793" lon="-1.94483">
        <ele>45.876654</ele>
        <time>2022-12-15T14:20:26.627Z</time>
      </trkpt>
      <trkpt lat="47.50784" lon="-1.94474">
        <ele>45.850317</ele>
        <time>2022-12-15T14:20:28.613Z</time>
      </trkpt>
      <trkpt lat="47.50778" lon="-1.94463">
        <ele>45.825563</ele>
        <time>2022-12-15T14:20:30.620Z</time>
      </trkpt>
      <trkpt lat="47.50773" lon="-1.94451">
        <ele>45.605489</ele>
        <time>2022-12-15T14:20:32.618Z</time>
      </trkpt>
      <trkpt lat="47.50767" lon="-1.94441">
        <ele>45.234302</ele>
        <time>2022-12-15T14:20:34.617Z</time>
      </trkpt>
      <trkpt lat="47.50761" lon="-1.94425">
        <ele>44.759703</ele>
        <time>2022-12-15T14:20:37.619Z</time>
      </trkpt>
      <trkpt lat="47.50757" lon="-1.94407">
        <ele>44.260787</ele>
        <time>2022-12-15T14:20:40.615Z</time>
      </trkpt>
      <trkpt lat="47.50756" lon="-1.94391">
        <ele>43.808095</ele>
        <time>2022-12-15T14:20:43.619Z</time>
      </trkpt>
      <trkpt lat="47.50753" lon="-1.94372">
        <ele>43.298159</ele>
        <time>2022-12-15T14:20:46.633Z</time>
      </trkpt>
      <trkpt lat="47.5075" lon="-1.94355">
        <ele>42.832389</ele>
        <time>2022-12-15T14:20:49.626Z</time>
      </trkpt>
      <trkpt lat="47.50747" lon="-1.94338">
        <ele>42.36274</ele>
        <time>2022-12-15T14:20:52.624Z</time>
      </trkpt>
      <trkpt lat="47.50745" lon="-1.94324">
        <ele>41.980801</ele>
        <time>2022-12-15T14:20:54.632Z</time>
      </trkpt>
      <trkpt lat="47.50741" lon="-1.94306">
        <ele>41.48221</ele>
        <time>2022-12-15T14:20:57.609Z</time>
      </trkpt>
      <trkpt lat="47.50737" lon="-1.94293">
        <ele>41.095533</ele>
        <time>2022-12-15T14:20:59.616Z</time>
      </trkpt>
      <trkpt lat="47.50734" lon="-1.94278">
        <ele>40.683426</ele>
        <time>2022-12-15T14:21:01.630Z</time>
      </trkpt>
      <trkpt lat="47.50731" lon="-1.94265">
        <ele>40.309935</ele>
        <time>2022-12-15T14:21:03.624Z</time>
      </trkpt>
      <trkpt lat="47.50724" lon="-1.94249">
        <ele>39.798539</ele>
        <time>2022-12-15T14:21:05.630Z</time>
      </trkpt>
      <trkpt lat="47.50719" lon="-1.94231">
        <ele>39.275782</ele>
        <time>2022-12-15T14:21:08.633Z</time>
      </trkpt>
      <trkpt lat="47.50715" lon="-1.94213">
        <ele>38.782178</ele>
        <time>2022-12-15T14:21:11.612Z</time>
      </trkpt>
      <trkpt lat="47.50711" lon="-1.94197">
        <ele>38.759035</ele>
        <time>2022-12-15T14:21:14.628Z</time>
      </trkpt>
      <trkpt lat="47.50707" lon="-1.94182">
        <ele>38.821248</ele>
        <time>2022-12-15T14:21:17.625Z</time>
      </trkpt>
      <trkpt lat="47.50705" lon="-1.94168">
        <ele>38.87507</ele>
        <time>2022-12-15T14:21:20.617Z</time>
      </trkpt>
      <trkpt lat="47.50704" lon="-1.94152">
        <ele>38.936976</ele>
        <time>2022-12-15T14:21:23.628Z</time>
      </trkpt>
      <trkpt lat="47.50704" lon="-1.94136">
        <ele>39.00148</ele>
        <time>2022-12-15T14:21:26.608Z</time>
      </trkpt>
      <trkpt lat="47.50704" lon="-1.94117">
        <ele>39.073744</ele>
        <time>2022-12-15T14:21:29.623Z</time>
      </trkpt>
      <trkpt lat="47.50704" lon="-1.94097">
        <ele>39.151059</ele>
        <time>2022-12-15T14:21:32.616Z</time>
      </trkpt>
      <trkpt lat="47.50705" lon="-1.94077">
        <ele>39.228408</ele>
        <time>2022-12-15T14:21:35.629Z</time>
      </trkpt>
      <trkpt lat="47.50706" lon="-1.94064">
        <ele>39.280081</ele>
        <time>2022-12-15T14:21:37.632Z</time>
      </trkpt>
      <trkpt lat="47.50708" lon="-1.94045">
        <ele>39.353468</ele>
        <time>2022-12-15T14:21:40.631Z</time>
      </trkpt>
      <trkpt lat="47.50709" lon="-1.94032">
        <ele>39.405526</ele>
        <time>2022-12-15T14:21:42.626Z</time>
      </trkpt>
      <trkpt lat="47.5071" lon="-1.94018">
        <ele>39.458507</ele>
        <time>2022-12-15T14:21:44.625Z</time>
      </trkpt>
      <trkpt lat="47.50711" lon="-1.94005">
        <ele>39.512256</ele>
        <time>2022-12-15T14:21:46.610Z</time>
      </trkpt>
      <trkpt lat="47.50712" lon="-1.9399">
        <ele>39.569828</ele>
        <time>2022-12-15T14:21:48.616Z</time>
      </trkpt>
      <trkpt lat="47.50711" lon="-1.93975">
        <ele>39.62747</ele>
        <time>2022-12-15T14:21:50.618Z</time>
      </trkpt>
      <trkpt lat="47.5071" lon="-1.93959">
        <ele>39.688794</ele>
        <time>2022-12-15T14:21:52.613Z</time>
      </trkpt>
      <trkpt lat="47.50709" lon="-1.93945">
        <ele>39.697596</ele>
        <time>2022-12-15T14:21:54.630Z</time>
      </trkpt>
      <trkpt lat="47.50708" lon="-1.9393">
        <ele>39.439397</ele>
        <time>2022-12-15T14:21:56.633Z</time>
      </trkpt>
      <trkpt lat="47.50707" lon="-1.93909">
        <ele>39.109308</ele>
        <time>2022-12-15T14:21:59.629Z</time>
      </trkpt>
      <trkpt lat="47.50707" lon="-1.93896">
        <ele>38.891686</ele>
        <time>2022-12-15T14:22:01.627Z</time>
      </trkpt>
      <trkpt lat="47.50706" lon="-1.9388">
        <ele>38.6332</ele>
        <time>2022-12-15T14:22:03.629Z</time>
      </trkpt>
      <trkpt lat="47.50706" lon="-1.93861">
        <ele>38.324614</ele>
        <time>2022-12-15T14:22:06.629Z</time>
      </trkpt>
      <trkpt lat="47.50707" lon="-1.93844">
        <ele>38.043811</ele>
        <time>2022-12-15T14:22:09.634Z</time>
      </trkpt>
      <trkpt lat="47.50709" lon="-1.93828">
        <ele>37.780402</ele>
        <time>2022-12-15T14:22:12.629Z</time>
      </trkpt>
      <trkpt lat="47.50711" lon="-1.93809">
        <ele>37.474915</ele>
        <time>2022-12-15T14:22:15.631Z</time>
      </trkpt>
      <trkpt lat="47.50712" lon="-1.93796">
        <ele>37.256234</ele>
        <time>2022-12-15T14:22:17.632Z</time>
      </trkpt>
      <trkpt lat="47.50714" lon="-1.93777">
        <ele>36.956256</ele>
        <time>2022-12-15T14:22:20.615Z</time>
      </trkpt>
      <trkpt lat="47.50714" lon="-1.93763">
        <ele>36.728892</ele>
        <time>2022-12-15T14:22:23.616Z</time>
      </trkpt>
      <trkpt lat="47.50712" lon="-1.93745">
        <ele>36.427082</ele>
        <time>2022-12-15T14:22:26.617Z</time>
      </trkpt>
      <trkpt lat="47.50711" lon="-1.93731">
        <ele>36.200879</ele>
        <time>2022-12-15T14:22:28.649Z</time>
      </trkpt>
      <trkpt lat="47.50709" lon="-1.93715">
        <ele>35.930945</ele>
        <time>2022-12-15T14:22:30.623Z</time>
      </trkpt>
      <trkpt lat="47.50706" lon="-1.93697">
        <ele>35.636173</ele>
        <time>2022-12-15T14:22:33.632Z</time>
      </trkpt>
      <trkpt lat="47.50703" lon="-1.93679">
        <ele>35.502251</ele>
        <time>2022-12-15T14:22:36.611Z</time>
      </trkpt>
      <trkpt lat="47.50703" lon="-1.93662">
        <ele>35.796105</ele>
        <time>2022-12-15T14:22:39.616Z</time>
      </trkpt>
      <trkpt lat="47.50703" lon="-1.93646">
        <ele>36.084612</ele>
        <time>2022-12-15T14:22:42.610Z</time>
      </trkpt>
      <trkpt lat="47.50705" lon="-1.93629">
        <ele>36.392135</ele>
        <time>2022-12-15T14:22:45.626Z</time>
      </trkpt>
      <trkpt lat="47.50708" lon="-1.93612">
        <ele>36.700153</ele>
        <time>2022-12-15T14:22:48.634Z</time>
      </trkpt>
      <trkpt lat="47.50711" lon="-1.93594">
        <ele>37.04015</ele>
        <time>2022-12-15T14:22:51.622Z</time>
      </trkpt>
      <trkpt lat="47.50713" lon="-1.9358">
        <ele>37.287728</ele>
        <time>2022-12-15T14:22:53.635Z</time>
      </trkpt>
      <trkpt lat="47.50715" lon="-1.93567">
        <ele>37.531235</ele>
        <time>2022-12-15T14:22:55.613Z</time>
      </trkpt>
      <trkpt lat="47.50717" lon="-1.93549">
        <ele>37.86166</ele>
        <time>2022-12-15T14:22:57.627Z</time>
      </trkpt>
      <trkpt lat="47.5072" lon="-1.93534">
        <ele>38.131915</ele>
        <time>2022-12-15T14:22:59.610Z</time>
      </trkpt>
      <trkpt lat="47.50722" lon="-1.9352">
        <ele>38.399357</ele>
        <time>2022-12-15T14:23:01.642Z</time>
      </trkpt>
      <trkpt lat="47.50725" lon="-1.93507">
        <ele>38.640633</ele>
        <time>2022-12-15T14:23:03.630Z</time>
      </trkpt>
      <trkpt lat="47.50728" lon="-1.93492">
        <ele>38.91047</ele>
        <time>2022-12-15T14:23:06.635Z</time>
      </trkpt>
      <trkpt lat="47.5073" lon="-1.93476">
        <ele>39.208612</ele>
        <time>2022-12-15T14:23:09.620Z</time>
      </trkpt>
      <trkpt lat="47.50733" lon="-1.93458">
        <ele>39.550564</ele>
        <time>2022-12-15T14:23:12.610Z</time>
      </trkpt>
      <trkpt lat="47.50737" lon="-1.9344">
        <ele>39.880161</ele>
        <time>2022-12-15T14:23:15.629Z</time>
      </trkpt>
      <trkpt lat="47.5074" lon="-1.93426">
        <ele>40.136737</ele>
        <time>2022-12-15T14:23:17.627Z</time>
      </trkpt>
      <trkpt lat="47.50745" lon="-1.93413">
        <ele>40.281323</ele>
        <time>2022-12-15T14:23:19.613Z</time>
      </trkpt>
      <trkpt lat="47.50749" lon="-1.934">
        <ele>40.407429</ele>
        <time>2022-12-15T14:23:21.611Z</time>
      </trkpt>
      <trkpt lat="47.50754" lon="-1.93388">
        <ele>40.525454</ele>
        <time>2022-12-15T14:23:23.630Z</time>
      </trkpt>
      <trkpt lat="47.50762" lon="-1.93372">
        <ele>40.689201</ele>
        <time>2022-12-15T14:23:26.605Z</time>
      </trkpt>
      <trkpt lat="47.50768" lon="-1.93361">
        <ele>40.806954</ele>
        <time>2022-12-15T14:23:28.626Z</time>
      </trkpt>
      <trkpt lat="47.50774" lon="-1.93352">
        <ele>40.92226</ele>
        <time>2022-12-15T14:23:30.624Z</time>
      </trkpt>
      <trkpt lat="47.50784" lon="-1.93337">
        <ele>41.091978</ele>
        <time>2022-12-15T14:23:33.633Z</time>
      </trkpt>
      <trkpt lat="47.5079" lon="-1.93328">
        <ele>41.208412</ele>
        <time>2022-12-15T14:23:35.619Z</time>
      </trkpt>
      <trkpt lat="47.50797" lon="-1.93317">
        <ele>41.336077</ele>
        <time>2022-12-15T14:23:37.607Z</time>
      </trkpt>
      <trkpt lat="47.50805" lon="-1.933">
        <ele>41.511007</ele>
        <time>2022-12-15T14:23:40.627Z</time>
      </trkpt>
      <trkpt lat="47.50814" lon="-1.93286">
        <ele>41.670053</ele>
        <time>2022-12-15T14:23:43.615Z</time>
      </trkpt>
      <trkpt lat="47.50823" lon="-1.93274">
        <ele>41.822822</ele>
        <time>2022-12-15T14:23:46.621Z</time>
      </trkpt>
      <trkpt lat="47.5083" lon="-1.93262">
        <ele>41.959019</ele>
        <time>2022-12-15T14:23:49.622Z</time>
      </trkpt>
      <trkpt lat="47.50837" lon="-1.93249">
        <ele>42.098774</ele>
        <time>2022-12-15T14:23:52.619Z</time>
      </trkpt>
      <trkpt lat="47.50844" lon="-1.93234">
        <ele>42.254731</ele>
        <time>2022-12-15T14:23:55.613Z</time>
      </trkpt>
      <trkpt lat="47.50851" lon="-1.93219">
        <ele>42.409403</ele>
        <time>2022-12-15T14:23:58.630Z</time>
      </trkpt>
      <trkpt lat="47.50858" lon="-1.93203">
        <ele>42.469119</ele>
        <time>2022-12-15T14:24:01.628Z</time>
      </trkpt>
      <trkpt lat="47.50865" lon="-1.93187">
        <ele>42.515038</ele>
        <time>2022-12-15T14:24:04.612Z</time>
      </trkpt>
      <trkpt lat="47.50872" lon="-1.93174">
        <ele>42.553928</ele>
        <time>2022-12-15T14:24:07.624Z</time>
      </trkpt>
      <trkpt lat="47.50878" lon="-1.93162">
        <ele>42.591629</ele>
        <time>2022-12-15T14:24:10.611Z</time>
      </trkpt>
      <trkpt lat="47.50885" lon="-1.93147">
        <ele>42.635738</ele>
        <time>2022-12-15T14:24:13.608Z</time>
      </trkpt>
      <trkpt lat="47.50891" lon="-1.93132">
        <ele>42.678674</ele>
        <time>2022-12-15T14:24:16.602Z</time>
      </trkpt>
      <trkpt lat="47.50896" lon="-1.93117">
        <ele>42.718396</ele>
        <time>2022-12-15T14:24:19.626Z</time>
      </trkpt>
      <trkpt lat="47.50903" lon="-1.93104">
        <ele>42.758321</ele>
        <time>2022-12-15T14:24:22.619Z</time>
      </trkpt>
      <trkpt lat="47.50909" lon="-1.93088">
        <ele>42.803562</ele>
        <time>2022-12-15T14:24:25.608Z</time>
      </trkpt>
      <trkpt lat="47.50915" lon="-1.93074">
        <ele>42.843467</ele>
        <time>2022-12-15T14:24:28.629Z</time>
      </trkpt>
      <trkpt lat="47.50921" lon="-1.9306">
        <ele>42.885145</ele>
        <time>2022-12-15T14:24:31.624Z</time>
      </trkpt>
      <trkpt lat="47.50926" lon="-1.93048">
        <ele>42.917374</ele>
        <time>2022-12-15T14:24:33.624Z</time>
      </trkpt>
      <trkpt lat="47.50934" lon="-1.93033">
        <ele>42.963973</ele>
        <time>2022-12-15T14:24:36.610Z</time>
      </trkpt>
      <trkpt lat="47.50942" lon="-1.93019">
        <ele>43.010806</ele>
        <time>2022-12-15T14:24:39.617Z</time>
      </trkpt>
      <trkpt lat="47.5095" lon="-1.93004">
        <ele>43.055373</ele>
        <time>2022-12-15T14:24:42.618Z</time>
      </trkpt>
      <trkpt lat="47.50955" lon="-1.92992">
        <ele>43.112599</ele>
        <time>2022-12-15T14:24:44.632Z</time>
      </trkpt>
      <trkpt lat="47.50962" lon="-1.92977">
        <ele>43.22185</ele>
        <time>2022-12-15T14:24:47.629Z</time>
      </trkpt>
      <trkpt lat="47.50968" lon="-1.92965">
        <ele>43.318073</ele>
        <time>2022-12-15T14:24:51.616Z</time>
      </trkpt>
      <trkpt lat="47.50975" lon="-1.92952">
        <ele>43.417742</ele>
        <time>2022-12-15T14:24:55.615Z</time>
      </trkpt>
      <trkpt lat="47.50981" lon="-1.92941">
        <ele>43.504138</ele>
        <time>2022-12-15T14:24:58.612Z</time>
      </trkpt>
      <trkpt lat="47.50987" lon="-1.92927">
        <ele>43.603273</ele>
        <time>2022-12-15T14:25:01.623Z</time>
      </trkpt>
      <trkpt lat="47.50993" lon="-1.92915">
        <ele>43.696946</ele>
        <time>2022-12-15T14:25:04.624Z</time>
      </trkpt>
      <trkpt lat="47.50999" lon="-1.92901">
        <ele>43.798143</ele>
        <time>2022-12-15T14:25:07.634Z</time>
      </trkpt>
      <trkpt lat="47.51005" lon="-1.92887">
        <ele>43.896871</ele>
        <time>2022-12-15T14:25:10.614Z</time>
      </trkpt>
      <trkpt lat="47.51011" lon="-1.92872">
        <ele>44.005248</ele>
        <time>2022-12-15T14:25:13.628Z</time>
      </trkpt>
      <trkpt lat="47.51018" lon="-1.92857">
        <ele>44.11349</ele>
        <time>2022-12-15T14:25:16.628Z</time>
      </trkpt>
      <trkpt lat="47.51024" lon="-1.92842">
        <ele>44.221816</ele>
        <time>2022-12-15T14:25:19.623Z</time>
      </trkpt>
      <trkpt lat="47.5103" lon="-1.92826">
        <ele>44.334263</ele>
        <time>2022-12-15T14:25:22.629Z</time>
      </trkpt>
      <trkpt lat="47.51035" lon="-1.92808">
        <ele>44.453752</ele>
        <time>2022-12-15T14:25:25.612Z</time>
      </trkpt>
      <trkpt lat="47.51038" lon="-1.92794">
        <ele>44.539945</ele>
        <time>2022-12-15T14:25:27.621Z</time>
      </trkpt>
      <trkpt lat="47.5104" lon="-1.92777">
        <ele>44.644665</ele>
        <time>2022-12-15T14:25:29.616Z</time>
      </trkpt>
      <trkpt lat="47.51042" lon="-1.92764">
        <ele>44.715496</ele>
        <time>2022-12-15T14:25:31.633Z</time>
      </trkpt>
      <trkpt lat="47.51044" lon="-1.92749">
        <ele>44.762645</ele>
        <time>2022-12-15T14:25:33.629Z</time>
      </trkpt>
      <trkpt lat="47.51047" lon="-1.92735">
        <ele>44.809484</ele>
        <time>2022-12-15T14:25:35.624Z</time>
      </trkpt>
      <trkpt lat="47.5105" lon="-1.92722">
        <ele>44.852007</ele>
        <time>2022-12-15T14:25:37.626Z</time>
      </trkpt>
      <trkpt lat="47.51053" lon="-1.92708">
        <ele>44.898726</ele>
        <time>2022-12-15T14:25:39.622Z</time>
      </trkpt>
      <trkpt lat="47.51056" lon="-1.92695">
        <ele>44.944252</ele>
        <time>2022-12-15T14:25:41.619Z</time>
      </trkpt>
      <trkpt lat="47.51058" lon="-1.92681">
        <ele>44.988897</ele>
        <time>2022-12-15T14:25:43.613Z</time>
      </trkpt>
      <trkpt lat="47.51062" lon="-1.92669">
        <ele>45.031594</ele>
        <time>2022-12-15T14:25:45.625Z</time>
      </trkpt>
      <trkpt lat="47.51068" lon="-1.92652">
        <ele>45.091972</ele>
        <time>2022-12-15T14:25:48.611Z</time>
      </trkpt>
      <trkpt lat="47.51075" lon="-1.92637">
        <ele>45.151102</ele>
        <time>2022-12-15T14:25:51.617Z</time>
      </trkpt>
      <trkpt lat="47.51082" lon="-1.92621">
        <ele>45.208194</ele>
        <time>2022-12-15T14:25:54.630Z</time>
      </trkpt>
      <trkpt lat="47.51086" lon="-1.92607">
        <ele>45.256688</ele>
        <time>2022-12-15T14:25:57.623Z</time>
      </trkpt>
      <trkpt lat="47.51088" lon="-1.9259">
        <ele>45.312991</ele>
        <time>2022-12-15T14:26:01.613Z</time>
      </trkpt>
      <trkpt lat="47.51088" lon="-1.92575">
        <ele>45.359607</ele>
        <time>2022-12-15T14:26:04.613Z</time>
      </trkpt>
      <trkpt lat="47.51086" lon="-1.92558">
        <ele>45.415969</ele>
        <time>2022-12-15T14:26:07.614Z</time>
      </trkpt>
      <trkpt lat="47.51083" lon="-1.92541">
        <ele>45.470231</ele>
        <time>2022-12-15T14:26:10.613Z</time>
      </trkpt>
      <trkpt lat="47.51078" lon="-1.92529">
        <ele>45.514431</ele>
        <time>2022-12-15T14:26:12.612Z</time>
      </trkpt>
      <trkpt lat="47.51071" lon="-1.92513">
        <ele>45.517931</ele>
        <time>2022-12-15T14:26:15.610Z</time>
      </trkpt>
      <trkpt lat="47.51062" lon="-1.92499">
        <ele>45.468881</ele>
        <time>2022-12-15T14:26:18.620Z</time>
      </trkpt>
      <trkpt lat="47.51057" lon="-1.92487">
        <ele>45.430383</ele>
        <time>2022-12-15T14:26:20.611Z</time>
      </trkpt>
      <trkpt lat="47.5105" lon="-1.92477">
        <ele>45.395804</ele>
        <time>2022-12-15T14:26:22.624Z</time>
      </trkpt>
      <trkpt lat="47.51044" lon="-1.92467">
        <ele>45.35954</ele>
        <time>2022-12-15T14:26:24.630Z</time>
      </trkpt>
      <trkpt lat="47.51037" lon="-1.92452">
        <ele>45.313116</ele>
        <time>2022-12-15T14:26:27.632Z</time>
      </trkpt>
      <trkpt lat="47.5103" lon="-1.92439">
        <ele>45.269679</ele>
        <time>2022-12-15T14:26:30.625Z</time>
      </trkpt>
      <trkpt lat="47.51023" lon="-1.92425">
        <ele>45.224373</ele>
        <time>2022-12-15T14:26:33.613Z</time>
      </trkpt>
      <trkpt lat="47.51014" lon="-1.92411">
        <ele>45.176817</ele>
        <time>2022-12-15T14:26:36.631Z</time>
      </trkpt>
      <trkpt lat="47.51005" lon="-1.92398">
        <ele>45.128774</ele>
        <time>2022-12-15T14:26:39.618Z</time>
      </trkpt>
      <trkpt lat="47.50999" lon="-1.92389">
        <ele>45.094556</ele>
        <time>2022-12-15T14:26:41.612Z</time>
      </trkpt>
      <trkpt lat="47.50989" lon="-1.92375">
        <ele>45.042981</ele>
        <time>2022-12-15T14:26:44.631Z</time>
      </trkpt>
      <trkpt lat="47.5098" lon="-1.92362">
        <ele>44.993582</ele>
        <time>2022-12-15T14:26:47.633Z</time>
      </trkpt>
      <trkpt lat="47.5097" lon="-1.92349">
        <ele>44.943536</ele>
        <time>2022-12-15T14:26:50.634Z</time>
      </trkpt>
      <trkpt lat="47.5096" lon="-1.92336">
        <ele>44.892359</ele>
        <time>2022-12-15T14:26:53.618Z</time>
      </trkpt>
      <trkpt lat="47.5095" lon="-1.92325">
        <ele>44.833051</ele>
        <time>2022-12-15T14:26:56.634Z</time>
      </trkpt>
      <trkpt lat="47.50941" lon="-1.92314">
        <ele>44.748616</ele>
        <time>2022-12-15T14:26:59.613Z</time>
      </trkpt>
      <trkpt lat="47.50933" lon="-1.92306">
        <ele>44.67507</ele>
        <time>2022-12-15T14:27:02.612Z</time>
      </trkpt>
      <trkpt lat="47.50924" lon="-1.92297">
        <ele>44.593673</ele>
        <time>2022-12-15T14:27:05.615Z</time>
      </trkpt>
      <trkpt lat="47.50914" lon="-1.92289">
        <ele>44.506251</ele>
        <time>2022-12-15T14:27:08.622Z</time>
      </trkpt>
      <trkpt lat="47.50903" lon="-1.92281">
        <ele>44.417894</ele>
        <time>2022-12-15T14:27:11.621Z</time>
      </trkpt>
      <trkpt lat="47.50893" lon="-1.92273">
        <ele>44.327547</ele>
        <time>2022-12-15T14:27:14.620Z</time>
      </trkpt>
      <trkpt lat="47.50881" lon="-1.92266">
        <ele>44.233585</ele>
        <time>2022-12-15T14:27:17.629Z</time>
      </trkpt>
      <trkpt lat="47.50869" lon="-1.92259">
        <ele>44.138958</ele>
        <time>2022-12-15T14:27:20.613Z</time>
      </trkpt>
      <trkpt lat="47.50859" lon="-1.92252">
        <ele>44.053219</ele>
        <time>2022-12-15T14:27:23.617Z</time>
      </trkpt>
      <trkpt lat="47.50849" lon="-1.92248">
        <ele>43.978471</ele>
        <time>2022-12-15T14:27:26.611Z</time>
      </trkpt>
      <trkpt lat="47.50837" lon="-1.92246">
        <ele>43.886429</ele>
        <time>2022-12-15T14:27:29.612Z</time>
      </trkpt>
      <trkpt lat="47.50828" lon="-1.92247">
        <ele>43.816689</ele>
        <time>2022-12-15T14:27:31.622Z</time>
      </trkpt>
      <trkpt lat="47.50818" lon="-1.92248">
        <ele>43.744871</ele>
        <time>2022-12-15T14:27:33.613Z</time>
      </trkpt>
      <trkpt lat="47.50806" lon="-1.9225">
        <ele>43.656142</ele>
        <time>2022-12-15T14:27:36.624Z</time>
      </trkpt>
      <trkpt lat="47.50797" lon="-1.92251">
        <ele>43.584553</ele>
        <time>2022-12-15T14:27:38.615Z</time>
      </trkpt>
      <trkpt lat="47.50785" lon="-1.92253">
        <ele>43.509695</ele>
        <time>2022-12-15T14:27:40.609Z</time>
      </trkpt>
      <trkpt lat="47.50774" lon="-1.92258">
        <ele>43.521285</ele>
        <time>2022-12-15T14:27:42.614Z</time>
      </trkpt>
      <trkpt lat="47.50763" lon="-1.92262">
        <ele>43.532206</ele>
        <time>2022-12-15T14:27:44.629Z</time>
      </trkpt>
      <trkpt lat="47.5075" lon="-1.92269">
        <ele>43.546565</ele>
        <time>2022-12-15T14:27:47.625Z</time>
      </trkpt>
      <trkpt lat="47.5074" lon="-1.92275">
        <ele>43.55762</ele>
        <time>2022-12-15T14:27:49.615Z</time>
      </trkpt>
      <trkpt lat="47.50731" lon="-1.9228">
        <ele>43.567302</ele>
        <time>2022-12-15T14:27:51.618Z</time>
      </trkpt>
      <trkpt lat="47.50722" lon="-1.92284">
        <ele>43.576626</ele>
        <time>2022-12-15T14:27:53.610Z</time>
      </trkpt>
      <trkpt lat="47.5071" lon="-1.92286">
        <ele>43.588789</ele>
        <time>2022-12-15T14:27:56.614Z</time>
      </trkpt>
      <trkpt lat="47.50701" lon="-1.92286">
        <ele>43.597861</ele>
        <time>2022-12-15T14:27:58.628Z</time>
      </trkpt>
      <trkpt lat="47.50689" lon="-1.92287">
        <ele>43.60987</ele>
        <time>2022-12-15T14:28:01.622Z</time>
      </trkpt>
      <trkpt lat="47.50677" lon="-1.92291">
        <ele>43.621899</ele>
        <time>2022-12-15T14:28:03.621Z</time>
      </trkpt>
      <trkpt lat="47.50668" lon="-1.92295">
        <ele>43.631614</ele>
        <time>2022-12-15T14:28:05.621Z</time>
      </trkpt>
      <trkpt lat="47.50659" lon="-1.92296">
        <ele>43.640837</ele>
        <time>2022-12-15T14:28:07.620Z</time>
      </trkpt>
      <trkpt lat="47.5065" lon="-1.92301">
        <ele>43.650405</ele>
        <time>2022-12-15T14:28:09.630Z</time>
      </trkpt>
      <trkpt lat="47.50638" lon="-1.92306">
        <ele>43.663212</ele>
        <time>2022-12-15T14:28:12.631Z</time>
      </trkpt>
      <trkpt lat="47.50625" lon="-1.92312">
        <ele>43.676703</ele>
        <time>2022-12-15T14:28:15.636Z</time>
      </trkpt>
      <trkpt lat="47.50616" lon="-1.92315">
        <ele>43.685897</ele>
        <time>2022-12-15T14:28:17.613Z</time>
      </trkpt>
      <trkpt lat="47.50603" lon="-1.92321">
        <ele>43.770294</ele>
        <time>2022-12-15T14:28:20.620Z</time>
      </trkpt>
      <trkpt lat="47.50591" lon="-1.92328">
        <ele>43.876665</ele>
        <time>2022-12-15T14:28:23.625Z</time>
      </trkpt>
      <trkpt lat="47.50583" lon="-1.92334">
        <ele>43.951019</ele>
        <time>2022-12-15T14:28:25.626Z</time>
      </trkpt>
      <trkpt lat="47.5057" lon="-1.92342">
        <ele>44.060696</ele>
        <time>2022-12-15T14:28:28.628Z</time>
      </trkpt>
      <trkpt lat="47.50559" lon="-1.92347">
        <ele>44.155449</ele>
        <time>2022-12-15T14:28:31.628Z</time>
      </trkpt>
      <trkpt lat="47.5055" lon="-1.92352">
        <ele>44.23062</ele>
        <time>2022-12-15T14:28:33.623Z</time>
      </trkpt>
      <trkpt lat="47.50541" lon="-1.92358">
        <ele>44.305192</ele>
        <time>2022-12-15T14:28:35.639Z</time>
      </trkpt>
      <trkpt lat="47.50531" lon="-1.92366">
        <ele>44.403041</ele>
        <time>2022-12-15T14:28:38.622Z</time>
      </trkpt>
      <trkpt lat="47.50523" lon="-1.92377">
        <ele>44.487284</ele>
        <time>2022-12-15T14:28:41.615Z</time>
      </trkpt>
      <trkpt lat="47.50515" lon="-1.92391">
        <ele>44.584402</ele>
        <time>2022-12-15T14:28:44.630Z</time>
      </trkpt>
      <trkpt lat="47.50507" lon="-1.92406">
        <ele>44.690929</ele>
        <time>2022-12-15T14:28:47.633Z</time>
      </trkpt>
      <trkpt lat="47.505" lon="-1.92416">
        <ele>44.767503</ele>
        <time>2022-12-15T14:28:49.632Z</time>
      </trkpt>
      <trkpt lat="47.50493" lon="-1.9243">
        <ele>44.864417</ele>
        <time>2022-12-15T14:28:51.629Z</time>
      </trkpt>
      <trkpt lat="47.50485" lon="-1.92442">
        <ele>44.952392</ele>
        <time>2022-12-15T14:28:53.624Z</time>
      </trkpt>
      <trkpt lat="47.50479" lon="-1.92454">
        <ele>45.033069</ele>
        <time>2022-12-15T14:28:55.621Z</time>
      </trkpt>
      <trkpt lat="47.5047" lon="-1.9247">
        <ele>45.155257</ele>
        <time>2022-12-15T14:28:58.634Z</time>
      </trkpt>
      <trkpt lat="47.50464" lon="-1.92483">
        <ele>45.268385</ele>
        <time>2022-12-15T14:29:00.617Z</time>
      </trkpt>
      <trkpt lat="47.50459" lon="-1.92495">
        <ele>45.375244</ele>
        <time>2022-12-15T14:29:02.612Z</time>
      </trkpt>
      <trkpt lat="47.50455" lon="-1.92508">
        <ele>45.488481</ele>
        <time>2022-12-15T14:29:04.611Z</time>
      </trkpt>
      <trkpt lat="47.50451" lon="-1.92522">
        <ele>45.603111</ele>
        <time>2022-12-15T14:29:06.636Z</time>
      </trkpt>
      <trkpt lat="47.50446" lon="-1.92536">
        <ele>45.721191</ele>
        <time>2022-12-15T14:29:08.632Z</time>
      </trkpt>
      <trkpt lat="47.50442" lon="-1.92551">
        <ele>45.837374</ele>
        <time>2022-12-15T14:29:10.621Z</time>
      </trkpt>
      <trkpt lat="47.50438" lon="-1.92564">
        <ele>45.950828</ele>
        <time>2022-12-15T14:29:12.613Z</time>
      </trkpt>
      <trkpt lat="47.50434" lon="-1.92577">
        <ele>46.060179</ele>
        <time>2022-12-15T14:29:14.619Z</time>
      </trkpt>
      <trkpt lat="47.50429" lon="-1.9259">
        <ele>46.167788</ele>
        <time>2022-12-15T14:29:16.615Z</time>
      </trkpt>
      <trkpt lat="47.50425" lon="-1.92602">
        <ele>46.272306</ele>
        <time>2022-12-15T14:29:18.637Z</time>
      </trkpt>
      <trkpt lat="47.50421" lon="-1.92615">
        <ele>46.378089</ele>
        <time>2022-12-15T14:29:20.648Z</time>
      </trkpt>
      <trkpt lat="47.50414" lon="-1.92631">
        <ele>46.528093</ele>
        <time>2022-12-15T14:29:23.623Z</time>
      </trkpt>
      <trkpt lat="47.50407" lon="-1.92647">
        <ele>46.667449</ele>
        <time>2022-12-15T14:29:26.640Z</time>
      </trkpt>
      <trkpt lat="47.50402" lon="-1.92662">
        <ele>46.791255</ele>
        <time>2022-12-15T14:29:29.616Z</time>
      </trkpt>
      <trkpt lat="47.504" lon="-1.92678">
        <ele>46.917297</ele>
        <time>2022-12-15T14:29:32.622Z</time>
      </trkpt>
      <trkpt lat="47.504" lon="-1.92695">
        <ele>47.040977</ele>
        <time>2022-12-15T14:29:35.631Z</time>
      </trkpt>
      <trkpt lat="47.50403" lon="-1.92712">
        <ele>47.170408</ele>
        <time>2022-12-15T14:29:38.623Z</time>
      </trkpt>
      <trkpt lat="47.50408" lon="-1.92724">
        <ele>47.264627</ele>
        <time>2022-12-15T14:29:40.614Z</time>
      </trkpt>
      <trkpt lat="47.50412" lon="-1.92738">
        <ele>47.364585</ele>
        <time>2022-12-15T14:29:42.633Z</time>
      </trkpt>
      <trkpt lat="47.50415" lon="-1.92752">
        <ele>47.465921</ele>
        <time>2022-12-15T14:29:44.632Z</time>
      </trkpt>
      <trkpt lat="47.50419" lon="-1.92772">
        <ele>47.605076</ele>
        <time>2022-12-15T14:29:47.612Z</time>
      </trkpt>
      <trkpt lat="47.50419" lon="-1.92787">
        <ele>47.703582</ele>
        <time>2022-12-15T14:29:49.629Z</time>
      </trkpt>
      <trkpt lat="47.5042" lon="-1.92801">
        <ele>47.796627</ele>
        <time>2022-12-15T14:29:51.627Z</time>
      </trkpt>
      <trkpt lat="47.5042" lon="-1.92816">
        <ele>47.894894</ele>
        <time>2022-12-15T14:29:53.622Z</time>
      </trkpt>
      <trkpt lat="47.50419" lon="-1.9283">
        <ele>47.989891</ele>
        <time>2022-12-15T14:29:55.618Z</time>
      </trkpt>
      <trkpt lat="47.50418" lon="-1.92845">
        <ele>48.092851</ele>
        <time>2022-12-15T14:29:57.622Z</time>
      </trkpt>
      <trkpt lat="47.50418" lon="-1.92859">
        <ele>48.183846</ele>
        <time>2022-12-15T14:29:59.611Z</time>
      </trkpt>
      <trkpt lat="47.50419" lon="-1.92872">
        <ele>48.27519</ele>
        <time>2022-12-15T14:30:01.620Z</time>
      </trkpt>
      <trkpt lat="47.5042" lon="-1.92892">
        <ele>48.407842</ele>
        <time>2022-12-15T14:30:04.618Z</time>
      </trkpt>
      <trkpt lat="47.50421" lon="-1.92912">
        <ele>48.541392</ele>
        <time>2022-12-15T14:30:07.625Z</time>
      </trkpt>
      <trkpt lat="47.50423" lon="-1.92932">
        <ele>48.677588</ele>
        <time>2022-12-15T14:30:10.615Z</time>
      </trkpt>
      <trkpt lat="47.50424" lon="-1.92946">
        <ele>48.770263</ele>
        <time>2022-12-15T14:30:12.618Z</time>
      </trkpt>
      <trkpt lat="47.50426" lon="-1.9296">
        <ele>48.865261</ele>
        <time>2022-12-15T14:30:14.609Z</time>
      </trkpt>
      <trkpt lat="47.50427" lon="-1.92974">
        <ele>48.90902</ele>
        <time>2022-12-15T14:30:16.622Z</time>
      </trkpt>
      <trkpt lat="47.50428" lon="-1.92988">
        <ele>48.886885</ele>
        <time>2022-12-15T14:30:18.618Z</time>
      </trkpt>
      <trkpt lat="47.50432" lon="-1.93008">
        <ele>48.856111</ele>
        <time>2022-12-15T14:30:21.613Z</time>
      </trkpt>
      <trkpt lat="47.50433" lon="-1.93023">
        <ele>48.833726</ele>
        <time>2022-12-15T14:30:23.620Z</time>
      </trkpt>
      <trkpt lat="47.50434" lon="-1.93043">
        <ele>48.803687</ele>
        <time>2022-12-15T14:30:26.634Z</time>
      </trkpt>
      <trkpt lat="47.50437" lon="-1.93062">
        <ele>48.773932</ele>
        <time>2022-12-15T14:30:29.626Z</time>
      </trkpt>
      <trkpt lat="47.50437" lon="-1.93077">
        <ele>48.752259</ele>
        <time>2022-12-15T14:30:31.611Z</time>
      </trkpt>
      <trkpt lat="47.50435" lon="-1.9309">
        <ele>48.731703</ele>
        <time>2022-12-15T14:30:33.610Z</time>
      </trkpt>
      <trkpt lat="47.50433" lon="-1.93111">
        <ele>48.700311</ele>
        <time>2022-12-15T14:30:36.617Z</time>
      </trkpt>
      <trkpt lat="47.50431" lon="-1.93125">
        <ele>48.678755</ele>
        <time>2022-12-15T14:30:38.615Z</time>
      </trkpt>
      <trkpt lat="47.50427" lon="-1.93142">
        <ele>48.651511</ele>
        <time>2022-12-15T14:30:41.617Z</time>
      </trkpt>
      <trkpt lat="47.50423" lon="-1.93157">
        <ele>48.627678</ele>
        <time>2022-12-15T14:30:44.614Z</time>
      </trkpt>
      <trkpt lat="47.50417" lon="-1.93171">
        <ele>48.601351</ele>
        <time>2022-12-15T14:30:47.645Z</time>
      </trkpt>
      <trkpt lat="47.50409" lon="-1.93185">
        <ele>48.573577</ele>
        <time>2022-12-15T14:30:50.631Z</time>
      </trkpt>
      <trkpt lat="47.50398" lon="-1.93198">
        <ele>48.543688</ele>
        <time>2022-12-15T14:30:53.612Z</time>
      </trkpt>
      <trkpt lat="47.50388" lon="-1.93209">
        <ele>48.499354</ele>
        <time>2022-12-15T14:30:56.622Z</time>
      </trkpt>
      <trkpt lat="47.5038" lon="-1.93215">
        <ele>48.377901</ele>
        <time>2022-12-15T14:30:58.620Z</time>
      </trkpt>
      <trkpt lat="47.50371" lon="-1.93221">
        <ele>48.247519</ele>
        <time>2022-12-15T14:31:00.628Z</time>
      </trkpt>
      <trkpt lat="47.50361" lon="-1.93227">
        <ele>48.109103</ele>
        <time>2022-12-15T14:31:02.613Z</time>
      </trkpt>
      <trkpt lat="47.50352" lon="-1.93233">
        <ele>47.971304</ele>
        <time>2022-12-15T14:31:04.631Z</time>
      </trkpt>
      <trkpt lat="47.50343" lon="-1.93238">
        <ele>47.84473</ele>
        <time>2022-12-15T14:31:06.630Z</time>
      </trkpt>
      <trkpt lat="47.50334" lon="-1.93244">
        <ele>47.708676</ele>
        <time>2022-12-15T14:31:08.624Z</time>
      </trkpt>
      <trkpt lat="47.50323" lon="-1.93252">
        <ele>47.548894</ele>
        <time>2022-12-15T14:31:10.631Z</time>
      </trkpt>
      <trkpt lat="47.50314" lon="-1.93259">
        <ele>47.405263</ele>
        <time>2022-12-15T14:31:12.635Z</time>
      </trkpt>
      <trkpt lat="47.50305" lon="-1.93265">
        <ele>47.274881</ele>
        <time>2022-12-15T14:31:14.628Z</time>
      </trkpt>
      <trkpt lat="47.50294" lon="-1.93272">
        <ele>47.105763</ele>
        <time>2022-12-15T14:31:17.629Z</time>
      </trkpt>
      <trkpt lat="47.50283" lon="-1.93278">
        <ele>46.958617</ele>
        <time>2022-12-15T14:31:20.631Z</time>
      </trkpt>
      <trkpt lat="47.50273" lon="-1.93283">
        <ele>46.803773</ele>
        <time>2022-12-15T14:31:23.631Z</time>
      </trkpt>
      <trkpt lat="47.5026" lon="-1.93289">
        <ele>46.623889</ele>
        <time>2022-12-15T14:31:26.632Z</time>
      </trkpt>
      <trkpt lat="47.50248" lon="-1.93293">
        <ele>46.460093</ele>
        <time>2022-12-15T14:31:29.630Z</time>
      </trkpt>
      <trkpt lat="47.50235" lon="-1.93297">
        <ele>46.284416</ele>
        <time>2022-12-15T14:31:32.623Z</time>
      </trkpt>
      <trkpt lat="47.50225" lon="-1.93301">
        <ele>46.14128</ele>
        <time>2022-12-15T14:31:35.626Z</time>
      </trkpt>
      <trkpt lat="47.50213" lon="-1.93305">
        <ele>46.136184</ele>
        <time>2022-12-15T14:31:38.618Z</time>
      </trkpt>
      <trkpt lat="47.50204" lon="-1.93308">
        <ele>46.185238</ele>
        <time>2022-12-15T14:31:40.624Z</time>
      </trkpt>
      <trkpt lat="47.50195" lon="-1.93311">
        <ele>46.238388</ele>
        <time>2022-12-15T14:31:42.631Z</time>
      </trkpt>
      <trkpt lat="47.50183" lon="-1.93314">
        <ele>46.301707</ele>
        <time>2022-12-15T14:31:44.616Z</time>
      </trkpt>
      <trkpt lat="47.50173" lon="-1.93317">
        <ele>46.355855</ele>
        <time>2022-12-15T14:31:46.608Z</time>
      </trkpt>
      <trkpt lat="47.50163" lon="-1.93319">
        <ele>46.411655</ele>
        <time>2022-12-15T14:31:48.616Z</time>
      </trkpt>
      <trkpt lat="47.50153" lon="-1.9332">
        <ele>46.467702</ele>
        <time>2022-12-15T14:31:50.622Z</time>
      </trkpt>
      <trkpt lat="47.5014" lon="-1.93321">
        <ele>46.537546</ele>
        <time>2022-12-15T14:31:53.629Z</time>
      </trkpt>
      <trkpt lat="47.50131" lon="-1.93321">
        <ele>46.587088</ele>
        <time>2022-12-15T14:31:55.625Z</time>
      </trkpt>
      <trkpt lat="47.50121" lon="-1.9332">
        <ele>46.643639</ele>
        <time>2022-12-15T14:31:58.628Z</time>
      </trkpt>
      <trkpt lat="47.50108" lon="-1.93319">
        <ele>46.711166</ele>
        <time>2022-12-15T14:32:01.612Z</time>
      </trkpt>
      <trkpt lat="47.50096" lon="-1.93317">
        <ele>46.777636</ele>
        <time>2022-12-15T14:32:04.636Z</time>
      </trkpt>
      <trkpt lat="47.50083" lon="-1.93316">
        <ele>46.84955</ele>
        <time>2022-12-15T14:32:07.631Z</time>
      </trkpt>
      <trkpt lat="47.50074" lon="-1.93315">
        <ele>46.89855</ele>
        <time>2022-12-15T14:32:09.620Z</time>
      </trkpt>
      <trkpt lat="47.50064" lon="-1.93314">
        <ele>46.95026</ele>
        <time>2022-12-15T14:32:11.608Z</time>
      </trkpt>
      <trkpt lat="47.50051" lon="-1.93312">
        <ele>47.020521</ele>
        <time>2022-12-15T14:32:14.625Z</time>
      </trkpt>
      <trkpt lat="47.50039" lon="-1.93314">
        <ele>47.069406</ele>
        <time>2022-12-15T14:32:16.621Z</time>
      </trkpt>
      <trkpt lat="47.50029" lon="-1.93314">
        <ele>47.076377</ele>
        <time>2022-12-15T14:32:18.616Z</time>
      </trkpt>
      <trkpt lat="47.50018" lon="-1.93316">
        <ele>47.083994</ele>
        <time>2022-12-15T14:32:20.637Z</time>
      </trkpt>
      <trkpt lat="47.50008" lon="-1.93317">
        <ele>47.091101</ele>
        <time>2022-12-15T14:32:22.626Z</time>
      </trkpt>
      <trkpt lat="47.49997" lon="-1.93316">
        <ele>47.098909</ele>
        <time>2022-12-15T14:32:24.629Z</time>
      </trkpt>
      <trkpt lat="47.49987" lon="-1.93314">
        <ele>47.105978</ele>
        <time>2022-12-15T14:32:26.617Z</time>
      </trkpt>
      <trkpt lat="47.49976" lon="-1.93311">
        <ele>47.113376</ele>
        <time>2022-12-15T14:32:28.622Z</time>
      </trkpt>
      <trkpt lat="47.49967" lon="-1.93307">
        <ele>47.119852</ele>
        <time>2022-12-15T14:32:30.622Z</time>
      </trkpt>
      <trkpt lat="47.49958" lon="-1.93302">
        <ele>47.126472</ele>
        <time>2022-12-15T14:32:32.636Z</time>
      </trkpt>
      <trkpt lat="47.49949" lon="-1.93294">
        <ele>47.133447</ele>
        <time>2022-12-15T14:32:34.626Z</time>
      </trkpt>
      <trkpt lat="47.49938" lon="-1.93285">
        <ele>47.142272</ele>
        <time>2022-12-15T14:32:37.618Z</time>
      </trkpt>
      <trkpt lat="47.49928" lon="-1.93275">
        <ele>47.150729</ele>
        <time>2022-12-15T14:32:40.624Z</time>
      </trkpt>
      <trkpt lat="47.4992" lon="-1.93269">
        <ele>47.157162</ele>
        <time>2022-12-15T14:32:42.628Z</time>
      </trkpt>
      <trkpt lat="47.49912" lon="-1.93261">
        <ele>47.163639</ele>
        <time>2022-12-15T14:32:44.627Z</time>
      </trkpt>
      <trkpt lat="47.49902" lon="-1.93254">
        <ele>47.171082</ele>
        <time>2022-12-15T14:32:46.619Z</time>
      </trkpt>
      <trkpt lat="47.49894" lon="-1.93247">
        <ele>47.177869</ele>
        <time>2022-12-15T14:32:48.624Z</time>
      </trkpt>
      <trkpt lat="47.49884" lon="-1.9324">
        <ele>47.184894</ele>
        <time>2022-12-15T14:32:50.620Z</time>
      </trkpt>
      <trkpt lat="47.49875" lon="-1.93232">
        <ele>47.169283</ele>
        <time>2022-12-15T14:32:52.633Z</time>
      </trkpt>
      <trkpt lat="47.49866" lon="-1.93224">
        <ele>47.056974</ele>
        <time>2022-12-15T14:32:54.622Z</time>
      </trkpt>
      <trkpt lat="47.49857" lon="-1.93217">
        <ele>46.946222</ele>
        <time>2022-12-15T14:32:56.630Z</time>
      </trkpt>
      <trkpt lat="47.49848" lon="-1.93209">
        <ele>46.837864</ele>
        <time>2022-12-15T14:32:58.641Z</time>
      </trkpt>
      <trkpt lat="47.4984" lon="-1.93202">
        <ele>46.735889</ele>
        <time>2022-12-15T14:33:00.636Z</time>
      </trkpt>
      <trkpt lat="47.49831" lon="-1.93194">
        <ele>46.626899</ele>
        <time>2022-12-15T14:33:02.611Z</time>
      </trkpt>
      <trkpt lat="47.49823" lon="-1.93186">
        <ele>46.519033</ele>
        <time>2022-12-15T14:33:04.613Z</time>
      </trkpt>
      <trkpt lat="47.49815" lon="-1.93177">
        <ele>46.411175</ele>
        <time>2022-12-15T14:33:06.615Z</time>
      </trkpt>
      <trkpt lat="47.49808" lon="-1.93168">
        <ele>46.307736</ele>
        <time>2022-12-15T14:33:08.626Z</time>
      </trkpt>
      <trkpt lat="47.49799" lon="-1.9316">
        <ele>46.201863</ele>
        <time>2022-12-15T14:33:10.615Z</time>
      </trkpt>
      <trkpt lat="47.49791" lon="-1.93154">
        <ele>46.097467</ele>
        <time>2022-12-15T14:33:12.644Z</time>
      </trkpt>
      <trkpt lat="47.4978" lon="-1.93142">
        <ele>45.952023</ele>
        <time>2022-12-15T14:33:15.632Z</time>
      </trkpt>
      <trkpt lat="47.49772" lon="-1.93128">
        <ele>45.819024</ele>
        <time>2022-12-15T14:33:18.611Z</time>
      </trkpt>
      <trkpt lat="47.49766" lon="-1.93117">
        <ele>45.717409</ele>
        <time>2022-12-15T14:33:20.628Z</time>
      </trkpt>
      <trkpt lat="47.4976" lon="-1.931">
        <ele>45.577645</ele>
        <time>2022-12-15T14:33:23.611Z</time>
      </trkpt>
      <trkpt lat="47.49758" lon="-1.9308">
        <ele>45.430937</ele>
        <time>2022-12-15T14:33:26.618Z</time>
      </trkpt>
      <trkpt lat="47.49755" lon="-1.9306">
        <ele>45.283264</ele>
        <time>2022-12-15T14:33:29.630Z</time>
      </trkpt>
      <trkpt lat="47.49754" lon="-1.93046">
        <ele>45.088743</ele>
        <time>2022-12-15T14:33:31.643Z</time>
      </trkpt>
      <trkpt lat="47.49753" lon="-1.93032">
        <ele>44.863504</ele>
        <time>2022-12-15T14:33:33.635Z</time>
      </trkpt>
      <trkpt lat="47.49751" lon="-1.93017">
        <ele>44.620986</ele>
        <time>2022-12-15T14:33:35.634Z</time>
      </trkpt>
      <trkpt lat="47.4975" lon="-1.93003">
        <ele>44.40745</ele>
        <time>2022-12-15T14:33:37.612Z</time>
      </trkpt>
      <trkpt lat="47.49748" lon="-1.92984">
        <ele>44.101628</ele>
        <time>2022-12-15T14:33:40.627Z</time>
      </trkpt>
      <trkpt lat="47.49747" lon="-1.92965">
        <ele>43.794508</ele>
        <time>2022-12-15T14:33:43.626Z</time>
      </trkpt>
      <trkpt lat="47.49744" lon="-1.92946">
        <ele>43.48268</ele>
        <time>2022-12-15T14:33:46.624Z</time>
      </trkpt>
      <trkpt lat="47.49743" lon="-1.92929">
        <ele>43.219848</ele>
        <time>2022-12-15T14:33:49.617Z</time>
      </trkpt>
      <trkpt lat="47.4974" lon="-1.92911">
        <ele>42.927364</ele>
        <time>2022-12-15T14:33:52.619Z</time>
      </trkpt>
      <trkpt lat="47.49738" lon="-1.92895">
        <ele>42.662279</ele>
        <time>2022-12-15T14:33:55.612Z</time>
      </trkpt>
      <trkpt lat="47.49735" lon="-1.92881">
        <ele>42.420467</ele>
        <time>2022-12-15T14:33:57.617Z</time>
      </trkpt>
      <trkpt lat="47.49731" lon="-1.92861">
        <ele>42.095797</ele>
        <time>2022-12-15T14:34:00.625Z</time>
      </trkpt>
      <trkpt lat="47.49728" lon="-1.92846">
        <ele>41.854927</ele>
        <time>2022-12-15T14:34:02.635Z</time>
      </trkpt>
      <trkpt lat="47.49726" lon="-1.92832">
        <ele>41.626529</ele>
        <time>2022-12-15T14:34:04.618Z</time>
      </trkpt>
      <trkpt lat="47.49724" lon="-1.92812">
        <ele>41.303343</ele>
        <time>2022-12-15T14:34:07.639Z</time>
      </trkpt>
      <trkpt lat="47.49723" lon="-1.92799">
        <ele>41.087543</ele>
        <time>2022-12-15T14:34:09.636Z</time>
      </trkpt>
      <trkpt lat="47.49721" lon="-1.92779">
        <ele>41.260817</ele>
        <time>2022-12-15T14:34:12.632Z</time>
      </trkpt>
      <trkpt lat="47.49721" lon="-1.9276">
        <ele>41.554925</ele>
        <time>2022-12-15T14:34:15.635Z</time>
      </trkpt>
      <trkpt lat="47.4972" lon="-1.92746">
        <ele>41.762511</ele>
        <time>2022-12-15T14:34:17.630Z</time>
      </trkpt>
      <trkpt lat="47.49721" lon="-1.92732">
        <ele>41.968523</ele>
        <time>2022-12-15T14:34:19.618Z</time>
      </trkpt>
      <trkpt lat="47.4972" lon="-1.92719">
        <ele>42.171569</ele>
        <time>2022-12-15T14:34:21.634Z</time>
      </trkpt>
      <trkpt lat="47.49719" lon="-1.92706">
        <ele>42.374232</ele>
        <time>2022-12-15T14:34:23.633Z</time>
      </trkpt>
      <trkpt lat="47.49719" lon="-1.92687">
        <ele>42.654545</ele>
        <time>2022-12-15T14:34:26.621Z</time>
      </trkpt>
      <trkpt lat="47.49719" lon="-1.92668">
        <ele>42.94684</ele>
        <time>2022-12-15T14:34:29.646Z</time>
      </trkpt>
      <trkpt lat="47.49718" lon="-1.92648">
        <ele>43.246201</ele>
        <time>2022-12-15T14:34:32.635Z</time>
      </trkpt>
      <trkpt lat="47.49718" lon="-1.92632">
        <ele>43.499111</ele>
        <time>2022-12-15T14:34:35.632Z</time>
      </trkpt>
      <trkpt lat="47.49717" lon="-1.92616">
        <ele>43.729578</ele>
        <time>2022-12-15T14:34:38.650Z</time>
      </trkpt>
      <trkpt lat="47.49717" lon="-1.92599">
        <ele>43.985675</ele>
        <time>2022-12-15T14:34:42.641Z</time>
      </trkpt>
      <trkpt lat="47.49718" lon="-1.92583">
        <ele>44.23362</ele>
        <time>2022-12-15T14:34:47.637Z</time>
      </trkpt>
      <trkpt lat="47.49718" lon="-1.92569">
        <ele>44.453773</ele>
        <time>2022-12-15T14:34:51.615Z</time>
      </trkpt>
      <trkpt lat="47.49717" lon="-1.92552">
        <ele>44.702636</ele>
        <time>2022-12-15T14:34:54.630Z</time>
      </trkpt>
      <trkpt lat="47.49716" lon="-1.92536">
        <ele>44.943806</ele>
        <time>2022-12-15T14:34:56.619Z</time>
      </trkpt>
      <trkpt lat="47.49716" lon="-1.92521">
        <ele>45.08283</ele>
        <time>2022-12-15T14:34:58.614Z</time>
      </trkpt>
      <trkpt lat="47.49716" lon="-1.92505">
        <ele>45.133712</ele>
        <time>2022-12-15T14:35:00.634Z</time>
      </trkpt>
      <trkpt lat="47.49716" lon="-1.92492">
        <ele>45.178987</ele>
        <time>2022-12-15T14:35:02.622Z</time>
      </trkpt>
      <trkpt lat="47.49717" lon="-1.92473">
        <ele>45.241951</ele>
        <time>2022-12-15T14:35:05.631Z</time>
      </trkpt>
      <trkpt lat="47.49719" lon="-1.92456">
        <ele>45.297336</ele>
        <time>2022-12-15T14:35:08.618Z</time>
      </trkpt>
      <trkpt lat="47.49721" lon="-1.92443">
        <ele>45.34262</ele>
        <time>2022-12-15T14:35:11.619Z</time>
      </trkpt>
      <trkpt lat="47.49723" lon="-1.92426">
        <ele>45.400748</ele>
        <time>2022-12-15T14:35:15.632Z</time>
      </trkpt>
      <trkpt lat="47.49727" lon="-1.92411">
        <ele>45.450834</ele>
        <time>2022-12-15T14:35:18.626Z</time>
      </trkpt>
      <trkpt lat="47.4973" lon="-1.92395">
        <ele>45.505246</ele>
        <time>2022-12-15T14:35:21.634Z</time>
      </trkpt>
      <trkpt lat="47.49732" lon="-1.92378">
        <ele>45.564021</ele>
        <time>2022-12-15T14:35:24.631Z</time>
      </trkpt>
      <trkpt lat="47.49736" lon="-1.92362">
        <ele>45.618486</ele>
        <time>2022-12-15T14:35:27.615Z</time>
      </trkpt>
      <trkpt lat="47.49738" lon="-1.92347">
        <ele>45.669851</ele>
        <time>2022-12-15T14:35:30.639Z</time>
      </trkpt>
      <trkpt lat="47.49741" lon="-1.92333">
        <ele>45.720902</ele>
        <time>2022-12-15T14:35:34.622Z</time>
      </trkpt>
      <trkpt lat="47.49746" lon="-1.9231">
        <ele>45.800119</ele>
        <time>2022-12-15T14:36:41.623Z</time>
      </trkpt>
      <trkpt lat="47.49748" lon="-1.92293">
        <ele>45.855992</ele>
        <time>2022-12-15T14:36:45.620Z</time>
      </trkpt>
      <trkpt lat="47.49751" lon="-1.9228">
        <ele>45.901242</ele>
        <time>2022-12-15T14:36:48.615Z</time>
      </trkpt>
      <trkpt lat="47.49755" lon="-1.92266">
        <ele>45.975614</ele>
        <time>2022-12-15T14:36:51.625Z</time>
      </trkpt>
      <trkpt lat="47.49759" lon="-1.92251">
        <ele>46.119748</ele>
        <time>2022-12-15T14:36:54.636Z</time>
      </trkpt>
      <trkpt lat="47.49764" lon="-1.92235">
        <ele>46.2703</ele>
        <time>2022-12-15T14:36:57.633Z</time>
      </trkpt>
      <trkpt lat="47.49768" lon="-1.92218">
        <ele>46.429035</ele>
        <time>2022-12-15T14:37:00.636Z</time>
      </trkpt>
      <trkpt lat="47.49772" lon="-1.922">
        <ele>46.591293</ele>
        <time>2022-12-15T14:37:03.636Z</time>
      </trkpt>
      <trkpt lat="47.49776" lon="-1.92183">
        <ele>46.745428</ele>
        <time>2022-12-15T14:37:06.633Z</time>
      </trkpt>
      <trkpt lat="47.4978" lon="-1.92167">
        <ele>46.895062</ele>
        <time>2022-12-15T14:37:09.644Z</time>
      </trkpt>
      <trkpt lat="47.49785" lon="-1.92153">
        <ele>47.030675</ele>
        <time>2022-12-15T14:37:12.639Z</time>
      </trkpt>
      <trkpt lat="47.4979" lon="-1.92136">
        <ele>47.193731</ele>
        <time>2022-12-15T14:37:15.629Z</time>
      </trkpt>
      <trkpt lat="47.49795" lon="-1.92117">
        <ele>47.363433</ele>
        <time>2022-12-15T14:37:18.624Z</time>
      </trkpt>
      <trkpt lat="47.49799" lon="-1.92101">
        <ele>47.512542</ele>
        <time>2022-12-15T14:37:21.635Z</time>
      </trkpt>
      <trkpt lat="47.49804" lon="-1.92083">
        <ele>47.679598</ele>
        <time>2022-12-15T14:37:24.637Z</time>
      </trkpt>
      <trkpt lat="47.49809" lon="-1.92066">
        <ele>47.840565</ele>
        <time>2022-12-15T14:37:27.612Z</time>
      </trkpt>
      <trkpt lat="47.49812" lon="-1.92053">
        <ele>47.960625</ele>
        <time>2022-12-15T14:37:29.633Z</time>
      </trkpt>
      <trkpt lat="47.49815" lon="-1.9204">
        <ele>48.08232</ele>
        <time>2022-12-15T14:37:31.624Z</time>
      </trkpt>
      <trkpt lat="47.49819" lon="-1.92025">
        <ele>48.21795</ele>
        <time>2022-12-15T14:37:33.629Z</time>
      </trkpt>
      <trkpt lat="47.49822" lon="-1.92011">
        <ele>48.252122</ele>
        <time>2022-12-15T14:37:35.630Z</time>
      </trkpt>
      <trkpt lat="47.49824" lon="-1.91997">
        <ele>48.267931</ele>
        <time>2022-12-15T14:37:37.628Z</time>
      </trkpt>
      <trkpt lat="47.49829" lon="-1.91977">
        <ele>48.290999</ele>
        <time>2022-12-15T14:37:40.630Z</time>
      </trkpt>
      <trkpt lat="47.49831" lon="-1.91962">
        <ele>48.308042</ele>
        <time>2022-12-15T14:37:42.619Z</time>
      </trkpt>
      <trkpt lat="47.49832" lon="-1.91948">
        <ele>48.323817</ele>
        <time>2022-12-15T14:37:44.632Z</time>
      </trkpt>
      <trkpt lat="47.49834" lon="-1.91929">
        <ele>48.344945</ele>
        <time>2022-12-15T14:37:47.646Z</time>
      </trkpt>
      <trkpt lat="47.49838" lon="-1.91909">
        <ele>48.367998</ele>
        <time>2022-12-15T14:37:50.635Z</time>
      </trkpt>
      <trkpt lat="47.49839" lon="-1.91894">
        <ele>48.383733</ele>
        <time>2022-12-15T14:37:52.622Z</time>
      </trkpt>
      <trkpt lat="47.49841" lon="-1.91879">
        <ele>48.401345</ele>
        <time>2022-12-15T14:37:54.634Z</time>
      </trkpt>
      <trkpt lat="47.49842" lon="-1.91865">
        <ele>48.416821</ele>
        <time>2022-12-15T14:37:56.634Z</time>
      </trkpt>
      <trkpt lat="47.49844" lon="-1.91848">
        <ele>48.435354</ele>
        <time>2022-12-15T14:37:58.632Z</time>
      </trkpt>
      <trkpt lat="47.49846" lon="-1.91834">
        <ele>48.45136</ele>
        <time>2022-12-15T14:38:00.622Z</time>
      </trkpt>
      <trkpt lat="47.49848" lon="-1.91819">
        <ele>48.468214</ele>
        <time>2022-12-15T14:38:02.633Z</time>
      </trkpt>
      <trkpt lat="47.49851" lon="-1.91805">
        <ele>48.483992</ele>
        <time>2022-12-15T14:38:04.643Z</time>
      </trkpt>
      <trkpt lat="47.49853" lon="-1.91792">
        <ele>48.499156</ele>
        <time>2022-12-15T14:38:06.643Z</time>
      </trkpt>
      <trkpt lat="47.49854" lon="-1.91778">
        <ele>48.51418</ele>
        <time>2022-12-15T14:38:08.639Z</time>
      </trkpt>
      <trkpt lat="47.49854" lon="-1.91764">
        <ele>48.529835</ele>
        <time>2022-12-15T14:38:10.617Z</time>
      </trkpt>
      <trkpt lat="47.49853" lon="-1.91749">
        <ele>48.420298</ele>
        <time>2022-12-15T14:38:12.640Z</time>
      </trkpt>
      <trkpt lat="47.49854" lon="-1.91733">
        <ele>48.293469</ele>
        <time>2022-12-15T14:38:14.633Z</time>
      </trkpt>
      <trkpt lat="47.49852" lon="-1.91718">
        <ele>48.164276</ele>
        <time>2022-12-15T14:38:16.635Z</time>
      </trkpt>
      <trkpt lat="47.4985" lon="-1.91703">
        <ele>48.047029</ele>
        <time>2022-12-15T14:38:18.639Z</time>
      </trkpt>
      <trkpt lat="47.49848" lon="-1.91688">
        <ele>47.917046</ele>
        <time>2022-12-15T14:38:20.636Z</time>
      </trkpt>
      <trkpt lat="47.49844" lon="-1.91673">
        <ele>47.791129</ele>
        <time>2022-12-15T14:38:22.641Z</time>
      </trkpt>
      <trkpt lat="47.49839" lon="-1.91658">
        <ele>47.658765</ele>
        <time>2022-12-15T14:38:24.632Z</time>
      </trkpt>
      <trkpt lat="47.49834" lon="-1.91645">
        <ele>47.538991</ele>
        <time>2022-12-15T14:38:26.619Z</time>
      </trkpt>
      <trkpt lat="47.49829" lon="-1.91626">
        <ele>47.37234</ele>
        <time>2022-12-15T14:38:29.630Z</time>
      </trkpt>
      <trkpt lat="47.49824" lon="-1.91613">
        <ele>47.251504</ele>
        <time>2022-12-15T14:38:31.629Z</time>
      </trkpt>
      <trkpt lat="47.4982" lon="-1.91599">
        <ele>47.130131</ele>
        <time>2022-12-15T14:38:33.614Z</time>
      </trkpt>
      <trkpt lat="47.49815" lon="-1.91587">
        <ele>47.012897</ele>
        <time>2022-12-15T14:38:35.631Z</time>
      </trkpt>
      <trkpt lat="47.49811" lon="-1.91573">
        <ele>46.894345</ele>
        <time>2022-12-15T14:38:37.619Z</time>
      </trkpt>
      <trkpt lat="47.49807" lon="-1.91561">
        <ele>46.782671</ele>
        <time>2022-12-15T14:38:39.616Z</time>
      </trkpt>
      <trkpt lat="47.49802" lon="-1.91548">
        <ele>46.669215</ele>
        <time>2022-12-15T14:38:41.644Z</time>
      </trkpt>
      <trkpt lat="47.49798" lon="-1.91535">
        <ele>46.551262</ele>
        <time>2022-12-15T14:38:43.632Z</time>
      </trkpt>
      <trkpt lat="47.49793" lon="-1.91522">
        <ele>46.429889</ele>
        <time>2022-12-15T14:38:45.639Z</time>
      </trkpt>
      <trkpt lat="47.49789" lon="-1.91508">
        <ele>46.388356</ele>
        <time>2022-12-15T14:38:47.638Z</time>
      </trkpt>
      <trkpt lat="47.49784" lon="-1.91495">
        <ele>46.398465</ele>
        <time>2022-12-15T14:38:49.637Z</time>
      </trkpt>
      <trkpt lat="47.49779" lon="-1.91482">
        <ele>46.408241</ele>
        <time>2022-12-15T14:38:51.642Z</time>
      </trkpt>
      <trkpt lat="47.49775" lon="-1.91469">
        <ele>46.418182</ele>
        <time>2022-12-15T14:38:53.642Z</time>
      </trkpt>
      <trkpt lat="47.4977" lon="-1.91456">
        <ele>46.428139</ele>
        <time>2022-12-15T14:38:55.622Z</time>
      </trkpt>
      <trkpt lat="47.49766" lon="-1.91444">
        <ele>46.437337</ele>
        <time>2022-12-15T14:38:57.617Z</time>
      </trkpt>
      <trkpt lat="47.49762" lon="-1.91431">
        <ele>46.447126</ele>
        <time>2022-12-15T14:38:59.614Z</time>
      </trkpt>
      <trkpt lat="47.49756" lon="-1.91414">
        <ele>46.460514</ele>
        <time>2022-12-15T14:39:02.636Z</time>
      </trkpt>
      <trkpt lat="47.4975" lon="-1.91398">
        <ele>46.472809</ele>
        <time>2022-12-15T14:39:05.630Z</time>
      </trkpt>
      <trkpt lat="47.49746" lon="-1.91385">
        <ele>46.482295</ele>
        <time>2022-12-15T14:39:08.630Z</time>
      </trkpt>
      <trkpt lat="47.49742" lon="-1.91373">
        <ele>46.491396</ele>
        <time>2022-12-15T14:39:10.620Z</time>
      </trkpt>
      <trkpt lat="47.49736" lon="-1.91356">
        <ele>46.504269</ele>
        <time>2022-12-15T14:39:13.632Z</time>
      </trkpt>
      <trkpt lat="47.49729" lon="-1.9134">
        <ele>46.517586</ele>
        <time>2022-12-15T14:39:16.619Z</time>
      </trkpt>
      <trkpt lat="47.49722" lon="-1.91325">
        <ele>46.530049</ele>
        <time>2022-12-15T14:39:19.629Z</time>
      </trkpt>
      <trkpt lat="47.49714" lon="-1.9131">
        <ele>46.543076</ele>
        <time>2022-12-15T14:39:22.613Z</time>
      </trkpt>
      <trkpt lat="47.49705" lon="-1.91296">
        <ele>46.556277</ele>
        <time>2022-12-15T14:39:25.625Z</time>
      </trkpt>
      <trkpt lat="47.49696" lon="-1.91284">
        <ele>46.570724</ele>
        <time>2022-12-15T14:39:28.621Z</time>
      </trkpt>
      <trkpt lat="47.49685" lon="-1.91275">
        <ele>46.587446</ele>
        <time>2022-12-15T14:39:31.638Z</time>
      </trkpt>
      <trkpt lat="47.49674" lon="-1.91266">
        <ele>46.605127</ele>
        <time>2022-12-15T14:39:34.638Z</time>
      </trkpt>
      <trkpt lat="47.49662" lon="-1.91258">
        <ele>46.623624</ele>
        <time>2022-12-15T14:39:37.632Z</time>
      </trkpt>
      <trkpt lat="47.4965" lon="-1.91249">
        <ele>46.642162</ele>
        <time>2022-12-15T14:39:40.624Z</time>
      </trkpt>
      <trkpt lat="47.49639" lon="-1.91241">
        <ele>46.660241</ele>
        <time>2022-12-15T14:39:43.632Z</time>
      </trkpt>
      <trkpt lat="47.49628" lon="-1.91233">
        <ele>46.67707</ele>
        <time>2022-12-15T14:39:46.634Z</time>
      </trkpt>
      <trkpt lat="47.49617" lon="-1.91225">
        <ele>46.693914</ele>
        <time>2022-12-15T14:39:49.633Z</time>
      </trkpt>
      <trkpt lat="47.49606" lon="-1.91214">
        <ele>46.712088</ele>
        <time>2022-12-15T14:39:52.612Z</time>
      </trkpt>
      <trkpt lat="47.49596" lon="-1.91201">
        <ele>46.730196</ele>
        <time>2022-12-15T14:39:55.615Z</time>
      </trkpt>
      <trkpt lat="47.49589" lon="-1.91187">
        <ele>46.747046</ele>
        <time>2022-12-15T14:39:58.612Z</time>
      </trkpt>
      <trkpt lat="47.49581" lon="-1.91172">
        <ele>46.765383</ele>
        <time>2022-12-15T14:40:01.625Z</time>
      </trkpt>
      <trkpt lat="47.49574" lon="-1.91155">
        <ele>46.784039</ele>
        <time>2022-12-15T14:40:04.630Z</time>
      </trkpt>
      <trkpt lat="47.49569" lon="-1.91143">
        <ele>46.797145</ele>
        <time>2022-12-15T14:40:06.629Z</time>
      </trkpt>
      <trkpt lat="47.49564" lon="-1.91132">
        <ele>46.809865</ele>
        <time>2022-12-15T14:40:08.636Z</time>
      </trkpt>
      <trkpt lat="47.49558" lon="-1.91122">
        <ele>46.859641</ele>
        <time>2022-12-15T14:40:10.630Z</time>
      </trkpt>
      <trkpt lat="47.49548" lon="-1.91109">
        <ele>46.952518</ele>
        <time>2022-12-15T14:40:13.620Z</time>
      </trkpt>
      <trkpt lat="47.4954" lon="-1.91099">
        <ele>47.030586</ele>
        <time>2022-12-15T14:40:16.617Z</time>
      </trkpt>
      <trkpt lat="47.49531" lon="-1.91092">
        <ele>47.101051</ele>
        <time>2022-12-15T14:40:19.614Z</time>
      </trkpt>
      <trkpt lat="47.4952" lon="-1.91085">
        <ele>47.18529</ele>
        <time>2022-12-15T14:40:22.619Z</time>
      </trkpt>
      <trkpt lat="47.49511" lon="-1.91081">
        <ele>47.259101</ele>
        <time>2022-12-15T14:40:25.633Z</time>
      </trkpt>
      <trkpt lat="47.49499" lon="-1.91076">
        <ele>47.347005</ele>
        <time>2022-12-15T14:40:28.631Z</time>
      </trkpt>
      <trkpt lat="47.49487" lon="-1.91072">
        <ele>47.435122</ele>
        <time>2022-12-15T14:40:31.637Z</time>
      </trkpt>
      <trkpt lat="47.49475" lon="-1.91067">
        <ele>47.525926</ele>
        <time>2022-12-15T14:40:34.623Z</time>
      </trkpt>
      <trkpt lat="47.49465" lon="-1.91065">
        <ele>47.59346</ele>
        <time>2022-12-15T14:40:36.632Z</time>
      </trkpt>
      <trkpt lat="47.49456" lon="-1.91064">
        <ele>47.66133</ele>
        <time>2022-12-15T14:40:38.616Z</time>
      </trkpt>
      <trkpt lat="47.49446" lon="-1.91064">
        <ele>47.730431</ele>
        <time>2022-12-15T14:40:40.621Z</time>
      </trkpt>
      <trkpt lat="47.49437" lon="-1.91064">
        <ele>47.798769</ele>
        <time>2022-12-15T14:40:42.618Z</time>
      </trkpt>
      <trkpt lat="47.49427" lon="-1.91064">
        <ele>47.870745</ele>
        <time>2022-12-15T14:40:44.634Z</time>
      </trkpt>
      <trkpt lat="47.49417" lon="-1.91064">
        <ele>47.940529</ele>
        <time>2022-12-15T14:40:46.671Z</time>
      </trkpt>
      <trkpt lat="47.49408" lon="-1.91064">
        <ele>48.008155</ele>
        <time>2022-12-15T14:40:48.626Z</time>
      </trkpt>
      <trkpt lat="47.49398" lon="-1.91064">
        <ele>48.078653</ele>
        <time>2022-12-15T14:40:50.627Z</time>
      </trkpt>
      <trkpt lat="47.49388" lon="-1.91065">
        <ele>48.10684</ele>
        <time>2022-12-15T14:40:52.633Z</time>
      </trkpt>
      <trkpt lat="47.49378" lon="-1.91065">
        <ele>48.105961</ele>
        <time>2022-12-15T14:40:54.635Z</time>
      </trkpt>
      <trkpt lat="47.49368" lon="-1.91065">
        <ele>48.105082</ele>
        <time>2022-12-15T14:40:56.633Z</time>
      </trkpt>
      <trkpt lat="47.49356" lon="-1.91066">
        <ele>48.103992</ele>
        <time>2022-12-15T14:40:59.620Z</time>
      </trkpt>
      <trkpt lat="47.49344" lon="-1.91067">
        <ele>48.102964</ele>
        <time>2022-12-15T14:41:02.628Z</time>
      </trkpt>
      <trkpt lat="47.49335" lon="-1.9107">
        <ele>48.102145</ele>
        <time>2022-12-15T14:41:05.638Z</time>
      </trkpt>
      <trkpt lat="47.49324" lon="-1.91074">
        <ele>48.101162</ele>
        <time>2022-12-15T14:41:08.630Z</time>
      </trkpt>
      <trkpt lat="47.49311" lon="-1.9108">
        <ele>48.099958</ele>
        <time>2022-12-15T14:41:11.636Z</time>
      </trkpt>
      <trkpt lat="47.49302" lon="-1.91086">
        <ele>48.099158</ele>
        <time>2022-12-15T14:41:13.638Z</time>
      </trkpt>
      <trkpt lat="47.49294" lon="-1.91093">
        <ele>48.098363</ele>
        <time>2022-12-15T14:41:15.640Z</time>
      </trkpt>
      <trkpt lat="47.49286" lon="-1.911">
        <ele>48.097538</ele>
        <time>2022-12-15T14:41:17.624Z</time>
      </trkpt>
      <trkpt lat="47.49279" lon="-1.91109">
        <ele>48.096688</ele>
        <time>2022-12-15T14:41:19.638Z</time>
      </trkpt>
      <trkpt lat="47.49272" lon="-1.91118">
        <ele>48.095891</ele>
        <time>2022-12-15T14:41:21.638Z</time>
      </trkpt>
      <trkpt lat="47.49265" lon="-1.91128">
        <ele>48.095048</ele>
        <time>2022-12-15T14:41:23.633Z</time>
      </trkpt>
      <trkpt lat="47.49258" lon="-1.91138">
        <ele>48.09422</ele>
        <time>2022-12-15T14:41:25.631Z</time>
      </trkpt>
      <trkpt lat="47.49251" lon="-1.91148">
        <ele>48.093371</ele>
        <time>2022-12-15T14:41:27.644Z</time>
      </trkpt>
      <trkpt lat="47.49244" lon="-1.91158">
        <ele>48.092549</ele>
        <time>2022-12-15T14:41:29.636Z</time>
      </trkpt>
      <trkpt lat="47.49234" lon="-1.91173">
        <ele>48.11863</ele>
        <time>2022-12-15T14:41:32.643Z</time>
      </trkpt>
      <trkpt lat="47.49228" lon="-1.91183">
        <ele>48.177869</ele>
        <time>2022-12-15T14:41:34.636Z</time>
      </trkpt>
      <trkpt lat="47.49221" lon="-1.91194">
        <ele>48.246092</ele>
        <time>2022-12-15T14:41:36.633Z</time>
      </trkpt>
      <trkpt lat="47.49214" lon="-1.91205">
        <ele>48.310176</ele>
        <time>2022-12-15T14:41:38.632Z</time>
      </trkpt>
      <trkpt lat="47.49206" lon="-1.91215">
        <ele>48.376211</ele>
        <time>2022-12-15T14:41:40.633Z</time>
      </trkpt>
      <trkpt lat="47.49197" lon="-1.91224">
        <ele>48.443352</ele>
        <time>2022-12-15T14:41:42.635Z</time>
      </trkpt>
      <trkpt lat="47.49189" lon="-1.91233">
        <ele>48.50905</ele>
        <time>2022-12-15T14:41:44.614Z</time>
      </trkpt>
      <trkpt lat="47.49181" lon="-1.91239">
        <ele>48.567972</ele>
        <time>2022-12-15T14:41:46.640Z</time>
      </trkpt>
      <trkpt lat="47.49172" lon="-1.91245">
        <ele>48.631372</ele>
        <time>2022-12-15T14:41:48.616Z</time>
      </trkpt>
      <trkpt lat="47.49163" lon="-1.91247">
        <ele>48.690221</ele>
        <time>2022-12-15T14:41:50.615Z</time>
      </trkpt>
      <trkpt lat="47.49153" lon="-1.91248">
        <ele>48.748509</ele>
        <time>2022-12-15T14:41:52.615Z</time>
      </trkpt>
      <trkpt lat="47.49144" lon="-1.91248">
        <ele>48.809337</ele>
        <time>2022-12-15T14:41:54.620Z</time>
      </trkpt>
      <trkpt lat="47.49135" lon="-1.91246">
        <ele>48.869535</ele>
        <time>2022-12-15T14:41:56.637Z</time>
      </trkpt>
      <trkpt lat="47.49125" lon="-1.91244">
        <ele>48.935062</ele>
        <time>2022-12-15T14:41:58.621Z</time>
      </trkpt>
      <trkpt lat="47.49115" lon="-1.91239">
        <ele>49.000593</ele>
        <time>2022-12-15T14:42:00.621Z</time>
      </trkpt>
      <trkpt lat="47.49105" lon="-1.91234">
        <ele>49.064363</ele>
        <time>2022-12-15T14:42:02.619Z</time>
      </trkpt>
      <trkpt lat="47.49097" lon="-1.91228">
        <ele>49.125001</ele>
        <time>2022-12-15T14:42:04.621Z</time>
      </trkpt>
      <trkpt lat="47.49088" lon="-1.91221">
        <ele>49.187758</ele>
        <time>2022-12-15T14:42:06.631Z</time>
      </trkpt>
      <trkpt lat="47.49079" lon="-1.91216">
        <ele>49.245471</ele>
        <time>2022-12-15T14:42:08.634Z</time>
      </trkpt>
      <trkpt lat="47.4907" lon="-1.91209">
        <ele>49.26356</ele>
        <time>2022-12-15T14:42:10.643Z</time>
      </trkpt>
      <trkpt lat="47.49061" lon="-1.91202">
        <ele>49.281282</ele>
        <time>2022-12-15T14:42:12.626Z</time>
      </trkpt>
      <trkpt lat="47.49052" lon="-1.91196">
        <ele>49.29927</ele>
        <time>2022-12-15T14:42:14.621Z</time>
      </trkpt>
      <trkpt lat="47.49043" lon="-1.9119">
        <ele>49.317638</ele>
        <time>2022-12-15T14:42:16.633Z</time>
      </trkpt>
      <trkpt lat="47.49034" lon="-1.91185">
        <ele>49.3356</ele>
        <time>2022-12-15T14:42:18.622Z</time>
      </trkpt>
      <trkpt lat="47.49024" lon="-1.91179">
        <ele>49.353639</ele>
        <time>2022-12-15T14:42:20.619Z</time>
      </trkpt>
      <trkpt lat="47.49011" lon="-1.91172">
        <ele>49.378195</ele>
        <time>2022-12-15T14:42:23.623Z</time>
      </trkpt>
      <trkpt lat="47.48999" lon="-1.91169">
        <ele>49.400389</ele>
        <time>2022-12-15T14:42:26.623Z</time>
      </trkpt>
      <trkpt lat="47.48987" lon="-1.91167">
        <ele>49.422043</ele>
        <time>2022-12-15T14:42:29.635Z</time>
      </trkpt>
      <trkpt lat="47.48975" lon="-1.91165">
        <ele>49.445237</ele>
        <time>2022-12-15T14:42:32.635Z</time>
      </trkpt>
      <trkpt lat="47.48961" lon="-1.91164">
        <ele>49.469644</ele>
        <time>2022-12-15T14:42:35.613Z</time>
      </trkpt>
      <trkpt lat="47.48952" lon="-1.91164">
        <ele>49.486077</ele>
        <time>2022-12-15T14:42:37.636Z</time>
      </trkpt>
      <trkpt lat="47.48943" lon="-1.91164">
        <ele>49.50251</ele>
        <time>2022-12-15T14:42:39.635Z</time>
      </trkpt>
      <trkpt lat="47.48929" lon="-1.91164">
        <ele>49.527071</ele>
        <time>2022-12-15T14:42:42.632Z</time>
      </trkpt>
      <trkpt lat="47.48916" lon="-1.91163">
        <ele>49.551516</ele>
        <time>2022-12-15T14:42:45.635Z</time>
      </trkpt>
      <trkpt lat="47.48906" lon="-1.91163">
        <ele>49.567238</ele>
        <time>2022-12-15T14:42:47.629Z</time>
      </trkpt>
      <trkpt lat="47.48896" lon="-1.91164">
        <ele>49.566178</ele>
        <time>2022-12-15T14:42:49.623Z</time>
      </trkpt>
      <trkpt lat="47.48886" lon="-1.91166">
        <ele>49.565216</ele>
        <time>2022-12-15T14:42:51.644Z</time>
      </trkpt>
      <trkpt lat="47.48874" lon="-1.91171">
        <ele>49.56388</ele>
        <time>2022-12-15T14:42:54.617Z</time>
      </trkpt>
      <trkpt lat="47.48861" lon="-1.91176">
        <ele>49.562484</ele>
        <time>2022-12-15T14:42:57.631Z</time>
      </trkpt>
      <trkpt lat="47.4885" lon="-1.91182">
        <ele>49.561257</ele>
        <time>2022-12-15T14:43:00.615Z</time>
      </trkpt>
      <trkpt lat="47.48839" lon="-1.91187">
        <ele>49.560087</ele>
        <time>2022-12-15T14:43:03.638Z</time>
      </trkpt>
      <trkpt lat="47.48829" lon="-1.91192">
        <ele>49.558982</ele>
        <time>2022-12-15T14:43:06.626Z</time>
      </trkpt>
      <trkpt lat="47.48818" lon="-1.91197">
        <ele>49.557786</ele>
        <time>2022-12-15T14:43:09.631Z</time>
      </trkpt>
      <trkpt lat="47.48807" lon="-1.91201">
        <ele>49.556622</ele>
        <time>2022-12-15T14:43:12.617Z</time>
      </trkpt>
      <trkpt lat="47.48795" lon="-1.91206">
        <ele>49.555373</ele>
        <time>2022-12-15T14:43:15.639Z</time>
      </trkpt>
      <trkpt lat="47.48783" lon="-1.91213">
        <ele>49.55408</ele>
        <time>2022-12-15T14:43:18.640Z</time>
      </trkpt>
      <trkpt lat="47.48773" lon="-1.91217">
        <ele>49.552978</ele>
        <time>2022-12-15T14:43:21.641Z</time>
      </trkpt>
      <trkpt lat="47.4876" lon="-1.91222">
        <ele>49.551621</ele>
        <time>2022-12-15T14:43:24.630Z</time>
      </trkpt>
      <trkpt lat="47.4875" lon="-1.91225">
        <ele>49.55055</ele>
        <time>2022-12-15T14:43:26.634Z</time>
      </trkpt>
      <trkpt lat="47.48741" lon="-1.91228">
        <ele>49.54953</ele>
        <time>2022-12-15T14:43:28.617Z</time>
      </trkpt>
      <trkpt lat="47.48729" lon="-1.91231">
        <ele>49.500809</ele>
        <time>2022-12-15T14:43:31.632Z</time>
      </trkpt>
      <trkpt lat="47.48718" lon="-1.91232">
        <ele>49.398646</ele>
        <time>2022-12-15T14:43:33.623Z</time>
      </trkpt>
      <trkpt lat="47.48706" lon="-1.91232">
        <ele>49.279565</ele>
        <time>2022-12-15T14:43:36.633Z</time>
      </trkpt>
      <trkpt lat="47.48697" lon="-1.91231">
        <ele>49.190144</ele>
        <time>2022-12-15T14:43:38.626Z</time>
      </trkpt>
      <trkpt lat="47.48686" lon="-1.91229">
        <ele>49.071031</ele>
        <time>2022-12-15T14:43:41.636Z</time>
      </trkpt>
      <trkpt lat="47.48675" lon="-1.91227">
        <ele>48.963383</ele>
        <time>2022-12-15T14:43:44.632Z</time>
      </trkpt>
      <trkpt lat="47.48664" lon="-1.91225">
        <ele>48.851818</ele>
        <time>2022-12-15T14:43:47.614Z</time>
      </trkpt>
      <trkpt lat="47.48652" lon="-1.91221">
        <ele>48.737453</ele>
        <time>2022-12-15T14:43:50.617Z</time>
      </trkpt>
      <trkpt lat="47.48639" lon="-1.91217">
        <ele>48.604076</ele>
        <time>2022-12-15T14:43:53.633Z</time>
      </trkpt>
      <trkpt lat="47.48627" lon="-1.91212">
        <ele>48.479874</ele>
        <time>2022-12-15T14:43:56.622Z</time>
      </trkpt>
      <trkpt lat="47.48619" lon="-1.91206">
        <ele>48.388395</ele>
        <time>2022-12-15T14:43:58.621Z</time>
      </trkpt>
      <trkpt lat="47.4861" lon="-1.91199">
        <ele>48.286402</ele>
        <time>2022-12-15T14:44:00.619Z</time>
      </trkpt>
      <trkpt lat="47.48601" lon="-1.91193">
        <ele>48.189405</ele>
        <time>2022-12-15T14:44:02.630Z</time>
      </trkpt>
      <trkpt lat="47.48592" lon="-1.91188">
        <ele>48.095042</ele>
        <time>2022-12-15T14:44:04.626Z</time>
      </trkpt>
      <trkpt lat="47.48584" lon="-1.91181">
        <ele>48.002464</ele>
        <time>2022-12-15T14:44:06.623Z</time>
      </trkpt>
      <trkpt lat="47.48575" lon="-1.91174">
        <ele>47.900471</ele>
        <time>2022-12-15T14:44:08.614Z</time>
      </trkpt>
      <trkpt lat="47.48566" lon="-1.91168">
        <ele>47.805269</ele>
        <time>2022-12-15T14:44:10.626Z</time>
      </trkpt>
      <trkpt lat="47.48557" lon="-1.91162">
        <ele>47.715547</ele>
        <time>2022-12-15T14:44:12.620Z</time>
      </trkpt>
      <trkpt lat="47.48549" lon="-1.91156">
        <ele>47.632146</ele>
        <time>2022-12-15T14:44:14.641Z</time>
      </trkpt>
      <trkpt lat="47.48538" lon="-1.91147">
        <ele>47.521469</ele>
        <time>2022-12-15T14:44:17.619Z</time>
      </trkpt>
      <trkpt lat="47.48528" lon="-1.9114">
        <ele>47.416985</ele>
        <time>2022-12-15T14:44:20.633Z</time>
      </trkpt>
      <trkpt lat="47.48518" lon="-1.91132">
        <ele>47.31738</ele>
        <time>2022-12-15T14:44:23.636Z</time>
      </trkpt>
      <trkpt lat="47.48508" lon="-1.91124">
        <ele>47.215734</ele>
        <time>2022-12-15T14:44:26.636Z</time>
      </trkpt>
      <trkpt lat="47.48498" lon="-1.91116">
        <ele>47.106152</ele>
        <time>2022-12-15T14:44:29.632Z</time>
      </trkpt>
      <trkpt lat="47.48486" lon="-1.91107">
        <ele>46.991662</ele>
        <time>2022-12-15T14:44:32.632Z</time>
      </trkpt>
      <trkpt lat="47.48475" lon="-1.91099">
        <ele>46.879341</ele>
        <time>2022-12-15T14:44:35.643Z</time>
      </trkpt>
      <trkpt lat="47.48464" lon="-1.9109">
        <ele>46.763389</ele>
        <time>2022-12-15T14:44:38.625Z</time>
      </trkpt>
      <trkpt lat="47.48454" lon="-1.91082">
        <ele>46.659727</ele>
        <time>2022-12-15T14:44:41.624Z</time>
      </trkpt>
      <trkpt lat="47.48446" lon="-1.91073">
        <ele>46.57146</ele>
        <time>2022-12-15T14:44:44.621Z</time>
      </trkpt>
      <trkpt lat="47.48439" lon="-1.91063">
        <ele>46.479736</ele>
        <time>2022-12-15T14:44:48.629Z</time>
      </trkpt>
      <trkpt lat="47.48433" lon="-1.91052">
        <ele>46.396519</ele>
        <time>2022-12-15T14:45:05.622Z</time>
      </trkpt>
      <trkpt lat="47.48425" lon="-1.91044">
        <ele>46.311924</ele>
        <time>2022-12-15T14:45:11.621Z</time>
      </trkpt>
      <trkpt lat="47.48417" lon="-1.91035">
        <ele>46.219736</ele>
        <time>2022-12-15T14:45:14.614Z</time>
      </trkpt>
      <trkpt lat="47.48409" lon="-1.91026">
        <ele>46.135886</ele>
        <time>2022-12-15T14:45:16.631Z</time>
      </trkpt>
      <trkpt lat="47.48402" lon="-1.91016">
        <ele>46.100045</ele>
        <time>2022-12-15T14:45:18.614Z</time>
      </trkpt>
      <trkpt lat="47.48394" lon="-1.91002">
        <ele>46.053945</ele>
        <time>2022-12-15T14:45:21.622Z</time>
      </trkpt>
      <trkpt lat="47.48388" lon="-1.90987">
        <ele>46.010129</ele>
        <time>2022-12-15T14:45:24.615Z</time>
      </trkpt>
      <trkpt lat="47.48382" lon="-1.90972">
        <ele>45.966528</ele>
        <time>2022-12-15T14:45:27.628Z</time>
      </trkpt>
      <trkpt lat="47.48377" lon="-1.90955">
        <ele>45.919015</ele>
        <time>2022-12-15T14:45:30.617Z</time>
      </trkpt>
      <trkpt lat="47.48372" lon="-1.90937">
        <ele>45.872797</ele>
        <time>2022-12-15T14:45:33.614Z</time>
      </trkpt>
      <trkpt lat="47.48369" lon="-1.90919">
        <ele>45.824742</ele>
        <time>2022-12-15T14:45:36.615Z</time>
      </trkpt>
      <trkpt lat="47.48367" lon="-1.90905">
        <ele>45.790951</ele>
        <time>2022-12-15T14:45:38.638Z</time>
      </trkpt>
      <trkpt lat="47.48367" lon="-1.90886">
        <ele>45.741138</ele>
        <time>2022-12-15T14:45:41.635Z</time>
      </trkpt>
      <trkpt lat="47.48367" lon="-1.90872">
        <ele>45.706087</ele>
        <time>2022-12-15T14:45:43.637Z</time>
      </trkpt>
      <trkpt lat="47.48369" lon="-1.90858">
        <ele>45.672788</ele>
        <time>2022-12-15T14:45:45.634Z</time>
      </trkpt>
      <trkpt lat="47.48371" lon="-1.90839">
        <ele>45.624569</ele>
        <time>2022-12-15T14:45:48.624Z</time>
      </trkpt>
      <trkpt lat="47.48375" lon="-1.90821">
        <ele>45.576514</ele>
        <time>2022-12-15T14:45:51.615Z</time>
      </trkpt>
      <trkpt lat="47.48379" lon="-1.90803">
        <ele>45.528163</ele>
        <time>2022-12-15T14:45:54.616Z</time>
      </trkpt>
      <trkpt lat="47.48384" lon="-1.90785">
        <ele>45.479508</ele>
        <time>2022-12-15T14:45:57.615Z</time>
      </trkpt>
      <trkpt lat="47.48389" lon="-1.90772">
        <ele>45.442872</ele>
        <time>2022-12-15T14:45:59.618Z</time>
      </trkpt>
      <trkpt lat="47.48394" lon="-1.90759">
        <ele>45.403583</ele>
        <time>2022-12-15T14:46:01.619Z</time>
      </trkpt>
      <trkpt lat="47.48398" lon="-1.90746">
        <ele>45.367342</ele>
        <time>2022-12-15T14:46:03.640Z</time>
      </trkpt>
      <trkpt lat="47.48403" lon="-1.9073">
        <ele>45.320133</ele>
        <time>2022-12-15T14:46:06.637Z</time>
      </trkpt>
      <trkpt lat="47.48407" lon="-1.90715">
        <ele>45.279348</ele>
        <time>2022-12-15T14:46:09.614Z</time>
      </trkpt>
      <trkpt lat="47.4841" lon="-1.907">
        <ele>45.240308</ele>
        <time>2022-12-15T14:46:12.626Z</time>
      </trkpt>
      <trkpt lat="47.48412" lon="-1.90683">
        <ele>45.19594</ele>
        <time>2022-12-15T14:46:15.637Z</time>
      </trkpt>
      <trkpt lat="47.48415" lon="-1.90665">
        <ele>45.14772</ele>
        <time>2022-12-15T14:46:18.642Z</time>
      </trkpt>
      <trkpt lat="47.48416" lon="-1.90646">
        <ele>45.099037</ele>
        <time>2022-12-15T14:46:21.640Z</time>
      </trkpt>
      <trkpt lat="47.48418" lon="-1.90628">
        <ele>45.051209</ele>
        <time>2022-12-15T14:46:24.639Z</time>
      </trkpt>
      <trkpt lat="47.48418" lon="-1.90614">
        <ele>45.017038</ele>
        <time>2022-12-15T14:46:26.639Z</time>
      </trkpt>
      <trkpt lat="47.48418" lon="-1.90595">
        <ele>44.967959</ele>
        <time>2022-12-15T14:46:29.631Z</time>
      </trkpt>
      <trkpt lat="47.48417" lon="-1.90576">
        <ele>44.917589</ele>
        <time>2022-12-15T14:46:32.643Z</time>
      </trkpt>
      <trkpt lat="47.48418" lon="-1.90562">
        <ele>44.88226</ele>
        <time>2022-12-15T14:46:34.626Z</time>
      </trkpt>
      <trkpt lat="47.48418" lon="-1.90547">
        <ele>44.844741</ele>
        <time>2022-12-15T14:46:36.637Z</time>
      </trkpt>
      <trkpt lat="47.48418" lon="-1.90534">
        <ele>44.809766</ele>
        <time>2022-12-15T14:46:38.627Z</time>
      </trkpt>
      <trkpt lat="47.48417" lon="-1.90519">
        <ele>44.778114</ele>
        <time>2022-12-15T14:46:40.633Z</time>
      </trkpt>
      <trkpt lat="47.48417" lon="-1.90506">
        <ele>44.751911</ele>
        <time>2022-12-15T14:46:42.634Z</time>
      </trkpt>
      <trkpt lat="47.48416" lon="-1.90492">
        <ele>44.725838</ele>
        <time>2022-12-15T14:46:44.646Z</time>
      </trkpt>
      <trkpt lat="47.48414" lon="-1.90473">
        <ele>44.690385</ele>
        <time>2022-12-15T14:46:47.635Z</time>
      </trkpt>
      <trkpt lat="47.48412" lon="-1.90453">
        <ele>44.652591</ele>
        <time>2022-12-15T14:46:50.640Z</time>
      </trkpt>
      <trkpt lat="47.4841" lon="-1.90438">
        <ele>44.62396</ele>
        <time>2022-12-15T14:46:52.626Z</time>
      </trkpt>
      <trkpt lat="47.48409" lon="-1.90425">
        <ele>44.598392</ele>
        <time>2022-12-15T14:46:54.633Z</time>
      </trkpt>
      <trkpt lat="47.48405" lon="-1.90406">
        <ele>44.561453</ele>
        <time>2022-12-15T14:46:57.624Z</time>
      </trkpt>
      <trkpt lat="47.48402" lon="-1.90389">
        <ele>44.527508</ele>
        <time>2022-12-15T14:47:00.629Z</time>
      </trkpt>
      <trkpt lat="47.48399" lon="-1.90372">
        <ele>44.494832</ele>
        <time>2022-12-15T14:47:03.626Z</time>
      </trkpt>
      <trkpt lat="47.48395" lon="-1.90354">
        <ele>44.459519</ele>
        <time>2022-12-15T14:47:06.620Z</time>
      </trkpt>
      <trkpt lat="47.48392" lon="-1.90341">
        <ele>44.434278</ele>
        <time>2022-12-15T14:47:08.620Z</time>
      </trkpt>
      <trkpt lat="47.48389" lon="-1.90329">
        <ele>44.408686</ele>
        <time>2022-12-15T14:47:10.622Z</time>
      </trkpt>
      <trkpt lat="47.48386" lon="-1.90316">
        <ele>44.383451</ele>
        <time>2022-12-15T14:47:12.616Z</time>
      </trkpt>
      <trkpt lat="47.48381" lon="-1.90297">
        <ele>44.346324</ele>
        <time>2022-12-15T14:47:15.643Z</time>
      </trkpt>
      <trkpt lat="47.48378" lon="-1.90285">
        <ele>44.320633</ele>
        <time>2022-12-15T14:47:17.630Z</time>
      </trkpt>
      <trkpt lat="47.48375" lon="-1.90271">
        <ele>44.29394</ele>
        <time>2022-12-15T14:47:19.623Z</time>
      </trkpt>
      <trkpt lat="47.48372" lon="-1.90259">
        <ele>44.243012</ele>
        <time>2022-12-15T14:47:21.623Z</time>
      </trkpt>
      <trkpt lat="47.48368" lon="-1.90246">
        <ele>44.187339</ele>
        <time>2022-12-15T14:47:23.636Z</time>
      </trkpt>
      <trkpt lat="47.48364" lon="-1.90233">
        <ele>44.129637</ele>
        <time>2022-12-15T14:47:25.634Z</time>
      </trkpt>
      <trkpt lat="47.4836" lon="-1.9022">
        <ele>44.070415</ele>
        <time>2022-12-15T14:47:27.630Z</time>
      </trkpt>
      <trkpt lat="47.48357" lon="-1.90207">
        <ele>44.011492</ele>
        <time>2022-12-15T14:47:29.619Z</time>
      </trkpt>
      <trkpt lat="47.48353" lon="-1.90194">
        <ele>43.954836</ele>
        <time>2022-12-15T14:47:31.634Z</time>
      </trkpt>
      <trkpt lat="47.48349" lon="-1.9018">
        <ele>43.891606</ele>
        <time>2022-12-15T14:47:33.635Z</time>
      </trkpt>
      <trkpt lat="47.48345" lon="-1.90166">
        <ele>43.83139</ele>
        <time>2022-12-15T14:47:35.636Z</time>
      </trkpt>
      <trkpt lat="47.48341" lon="-1.90154">
        <ele>43.774559</ele>
        <time>2022-12-15T14:47:37.641Z</time>
      </trkpt>
      <trkpt lat="47.48337" lon="-1.90141">
        <ele>43.716528</ele>
        <time>2022-12-15T14:47:39.615Z</time>
      </trkpt>
      <trkpt lat="47.48331" lon="-1.90123">
        <ele>43.63431</ele>
        <time>2022-12-15T14:47:42.639Z</time>
      </trkpt>
      <trkpt lat="47.48328" lon="-1.9011">
        <ele>43.579176</ele>
        <time>2022-12-15T14:47:44.623Z</time>
      </trkpt>
      <trkpt lat="47.48325" lon="-1.90097">
        <ele>43.521024</ele>
        <time>2022-12-15T14:47:46.627Z</time>
      </trkpt>
      <trkpt lat="47.48321" lon="-1.90084">
        <ele>43.463693</ele>
        <time>2022-12-15T14:47:48.629Z</time>
      </trkpt>
      <trkpt lat="47.48318" lon="-1.9007">
        <ele>43.405353</ele>
        <time>2022-12-15T14:47:50.625Z</time>
      </trkpt>
      <trkpt lat="47.48314" lon="-1.90057">
        <ele>43.347169</ele>
        <time>2022-12-15T14:47:52.639Z</time>
      </trkpt>
      <trkpt lat="47.48311" lon="-1.90043">
        <ele>43.286697</ele>
        <time>2022-12-15T14:47:54.639Z</time>
      </trkpt>
      <trkpt lat="47.48307" lon="-1.9003">
        <ele>43.228499</ele>
        <time>2022-12-15T14:47:56.634Z</time>
      </trkpt>
      <trkpt lat="47.48303" lon="-1.90016">
        <ele>43.217118</ele>
        <time>2022-12-15T14:47:58.616Z</time>
      </trkpt>
      <trkpt lat="47.483" lon="-1.90003">
        <ele>43.244165</ele>
        <time>2022-12-15T14:48:00.632Z</time>
      </trkpt>
      <trkpt lat="47.48298" lon="-1.89988">
        <ele>43.273809</ele>
        <time>2022-12-15T14:48:02.641Z</time>
      </trkpt>
      <trkpt lat="47.48294" lon="-1.89975">
        <ele>43.299945</ele>
        <time>2022-12-15T14:48:04.621Z</time>
      </trkpt>
      <trkpt lat="47.48289" lon="-1.89957">
        <ele>43.337526</ele>
        <time>2022-12-15T14:48:07.628Z</time>
      </trkpt>
      <trkpt lat="47.48285" lon="-1.8994">
        <ele>43.371952</ele>
        <time>2022-12-15T14:48:10.622Z</time>
      </trkpt>
      <trkpt lat="47.48281" lon="-1.89924">
        <ele>43.405418</ele>
        <time>2022-12-15T14:48:13.624Z</time>
      </trkpt>
      <trkpt lat="47.48276" lon="-1.89907">
        <ele>43.439593</ele>
        <time>2022-12-15T14:48:16.638Z</time>
      </trkpt>
      <trkpt lat="47.48272" lon="-1.89889">
        <ele>43.47434</ele>
        <time>2022-12-15T14:48:19.619Z</time>
      </trkpt>
      <trkpt lat="47.48269" lon="-1.89873">
        <ele>43.507704</ele>
        <time>2022-12-15T14:48:22.630Z</time>
      </trkpt>
      <trkpt lat="47.48266" lon="-1.89854">
        <ele>43.543278</ele>
        <time>2022-12-15T14:48:25.634Z</time>
      </trkpt>
      <trkpt lat="47.48264" lon="-1.89835">
        <ele>43.580424</ele>
        <time>2022-12-15T14:48:28.618Z</time>
      </trkpt>
      <trkpt lat="47.48262" lon="-1.89816">
        <ele>43.618243</ele>
        <time>2022-12-15T14:48:31.630Z</time>
      </trkpt>
      <trkpt lat="47.4826" lon="-1.89802">
        <ele>43.643732</ele>
        <time>2022-12-15T14:48:33.634Z</time>
      </trkpt>
      <trkpt lat="47.48259" lon="-1.89789">
        <ele>43.66934</ele>
        <time>2022-12-15T14:48:35.635Z</time>
      </trkpt>
      <trkpt lat="47.48257" lon="-1.89775">
        <ele>43.696565</ele>
        <time>2022-12-15T14:48:37.632Z</time>
      </trkpt>
      <trkpt lat="47.48256" lon="-1.89762">
        <ele>43.783922</ele>
        <time>2022-12-15T14:48:39.634Z</time>
      </trkpt>
      <trkpt lat="47.48255" lon="-1.89743">
        <ele>43.973236</ele>
        <time>2022-12-15T14:48:42.619Z</time>
      </trkpt>
      <trkpt lat="47.48254" lon="-1.89723">
        <ele>44.16979</ele>
        <time>2022-12-15T14:48:45.630Z</time>
      </trkpt>
      <trkpt lat="47.48252" lon="-1.89703">
        <ele>44.37146</ele>
        <time>2022-12-15T14:48:48.623Z</time>
      </trkpt>
      <trkpt lat="47.48251" lon="-1.89689">
        <ele>44.506745</ele>
        <time>2022-12-15T14:48:50.640Z</time>
      </trkpt>
      <trkpt lat="47.48251" lon="-1.8967">
        <ele>44.702349</ele>
        <time>2022-12-15T14:48:53.621Z</time>
      </trkpt>
      <trkpt lat="47.48252" lon="-1.89656">
        <ele>44.841471</ele>
        <time>2022-12-15T14:48:55.627Z</time>
      </trkpt>
      <trkpt lat="47.48253" lon="-1.89642">
        <ele>44.977463</ele>
        <time>2022-12-15T14:48:57.633Z</time>
      </trkpt>
      <trkpt lat="47.48253" lon="-1.89627">
        <ele>45.127315</ele>
        <time>2022-12-15T14:48:59.640Z</time>
      </trkpt>
      <trkpt lat="47.48255" lon="-1.89614">
        <ele>45.260345</ele>
        <time>2022-12-15T14:49:01.639Z</time>
      </trkpt>
      <trkpt lat="47.48258" lon="-1.89596">
        <ele>45.449616</ele>
        <time>2022-12-15T14:49:04.617Z</time>
      </trkpt>
      <trkpt lat="47.48262" lon="-1.8958">
        <ele>45.619747</ele>
        <time>2022-12-15T14:49:07.631Z</time>
      </trkpt>
      <trkpt lat="47.48268" lon="-1.89562">
        <ele>45.820392</ele>
        <time>2022-12-15T14:49:10.637Z</time>
      </trkpt>
      <trkpt lat="47.48272" lon="-1.89542">
        <ele>46.022604</ele>
        <time>2022-12-15T14:49:13.632Z</time>
      </trkpt>
      <trkpt lat="47.48276" lon="-1.8953">
        <ele>46.16324</ele>
        <time>2022-12-15T14:49:15.626Z</time>
      </trkpt>
      <trkpt lat="47.4828" lon="-1.89517">
        <ele>46.301448</ele>
        <time>2022-12-15T14:49:17.641Z</time>
      </trkpt>
      <trkpt lat="47.48285" lon="-1.89503">
        <ele>46.43672</ele>
        <time>2022-12-15T14:49:19.638Z</time>
      </trkpt>
      <trkpt lat="47.48288" lon="-1.89491">
        <ele>46.551905</ele>
        <time>2022-12-15T14:49:21.631Z</time>
      </trkpt>
      <trkpt lat="47.48291" lon="-1.89478">
        <ele>46.66235</ele>
        <time>2022-12-15T14:49:23.642Z</time>
      </trkpt>
      <trkpt lat="47.48295" lon="-1.89464">
        <ele>46.784289</ele>
        <time>2022-12-15T14:49:25.625Z</time>
      </trkpt>
      <trkpt lat="47.48301" lon="-1.89446">
        <ele>46.948062</ele>
        <time>2022-12-15T14:49:28.634Z</time>
      </trkpt>
      <trkpt lat="47.48306" lon="-1.89434">
        <ele>47.064179</ele>
        <time>2022-12-15T14:49:30.640Z</time>
      </trkpt>
      <trkpt lat="47.4831" lon="-1.89421">
        <ele>47.187459</ele>
        <time>2022-12-15T14:49:32.629Z</time>
      </trkpt>
      <trkpt lat="47.48313" lon="-1.89407">
        <ele>47.305735</ele>
        <time>2022-12-15T14:49:34.624Z</time>
      </trkpt>
      <trkpt lat="47.48318" lon="-1.8939">
        <ele>47.460118</ele>
        <time>2022-12-15T14:49:37.630Z</time>
      </trkpt>
      <trkpt lat="47.48324" lon="-1.89372">
        <ele>47.621243</ele>
        <time>2022-12-15T14:49:40.636Z</time>
      </trkpt>
      <trkpt lat="47.48329" lon="-1.89355">
        <ele>47.775236</ele>
        <time>2022-12-15T14:49:43.633Z</time>
      </trkpt>
      <trkpt lat="47.48334" lon="-1.89337">
        <ele>47.934218</ele>
        <time>2022-12-15T14:49:46.634Z</time>
      </trkpt>
      <trkpt lat="47.48339" lon="-1.8932">
        <ele>48.087206</ele>
        <time>2022-12-15T14:49:49.642Z</time>
      </trkpt>
      <trkpt lat="47.48345" lon="-1.89303">
        <ele>48.246678</ele>
        <time>2022-12-15T14:49:52.628Z</time>
      </trkpt>
      <trkpt lat="47.48351" lon="-1.89285">
        <ele>48.409085</ele>
        <time>2022-12-15T14:49:55.641Z</time>
      </trkpt>
      <trkpt lat="47.48356" lon="-1.89268">
        <ele>48.559769</ele>
        <time>2022-12-15T14:49:58.625Z</time>
      </trkpt>
      <trkpt lat="47.48361" lon="-1.8925">
        <ele>48.664893</ele>
        <time>2022-12-15T14:50:01.623Z</time>
      </trkpt>
      <trkpt lat="47.48365" lon="-1.89238">
        <ele>48.736634</ele>
        <time>2022-12-15T14:50:03.621Z</time>
      </trkpt>
      <trkpt lat="47.4837" lon="-1.89223">
        <ele>48.826307</ele>
        <time>2022-12-15T14:50:06.639Z</time>
      </trkpt>
      <trkpt lat="47.48373" lon="-1.89207">
        <ele>48.912052</ele>
        <time>2022-12-15T14:50:09.639Z</time>
      </trkpt>
      <trkpt lat="47.48376" lon="-1.89191">
        <ele>48.999924</ele>
        <time>2022-12-15T14:50:12.640Z</time>
      </trkpt>
      <trkpt lat="47.48378" lon="-1.89174">
        <ele>49.092117</ele>
        <time>2022-12-15T14:50:15.636Z</time>
      </trkpt>
      <trkpt lat="47.48379" lon="-1.89156">
        <ele>49.186032</ele>
        <time>2022-12-15T14:50:18.643Z</time>
      </trkpt>
      <trkpt lat="47.48379" lon="-1.89138">
        <ele>49.285239</ele>
        <time>2022-12-15T14:50:21.636Z</time>
      </trkpt>
      <trkpt lat="47.48379" lon="-1.8912">
        <ele>49.379211</ele>
        <time>2022-12-15T14:50:24.642Z</time>
      </trkpt>
      <trkpt lat="47.48378" lon="-1.89105">
        <ele>49.459371</ele>
        <time>2022-12-15T14:50:27.623Z</time>
      </trkpt>
      <trkpt lat="47.48376" lon="-1.8909">
        <ele>49.537872</ele>
        <time>2022-12-15T14:50:30.625Z</time>
      </trkpt>
      <trkpt lat="47.48376" lon="-1.89075">
        <ele>49.62139</ele>
        <time>2022-12-15T14:50:33.625Z</time>
      </trkpt>
      <trkpt lat="47.48374" lon="-1.89058">
        <ele>49.710833</ele>
        <time>2022-12-15T14:50:36.623Z</time>
      </trkpt>
      <trkpt lat="47.48371" lon="-1.89042">
        <ele>49.799496</ele>
        <time>2022-12-15T14:50:39.634Z</time>
      </trkpt>
      <trkpt lat="47.48368" lon="-1.89026">
        <ele>49.886553</ele>
        <time>2022-12-15T14:50:42.634Z</time>
      </trkpt>
      <trkpt lat="47.48365" lon="-1.89011">
        <ele>49.967802</ele>
        <time>2022-12-15T14:50:45.638Z</time>
      </trkpt>
      <trkpt lat="47.48362" lon="-1.88997">
        <ele>50.057981</ele>
        <time>2022-12-15T14:50:48.619Z</time>
      </trkpt>
      <trkpt lat="47.48359" lon="-1.88982">
        <ele>50.146495</ele>
        <time>2022-12-15T14:50:51.630Z</time>
      </trkpt>
      <trkpt lat="47.48355" lon="-1.8897">
        <ele>50.228012</ele>
        <time>2022-12-15T14:50:54.637Z</time>
      </trkpt>
      <trkpt lat="47.48351" lon="-1.88957">
        <ele>50.314234</ele>
        <time>2022-12-15T14:50:57.617Z</time>
      </trkpt>
      <trkpt lat="47.48347" lon="-1.88944">
        <ele>50.397585</ele>
        <time>2022-12-15T14:51:00.636Z</time>
      </trkpt>
      <trkpt lat="47.48342" lon="-1.88928">
        <ele>50.501023</ele>
        <time>2022-12-15T14:51:04.620Z</time>
      </trkpt>
      <trkpt lat="47.48336" lon="-1.88915">
        <ele>50.591464</ele>
        <time>2022-12-15T14:51:08.633Z</time>
      </trkpt>
      <trkpt lat="47.48331" lon="-1.88901">
        <ele>50.689258</ele>
        <time>2022-12-15T14:51:12.624Z</time>
      </trkpt>
      <trkpt lat="47.48328" lon="-1.88888">
        <ele>50.76827</ele>
        <time>2022-12-15T14:51:16.624Z</time>
      </trkpt>
      <trkpt lat="47.48321" lon="-1.88859">
        <ele>50.949233</ele>
        <time>2022-12-15T14:56:24.620Z</time>
      </trkpt>
      <trkpt lat="47.48317" lon="-1.88844">
        <ele>51.045841</ele>
        <time>2022-12-15T14:56:28.643Z</time>
      </trkpt>
      <trkpt lat="47.48312" lon="-1.88831">
        <ele>51.132063</ele>
        <time>2022-12-15T14:56:31.647Z</time>
      </trkpt>
      <trkpt lat="47.48307" lon="-1.88819">
        <ele>51.2147</ele>
        <time>2022-12-15T14:56:34.638Z</time>
      </trkpt>
      <trkpt lat="47.48302" lon="-1.88807">
        <ele>51.298751</ele>
        <time>2022-12-15T14:56:37.625Z</time>
      </trkpt>
      <trkpt lat="47.48296" lon="-1.88794">
        <ele>51.390073</ele>
        <time>2022-12-15T14:56:40.640Z</time>
      </trkpt>
      <trkpt lat="47.48289" lon="-1.88782">
        <ele>51.482471</ele>
        <time>2022-12-15T14:56:43.628Z</time>
      </trkpt>
      <trkpt lat="47.4828" lon="-1.88771">
        <ele>51.562821</ele>
        <time>2022-12-15T14:56:46.638Z</time>
      </trkpt>
      <trkpt lat="47.48271" lon="-1.8876">
        <ele>51.625927</ele>
        <time>2022-12-15T14:56:49.620Z</time>
      </trkpt>
      <trkpt lat="47.4826" lon="-1.88749">
        <ele>51.691492</ele>
        <time>2022-12-15T14:56:52.637Z</time>
      </trkpt>
      <trkpt lat="47.48249" lon="-1.88738">
        <ele>51.758507</ele>
        <time>2022-12-15T14:56:55.639Z</time>
      </trkpt>
      <trkpt lat="47.48238" lon="-1.88726">
        <ele>51.826702</ele>
        <time>2022-12-15T14:56:58.641Z</time>
      </trkpt>
      <trkpt lat="47.48228" lon="-1.88715">
        <ele>51.893689</ele>
        <time>2022-12-15T14:57:01.640Z</time>
      </trkpt>
      <trkpt lat="47.4822" lon="-1.88707">
        <ele>51.941668</ele>
        <time>2022-12-15T14:57:03.618Z</time>
      </trkpt>
      <trkpt lat="47.48212" lon="-1.88698">
        <ele>51.990259</ele>
        <time>2022-12-15T14:57:05.625Z</time>
      </trkpt>
      <trkpt lat="47.48204" lon="-1.8869">
        <ele>52.038859</ele>
        <time>2022-12-15T14:57:07.642Z</time>
      </trkpt>
      <trkpt lat="47.48196" lon="-1.88683">
        <ele>52.087032</ele>
        <time>2022-12-15T14:57:09.643Z</time>
      </trkpt>
      <trkpt lat="47.48188" lon="-1.88674">
        <ele>52.139096</ele>
        <time>2022-12-15T14:57:11.635Z</time>
      </trkpt>
      <trkpt lat="47.48181" lon="-1.88665">
        <ele>52.18559</ele>
        <time>2022-12-15T14:57:13.643Z</time>
      </trkpt>
      <trkpt lat="47.48174" lon="-1.88656">
        <ele>52.234463</ele>
        <time>2022-12-15T14:57:15.626Z</time>
      </trkpt>
      <trkpt lat="47.48164" lon="-1.88643">
        <ele>52.298511</ele>
        <time>2022-12-15T14:57:18.643Z</time>
      </trkpt>
      <trkpt lat="47.48156" lon="-1.8863">
        <ele>52.359756</ele>
        <time>2022-12-15T14:57:21.638Z</time>
      </trkpt>
      <trkpt lat="47.48148" lon="-1.88616">
        <ele>52.426364</ele>
        <time>2022-12-15T14:57:24.624Z</time>
      </trkpt>
      <trkpt lat="47.4814" lon="-1.886">
        <ele>52.500041</ele>
        <time>2022-12-15T14:57:27.622Z</time>
      </trkpt>
      <trkpt lat="47.48132" lon="-1.88584">
        <ele>52.579189</ele>
        <time>2022-12-15T14:57:30.639Z</time>
      </trkpt>
      <trkpt lat="47.48127" lon="-1.88573">
        <ele>52.63399</ele>
        <time>2022-12-15T14:57:32.622Z</time>
      </trkpt>
      <trkpt lat="47.4812" lon="-1.88556">
        <ele>52.716268</ele>
        <time>2022-12-15T14:57:35.616Z</time>
      </trkpt>
      <trkpt lat="47.48115" lon="-1.88545">
        <ele>52.771406</ele>
        <time>2022-12-15T14:57:37.629Z</time>
      </trkpt>
      <trkpt lat="47.48107" lon="-1.88528">
        <ele>52.853942</ele>
        <time>2022-12-15T14:57:40.630Z</time>
      </trkpt>
      <trkpt lat="47.48102" lon="-1.88517">
        <ele>52.909413</ele>
        <time>2022-12-15T14:57:42.634Z</time>
      </trkpt>
      <trkpt lat="47.48094" lon="-1.88501">
        <ele>52.99287</ele>
        <time>2022-12-15T14:57:45.633Z</time>
      </trkpt>
      <trkpt lat="47.48086" lon="-1.88484">
        <ele>53.075061</ele>
        <time>2022-12-15T14:57:48.645Z</time>
      </trkpt>
      <trkpt lat="47.48078" lon="-1.88467">
        <ele>53.15827</ele>
        <time>2022-12-15T14:57:51.643Z</time>
      </trkpt>
      <trkpt lat="47.4807" lon="-1.88451">
        <ele>53.240935</ele>
        <time>2022-12-15T14:57:54.640Z</time>
      </trkpt>
      <trkpt lat="47.48065" lon="-1.8844">
        <ele>53.299111</ele>
        <time>2022-12-15T14:57:56.644Z</time>
      </trkpt>
      <trkpt lat="47.48057" lon="-1.88424">
        <ele>53.375236</ele>
        <time>2022-12-15T14:57:59.638Z</time>
      </trkpt>
      <trkpt lat="47.48049" lon="-1.88409">
        <ele>53.455915</ele>
        <time>2022-12-15T14:58:02.644Z</time>
      </trkpt>
      <trkpt lat="47.48044" lon="-1.88397">
        <ele>53.511414</ele>
        <time>2022-12-15T14:58:04.642Z</time>
      </trkpt>
      <trkpt lat="47.48039" lon="-1.88386">
        <ele>53.440797</ele>
        <time>2022-12-15T14:58:06.644Z</time>
      </trkpt>
      <trkpt lat="47.48033" lon="-1.88375">
        <ele>53.276166</ele>
        <time>2022-12-15T14:58:08.638Z</time>
      </trkpt>
      <trkpt lat="47.48028" lon="-1.88364">
        <ele>53.105817</ele>
        <time>2022-12-15T14:58:10.640Z</time>
      </trkpt>
      <trkpt lat="47.4802" lon="-1.88347">
        <ele>52.858784</ele>
        <time>2022-12-15T14:58:13.645Z</time>
      </trkpt>
      <trkpt lat="47.48015" lon="-1.88336">
        <ele>52.688435</ele>
        <time>2022-12-15T14:58:15.640Z</time>
      </trkpt>
      <trkpt lat="47.48009" lon="-1.88323">
        <ele>52.509953</ele>
        <time>2022-12-15T14:58:17.642Z</time>
      </trkpt>
      <trkpt lat="47.48004" lon="-1.88311">
        <ele>52.336543</ele>
        <time>2022-12-15T14:58:19.640Z</time>
      </trkpt>
      <trkpt lat="47.47998" lon="-1.88294">
        <ele>52.101616</ele>
        <time>2022-12-15T14:58:22.628Z</time>
      </trkpt>
      <trkpt lat="47.47993" lon="-1.88279">
        <ele>51.894367</ele>
        <time>2022-12-15T14:58:25.647Z</time>
      </trkpt>
      <trkpt lat="47.4799" lon="-1.88263">
        <ele>51.694022</ele>
        <time>2022-12-15T14:58:28.631Z</time>
      </trkpt>
      <trkpt lat="47.47991" lon="-1.88247">
        <ele>51.494915</ele>
        <time>2022-12-15T14:58:31.642Z</time>
      </trkpt>
      <trkpt lat="47.47993" lon="-1.88229">
        <ele>51.272356</ele>
        <time>2022-12-15T14:58:34.640Z</time>
      </trkpt>
      <trkpt lat="47.47989" lon="-1.88211">
        <ele>51.040645</ele>
        <time>2022-12-15T14:58:37.643Z</time>
      </trkpt>
      <trkpt lat="47.47985" lon="-1.88195">
        <ele>50.836018</ele>
        <time>2022-12-15T14:58:40.653Z</time>
      </trkpt>
      <trkpt lat="47.47983" lon="-1.88179">
        <ele>50.634156</ele>
        <time>2022-12-15T14:58:43.623Z</time>
      </trkpt>
      <trkpt lat="47.47981" lon="-1.88162">
        <ele>50.42582</ele>
        <time>2022-12-15T14:58:46.644Z</time>
      </trkpt>
      <trkpt lat="47.4798" lon="-1.88144">
        <ele>50.322809</ele>
        <time>2022-12-15T14:58:49.638Z</time>
      </trkpt>
      <trkpt lat="47.4798" lon="-1.88125">
        <ele>50.386837</ele>
        <time>2022-12-15T14:58:52.621Z</time>
      </trkpt>
      <trkpt lat="47.4798" lon="-1.88105">
        <ele>50.45211</ele>
        <time>2022-12-15T14:58:55.636Z</time>
      </trkpt>
      <trkpt lat="47.4798" lon="-1.88087">
        <ele>50.512669</ele>
        <time>2022-12-15T14:58:58.639Z</time>
      </trkpt>
      <trkpt lat="47.4798" lon="-1.88067">
        <ele>50.577915</ele>
        <time>2022-12-15T14:59:01.624Z</time>
      </trkpt>
      <trkpt lat="47.4798" lon="-1.88048">
        <ele>50.644178</ele>
        <time>2022-12-15T14:59:04.642Z</time>
      </trkpt>
      <trkpt lat="47.4798" lon="-1.88034">
        <ele>50.68935</ele>
        <time>2022-12-15T14:59:06.624Z</time>
      </trkpt>
      <trkpt lat="47.4798" lon="-1.88016">
        <ele>50.751255</ele>
        <time>2022-12-15T14:59:09.629Z</time>
      </trkpt>
      <trkpt lat="47.47979" lon="-1.88">
        <ele>50.805065</ele>
        <time>2022-12-15T14:59:12.642Z</time>
      </trkpt>
      <trkpt lat="47.47976" lon="-1.87986">
        <ele>50.853879</ele>
        <time>2022-12-15T14:59:15.637Z</time>
      </trkpt>
      <trkpt lat="47.4797" lon="-1.87974">
        <ele>50.904152</ele>
        <time>2022-12-15T14:59:18.654Z</time>
      </trkpt>
      <trkpt lat="47.47959" lon="-1.87965">
        <ele>50.963886</ele>
        <time>2022-12-15T14:59:21.644Z</time>
      </trkpt>
      <trkpt lat="47.47948" lon="-1.87957">
        <ele>51.026654</ele>
        <time>2022-12-15T14:59:24.650Z</time>
      </trkpt>
      <trkpt lat="47.47935" lon="-1.8795">
        <ele>51.093982</ele>
        <time>2022-12-15T14:59:27.628Z</time>
      </trkpt>
      <trkpt lat="47.47927" lon="-1.87944">
        <ele>51.140897</ele>
        <time>2022-12-15T14:59:29.637Z</time>
      </trkpt>
      <trkpt lat="47.47918" lon="-1.87937">
        <ele>51.19141</ele>
        <time>2022-12-15T14:59:31.621Z</time>
      </trkpt>
      <trkpt lat="47.4791" lon="-1.87928">
        <ele>51.359799</ele>
        <time>2022-12-15T14:59:33.636Z</time>
      </trkpt>
      <trkpt lat="47.47903" lon="-1.87919">
        <ele>51.523958</ele>
        <time>2022-12-15T14:59:35.643Z</time>
      </trkpt>
      <trkpt lat="47.47896" lon="-1.87904">
        <ele>51.744067</ele>
        <time>2022-12-15T14:59:38.635Z</time>
      </trkpt>
      <trkpt lat="47.47891" lon="-1.87889">
        <ele>51.936876</ele>
        <time>2022-12-15T14:59:41.634Z</time>
      </trkpt>
      <trkpt lat="47.47886" lon="-1.87874">
        <ele>52.139369</ele>
        <time>2022-12-15T14:59:44.636Z</time>
      </trkpt>
      <trkpt lat="47.47881" lon="-1.87857">
        <ele>52.35253</ele>
        <time>2022-12-15T14:59:47.638Z</time>
      </trkpt>
      <trkpt lat="47.47876" lon="-1.8784">
        <ele>52.567187</ele>
        <time>2022-12-15T14:59:50.639Z</time>
      </trkpt>
      <trkpt lat="47.4787" lon="-1.87823">
        <ele>52.785894</ele>
        <time>2022-12-15T14:59:53.637Z</time>
      </trkpt>
      <trkpt lat="47.47864" lon="-1.87807">
        <ele>53.009085</ele>
        <time>2022-12-15T14:59:56.640Z</time>
      </trkpt>
      <trkpt lat="47.47856" lon="-1.87792">
        <ele>53.227132</ele>
        <time>2022-12-15T14:59:59.642Z</time>
      </trkpt>
      <trkpt lat="47.47847" lon="-1.87779">
        <ele>53.45026</ele>
        <time>2022-12-15T15:00:02.636Z</time>
      </trkpt>
      <trkpt lat="47.47838" lon="-1.87766">
        <ele>53.680897</ele>
        <time>2022-12-15T15:00:05.636Z</time>
      </trkpt>
      <trkpt lat="47.47831" lon="-1.87757">
        <ele>53.839779</ele>
        <time>2022-12-15T15:00:07.638Z</time>
      </trkpt>
      <trkpt lat="47.47823" lon="-1.87749">
        <ele>53.998361</ele>
        <time>2022-12-15T15:00:09.639Z</time>
      </trkpt>
      <trkpt lat="47.47813" lon="-1.87736">
        <ele>54.232479</ele>
        <time>2022-12-15T15:00:12.639Z</time>
      </trkpt>
      <trkpt lat="47.47803" lon="-1.87725">
        <ele>54.266709</ele>
        <time>2022-12-15T15:00:15.642Z</time>
      </trkpt>
      <trkpt lat="47.47793" lon="-1.87713">
        <ele>54.188001</ele>
        <time>2022-12-15T15:00:18.630Z</time>
      </trkpt>
      <trkpt lat="47.47782" lon="-1.87701">
        <ele>54.111267</ele>
        <time>2022-12-15T15:00:21.639Z</time>
      </trkpt>
      <trkpt lat="47.47771" lon="-1.87693">
        <ele>54.037521</ele>
        <time>2022-12-15T15:00:24.638Z</time>
      </trkpt>
      <trkpt lat="47.47761" lon="-1.87686">
        <ele>53.967504</ele>
        <time>2022-12-15T15:00:27.624Z</time>
      </trkpt>
      <trkpt lat="47.47748" lon="-1.8768">
        <ele>53.891422</ele>
        <time>2022-12-15T15:00:30.628Z</time>
      </trkpt>
      <trkpt lat="47.47735" lon="-1.87677">
        <ele>53.812011</ele>
        <time>2022-12-15T15:00:33.643Z</time>
      </trkpt>
      <trkpt lat="47.47726" lon="-1.87675">
        <ele>53.755018</ele>
        <time>2022-12-15T15:00:35.640Z</time>
      </trkpt>
      <trkpt lat="47.47716" lon="-1.87676">
        <ele>53.698798</ele>
        <time>2022-12-15T15:00:37.641Z</time>
      </trkpt>
      <trkpt lat="47.47707" lon="-1.87677">
        <ele>53.642631</ele>
        <time>2022-12-15T15:00:39.640Z</time>
      </trkpt>
      <trkpt lat="47.47697" lon="-1.87678">
        <ele>53.585221</ele>
        <time>2022-12-15T15:00:41.637Z</time>
      </trkpt>
      <trkpt lat="47.47688" lon="-1.87678">
        <ele>53.52793</ele>
        <time>2022-12-15T15:00:43.627Z</time>
      </trkpt>
      <trkpt lat="47.47678" lon="-1.87678">
        <ele>53.47064</ele>
        <time>2022-12-15T15:00:45.645Z</time>
      </trkpt>
      <trkpt lat="47.47664" lon="-1.87678">
        <ele>53.388904</ele>
        <time>2022-12-15T15:00:48.644Z</time>
      </trkpt>
      <trkpt lat="47.47655" lon="-1.87679">
        <ele>53.33314</ele>
        <time>2022-12-15T15:00:50.641Z</time>
      </trkpt>
      <trkpt lat="47.47646" lon="-1.87679">
        <ele>53.277648</ele>
        <time>2022-12-15T15:00:52.635Z</time>
      </trkpt>
      <trkpt lat="47.47636" lon="-1.87678">
        <ele>53.233736</ele>
        <time>2022-12-15T15:00:54.639Z</time>
      </trkpt>
      <trkpt lat="47.47626" lon="-1.87678">
        <ele>53.216533</ele>
        <time>2022-12-15T15:00:56.622Z</time>
      </trkpt>
      <trkpt lat="47.47616" lon="-1.87676">
        <ele>53.198915</ele>
        <time>2022-12-15T15:00:58.640Z</time>
      </trkpt>
      <trkpt lat="47.47607" lon="-1.87673">
        <ele>53.182472</ele>
        <time>2022-12-15T15:01:00.620Z</time>
      </trkpt>
      <trkpt lat="47.47598" lon="-1.8767">
        <ele>53.166279</ele>
        <time>2022-12-15T15:01:02.625Z</time>
      </trkpt>
      <trkpt lat="47.47587" lon="-1.87663">
        <ele>53.145328</ele>
        <time>2022-12-15T15:01:05.640Z</time>
      </trkpt>
      <trkpt lat="47.47575" lon="-1.87658">
        <ele>53.124796</ele>
        <time>2022-12-15T15:01:08.643Z</time>
      </trkpt>
      <trkpt lat="47.47564" lon="-1.87652">
        <ele>53.104179</ele>
        <time>2022-12-15T15:01:11.630Z</time>
      </trkpt>
      <trkpt lat="47.47555" lon="-1.87647">
        <ele>53.087173</ele>
        <time>2022-12-15T15:01:13.632Z</time>
      </trkpt>
      <trkpt lat="47.47546" lon="-1.87643">
        <ele>53.070296</ele>
        <time>2022-12-15T15:01:15.633Z</time>
      </trkpt>
      <trkpt lat="47.47534" lon="-1.87633">
        <ele>53.04693</ele>
        <time>2022-12-15T15:01:18.656Z</time>
      </trkpt>
      <trkpt lat="47.47527" lon="-1.87625">
        <ele>53.030328</ele>
        <time>2022-12-15T15:01:20.629Z</time>
      </trkpt>
      <trkpt lat="47.47521" lon="-1.87615">
        <ele>53.014112</ele>
        <time>2022-12-15T15:01:22.631Z</time>
      </trkpt>
      <trkpt lat="47.47515" lon="-1.87603">
        <ele>52.997109</ele>
        <time>2022-12-15T15:01:24.643Z</time>
      </trkpt>
      <trkpt lat="47.47511" lon="-1.8759">
        <ele>52.979888</ele>
        <time>2022-12-15T15:01:26.641Z</time>
      </trkpt>
      <trkpt lat="47.47508" lon="-1.87576">
        <ele>52.96291</ele>
        <time>2022-12-15T15:01:28.640Z</time>
      </trkpt>
      <trkpt lat="47.47505" lon="-1.87563">
        <ele>52.946777</ele>
        <time>2022-12-15T15:01:30.639Z</time>
      </trkpt>
      <trkpt lat="47.47501" lon="-1.87544">
        <ele>52.923593</ele>
        <time>2022-12-15T15:01:33.639Z</time>
      </trkpt>
      <trkpt lat="47.47498" lon="-1.87529">
        <ele>52.907136</ele>
        <time>2022-12-15T15:01:36.641Z</time>
      </trkpt>
      <trkpt lat="47.47494" lon="-1.87514">
        <ele>52.890269</ele>
        <time>2022-12-15T15:01:39.640Z</time>
      </trkpt>
      <trkpt lat="47.47486" lon="-1.87501">
        <ele>52.872305</ele>
        <time>2022-12-15T15:01:42.635Z</time>
      </trkpt>
      <trkpt lat="47.47477" lon="-1.87488">
        <ele>52.852702</ele>
        <time>2022-12-15T15:01:45.630Z</time>
      </trkpt>
      <trkpt lat="47.47466" lon="-1.87477">
        <ele>52.832734</ele>
        <time>2022-12-15T15:01:48.630Z</time>
      </trkpt>
      <trkpt lat="47.47458" lon="-1.8747">
        <ele>52.818041</ele>
        <time>2022-12-15T15:01:51.642Z</time>
      </trkpt>
      <trkpt lat="47.47452" lon="-1.8746">
        <ele>52.80348</ele>
        <time>2022-12-15T15:02:00.623Z</time>
      </trkpt>
      <trkpt lat="47.47448" lon="-1.87447">
        <ele>52.788824</ele>
        <time>2022-12-15T15:02:11.627Z</time>
      </trkpt>
      <trkpt lat="47.47442" lon="-1.87436">
        <ele>52.774488</ele>
        <time>2022-12-15T15:02:23.620Z</time>
      </trkpt>
      <trkpt lat="47.47437" lon="-1.87424">
        <ele>52.760094</ele>
        <time>2022-12-15T15:02:39.626Z</time>
      </trkpt>
      <trkpt lat="47.47433" lon="-1.87409">
        <ele>52.742667</ele>
        <time>2022-12-15T15:02:46.632Z</time>
      </trkpt>
      <trkpt lat="47.47426" lon="-1.87395">
        <ele>52.724983</ele>
        <time>2022-12-15T15:02:50.634Z</time>
      </trkpt>
      <trkpt lat="47.4742" lon="-1.87385">
        <ele>52.710531</ele>
        <time>2022-12-15T15:02:53.645Z</time>
      </trkpt>
      <trkpt lat="47.47411" lon="-1.87375">
        <ele>52.693839</ele>
        <time>2022-12-15T15:02:56.638Z</time>
      </trkpt>
      <trkpt lat="47.47401" lon="-1.87365">
        <ele>52.675024</ele>
        <time>2022-12-15T15:02:59.616Z</time>
      </trkpt>
      <trkpt lat="47.4739" lon="-1.87357">
        <ele>52.655671</ele>
        <time>2022-12-15T15:03:02.639Z</time>
      </trkpt>
      <trkpt lat="47.47377" lon="-1.87352">
        <ele>52.821747</ele>
        <time>2022-12-15T15:03:05.635Z</time>
      </trkpt>
      <trkpt lat="47.47368" lon="-1.8735">
        <ele>53.000733</ele>
        <time>2022-12-15T15:03:07.653Z</time>
      </trkpt>
      <trkpt lat="47.47359" lon="-1.87348">
        <ele>53.178246</ele>
        <time>2022-12-15T15:03:09.641Z</time>
      </trkpt>
      <trkpt lat="47.47346" lon="-1.87346">
        <ele>53.432541</ele>
        <time>2022-12-15T15:03:12.615Z</time>
      </trkpt>
      <trkpt lat="47.47333" lon="-1.87344">
        <ele>53.683619</ele>
        <time>2022-12-15T15:03:15.642Z</time>
      </trkpt>
      <trkpt lat="47.47323" lon="-1.87341">
        <ele>53.872699</ele>
        <time>2022-12-15T15:03:17.638Z</time>
      </trkpt>
      <trkpt lat="47.47311" lon="-1.87338">
        <ele>54.126216</ele>
        <time>2022-12-15T15:03:20.623Z</time>
      </trkpt>
      <trkpt lat="47.47301" lon="-1.87336">
        <ele>54.308811</ele>
        <time>2022-12-15T15:03:22.625Z</time>
      </trkpt>
      <trkpt lat="47.47293" lon="-1.87334">
        <ele>54.483894</ele>
        <time>2022-12-15T15:03:24.641Z</time>
      </trkpt>
      <trkpt lat="47.47281" lon="-1.87331">
        <ele>54.706853</ele>
        <time>2022-12-15T15:03:27.629Z</time>
      </trkpt>
      <trkpt lat="47.47269" lon="-1.87329">
        <ele>54.94066</ele>
        <time>2022-12-15T15:03:30.640Z</time>
      </trkpt>
      <trkpt lat="47.47257" lon="-1.87326">
        <ele>55.188173</ele>
        <time>2022-12-15T15:03:33.637Z</time>
      </trkpt>
      <trkpt lat="47.47244" lon="-1.87323">
        <ele>55.448119</ele>
        <time>2022-12-15T15:03:36.642Z</time>
      </trkpt>
      <trkpt lat="47.47231" lon="-1.8732">
        <ele>55.697566</ele>
        <time>2022-12-15T15:03:39.636Z</time>
      </trkpt>
      <trkpt lat="47.47222" lon="-1.87318">
        <ele>55.874883</ele>
        <time>2022-12-15T15:03:41.621Z</time>
      </trkpt>
      <trkpt lat="47.47212" lon="-1.87314">
        <ele>56.086338</ele>
        <time>2022-12-15T15:03:44.642Z</time>
      </trkpt>
      <trkpt lat="47.47199" lon="-1.87311">
        <ele>56.144915</ele>
        <time>2022-12-15T15:03:47.641Z</time>
      </trkpt>
      <trkpt lat="47.47187" lon="-1.87308">
        <ele>56.115997</ele>
        <time>2022-12-15T15:03:50.636Z</time>
      </trkpt>
      <trkpt lat="47.47178" lon="-1.87306">
        <ele>56.0954</ele>
        <time>2022-12-15T15:03:52.627Z</time>
      </trkpt>
      <trkpt lat="47.47168" lon="-1.87303">
        <ele>56.072722</ele>
        <time>2022-12-15T15:03:54.643Z</time>
      </trkpt>
      <trkpt lat="47.47158" lon="-1.873">
        <ele>56.049339</ele>
        <time>2022-12-15T15:03:56.637Z</time>
      </trkpt>
      <trkpt lat="47.47149" lon="-1.87297">
        <ele>56.02669</ele>
        <time>2022-12-15T15:03:58.655Z</time>
      </trkpt>
      <trkpt lat="47.47139" lon="-1.87294">
        <ele>56.003834</ele>
        <time>2022-12-15T15:04:00.639Z</time>
      </trkpt>
      <trkpt lat="47.47128" lon="-1.87291">
        <ele>55.979197</ele>
        <time>2022-12-15T15:04:02.642Z</time>
      </trkpt>
      <trkpt lat="47.47119" lon="-1.87287">
        <ele>55.956746</ele>
        <time>2022-12-15T15:04:04.637Z</time>
      </trkpt>
      <trkpt lat="47.47106" lon="-1.87283">
        <ele>55.927549</ele>
        <time>2022-12-15T15:04:07.641Z</time>
      </trkpt>
      <trkpt lat="47.47096" lon="-1.87279">
        <ele>55.902435</ele>
        <time>2022-12-15T15:04:10.643Z</time>
      </trkpt>
      <trkpt lat="47.47085" lon="-1.87276">
        <ele>55.876871</ele>
        <time>2022-12-15T15:04:13.635Z</time>
      </trkpt>
      <trkpt lat="47.47073" lon="-1.87272">
        <ele>55.848681</ele>
        <time>2022-12-15T15:04:16.628Z</time>
      </trkpt>
      <trkpt lat="47.47061" lon="-1.87268">
        <ele>55.820791</ele>
        <time>2022-12-15T15:04:19.630Z</time>
      </trkpt>
      <trkpt lat="47.47052" lon="-1.87264">
        <ele>55.799191</ele>
        <time>2022-12-15T15:04:21.624Z</time>
      </trkpt>
      <trkpt lat="47.47039" lon="-1.8726">
        <ele>55.768677</ele>
        <time>2022-12-15T15:04:24.638Z</time>
      </trkpt>
      <trkpt lat="47.47029" lon="-1.87257">
        <ele>55.745565</ele>
        <time>2022-12-15T15:04:26.642Z</time>
      </trkpt>
      <trkpt lat="47.47016" lon="-1.87253">
        <ele>55.707378</ele>
        <time>2022-12-15T15:04:29.644Z</time>
      </trkpt>
      <trkpt lat="47.47003" lon="-1.87249">
        <ele>55.668622</ele>
        <time>2022-12-15T15:04:32.641Z</time>
      </trkpt>
      <trkpt lat="47.46991" lon="-1.87245">
        <ele>55.631401</ele>
        <time>2022-12-15T15:04:35.619Z</time>
      </trkpt>
      <trkpt lat="47.4698" lon="-1.8724">
        <ele>55.598334</ele>
        <time>2022-12-15T15:04:38.637Z</time>
      </trkpt>
      <trkpt lat="47.46969" lon="-1.87235">
        <ele>55.566027</ele>
        <time>2022-12-15T15:04:41.637Z</time>
      </trkpt>
      <trkpt lat="47.46958" lon="-1.87228">
        <ele>55.532086</ele>
        <time>2022-12-15T15:04:44.643Z</time>
      </trkpt>
      <trkpt lat="47.46947" lon="-1.87221">
        <ele>55.498308</ele>
        <time>2022-12-15T15:04:47.642Z</time>
      </trkpt>
      <trkpt lat="47.46937" lon="-1.87213">
        <ele>55.463759</ele>
        <time>2022-12-15T15:04:50.636Z</time>
      </trkpt>
      <trkpt lat="47.46926" lon="-1.87204">
        <ele>55.429828</ele>
        <time>2022-12-15T15:04:53.639Z</time>
      </trkpt>
      <trkpt lat="47.46917" lon="-1.87198">
        <ele>55.398717</ele>
        <time>2022-12-15T15:04:56.619Z</time>
      </trkpt>
      <trkpt lat="47.46907" lon="-1.87191">
        <ele>55.369158</ele>
        <time>2022-12-15T15:04:59.621Z</time>
      </trkpt>
      <trkpt lat="47.46899" lon="-1.87184">
        <ele>55.34272</ele>
        <time>2022-12-15T15:05:02.643Z</time>
      </trkpt>
      <trkpt lat="47.46889" lon="-1.87176">
        <ele>55.308479</ele>
        <time>2022-12-15T15:05:06.645Z</time>
      </trkpt>
      <trkpt lat="47.4688" lon="-1.8717">
        <ele>55.279525</ele>
        <time>2022-12-15T15:05:10.646Z</time>
      </trkpt>
      <trkpt lat="47.4687" lon="-1.87163">
        <ele>55.247596</ele>
        <time>2022-12-15T15:05:15.639Z</time>
      </trkpt>
      <trkpt lat="47.4686" lon="-1.87158">
        <ele>55.204795</ele>
        <time>2022-12-15T15:05:19.627Z</time>
      </trkpt>
      <trkpt lat="47.46847" lon="-1.87151">
        <ele>55.140817</ele>
        <time>2022-12-15T15:05:22.633Z</time>
      </trkpt>
      <trkpt lat="47.46837" lon="-1.87145">
        <ele>55.093888</ele>
        <time>2022-12-15T15:05:24.643Z</time>
      </trkpt>
      <trkpt lat="47.46827" lon="-1.8714">
        <ele>55.043216</ele>
        <time>2022-12-15T15:05:26.646Z</time>
      </trkpt>
      <trkpt lat="47.46817" lon="-1.87134">
        <ele>54.989911</ele>
        <time>2022-12-15T15:05:28.646Z</time>
      </trkpt>
      <trkpt lat="47.46806" lon="-1.87131">
        <ele>54.938478</ele>
        <time>2022-12-15T15:05:30.643Z</time>
      </trkpt>
      <trkpt lat="47.46796" lon="-1.87126">
        <ele>54.891216</ele>
        <time>2022-12-15T15:05:32.638Z</time>
      </trkpt>
      <trkpt lat="47.46787" lon="-1.8712">
        <ele>54.844824</ele>
        <time>2022-12-15T15:05:34.632Z</time>
      </trkpt>
      <trkpt lat="47.46778" lon="-1.87115">
        <ele>54.799669</ele>
        <time>2022-12-15T15:05:36.622Z</time>
      </trkpt>
      <trkpt lat="47.46768" lon="-1.87105">
        <ele>54.741247</ele>
        <time>2022-12-15T15:05:39.643Z</time>
      </trkpt>
      <trkpt lat="47.46757" lon="-1.87097">
        <ele>54.683934</ele>
        <time>2022-12-15T15:05:42.642Z</time>
      </trkpt>
      <trkpt lat="47.46745" lon="-1.8709">
        <ele>54.625454</ele>
        <time>2022-12-15T15:05:45.643Z</time>
      </trkpt>
      <trkpt lat="47.46737" lon="-1.87084">
        <ele>54.581354</ele>
        <time>2022-12-15T15:05:47.641Z</time>
      </trkpt>
      <trkpt lat="47.46729" lon="-1.87078">
        <ele>54.539174</ele>
        <time>2022-12-15T15:05:49.639Z</time>
      </trkpt>
      <trkpt lat="47.4672" lon="-1.87073">
        <ele>54.49464</ele>
        <time>2022-12-15T15:05:51.621Z</time>
      </trkpt>
      <trkpt lat="47.46711" lon="-1.87068">
        <ele>54.450598</ele>
        <time>2022-12-15T15:05:53.636Z</time>
      </trkpt>
      <trkpt lat="47.46702" lon="-1.87062">
        <ele>54.405739</ele>
        <time>2022-12-15T15:05:55.634Z</time>
      </trkpt>
      <trkpt lat="47.46694" lon="-1.87056">
        <ele>54.342838</ele>
        <time>2022-12-15T15:05:57.635Z</time>
      </trkpt>
      <trkpt lat="47.46685" lon="-1.8705">
        <ele>54.271734</ele>
        <time>2022-12-15T15:05:59.637Z</time>
      </trkpt>
      <trkpt lat="47.46675" lon="-1.87044">
        <ele>54.196382</ele>
        <time>2022-12-15T15:06:01.643Z</time>
      </trkpt>
      <trkpt lat="47.46666" lon="-1.87038">
        <ele>54.121103</ele>
        <time>2022-12-15T15:06:03.638Z</time>
      </trkpt>
      <trkpt lat="47.46656" lon="-1.87032">
        <ele>54.042091</ele>
        <time>2022-12-15T15:06:05.640Z</time>
      </trkpt>
      <trkpt lat="47.46646" lon="-1.87025">
        <ele>53.963997</ele>
        <time>2022-12-15T15:06:07.640Z</time>
      </trkpt>
      <trkpt lat="47.46637" lon="-1.87018">
        <ele>53.887426</ele>
        <time>2022-12-15T15:06:09.642Z</time>
      </trkpt>
      <trkpt lat="47.46628" lon="-1.87011">
        <ele>53.816056</ele>
        <time>2022-12-15T15:06:11.642Z</time>
      </trkpt>
      <trkpt lat="47.4662" lon="-1.87004">
        <ele>53.746027</ele>
        <time>2022-12-15T15:06:13.639Z</time>
      </trkpt>
      <trkpt lat="47.46612" lon="-1.86996">
        <ele>53.679459</ele>
        <time>2022-12-15T15:06:15.641Z</time>
      </trkpt>
      <trkpt lat="47.46605" lon="-1.86986">
        <ele>53.607214</ele>
        <time>2022-12-15T15:06:17.626Z</time>
      </trkpt>
      <trkpt lat="47.46599" lon="-1.86975">
        <ele>53.536017</ele>
        <time>2022-12-15T15:06:19.620Z</time>
      </trkpt>
      <trkpt lat="47.46593" lon="-1.86962">
        <ele>53.461151</ele>
        <time>2022-12-15T15:06:21.628Z</time>
      </trkpt>
      <trkpt lat="47.46589" lon="-1.86949">
        <ele>53.388892</ele>
        <time>2022-12-15T15:06:23.623Z</time>
      </trkpt>
      <trkpt lat="47.46586" lon="-1.86935">
        <ele>53.314583</ele>
        <time>2022-12-15T15:06:25.640Z</time>
      </trkpt>
      <trkpt lat="47.46584" lon="-1.86921">
        <ele>53.24359</ele>
        <time>2022-12-15T15:06:27.631Z</time>
      </trkpt>
      <trkpt lat="47.46584" lon="-1.86905">
        <ele>53.166658</ele>
        <time>2022-12-15T15:06:29.626Z</time>
      </trkpt>
      <trkpt lat="47.46584" lon="-1.86889">
        <ele>53.089231</ele>
        <time>2022-12-15T15:06:31.633Z</time>
      </trkpt>
      <trkpt lat="47.46586" lon="-1.86874">
        <ele>53.10699</ele>
        <time>2022-12-15T15:06:33.623Z</time>
      </trkpt>
      <trkpt lat="47.46586" lon="-1.86861">
        <ele>53.134858</ele>
        <time>2022-12-15T15:06:35.643Z</time>
      </trkpt>
      <trkpt lat="47.46587" lon="-1.86843">
        <ele>53.172124</ele>
        <time>2022-12-15T15:06:38.644Z</time>
      </trkpt>
      <trkpt lat="47.4659" lon="-1.86824">
        <ele>53.210438</ele>
        <time>2022-12-15T15:06:41.634Z</time>
      </trkpt>
      <trkpt lat="47.46593" lon="-1.86806">
        <ele>53.249326</ele>
        <time>2022-12-15T15:06:44.640Z</time>
      </trkpt>
      <trkpt lat="47.46595" lon="-1.86793">
        <ele>53.276917</ele>
        <time>2022-12-15T15:06:46.634Z</time>
      </trkpt>
      <trkpt lat="47.46598" lon="-1.8678">
        <ele>53.305744</ele>
        <time>2022-12-15T15:06:48.638Z</time>
      </trkpt>
      <trkpt lat="47.466" lon="-1.86766">
        <ele>53.334743</ele>
        <time>2022-12-15T15:06:50.643Z</time>
      </trkpt>
      <trkpt lat="47.46605" lon="-1.86754">
        <ele>53.362325</ele>
        <time>2022-12-15T15:06:52.642Z</time>
      </trkpt>
      <trkpt lat="47.46611" lon="-1.8674">
        <ele>53.395833</ele>
        <time>2022-12-15T15:06:55.624Z</time>
      </trkpt>
      <trkpt lat="47.46617" lon="-1.86727">
        <ele>53.428255</ele>
        <time>2022-12-15T15:06:58.630Z</time>
      </trkpt>
      <trkpt lat="47.46623" lon="-1.86713">
        <ele>53.463229</ele>
        <time>2022-12-15T15:07:01.632Z</time>
      </trkpt>
      <trkpt lat="47.46629" lon="-1.86696">
        <ele>53.502385</ele>
        <time>2022-12-15T15:07:04.638Z</time>
      </trkpt>
      <trkpt lat="47.46633" lon="-1.86684">
        <ele>53.529611</ele>
        <time>2022-12-15T15:07:06.641Z</time>
      </trkpt>
      <trkpt lat="47.4664" lon="-1.86668">
        <ele>53.569165</ele>
        <time>2022-12-15T15:07:09.638Z</time>
      </trkpt>
      <trkpt lat="47.46646" lon="-1.86652">
        <ele>53.607412</ele>
        <time>2022-12-15T15:07:12.641Z</time>
      </trkpt>
      <trkpt lat="47.46651" lon="-1.86637">
        <ele>53.660645</ele>
        <time>2022-12-15T15:07:14.641Z</time>
      </trkpt>
      <trkpt lat="47.46655" lon="-1.86624">
        <ele>53.731621</ele>
        <time>2022-12-15T15:07:16.636Z</time>
      </trkpt>
      <trkpt lat="47.46659" lon="-1.8661">
        <ele>53.801926</ele>
        <time>2022-12-15T15:07:18.632Z</time>
      </trkpt>
      <trkpt lat="47.46662" lon="-1.86595">
        <ele>53.876585</ele>
        <time>2022-12-15T15:07:20.627Z</time>
      </trkpt>
      <trkpt lat="47.46666" lon="-1.86581">
        <ele>53.947125</ele>
        <time>2022-12-15T15:07:22.643Z</time>
      </trkpt>
      <trkpt lat="47.46669" lon="-1.86568">
        <ele>54.012461</ele>
        <time>2022-12-15T15:07:24.639Z</time>
      </trkpt>
      <trkpt lat="47.46677" lon="-1.86553">
        <ele>54.102711</ele>
        <time>2022-12-15T15:07:27.629Z</time>
      </trkpt>
      <trkpt lat="47.46684" lon="-1.8654">
        <ele>54.184192</ele>
        <time>2022-12-15T15:07:30.643Z</time>
      </trkpt>
      <trkpt lat="47.46691" lon="-1.86525">
        <ele>54.266936</ele>
        <time>2022-12-15T15:07:33.639Z</time>
      </trkpt>
      <trkpt lat="47.46696" lon="-1.86509">
        <ele>54.352501</ele>
        <time>2022-12-15T15:07:36.628Z</time>
      </trkpt>
      <trkpt lat="47.46698" lon="-1.86492">
        <ele>54.433705</ele>
        <time>2022-12-15T15:07:39.642Z</time>
      </trkpt>
      <trkpt lat="47.46701" lon="-1.86474">
        <ele>54.521639</ele>
        <time>2022-12-15T15:07:42.643Z</time>
      </trkpt>
      <trkpt lat="47.46702" lon="-1.86455">
        <ele>54.612146</ele>
        <time>2022-12-15T15:07:45.644Z</time>
      </trkpt>
      <trkpt lat="47.46703" lon="-1.86441">
        <ele>54.680208</ele>
        <time>2022-12-15T15:07:47.638Z</time>
      </trkpt>
      <trkpt lat="47.46705" lon="-1.86427">
        <ele>54.748458</ele>
        <time>2022-12-15T15:07:49.645Z</time>
      </trkpt>
      <trkpt lat="47.46705" lon="-1.86413">
        <ele>54.81238</ele>
        <time>2022-12-15T15:07:51.647Z</time>
      </trkpt>
      <trkpt lat="47.46706" lon="-1.864">
        <ele>54.877917</ele>
        <time>2022-12-15T15:07:53.642Z</time>
      </trkpt>
      <trkpt lat="47.46708" lon="-1.86386">
        <ele>54.835835</ele>
        <time>2022-12-15T15:07:55.642Z</time>
      </trkpt>
      <trkpt lat="47.46708" lon="-1.86371">
        <ele>54.758368</ele>
        <time>2022-12-15T15:07:57.624Z</time>
      </trkpt>
      <trkpt lat="47.46707" lon="-1.86357">
        <ele>54.689789</ele>
        <time>2022-12-15T15:07:59.645Z</time>
      </trkpt>
      <trkpt lat="47.46703" lon="-1.86343">
        <ele>54.617642</ele>
        <time>2022-12-15T15:08:01.645Z</time>
      </trkpt>
      <trkpt lat="47.46699" lon="-1.86331">
        <ele>54.549583</ele>
        <time>2022-12-15T15:08:03.641Z</time>
      </trkpt>
      <trkpt lat="47.46693" lon="-1.8632">
        <ele>54.47914</ele>
        <time>2022-12-15T15:08:05.642Z</time>
      </trkpt>
      <trkpt lat="47.46686" lon="-1.86304">
        <ele>54.383301</ele>
        <time>2022-12-15T15:08:08.632Z</time>
      </trkpt>
      <trkpt lat="47.46679" lon="-1.86289">
        <ele>54.29484</ele>
        <time>2022-12-15T15:08:11.640Z</time>
      </trkpt>
      <trkpt lat="47.46672" lon="-1.86274">
        <ele>54.202607</ele>
        <time>2022-12-15T15:08:14.641Z</time>
      </trkpt>
      <trkpt lat="47.46664" lon="-1.86259">
        <ele>54.107807</ele>
        <time>2022-12-15T15:08:17.633Z</time>
      </trkpt>
      <trkpt lat="47.46658" lon="-1.86248">
        <ele>54.038994</ele>
        <time>2022-12-15T15:08:19.643Z</time>
      </trkpt>
      <trkpt lat="47.46652" lon="-1.86237">
        <ele>53.968818</ele>
        <time>2022-12-15T15:08:21.627Z</time>
      </trkpt>
      <trkpt lat="47.46646" lon="-1.86227">
        <ele>53.899703</ele>
        <time>2022-12-15T15:08:23.640Z</time>
      </trkpt>
      <trkpt lat="47.46639" lon="-1.86217">
        <ele>53.830315</ele>
        <time>2022-12-15T15:08:25.643Z</time>
      </trkpt>
      <trkpt lat="47.46632" lon="-1.86207">
        <ele>53.757242</ele>
        <time>2022-12-15T15:08:27.637Z</time>
      </trkpt>
      <trkpt lat="47.46625" lon="-1.86196">
        <ele>53.685192</ele>
        <time>2022-12-15T15:08:29.640Z</time>
      </trkpt>
      <trkpt lat="47.46619" lon="-1.86185">
        <ele>53.613703</ele>
        <time>2022-12-15T15:08:31.640Z</time>
      </trkpt>
      <trkpt lat="47.46612" lon="-1.86175">
        <ele>53.573897</ele>
        <time>2022-12-15T15:08:33.643Z</time>
      </trkpt>
      <trkpt lat="47.46606" lon="-1.86164">
        <ele>53.585388</ele>
        <time>2022-12-15T15:08:35.640Z</time>
      </trkpt>
      <trkpt lat="47.466" lon="-1.86153">
        <ele>53.596879</ele>
        <time>2022-12-15T15:08:37.649Z</time>
      </trkpt>
      <trkpt lat="47.46595" lon="-1.8614">
        <ele>53.608695</ele>
        <time>2022-12-15T15:08:39.641Z</time>
      </trkpt>
      <trkpt lat="47.46592" lon="-1.86128">
        <ele>53.61957</ele>
        <time>2022-12-15T15:08:41.641Z</time>
      </trkpt>
      <trkpt lat="47.46588" lon="-1.86115">
        <ele>53.630515</ele>
        <time>2022-12-15T15:08:43.638Z</time>
      </trkpt>
      <trkpt lat="47.46583" lon="-1.86099">
        <ele>53.644903</ele>
        <time>2022-12-15T15:08:46.625Z</time>
      </trkpt>
      <trkpt lat="47.46579" lon="-1.86081">
        <ele>53.660394</ele>
        <time>2022-12-15T15:08:49.637Z</time>
      </trkpt>
      <trkpt lat="47.46575" lon="-1.86062">
        <ele>53.676227</ele>
        <time>2022-12-15T15:08:52.641Z</time>
      </trkpt>
      <trkpt lat="47.4657" lon="-1.86044">
        <ele>53.692264</ele>
        <time>2022-12-15T15:08:55.645Z</time>
      </trkpt>
      <trkpt lat="47.46567" lon="-1.86031">
        <ele>53.703124</ele>
        <time>2022-12-15T15:08:57.630Z</time>
      </trkpt>
      <trkpt lat="47.46563" lon="-1.86018">
        <ele>53.714556</ele>
        <time>2022-12-15T15:08:59.645Z</time>
      </trkpt>
      <trkpt lat="47.4656" lon="-1.86005">
        <ele>53.725597</ele>
        <time>2022-12-15T15:09:01.639Z</time>
      </trkpt>
      <trkpt lat="47.46557" lon="-1.85992">
        <ele>53.73687</ele>
        <time>2022-12-15T15:09:03.641Z</time>
      </trkpt>
      <trkpt lat="47.46554" lon="-1.85979">
        <ele>53.74826</ele>
        <time>2022-12-15T15:09:05.643Z</time>
      </trkpt>
      <trkpt lat="47.4655" lon="-1.85966">
        <ele>53.759705</ele>
        <time>2022-12-15T15:09:07.640Z</time>
      </trkpt>
      <trkpt lat="47.46547" lon="-1.85953">
        <ele>53.771137</ele>
        <time>2022-12-15T15:09:09.634Z</time>
      </trkpt>
      <trkpt lat="47.46544" lon="-1.85939">
        <ele>53.782608</ele>
        <time>2022-12-15T15:09:11.631Z</time>
      </trkpt>
      <trkpt lat="47.46542" lon="-1.85925">
        <ele>53.889108</ele>
        <time>2022-12-15T15:09:13.620Z</time>
      </trkpt>
      <trkpt lat="47.4654" lon="-1.85912">
        <ele>54.012685</ele>
        <time>2022-12-15T15:09:15.645Z</time>
      </trkpt>
      <trkpt lat="47.46538" lon="-1.85899">
        <ele>54.137445</ele>
        <time>2022-12-15T15:09:17.644Z</time>
      </trkpt>
      <trkpt lat="47.46537" lon="-1.85885">
        <ele>54.265896</ele>
        <time>2022-12-15T15:09:19.636Z</time>
      </trkpt>
      <trkpt lat="47.46536" lon="-1.85871">
        <ele>54.389072</ele>
        <time>2022-12-15T15:09:21.640Z</time>
      </trkpt>
      <trkpt lat="47.46536" lon="-1.85857">
        <ele>54.518635</ele>
        <time>2022-12-15T15:09:23.637Z</time>
      </trkpt>
      <trkpt lat="47.46535" lon="-1.85843">
        <ele>54.645942</ele>
        <time>2022-12-15T15:09:25.640Z</time>
      </trkpt>
      <trkpt lat="47.46535" lon="-1.85829">
        <ele>54.774142</ele>
        <time>2022-12-15T15:09:27.637Z</time>
      </trkpt>
      <trkpt lat="47.46536" lon="-1.85815">
        <ele>54.903507</ele>
        <time>2022-12-15T15:09:29.645Z</time>
      </trkpt>
      <trkpt lat="47.46538" lon="-1.858">
        <ele>55.04458</ele>
        <time>2022-12-15T15:09:31.634Z</time>
      </trkpt>
      <trkpt lat="47.46539" lon="-1.85781">
        <ele>55.218535</ele>
        <time>2022-12-15T15:09:34.638Z</time>
      </trkpt>
      <trkpt lat="47.46541" lon="-1.85766">
        <ele>55.359696</ele>
        <time>2022-12-15T15:09:37.638Z</time>
      </trkpt>
      <trkpt lat="47.46544" lon="-1.85749">
        <ele>55.517244</ele>
        <time>2022-12-15T15:09:40.647Z</time>
      </trkpt>
      <trkpt lat="47.46547" lon="-1.85732">
        <ele>55.683782</ele>
        <time>2022-12-15T15:09:43.634Z</time>
      </trkpt>
      <trkpt lat="47.46551" lon="-1.85713">
        <ele>55.863345</ele>
        <time>2022-12-15T15:09:46.641Z</time>
      </trkpt>
      <trkpt lat="47.46555" lon="-1.857">
        <ele>55.990623</ele>
        <time>2022-12-15T15:09:48.632Z</time>
      </trkpt>
      <trkpt lat="47.46559" lon="-1.85686">
        <ele>56.128427</ele>
        <time>2022-12-15T15:09:50.637Z</time>
      </trkpt>
      <trkpt lat="47.46563" lon="-1.85674">
        <ele>56.20618</ele>
        <time>2022-12-15T15:09:52.640Z</time>
      </trkpt>
      <trkpt lat="47.46568" lon="-1.85655">
        <ele>56.132574</ele>
        <time>2022-12-15T15:09:55.639Z</time>
      </trkpt>
      <trkpt lat="47.46575" lon="-1.85639">
        <ele>56.062427</ele>
        <time>2022-12-15T15:09:58.645Z</time>
      </trkpt>
      <trkpt lat="47.46578" lon="-1.85626">
        <ele>56.013567</ele>
        <time>2022-12-15T15:10:00.641Z</time>
      </trkpt>
      <trkpt lat="47.46582" lon="-1.85613">
        <ele>55.964657</ele>
        <time>2022-12-15T15:10:02.639Z</time>
      </trkpt>
      <trkpt lat="47.46588" lon="-1.85596">
        <ele>55.89143</ele>
        <time>2022-12-15T15:10:05.634Z</time>
      </trkpt>
      <trkpt lat="47.46595" lon="-1.85581">
        <ele>55.825835</ele>
        <time>2022-12-15T15:10:08.634Z</time>
      </trkpt>
      <trkpt lat="47.46599" lon="-1.85569">
        <ele>55.776655</ele>
        <time>2022-12-15T15:10:10.640Z</time>
      </trkpt>
      <trkpt lat="47.46606" lon="-1.85554">
        <ele>55.713186</ele>
        <time>2022-12-15T15:10:13.638Z</time>
      </trkpt>
      <trkpt lat="47.46611" lon="-1.85543">
        <ele>55.663553</ele>
        <time>2022-12-15T15:10:15.643Z</time>
      </trkpt>
      <trkpt lat="47.46616" lon="-1.85531">
        <ele>55.611792</ele>
        <time>2022-12-15T15:10:17.640Z</time>
      </trkpt>
      <trkpt lat="47.46622" lon="-1.85519">
        <ele>55.559458</ele>
        <time>2022-12-15T15:10:19.640Z</time>
      </trkpt>
      <trkpt lat="47.4663" lon="-1.85504">
        <ele>55.489374</ele>
        <time>2022-12-15T15:10:22.643Z</time>
      </trkpt>
      <trkpt lat="47.46637" lon="-1.85489">
        <ele>55.422871</ele>
        <time>2022-12-15T15:10:25.642Z</time>
      </trkpt>
      <trkpt lat="47.46646" lon="-1.85476">
        <ele>55.355951</ele>
        <time>2022-12-15T15:10:28.636Z</time>
      </trkpt>
      <trkpt lat="47.46655" lon="-1.85463">
        <ele>55.287131</ele>
        <time>2022-12-15T15:10:31.643Z</time>
      </trkpt>
      <trkpt lat="47.46664" lon="-1.85449">
        <ele>55.168176</ele>
        <time>2022-12-15T15:10:34.638Z</time>
      </trkpt>
      <trkpt lat="47.46672" lon="-1.85439">
        <ele>55.044201</ele>
        <time>2022-12-15T15:10:37.640Z</time>
      </trkpt>
      <trkpt lat="47.4668" lon="-1.85429">
        <ele>54.922161</ele>
        <time>2022-12-15T15:10:40.641Z</time>
      </trkpt>
      <trkpt lat="47.46689" lon="-1.85417">
        <ele>54.774856</ele>
        <time>2022-12-15T15:10:43.642Z</time>
      </trkpt>
      <trkpt lat="47.46698" lon="-1.85406">
        <ele>54.630592</ele>
        <time>2022-12-15T15:10:46.631Z</time>
      </trkpt>
      <trkpt lat="47.46709" lon="-1.85395">
        <ele>54.480139</ele>
        <time>2022-12-15T15:10:49.640Z</time>
      </trkpt>
      <trkpt lat="47.46719" lon="-1.85385">
        <ele>54.33224</ele>
        <time>2022-12-15T15:10:52.642Z</time>
      </trkpt>
      <trkpt lat="47.4673" lon="-1.85375">
        <ele>54.172857</ele>
        <time>2022-12-15T15:10:55.635Z</time>
      </trkpt>
      <trkpt lat="47.4674" lon="-1.85366">
        <ele>54.030309</ele>
        <time>2022-12-15T15:10:58.632Z</time>
      </trkpt>
      <trkpt lat="47.46749" lon="-1.8536">
        <ele>53.916637</ele>
        <time>2022-12-15T15:11:01.642Z</time>
      </trkpt>
      <trkpt lat="47.46758" lon="-1.85353">
        <ele>53.797587</ele>
        <time>2022-12-15T15:11:04.616Z</time>
      </trkpt>
      <trkpt lat="47.46769" lon="-1.85347">
        <ele>53.660903</ele>
        <time>2022-12-15T15:11:07.629Z</time>
      </trkpt>
      <trkpt lat="47.46779" lon="-1.85341">
        <ele>53.521964</ele>
        <time>2022-12-15T15:11:10.629Z</time>
      </trkpt>
      <trkpt lat="47.46791" lon="-1.85335">
        <ele>53.378244</ele>
        <time>2022-12-15T15:11:13.621Z</time>
      </trkpt>
      <trkpt lat="47.46802" lon="-1.85329">
        <ele>53.231155</ele>
        <time>2022-12-15T15:11:16.638Z</time>
      </trkpt>
      <trkpt lat="47.46814" lon="-1.85323">
        <ele>53.106709</ele>
        <time>2022-12-15T15:11:19.640Z</time>
      </trkpt>
      <trkpt lat="47.46826" lon="-1.85316">
        <ele>53.173659</ele>
        <time>2022-12-15T15:11:22.640Z</time>
      </trkpt>
      <trkpt lat="47.46838" lon="-1.8531">
        <ele>53.244265</ele>
        <time>2022-12-15T15:11:25.639Z</time>
      </trkpt>
      <trkpt lat="47.46851" lon="-1.85303">
        <ele>53.314099</ele>
        <time>2022-12-15T15:11:28.639Z</time>
      </trkpt>
      <trkpt lat="47.46863" lon="-1.85296">
        <ele>53.384933</ele>
        <time>2022-12-15T15:11:31.636Z</time>
      </trkpt>
      <trkpt lat="47.46872" lon="-1.85292">
        <ele>53.433082</ele>
        <time>2022-12-15T15:11:33.707Z</time>
      </trkpt>
      <trkpt lat="47.4688" lon="-1.85287">
        <ele>53.483356</ele>
        <time>2022-12-15T15:11:35.650Z</time>
      </trkpt>
      <trkpt lat="47.46889" lon="-1.85281">
        <ele>53.534575</ele>
        <time>2022-12-15T15:11:37.644Z</time>
      </trkpt>
      <trkpt lat="47.469" lon="-1.85273">
        <ele>53.600278</ele>
        <time>2022-12-15T15:11:40.624Z</time>
      </trkpt>
      <trkpt lat="47.46911" lon="-1.85268">
        <ele>53.659714</ele>
        <time>2022-12-15T15:11:43.639Z</time>
      </trkpt>
      <trkpt lat="47.46921" lon="-1.8526">
        <ele>53.722214</ele>
        <time>2022-12-15T15:11:46.626Z</time>
      </trkpt>
      <trkpt lat="47.46933" lon="-1.85252">
        <ele>53.792228</ele>
        <time>2022-12-15T15:11:49.637Z</time>
      </trkpt>
      <trkpt lat="47.46945" lon="-1.85243">
        <ele>53.863839</ele>
        <time>2022-12-15T15:11:52.641Z</time>
      </trkpt>
      <trkpt lat="47.46957" lon="-1.85234">
        <ele>53.935495</ele>
        <time>2022-12-15T15:11:55.638Z</time>
      </trkpt>
      <trkpt lat="47.46968" lon="-1.85224">
        <ele>54.00674</ele>
        <time>2022-12-15T15:11:58.635Z</time>
      </trkpt>
      <trkpt lat="47.4698" lon="-1.85214">
        <ele>54.064162</ele>
        <time>2022-12-15T15:12:01.640Z</time>
      </trkpt>
      <trkpt lat="47.46991" lon="-1.85205">
        <ele>54.082966</ele>
        <time>2022-12-15T15:12:04.643Z</time>
      </trkpt>
      <trkpt lat="47.47" lon="-1.85198">
        <ele>54.099308</ele>
        <time>2022-12-15T15:12:07.625Z</time>
      </trkpt>
      <trkpt lat="47.47009" lon="-1.8519">
        <ele>54.114359</ele>
        <time>2022-12-15T15:12:10.639Z</time>
      </trkpt>
      <trkpt lat="47.47018" lon="-1.85181">
        <ele>54.129915</ele>
        <time>2022-12-15T15:12:13.641Z</time>
      </trkpt>
      <trkpt lat="47.47027" lon="-1.85172">
        <ele>54.146901</ele>
        <time>2022-12-15T15:12:16.650Z</time>
      </trkpt>
      <trkpt lat="47.47036" lon="-1.8516">
        <ele>54.165002</ele>
        <time>2022-12-15T15:12:19.627Z</time>
      </trkpt>
      <trkpt lat="47.47045" lon="-1.85146">
        <ele>54.184415</ele>
        <time>2022-12-15T15:12:22.640Z</time>
      </trkpt>
      <trkpt lat="47.47053" lon="-1.85131">
        <ele>54.203715</ele>
        <time>2022-12-15T15:12:25.639Z</time>
      </trkpt>
      <trkpt lat="47.47061" lon="-1.85117">
        <ele>54.222921</ele>
        <time>2022-12-15T15:12:28.627Z</time>
      </trkpt>
      <trkpt lat="47.4707" lon="-1.85103">
        <ele>54.24163</ele>
        <time>2022-12-15T15:12:31.631Z</time>
      </trkpt>
      <trkpt lat="47.47079" lon="-1.85092">
        <ele>54.259702</ele>
        <time>2022-12-15T15:12:34.633Z</time>
      </trkpt>
      <trkpt lat="47.47091" lon="-1.85082">
        <ele>54.27922</ele>
        <time>2022-12-15T15:12:37.649Z</time>
      </trkpt>
      <trkpt lat="47.47102" lon="-1.85074">
        <ele>54.297868</ele>
        <time>2022-12-15T15:12:40.629Z</time>
      </trkpt>
      <trkpt lat="47.47113" lon="-1.85067">
        <ele>54.316539</ele>
        <time>2022-12-15T15:12:43.640Z</time>
      </trkpt>
      <trkpt lat="47.47125" lon="-1.85059">
        <ele>54.330924</ele>
        <time>2022-12-15T15:12:46.634Z</time>
      </trkpt>
      <trkpt lat="47.47136" lon="-1.85051">
        <ele>54.338516</ele>
        <time>2022-12-15T15:12:49.639Z</time>
      </trkpt>
      <trkpt lat="47.47147" lon="-1.85041">
        <ele>54.346192</ele>
        <time>2022-12-15T15:12:52.629Z</time>
      </trkpt>
      <trkpt lat="47.47158" lon="-1.85031">
        <ele>54.353852</ele>
        <time>2022-12-15T15:12:55.654Z</time>
      </trkpt>
      <trkpt lat="47.47166" lon="-1.85023">
        <ele>54.359633</ele>
        <time>2022-12-15T15:12:58.641Z</time>
      </trkpt>
      <trkpt lat="47.47173" lon="-1.85013">
        <ele>54.365692</ele>
        <time>2022-12-15T15:13:01.648Z</time>
      </trkpt>
      <trkpt lat="47.47181" lon="-1.85001">
        <ele>54.372464</ele>
        <time>2022-12-15T15:13:04.626Z</time>
      </trkpt>
      <trkpt lat="47.47189" lon="-1.84989">
        <ele>54.379477</ele>
        <time>2022-12-15T15:13:07.649Z</time>
      </trkpt>
      <trkpt lat="47.47197" lon="-1.84975">
        <ele>54.386881</ele>
        <time>2022-12-15T15:13:10.640Z</time>
      </trkpt>
      <trkpt lat="47.47206" lon="-1.84961">
        <ele>54.394586</ele>
        <time>2022-12-15T15:13:13.636Z</time>
      </trkpt>
      <trkpt lat="47.47215" lon="-1.84947">
        <ele>54.402412</ele>
        <time>2022-12-15T15:13:16.640Z</time>
      </trkpt>
      <trkpt lat="47.47222" lon="-1.84937">
        <ele>54.408097</ele>
        <time>2022-12-15T15:13:18.643Z</time>
      </trkpt>
      <trkpt lat="47.47228" lon="-1.84927">
        <ele>54.413475</ele>
        <time>2022-12-15T15:13:20.631Z</time>
      </trkpt>
      <trkpt lat="47.47234" lon="-1.84917">
        <ele>54.419037</ele>
        <time>2022-12-15T15:13:22.638Z</time>
      </trkpt>
      <trkpt lat="47.47239" lon="-1.84905">
        <ele>54.425002</ele>
        <time>2022-12-15T15:13:24.632Z</time>
      </trkpt>
      <trkpt lat="47.47245" lon="-1.84894">
        <ele>54.430751</ele>
        <time>2022-12-15T15:13:26.654Z</time>
      </trkpt>
      <trkpt lat="47.47251" lon="-1.84882">
        <ele>54.43802</ele>
        <time>2022-12-15T15:13:28.628Z</time>
      </trkpt>
      <trkpt lat="47.47256" lon="-1.84871">
        <ele>54.463905</ele>
        <time>2022-12-15T15:13:30.652Z</time>
      </trkpt>
      <trkpt lat="47.47262" lon="-1.8486">
        <ele>54.491371</ele>
        <time>2022-12-15T15:13:32.704Z</time>
      </trkpt>
      <trkpt lat="47.47268" lon="-1.84849">
        <ele>54.518936</ele>
        <time>2022-12-15T15:13:34.649Z</time>
      </trkpt>
      <trkpt lat="47.47275" lon="-1.84838">
        <ele>54.545914</ele>
        <time>2022-12-15T15:13:36.647Z</time>
      </trkpt>
      <trkpt lat="47.47281" lon="-1.84828">
        <ele>54.572647</ele>
        <time>2022-12-15T15:13:38.676Z</time>
      </trkpt>
      <trkpt lat="47.4729" lon="-1.84813">
        <ele>54.609857</ele>
        <time>2022-12-15T15:13:41.641Z</time>
      </trkpt>
      <trkpt lat="47.473" lon="-1.848">
        <ele>54.648324</ele>
        <time>2022-12-15T15:13:44.693Z</time>
      </trkpt>
      <trkpt lat="47.47307" lon="-1.84792">
        <ele>54.67394</ele>
        <time>2022-12-15T15:13:46.643Z</time>
      </trkpt>
      <trkpt lat="47.47318" lon="-1.8478">
        <ele>54.711069</ele>
        <time>2022-12-15T15:13:49.639Z</time>
      </trkpt>
      <trkpt lat="47.47328" lon="-1.84769">
        <ele>54.747627</ele>
        <time>2022-12-15T15:13:52.625Z</time>
      </trkpt>
      <trkpt lat="47.47338" lon="-1.84759">
        <ele>54.782928</ele>
        <time>2022-12-15T15:13:55.640Z</time>
      </trkpt>
      <trkpt lat="47.47349" lon="-1.84748">
        <ele>54.818681</ele>
        <time>2022-12-15T15:13:58.637Z</time>
      </trkpt>
      <trkpt lat="47.47359" lon="-1.84738">
        <ele>54.85265</ele>
        <time>2022-12-15T15:14:01.639Z</time>
      </trkpt>
      <trkpt lat="47.47368" lon="-1.84733">
        <ele>54.881805</ele>
        <time>2022-12-15T15:14:04.649Z</time>
      </trkpt>
      <trkpt lat="47.47378" lon="-1.84729">
        <ele>54.90866</ele>
        <time>2022-12-15T15:14:07.654Z</time>
      </trkpt>
      <trkpt lat="47.47388" lon="-1.84727">
        <ele>54.937291</ele>
        <time>2022-12-15T15:14:10.644Z</time>
      </trkpt>
      <trkpt lat="47.47399" lon="-1.84725">
        <ele>54.918051</ele>
        <time>2022-12-15T15:14:13.695Z</time>
      </trkpt>
      <trkpt lat="47.4741" lon="-1.84725">
        <ele>54.886081</ele>
        <time>2022-12-15T15:14:16.631Z</time>
      </trkpt>
      <trkpt lat="47.4742" lon="-1.84722">
        <ele>54.854066</ele>
        <time>2022-12-15T15:14:19.714Z</time>
      </trkpt>
      <trkpt lat="47.4743" lon="-1.84716">
        <ele>54.818501</ele>
        <time>2022-12-15T15:14:22.650Z</time>
      </trkpt>
      <trkpt lat="47.47439" lon="-1.84706">
        <ele>54.785319</ele>
        <time>2022-12-15T15:14:25.706Z</time>
      </trkpt>
      <trkpt lat="47.47445" lon="-1.84694">
        <ele>54.753154</ele>
        <time>2022-12-15T15:14:28.639Z</time>
      </trkpt>
      <trkpt lat="47.47449" lon="-1.84681">
        <ele>54.722114</ele>
        <time>2022-12-15T15:14:31.685Z</time>
      </trkpt>
      <trkpt lat="47.47452" lon="-1.84667">
        <ele>54.692788</ele>
        <time>2022-12-15T15:14:34.650Z</time>
      </trkpt>
      <trkpt lat="47.47455" lon="-1.8465">
        <ele>54.656209</ele>
        <time>2022-12-15T15:14:38.629Z</time>
      </trkpt>
      <trkpt lat="47.47458" lon="-1.84636">
        <ele>54.624464</ele>
        <time>2022-12-15T15:14:41.623Z</time>
      </trkpt>
      <trkpt lat="47.47462" lon="-1.84621">
        <ele>54.591369</ele>
        <time>2022-12-15T15:14:44.629Z</time>
      </trkpt>
      <trkpt lat="47.47465" lon="-1.84606">
        <ele>54.557183</ele>
        <time>2022-12-15T15:14:47.640Z</time>
      </trkpt>
      <trkpt lat="47.47469" lon="-1.84589">
        <ele>54.521094</ele>
        <time>2022-12-15T15:14:50.651Z</time>
      </trkpt>
      <trkpt lat="47.47473" lon="-1.84572">
        <ele>54.482744</ele>
        <time>2022-12-15T15:14:53.647Z</time>
      </trkpt>
      <trkpt lat="47.47477" lon="-1.84556">
        <ele>54.446465</ele>
        <time>2022-12-15T15:14:56.633Z</time>
      </trkpt>
      <trkpt lat="47.47479" lon="-1.84542">
        <ele>54.415643</ele>
        <time>2022-12-15T15:14:58.649Z</time>
      </trkpt>
      <trkpt lat="47.47482" lon="-1.84527">
        <ele>54.388681</ele>
        <time>2022-12-15T15:15:00.637Z</time>
      </trkpt>
      <trkpt lat="47.47484" lon="-1.84514">
        <ele>54.402781</ele>
        <time>2022-12-15T15:15:02.631Z</time>
      </trkpt>
      <trkpt lat="47.47487" lon="-1.84501">
        <ele>54.416269</ele>
        <time>2022-12-15T15:15:04.650Z</time>
      </trkpt>
      <trkpt lat="47.47492" lon="-1.84484">
        <ele>54.433574</ele>
        <time>2022-12-15T15:15:07.626Z</time>
      </trkpt>
      <trkpt lat="47.47495" lon="-1.84466">
        <ele>54.452755</ele>
        <time>2022-12-15T15:15:10.653Z</time>
      </trkpt>
      <trkpt lat="47.47499" lon="-1.84446">
        <ele>54.473077</ele>
        <time>2022-12-15T15:15:13.643Z</time>
      </trkpt>
      <trkpt lat="47.47502" lon="-1.84433">
        <ele>54.486676</ele>
        <time>2022-12-15T15:15:15.646Z</time>
      </trkpt>
      <trkpt lat="47.47505" lon="-1.84419">
        <ele>54.500868</ele>
        <time>2022-12-15T15:15:17.641Z</time>
      </trkpt>
      <trkpt lat="47.47508" lon="-1.84406">
        <ele>54.515109</ele>
        <time>2022-12-15T15:15:19.649Z</time>
      </trkpt>
      <trkpt lat="47.4751" lon="-1.84391">
        <ele>54.529725</ele>
        <time>2022-12-15T15:15:21.641Z</time>
      </trkpt>
      <trkpt lat="47.47512" lon="-1.84378">
        <ele>54.542931</ele>
        <time>2022-12-15T15:15:23.648Z</time>
      </trkpt>
      <trkpt lat="47.47513" lon="-1.84359">
        <ele>54.561963</ele>
        <time>2022-12-15T15:15:26.648Z</time>
      </trkpt>
      <trkpt lat="47.47514" lon="-1.84342">
        <ele>54.579329</ele>
        <time>2022-12-15T15:15:29.653Z</time>
      </trkpt>
      <trkpt lat="47.47513" lon="-1.84327">
        <ele>54.593625</ele>
        <time>2022-12-15T15:15:32.625Z</time>
      </trkpt>
      <trkpt lat="47.4751" lon="-1.84311">
        <ele>54.610885</ele>
        <time>2022-12-15T15:15:36.683Z</time>
      </trkpt>
      <trkpt lat="47.47506" lon="-1.84297">
        <ele>54.626171</ele>
        <time>2022-12-15T15:15:39.626Z</time>
      </trkpt>
      <trkpt lat="47.475" lon="-1.84282">
        <ele>54.643437</ele>
        <time>2022-12-15T15:15:42.629Z</time>
      </trkpt>
      <trkpt lat="47.47492" lon="-1.84269">
        <ele>54.663783</ele>
        <time>2022-12-15T15:15:45.650Z</time>
      </trkpt>
      <trkpt lat="47.47484" lon="-1.84255">
        <ele>54.690835</ele>
        <time>2022-12-15T15:15:48.642Z</time>
      </trkpt>
      <trkpt lat="47.47478" lon="-1.84245">
        <ele>54.709768</ele>
        <time>2022-12-15T15:15:50.649Z</time>
      </trkpt>
      <trkpt lat="47.47469" lon="-1.8423">
        <ele>54.73766</ele>
        <time>2022-12-15T15:15:53.640Z</time>
      </trkpt>
      <trkpt lat="47.47462" lon="-1.8422">
        <ele>54.757966</ele>
        <time>2022-12-15T15:15:55.643Z</time>
      </trkpt>
      <trkpt lat="47.47456" lon="-1.84209">
        <ele>54.77697</ele>
        <time>2022-12-15T15:15:57.642Z</time>
      </trkpt>
      <trkpt lat="47.47448" lon="-1.84197">
        <ele>54.801363</ele>
        <time>2022-12-15T15:16:00.653Z</time>
      </trkpt>
      <trkpt lat="47.47442" lon="-1.84184">
        <ele>54.823865</ele>
        <time>2022-12-15T15:16:03.643Z</time>
      </trkpt>
      <trkpt lat="47.47436" lon="-1.84169">
        <ele>54.848585</ele>
        <time>2022-12-15T15:16:06.631Z</time>
      </trkpt>
      <trkpt lat="47.47432" lon="-1.84152">
        <ele>54.873623</ele>
        <time>2022-12-15T15:16:09.639Z</time>
      </trkpt>
      <trkpt lat="47.47431" lon="-1.84134">
        <ele>54.899791</ele>
        <time>2022-12-15T15:16:12.629Z</time>
      </trkpt>
      <trkpt lat="47.47435" lon="-1.84116">
        <ele>54.926111</ele>
        <time>2022-12-15T15:16:15.649Z</time>
      </trkpt>
      <trkpt lat="47.47439" lon="-1.84099">
        <ele>54.951551</ele>
        <time>2022-12-15T15:16:18.630Z</time>
      </trkpt>
      <trkpt lat="47.47444" lon="-1.84083">
        <ele>54.976597</ele>
        <time>2022-12-15T15:16:21.645Z</time>
      </trkpt>
      <trkpt lat="47.47448" lon="-1.84066">
        <ele>55.001953</ele>
        <time>2022-12-15T15:16:24.638Z</time>
      </trkpt>
      <trkpt lat="47.47453" lon="-1.8405">
        <ele>55.026577</ele>
        <time>2022-12-15T15:16:27.639Z</time>
      </trkpt>
      <trkpt lat="47.47456" lon="-1.84033">
        <ele>54.933637</ele>
        <time>2022-12-15T15:16:30.651Z</time>
      </trkpt>
      <trkpt lat="47.47459" lon="-1.84016">
        <ele>54.837539</ele>
        <time>2022-12-15T15:16:33.641Z</time>
      </trkpt>
      <trkpt lat="47.47462" lon="-1.84002">
        <ele>54.756714</ele>
        <time>2022-12-15T15:16:36.648Z</time>
      </trkpt>
      <trkpt lat="47.47466" lon="-1.83969">
        <ele>54.572468</ele>
        <time>2022-12-15T15:19:39.629Z</time>
      </trkpt>
      <trkpt lat="47.47471" lon="-1.83954">
        <ele>54.483716</ele>
        <time>2022-12-15T15:19:42.623Z</time>
      </trkpt>
      <trkpt lat="47.47475" lon="-1.83941">
        <ele>54.400296</ele>
        <time>2022-12-15T15:19:45.640Z</time>
      </trkpt>
      <trkpt lat="47.47478" lon="-1.83926">
        <ele>54.314061</ele>
        <time>2022-12-15T15:19:49.636Z</time>
      </trkpt>
      <trkpt lat="47.47482" lon="-1.83913">
        <ele>54.237173</ele>
        <time>2022-12-15T15:19:53.638Z</time>
      </trkpt>
      <trkpt lat="47.47486" lon="-1.83901">
        <ele>54.162852</ele>
        <time>2022-12-15T15:19:57.645Z</time>
      </trkpt>
      <trkpt lat="47.47491" lon="-1.83887">
        <ele>54.075753</ele>
        <time>2022-12-15T15:20:02.645Z</time>
      </trkpt>
      <trkpt lat="47.47494" lon="-1.83872">
        <ele>53.988577</ele>
        <time>2022-12-15T15:20:07.637Z</time>
      </trkpt>
      <trkpt lat="47.47498" lon="-1.83857">
        <ele>53.901163</ele>
        <time>2022-12-15T15:20:11.635Z</time>
      </trkpt>
      <trkpt lat="47.47503" lon="-1.83842">
        <ele>53.812571</ele>
        <time>2022-12-15T15:20:15.644Z</time>
      </trkpt>
      <trkpt lat="47.47506" lon="-1.83828">
        <ele>53.730191</ele>
        <time>2022-12-15T15:20:19.632Z</time>
      </trkpt>
      <trkpt lat="47.4751" lon="-1.83816">
        <ele>53.656287</ele>
        <time>2022-12-15T15:20:22.637Z</time>
      </trkpt>
      <trkpt lat="47.47515" lon="-1.83802">
        <ele>53.565237</ele>
        <time>2022-12-15T15:20:26.622Z</time>
      </trkpt>
      <trkpt lat="47.4752" lon="-1.83785">
        <ele>53.688634</ele>
        <time>2022-12-15T15:20:30.637Z</time>
      </trkpt>
      <trkpt lat="47.47523" lon="-1.83771">
        <ele>53.796613</ele>
        <time>2022-12-15T15:20:33.640Z</time>
      </trkpt>
      <trkpt lat="47.47526" lon="-1.83756">
        <ele>53.912338</ele>
        <time>2022-12-15T15:20:36.640Z</time>
      </trkpt>
      <trkpt lat="47.4753" lon="-1.83741">
        <ele>54.031401</ele>
        <time>2022-12-15T15:20:39.629Z</time>
      </trkpt>
      <trkpt lat="47.47534" lon="-1.83725">
        <ele>54.152579</ele>
        <time>2022-12-15T15:20:42.638Z</time>
      </trkpt>
      <trkpt lat="47.47538" lon="-1.83708">
        <ele>54.279565</ele>
        <time>2022-12-15T15:20:45.620Z</time>
      </trkpt>
      <trkpt lat="47.4754" lon="-1.83692">
        <ele>54.399173</ele>
        <time>2022-12-15T15:20:48.633Z</time>
      </trkpt>
      <trkpt lat="47.47544" lon="-1.83674">
        <ele>54.533523</ele>
        <time>2022-12-15T15:20:51.638Z</time>
      </trkpt>
      <trkpt lat="47.47546" lon="-1.83655">
        <ele>54.670162</ele>
        <time>2022-12-15T15:20:54.636Z</time>
      </trkpt>
      <trkpt lat="47.47547" lon="-1.83636">
        <ele>54.810206</ele>
        <time>2022-12-15T15:20:57.639Z</time>
      </trkpt>
      <trkpt lat="47.47547" lon="-1.83623">
        <ele>54.907054</ele>
        <time>2022-12-15T15:20:59.634Z</time>
      </trkpt>
      <trkpt lat="47.47546" lon="-1.83609">
        <ele>55.005607</ele>
        <time>2022-12-15T15:21:01.643Z</time>
      </trkpt>
      <trkpt lat="47.47545" lon="-1.83596">
        <ele>55.102808</ele>
        <time>2022-12-15T15:21:03.630Z</time>
      </trkpt>
      <trkpt lat="47.47544" lon="-1.83577">
        <ele>55.240968</ele>
        <time>2022-12-15T15:21:06.630Z</time>
      </trkpt>
      <trkpt lat="47.47544" lon="-1.83563">
        <ele>55.337449</ele>
        <time>2022-12-15T15:21:08.648Z</time>
      </trkpt>
      <trkpt lat="47.47543" lon="-1.83549">
        <ele>55.437977</ele>
        <time>2022-12-15T15:21:10.644Z</time>
      </trkpt>
      <trkpt lat="47.47543" lon="-1.83535">
        <ele>55.52998</ele>
        <time>2022-12-15T15:21:12.640Z</time>
      </trkpt>
      <trkpt lat="47.47542" lon="-1.83515">
        <ele>55.642758</ele>
        <time>2022-12-15T15:21:15.644Z</time>
      </trkpt>
      <trkpt lat="47.4754" lon="-1.83496">
        <ele>55.754398</ele>
        <time>2022-12-15T15:21:18.635Z</time>
      </trkpt>
      <trkpt lat="47.47538" lon="-1.83477">
        <ele>55.863998</ele>
        <time>2022-12-15T15:21:21.638Z</time>
      </trkpt>
      <trkpt lat="47.47536" lon="-1.83464">
        <ele>55.943139</ele>
        <time>2022-12-15T15:21:23.626Z</time>
      </trkpt>
      <trkpt lat="47.47535" lon="-1.8345">
        <ele>56.021717</ele>
        <time>2022-12-15T15:21:25.638Z</time>
      </trkpt>
      <trkpt lat="47.47533" lon="-1.83437">
        <ele>56.099733</ele>
        <time>2022-12-15T15:21:27.638Z</time>
      </trkpt>
      <trkpt lat="47.47532" lon="-1.83423">
        <ele>56.179462</ele>
        <time>2022-12-15T15:21:29.638Z</time>
      </trkpt>
      <trkpt lat="47.47529" lon="-1.83403">
        <ele>56.295213</ele>
        <time>2022-12-15T15:21:32.638Z</time>
      </trkpt>
      <trkpt lat="47.47528" lon="-1.8339">
        <ele>56.373366</ele>
        <time>2022-12-15T15:21:34.635Z</time>
      </trkpt>
      <trkpt lat="47.47526" lon="-1.83376">
        <ele>56.453227</ele>
        <time>2022-12-15T15:21:36.644Z</time>
      </trkpt>
      <trkpt lat="47.47524" lon="-1.83357">
        <ele>56.559748</ele>
        <time>2022-12-15T15:21:39.620Z</time>
      </trkpt>
      <trkpt lat="47.47522" lon="-1.8334">
        <ele>56.659516</ele>
        <time>2022-12-15T15:21:42.623Z</time>
      </trkpt>
      <trkpt lat="47.47519" lon="-1.83323">
        <ele>56.763397</ele>
        <time>2022-12-15T15:21:45.622Z</time>
      </trkpt>
      <trkpt lat="47.47514" lon="-1.83306">
        <ele>56.867506</ele>
        <time>2022-12-15T15:21:48.627Z</time>
      </trkpt>
      <trkpt lat="47.4751" lon="-1.83288">
        <ele>56.978399</ele>
        <time>2022-12-15T15:21:51.644Z</time>
      </trkpt>
      <trkpt lat="47.47506" lon="-1.83276">
        <ele>56.969205</ele>
        <time>2022-12-15T15:21:53.633Z</time>
      </trkpt>
      <trkpt lat="47.47502" lon="-1.83263">
        <ele>56.899269</ele>
        <time>2022-12-15T15:21:55.641Z</time>
      </trkpt>
      <trkpt lat="47.47498" lon="-1.8325">
        <ele>56.825928</ele>
        <time>2022-12-15T15:21:57.632Z</time>
      </trkpt>
      <trkpt lat="47.47492" lon="-1.83232">
        <ele>56.729033</ele>
        <time>2022-12-15T15:22:00.641Z</time>
      </trkpt>
      <trkpt lat="47.47489" lon="-1.8322">
        <ele>56.660658</ele>
        <time>2022-12-15T15:22:02.639Z</time>
      </trkpt>
      <trkpt lat="47.47484" lon="-1.83207">
        <ele>56.58966</ele>
        <time>2022-12-15T15:22:04.639Z</time>
      </trkpt>
      <trkpt lat="47.4748" lon="-1.83195">
        <ele>56.518823</ele>
        <time>2022-12-15T15:22:06.626Z</time>
      </trkpt>
      <trkpt lat="47.47475" lon="-1.83183">
        <ele>56.448967</ele>
        <time>2022-12-15T15:22:08.634Z</time>
      </trkpt>
      <trkpt lat="47.4747" lon="-1.83168">
        <ele>56.363239</ele>
        <time>2022-12-15T15:22:11.625Z</time>
      </trkpt>
      <trkpt lat="47.47464" lon="-1.83151">
        <ele>56.270315</ele>
        <time>2022-12-15T15:22:14.638Z</time>
      </trkpt>
      <trkpt lat="47.47459" lon="-1.83135">
        <ele>56.177288</ele>
        <time>2022-12-15T15:22:17.639Z</time>
      </trkpt>
      <trkpt lat="47.47453" lon="-1.83118">
        <ele>56.083363</ele>
        <time>2022-12-15T15:22:20.624Z</time>
      </trkpt>
      <trkpt lat="47.47448" lon="-1.831">
        <ele>55.98313</ele>
        <time>2022-12-15T15:22:23.639Z</time>
      </trkpt>
      <trkpt lat="47.47444" lon="-1.83088">
        <ele>55.914615</ele>
        <time>2022-12-15T15:22:25.622Z</time>
      </trkpt>
      <trkpt lat="47.47439" lon="-1.83076">
        <ele>55.844786</ele>
        <time>2022-12-15T15:22:27.635Z</time>
      </trkpt>
      <trkpt lat="47.47431" lon="-1.8306">
        <ele>55.743196</ele>
        <time>2022-12-15T15:22:30.638Z</time>
      </trkpt>
      <trkpt lat="47.47424" lon="-1.83049">
        <ele>55.667625</ele>
        <time>2022-12-15T15:22:32.627Z</time>
      </trkpt>
      <trkpt lat="47.47418" lon="-1.83037">
        <ele>55.580082</ele>
        <time>2022-12-15T15:22:34.643Z</time>
      </trkpt>
      <trkpt lat="47.47411" lon="-1.83026">
        <ele>55.492818</ele>
        <time>2022-12-15T15:22:36.634Z</time>
      </trkpt>
      <trkpt lat="47.47403" lon="-1.83015">
        <ele>55.396883</ele>
        <time>2022-12-15T15:22:38.644Z</time>
      </trkpt>
      <trkpt lat="47.47396" lon="-1.83005">
        <ele>55.31269</ele>
        <time>2022-12-15T15:22:40.637Z</time>
      </trkpt>
      <trkpt lat="47.47388" lon="-1.82996">
        <ele>55.227813</ele>
        <time>2022-12-15T15:22:42.639Z</time>
      </trkpt>
      <trkpt lat="47.47381" lon="-1.82987">
        <ele>55.147404</ele>
        <time>2022-12-15T15:22:44.643Z</time>
      </trkpt>
      <trkpt lat="47.47374" lon="-1.82979">
        <ele>55.068603</ele>
        <time>2022-12-15T15:22:46.641Z</time>
      </trkpt>
      <trkpt lat="47.47364" lon="-1.82968">
        <ele>54.96038</ele>
        <time>2022-12-15T15:22:49.645Z</time>
      </trkpt>
      <trkpt lat="47.47354" lon="-1.82957">
        <ele>54.849365</ele>
        <time>2022-12-15T15:22:52.639Z</time>
      </trkpt>
      <trkpt lat="47.47346" lon="-1.82949">
        <ele>54.766343</ele>
        <time>2022-12-15T15:22:54.643Z</time>
      </trkpt>
      <trkpt lat="47.47338" lon="-1.8294">
        <ele>54.675987</ele>
        <time>2022-12-15T15:22:56.629Z</time>
      </trkpt>
      <trkpt lat="47.47331" lon="-1.82931">
        <ele>54.594023</ele>
        <time>2022-12-15T15:22:58.638Z</time>
      </trkpt>
      <trkpt lat="47.47323" lon="-1.82922">
        <ele>54.510994</ele>
        <time>2022-12-15T15:23:00.619Z</time>
      </trkpt>
      <trkpt lat="47.47316" lon="-1.82913">
        <ele>54.429917</ele>
        <time>2022-12-15T15:23:02.641Z</time>
      </trkpt>
      <trkpt lat="47.47308" lon="-1.82899">
        <ele>54.320678</ele>
        <time>2022-12-15T15:23:05.637Z</time>
      </trkpt>
      <trkpt lat="47.47301" lon="-1.82888">
        <ele>54.227939</ele>
        <time>2022-12-15T15:23:08.628Z</time>
      </trkpt>
      <trkpt lat="47.47293" lon="-1.82876">
        <ele>54.133152</ele>
        <time>2022-12-15T15:23:11.641Z</time>
      </trkpt>
      <trkpt lat="47.47286" lon="-1.82863">
        <ele>54.10962</ele>
        <time>2022-12-15T15:23:14.637Z</time>
      </trkpt>
      <trkpt lat="47.47278" lon="-1.82848">
        <ele>54.12423</ele>
        <time>2022-12-15T15:23:17.641Z</time>
      </trkpt>
      <trkpt lat="47.47272" lon="-1.82838">
        <ele>54.134901</ele>
        <time>2022-12-15T15:23:19.631Z</time>
      </trkpt>
      <trkpt lat="47.47266" lon="-1.82827">
        <ele>54.145766</ele>
        <time>2022-12-15T15:23:21.634Z</time>
      </trkpt>
      <trkpt lat="47.47261" lon="-1.82816">
        <ele>54.15669</ele>
        <time>2022-12-15T15:23:23.635Z</time>
      </trkpt>
      <trkpt lat="47.47256" lon="-1.82804">
        <ele>54.168215</ele>
        <time>2022-12-15T15:23:25.644Z</time>
      </trkpt>
      <trkpt lat="47.47247" lon="-1.8279">
        <ele>54.1832</ele>
        <time>2022-12-15T15:23:28.624Z</time>
      </trkpt>
      <trkpt lat="47.4724" lon="-1.82774">
        <ele>54.19856</ele>
        <time>2022-12-15T15:23:31.642Z</time>
      </trkpt>
      <trkpt lat="47.47236" lon="-1.82762">
        <ele>54.209317</ele>
        <time>2022-12-15T15:23:33.668Z</time>
      </trkpt>
      <trkpt lat="47.47229" lon="-1.82745">
        <ele>54.225636</ele>
        <time>2022-12-15T15:23:36.626Z</time>
      </trkpt>
      <trkpt lat="47.47223" lon="-1.82733">
        <ele>54.236825</ele>
        <time>2022-12-15T15:23:38.636Z</time>
      </trkpt>
      <trkpt lat="47.47218" lon="-1.82722">
        <ele>54.248152</ele>
        <time>2022-12-15T15:23:40.638Z</time>
      </trkpt>
      <trkpt lat="47.4721" lon="-1.82705">
        <ele>54.264243</ele>
        <time>2022-12-15T15:23:43.638Z</time>
      </trkpt>
      <trkpt lat="47.47205" lon="-1.82693">
        <ele>54.275101</ele>
        <time>2022-12-15T15:23:45.638Z</time>
      </trkpt>
      <trkpt lat="47.47201" lon="-1.82681">
        <ele>54.286115</ele>
        <time>2022-12-15T15:23:47.644Z</time>
      </trkpt>
      <trkpt lat="47.47195" lon="-1.8267">
        <ele>54.296907</ele>
        <time>2022-12-15T15:23:49.639Z</time>
      </trkpt>
      <trkpt lat="47.4719" lon="-1.82658">
        <ele>54.308891</ele>
        <time>2022-12-15T15:23:51.638Z</time>
      </trkpt>
      <trkpt lat="47.47184" lon="-1.82646">
        <ele>54.324097</ele>
        <time>2022-12-15T15:23:53.643Z</time>
      </trkpt>
      <trkpt lat="47.47179" lon="-1.82633">
        <ele>54.34238</ele>
        <time>2022-12-15T15:23:55.632Z</time>
      </trkpt>
      <trkpt lat="47.47175" lon="-1.8262">
        <ele>54.359438</ele>
        <time>2022-12-15T15:23:57.634Z</time>
      </trkpt>
      <trkpt lat="47.47171" lon="-1.82607">
        <ele>54.376543</ele>
        <time>2022-12-15T15:23:59.638Z</time>
      </trkpt>
      <trkpt lat="47.47167" lon="-1.82593">
        <ele>54.394436</ele>
        <time>2022-12-15T15:24:01.631Z</time>
      </trkpt>
      <trkpt lat="47.47163" lon="-1.8258">
        <ele>54.411494</ele>
        <time>2022-12-15T15:24:03.641Z</time>
      </trkpt>
      <trkpt lat="47.47158" lon="-1.82568">
        <ele>54.428679</ele>
        <time>2022-12-15T15:24:05.643Z</time>
      </trkpt>
      <trkpt lat="47.47155" lon="-1.82554">
        <ele>54.445911</ele>
        <time>2022-12-15T15:24:07.643Z</time>
      </trkpt>
      <trkpt lat="47.4715" lon="-1.82536">
        <ele>54.469114</ele>
        <time>2022-12-15T15:24:10.638Z</time>
      </trkpt>
      <trkpt lat="47.47146" lon="-1.82519">
        <ele>54.490362</ele>
        <time>2022-12-15T15:24:13.636Z</time>
      </trkpt>
      <trkpt lat="47.47143" lon="-1.82502">
        <ele>54.511692</ele>
        <time>2022-12-15T15:24:16.641Z</time>
      </trkpt>
      <trkpt lat="47.4714" lon="-1.82484">
        <ele>54.534704</ele>
        <time>2022-12-15T15:24:19.642Z</time>
      </trkpt>
      <trkpt lat="47.47137" lon="-1.82464">
        <ele>54.55813</ele>
        <time>2022-12-15T15:24:22.640Z</time>
      </trkpt>
      <trkpt lat="47.47135" lon="-1.82451">
        <ele>54.574318</ele>
        <time>2022-12-15T15:24:24.638Z</time>
      </trkpt>
      <trkpt lat="47.47132" lon="-1.82437">
        <ele>54.591415</ele>
        <time>2022-12-15T15:24:26.634Z</time>
      </trkpt>
      <trkpt lat="47.47129" lon="-1.82417">
        <ele>54.616051</ele>
        <time>2022-12-15T15:24:29.641Z</time>
      </trkpt>
      <trkpt lat="47.47126" lon="-1.82404">
        <ele>54.641687</ele>
        <time>2022-12-15T15:24:31.639Z</time>
      </trkpt>
      <trkpt lat="47.47122" lon="-1.82392">
        <ele>54.757402</ele>
        <time>2022-12-15T15:24:33.629Z</time>
      </trkpt>
      <trkpt lat="47.47118" lon="-1.82379">
        <ele>54.878193</ele>
        <time>2022-12-15T15:24:35.623Z</time>
      </trkpt>
      <trkpt lat="47.47114" lon="-1.82367">
        <ele>54.990699</ele>
        <time>2022-12-15T15:24:37.638Z</time>
      </trkpt>
      <trkpt lat="47.47109" lon="-1.82355">
        <ele>55.106129</ele>
        <time>2022-12-15T15:24:39.647Z</time>
      </trkpt>
      <trkpt lat="47.47103" lon="-1.82339">
        <ele>55.256147</ele>
        <time>2022-12-15T15:24:42.641Z</time>
      </trkpt>
      <trkpt lat="47.47097" lon="-1.82324">
        <ele>55.401031</ele>
        <time>2022-12-15T15:24:45.639Z</time>
      </trkpt>
      <trkpt lat="47.4709" lon="-1.8231">
        <ele>55.551525</ele>
        <time>2022-12-15T15:24:48.640Z</time>
      </trkpt>
      <trkpt lat="47.47082" lon="-1.82294">
        <ele>55.713152</ele>
        <time>2022-12-15T15:24:51.628Z</time>
      </trkpt>
      <trkpt lat="47.47074" lon="-1.82278">
        <ele>55.876095</ele>
        <time>2022-12-15T15:24:54.628Z</time>
      </trkpt>
      <trkpt lat="47.47067" lon="-1.82263">
        <ele>56.032833</ele>
        <time>2022-12-15T15:24:57.628Z</time>
      </trkpt>
      <trkpt lat="47.4706" lon="-1.82249">
        <ele>56.177199</ele>
        <time>2022-12-15T15:25:00.634Z</time>
      </trkpt>
      <trkpt lat="47.47053" lon="-1.82237">
        <ele>56.311905</ele>
        <time>2022-12-15T15:25:03.641Z</time>
      </trkpt>
      <trkpt lat="47.47046" lon="-1.82223">
        <ele>56.454272</ele>
        <time>2022-12-15T15:25:06.632Z</time>
      </trkpt>
      <trkpt lat="47.47039" lon="-1.82207">
        <ele>56.616533</ele>
        <time>2022-12-15T15:25:09.642Z</time>
      </trkpt>
      <trkpt lat="47.47032" lon="-1.82191">
        <ele>56.781611</ele>
        <time>2022-12-15T15:25:12.643Z</time>
      </trkpt>
      <trkpt lat="47.47027" lon="-1.82178">
        <ele>56.862094</ele>
        <time>2022-12-15T15:25:14.642Z</time>
      </trkpt>
      <trkpt lat="47.47023" lon="-1.82166">
        <ele>56.874181</ele>
        <time>2022-12-15T15:25:16.645Z</time>
      </trkpt>
      <trkpt lat="47.47016" lon="-1.82149">
        <ele>56.89199</ele>
        <time>2022-12-15T15:25:19.641Z</time>
      </trkpt>
      <trkpt lat="47.4701" lon="-1.82131">
        <ele>56.910114</ele>
        <time>2022-12-15T15:25:22.646Z</time>
      </trkpt>
      <trkpt lat="47.47006" lon="-1.82118">
        <ele>56.922255</ele>
        <time>2022-12-15T15:25:24.662Z</time>
      </trkpt>
      <trkpt lat="47.47002" lon="-1.82105">
        <ele>56.935211</ele>
        <time>2022-12-15T15:25:26.626Z</time>
      </trkpt>
      <trkpt lat="47.46998" lon="-1.82093">
        <ele>56.947506</ele>
        <time>2022-12-15T15:25:28.644Z</time>
      </trkpt>
      <trkpt lat="47.46993" lon="-1.82076">
        <ele>56.963461</ele>
        <time>2022-12-15T15:25:31.638Z</time>
      </trkpt>
      <trkpt lat="47.46989" lon="-1.82058">
        <ele>56.980136</ele>
        <time>2022-12-15T15:25:34.639Z</time>
      </trkpt>
      <trkpt lat="47.46986" lon="-1.82046">
        <ele>56.992292</ele>
        <time>2022-12-15T15:25:36.639Z</time>
      </trkpt>
      <trkpt lat="47.46982" lon="-1.82027">
        <ele>57.009726</ele>
        <time>2022-12-15T15:25:39.629Z</time>
      </trkpt>
      <trkpt lat="47.4698" lon="-1.82014">
        <ele>57.021599</ele>
        <time>2022-12-15T15:25:41.628Z</time>
      </trkpt>
      <trkpt lat="47.46978" lon="-1.82001">
        <ele>57.03377</ele>
        <time>2022-12-15T15:25:43.634Z</time>
      </trkpt>
      <trkpt lat="47.46977" lon="-1.81987">
        <ele>57.045992</ele>
        <time>2022-12-15T15:25:45.645Z</time>
      </trkpt>
      <trkpt lat="47.46976" lon="-1.81973">
        <ele>57.058391</ele>
        <time>2022-12-15T15:25:47.640Z</time>
      </trkpt>
      <trkpt lat="47.46974" lon="-1.81954">
        <ele>57.076031</ele>
        <time>2022-12-15T15:25:50.640Z</time>
      </trkpt>
      <trkpt lat="47.46973" lon="-1.81936">
        <ele>57.092292</ele>
        <time>2022-12-15T15:25:53.644Z</time>
      </trkpt>
      <trkpt lat="47.46972" lon="-1.81917">
        <ele>57.170984</ele>
        <time>2022-12-15T15:25:56.637Z</time>
      </trkpt>
      <trkpt lat="47.46971" lon="-1.81898">
        <ele>57.258764</ele>
        <time>2022-12-15T15:25:59.643Z</time>
      </trkpt>
      <trkpt lat="47.46971" lon="-1.81879">
        <ele>57.349839</ele>
        <time>2022-12-15T15:26:02.648Z</time>
      </trkpt>
      <trkpt lat="47.46972" lon="-1.8186">
        <ele>57.440766</ele>
        <time>2022-12-15T15:26:05.624Z</time>
      </trkpt>
      <trkpt lat="47.46974" lon="-1.81842">
        <ele>57.526687</ele>
        <time>2022-12-15T15:26:08.631Z</time>
      </trkpt>
      <trkpt lat="47.46975" lon="-1.81825">
        <ele>57.612875</ele>
        <time>2022-12-15T15:26:11.644Z</time>
      </trkpt>
      <trkpt lat="47.46978" lon="-1.81805">
        <ele>57.708396</ele>
        <time>2022-12-15T15:26:14.639Z</time>
      </trkpt>
      <trkpt lat="47.46981" lon="-1.81792">
        <ele>57.773394</ele>
        <time>2022-12-15T15:26:16.644Z</time>
      </trkpt>
      <trkpt lat="47.46983" lon="-1.81779">
        <ele>57.83811</ele>
        <time>2022-12-15T15:26:18.629Z</time>
      </trkpt>
      <trkpt lat="47.46986" lon="-1.81766">
        <ele>57.902713</ele>
        <time>2022-12-15T15:26:20.631Z</time>
      </trkpt>
      <trkpt lat="47.4699" lon="-1.81748">
        <ele>57.994915</ele>
        <time>2022-12-15T15:26:23.623Z</time>
      </trkpt>
      <trkpt lat="47.46995" lon="-1.8173">
        <ele>58.087976</ele>
        <time>2022-12-15T15:26:26.631Z</time>
      </trkpt>
      <trkpt lat="47.47" lon="-1.81717">
        <ele>58.156558</ele>
        <time>2022-12-15T15:26:28.631Z</time>
      </trkpt>
      <trkpt lat="47.47006" lon="-1.81698">
        <ele>58.25466</ele>
        <time>2022-12-15T15:26:31.627Z</time>
      </trkpt>
      <trkpt lat="47.47009" lon="-1.81685">
        <ele>58.319885</ele>
        <time>2022-12-15T15:26:33.642Z</time>
      </trkpt>
      <trkpt lat="47.47013" lon="-1.81667">
        <ele>58.361201</ele>
        <time>2022-12-15T15:26:36.641Z</time>
      </trkpt>
      <trkpt lat="47.47017" lon="-1.8165">
        <ele>58.35687</ele>
        <time>2022-12-15T15:26:39.629Z</time>
      </trkpt>
      <trkpt lat="47.47019" lon="-1.81631">
        <ele>58.352179</ele>
        <time>2022-12-15T15:26:42.644Z</time>
      </trkpt>
      <trkpt lat="47.47021" lon="-1.81618">
        <ele>58.348934</ele>
        <time>2022-12-15T15:26:44.645Z</time>
      </trkpt>
      <trkpt lat="47.47023" lon="-1.81604">
        <ele>58.345595</ele>
        <time>2022-12-15T15:26:46.637Z</time>
      </trkpt>
      <trkpt lat="47.47025" lon="-1.81584">
        <ele>58.34074</ele>
        <time>2022-12-15T15:26:49.643Z</time>
      </trkpt>
      <trkpt lat="47.47026" lon="-1.81563">
        <ele>58.33586</ele>
        <time>2022-12-15T15:26:52.640Z</time>
      </trkpt>
      <trkpt lat="47.47027" lon="-1.81549">
        <ele>58.332369</ele>
        <time>2022-12-15T15:26:54.626Z</time>
      </trkpt>
      <trkpt lat="47.47027" lon="-1.8153">
        <ele>58.327857</ele>
        <time>2022-12-15T15:26:57.641Z</time>
      </trkpt>
      <trkpt lat="47.47027" lon="-1.81513">
        <ele>58.323796</ele>
        <time>2022-12-15T15:27:00.628Z</time>
      </trkpt>
      <trkpt lat="47.47027" lon="-1.81495">
        <ele>58.319475</ele>
        <time>2022-12-15T15:27:03.643Z</time>
      </trkpt>
      <trkpt lat="47.47028" lon="-1.81482">
        <ele>58.316297</ele>
        <time>2022-12-15T15:27:05.635Z</time>
      </trkpt>
      <trkpt lat="47.47028" lon="-1.81463">
        <ele>58.311952</ele>
        <time>2022-12-15T15:27:08.646Z</time>
      </trkpt>
      <trkpt lat="47.47028" lon="-1.81445">
        <ele>58.30756</ele>
        <time>2022-12-15T15:27:11.632Z</time>
      </trkpt>
      <trkpt lat="47.47027" lon="-1.81426">
        <ele>58.303032</ele>
        <time>2022-12-15T15:27:14.632Z</time>
      </trkpt>
      <trkpt lat="47.47026" lon="-1.81413">
        <ele>58.295888</ele>
        <time>2022-12-15T15:27:16.634Z</time>
      </trkpt>
      <trkpt lat="47.47025" lon="-1.81394">
        <ele>58.174858</ele>
        <time>2022-12-15T15:27:19.644Z</time>
      </trkpt>
      <trkpt lat="47.47024" lon="-1.81376">
        <ele>58.058865</ele>
        <time>2022-12-15T15:27:22.645Z</time>
      </trkpt>
      <trkpt lat="47.47023" lon="-1.81357">
        <ele>57.941525</ele>
        <time>2022-12-15T15:27:25.640Z</time>
      </trkpt>
      <trkpt lat="47.47022" lon="-1.81339">
        <ele>57.820284</ele>
        <time>2022-12-15T15:27:28.646Z</time>
      </trkpt>
      <trkpt lat="47.47021" lon="-1.81321">
        <ele>57.708592</ele>
        <time>2022-12-15T15:27:31.633Z</time>
      </trkpt>
      <trkpt lat="47.4702" lon="-1.81302">
        <ele>57.584631</ele>
        <time>2022-12-15T15:27:34.631Z</time>
      </trkpt>
      <trkpt lat="47.47019" lon="-1.81288">
        <ele>57.498111</ele>
        <time>2022-12-15T15:27:36.648Z</time>
      </trkpt>
      <trkpt lat="47.47017" lon="-1.8127">
        <ele>57.376374</ele>
        <time>2022-12-15T15:27:39.634Z</time>
      </trkpt>
      <trkpt lat="47.47014" lon="-1.81252">
        <ele>57.258735</ele>
        <time>2022-12-15T15:27:42.634Z</time>
      </trkpt>
      <trkpt lat="47.47011" lon="-1.81233">
        <ele>57.137143</ele>
        <time>2022-12-15T15:27:45.631Z</time>
      </trkpt>
      <trkpt lat="47.47008" lon="-1.81216">
        <ele>57.024176</ele>
        <time>2022-12-15T15:27:48.629Z</time>
      </trkpt>
      <trkpt lat="47.47004" lon="-1.81198">
        <ele>56.902779</ele>
        <time>2022-12-15T15:27:51.635Z</time>
      </trkpt>
      <trkpt lat="47.47" lon="-1.8118">
        <ele>56.783197</ele>
        <time>2022-12-15T15:27:54.628Z</time>
      </trkpt>
      <trkpt lat="47.46995" lon="-1.81164">
        <ele>56.666038</ele>
        <time>2022-12-15T15:27:57.640Z</time>
      </trkpt>
      <trkpt lat="47.46991" lon="-1.81151">
        <ele>56.610871</ele>
        <time>2022-12-15T15:27:59.633Z</time>
      </trkpt>
      <trkpt lat="47.46985" lon="-1.81133">
        <ele>56.67444</ele>
        <time>2022-12-15T15:28:02.626Z</time>
      </trkpt>
      <trkpt lat="47.46979" lon="-1.81118">
        <ele>56.734765</ele>
        <time>2022-12-15T15:28:05.646Z</time>
      </trkpt>
      <trkpt lat="47.46972" lon="-1.81103">
        <ele>56.792883</ele>
        <time>2022-12-15T15:28:08.643Z</time>
      </trkpt>
      <trkpt lat="47.46966" lon="-1.81092">
        <ele>56.839055</ele>
        <time>2022-12-15T15:28:11.635Z</time>
      </trkpt>
      <trkpt lat="47.46959" lon="-1.81079">
        <ele>56.893763</ele>
        <time>2022-12-15T15:28:15.642Z</time>
      </trkpt>
      <trkpt lat="47.46952" lon="-1.81067">
        <ele>56.943429</ele>
        <time>2022-12-15T15:28:18.628Z</time>
      </trkpt>
      <trkpt lat="47.46944" lon="-1.81055">
        <ele>57.000833</ele>
        <time>2022-12-15T15:28:21.645Z</time>
      </trkpt>
      <trkpt lat="47.46936" lon="-1.81042">
        <ele>57.0572</ele>
        <time>2022-12-15T15:28:24.645Z</time>
      </trkpt>
      <trkpt lat="47.46928" lon="-1.8103">
        <ele>57.11432</ele>
        <time>2022-12-15T15:28:27.645Z</time>
      </trkpt>
      <trkpt lat="47.46919" lon="-1.81016">
        <ele>57.175849</ele>
        <time>2022-12-15T15:28:30.648Z</time>
      </trkpt>
      <trkpt lat="47.46912" lon="-1.81007">
        <ele>57.219621</ele>
        <time>2022-12-15T15:28:32.645Z</time>
      </trkpt>
      <trkpt lat="47.46906" lon="-1.80997">
        <ele>57.263512</ele>
        <time>2022-12-15T15:28:34.645Z</time>
      </trkpt>
      <trkpt lat="47.46899" lon="-1.80987">
        <ele>57.308921</ele>
        <time>2022-12-15T15:28:36.638Z</time>
      </trkpt>
      <trkpt lat="47.46893" lon="-1.80976">
        <ele>57.356029</ele>
        <time>2022-12-15T15:28:38.639Z</time>
      </trkpt>
      <trkpt lat="47.46888" lon="-1.80965">
        <ele>57.400632</ele>
        <time>2022-12-15T15:28:40.643Z</time>
      </trkpt>
      <trkpt lat="47.4688" lon="-1.80948">
        <ele>57.466328</ele>
        <time>2022-12-15T15:28:43.647Z</time>
      </trkpt>
      <trkpt lat="47.46874" lon="-1.80936">
        <ele>57.534274</ele>
        <time>2022-12-15T15:28:45.630Z</time>
      </trkpt>
      <trkpt lat="47.46868" lon="-1.80925">
        <ele>57.599814</ele>
        <time>2022-12-15T15:28:47.641Z</time>
      </trkpt>
      <trkpt lat="47.46862" lon="-1.80909">
        <ele>57.683203</ele>
        <time>2022-12-15T15:28:50.643Z</time>
      </trkpt>
      <trkpt lat="47.46856" lon="-1.80895">
        <ele>57.757748</ele>
        <time>2022-12-15T15:28:53.629Z</time>
      </trkpt>
      <trkpt lat="47.4685" lon="-1.8088">
        <ele>57.835777</ele>
        <time>2022-12-15T15:28:56.629Z</time>
      </trkpt>
      <trkpt lat="47.46846" lon="-1.80865">
        <ele>57.912989</ele>
        <time>2022-12-15T15:28:59.644Z</time>
      </trkpt>
      <trkpt lat="47.46842" lon="-1.80848">
        <ele>57.992941</ele>
        <time>2022-12-15T15:29:02.629Z</time>
      </trkpt>
      <trkpt lat="47.46838" lon="-1.80829">
        <ele>58.082006</ele>
        <time>2022-12-15T15:29:05.638Z</time>
      </trkpt>
      <trkpt lat="47.46835" lon="-1.80811">
        <ele>58.16913</ele>
        <time>2022-12-15T15:29:08.629Z</time>
      </trkpt>
      <trkpt lat="47.46832" lon="-1.80793">
        <ele>58.25412</ele>
        <time>2022-12-15T15:29:11.644Z</time>
      </trkpt>
      <trkpt lat="47.46829" lon="-1.80775">
        <ele>58.336439</ele>
        <time>2022-12-15T15:29:14.635Z</time>
      </trkpt>
      <trkpt lat="47.46828" lon="-1.80757">
        <ele>58.419338</ele>
        <time>2022-12-15T15:29:17.636Z</time>
      </trkpt>
      <trkpt lat="47.46827" lon="-1.80738">
        <ele>58.505641</ele>
        <time>2022-12-15T15:29:20.643Z</time>
      </trkpt>
      <trkpt lat="47.46826" lon="-1.80719">
        <ele>58.594293</ele>
        <time>2022-12-15T15:29:23.640Z</time>
      </trkpt>
      <trkpt lat="47.46826" lon="-1.80699">
        <ele>58.679487</ele>
        <time>2022-12-15T15:29:26.642Z</time>
      </trkpt>
      <trkpt lat="47.46826" lon="-1.80681">
        <ele>58.608644</ele>
        <time>2022-12-15T15:29:29.642Z</time>
      </trkpt>
      <trkpt lat="47.46827" lon="-1.80664">
        <ele>58.544971</ele>
        <time>2022-12-15T15:29:32.640Z</time>
      </trkpt>
      <trkpt lat="47.46828" lon="-1.80647">
        <ele>58.477373</ele>
        <time>2022-12-15T15:29:35.631Z</time>
      </trkpt>
      <trkpt lat="47.4683" lon="-1.80629">
        <ele>58.408397</ele>
        <time>2022-12-15T15:29:38.642Z</time>
      </trkpt>
      <trkpt lat="47.46831" lon="-1.8061">
        <ele>58.335694</ele>
        <time>2022-12-15T15:29:41.625Z</time>
      </trkpt>
      <trkpt lat="47.46833" lon="-1.80592">
        <ele>58.263869</ele>
        <time>2022-12-15T15:29:44.643Z</time>
      </trkpt>
      <trkpt lat="47.46836" lon="-1.80573">
        <ele>58.19071</ele>
        <time>2022-12-15T15:29:47.643Z</time>
      </trkpt>
      <trkpt lat="47.46838" lon="-1.80556">
        <ele>58.122496</ele>
        <time>2022-12-15T15:29:50.637Z</time>
      </trkpt>
      <trkpt lat="47.4684" lon="-1.80538">
        <ele>58.051991</ele>
        <time>2022-12-15T15:29:53.642Z</time>
      </trkpt>
      <trkpt lat="47.46842" lon="-1.80521">
        <ele>57.984909</ele>
        <time>2022-12-15T15:29:56.646Z</time>
      </trkpt>
      <trkpt lat="47.46844" lon="-1.80503">
        <ele>57.916933</ele>
        <time>2022-12-15T15:29:59.622Z</time>
      </trkpt>
      <trkpt lat="47.46846" lon="-1.80485">
        <ele>57.846693</ele>
        <time>2022-12-15T15:30:02.644Z</time>
      </trkpt>
      <trkpt lat="47.46849" lon="-1.80467">
        <ele>57.774291</ele>
        <time>2022-12-15T15:30:05.640Z</time>
      </trkpt>
      <trkpt lat="47.4685" lon="-1.80454">
        <ele>57.722948</ele>
        <time>2022-12-15T15:30:07.647Z</time>
      </trkpt>
      <trkpt lat="47.46851" lon="-1.80441">
        <ele>57.671519</ele>
        <time>2022-12-15T15:30:09.641Z</time>
      </trkpt>
      <trkpt lat="47.46853" lon="-1.80421">
        <ele>57.637052</ele>
        <time>2022-12-15T15:30:12.645Z</time>
      </trkpt>
      <trkpt lat="47.46855" lon="-1.80402">
        <ele>57.613083</ele>
        <time>2022-12-15T15:30:15.645Z</time>
      </trkpt>
      <trkpt lat="47.46858" lon="-1.80384">
        <ele>57.591061</ele>
        <time>2022-12-15T15:30:18.628Z</time>
      </trkpt>
      <trkpt lat="47.46859" lon="-1.80368">
        <ele>57.571003</ele>
        <time>2022-12-15T15:30:21.635Z</time>
      </trkpt>
      <trkpt lat="47.46861" lon="-1.80352">
        <ele>57.550059</ele>
        <time>2022-12-15T15:30:24.632Z</time>
      </trkpt>
      <trkpt lat="47.46864" lon="-1.80335">
        <ele>57.528716</ele>
        <time>2022-12-15T15:30:27.631Z</time>
      </trkpt>
      <trkpt lat="47.46865" lon="-1.80317">
        <ele>57.506348</ele>
        <time>2022-12-15T15:30:30.633Z</time>
      </trkpt>
      <trkpt lat="47.46867" lon="-1.80299">
        <ele>57.483996</ele>
        <time>2022-12-15T15:30:33.638Z</time>
      </trkpt>
      <trkpt lat="47.4687" lon="-1.80281">
        <ele>57.460441</ele>
        <time>2022-12-15T15:30:36.640Z</time>
      </trkpt>
      <trkpt lat="47.46872" lon="-1.80262">
        <ele>57.436504</ele>
        <time>2022-12-15T15:30:39.639Z</time>
      </trkpt>
      <trkpt lat="47.46874" lon="-1.80248">
        <ele>57.419365</ele>
        <time>2022-12-15T15:30:41.642Z</time>
      </trkpt>
      <trkpt lat="47.46877" lon="-1.80229">
        <ele>57.395428</ele>
        <time>2022-12-15T15:30:44.639Z</time>
      </trkpt>
      <trkpt lat="47.46878" lon="-1.80216">
        <ele>57.378736</ele>
        <time>2022-12-15T15:30:46.633Z</time>
      </trkpt>
      <trkpt lat="47.4688" lon="-1.80198">
        <ele>57.356467</ele>
        <time>2022-12-15T15:30:49.644Z</time>
      </trkpt>
      <trkpt lat="47.46882" lon="-1.80182">
        <ele>57.336741</ele>
        <time>2022-12-15T15:30:52.636Z</time>
      </trkpt>
      <trkpt lat="47.46884" lon="-1.80166">
        <ele>57.314033</ele>
        <time>2022-12-15T15:30:55.637Z</time>
      </trkpt>
      <trkpt lat="47.46886" lon="-1.80149">
        <ele>57.287384</ele>
        <time>2022-12-15T15:30:58.635Z</time>
      </trkpt>
      <trkpt lat="47.46888" lon="-1.80131">
        <ele>57.259509</ele>
        <time>2022-12-15T15:31:01.648Z</time>
      </trkpt>
      <trkpt lat="47.4689" lon="-1.80113">
        <ele>57.231132</ele>
        <time>2022-12-15T15:31:04.626Z</time>
      </trkpt>
      <trkpt lat="47.46892" lon="-1.80094">
        <ele>57.203219</ele>
        <time>2022-12-15T15:31:07.635Z</time>
      </trkpt>
      <trkpt lat="47.46894" lon="-1.80076">
        <ele>57.174928</ele>
        <time>2022-12-15T15:31:10.626Z</time>
      </trkpt>
      <trkpt lat="47.46896" lon="-1.80057">
        <ele>57.145929</ele>
        <time>2022-12-15T15:31:13.628Z</time>
      </trkpt>
      <trkpt lat="47.46899" lon="-1.80038">
        <ele>57.116125</ele>
        <time>2022-12-15T15:31:16.638Z</time>
      </trkpt>
      <trkpt lat="47.46902" lon="-1.8002">
        <ele>57.088344</ele>
        <time>2022-12-15T15:31:19.638Z</time>
      </trkpt>
      <trkpt lat="47.46904" lon="-1.80002">
        <ele>57.060469</ele>
        <time>2022-12-15T15:31:22.643Z</time>
      </trkpt>
      <trkpt lat="47.46906" lon="-1.79983">
        <ele>57.031357</ele>
        <time>2022-12-15T15:31:25.643Z</time>
      </trkpt>
      <trkpt lat="47.46908" lon="-1.79966">
        <ele>57.004831</ele>
        <time>2022-12-15T15:31:28.636Z</time>
      </trkpt>
      <trkpt lat="47.4691" lon="-1.79949">
        <ele>56.979053</ele>
        <time>2022-12-15T15:31:31.637Z</time>
      </trkpt>
      <trkpt lat="47.46912" lon="-1.79932">
        <ele>56.951849</ele>
        <time>2022-12-15T15:31:34.640Z</time>
      </trkpt>
      <trkpt lat="47.46914" lon="-1.79914">
        <ele>56.923824</ele>
        <time>2022-12-15T15:31:37.636Z</time>
      </trkpt>
      <trkpt lat="47.46917" lon="-1.79895">
        <ele>56.914143</ele>
        <time>2022-12-15T15:31:40.638Z</time>
      </trkpt>
      <trkpt lat="47.46918" lon="-1.79882">
        <ele>56.90779</ele>
        <time>2022-12-15T15:31:42.642Z</time>
      </trkpt>
      <trkpt lat="47.46919" lon="-1.79869">
        <ele>56.90138</ele>
        <time>2022-12-15T15:31:44.625Z</time>
      </trkpt>
      <trkpt lat="47.46921" lon="-1.79855">
        <ele>56.89491</ele>
        <time>2022-12-15T15:31:46.626Z</time>
      </trkpt>
      <trkpt lat="47.46922" lon="-1.79836">
        <ele>56.885682</ele>
        <time>2022-12-15T15:31:49.627Z</time>
      </trkpt>
      <trkpt lat="47.46925" lon="-1.79817">
        <ele>56.876294</ele>
        <time>2022-12-15T15:31:52.642Z</time>
      </trkpt>
      <trkpt lat="47.46927" lon="-1.79799">
        <ele>56.867704</ele>
        <time>2022-12-15T15:31:55.643Z</time>
      </trkpt>
      <trkpt lat="47.46928" lon="-1.79784">
        <ele>56.860504</ele>
        <time>2022-12-15T15:31:58.644Z</time>
      </trkpt>
      <trkpt lat="47.4693" lon="-1.79766">
        <ele>56.852052</ele>
        <time>2022-12-15T15:32:02.645Z</time>
      </trkpt>
      <trkpt lat="47.46931" lon="-1.79752">
        <ele>56.845107</ele>
        <time>2022-12-15T15:32:05.644Z</time>
      </trkpt>
      <trkpt lat="47.46934" lon="-1.79737">
        <ele>56.837819</ele>
        <time>2022-12-15T15:32:08.641Z</time>
      </trkpt>
      <trkpt lat="47.46936" lon="-1.79721">
        <ele>56.829965</ele>
        <time>2022-12-15T15:32:11.643Z</time>
      </trkpt>
      <trkpt lat="47.46939" lon="-1.79705">
        <ele>56.822143</ele>
        <time>2022-12-15T15:32:14.625Z</time>
      </trkpt>
      <trkpt lat="47.46942" lon="-1.79688">
        <ele>56.813974</ele>
        <time>2022-12-15T15:32:17.644Z</time>
      </trkpt>
      <trkpt lat="47.46944" lon="-1.79672">
        <ele>56.806071</ele>
        <time>2022-12-15T15:32:20.630Z</time>
      </trkpt>
      <trkpt lat="47.46946" lon="-1.79656">
        <ele>56.798189</ele>
        <time>2022-12-15T15:32:23.630Z</time>
      </trkpt>
      <trkpt lat="47.46947" lon="-1.79638">
        <ele>56.867642</ele>
        <time>2022-12-15T15:32:26.646Z</time>
      </trkpt>
      <trkpt lat="47.46949" lon="-1.79619">
        <ele>56.966128</ele>
        <time>2022-12-15T15:32:29.644Z</time>
      </trkpt>
      <trkpt lat="47.46951" lon="-1.796">
        <ele>57.065128</ele>
        <time>2022-12-15T15:32:32.638Z</time>
      </trkpt>
      <trkpt lat="47.46952" lon="-1.79583">
        <ele>57.155257</ele>
        <time>2022-12-15T15:32:35.647Z</time>
      </trkpt>
      <trkpt lat="47.46954" lon="-1.79566">
        <ele>57.244248</ele>
        <time>2022-12-15T15:32:38.645Z</time>
      </trkpt>
      <trkpt lat="47.46956" lon="-1.79547">
        <ele>57.341424</ele>
        <time>2022-12-15T15:32:41.637Z</time>
      </trkpt>
      <trkpt lat="47.46958" lon="-1.79529">
        <ele>57.437969</ele>
        <time>2022-12-15T15:32:44.648Z</time>
      </trkpt>
      <trkpt lat="47.4696" lon="-1.7951">
        <ele>57.53834</ele>
        <time>2022-12-15T15:32:47.635Z</time>
      </trkpt>
      <trkpt lat="47.46962" lon="-1.79491">
        <ele>57.638458</ele>
        <time>2022-12-15T15:32:50.636Z</time>
      </trkpt>
      <trkpt lat="47.46963" lon="-1.79474">
        <ele>57.728661</ele>
        <time>2022-12-15T15:32:53.640Z</time>
      </trkpt>
      <trkpt lat="47.46965" lon="-1.79457">
        <ele>57.816771</ele>
        <time>2022-12-15T15:32:56.630Z</time>
      </trkpt>
      <trkpt lat="47.46967" lon="-1.7944">
        <ele>57.903076</ele>
        <time>2022-12-15T15:32:59.632Z</time>
      </trkpt>
      <trkpt lat="47.46969" lon="-1.79424">
        <ele>57.987597</ele>
        <time>2022-12-15T15:33:02.645Z</time>
      </trkpt>
      <trkpt lat="47.46971" lon="-1.79408">
        <ele>58.07498</ele>
        <time>2022-12-15T15:33:05.644Z</time>
      </trkpt>
      <trkpt lat="47.46973" lon="-1.79391">
        <ele>58.162015</ele>
        <time>2022-12-15T15:33:08.636Z</time>
      </trkpt>
      <trkpt lat="47.46976" lon="-1.79374">
        <ele>58.123999</ele>
        <time>2022-12-15T15:33:11.630Z</time>
      </trkpt>
      <trkpt lat="47.46978" lon="-1.79359">
        <ele>58.068208</ele>
        <time>2022-12-15T15:33:14.632Z</time>
      </trkpt>
      <trkpt lat="47.4698" lon="-1.79346">
        <ele>58.020344</ele>
        <time>2022-12-15T15:33:17.644Z</time>
      </trkpt>
      <trkpt lat="47.46983" lon="-1.79331">
        <ele>57.963859</ele>
        <time>2022-12-15T15:33:21.646Z</time>
      </trkpt>
      <trkpt lat="47.46987" lon="-1.79313">
        <ele>57.898055</ele>
        <time>2022-12-15T15:33:25.647Z</time>
      </trkpt>
      <trkpt lat="47.4699" lon="-1.79297">
        <ele>57.837663</ele>
        <time>2022-12-15T15:33:28.644Z</time>
      </trkpt>
      <trkpt lat="47.46994" lon="-1.7928">
        <ele>57.772168</ele>
        <time>2022-12-15T15:33:31.646Z</time>
      </trkpt>
      <trkpt lat="47.46997" lon="-1.79262">
        <ele>57.705794</ele>
        <time>2022-12-15T15:33:34.651Z</time>
      </trkpt>
      <trkpt lat="47.47001" lon="-1.79244">
        <ele>57.637935</ele>
        <time>2022-12-15T15:33:37.638Z</time>
      </trkpt>
      <trkpt lat="47.47005" lon="-1.79225">
        <ele>57.567709</ele>
        <time>2022-12-15T15:33:40.647Z</time>
      </trkpt>
      <trkpt lat="47.47009" lon="-1.79207">
        <ele>57.497661</ele>
        <time>2022-12-15T15:33:43.645Z</time>
      </trkpt>
      <trkpt lat="47.47014" lon="-1.79188">
        <ele>57.426767</ele>
        <time>2022-12-15T15:33:46.647Z</time>
      </trkpt>
      <trkpt lat="47.47017" lon="-1.79174">
        <ele>57.375031</ele>
        <time>2022-12-15T15:33:48.646Z</time>
      </trkpt>
      <trkpt lat="47.4702" lon="-1.79161">
        <ele>57.326356</ele>
        <time>2022-12-15T15:33:50.647Z</time>
      </trkpt>
      <trkpt lat="47.47023" lon="-1.79148">
        <ele>57.275445</ele>
        <time>2022-12-15T15:33:52.642Z</time>
      </trkpt>
      <trkpt lat="47.47026" lon="-1.79135">
        <ele>57.226426</ele>
        <time>2022-12-15T15:33:54.648Z</time>
      </trkpt>
      <trkpt lat="47.47029" lon="-1.79122">
        <ele>57.167876</ele>
        <time>2022-12-15T15:33:56.646Z</time>
      </trkpt>
      <trkpt lat="47.47032" lon="-1.7911">
        <ele>57.10869</ele>
        <time>2022-12-15T15:33:58.632Z</time>
      </trkpt>
      <trkpt lat="47.47035" lon="-1.79097">
        <ele>57.047409</ele>
        <time>2022-12-15T15:34:00.649Z</time>
      </trkpt>
      <trkpt lat="47.47038" lon="-1.79083">
        <ele>56.985922</ele>
        <time>2022-12-15T15:34:02.647Z</time>
      </trkpt>
      <trkpt lat="47.47041" lon="-1.79066">
        <ele>56.907959</ele>
        <time>2022-12-15T15:34:05.649Z</time>
      </trkpt>
      <trkpt lat="47.47044" lon="-1.79053">
        <ele>56.843962</ele>
        <time>2022-12-15T15:34:08.630Z</time>
      </trkpt>
      <trkpt lat="47.47047" lon="-1.79036">
        <ele>56.767322</ele>
        <time>2022-12-15T15:34:11.625Z</time>
      </trkpt>
      <trkpt lat="47.4705" lon="-1.79023">
        <ele>56.708535</ele>
        <time>2022-12-15T15:34:13.633Z</time>
      </trkpt>
      <trkpt lat="47.47055" lon="-1.79004">
        <ele>56.617763</ele>
        <time>2022-12-15T15:34:16.630Z</time>
      </trkpt>
      <trkpt lat="47.47057" lon="-1.78991">
        <ele>56.558561</ele>
        <time>2022-12-15T15:34:18.629Z</time>
      </trkpt>
      <trkpt lat="47.47061" lon="-1.78974">
        <ele>56.477919</ele>
        <time>2022-12-15T15:34:21.636Z</time>
      </trkpt>
      <trkpt lat="47.47065" lon="-1.78957">
        <ele>56.400488</ele>
        <time>2022-12-15T15:34:24.640Z</time>
      </trkpt>
      <trkpt lat="47.47069" lon="-1.7894">
        <ele>56.31976</ele>
        <time>2022-12-15T15:34:27.645Z</time>
      </trkpt>
      <trkpt lat="47.47071" lon="-1.78924">
        <ele>56.246805</ele>
        <time>2022-12-15T15:34:30.645Z</time>
      </trkpt>
      <trkpt lat="47.47075" lon="-1.78907">
        <ele>56.167728</ele>
        <time>2022-12-15T15:34:33.646Z</time>
      </trkpt>
      <trkpt lat="47.47079" lon="-1.78889">
        <ele>56.087835</ele>
        <time>2022-12-15T15:34:36.640Z</time>
      </trkpt>
      <trkpt lat="47.47083" lon="-1.78872">
        <ele>56.041288</ele>
        <time>2022-12-15T15:34:39.643Z</time>
      </trkpt>
      <trkpt lat="47.47086" lon="-1.78859">
        <ele>56.030833</ele>
        <time>2022-12-15T15:34:41.645Z</time>
      </trkpt>
      <trkpt lat="47.47089" lon="-1.78841">
        <ele>56.01706</ele>
        <time>2022-12-15T15:34:44.647Z</time>
      </trkpt>
      <trkpt lat="47.47092" lon="-1.78826">
        <ele>56.005056</ele>
        <time>2022-12-15T15:34:47.638Z</time>
      </trkpt>
      <trkpt lat="47.47095" lon="-1.7881">
        <ele>55.992737</ele>
        <time>2022-12-15T15:34:50.641Z</time>
      </trkpt>
      <trkpt lat="47.47099" lon="-1.78792">
        <ele>55.978297</ele>
        <time>2022-12-15T15:34:53.648Z</time>
      </trkpt>
      <trkpt lat="47.47103" lon="-1.78774">
        <ele>55.964056</ele>
        <time>2022-12-15T15:34:56.638Z</time>
      </trkpt>
      <trkpt lat="47.47106" lon="-1.78758">
        <ele>55.951302</ele>
        <time>2022-12-15T15:34:59.629Z</time>
      </trkpt>
      <trkpt lat="47.4711" lon="-1.7874">
        <ele>55.937291</ele>
        <time>2022-12-15T15:35:02.625Z</time>
      </trkpt>
      <trkpt lat="47.47113" lon="-1.78723">
        <ele>55.92314</ele>
        <time>2022-12-15T15:35:05.633Z</time>
      </trkpt>
      <trkpt lat="47.47117" lon="-1.78704">
        <ele>55.90845</ele>
        <time>2022-12-15T15:35:08.647Z</time>
      </trkpt>
      <trkpt lat="47.47121" lon="-1.78685">
        <ele>55.89347</ele>
        <time>2022-12-15T15:35:11.647Z</time>
      </trkpt>
      <trkpt lat="47.47124" lon="-1.78671">
        <ele>55.882446</ele>
        <time>2022-12-15T15:35:13.643Z</time>
      </trkpt>
      <trkpt lat="47.47128" lon="-1.78652">
        <ele>55.867425</ele>
        <time>2022-12-15T15:35:16.635Z</time>
      </trkpt>
      <trkpt lat="47.47131" lon="-1.78639">
        <ele>55.856788</ele>
        <time>2022-12-15T15:35:18.647Z</time>
      </trkpt>
      <trkpt lat="47.47135" lon="-1.78625">
        <ele>55.85685</ele>
        <time>2022-12-15T15:35:20.651Z</time>
      </trkpt>
      <trkpt lat="47.47137" lon="-1.78612">
        <ele>55.932913</ele>
        <time>2022-12-15T15:35:22.645Z</time>
      </trkpt>
      <trkpt lat="47.47141" lon="-1.78598">
        <ele>56.012029</ele>
        <time>2022-12-15T15:35:24.644Z</time>
      </trkpt>
      <trkpt lat="47.47145" lon="-1.78585">
        <ele>56.088811</ele>
        <time>2022-12-15T15:35:26.636Z</time>
      </trkpt>
      <trkpt lat="47.47147" lon="-1.78567">
        <ele>56.187635</ele>
        <time>2022-12-15T15:35:29.626Z</time>
      </trkpt>
      <trkpt lat="47.47151" lon="-1.78551">
        <ele>56.280762</ele>
        <time>2022-12-15T15:35:32.624Z</time>
      </trkpt>
      <trkpt lat="47.47155" lon="-1.78534">
        <ele>56.377208</ele>
        <time>2022-12-15T15:35:35.644Z</time>
      </trkpt>
      <trkpt lat="47.47159" lon="-1.78515">
        <ele>56.482074</ele>
        <time>2022-12-15T15:35:38.636Z</time>
      </trkpt>
      <trkpt lat="47.47162" lon="-1.78502">
        <ele>56.554662</ele>
        <time>2022-12-15T15:35:40.643Z</time>
      </trkpt>
      <trkpt lat="47.47166" lon="-1.78484">
        <ele>56.661313</ele>
        <time>2022-12-15T15:35:43.636Z</time>
      </trkpt>
      <trkpt lat="47.47168" lon="-1.78471">
        <ele>56.733538</ele>
        <time>2022-12-15T15:35:45.642Z</time>
      </trkpt>
      <trkpt lat="47.47172" lon="-1.78452">
        <ele>56.838673</ele>
        <time>2022-12-15T15:35:48.634Z</time>
      </trkpt>
      <trkpt lat="47.47176" lon="-1.78433">
        <ele>56.944746</ele>
        <time>2022-12-15T15:35:51.629Z</time>
      </trkpt>
      <trkpt lat="47.47178" lon="-1.7842">
        <ele>57.019103</ele>
        <time>2022-12-15T15:35:53.632Z</time>
      </trkpt>
      <trkpt lat="47.47183" lon="-1.78401">
        <ele>57.124732</ele>
        <time>2022-12-15T15:35:56.631Z</time>
      </trkpt>
      <trkpt lat="47.47187" lon="-1.78383">
        <ele>57.22883</ele>
        <time>2022-12-15T15:35:59.642Z</time>
      </trkpt>
      <trkpt lat="47.47191" lon="-1.78365">
        <ele>57.277365</ele>
        <time>2022-12-15T15:36:02.626Z</time>
      </trkpt>
      <trkpt lat="47.47195" lon="-1.78347">
        <ele>57.271344</ele>
        <time>2022-12-15T15:36:05.633Z</time>
      </trkpt>
      <trkpt lat="47.47197" lon="-1.78333">
        <ele>57.267071</ele>
        <time>2022-12-15T15:36:07.648Z</time>
      </trkpt>
      <trkpt lat="47.47201" lon="-1.78315">
        <ele>57.26116</ele>
        <time>2022-12-15T15:36:10.649Z</time>
      </trkpt>
      <trkpt lat="47.47204" lon="-1.78302">
        <ele>57.256948</ele>
        <time>2022-12-15T15:36:12.644Z</time>
      </trkpt>
      <trkpt lat="47.47208" lon="-1.78284">
        <ele>57.250928</ele>
        <time>2022-12-15T15:36:15.649Z</time>
      </trkpt>
      <trkpt lat="47.47211" lon="-1.78266">
        <ele>57.245069</ele>
        <time>2022-12-15T15:36:18.643Z</time>
      </trkpt>
      <trkpt lat="47.47215" lon="-1.78251">
        <ele>57.239909</ele>
        <time>2022-12-15T15:36:21.628Z</time>
      </trkpt>
      <trkpt lat="47.47218" lon="-1.78236">
        <ele>57.234985</ele>
        <time>2022-12-15T15:36:24.645Z</time>
      </trkpt>
      <trkpt lat="47.4722" lon="-1.78221">
        <ele>57.230231</ele>
        <time>2022-12-15T15:36:27.644Z</time>
      </trkpt>
      <trkpt lat="47.47221" lon="-1.78207">
        <ele>57.225829</ele>
        <time>2022-12-15T15:36:30.632Z</time>
      </trkpt>
      <trkpt lat="47.47224" lon="-1.7819">
        <ele>57.220322</ele>
        <time>2022-12-15T15:36:34.638Z</time>
      </trkpt>
      <trkpt lat="47.47226" lon="-1.78177">
        <ele>57.216106</ele>
        <time>2022-12-15T15:36:37.642Z</time>
      </trkpt>
      <trkpt lat="47.47228" lon="-1.78162">
        <ele>57.211433</ele>
        <time>2022-12-15T15:36:41.624Z</time>
      </trkpt>
      <trkpt lat="47.47231" lon="-1.78153">
        <ele>57.20836</ele>
        <time>2022-12-15T15:36:58.117Z</time>
      </trkpt>
      <trkpt lat="47.47237" lon="-1.78119">
        <ele>57.197174</ele>
        <time>2022-12-15T15:48:31.641Z</time>
      </trkpt>
      <trkpt lat="47.47241" lon="-1.78103">
        <ele>56.708986</ele>
        <time>2022-12-15T15:48:36.633Z</time>
      </trkpt>
      <trkpt lat="47.47244" lon="-1.78087">
        <ele>56.220358</ele>
        <time>2022-12-15T15:48:40.645Z</time>
      </trkpt>
      <trkpt lat="47.47247" lon="-1.78073">
        <ele>55.774444</ele>
        <time>2022-12-15T15:48:43.631Z</time>
      </trkpt>
      <trkpt lat="47.47251" lon="-1.78057">
        <ele>55.264449</ele>
        <time>2022-12-15T15:48:46.641Z</time>
      </trkpt>
      <trkpt lat="47.47254" lon="-1.7804">
        <ele>54.722084</ele>
        <time>2022-12-15T15:48:49.646Z</time>
      </trkpt>
      <trkpt lat="47.47258" lon="-1.78023">
        <ele>54.193943</ele>
        <time>2022-12-15T15:48:52.643Z</time>
      </trkpt>
      <trkpt lat="47.47262" lon="-1.78009">
        <ele>53.744991</ele>
        <time>2022-12-15T15:48:55.651Z</time>
      </trkpt>
      <trkpt lat="47.47266" lon="-1.77996">
        <ele>53.320448</ele>
        <time>2022-12-15T15:48:58.648Z</time>
      </trkpt>
      <trkpt lat="47.47271" lon="-1.77981">
        <ele>52.82129</ele>
        <time>2022-12-15T15:49:01.649Z</time>
      </trkpt>
      <trkpt lat="47.47275" lon="-1.77964">
        <ele>52.258011</ele>
        <time>2022-12-15T15:49:04.635Z</time>
      </trkpt>
      <trkpt lat="47.47279" lon="-1.77946">
        <ele>51.722122</ele>
        <time>2022-12-15T15:49:07.638Z</time>
      </trkpt>
      <trkpt lat="47.47282" lon="-1.7793">
        <ele>51.20883</ele>
        <time>2022-12-15T15:49:10.644Z</time>
      </trkpt>
      <trkpt lat="47.47285" lon="-1.77912">
        <ele>50.642065</ele>
        <time>2022-12-15T15:49:13.649Z</time>
      </trkpt>
      <trkpt lat="47.47288" lon="-1.77899">
        <ele>50.239845</ele>
        <time>2022-12-15T15:49:15.640Z</time>
      </trkpt>
      <trkpt lat="47.4729" lon="-1.77886">
        <ele>49.838179</ele>
        <time>2022-12-15T15:49:17.644Z</time>
      </trkpt>
      <trkpt lat="47.47293" lon="-1.77867">
        <ele>49.249437</ele>
        <time>2022-12-15T15:49:20.635Z</time>
      </trkpt>
      <trkpt lat="47.47296" lon="-1.77847">
        <ele>49.359177</ele>
        <time>2022-12-15T15:49:23.632Z</time>
      </trkpt>
      <trkpt lat="47.473" lon="-1.77829">
        <ele>49.496614</ele>
        <time>2022-12-15T15:49:26.633Z</time>
      </trkpt>
      <trkpt lat="47.47303" lon="-1.77812">
        <ele>49.622488</ele>
        <time>2022-12-15T15:49:29.634Z</time>
      </trkpt>
      <trkpt lat="47.47306" lon="-1.77799">
        <ele>49.720425</ele>
        <time>2022-12-15T15:49:31.631Z</time>
      </trkpt>
      <trkpt lat="47.47309" lon="-1.77785">
        <ele>49.820054</ele>
        <time>2022-12-15T15:49:33.629Z</time>
      </trkpt>
      <trkpt lat="47.47312" lon="-1.77772">
        <ele>49.919705</ele>
        <time>2022-12-15T15:49:35.644Z</time>
      </trkpt>
      <trkpt lat="47.47315" lon="-1.77758">
        <ele>50.025924</ele>
        <time>2022-12-15T15:49:37.642Z</time>
      </trkpt>
      <trkpt lat="47.47319" lon="-1.77745">
        <ele>50.127905</ele>
        <time>2022-12-15T15:49:39.636Z</time>
      </trkpt>
      <trkpt lat="47.47322" lon="-1.77727">
        <ele>50.26014</ele>
        <time>2022-12-15T15:49:42.634Z</time>
      </trkpt>
      <trkpt lat="47.47326" lon="-1.77709">
        <ele>50.401464</ele>
        <time>2022-12-15T15:49:45.640Z</time>
      </trkpt>
      <trkpt lat="47.47329" lon="-1.77696">
        <ele>50.498074</ele>
        <time>2022-12-15T15:49:47.635Z</time>
      </trkpt>
      <trkpt lat="47.47332" lon="-1.77683">
        <ele>50.595456</ele>
        <time>2022-12-15T15:49:49.638Z</time>
      </trkpt>
      <trkpt lat="47.47333" lon="-1.77668">
        <ele>50.699329</ele>
        <time>2022-12-15T15:49:51.631Z</time>
      </trkpt>
      <trkpt lat="47.47335" lon="-1.77651">
        <ele>50.826109</ele>
        <time>2022-12-15T15:49:54.655Z</time>
      </trkpt>
      <trkpt lat="47.47336" lon="-1.77633">
        <ele>50.955234</ele>
        <time>2022-12-15T15:49:57.651Z</time>
      </trkpt>
      <trkpt lat="47.47336" lon="-1.77612">
        <ele>51.10203</ele>
        <time>2022-12-15T15:50:00.637Z</time>
      </trkpt>
      <trkpt lat="47.47337" lon="-1.77599">
        <ele>51.14323</ele>
        <time>2022-12-15T15:50:02.633Z</time>
      </trkpt>
      <trkpt lat="47.47336" lon="-1.7758">
        <ele>51.176811</ele>
        <time>2022-12-15T15:50:05.649Z</time>
      </trkpt>
      <trkpt lat="47.47335" lon="-1.77561">
        <ele>51.210506</ele>
        <time>2022-12-15T15:50:08.630Z</time>
      </trkpt>
      <trkpt lat="47.47334" lon="-1.77547">
        <ele>51.234451</ele>
        <time>2022-12-15T15:50:10.643Z</time>
      </trkpt>
      <trkpt lat="47.47333" lon="-1.77534">
        <ele>51.258147</ele>
        <time>2022-12-15T15:50:12.635Z</time>
      </trkpt>
      <trkpt lat="47.47331" lon="-1.7752">
        <ele>51.282887</ele>
        <time>2022-12-15T15:50:14.639Z</time>
      </trkpt>
      <trkpt lat="47.4733" lon="-1.77507">
        <ele>51.306538</ele>
        <time>2022-12-15T15:50:16.642Z</time>
      </trkpt>
      <trkpt lat="47.47328" lon="-1.77494">
        <ele>51.330904</ele>
        <time>2022-12-15T15:50:18.634Z</time>
      </trkpt>
      <trkpt lat="47.47324" lon="-1.77474">
        <ele>51.367172</ele>
        <time>2022-12-15T15:50:21.639Z</time>
      </trkpt>
      <trkpt lat="47.47322" lon="-1.77461">
        <ele>51.390961</ele>
        <time>2022-12-15T15:50:23.634Z</time>
      </trkpt>
      <trkpt lat="47.47319" lon="-1.77441">
        <ele>51.42659</ele>
        <time>2022-12-15T15:50:26.641Z</time>
      </trkpt>
      <trkpt lat="47.47317" lon="-1.77428">
        <ele>51.450441</ele>
        <time>2022-12-15T15:50:28.641Z</time>
      </trkpt>
      <trkpt lat="47.47315" lon="-1.77414">
        <ele>51.475277</ele>
        <time>2022-12-15T15:50:30.658Z</time>
      </trkpt>
      <trkpt lat="47.47312" lon="-1.77401">
        <ele>51.50018</ele>
        <time>2022-12-15T15:50:32.650Z</time>
      </trkpt>
      <trkpt lat="47.4731" lon="-1.77386">
        <ele>51.526108</ele>
        <time>2022-12-15T15:50:34.652Z</time>
      </trkpt>
      <trkpt lat="47.47307" lon="-1.77373">
        <ele>51.550261</ele>
        <time>2022-12-15T15:50:36.650Z</time>
      </trkpt>
      <trkpt lat="47.47305" lon="-1.77359">
        <ele>51.576636</ele>
        <time>2022-12-15T15:50:38.660Z</time>
      </trkpt>
      <trkpt lat="47.47302" lon="-1.77345">
        <ele>51.618151</ele>
        <time>2022-12-15T15:50:40.650Z</time>
      </trkpt>
      <trkpt lat="47.47299" lon="-1.77332">
        <ele>51.705075</ele>
        <time>2022-12-15T15:50:42.637Z</time>
      </trkpt>
      <trkpt lat="47.47294" lon="-1.77314">
        <ele>51.822782</ele>
        <time>2022-12-15T15:50:45.656Z</time>
      </trkpt>
      <trkpt lat="47.4729" lon="-1.77294">
        <ele>51.950871</ele>
        <time>2022-12-15T15:50:48.642Z</time>
      </trkpt>
      <trkpt lat="47.47286" lon="-1.77278">
        <ele>52.05345</ele>
        <time>2022-12-15T15:50:50.639Z</time>
      </trkpt>
      <trkpt lat="47.47282" lon="-1.77262">
        <ele>52.159504</ele>
        <time>2022-12-15T15:50:53.646Z</time>
      </trkpt>
      <trkpt lat="47.47275" lon="-1.77244">
        <ele>52.282733</ele>
        <time>2022-12-15T15:50:56.646Z</time>
      </trkpt>
      <trkpt lat="47.47267" lon="-1.77228">
        <ele>52.406395</ele>
        <time>2022-12-15T15:50:59.651Z</time>
      </trkpt>
      <trkpt lat="47.47262" lon="-1.77216">
        <ele>52.489506</ele>
        <time>2022-12-15T15:51:01.645Z</time>
      </trkpt>
      <trkpt lat="47.47256" lon="-1.77203">
        <ele>52.584784</ele>
        <time>2022-12-15T15:51:04.633Z</time>
      </trkpt>
      <trkpt lat="47.47251" lon="-1.7719">
        <ele>52.68232</ele>
        <time>2022-12-15T15:51:07.647Z</time>
      </trkpt>
      <trkpt lat="47.47245" lon="-1.77176">
        <ele>52.779628</ele>
        <time>2022-12-15T15:51:10.651Z</time>
      </trkpt>
      <trkpt lat="47.47239" lon="-1.77164">
        <ele>52.871865</ele>
        <time>2022-12-15T15:51:13.637Z</time>
      </trkpt>
      <trkpt lat="47.47234" lon="-1.77153">
        <ele>52.956161</ele>
        <time>2022-12-15T15:51:16.636Z</time>
      </trkpt>
      <trkpt lat="47.47228" lon="-1.7714">
        <ele>53.05042</ele>
        <time>2022-12-15T15:51:19.634Z</time>
      </trkpt>
      <trkpt lat="47.47219" lon="-1.77123">
        <ele>53.184378</ele>
        <time>2022-12-15T15:51:22.635Z</time>
      </trkpt>
      <trkpt lat="47.47214" lon="-1.77112">
        <ele>53.295368</ele>
        <time>2022-12-15T15:51:24.644Z</time>
      </trkpt>
      <trkpt lat="47.47207" lon="-1.77096">
        <ele>53.487635</ele>
        <time>2022-12-15T15:51:27.644Z</time>
      </trkpt>
      <trkpt lat="47.472" lon="-1.77081">
        <ele>53.683358</ele>
        <time>2022-12-15T15:51:30.653Z</time>
      </trkpt>
      <trkpt lat="47.47194" lon="-1.77068">
        <ele>53.831226</ele>
        <time>2022-12-15T15:51:32.648Z</time>
      </trkpt>
      <trkpt lat="47.47187" lon="-1.77051">
        <ele>54.045591</ele>
        <time>2022-12-15T15:51:35.641Z</time>
      </trkpt>
      <trkpt lat="47.47181" lon="-1.77038">
        <ele>54.207003</ele>
        <time>2022-12-15T15:51:37.645Z</time>
      </trkpt>
      <trkpt lat="47.47175" lon="-1.77026">
        <ele>54.359109</ele>
        <time>2022-12-15T15:51:39.657Z</time>
      </trkpt>
      <trkpt lat="47.47169" lon="-1.7701">
        <ele>54.549634</ele>
        <time>2022-12-15T15:51:42.645Z</time>
      </trkpt>
      <trkpt lat="47.47162" lon="-1.76995">
        <ele>54.733269</ele>
        <time>2022-12-15T15:51:45.640Z</time>
      </trkpt>
      <trkpt lat="47.47156" lon="-1.76982">
        <ele>54.897258</ele>
        <time>2022-12-15T15:51:48.641Z</time>
      </trkpt>
      <trkpt lat="47.47148" lon="-1.76968">
        <ele>55.086233</ele>
        <time>2022-12-15T15:51:51.654Z</time>
      </trkpt>
      <trkpt lat="47.4714" lon="-1.76954">
        <ele>55.270878</ele>
        <time>2022-12-15T15:51:54.644Z</time>
      </trkpt>
      <trkpt lat="47.47134" lon="-1.76942">
        <ele>55.429736</ele>
        <time>2022-12-15T15:51:57.640Z</time>
      </trkpt>
      <trkpt lat="47.47124" lon="-1.76934">
        <ele>55.596679</ele>
        <time>2022-12-15T15:52:02.631Z</time>
      </trkpt>
      <trkpt lat="47.47116" lon="-1.76919">
        <ele>55.78962</ele>
        <time>2022-12-15T15:52:12.638Z</time>
      </trkpt>
      <trkpt lat="47.4711" lon="-1.76906">
        <ele>55.95896</ele>
        <time>2022-12-15T15:52:16.631Z</time>
      </trkpt>
      <trkpt lat="47.47108" lon="-1.76892">
        <ele>56.031946</ele>
        <time>2022-12-15T15:52:21.650Z</time>
      </trkpt>
      <trkpt lat="47.47104" lon="-1.76878">
        <ele>56.100235</ele>
        <time>2022-12-15T15:52:25.645Z</time>
      </trkpt>
      <trkpt lat="47.47099" lon="-1.76864">
        <ele>56.177436</ele>
        <time>2022-12-15T15:52:29.640Z</time>
      </trkpt>
      <trkpt lat="47.47093" lon="-1.76851">
        <ele>56.249044</ele>
        <time>2022-12-15T15:52:32.660Z</time>
      </trkpt>
      <trkpt lat="47.47088" lon="-1.76838">
        <ele>56.32265</ele>
        <time>2022-12-15T15:52:36.654Z</time>
      </trkpt>
      <trkpt lat="47.47083" lon="-1.76825">
        <ele>56.391739</ele>
        <time>2022-12-15T15:52:40.641Z</time>
      </trkpt>
      <trkpt lat="47.47078" lon="-1.76811">
        <ele>56.46889</ele>
        <time>2022-12-15T15:52:44.633Z</time>
      </trkpt>
      <trkpt lat="47.47073" lon="-1.76797">
        <ele>56.544004</ele>
        <time>2022-12-15T15:52:48.653Z</time>
      </trkpt>
      <trkpt lat="47.47067" lon="-1.76782">
        <ele>56.62427</ele>
        <time>2022-12-15T15:52:52.636Z</time>
      </trkpt>
      <trkpt lat="47.47063" lon="-1.7677">
        <ele>56.688514</ele>
        <time>2022-12-15T15:52:55.650Z</time>
      </trkpt>
      <trkpt lat="47.47057" lon="-1.76755">
        <ele>56.770199</ele>
        <time>2022-12-15T15:52:59.639Z</time>
      </trkpt>
      <trkpt lat="47.47052" lon="-1.76743">
        <ele>56.835608</ele>
        <time>2022-12-15T15:53:03.646Z</time>
      </trkpt>
      <trkpt lat="47.47047" lon="-1.76732">
        <ele>56.899396</ele>
        <time>2022-12-15T15:53:17.667Z</time>
      </trkpt>
      <trkpt lat="47.47042" lon="-1.76717">
        <ele>56.979437</ele>
        <time>2022-12-15T15:53:28.632Z</time>
      </trkpt>
      <trkpt lat="47.47036" lon="-1.76705">
        <ele>57.048322</ele>
        <time>2022-12-15T15:53:31.648Z</time>
      </trkpt>
      <trkpt lat="47.47028" lon="-1.76691">
        <ele>57.135731</ele>
        <time>2022-12-15T15:53:34.637Z</time>
      </trkpt>
      <trkpt lat="47.47024" lon="-1.76678">
        <ele>57.203631</ele>
        <time>2022-12-15T15:53:36.637Z</time>
      </trkpt>
      <trkpt lat="47.47016" lon="-1.76662">
        <ele>57.043275</ele>
        <time>2022-12-15T15:53:39.639Z</time>
      </trkpt>
      <trkpt lat="47.47012" lon="-1.76644">
        <ele>56.819506</ele>
        <time>2022-12-15T15:53:42.646Z</time>
      </trkpt>
      <trkpt lat="47.47012" lon="-1.76625">
        <ele>56.599483</ele>
        <time>2022-12-15T15:53:45.634Z</time>
      </trkpt>
      <trkpt lat="47.47009" lon="-1.76611">
        <ele>56.434661</ele>
        <time>2022-12-15T15:53:47.652Z</time>
      </trkpt>
      <trkpt lat="47.47005" lon="-1.76598">
        <ele>56.263116</ele>
        <time>2022-12-15T15:53:49.635Z</time>
      </trkpt>
      <trkpt lat="47.46999" lon="-1.76587">
        <ele>56.102247</ele>
        <time>2022-12-15T15:53:51.639Z</time>
      </trkpt>
      <trkpt lat="47.46993" lon="-1.76576">
        <ele>55.937331</ele>
        <time>2022-12-15T15:53:53.631Z</time>
      </trkpt>
      <trkpt lat="47.46987" lon="-1.76561">
        <ele>55.733384</ele>
        <time>2022-12-15T15:53:56.635Z</time>
      </trkpt>
      <trkpt lat="47.46981" lon="-1.76548">
        <ele>55.55695</ele>
        <time>2022-12-15T15:53:59.639Z</time>
      </trkpt>
      <trkpt lat="47.46976" lon="-1.76535">
        <ele>55.374736</ele>
        <time>2022-12-15T15:54:02.637Z</time>
      </trkpt>
      <trkpt lat="47.46969" lon="-1.76521">
        <ele>55.180962</ele>
        <time>2022-12-15T15:54:05.633Z</time>
      </trkpt>
      <trkpt lat="47.46963" lon="-1.76506">
        <ele>54.978486</ele>
        <time>2022-12-15T15:54:08.637Z</time>
      </trkpt>
      <trkpt lat="47.46956" lon="-1.76491">
        <ele>54.762536</ele>
        <time>2022-12-15T15:54:11.645Z</time>
      </trkpt>
      <trkpt lat="47.46948" lon="-1.76477">
        <ele>54.549807</ele>
        <time>2022-12-15T15:54:14.640Z</time>
      </trkpt>
      <trkpt lat="47.46941" lon="-1.76462">
        <ele>54.34315</ele>
        <time>2022-12-15T15:54:17.645Z</time>
      </trkpt>
      <trkpt lat="47.46934" lon="-1.76447">
        <ele>54.132006</ele>
        <time>2022-12-15T15:54:20.636Z</time>
      </trkpt>
      <trkpt lat="47.46928" lon="-1.76431">
        <ele>53.869608</ele>
        <time>2022-12-15T15:54:23.652Z</time>
      </trkpt>
      <trkpt lat="47.46922" lon="-1.76417">
        <ele>53.617533</ele>
        <time>2022-12-15T15:54:26.633Z</time>
      </trkpt>
      <trkpt lat="47.46916" lon="-1.76402">
        <ele>53.377159</ele>
        <time>2022-12-15T15:54:29.635Z</time>
      </trkpt>
      <trkpt lat="47.46909" lon="-1.76389">
        <ele>53.141465</ele>
        <time>2022-12-15T15:54:33.633Z</time>
      </trkpt>
      <trkpt lat="47.46902" lon="-1.76378">
        <ele>52.907109</ele>
        <time>2022-12-15T15:54:37.635Z</time>
      </trkpt>
      <trkpt lat="47.46895" lon="-1.76364">
        <ele>52.668922</ele>
        <time>2022-12-15T15:54:41.640Z</time>
      </trkpt>
      <trkpt lat="47.46885" lon="-1.76359">
        <ele>52.448212</ele>
        <time>2022-12-15T15:54:45.646Z</time>
      </trkpt>
      <trkpt lat="47.46874" lon="-1.76354">
        <ele>52.207016</ele>
        <time>2022-12-15T15:54:49.649Z</time>
      </trkpt>
      <trkpt lat="47.46868" lon="-1.76341">
        <ele>51.981072</ele>
        <time>2022-12-15T15:54:53.638Z</time>
      </trkpt>
      <trkpt lat="47.46861" lon="-1.76326">
        <ele>51.707497</ele>
        <time>2022-12-15T15:54:57.643Z</time>
      </trkpt>
      <trkpt lat="47.46854" lon="-1.7631">
        <ele>51.444489</ele>
        <time>2022-12-15T15:55:00.650Z</time>
      </trkpt>
      <trkpt lat="47.46847" lon="-1.76296">
        <ele>51.18279</ele>
        <time>2022-12-15T15:55:03.639Z</time>
      </trkpt>
      <trkpt lat="47.46839" lon="-1.76281">
        <ele>50.918845</ele>
        <time>2022-12-15T15:55:06.647Z</time>
      </trkpt>
      <trkpt lat="47.46831" lon="-1.76266">
        <ele>50.642865</ele>
        <time>2022-12-15T15:55:09.662Z</time>
      </trkpt>
      <trkpt lat="47.46823" lon="-1.76251">
        <ele>50.366387</ele>
        <time>2022-12-15T15:55:12.644Z</time>
      </trkpt>
      <trkpt lat="47.46816" lon="-1.76234">
        <ele>50.38221</ele>
        <time>2022-12-15T15:55:15.644Z</time>
      </trkpt>
      <trkpt lat="47.4681" lon="-1.76222">
        <ele>50.44837</ele>
        <time>2022-12-15T15:55:17.635Z</time>
      </trkpt>
      <trkpt lat="47.46805" lon="-1.7621">
        <ele>50.51647</ele>
        <time>2022-12-15T15:55:19.650Z</time>
      </trkpt>
      <trkpt lat="47.468" lon="-1.76198">
        <ele>50.584952</ele>
        <time>2022-12-15T15:55:21.641Z</time>
      </trkpt>
      <trkpt lat="47.46794" lon="-1.76186">
        <ele>50.653053</ele>
        <time>2022-12-15T15:55:23.641Z</time>
      </trkpt>
      <trkpt lat="47.46789" lon="-1.76174">
        <ele>50.716893</ele>
        <time>2022-12-15T15:55:25.651Z</time>
      </trkpt>
      <trkpt lat="47.46784" lon="-1.76163">
        <ele>50.779982</ele>
        <time>2022-12-15T15:55:27.639Z</time>
      </trkpt>
      <trkpt lat="47.46778" lon="-1.76149">
        <ele>50.859691</ele>
        <time>2022-12-15T15:55:30.642Z</time>
      </trkpt>
      <trkpt lat="47.46771" lon="-1.76135">
        <ele>50.93591</ele>
        <time>2022-12-15T15:55:33.661Z</time>
      </trkpt>
      <trkpt lat="47.46766" lon="-1.76124">
        <ele>51.001682</ele>
        <time>2022-12-15T15:55:37.112Z</time>
      </trkpt>
      <trkpt lat="47.46761" lon="-1.76111">
        <ele>51.070553</ele>
        <time>2022-12-15T15:55:40.641Z</time>
      </trkpt>
      <trkpt lat="47.46755" lon="-1.761">
        <ele>51.135179</ele>
        <time>2022-12-15T15:55:45.634Z</time>
      </trkpt>
      <trkpt lat="47.4675" lon="-1.76088">
        <ele>51.202893</ele>
        <time>2022-12-15T15:55:49.772Z</time>
      </trkpt>
      <trkpt lat="47.46742" lon="-1.76068">
        <ele>51.309915</ele>
        <time>2022-12-15T15:55:54.630Z</time>
      </trkpt>
      <trkpt lat="47.46736" lon="-1.76053">
        <ele>51.392987</ele>
        <time>2022-12-15T15:55:57.653Z</time>
      </trkpt>
      <trkpt lat="47.4673" lon="-1.76037">
        <ele>51.478844</ele>
        <time>2022-12-15T15:56:00.676Z</time>
      </trkpt>
      <trkpt lat="47.46725" lon="-1.76025">
        <ele>51.545018</ele>
        <time>2022-12-15T15:56:02.647Z</time>
      </trkpt>
      <trkpt lat="47.46719" lon="-1.76013">
        <ele>51.419525</ele>
        <time>2022-12-15T15:56:04.655Z</time>
      </trkpt>
      <trkpt lat="47.46714" lon="-1.76002">
        <ele>51.275606</ele>
        <time>2022-12-15T15:56:06.630Z</time>
      </trkpt>
      <trkpt lat="47.46706" lon="-1.75983">
        <ele>51.057802</ele>
        <time>2022-12-15T15:56:09.634Z</time>
      </trkpt>
      <trkpt lat="47.46699" lon="-1.75972">
        <ele>50.897634</ele>
        <time>2022-12-15T15:56:11.653Z</time>
      </trkpt>
      <trkpt lat="47.46691" lon="-1.75954">
        <ele>50.678366</ele>
        <time>2022-12-15T15:56:14.651Z</time>
      </trkpt>
      <trkpt lat="47.46686" lon="-1.75941">
        <ele>50.52428</ele>
        <time>2022-12-15T15:56:16.633Z</time>
      </trkpt>
      <trkpt lat="47.46681" lon="-1.7593">
        <ele>50.383448</ele>
        <time>2022-12-15T15:56:18.632Z</time>
      </trkpt>
      <trkpt lat="47.46675" lon="-1.75918">
        <ele>50.239451</ele>
        <time>2022-12-15T15:56:20.633Z</time>
      </trkpt>
      <trkpt lat="47.4667" lon="-1.75907">
        <ele>50.098045</ele>
        <time>2022-12-15T15:56:22.659Z</time>
      </trkpt>
      <trkpt lat="47.46663" lon="-1.75897">
        <ele>49.953027</ele>
        <time>2022-12-15T15:56:24.644Z</time>
      </trkpt>
      <trkpt lat="47.46655" lon="-1.75881">
        <ele>49.752127</ele>
        <time>2022-12-15T15:56:27.651Z</time>
      </trkpt>
      <trkpt lat="47.46647" lon="-1.75865">
        <ele>49.540842</ele>
        <time>2022-12-15T15:56:30.656Z</time>
      </trkpt>
      <trkpt lat="47.4664" lon="-1.75852">
        <ele>49.37479</ele>
        <time>2022-12-15T15:56:32.650Z</time>
      </trkpt>
      <trkpt lat="47.46632" lon="-1.75839">
        <ele>49.203665</ele>
        <time>2022-12-15T15:56:34.634Z</time>
      </trkpt>
      <trkpt lat="47.46626" lon="-1.75829">
        <ele>49.057673</ele>
        <time>2022-12-15T15:56:36.632Z</time>
      </trkpt>
      <trkpt lat="47.46618" lon="-1.75821">
        <ele>48.916028</ele>
        <time>2022-12-15T15:56:38.649Z</time>
      </trkpt>
      <trkpt lat="47.46611" lon="-1.75808">
        <ele>48.748713</ele>
        <time>2022-12-15T15:56:41.642Z</time>
      </trkpt>
      <trkpt lat="47.46602" lon="-1.75796">
        <ele>48.591234</ele>
        <time>2022-12-15T15:56:44.629Z</time>
      </trkpt>
      <trkpt lat="47.46593" lon="-1.75785">
        <ele>48.427721</ele>
        <time>2022-12-15T15:56:47.636Z</time>
      </trkpt>
      <trkpt lat="47.46586" lon="-1.75776">
        <ele>48.30136</ele>
        <time>2022-12-15T15:56:49.632Z</time>
      </trkpt>
      <trkpt lat="47.46577" lon="-1.75763">
        <ele>48.122476</ele>
        <time>2022-12-15T15:56:51.649Z</time>
      </trkpt>
      <trkpt lat="47.46567" lon="-1.75751">
        <ele>47.949947</ele>
        <time>2022-12-15T15:56:54.635Z</time>
      </trkpt>
      <trkpt lat="47.46559" lon="-1.75743">
        <ele>47.81647</ele>
        <time>2022-12-15T15:56:56.634Z</time>
      </trkpt>
      <trkpt lat="47.46552" lon="-1.75733">
        <ele>47.677528</ele>
        <time>2022-12-15T15:56:58.637Z</time>
      </trkpt>
      <trkpt lat="47.46545" lon="-1.75724">
        <ele>47.55243</ele>
        <time>2022-12-15T15:57:00.630Z</time>
      </trkpt>
      <trkpt lat="47.46535" lon="-1.75712">
        <ele>47.371297</ele>
        <time>2022-12-15T15:57:03.648Z</time>
      </trkpt>
      <trkpt lat="47.46527" lon="-1.75705">
        <ele>47.244224</ele>
        <time>2022-12-15T15:57:05.639Z</time>
      </trkpt>
      <trkpt lat="47.46518" lon="-1.75697">
        <ele>47.098296</ele>
        <time>2022-12-15T15:57:07.633Z</time>
      </trkpt>
      <trkpt lat="47.4651" lon="-1.75688">
        <ele>46.960956</ele>
        <time>2022-12-15T15:57:09.642Z</time>
      </trkpt>
      <trkpt lat="47.46503" lon="-1.75677">
        <ele>46.818163</ele>
        <time>2022-12-15T15:57:11.649Z</time>
      </trkpt>
      <trkpt lat="47.46497" lon="-1.75667">
        <ele>46.692327</ele>
        <time>2022-12-15T15:57:13.657Z</time>
      </trkpt>
      <trkpt lat="47.4649" lon="-1.75659">
        <ele>46.562849</ele>
        <time>2022-12-15T15:57:15.640Z</time>
      </trkpt>
      <trkpt lat="47.46481" lon="-1.75645">
        <ele>46.389614</ele>
        <time>2022-12-15T15:57:18.632Z</time>
      </trkpt>
      <trkpt lat="47.46474" lon="-1.75636">
        <ele>46.407535</ele>
        <time>2022-12-15T15:57:20.632Z</time>
      </trkpt>
      <trkpt lat="47.46467" lon="-1.75627">
        <ele>46.505434</ele>
        <time>2022-12-15T15:57:22.640Z</time>
      </trkpt>
      <trkpt lat="47.46458" lon="-1.75616">
        <ele>46.631065</ele>
        <time>2022-12-15T15:57:25.647Z</time>
      </trkpt>
      <trkpt lat="47.46447" lon="-1.75604">
        <ele>46.765369</ele>
        <time>2022-12-15T15:57:28.646Z</time>
      </trkpt>
      <trkpt lat="47.46439" lon="-1.75596">
        <ele>46.864668</ele>
        <time>2022-12-15T15:57:30.636Z</time>
      </trkpt>
      <trkpt lat="47.46432" lon="-1.75588">
        <ele>46.965988</ele>
        <time>2022-12-15T15:57:32.648Z</time>
      </trkpt>
      <trkpt lat="47.46424" lon="-1.75579">
        <ele>47.065715</ele>
        <time>2022-12-15T15:57:34.637Z</time>
      </trkpt>
      <trkpt lat="47.46417" lon="-1.7557">
        <ele>47.159752</ele>
        <time>2022-12-15T15:57:36.631Z</time>
      </trkpt>
      <trkpt lat="47.46409" lon="-1.75558">
        <ele>47.282374</ele>
        <time>2022-12-15T15:57:39.647Z</time>
      </trkpt>
      <trkpt lat="47.464" lon="-1.75546">
        <ele>47.402323</ele>
        <time>2022-12-15T15:57:42.650Z</time>
      </trkpt>
      <trkpt lat="47.46391" lon="-1.75534">
        <ele>47.530369</ele>
        <time>2022-12-15T15:57:45.636Z</time>
      </trkpt>
      <trkpt lat="47.46383" lon="-1.75526">
        <ele>47.628883</ele>
        <time>2022-12-15T15:57:47.639Z</time>
      </trkpt>
      <trkpt lat="47.46372" lon="-1.75514">
        <ele>47.768978</ele>
        <time>2022-12-15T15:57:50.643Z</time>
      </trkpt>
      <trkpt lat="47.46364" lon="-1.75506">
        <ele>47.870328</ele>
        <time>2022-12-15T15:57:52.635Z</time>
      </trkpt>
      <trkpt lat="47.46357" lon="-1.75497">
        <ele>47.973432</ele>
        <time>2022-12-15T15:57:54.648Z</time>
      </trkpt>
      <trkpt lat="47.46345" lon="-1.75483">
        <ele>48.12756</ele>
        <time>2022-12-15T15:57:56.654Z</time>
      </trkpt>
      <trkpt lat="47.46336" lon="-1.75471">
        <ele>48.309204</ele>
        <time>2022-12-15T15:57:58.638Z</time>
      </trkpt>
      <trkpt lat="47.46327" lon="-1.7546">
        <ele>48.644961</ele>
        <time>2022-12-15T15:58:00.648Z</time>
      </trkpt>
      <trkpt lat="47.46317" lon="-1.75448">
        <ele>48.983375</ele>
        <time>2022-12-15T15:58:02.645Z</time>
      </trkpt>
      <trkpt lat="47.46309" lon="-1.75437">
        <ele>49.298133</ele>
        <time>2022-12-15T15:58:04.642Z</time>
      </trkpt>
      <trkpt lat="47.46301" lon="-1.75425">
        <ele>49.610152</ele>
        <time>2022-12-15T15:58:06.645Z</time>
      </trkpt>
      <trkpt lat="47.46291" lon="-1.75415">
        <ele>49.941951</ele>
        <time>2022-12-15T15:58:08.635Z</time>
      </trkpt>
      <trkpt lat="47.46284" lon="-1.75405">
        <ele>50.210952</ele>
        <time>2022-12-15T15:58:10.646Z</time>
      </trkpt>
      <trkpt lat="47.46276" lon="-1.75394">
        <ele>50.506325</ele>
        <time>2022-12-15T15:58:12.644Z</time>
      </trkpt>
      <trkpt lat="47.46268" lon="-1.75383">
        <ele>50.809992</ele>
        <time>2022-12-15T15:58:14.648Z</time>
      </trkpt>
      <trkpt lat="47.46261" lon="-1.75373">
        <ele>51.073697</ele>
        <time>2022-12-15T15:58:16.650Z</time>
      </trkpt>
      <trkpt lat="47.46253" lon="-1.75363">
        <ele>51.37615</ele>
        <time>2022-12-15T15:58:18.641Z</time>
      </trkpt>
      <trkpt lat="47.46245" lon="-1.75351">
        <ele>51.680514</ele>
        <time>2022-12-15T15:58:20.649Z</time>
      </trkpt>
      <trkpt lat="47.46238" lon="-1.75339">
        <ele>51.974353</ele>
        <time>2022-12-15T15:58:22.640Z</time>
      </trkpt>
      <trkpt lat="47.46232" lon="-1.75326">
        <ele>52.259622</ele>
        <time>2022-12-15T15:58:24.634Z</time>
      </trkpt>
      <trkpt lat="47.46227" lon="-1.75314">
        <ele>52.529247</ele>
        <time>2022-12-15T15:58:26.639Z</time>
      </trkpt>
      <trkpt lat="47.46222" lon="-1.753">
        <ele>52.81323</ele>
        <time>2022-12-15T15:58:28.637Z</time>
      </trkpt>
      <trkpt lat="47.46218" lon="-1.75286">
        <ele>53.100966</ele>
        <time>2022-12-15T15:58:30.634Z</time>
      </trkpt>
      <trkpt lat="47.46214" lon="-1.75274">
        <ele>53.24239</ele>
        <time>2022-12-15T15:58:32.641Z</time>
      </trkpt>
      <trkpt lat="47.46209" lon="-1.75258">
        <ele>53.38805</ele>
        <time>2022-12-15T15:58:35.633Z</time>
      </trkpt>
      <trkpt lat="47.46205" lon="-1.75242">
        <ele>53.519448</ele>
        <time>2022-12-15T15:58:38.648Z</time>
      </trkpt>
      <trkpt lat="47.46202" lon="-1.75228">
        <ele>53.636544</ele>
        <time>2022-12-15T15:58:41.640Z</time>
      </trkpt>
      <trkpt lat="47.46191" lon="-1.75225">
        <ele>53.760966</ele>
        <time>2022-12-15T15:58:45.635Z</time>
      </trkpt>
      <trkpt lat="47.4618" lon="-1.7523">
        <ele>53.895974</ele>
        <time>2022-12-15T15:58:48.644Z</time>
      </trkpt>
      <trkpt lat="47.46172" lon="-1.75218">
        <ele>54.029127</ele>
        <time>2022-12-15T15:58:51.636Z</time>
      </trkpt>
      <trkpt lat="47.46166" lon="-1.75201">
        <ele>54.182642</ele>
        <time>2022-12-15T15:58:54.635Z</time>
      </trkpt>
      <trkpt lat="47.46161" lon="-1.75189">
        <ele>54.297577</ele>
        <time>2022-12-15T15:58:56.635Z</time>
      </trkpt>
      <trkpt lat="47.46157" lon="-1.75177">
        <ele>54.404237</ele>
        <time>2022-12-15T15:58:58.653Z</time>
      </trkpt>
      <trkpt lat="47.46152" lon="-1.75164">
        <ele>54.520729</ele>
        <time>2022-12-15T15:59:00.650Z</time>
      </trkpt>
      <trkpt lat="47.46146" lon="-1.75151">
        <ele>54.642351</ele>
        <time>2022-12-15T15:59:02.651Z</time>
      </trkpt>
      <trkpt lat="47.46141" lon="-1.75138">
        <ele>54.760635</ele>
        <time>2022-12-15T15:59:04.646Z</time>
      </trkpt>
      <trkpt lat="47.46136" lon="-1.75125">
        <ele>54.886628</ele>
        <time>2022-12-15T15:59:06.656Z</time>
      </trkpt>
      <trkpt lat="47.4613" lon="-1.75111">
        <ele>55.012079</ele>
        <time>2022-12-15T15:59:08.650Z</time>
      </trkpt>
      <trkpt lat="47.46125" lon="-1.75098">
        <ele>55.138143</ele>
        <time>2022-12-15T15:59:10.651Z</time>
      </trkpt>
      <trkpt lat="47.46119" lon="-1.75087">
        <ele>55.247924</ele>
        <time>2022-12-15T15:59:12.640Z</time>
      </trkpt>
      <trkpt lat="47.46115" lon="-1.75075">
        <ele>55.191558</ele>
        <time>2022-12-15T15:59:14.645Z</time>
      </trkpt>
      <trkpt lat="47.46111" lon="-1.75059">
        <ele>55.053525</ele>
        <time>2022-12-15T15:59:17.641Z</time>
      </trkpt>
      <trkpt lat="47.46107" lon="-1.75047">
        <ele>54.935839</ele>
        <time>2022-12-15T15:59:20.632Z</time>
      </trkpt>
      <trkpt lat="47.46102" lon="-1.75033">
        <ele>54.804707</ele>
        <time>2022-12-15T15:59:23.635Z</time>
      </trkpt>
      <trkpt lat="47.46097" lon="-1.75019">
        <ele>54.667</ele>
        <time>2022-12-15T15:59:26.656Z</time>
      </trkpt>
      <trkpt lat="47.46091" lon="-1.75003">
        <ele>54.512017</ele>
        <time>2022-12-15T15:59:29.643Z</time>
      </trkpt>
      <trkpt lat="47.46084" lon="-1.74987">
        <ele>54.352975</ele>
        <time>2022-12-15T15:59:32.651Z</time>
      </trkpt>
      <trkpt lat="47.4608" lon="-1.74975">
        <ele>54.234768</ele>
        <time>2022-12-15T15:59:34.636Z</time>
      </trkpt>
      <trkpt lat="47.46073" lon="-1.74957">
        <ele>54.068161</ele>
        <time>2022-12-15T15:59:37.644Z</time>
      </trkpt>
      <trkpt lat="47.46069" lon="-1.74945">
        <ele>53.950439</ele>
        <time>2022-12-15T15:59:39.638Z</time>
      </trkpt>
      <trkpt lat="47.46065" lon="-1.74931">
        <ele>53.821472</ele>
        <time>2022-12-15T15:59:41.645Z</time>
      </trkpt>
      <trkpt lat="47.4606" lon="-1.74919">
        <ele>53.701904</ele>
        <time>2022-12-15T15:59:43.638Z</time>
      </trkpt>
      <trkpt lat="47.46053" lon="-1.74902">
        <ele>53.535113</ele>
        <time>2022-12-15T15:59:46.636Z</time>
      </trkpt>
      <trkpt lat="47.46049" lon="-1.74888">
        <ele>53.409482</ele>
        <time>2022-12-15T15:59:48.636Z</time>
      </trkpt>
      <trkpt lat="47.46045" lon="-1.74875">
        <ele>53.285138</ele>
        <time>2022-12-15T15:59:50.642Z</time>
      </trkpt>
      <trkpt lat="47.4604" lon="-1.74857">
        <ele>53.122339</ele>
        <time>2022-12-15T15:59:53.654Z</time>
      </trkpt>
      <trkpt lat="47.46035" lon="-1.74843">
        <ele>52.972342</ele>
        <time>2022-12-15T15:59:56.643Z</time>
      </trkpt>
      <trkpt lat="47.46028" lon="-1.74826">
        <ele>52.774492</ele>
        <time>2022-12-15T15:59:59.649Z</time>
      </trkpt>
      <trkpt lat="47.46021" lon="-1.74809">
        <ele>52.574924</ele>
        <time>2022-12-15T16:00:02.637Z</time>
      </trkpt>
      <trkpt lat="47.46016" lon="-1.74796">
        <ele>52.430987</ele>
        <time>2022-12-15T16:00:04.636Z</time>
      </trkpt>
      <trkpt lat="47.46011" lon="-1.74784">
        <ele>52.288181</ele>
        <time>2022-12-15T16:00:06.653Z</time>
      </trkpt>
      <trkpt lat="47.46007" lon="-1.74771">
        <ele>52.140443</ele>
        <time>2022-12-15T16:00:08.637Z</time>
      </trkpt>
      <trkpt lat="47.46002" lon="-1.74758">
        <ele>51.996506</ele>
        <time>2022-12-15T16:00:10.650Z</time>
      </trkpt>
      <trkpt lat="47.45997" lon="-1.74746">
        <ele>51.853312</ele>
        <time>2022-12-15T16:00:12.646Z</time>
      </trkpt>
      <trkpt lat="47.45992" lon="-1.74729">
        <ele>51.663262</ele>
        <time>2022-12-15T16:00:15.648Z</time>
      </trkpt>
      <trkpt lat="47.45985" lon="-1.74716">
        <ele>51.497632</ele>
        <time>2022-12-15T16:00:17.647Z</time>
      </trkpt>
      <trkpt lat="47.45981" lon="-1.74704">
        <ele>51.362888</ele>
        <time>2022-12-15T16:00:19.646Z</time>
      </trkpt>
      <trkpt lat="47.45976" lon="-1.74692">
        <ele>51.228145</ele>
        <time>2022-12-15T16:00:21.646Z</time>
      </trkpt>
      <trkpt lat="47.45972" lon="-1.7468">
        <ele>51.092766</ele>
        <time>2022-12-15T16:00:23.641Z</time>
      </trkpt>
      <trkpt lat="47.45968" lon="-1.74667">
        <ele>50.950235</ele>
        <time>2022-12-15T16:00:25.638Z</time>
      </trkpt>
      <trkpt lat="47.45962" lon="-1.7465">
        <ele>50.749348</ele>
        <time>2022-12-15T16:00:28.639Z</time>
      </trkpt>
      <trkpt lat="47.45956" lon="-1.74631">
        <ele>50.541948</ele>
        <time>2022-12-15T16:00:31.638Z</time>
      </trkpt>
      <trkpt lat="47.45952" lon="-1.74618">
        <ele>50.403072</ele>
        <time>2022-12-15T16:00:33.645Z</time>
      </trkpt>
      <trkpt lat="47.45945" lon="-1.74601">
        <ele>50.446841</ele>
        <time>2022-12-15T16:00:36.641Z</time>
      </trkpt>
      <trkpt lat="47.4594" lon="-1.74588">
        <ele>50.537017</ele>
        <time>2022-12-15T16:00:38.647Z</time>
      </trkpt>
      <trkpt lat="47.45937" lon="-1.74575">
        <ele>50.61762</ele>
        <time>2022-12-15T16:00:40.648Z</time>
      </trkpt>
      <trkpt lat="47.45931" lon="-1.74557">
        <ele>50.735906</ele>
        <time>2022-12-15T16:00:43.640Z</time>
      </trkpt>
      <trkpt lat="47.45927" lon="-1.74544">
        <ele>50.823249</ele>
        <time>2022-12-15T16:00:45.633Z</time>
      </trkpt>
      <trkpt lat="47.45922" lon="-1.7453">
        <ele>50.914487</ele>
        <time>2022-12-15T16:00:47.632Z</time>
      </trkpt>
      <trkpt lat="47.45918" lon="-1.74512">
        <ele>51.023919</ele>
        <time>2022-12-15T16:00:50.646Z</time>
      </trkpt>
      <trkpt lat="47.45913" lon="-1.74497">
        <ele>51.129842</ele>
        <time>2022-12-15T16:00:53.633Z</time>
      </trkpt>
      <trkpt lat="47.45907" lon="-1.7448">
        <ele>51.243109</ele>
        <time>2022-12-15T16:00:56.649Z</time>
      </trkpt>
      <trkpt lat="47.459" lon="-1.74464">
        <ele>51.356408</ele>
        <time>2022-12-15T16:00:59.637Z</time>
      </trkpt>
      <trkpt lat="47.45895" lon="-1.74453">
        <ele>51.435375</ele>
        <time>2022-12-15T16:01:01.634Z</time>
      </trkpt>
      <trkpt lat="47.45888" lon="-1.74441">
        <ele>51.522547</ele>
        <time>2022-12-15T16:01:03.640Z</time>
      </trkpt>
      <trkpt lat="47.45883" lon="-1.74426">
        <ele>51.624731</ele>
        <time>2022-12-15T16:01:06.641Z</time>
      </trkpt>
      <trkpt lat="47.45877" lon="-1.74409">
        <ele>51.738527</ele>
        <time>2022-12-15T16:01:09.637Z</time>
      </trkpt>
      <trkpt lat="47.45871" lon="-1.74392">
        <ele>51.852268</ele>
        <time>2022-12-15T16:01:12.639Z</time>
      </trkpt>
      <trkpt lat="47.45865" lon="-1.74373">
        <ele>51.989013</ele>
        <time>2022-12-15T16:01:15.633Z</time>
      </trkpt>
      <trkpt lat="47.4586" lon="-1.74355">
        <ele>52.151831</ele>
        <time>2022-12-15T16:01:18.632Z</time>
      </trkpt>
      <trkpt lat="47.45855" lon="-1.74337">
        <ele>52.314825</ele>
        <time>2022-12-15T16:01:21.632Z</time>
      </trkpt>
      <trkpt lat="47.45853" lon="-1.74323">
        <ele>52.437241</ele>
        <time>2022-12-15T16:01:23.643Z</time>
      </trkpt>
      <trkpt lat="47.4585" lon="-1.74309">
        <ele>52.554849</ele>
        <time>2022-12-15T16:01:25.657Z</time>
      </trkpt>
      <trkpt lat="47.45848" lon="-1.7429">
        <ele>52.712776</ele>
        <time>2022-12-15T16:01:28.631Z</time>
      </trkpt>
      <trkpt lat="47.45847" lon="-1.74271">
        <ele>52.871877</ele>
        <time>2022-12-15T16:01:31.632Z</time>
      </trkpt>
      <trkpt lat="47.45846" lon="-1.74253">
        <ele>53.017</ele>
        <time>2022-12-15T16:01:34.632Z</time>
      </trkpt>
      <trkpt lat="47.45846" lon="-1.74236">
        <ele>53.160466</ele>
        <time>2022-12-15T16:01:37.639Z</time>
      </trkpt>
      <trkpt lat="47.45846" lon="-1.74218">
        <ele>53.309776</ele>
        <time>2022-12-15T16:01:40.633Z</time>
      </trkpt>
      <trkpt lat="47.45846" lon="-1.74199">
        <ele>53.465634</ele>
        <time>2022-12-15T16:01:43.645Z</time>
      </trkpt>
      <trkpt lat="47.45846" lon="-1.74183">
        <ele>53.60405</ele>
        <time>2022-12-15T16:01:46.641Z</time>
      </trkpt>
      <trkpt lat="47.45845" lon="-1.74168">
        <ele>53.727451</ele>
        <time>2022-12-15T16:01:49.636Z</time>
      </trkpt>
      <trkpt lat="47.45846" lon="-1.74154">
        <ele>53.844264</ele>
        <time>2022-12-15T16:01:52.651Z</time>
      </trkpt>
      <trkpt lat="47.45846" lon="-1.7414">
        <ele>53.959493</ele>
        <time>2022-12-15T16:01:55.648Z</time>
      </trkpt>
      <trkpt lat="47.45843" lon="-1.74123">
        <ele>54.106435</ele>
        <time>2022-12-15T16:01:58.637Z</time>
      </trkpt>
      <trkpt lat="47.45843" lon="-1.74106">
        <ele>54.03783</ele>
        <time>2022-12-15T16:02:01.636Z</time>
      </trkpt>
      <trkpt lat="47.45843" lon="-1.74086">
        <ele>53.89488</ele>
        <time>2022-12-15T16:02:04.632Z</time>
      </trkpt>
      <trkpt lat="47.45843" lon="-1.74073">
        <ele>53.79536</ele>
        <time>2022-12-15T16:02:06.651Z</time>
      </trkpt>
      <trkpt lat="47.45843" lon="-1.74053">
        <ele>53.647208</ele>
        <time>2022-12-15T16:02:09.634Z</time>
      </trkpt>
      <trkpt lat="47.45845" lon="-1.74036">
        <ele>53.511401</ele>
        <time>2022-12-15T16:02:12.631Z</time>
      </trkpt>
      <trkpt lat="47.45848" lon="-1.74018">
        <ele>53.375595</ele>
        <time>2022-12-15T16:02:15.636Z</time>
      </trkpt>
      <trkpt lat="47.4585" lon="-1.74001">
        <ele>53.244934</ele>
        <time>2022-12-15T16:02:18.633Z</time>
      </trkpt>
      <trkpt lat="47.45853" lon="-1.73983">
        <ele>53.110013</ele>
        <time>2022-12-15T16:02:21.672Z</time>
      </trkpt>
      <trkpt lat="47.45857" lon="-1.73965">
        <ele>52.964534</ele>
        <time>2022-12-15T16:02:24.650Z</time>
      </trkpt>
      <trkpt lat="47.4586" lon="-1.7395">
        <ele>52.84758</ele>
        <time>2022-12-15T16:02:26.638Z</time>
      </trkpt>
      <trkpt lat="47.45864" lon="-1.73937">
        <ele>52.740923</ele>
        <time>2022-12-15T16:02:28.637Z</time>
      </trkpt>
      <trkpt lat="47.45868" lon="-1.73924">
        <ele>52.638825</ele>
        <time>2022-12-15T16:02:30.648Z</time>
      </trkpt>
      <trkpt lat="47.45872" lon="-1.73912">
        <ele>52.536477</ele>
        <time>2022-12-15T16:02:32.636Z</time>
      </trkpt>
      <trkpt lat="47.45875" lon="-1.73896">
        <ele>52.411315</ele>
        <time>2022-12-15T16:02:35.641Z</time>
      </trkpt>
      <trkpt lat="47.45879" lon="-1.7388">
        <ele>52.287762</ele>
        <time>2022-12-15T16:02:38.650Z</time>
      </trkpt>
      <trkpt lat="47.45885" lon="-1.73864">
        <ele>52.153107</ele>
        <time>2022-12-15T16:02:41.631Z</time>
      </trkpt>
      <trkpt lat="47.45891" lon="-1.73847">
        <ele>52.390796</ele>
        <time>2022-12-15T16:02:44.651Z</time>
      </trkpt>
      <trkpt lat="47.45896" lon="-1.73835">
        <ele>52.567896</ele>
        <time>2022-12-15T16:02:46.650Z</time>
      </trkpt>
      <trkpt lat="47.45903" lon="-1.73817">
        <ele>52.833084</ele>
        <time>2022-12-15T16:02:49.630Z</time>
      </trkpt>
      <trkpt lat="47.45911" lon="-1.73803">
        <ele>53.064975</ele>
        <time>2022-12-15T16:02:52.632Z</time>
      </trkpt>
      <trkpt lat="47.45918" lon="-1.73789">
        <ele>53.299913</ele>
        <time>2022-12-15T16:02:55.643Z</time>
      </trkpt>
      <trkpt lat="47.45925" lon="-1.73772">
        <ele>53.547551</ele>
        <time>2022-12-15T16:02:58.629Z</time>
      </trkpt>
      <trkpt lat="47.45932" lon="-1.73756">
        <ele>53.789801</ele>
        <time>2022-12-15T16:03:01.632Z</time>
      </trkpt>
      <trkpt lat="47.45939" lon="-1.7374">
        <ele>54.038832</ele>
        <time>2022-12-15T16:03:04.635Z</time>
      </trkpt>
      <trkpt lat="47.45945" lon="-1.73725">
        <ele>54.26455</ele>
        <time>2022-12-15T16:03:07.638Z</time>
      </trkpt>
      <trkpt lat="47.4595" lon="-1.7371">
        <ele>54.482253</ele>
        <time>2022-12-15T16:03:10.639Z</time>
      </trkpt>
      <trkpt lat="47.45955" lon="-1.73698">
        <ele>54.655821</ele>
        <time>2022-12-15T16:03:13.653Z</time>
      </trkpt>
      <trkpt lat="47.4596" lon="-1.73686">
        <ele>54.832317</ele>
        <time>2022-12-15T16:03:16.640Z</time>
      </trkpt>
      <trkpt lat="47.45965" lon="-1.73674">
        <ele>55.027803</ele>
        <time>2022-12-15T16:03:19.649Z</time>
      </trkpt>
      <trkpt lat="47.45972" lon="-1.7366">
        <ele>55.242565</ele>
        <time>2022-12-15T16:03:22.637Z</time>
      </trkpt>
      <trkpt lat="47.45981" lon="-1.73647">
        <ele>55.473564</ele>
        <time>2022-12-15T16:03:25.627Z</time>
      </trkpt>
      <trkpt lat="47.45991" lon="-1.73637">
        <ele>55.509588</ele>
        <time>2022-12-15T16:03:28.649Z</time>
      </trkpt>
      <trkpt lat="47.46003" lon="-1.73628">
        <ele>55.426321</ele>
        <time>2022-12-15T16:03:31.643Z</time>
      </trkpt>
      <trkpt lat="47.46014" lon="-1.73622">
        <ele>55.352129</ele>
        <time>2022-12-15T16:03:34.633Z</time>
      </trkpt>
      <trkpt lat="47.46026" lon="-1.73616">
        <ele>55.275721</ele>
        <time>2022-12-15T16:03:37.633Z</time>
      </trkpt>
      <trkpt lat="47.46037" lon="-1.7361">
        <ele>55.199207</ele>
        <time>2022-12-15T16:03:40.631Z</time>
      </trkpt>
      <trkpt lat="47.46048" lon="-1.73601">
        <ele>55.124615</ele>
        <time>2022-12-15T16:03:43.634Z</time>
      </trkpt>
      <trkpt lat="47.46057" lon="-1.73592">
        <ele>55.053889</ele>
        <time>2022-12-15T16:03:46.649Z</time>
      </trkpt>
      <trkpt lat="47.46067" lon="-1.73582">
        <ele>54.98057</ele>
        <time>2022-12-15T16:03:49.629Z</time>
      </trkpt>
      <trkpt lat="47.46076" lon="-1.73569">
        <ele>54.901648</ele>
        <time>2022-12-15T16:03:52.630Z</time>
      </trkpt>
      <trkpt lat="47.46085" lon="-1.73555">
        <ele>54.822589</ele>
        <time>2022-12-15T16:03:55.653Z</time>
      </trkpt>
      <trkpt lat="47.46094" lon="-1.73543">
        <ele>54.745666</ele>
        <time>2022-12-15T16:03:58.634Z</time>
      </trkpt>
      <trkpt lat="47.46103" lon="-1.73531">
        <ele>54.670683</ele>
        <time>2022-12-15T16:04:01.636Z</time>
      </trkpt>
      <trkpt lat="47.46112" lon="-1.73518">
        <ele>54.593375</ele>
        <time>2022-12-15T16:04:04.628Z</time>
      </trkpt>
      <trkpt lat="47.46118" lon="-1.73507">
        <ele>54.534492</ele>
        <time>2022-12-15T16:04:06.639Z</time>
      </trkpt>
      <trkpt lat="47.46126" lon="-1.73492">
        <ele>54.455049</ele>
        <time>2022-12-15T16:04:09.648Z</time>
      </trkpt>
      <trkpt lat="47.46133" lon="-1.73476">
        <ele>54.318571</ele>
        <time>2022-12-15T16:04:12.628Z</time>
      </trkpt>
      <trkpt lat="47.46138" lon="-1.73461">
        <ele>54.180206</ele>
        <time>2022-12-15T16:04:15.632Z</time>
      </trkpt>
      <trkpt lat="47.46142" lon="-1.73447">
        <ele>54.059947</ele>
        <time>2022-12-15T16:04:18.643Z</time>
      </trkpt>
      <trkpt lat="47.46146" lon="-1.73431">
        <ele>53.928636</ele>
        <time>2022-12-15T16:04:21.632Z</time>
      </trkpt>
      <trkpt lat="47.46151" lon="-1.73413">
        <ele>53.778455</ele>
        <time>2022-12-15T16:04:24.639Z</time>
      </trkpt>
      <trkpt lat="47.46155" lon="-1.73395">
        <ele>53.626132</ele>
        <time>2022-12-15T16:04:27.633Z</time>
      </trkpt>
      <trkpt lat="47.46157" lon="-1.73382">
        <ele>53.520991</ele>
        <time>2022-12-15T16:04:29.644Z</time>
      </trkpt>
      <trkpt lat="47.46162" lon="-1.73365">
        <ele>53.375799</ele>
        <time>2022-12-15T16:04:32.634Z</time>
      </trkpt>
      <trkpt lat="47.46166" lon="-1.73348">
        <ele>53.233386</ele>
        <time>2022-12-15T16:04:35.631Z</time>
      </trkpt>
      <trkpt lat="47.46171" lon="-1.73329">
        <ele>53.073614</ele>
        <time>2022-12-15T16:04:38.637Z</time>
      </trkpt>
      <trkpt lat="47.46174" lon="-1.73316">
        <ele>52.963864</ele>
        <time>2022-12-15T16:04:40.631Z</time>
      </trkpt>
      <trkpt lat="47.46177" lon="-1.73303">
        <ele>52.857089</ele>
        <time>2022-12-15T16:04:42.630Z</time>
      </trkpt>
      <trkpt lat="47.4618" lon="-1.7329">
        <ele>52.748056</ele>
        <time>2022-12-15T16:04:44.632Z</time>
      </trkpt>
      <trkpt lat="47.46184" lon="-1.73272">
        <ele>52.601313</ele>
        <time>2022-12-15T16:04:47.647Z</time>
      </trkpt>
      <trkpt lat="47.46188" lon="-1.73257">
        <ele>52.468754</ele>
        <time>2022-12-15T16:04:50.636Z</time>
      </trkpt>
      <trkpt lat="47.46192" lon="-1.73242">
        <ele>52.347018</ele>
        <time>2022-12-15T16:04:53.632Z</time>
      </trkpt>
      <trkpt lat="47.46194" lon="-1.73228">
        <ele>52.193105</ele>
        <time>2022-12-15T16:04:56.638Z</time>
      </trkpt>
      <trkpt lat="47.46197" lon="-1.73214">
        <ele>52.045843</ele>
        <time>2022-12-15T16:04:59.640Z</time>
      </trkpt>
      <trkpt lat="47.462" lon="-1.73198">
        <ele>51.868903</ele>
        <time>2022-12-15T16:05:02.632Z</time>
      </trkpt>
      <trkpt lat="47.46205" lon="-1.7318">
        <ele>51.673765</ele>
        <time>2022-12-15T16:05:05.632Z</time>
      </trkpt>
      <trkpt lat="47.4621" lon="-1.73162">
        <ele>51.470494</ele>
        <time>2022-12-15T16:05:08.635Z</time>
      </trkpt>
      <trkpt lat="47.46215" lon="-1.7315">
        <ele>51.330525</ele>
        <time>2022-12-15T16:05:10.629Z</time>
      </trkpt>
      <trkpt lat="47.46221" lon="-1.73133">
        <ele>51.132086</ele>
        <time>2022-12-15T16:05:13.636Z</time>
      </trkpt>
      <trkpt lat="47.46227" lon="-1.73117">
        <ele>50.939891</ele>
        <time>2022-12-15T16:05:16.638Z</time>
      </trkpt>
      <trkpt lat="47.46234" lon="-1.73101">
        <ele>50.750515</ele>
        <time>2022-12-15T16:05:19.636Z</time>
      </trkpt>
      <trkpt lat="47.46241" lon="-1.73086">
        <ele>50.561255</ele>
        <time>2022-12-15T16:05:22.635Z</time>
      </trkpt>
      <trkpt lat="47.46247" lon="-1.73074">
        <ele>50.407666</ele>
        <time>2022-12-15T16:05:25.638Z</time>
      </trkpt>
      <trkpt lat="47.46254" lon="-1.73061">
        <ele>50.240146</ele>
        <time>2022-12-15T16:05:28.643Z</time>
      </trkpt>
      <trkpt lat="47.46261" lon="-1.73047">
        <ele>50.062752</ele>
        <time>2022-12-15T16:05:31.636Z</time>
      </trkpt>
      <trkpt lat="47.46267" lon="-1.73031">
        <ele>49.864849</ele>
        <time>2022-12-15T16:05:34.641Z</time>
      </trkpt>
      <trkpt lat="47.46272" lon="-1.73018">
        <ele>49.717049</ele>
        <time>2022-12-15T16:05:36.636Z</time>
      </trkpt>
      <trkpt lat="47.46277" lon="-1.73006">
        <ele>49.642039</ele>
        <time>2022-12-15T16:05:38.635Z</time>
      </trkpt>
      <trkpt lat="47.46282" lon="-1.72994">
        <ele>49.758512</ele>
        <time>2022-12-15T16:05:40.636Z</time>
      </trkpt>
      <trkpt lat="47.46288" lon="-1.72978">
        <ele>49.914622</ele>
        <time>2022-12-15T16:05:43.635Z</time>
      </trkpt>
      <trkpt lat="47.46294" lon="-1.72966">
        <ele>50.033695</ele>
        <time>2022-12-15T16:05:45.642Z</time>
      </trkpt>
      <trkpt lat="47.46299" lon="-1.72954">
        <ele>50.154175</ele>
        <time>2022-12-15T16:05:47.630Z</time>
      </trkpt>
      <trkpt lat="47.46304" lon="-1.72941">
        <ele>50.280414</ele>
        <time>2022-12-15T16:05:49.635Z</time>
      </trkpt>
      <trkpt lat="47.46311" lon="-1.72929">
        <ele>50.413726</ele>
        <time>2022-12-15T16:05:52.650Z</time>
      </trkpt>
      <trkpt lat="47.46318" lon="-1.72914">
        <ele>50.568393</ele>
        <time>2022-12-15T16:05:55.632Z</time>
      </trkpt>
      <trkpt lat="47.46325" lon="-1.72898">
        <ele>50.724751</ele>
        <time>2022-12-15T16:05:58.633Z</time>
      </trkpt>
      <trkpt lat="47.46331" lon="-1.72881">
        <ele>50.883557</ele>
        <time>2022-12-15T16:06:01.635Z</time>
      </trkpt>
      <trkpt lat="47.46336" lon="-1.72869">
        <ele>51.001984</ele>
        <time>2022-12-15T16:06:03.651Z</time>
      </trkpt>
      <trkpt lat="47.4634" lon="-1.72858">
        <ele>51.116376</ele>
        <time>2022-12-15T16:06:05.646Z</time>
      </trkpt>
      <trkpt lat="47.46345" lon="-1.72846">
        <ele>51.230982</ele>
        <time>2022-12-15T16:06:07.647Z</time>
      </trkpt>
      <trkpt lat="47.4635" lon="-1.72833">
        <ele>51.35316</ele>
        <time>2022-12-15T16:06:09.648Z</time>
      </trkpt>
      <trkpt lat="47.46355" lon="-1.7282">
        <ele>51.483755</ele>
        <time>2022-12-15T16:06:11.634Z</time>
      </trkpt>
      <trkpt lat="47.4636" lon="-1.72808">
        <ele>51.597256</ele>
        <time>2022-12-15T16:06:13.633Z</time>
      </trkpt>
      <trkpt lat="47.46367" lon="-1.72794">
        <ele>51.742092</ele>
        <time>2022-12-15T16:06:16.642Z</time>
      </trkpt>
      <trkpt lat="47.46375" lon="-1.72779">
        <ele>51.763855</ele>
        <time>2022-12-15T16:06:19.650Z</time>
      </trkpt>
      <trkpt lat="47.46381" lon="-1.72769">
        <ele>51.61845</ele>
        <time>2022-12-15T16:06:21.634Z</time>
      </trkpt>
      <trkpt lat="47.46387" lon="-1.72758">
        <ele>51.470844</ele>
        <time>2022-12-15T16:06:23.645Z</time>
      </trkpt>
      <trkpt lat="47.46394" lon="-1.72746">
        <ele>51.301712</ele>
        <time>2022-12-15T16:06:26.641Z</time>
      </trkpt>
      <trkpt lat="47.46401" lon="-1.72736">
        <ele>51.146759</ele>
        <time>2022-12-15T16:06:29.646Z</time>
      </trkpt>
      <trkpt lat="47.4641" lon="-1.72723">
        <ele>50.944175</ele>
        <time>2022-12-15T16:06:32.648Z</time>
      </trkpt>
      <trkpt lat="47.46418" lon="-1.72709">
        <ele>50.74955</ele>
        <time>2022-12-15T16:06:35.634Z</time>
      </trkpt>
      <trkpt lat="47.46426" lon="-1.72695">
        <ele>50.546945</ele>
        <time>2022-12-15T16:06:38.642Z</time>
      </trkpt>
      <trkpt lat="47.46434" lon="-1.72681">
        <ele>50.351984</ele>
        <time>2022-12-15T16:06:41.638Z</time>
      </trkpt>
      <trkpt lat="47.4644" lon="-1.7267">
        <ele>50.207044</ele>
        <time>2022-12-15T16:06:43.638Z</time>
      </trkpt>
      <trkpt lat="47.46448" lon="-1.72656">
        <ele>50.008593</ele>
        <time>2022-12-15T16:06:46.643Z</time>
      </trkpt>
      <trkpt lat="47.46458" lon="-1.72643">
        <ele>49.798106</ele>
        <time>2022-12-15T16:06:49.645Z</time>
      </trkpt>
      <trkpt lat="47.46465" lon="-1.72635">
        <ele>49.655055</ele>
        <time>2022-12-15T16:06:51.649Z</time>
      </trkpt>
      <trkpt lat="47.46474" lon="-1.72625">
        <ele>49.475598</ele>
        <time>2022-12-15T16:06:53.652Z</time>
      </trkpt>
      <trkpt lat="47.46482" lon="-1.72617">
        <ele>49.327994</ele>
        <time>2022-12-15T16:06:55.655Z</time>
      </trkpt>
      <trkpt lat="47.46493" lon="-1.72607">
        <ele>49.122111</ele>
        <time>2022-12-15T16:06:58.642Z</time>
      </trkpt>
      <trkpt lat="47.46501" lon="-1.72601">
        <ele>48.992252</ele>
        <time>2022-12-15T16:07:00.640Z</time>
      </trkpt>
      <trkpt lat="47.46514" lon="-1.72593">
        <ele>49.035664</ele>
        <time>2022-12-15T16:07:03.634Z</time>
      </trkpt>
      <trkpt lat="47.46525" lon="-1.72587">
        <ele>49.075236</ele>
        <time>2022-12-15T16:07:06.647Z</time>
      </trkpt>
      <trkpt lat="47.46538" lon="-1.72582">
        <ele>49.117084</ele>
        <time>2022-12-15T16:07:09.634Z</time>
      </trkpt>
      <trkpt lat="47.46549" lon="-1.72577">
        <ele>49.155964</ele>
        <time>2022-12-15T16:07:12.643Z</time>
      </trkpt>
      <trkpt lat="47.4656" lon="-1.72573">
        <ele>49.192601</ele>
        <time>2022-12-15T16:07:15.643Z</time>
      </trkpt>
      <trkpt lat="47.4657" lon="-1.72568">
        <ele>49.226637</ele>
        <time>2022-12-15T16:07:18.641Z</time>
      </trkpt>
      <trkpt lat="47.46582" lon="-1.72563">
        <ele>49.264835</ele>
        <time>2022-12-15T16:07:21.641Z</time>
      </trkpt>
      <trkpt lat="47.46591" lon="-1.7256">
        <ele>49.295957</ele>
        <time>2022-12-15T16:07:24.636Z</time>
      </trkpt>
      <trkpt lat="47.46601" lon="-1.72557">
        <ele>49.328948</ele>
        <time>2022-12-15T16:07:28.626Z</time>
      </trkpt>
      <trkpt lat="47.46613" lon="-1.72552">
        <ele>49.368626</ele>
        <time>2022-12-15T16:07:32.630Z</time>
      </trkpt>
      <trkpt lat="47.46622" lon="-1.72548">
        <ele>49.400292</ele>
        <time>2022-12-15T16:07:35.637Z</time>
      </trkpt>
      <trkpt lat="47.46632" lon="-1.72545">
        <ele>49.433687</ele>
        <time>2022-12-15T16:07:38.629Z</time>
      </trkpt>
      <trkpt lat="47.46642" lon="-1.7254">
        <ele>49.467836</ele>
        <time>2022-12-15T16:07:41.647Z</time>
      </trkpt>
      <trkpt lat="47.46653" lon="-1.72535">
        <ele>49.504202</ele>
        <time>2022-12-15T16:07:44.629Z</time>
      </trkpt>
      <trkpt lat="47.46663" lon="-1.72529">
        <ele>49.538456</ele>
        <time>2022-12-15T16:07:47.656Z</time>
      </trkpt>
      <trkpt lat="47.46674" lon="-1.72523">
        <ele>49.591961</ele>
        <time>2022-12-15T16:07:50.643Z</time>
      </trkpt>
      <trkpt lat="47.46685" lon="-1.72516">
        <ele>49.746926</ele>
        <time>2022-12-15T16:07:53.636Z</time>
      </trkpt>
      <trkpt lat="47.46695" lon="-1.72507">
        <ele>49.908169</ele>
        <time>2022-12-15T16:07:56.643Z</time>
      </trkpt>
      <trkpt lat="47.46706" lon="-1.72498">
        <ele>50.063416</ele>
        <time>2022-12-15T16:07:59.630Z</time>
      </trkpt>
      <trkpt lat="47.46718" lon="-1.7249">
        <ele>50.227493</ele>
        <time>2022-12-15T16:08:02.642Z</time>
      </trkpt>
      <trkpt lat="47.46729" lon="-1.72482">
        <ele>50.390935</ele>
        <time>2022-12-15T16:08:05.644Z</time>
      </trkpt>
      <trkpt lat="47.46741" lon="-1.72476">
        <ele>50.549291</ele>
        <time>2022-12-15T16:08:08.634Z</time>
      </trkpt>
      <trkpt lat="47.46752" lon="-1.72468">
        <ele>50.706615</ele>
        <time>2022-12-15T16:08:11.640Z</time>
      </trkpt>
      <trkpt lat="47.46763" lon="-1.72461">
        <ele>50.864288</ele>
        <time>2022-12-15T16:08:14.641Z</time>
      </trkpt>
      <trkpt lat="47.46774" lon="-1.72454">
        <ele>51.018432</ele>
        <time>2022-12-15T16:08:17.631Z</time>
      </trkpt>
      <trkpt lat="47.46785" lon="-1.72445">
        <ele>51.182508</ele>
        <time>2022-12-15T16:08:20.646Z</time>
      </trkpt>
      <trkpt lat="47.46796" lon="-1.72439">
        <ele>51.33101</ele>
        <time>2022-12-15T16:08:23.639Z</time>
      </trkpt>
      <trkpt lat="47.46807" lon="-1.72432">
        <ele>51.486806</ele>
        <time>2022-12-15T16:08:26.644Z</time>
      </trkpt>
      <trkpt lat="47.46818" lon="-1.72424">
        <ele>51.647821</ele>
        <time>2022-12-15T16:08:29.633Z</time>
      </trkpt>
      <trkpt lat="47.4683" lon="-1.72415">
        <ele>51.820757</ele>
        <time>2022-12-15T16:08:32.634Z</time>
      </trkpt>
      <trkpt lat="47.46839" lon="-1.72408">
        <ele>51.915305</ele>
        <time>2022-12-15T16:08:34.634Z</time>
      </trkpt>
      <trkpt lat="47.46847" lon="-1.72401">
        <ele>51.973272</ele>
        <time>2022-12-15T16:08:36.644Z</time>
      </trkpt>
      <trkpt lat="47.46857" lon="-1.72394">
        <ele>52.042684</ele>
        <time>2022-12-15T16:08:39.641Z</time>
      </trkpt>
      <trkpt lat="47.46865" lon="-1.72383">
        <ele>52.103273</ele>
        <time>2022-12-15T16:08:42.633Z</time>
      </trkpt>
      <trkpt lat="47.46873" lon="-1.72374">
        <ele>52.164597</ele>
        <time>2022-12-15T16:08:45.653Z</time>
      </trkpt>
      <trkpt lat="47.46881" lon="-1.72364">
        <ele>52.231638</ele>
        <time>2022-12-15T16:08:48.635Z</time>
      </trkpt>
      <trkpt lat="47.46889" lon="-1.72354">
        <ele>52.292729</ele>
        <time>2022-12-15T16:08:51.635Z</time>
      </trkpt>
      <trkpt lat="47.46897" lon="-1.72345">
        <ele>52.356984</ele>
        <time>2022-12-15T16:08:54.640Z</time>
      </trkpt>
      <trkpt lat="47.46906" lon="-1.72335">
        <ele>52.424171</ele>
        <time>2022-12-15T16:08:57.641Z</time>
      </trkpt>
      <trkpt lat="47.46914" lon="-1.72323">
        <ele>52.491315</ele>
        <time>2022-12-15T16:09:00.656Z</time>
      </trkpt>
      <trkpt lat="47.46921" lon="-1.7231">
        <ele>52.562829</ele>
        <time>2022-12-15T16:09:03.643Z</time>
      </trkpt>
      <trkpt lat="47.46929" lon="-1.72296">
        <ele>52.637886</ele>
        <time>2022-12-15T16:09:06.631Z</time>
      </trkpt>
      <trkpt lat="47.46937" lon="-1.72282">
        <ele>52.711557</ele>
        <time>2022-12-15T16:09:09.630Z</time>
      </trkpt>
      <trkpt lat="47.46944" lon="-1.72268">
        <ele>52.781361</ele>
        <time>2022-12-15T16:09:12.642Z</time>
      </trkpt>
      <trkpt lat="47.4695" lon="-1.72256">
        <ele>52.847134</ele>
        <time>2022-12-15T16:09:15.633Z</time>
      </trkpt>
      <trkpt lat="47.46957" lon="-1.72241">
        <ele>52.919973</ele>
        <time>2022-12-15T16:09:18.634Z</time>
      </trkpt>
      <trkpt lat="47.46963" lon="-1.72224">
        <ele>53.051628</ele>
        <time>2022-12-15T16:09:21.638Z</time>
      </trkpt>
      <trkpt lat="47.4697" lon="-1.72207">
        <ele>53.334084</ele>
        <time>2022-12-15T16:09:24.631Z</time>
      </trkpt>
      <trkpt lat="47.46978" lon="-1.72192">
        <ele>53.595042</ele>
        <time>2022-12-15T16:09:27.630Z</time>
      </trkpt>
      <trkpt lat="47.46983" lon="-1.72179">
        <ele>53.819401</ele>
        <time>2022-12-15T16:09:30.635Z</time>
      </trkpt>
      <trkpt lat="47.46989" lon="-1.72166">
        <ele>54.027354</ele>
        <time>2022-12-15T16:09:33.630Z</time>
      </trkpt>
      <trkpt lat="47.46993" lon="-1.72151">
        <ele>54.260375</ele>
        <time>2022-12-15T16:09:36.634Z</time>
      </trkpt>
      <trkpt lat="47.46997" lon="-1.72136">
        <ele>54.492663</ele>
        <time>2022-12-15T16:09:39.643Z</time>
      </trkpt>
      <trkpt lat="47.47" lon="-1.7212">
        <ele>54.735759</ele>
        <time>2022-12-15T16:09:43.650Z</time>
      </trkpt>
      <trkpt lat="47.47004" lon="-1.72103">
        <ele>54.98835</ele>
        <time>2022-12-15T16:09:47.631Z</time>
      </trkpt>
      <trkpt lat="47.47008" lon="-1.7209">
        <ele>55.190189</ele>
        <time>2022-12-15T16:09:51.642Z</time>
      </trkpt>
      <trkpt lat="47.47013" lon="-1.72078">
        <ele>55.39301</ele>
        <time>2022-12-15T16:09:56.635Z</time>
      </trkpt>
      <trkpt lat="47.47017" lon="-1.72064">
        <ele>55.602228</ele>
        <time>2022-12-15T16:10:00.635Z</time>
      </trkpt>
      <trkpt lat="47.47024" lon="-1.72054">
        <ele>55.813188</ele>
        <time>2022-12-15T16:10:02.644Z</time>
      </trkpt>
      <trkpt lat="47.47029" lon="-1.72041">
        <ele>56.031825</ele>
        <time>2022-12-15T16:10:04.633Z</time>
      </trkpt>
      <trkpt lat="47.47034" lon="-1.72026">
        <ele>56.261971</ele>
        <time>2022-12-15T16:10:06.644Z</time>
      </trkpt>
      <trkpt lat="47.47039" lon="-1.72013">
        <ele>56.472649</ele>
        <time>2022-12-15T16:10:08.634Z</time>
      </trkpt>
      <trkpt lat="47.47041" lon="-1.72">
        <ele>56.665846</ele>
        <time>2022-12-15T16:10:10.636Z</time>
      </trkpt>
      <trkpt lat="47.47044" lon="-1.71982">
        <ele>56.677225</ele>
        <time>2022-12-15T16:10:13.649Z</time>
      </trkpt>
      <trkpt lat="47.47048" lon="-1.71967">
        <ele>56.536115</ele>
        <time>2022-12-15T16:10:16.647Z</time>
      </trkpt>
      <trkpt lat="47.4705" lon="-1.71951">
        <ele>56.392457</ele>
        <time>2022-12-15T16:10:19.651Z</time>
      </trkpt>
      <trkpt lat="47.47052" lon="-1.71935">
        <ele>56.251971</ele>
        <time>2022-12-15T16:10:22.646Z</time>
      </trkpt>
      <trkpt lat="47.47054" lon="-1.7192">
        <ele>56.120989</ele>
        <time>2022-12-15T16:10:25.654Z</time>
      </trkpt>
      <trkpt lat="47.47055" lon="-1.71906">
        <ele>56.000164</ele>
        <time>2022-12-15T16:10:28.634Z</time>
      </trkpt>
      <trkpt lat="47.47056" lon="-1.71892">
        <ele>55.874007</ele>
        <time>2022-12-15T16:10:31.643Z</time>
      </trkpt>
      <trkpt lat="47.47056" lon="-1.71877">
        <ele>55.74284</ele>
        <time>2022-12-15T16:10:34.640Z</time>
      </trkpt>
      <trkpt lat="47.47057" lon="-1.71861">
        <ele>55.604812</ele>
        <time>2022-12-15T16:10:37.632Z</time>
      </trkpt>
      <trkpt lat="47.47057" lon="-1.71843">
        <ele>55.454787</ele>
        <time>2022-12-15T16:10:40.643Z</time>
      </trkpt>
      <trkpt lat="47.47056" lon="-1.71826">
        <ele>55.306363</ele>
        <time>2022-12-15T16:10:43.636Z</time>
      </trkpt>
      <trkpt lat="47.47056" lon="-1.71809">
        <ele>55.154415</ele>
        <time>2022-12-15T16:10:46.641Z</time>
      </trkpt>
      <trkpt lat="47.47055" lon="-1.71791">
        <ele>54.999108</ele>
        <time>2022-12-15T16:10:49.630Z</time>
      </trkpt>
      <trkpt lat="47.47055" lon="-1.71773">
        <ele>54.841963</ele>
        <time>2022-12-15T16:10:52.639Z</time>
      </trkpt>
      <trkpt lat="47.47055" lon="-1.71755">
        <ele>54.688454</ele>
        <time>2022-12-15T16:10:55.632Z</time>
      </trkpt>
      <trkpt lat="47.47054" lon="-1.71737">
        <ele>54.532359</ele>
        <time>2022-12-15T16:10:58.633Z</time>
      </trkpt>
      <trkpt lat="47.47054" lon="-1.71719">
        <ele>54.498492</ele>
        <time>2022-12-15T16:11:01.650Z</time>
      </trkpt>
      <trkpt lat="47.47054" lon="-1.717">
        <ele>54.556342</ele>
        <time>2022-12-15T16:11:04.640Z</time>
      </trkpt>
      <trkpt lat="47.47053" lon="-1.71683">
        <ele>54.609287</ele>
        <time>2022-12-15T16:11:07.641Z</time>
      </trkpt>
      <trkpt lat="47.47053" lon="-1.71668">
        <ele>54.655812</ele>
        <time>2022-12-15T16:11:10.635Z</time>
      </trkpt>
      <trkpt lat="47.47052" lon="-1.71651">
        <ele>54.709667</ele>
        <time>2022-12-15T16:11:14.643Z</time>
      </trkpt>
      <trkpt lat="47.47051" lon="-1.71635">
        <ele>54.759479</ele>
        <time>2022-12-15T16:11:18.640Z</time>
      </trkpt>
      <trkpt lat="47.47052" lon="-1.7162">
        <ele>54.806276</ele>
        <time>2022-12-15T16:11:23.634Z</time>
      </trkpt>
      <trkpt lat="47.47051" lon="-1.71607">
        <ele>54.847974</ele>
        <time>2022-12-15T16:11:31.635Z</time>
      </trkpt>
      <trkpt lat="47.4705" lon="-1.7159">
        <ele>54.898493</ele>
        <time>2022-12-15T16:11:37.633Z</time>
      </trkpt>
      <trkpt lat="47.47051" lon="-1.71574">
        <ele>54.948953</ele>
        <time>2022-12-15T16:11:41.642Z</time>
      </trkpt>
      <trkpt lat="47.47051" lon="-1.71561">
        <ele>54.990328</ele>
        <time>2022-12-15T16:11:44.628Z</time>
      </trkpt>
      <trkpt lat="47.47051" lon="-1.71546">
        <ele>55.035425</ele>
        <time>2022-12-15T16:11:47.642Z</time>
      </trkpt>
      <trkpt lat="47.47051" lon="-1.71531">
        <ele>55.083321</ele>
        <time>2022-12-15T16:11:50.644Z</time>
      </trkpt>
      <trkpt lat="47.47051" lon="-1.71515">
        <ele>55.134018</ele>
        <time>2022-12-15T16:11:53.632Z</time>
      </trkpt>
      <trkpt lat="47.47051" lon="-1.71498">
        <ele>55.186287</ele>
        <time>2022-12-15T16:11:56.641Z</time>
      </trkpt>
      <trkpt lat="47.47051" lon="-1.71481">
        <ele>55.23947</ele>
        <time>2022-12-15T16:11:59.633Z</time>
      </trkpt>
      <trkpt lat="47.47051" lon="-1.71464">
        <ele>55.292757</ele>
        <time>2022-12-15T16:12:02.629Z</time>
      </trkpt>
      <trkpt lat="47.47051" lon="-1.71447">
        <ele>55.245633</ele>
        <time>2022-12-15T16:12:05.633Z</time>
      </trkpt>
      <trkpt lat="47.47051" lon="-1.7143">
        <ele>55.197946</ele>
        <time>2022-12-15T16:12:08.638Z</time>
      </trkpt>
      <trkpt lat="47.4705" lon="-1.71413">
        <ele>55.150524</ele>
        <time>2022-12-15T16:12:11.643Z</time>
      </trkpt>
      <trkpt lat="47.4705" lon="-1.71396">
        <ele>55.103591</ele>
        <time>2022-12-15T16:12:14.650Z</time>
      </trkpt>
      <trkpt lat="47.4705" lon="-1.71381">
        <ele>55.060946</ele>
        <time>2022-12-15T16:12:17.628Z</time>
      </trkpt>
      <trkpt lat="47.47049" lon="-1.71366">
        <ele>55.017717</ele>
        <time>2022-12-15T16:12:20.651Z</time>
      </trkpt>
      <trkpt lat="47.4705" lon="-1.7135">
        <ele>54.972819</ele>
        <time>2022-12-15T16:12:23.638Z</time>
      </trkpt>
      <trkpt lat="47.4705" lon="-1.71333">
        <ele>54.925412</ele>
        <time>2022-12-15T16:12:26.630Z</time>
      </trkpt>
      <trkpt lat="47.4705" lon="-1.71315">
        <ele>54.875201</ele>
        <time>2022-12-15T16:12:29.630Z</time>
      </trkpt>
      <trkpt lat="47.4705" lon="-1.71296">
        <ele>54.823867</ele>
        <time>2022-12-15T16:12:32.638Z</time>
      </trkpt>
      <trkpt lat="47.4705" lon="-1.71278">
        <ele>54.772814</ele>
        <time>2022-12-15T16:12:35.639Z</time>
      </trkpt>
      <trkpt lat="47.4705" lon="-1.7126">
        <ele>54.720921</ele>
        <time>2022-12-15T16:12:38.633Z</time>
      </trkpt>
      <trkpt lat="47.4705" lon="-1.71241">
        <ele>54.668452</ele>
        <time>2022-12-15T16:12:41.650Z</time>
      </trkpt>
      <trkpt lat="47.4705" lon="-1.71222">
        <ele>54.61487</ele>
        <time>2022-12-15T16:12:44.649Z</time>
      </trkpt>
      <trkpt lat="47.47051" lon="-1.71202">
        <ele>54.559025</ele>
        <time>2022-12-15T16:12:47.650Z</time>
      </trkpt>
      <trkpt lat="47.4705" lon="-1.71183">
        <ele>54.633646</ele>
        <time>2022-12-15T16:12:50.647Z</time>
      </trkpt>
      <trkpt lat="47.4705" lon="-1.71164">
        <ele>54.746489</ele>
        <time>2022-12-15T16:12:53.637Z</time>
      </trkpt>
      <trkpt lat="47.4705" lon="-1.71144">
        <ele>54.862857</ele>
        <time>2022-12-15T16:12:56.647Z</time>
      </trkpt>
      <trkpt lat="47.4705" lon="-1.7113">
        <ele>54.94219</ele>
        <time>2022-12-15T16:12:58.645Z</time>
      </trkpt>
      <trkpt lat="47.4705" lon="-1.71112">
        <ele>55.048024</ele>
        <time>2022-12-15T16:13:01.645Z</time>
      </trkpt>
      <trkpt lat="47.4705" lon="-1.71096">
        <ele>55.143228</ele>
        <time>2022-12-15T16:13:04.634Z</time>
      </trkpt>
      <trkpt lat="47.4705" lon="-1.71079">
        <ele>55.240782</ele>
        <time>2022-12-15T16:13:07.638Z</time>
      </trkpt>
      <trkpt lat="47.4705" lon="-1.71062">
        <ele>55.343037</ele>
        <time>2022-12-15T16:13:10.653Z</time>
      </trkpt>
      <trkpt lat="47.47049" lon="-1.71044">
        <ele>55.45122</ele>
        <time>2022-12-15T16:13:13.634Z</time>
      </trkpt>
      <trkpt lat="47.47049" lon="-1.71024">
        <ele>55.567578</ele>
        <time>2022-12-15T16:13:16.638Z</time>
      </trkpt>
      <trkpt lat="47.47049" lon="-1.71004">
        <ele>55.6857</ele>
        <time>2022-12-15T16:13:19.635Z</time>
      </trkpt>
      <trkpt lat="47.47049" lon="-1.7099">
        <ele>55.765037</ele>
        <time>2022-12-15T16:13:21.633Z</time>
      </trkpt>
      <trkpt lat="47.47049" lon="-1.7097">
        <ele>55.881405</ele>
        <time>2022-12-15T16:13:24.629Z</time>
      </trkpt>
      <trkpt lat="47.47049" lon="-1.70951">
        <ele>55.996598</ele>
        <time>2022-12-15T16:13:27.651Z</time>
      </trkpt>
      <trkpt lat="47.47049" lon="-1.70931">
        <ele>56.110425</ele>
        <time>2022-12-15T16:13:30.632Z</time>
      </trkpt>
      <trkpt lat="47.47048" lon="-1.70912">
        <ele>56.175007</ele>
        <time>2022-12-15T16:13:33.643Z</time>
      </trkpt>
      <trkpt lat="47.47048" lon="-1.70893">
        <ele>56.238927</ele>
        <time>2022-12-15T16:13:36.659Z</time>
      </trkpt>
      <trkpt lat="47.47047" lon="-1.70874">
        <ele>56.300864</ele>
        <time>2022-12-15T16:13:39.642Z</time>
      </trkpt>
      <trkpt lat="47.47047" lon="-1.70855">
        <ele>56.364408</ele>
        <time>2022-12-15T16:13:42.645Z</time>
      </trkpt>
      <trkpt lat="47.47047" lon="-1.70835">
        <ele>56.428299</ele>
        <time>2022-12-15T16:13:45.644Z</time>
      </trkpt>
      <trkpt lat="47.47046" lon="-1.70822">
        <ele>56.473044</ele>
        <time>2022-12-15T16:13:47.651Z</time>
      </trkpt>
      <trkpt lat="47.47046" lon="-1.70808">
        <ele>56.51975</ele>
        <time>2022-12-15T16:13:49.648Z</time>
      </trkpt>
      <trkpt lat="47.47046" lon="-1.70794">
        <ele>56.564428</ele>
        <time>2022-12-15T16:13:51.647Z</time>
      </trkpt>
      <trkpt lat="47.47046" lon="-1.70775">
        <ele>56.628349</ele>
        <time>2022-12-15T16:13:54.643Z</time>
      </trkpt>
      <trkpt lat="47.47046" lon="-1.70758">
        <ele>56.686284</ele>
        <time>2022-12-15T16:13:57.632Z</time>
      </trkpt>
      <trkpt lat="47.47046" lon="-1.7074">
        <ele>56.745855</ele>
        <time>2022-12-15T16:14:00.630Z</time>
      </trkpt>
      <trkpt lat="47.47046" lon="-1.70722">
        <ele>56.805098</ele>
        <time>2022-12-15T16:14:03.632Z</time>
      </trkpt>
      <trkpt lat="47.47046" lon="-1.70703">
        <ele>56.866001</ele>
        <time>2022-12-15T16:14:06.631Z</time>
      </trkpt>
      <trkpt lat="47.47045" lon="-1.70684">
        <ele>56.928929</ele>
        <time>2022-12-15T16:14:09.629Z</time>
      </trkpt>
      <trkpt lat="47.47045" lon="-1.70671">
        <ele>56.973279</ele>
        <time>2022-12-15T16:14:11.634Z</time>
      </trkpt>
      <trkpt lat="47.47046" lon="-1.70657">
        <ele>56.981233</ele>
        <time>2022-12-15T16:14:13.643Z</time>
      </trkpt>
      <trkpt lat="47.47045" lon="-1.70644">
        <ele>56.965103</ele>
        <time>2022-12-15T16:14:15.656Z</time>
      </trkpt>
      <trkpt lat="47.47045" lon="-1.7063">
        <ele>56.949193</ele>
        <time>2022-12-15T16:14:17.648Z</time>
      </trkpt>
      <trkpt lat="47.47044" lon="-1.70616">
        <ele>56.932921</ele>
        <time>2022-12-15T16:14:19.643Z</time>
      </trkpt>
      <trkpt lat="47.47041" lon="-1.70595">
        <ele>56.908018</ele>
        <time>2022-12-15T16:14:22.642Z</time>
      </trkpt>
      <trkpt lat="47.4704" lon="-1.70578">
        <ele>56.888273</ele>
        <time>2022-12-15T16:14:24.650Z</time>
      </trkpt>
      <trkpt lat="47.47036" lon="-1.7056">
        <ele>56.865573</ele>
        <time>2022-12-15T16:14:27.641Z</time>
      </trkpt>
      <trkpt lat="47.47034" lon="-1.70542">
        <ele>56.844937</ele>
        <time>2022-12-15T16:14:30.641Z</time>
      </trkpt>
      <trkpt lat="47.47032" lon="-1.70526">
        <ele>56.826154</ele>
        <time>2022-12-15T16:14:33.646Z</time>
      </trkpt>
      <trkpt lat="47.47028" lon="-1.70508">
        <ele>56.803811</ele>
        <time>2022-12-15T16:14:36.655Z</time>
      </trkpt>
      <trkpt lat="47.47025" lon="-1.70491">
        <ele>56.783441</ele>
        <time>2022-12-15T16:14:39.632Z</time>
      </trkpt>
      <trkpt lat="47.47021" lon="-1.70471">
        <ele>56.758901</ele>
        <time>2022-12-15T16:14:42.651Z</time>
      </trkpt>
      <trkpt lat="47.47019" lon="-1.70453">
        <ele>56.738072</ele>
        <time>2022-12-15T16:14:45.637Z</time>
      </trkpt>
      <trkpt lat="47.47017" lon="-1.7044">
        <ele>56.72176</ele>
        <time>2022-12-15T16:14:47.652Z</time>
      </trkpt>
      <trkpt lat="47.47012" lon="-1.70425">
        <ele>56.703184</ele>
        <time>2022-12-15T16:14:49.635Z</time>
      </trkpt>
      <trkpt lat="47.47009" lon="-1.70413">
        <ele>56.687639</ele>
        <time>2022-12-15T16:14:51.652Z</time>
      </trkpt>
      <trkpt lat="47.47005" lon="-1.70395">
        <ele>56.691439</ele>
        <time>2022-12-15T16:14:54.645Z</time>
      </trkpt>
      <trkpt lat="47.47" lon="-1.70381">
        <ele>56.704655</ele>
        <time>2022-12-15T16:14:56.669Z</time>
      </trkpt>
      <trkpt lat="47.46996" lon="-1.70363">
        <ele>56.720334</ele>
        <time>2022-12-15T16:14:59.627Z</time>
      </trkpt>
      <trkpt lat="47.46992" lon="-1.70345">
        <ele>56.737122</ele>
        <time>2022-12-15T16:15:02.641Z</time>
      </trkpt>
      <trkpt lat="47.46988" lon="-1.70333">
        <ele>56.748742</ele>
        <time>2022-12-15T16:15:04.656Z</time>
      </trkpt>
      <trkpt lat="47.46984" lon="-1.7032">
        <ele>56.760777</ele>
        <time>2022-12-15T16:15:06.645Z</time>
      </trkpt>
      <trkpt lat="47.4698" lon="-1.70308">
        <ele>56.772469</ele>
        <time>2022-12-15T16:15:08.642Z</time>
      </trkpt>
      <trkpt lat="47.46974" lon="-1.70289">
        <ele>56.790095</ele>
        <time>2022-12-15T16:15:11.641Z</time>
      </trkpt>
      <trkpt lat="47.46969" lon="-1.70274">
        <ele>56.804421</ele>
        <time>2022-12-15T16:15:14.637Z</time>
      </trkpt>
      <trkpt lat="47.46965" lon="-1.70261">
        <ele>56.816093</ele>
        <time>2022-12-15T16:15:17.637Z</time>
      </trkpt>
      <trkpt lat="47.46962" lon="-1.70246">
        <ele>56.830399</ele>
        <time>2022-12-15T16:15:21.642Z</time>
      </trkpt>
      <trkpt lat="47.46957" lon="-1.70229">
        <ele>56.845638</ele>
        <time>2022-12-15T16:15:25.636Z</time>
      </trkpt>
      <trkpt lat="47.46954" lon="-1.70214">
        <ele>56.858653</ele>
        <time>2022-12-15T16:15:28.637Z</time>
      </trkpt>
      <trkpt lat="47.46952" lon="-1.70198">
        <ele>56.872727</ele>
        <time>2022-12-15T16:15:31.642Z</time>
      </trkpt>
      <trkpt lat="47.46951" lon="-1.70181">
        <ele>56.887833</ele>
        <time>2022-12-15T16:15:34.628Z</time>
      </trkpt>
      <trkpt lat="47.4695" lon="-1.70162">
        <ele>56.903937</ele>
        <time>2022-12-15T16:15:37.639Z</time>
      </trkpt>
      <trkpt lat="47.46949" lon="-1.70142">
        <ele>57.125051</ele>
        <time>2022-12-15T16:15:40.631Z</time>
      </trkpt>
      <trkpt lat="47.46949" lon="-1.70128">
        <ele>57.319079</ele>
        <time>2022-12-15T16:15:42.650Z</time>
      </trkpt>
      <trkpt lat="47.4695" lon="-1.70114">
        <ele>57.513404</ele>
        <time>2022-12-15T16:15:44.630Z</time>
      </trkpt>
      <trkpt lat="47.46953" lon="-1.70096">
        <ele>57.767501</ele>
        <time>2022-12-15T16:15:47.630Z</time>
      </trkpt>
      <trkpt lat="47.46957" lon="-1.70079">
        <ele>58.017321</ele>
        <time>2022-12-15T16:15:50.630Z</time>
      </trkpt>
      <trkpt lat="47.4696" lon="-1.70062">
        <ele>58.277753</ele>
        <time>2022-12-15T16:15:53.635Z</time>
      </trkpt>
      <trkpt lat="47.46965" lon="-1.70045">
        <ele>58.534693</ele>
        <time>2022-12-15T16:15:56.629Z</time>
      </trkpt>
      <trkpt lat="47.46971" lon="-1.70028">
        <ele>58.794779</ele>
        <time>2022-12-15T16:15:59.650Z</time>
      </trkpt>
      <trkpt lat="47.46977" lon="-1.7001">
        <ele>59.065299</ele>
        <time>2022-12-15T16:16:02.644Z</time>
      </trkpt>
      <trkpt lat="47.46981" lon="-1.69999">
        <ele>59.254538</ele>
        <time>2022-12-15T16:16:04.631Z</time>
      </trkpt>
      <trkpt lat="47.46984" lon="-1.69985">
        <ele>59.450314</ele>
        <time>2022-12-15T16:16:06.640Z</time>
      </trkpt>
      <trkpt lat="47.46988" lon="-1.69973">
        <ele>59.637005</ele>
        <time>2022-12-15T16:16:08.647Z</time>
      </trkpt>
      <trkpt lat="47.46993" lon="-1.69956">
        <ele>59.902883</ele>
        <time>2022-12-15T16:16:11.649Z</time>
      </trkpt>
      <trkpt lat="47.46997" lon="-1.6994">
        <ele>60.131753</ele>
        <time>2022-12-15T16:16:14.647Z</time>
      </trkpt>
      <trkpt lat="47.47001" lon="-1.69926">
        <ele>60.351842</ele>
        <time>2022-12-15T16:16:17.639Z</time>
      </trkpt>
      <trkpt lat="47.47006" lon="-1.69909">
        <ele>60.599564</ele>
        <time>2022-12-15T16:16:20.641Z</time>
      </trkpt>
      <trkpt lat="47.47009" lon="-1.69892">
        <ele>60.582365</ele>
        <time>2022-12-15T16:16:23.633Z</time>
      </trkpt>
      <trkpt lat="47.47012" lon="-1.69875">
        <ele>60.543464</ele>
        <time>2022-12-15T16:16:26.642Z</time>
      </trkpt>
      <trkpt lat="47.47015" lon="-1.69859">
        <ele>60.506337</ele>
        <time>2022-12-15T16:16:29.648Z</time>
      </trkpt>
      <trkpt lat="47.47018" lon="-1.69841">
        <ele>60.463605</ele>
        <time>2022-12-15T16:16:32.643Z</time>
      </trkpt>
      <trkpt lat="47.47022" lon="-1.69822">
        <ele>60.419353</ele>
        <time>2022-12-15T16:16:35.642Z</time>
      </trkpt>
      <trkpt lat="47.47025" lon="-1.69804">
        <ele>60.376622</ele>
        <time>2022-12-15T16:16:38.629Z</time>
      </trkpt>
      <trkpt lat="47.47028" lon="-1.69786">
        <ele>60.335609</ele>
        <time>2022-12-15T16:16:41.638Z</time>
      </trkpt>
      <trkpt lat="47.47031" lon="-1.69768">
        <ele>60.293497</ele>
        <time>2022-12-15T16:16:44.642Z</time>
      </trkpt>
      <trkpt lat="47.47034" lon="-1.6975">
        <ele>60.252108</ele>
        <time>2022-12-15T16:16:47.650Z</time>
      </trkpt>
      <trkpt lat="47.47037" lon="-1.69731">
        <ele>60.208201</ele>
        <time>2022-12-15T16:16:50.627Z</time>
      </trkpt>
      <trkpt lat="47.4704" lon="-1.69712">
        <ele>60.164103</ele>
        <time>2022-12-15T16:16:53.636Z</time>
      </trkpt>
      <trkpt lat="47.47044" lon="-1.69693">
        <ele>60.119367</ele>
        <time>2022-12-15T16:16:56.641Z</time>
      </trkpt>
      <trkpt lat="47.47047" lon="-1.6968">
        <ele>60.088683</ele>
        <time>2022-12-15T16:16:58.631Z</time>
      </trkpt>
      <trkpt lat="47.47048" lon="-1.69667">
        <ele>60.057702</ele>
        <time>2022-12-15T16:17:00.628Z</time>
      </trkpt>
      <trkpt lat="47.47052" lon="-1.69649">
        <ele>60.026842</ele>
        <time>2022-12-15T16:17:03.631Z</time>
      </trkpt>
      <trkpt lat="47.47054" lon="-1.69635">
        <ele>60.081315</ele>
        <time>2022-12-15T16:17:06.642Z</time>
      </trkpt>
      <trkpt lat="47.47055" lon="-1.69619">
        <ele>60.141745</ele>
        <time>2022-12-15T16:17:10.641Z</time>
      </trkpt>
      <trkpt lat="47.47054" lon="-1.69604">
        <ele>60.196166</ele>
        <time>2022-12-15T16:17:14.632Z</time>
      </trkpt>
      <trkpt lat="47.47054" lon="-1.69587">
        <ele>60.262571</ele>
        <time>2022-12-15T16:17:18.630Z</time>
      </trkpt>
      <trkpt lat="47.47053" lon="-1.6957">
        <ele>60.327771</ele>
        <time>2022-12-15T16:17:21.634Z</time>
      </trkpt>
      <trkpt lat="47.47053" lon="-1.69551">
        <ele>60.399037</ele>
        <time>2022-12-15T16:17:24.630Z</time>
      </trkpt>
      <trkpt lat="47.47051" lon="-1.69531">
        <ele>60.472364</ele>
        <time>2022-12-15T16:17:27.633Z</time>
      </trkpt>
      <trkpt lat="47.4705" lon="-1.69512">
        <ele>60.545977</ele>
        <time>2022-12-15T16:17:30.628Z</time>
      </trkpt>
      <trkpt lat="47.47048" lon="-1.69495">
        <ele>60.610431</ele>
        <time>2022-12-15T16:17:33.630Z</time>
      </trkpt>
      <trkpt lat="47.47047" lon="-1.69481">
        <ele>60.662141</ele>
        <time>2022-12-15T16:17:36.647Z</time>
      </trkpt>
      <trkpt lat="47.47046" lon="-1.69466">
        <ele>60.721163</ele>
        <time>2022-12-15T16:17:40.628Z</time>
      </trkpt>
      <trkpt lat="47.47047" lon="-1.69449">
        <ele>60.784973</ele>
        <time>2022-12-15T16:17:44.647Z</time>
      </trkpt>
      <trkpt lat="47.47046" lon="-1.69434">
        <ele>60.841916</ele>
        <time>2022-12-15T16:17:47.633Z</time>
      </trkpt>
      <trkpt lat="47.47046" lon="-1.69418">
        <ele>60.901219</ele>
        <time>2022-12-15T16:17:50.640Z</time>
      </trkpt>
      <trkpt lat="47.47045" lon="-1.69401">
        <ele>60.965272</ele>
        <time>2022-12-15T16:17:53.643Z</time>
      </trkpt>
      <trkpt lat="47.47045" lon="-1.69383">
        <ele>61.026359</ele>
        <time>2022-12-15T16:17:56.646Z</time>
      </trkpt>
      <trkpt lat="47.47045" lon="-1.69365">
        <ele>61.052111</ele>
        <time>2022-12-15T16:17:59.631Z</time>
      </trkpt>
      <trkpt lat="47.47045" lon="-1.69346">
        <ele>61.078276</ele>
        <time>2022-12-15T16:18:02.643Z</time>
      </trkpt>
      <trkpt lat="47.47044" lon="-1.69329">
        <ele>61.102532</ele>
        <time>2022-12-15T16:18:05.633Z</time>
      </trkpt>
      <trkpt lat="47.47044" lon="-1.69315">
        <ele>61.122896</ele>
        <time>2022-12-15T16:18:08.629Z</time>
      </trkpt>
      <trkpt lat="47.47044" lon="-1.69299">
        <ele>61.144541</ele>
        <time>2022-12-15T16:18:11.647Z</time>
      </trkpt>
      <trkpt lat="47.47043" lon="-1.69283">
        <ele>61.168308</ele>
        <time>2022-12-15T16:18:14.644Z</time>
      </trkpt>
      <trkpt lat="47.47043" lon="-1.69265">
        <ele>61.192928</ele>
        <time>2022-12-15T16:18:17.634Z</time>
      </trkpt>
      <trkpt lat="47.47042" lon="-1.69247">
        <ele>61.218284</ele>
        <time>2022-12-15T16:18:20.628Z</time>
      </trkpt>
      <trkpt lat="47.47042" lon="-1.69228">
        <ele>61.246022</ele>
        <time>2022-12-15T16:18:23.648Z</time>
      </trkpt>
      <trkpt lat="47.47041" lon="-1.69214">
        <ele>61.265468</ele>
        <time>2022-12-15T16:18:25.635Z</time>
      </trkpt>
      <trkpt lat="47.47041" lon="-1.692">
        <ele>61.28555</ele>
        <time>2022-12-15T16:18:27.633Z</time>
      </trkpt>
      <trkpt lat="47.47041" lon="-1.69181">
        <ele>61.31244</ele>
        <time>2022-12-15T16:18:30.648Z</time>
      </trkpt>
      <trkpt lat="47.4704" lon="-1.69162">
        <ele>61.338623</ele>
        <time>2022-12-15T16:18:33.634Z</time>
      </trkpt>
      <trkpt lat="47.47041" lon="-1.69148">
        <ele>61.358351</ele>
        <time>2022-12-15T16:18:36.635Z</time>
      </trkpt>
      <trkpt lat="47.47041" lon="-1.69134">
        <ele>61.378591</ele>
        <time>2022-12-15T16:18:40.632Z</time>
      </trkpt>
      <trkpt lat="47.4704" lon="-1.69121">
        <ele>61.397352</ele>
        <time>2022-12-15T16:18:44.629Z</time>
      </trkpt>
      <trkpt lat="47.47039" lon="-1.69104">
        <ele>61.28309</ele>
        <time>2022-12-15T16:18:47.628Z</time>
      </trkpt>
      <trkpt lat="47.47039" lon="-1.69089">
        <ele>61.172393</ele>
        <time>2022-12-15T16:18:49.635Z</time>
      </trkpt>
      <trkpt lat="47.47038" lon="-1.69073">
        <ele>61.055922</ele>
        <time>2022-12-15T16:18:51.638Z</time>
      </trkpt>
      <trkpt lat="47.47038" lon="-1.69056">
        <ele>60.936563</ele>
        <time>2022-12-15T16:18:53.629Z</time>
      </trkpt>
      <trkpt lat="47.47039" lon="-1.69042">
        <ele>60.833146</ele>
        <time>2022-12-15T16:18:55.633Z</time>
      </trkpt>
      <trkpt lat="47.47038" lon="-1.69027">
        <ele>60.72422</ele>
        <time>2022-12-15T16:18:57.630Z</time>
      </trkpt>
      <trkpt lat="47.47038" lon="-1.69008">
        <ele>60.581851</ele>
        <time>2022-12-15T16:19:00.634Z</time>
      </trkpt>
      <trkpt lat="47.47037" lon="-1.68989">
        <ele>60.444563</ele>
        <time>2022-12-15T16:19:03.640Z</time>
      </trkpt>
      <trkpt lat="47.47036" lon="-1.68971">
        <ele>60.317808</ele>
        <time>2022-12-15T16:19:06.651Z</time>
      </trkpt>
      <trkpt lat="47.47036" lon="-1.68952">
        <ele>60.176884</ele>
        <time>2022-12-15T16:19:09.640Z</time>
      </trkpt>
      <trkpt lat="47.47036" lon="-1.68935">
        <ele>60.053304</ele>
        <time>2022-12-15T16:19:12.628Z</time>
      </trkpt>
      <trkpt lat="47.47035" lon="-1.6892">
        <ele>59.947709</ele>
        <time>2022-12-15T16:19:16.648Z</time>
      </trkpt>
      <trkpt lat="47.47034" lon="-1.68906">
        <ele>59.846691</ele>
        <time>2022-12-15T16:19:21.631Z</time>
      </trkpt>
      <trkpt lat="47.47034" lon="-1.68891">
        <ele>59.741177</ele>
        <time>2022-12-15T16:19:26.630Z</time>
      </trkpt>
      <trkpt lat="47.47035" lon="-1.68878">
        <ele>59.642027</ele>
        <time>2022-12-15T16:19:31.638Z</time>
      </trkpt>
      <trkpt lat="47.47035" lon="-1.68864">
        <ele>59.544322</ele>
        <time>2022-12-15T16:19:36.644Z</time>
      </trkpt>
      <trkpt lat="47.47035" lon="-1.68851">
        <ele>59.504205</ele>
        <time>2022-12-15T16:19:43.634Z</time>
      </trkpt>
      <trkpt lat="47.47034" lon="-1.68835">
        <ele>59.618087</ele>
        <time>2022-12-15T16:19:48.632Z</time>
      </trkpt>
      <trkpt lat="47.47034" lon="-1.68818">
        <ele>59.738016</ele>
        <time>2022-12-15T16:19:52.632Z</time>
      </trkpt>
      <trkpt lat="47.47034" lon="-1.68804">
        <ele>59.835889</ele>
        <time>2022-12-15T16:19:55.637Z</time>
      </trkpt>
      <trkpt lat="47.47033" lon="-1.68789">
        <ele>59.938827</ele>
        <time>2022-12-15T16:19:58.634Z</time>
      </trkpt>
      <trkpt lat="47.47033" lon="-1.68773">
        <ele>60.052133</ele>
        <time>2022-12-15T16:20:01.628Z</time>
      </trkpt>
      <trkpt lat="47.47033" lon="-1.68756">
        <ele>60.173251</ele>
        <time>2022-12-15T16:20:04.633Z</time>
      </trkpt>
      <trkpt lat="47.47032" lon="-1.68737">
        <ele>60.304353</ele>
        <time>2022-12-15T16:20:07.640Z</time>
      </trkpt>
      <trkpt lat="47.47031" lon="-1.68719">
        <ele>60.433045</ele>
        <time>2022-12-15T16:20:10.628Z</time>
      </trkpt>
      <trkpt lat="47.4703" lon="-1.68704">
        <ele>60.539441</ele>
        <time>2022-12-15T16:20:13.632Z</time>
      </trkpt>
      <trkpt lat="47.4703" lon="-1.68689">
        <ele>60.646034</ele>
        <time>2022-12-15T16:20:16.644Z</time>
      </trkpt>
      <trkpt lat="47.47029" lon="-1.68672">
        <ele>60.760766</ele>
        <time>2022-12-15T16:20:19.636Z</time>
      </trkpt>
      <trkpt lat="47.47029" lon="-1.68656">
        <ele>60.877966</ele>
        <time>2022-12-15T16:20:22.628Z</time>
      </trkpt>
      <trkpt lat="47.47028" lon="-1.68637">
        <ele>61.012529</ele>
        <time>2022-12-15T16:20:25.632Z</time>
      </trkpt>
      <trkpt lat="47.47028" lon="-1.68618">
        <ele>61.145576</ele>
        <time>2022-12-15T16:20:28.639Z</time>
      </trkpt>
      <trkpt lat="47.47028" lon="-1.68598">
        <ele>61.288626</ele>
        <time>2022-12-15T16:20:31.640Z</time>
      </trkpt>
      <trkpt lat="47.47027" lon="-1.68579">
        <ele>61.440807</ele>
        <time>2022-12-15T16:20:34.634Z</time>
      </trkpt>
      <trkpt lat="47.47026" lon="-1.68563">
        <ele>61.587978</ele>
        <time>2022-12-15T16:20:37.635Z</time>
      </trkpt>
      <trkpt lat="47.47026" lon="-1.68549">
        <ele>61.709751</ele>
        <time>2022-12-15T16:20:40.640Z</time>
      </trkpt>
      <trkpt lat="47.47027" lon="-1.68533">
        <ele>61.85858</ele>
        <time>2022-12-15T16:20:43.633Z</time>
      </trkpt>
      <trkpt lat="47.47026" lon="-1.68515">
        <ele>62.014825</ele>
        <time>2022-12-15T16:20:46.645Z</time>
      </trkpt>
      <trkpt lat="47.47024" lon="-1.68498">
        <ele>62.173933</ele>
        <time>2022-12-15T16:20:49.636Z</time>
      </trkpt>
      <trkpt lat="47.47021" lon="-1.68478">
        <ele>62.352859</ele>
        <time>2022-12-15T16:20:52.630Z</time>
      </trkpt>
      <trkpt lat="47.47019" lon="-1.68465">
        <ele>62.474408</ele>
        <time>2022-12-15T16:20:54.631Z</time>
      </trkpt>
      <trkpt lat="47.47016" lon="-1.68448">
        <ele>62.636542</ele>
        <time>2022-12-15T16:20:57.628Z</time>
      </trkpt>
      <trkpt lat="47.47012" lon="-1.6843">
        <ele>62.810076</ele>
        <time>2022-12-15T16:21:00.630Z</time>
      </trkpt>
      <trkpt lat="47.47007" lon="-1.68412">
        <ele>62.985333</ele>
        <time>2022-12-15T16:21:03.635Z</time>
      </trkpt>
      <trkpt lat="47.47003" lon="-1.68399">
        <ele>63.111707</ele>
        <time>2022-12-15T16:21:05.632Z</time>
      </trkpt>
      <trkpt lat="47.46997" lon="-1.68381">
        <ele>63.286693</ele>
        <time>2022-12-15T16:21:08.633Z</time>
      </trkpt>
      <trkpt lat="47.46992" lon="-1.68369">
        <ele>63.414544</ele>
        <time>2022-12-15T16:21:10.632Z</time>
      </trkpt>
      <trkpt lat="47.46986" lon="-1.68356">
        <ele>63.567122</ele>
        <time>2022-12-15T16:21:13.652Z</time>
      </trkpt>
      <trkpt lat="47.46977" lon="-1.68342">
        <ele>63.739981</ele>
        <time>2022-12-15T16:21:16.651Z</time>
      </trkpt>
      <trkpt lat="47.46969" lon="-1.68328">
        <ele>63.544164</ele>
        <time>2022-12-15T16:21:19.638Z</time>
      </trkpt>
      <trkpt lat="47.4696" lon="-1.68314">
        <ele>63.321184</ele>
        <time>2022-12-15T16:21:22.640Z</time>
      </trkpt>
      <trkpt lat="47.46951" lon="-1.68303">
        <ele>63.12013</ele>
        <time>2022-12-15T16:21:25.645Z</time>
      </trkpt>
      <trkpt lat="47.46941" lon="-1.68292">
        <ele>62.902266</ele>
        <time>2022-12-15T16:21:28.629Z</time>
      </trkpt>
      <trkpt lat="47.46933" lon="-1.68281">
        <ele>62.703153</ele>
        <time>2022-12-15T16:21:31.639Z</time>
      </trkpt>
      <trkpt lat="47.46923" lon="-1.68269">
        <ele>62.489643</ele>
        <time>2022-12-15T16:21:34.644Z</time>
      </trkpt>
      <trkpt lat="47.46913" lon="-1.68259">
        <ele>62.278778</ele>
        <time>2022-12-15T16:21:37.638Z</time>
      </trkpt>
      <trkpt lat="47.46903" lon="-1.68247">
        <ele>62.048936</ele>
        <time>2022-12-15T16:21:40.650Z</time>
      </trkpt>
      <trkpt lat="47.46892" lon="-1.68236">
        <ele>61.823348</ele>
        <time>2022-12-15T16:21:43.630Z</time>
      </trkpt>
      <trkpt lat="47.46885" lon="-1.68225">
        <ele>61.642934</ele>
        <time>2022-12-15T16:21:45.643Z</time>
      </trkpt>
      <trkpt lat="47.46876" lon="-1.68217">
        <ele>61.460838</ele>
        <time>2022-12-15T16:21:47.643Z</time>
      </trkpt>
      <trkpt lat="47.46866" lon="-1.68209">
        <ele>61.270671</ele>
        <time>2022-12-15T16:21:49.637Z</time>
      </trkpt>
      <trkpt lat="47.46858" lon="-1.68201">
        <ele>61.097394</ele>
        <time>2022-12-15T16:21:51.635Z</time>
      </trkpt>
      <trkpt lat="47.46848" lon="-1.6819">
        <ele>60.883731</ele>
        <time>2022-12-15T16:21:54.636Z</time>
      </trkpt>
      <trkpt lat="47.46838" lon="-1.6818">
        <ele>60.671387</ele>
        <time>2022-12-15T16:21:57.646Z</time>
      </trkpt>
      <trkpt lat="47.46829" lon="-1.68168">
        <ele>60.59421</ele>
        <time>2022-12-15T16:22:00.647Z</time>
      </trkpt>
      <trkpt lat="47.46819" lon="-1.68158">
        <ele>60.56724</ele>
        <time>2022-12-15T16:22:03.627Z</time>
      </trkpt>
      <trkpt lat="47.46812" lon="-1.6815">
        <ele>60.546656</ele>
        <time>2022-12-15T16:22:05.651Z</time>
      </trkpt>
      <trkpt lat="47.46804" lon="-1.68142">
        <ele>60.52594</ele>
        <time>2022-12-15T16:22:07.639Z</time>
      </trkpt>
      <trkpt lat="47.46793" lon="-1.68131">
        <ele>60.497438</ele>
        <time>2022-12-15T16:22:10.632Z</time>
      </trkpt>
      <trkpt lat="47.46785" lon="-1.68123">
        <ele>60.475968</ele>
        <time>2022-12-15T16:22:12.631Z</time>
      </trkpt>
      <trkpt lat="47.46778" lon="-1.68115">
        <ele>60.455558</ele>
        <time>2022-12-15T16:22:14.635Z</time>
      </trkpt>
      <trkpt lat="47.46768" lon="-1.68102">
        <ele>60.427301</ele>
        <time>2022-12-15T16:22:17.638Z</time>
      </trkpt>
      <trkpt lat="47.46759" lon="-1.68091">
        <ele>60.401126</ele>
        <time>2022-12-15T16:22:20.645Z</time>
      </trkpt>
      <trkpt lat="47.4675" lon="-1.68082">
        <ele>60.376717</ele>
        <time>2022-12-15T16:22:23.636Z</time>
      </trkpt>
      <trkpt lat="47.46741" lon="-1.68071">
        <ele>60.351653</ele>
        <time>2022-12-15T16:22:26.634Z</time>
      </trkpt>
      <trkpt lat="47.46732" lon="-1.68061">
        <ele>60.326457</ele>
        <time>2022-12-15T16:22:29.632Z</time>
      </trkpt>
      <trkpt lat="47.46723" lon="-1.68051">
        <ele>60.301516</ele>
        <time>2022-12-15T16:22:32.649Z</time>
      </trkpt>
      <trkpt lat="47.46714" lon="-1.68041">
        <ele>60.276676</ele>
        <time>2022-12-15T16:22:35.645Z</time>
      </trkpt>
      <trkpt lat="47.46706" lon="-1.68031">
        <ele>60.253602</ele>
        <time>2022-12-15T16:22:38.639Z</time>
      </trkpt>
      <trkpt lat="47.46698" lon="-1.68022">
        <ele>60.232303</ele>
        <time>2022-12-15T16:22:41.630Z</time>
      </trkpt>
      <trkpt lat="47.46689" lon="-1.68014">
        <ele>60.14215</ele>
        <time>2022-12-15T16:22:44.628Z</time>
      </trkpt>
      <trkpt lat="47.46681" lon="-1.68007">
        <ele>59.920061</ele>
        <time>2022-12-15T16:22:47.637Z</time>
      </trkpt>
      <trkpt lat="47.46673" lon="-1.68001">
        <ele>59.712394</ele>
        <time>2022-12-15T16:22:50.642Z</time>
      </trkpt>
      <trkpt lat="47.46664" lon="-1.67992">
        <ele>59.469065</ele>
        <time>2022-12-15T16:22:54.638Z</time>
      </trkpt>
      <trkpt lat="47.46656" lon="-1.67984">
        <ele>59.261009</ele>
        <time>2022-12-15T16:22:58.626Z</time>
      </trkpt>
      <trkpt lat="47.46646" lon="-1.6798">
        <ele>59.02642</ele>
        <time>2022-12-15T16:23:02.638Z</time>
      </trkpt>
      <trkpt lat="47.46636" lon="-1.67973">
        <ele>58.784677</ele>
        <time>2022-12-15T16:23:06.644Z</time>
      </trkpt>
      <trkpt lat="47.46628" lon="-1.67967">
        <ele>58.579767</ele>
        <time>2022-12-15T16:23:10.648Z</time>
      </trkpt>
      <trkpt lat="47.46618" lon="-1.67964">
        <ele>58.359676</ele>
        <time>2022-12-15T16:23:15.636Z</time>
      </trkpt>
      <trkpt lat="47.46607" lon="-1.6796">
        <ele>58.102957</ele>
        <time>2022-12-15T16:23:20.628Z</time>
      </trkpt>
      <trkpt lat="47.46597" lon="-1.67958">
        <ele>57.872075</ele>
        <time>2022-12-15T16:23:25.631Z</time>
      </trkpt>
      <trkpt lat="47.46587" lon="-1.67955">
        <ele>57.651536</ele>
        <time>2022-12-15T16:23:30.630Z</time>
      </trkpt>
      <trkpt lat="47.46577" lon="-1.67955">
        <ele>57.411698</ele>
        <time>2022-12-15T16:23:35.647Z</time>
      </trkpt>
      <trkpt lat="47.46563" lon="-1.67954">
        <ele>57.100265</ele>
        <time>2022-12-15T16:23:38.643Z</time>
      </trkpt>
      <trkpt lat="47.46548" lon="-1.67954">
        <ele>56.770974</ele>
        <time>2022-12-15T16:23:41.649Z</time>
      </trkpt>
      <trkpt lat="47.46537" lon="-1.67953">
        <ele>56.531233</ele>
        <time>2022-12-15T16:23:43.634Z</time>
      </trkpt>
      <trkpt lat="47.46528" lon="-1.67954">
        <ele>56.318424</ele>
        <time>2022-12-15T16:23:45.643Z</time>
      </trkpt>
      <trkpt lat="47.46515" lon="-1.67956">
        <ele>56.154793</ele>
        <time>2022-12-15T16:23:48.639Z</time>
      </trkpt>
      <trkpt lat="47.46504" lon="-1.6796">
        <ele>56.102581</ele>
        <time>2022-12-15T16:23:51.631Z</time>
      </trkpt>
      <trkpt lat="47.46494" lon="-1.67963">
        <ele>56.055552</ele>
        <time>2022-12-15T16:23:54.638Z</time>
      </trkpt>
      <trkpt lat="47.46483" lon="-1.67966">
        <ele>55.999591</ele>
        <time>2022-12-15T16:23:57.630Z</time>
      </trkpt>
      <trkpt lat="47.4647" lon="-1.6797">
        <ele>55.940702</ele>
        <time>2022-12-15T16:24:00.638Z</time>
      </trkpt>
      <trkpt lat="47.46458" lon="-1.67973">
        <ele>55.881865</ele>
        <time>2022-12-15T16:24:03.637Z</time>
      </trkpt>
      <trkpt lat="47.46445" lon="-1.67975">
        <ele>55.823127</ele>
        <time>2022-12-15T16:24:06.629Z</time>
      </trkpt>
      <trkpt lat="47.46432" lon="-1.67979">
        <ele>55.759567</ele>
        <time>2022-12-15T16:24:09.625Z</time>
      </trkpt>
      <trkpt lat="47.46418" lon="-1.67982">
        <ele>55.692815</ele>
        <time>2022-12-15T16:24:12.637Z</time>
      </trkpt>
      <trkpt lat="47.46408" lon="-1.67984">
        <ele>55.646909</ele>
        <time>2022-12-15T16:24:14.630Z</time>
      </trkpt>
      <trkpt lat="47.46399" lon="-1.67986">
        <ele>55.602439</ele>
        <time>2022-12-15T16:24:16.641Z</time>
      </trkpt>
      <trkpt lat="47.46389" lon="-1.67988">
        <ele>55.555871</ele>
        <time>2022-12-15T16:24:18.628Z</time>
      </trkpt>
      <trkpt lat="47.4638" lon="-1.6799">
        <ele>55.513668</ele>
        <time>2022-12-15T16:24:20.631Z</time>
      </trkpt>
      <trkpt lat="47.46369" lon="-1.67993">
        <ele>55.459655</ele>
        <time>2022-12-15T16:24:23.634Z</time>
      </trkpt>
      <trkpt lat="47.46359" lon="-1.67995">
        <ele>55.413239</ele>
        <time>2022-12-15T16:24:26.648Z</time>
      </trkpt>
      <trkpt lat="47.4635" lon="-1.67997">
        <ele>55.369185</ele>
        <time>2022-12-15T16:24:29.626Z</time>
      </trkpt>
      <trkpt lat="47.4634" lon="-1.68">
        <ele>55.36573</ele>
        <time>2022-12-15T16:24:32.636Z</time>
      </trkpt>
      <trkpt lat="47.46328" lon="-1.68002">
        <ele>55.411773</ele>
        <time>2022-12-15T16:24:35.636Z</time>
      </trkpt>
      <trkpt lat="47.46317" lon="-1.68004">
        <ele>55.45877</ele>
        <time>2022-12-15T16:24:38.650Z</time>
      </trkpt>
      <trkpt lat="47.46305" lon="-1.68003">
        <ele>55.506042</ele>
        <time>2022-12-15T16:24:41.637Z</time>
      </trkpt>
      <trkpt lat="47.46293" lon="-1.68003">
        <ele>55.553276</ele>
        <time>2022-12-15T16:24:44.630Z</time>
      </trkpt>
      <trkpt lat="47.46281" lon="-1.68001">
        <ele>55.602245</ele>
        <time>2022-12-15T16:24:47.644Z</time>
      </trkpt>
      <trkpt lat="47.46268" lon="-1.68">
        <ele>55.65354</ele>
        <time>2022-12-15T16:24:50.650Z</time>
      </trkpt>
      <trkpt lat="47.46257" lon="-1.67998">
        <ele>55.697206</ele>
        <time>2022-12-15T16:24:53.637Z</time>
      </trkpt>
      <trkpt lat="47.46248" lon="-1.67994">
        <ele>55.737653</ele>
        <time>2022-12-15T16:24:56.632Z</time>
      </trkpt>
      <trkpt lat="47.46235" lon="-1.67989">
        <ele>55.788813</ele>
        <time>2022-12-15T16:24:59.647Z</time>
      </trkpt>
      <trkpt lat="47.46226" lon="-1.67986">
        <ele>55.825351</ele>
        <time>2022-12-15T16:25:01.634Z</time>
      </trkpt>
      <trkpt lat="47.46215" lon="-1.6798">
        <ele>55.874151</ele>
        <time>2022-12-15T16:25:04.633Z</time>
      </trkpt>
      <trkpt lat="47.46204" lon="-1.67972">
        <ele>55.920814</ele>
        <time>2022-12-15T16:25:07.639Z</time>
      </trkpt>
      <trkpt lat="47.46196" lon="-1.67964">
        <ele>55.962391</ele>
        <time>2022-12-15T16:25:10.631Z</time>
      </trkpt>
      <trkpt lat="47.46187" lon="-1.67956">
        <ele>56.004079</ele>
        <time>2022-12-15T16:25:14.644Z</time>
      </trkpt>
      <trkpt lat="47.46178" lon="-1.67949">
        <ele>56.04355</ele>
        <time>2022-12-15T16:25:17.640Z</time>
      </trkpt>
      <trkpt lat="47.46169" lon="-1.67939">
        <ele>56.165356</ele>
        <time>2022-12-15T16:25:20.640Z</time>
      </trkpt>
      <trkpt lat="47.4616" lon="-1.67929">
        <ele>56.377851</ele>
        <time>2022-12-15T16:25:23.637Z</time>
      </trkpt>
      <trkpt lat="47.46149" lon="-1.6792">
        <ele>56.598843</ele>
        <time>2022-12-15T16:25:26.643Z</time>
      </trkpt>
      <trkpt lat="47.46138" lon="-1.67909">
        <ele>56.84336</ele>
        <time>2022-12-15T16:25:29.643Z</time>
      </trkpt>
      <trkpt lat="47.46129" lon="-1.67903">
        <ele>57.031944</ele>
        <time>2022-12-15T16:25:31.629Z</time>
      </trkpt>
      <trkpt lat="47.4612" lon="-1.67897">
        <ele>57.211349</ele>
        <time>2022-12-15T16:25:33.647Z</time>
      </trkpt>
      <trkpt lat="47.46108" lon="-1.67887">
        <ele>57.455599</ele>
        <time>2022-12-15T16:25:36.632Z</time>
      </trkpt>
      <trkpt lat="47.461" lon="-1.6788">
        <ele>57.631952</ele>
        <time>2022-12-15T16:25:38.630Z</time>
      </trkpt>
      <trkpt lat="47.46089" lon="-1.67869">
        <ele>57.866441</ele>
        <time>2022-12-15T16:25:41.640Z</time>
      </trkpt>
      <trkpt lat="47.46079" lon="-1.67859">
        <ele>58.086769</ele>
        <time>2022-12-15T16:25:44.637Z</time>
      </trkpt>
      <trkpt lat="47.4607" lon="-1.67851">
        <ele>58.274673</ele>
        <time>2022-12-15T16:25:46.649Z</time>
      </trkpt>
      <trkpt lat="47.46062" lon="-1.67845">
        <ele>58.44502</ele>
        <time>2022-12-15T16:25:48.653Z</time>
      </trkpt>
      <trkpt lat="47.46054" lon="-1.67837">
        <ele>58.619756</ele>
        <time>2022-12-15T16:25:50.641Z</time>
      </trkpt>
      <trkpt lat="47.46043" lon="-1.67827">
        <ele>58.860542</ele>
        <time>2022-12-15T16:25:53.647Z</time>
      </trkpt>
      <trkpt lat="47.46033" lon="-1.67819">
        <ele>59.059765</ele>
        <time>2022-12-15T16:25:55.626Z</time>
      </trkpt>
      <trkpt lat="47.46021" lon="-1.67809">
        <ele>59.315403</ele>
        <time>2022-12-15T16:25:58.630Z</time>
      </trkpt>
      <trkpt lat="47.46012" lon="-1.67802">
        <ele>59.231402</ele>
        <time>2022-12-15T16:26:00.633Z</time>
      </trkpt>
      <trkpt lat="47.46003" lon="-1.67794">
        <ele>59.073524</ele>
        <time>2022-12-15T16:26:02.630Z</time>
      </trkpt>
      <trkpt lat="47.45991" lon="-1.67784">
        <ele>58.891604</ele>
        <time>2022-12-15T16:26:05.636Z</time>
      </trkpt>
      <trkpt lat="47.45981" lon="-1.67774">
        <ele>58.714771</ele>
        <time>2022-12-15T16:26:08.626Z</time>
      </trkpt>
      <trkpt lat="47.45971" lon="-1.67764">
        <ele>58.546626</ele>
        <time>2022-12-15T16:26:11.661Z</time>
      </trkpt>
      <trkpt lat="47.45964" lon="-1.67755">
        <ele>58.411076</ele>
        <time>2022-12-15T16:26:14.646Z</time>
      </trkpt>
      <trkpt lat="47.45957" lon="-1.67743">
        <ele>58.263227</ele>
        <time>2022-12-15T16:26:17.656Z</time>
      </trkpt>
      <trkpt lat="47.4595" lon="-1.67732">
        <ele>58.116845</ele>
        <time>2022-12-15T16:26:20.664Z</time>
      </trkpt>
      <trkpt lat="47.45942" lon="-1.67719">
        <ele>57.953765</ele>
        <time>2022-12-15T16:26:23.657Z</time>
      </trkpt>
      <trkpt lat="47.45935" lon="-1.67705">
        <ele>57.79178</ele>
        <time>2022-12-15T16:26:26.631Z</time>
      </trkpt>
      <trkpt lat="47.45927" lon="-1.6769">
        <ele>57.605984</ele>
        <time>2022-12-15T16:26:29.644Z</time>
      </trkpt>
      <trkpt lat="47.4592" lon="-1.67674">
        <ele>57.42909</ele>
        <time>2022-12-15T16:26:32.661Z</time>
      </trkpt>
      <trkpt lat="47.45914" lon="-1.6766">
        <ele>57.2726</ele>
        <time>2022-12-15T16:26:35.627Z</time>
      </trkpt>
      <trkpt lat="47.4591" lon="-1.67648">
        <ele>57.142468</ele>
        <time>2022-12-15T16:26:38.651Z</time>
      </trkpt>
      <trkpt lat="47.45905" lon="-1.67635">
        <ele>57.00111</ele>
        <time>2022-12-15T16:26:41.628Z</time>
      </trkpt>
      <trkpt lat="47.45902" lon="-1.67621">
        <ele>56.862346</ele>
        <time>2022-12-15T16:26:44.653Z</time>
      </trkpt>
      <trkpt lat="47.45898" lon="-1.67608">
        <ele>56.879235</ele>
        <time>2022-12-15T16:26:47.662Z</time>
      </trkpt>
      <trkpt lat="47.45894" lon="-1.67593">
        <ele>56.980207</ele>
        <time>2022-12-15T16:26:50.633Z</time>
      </trkpt>
      <trkpt lat="47.45889" lon="-1.67577">
        <ele>57.090388</ele>
        <time>2022-12-15T16:26:53.632Z</time>
      </trkpt>
      <trkpt lat="47.45885" lon="-1.67561">
        <ele>57.196978</ele>
        <time>2022-12-15T16:26:56.638Z</time>
      </trkpt>
      <trkpt lat="47.45881" lon="-1.67549">
        <ele>57.28342</ele>
        <time>2022-12-15T16:26:58.658Z</time>
      </trkpt>
      <trkpt lat="47.45876" lon="-1.67532">
        <ele>57.401224</ele>
        <time>2022-12-15T16:27:01.641Z</time>
      </trkpt>
      <trkpt lat="47.45871" lon="-1.67515">
        <ele>57.515928</ele>
        <time>2022-12-15T16:27:04.648Z</time>
      </trkpt>
      <trkpt lat="47.45867" lon="-1.67498">
        <ele>57.630974</ele>
        <time>2022-12-15T16:27:07.655Z</time>
      </trkpt>
      <trkpt lat="47.45862" lon="-1.6748">
        <ele>57.749629</ele>
        <time>2022-12-15T16:27:10.631Z</time>
      </trkpt>
      <trkpt lat="47.45857" lon="-1.67464">
        <ele>57.861333</ele>
        <time>2022-12-15T16:27:13.649Z</time>
      </trkpt>
      <trkpt lat="47.45853" lon="-1.67447">
        <ele>57.973553</ele>
        <time>2022-12-15T16:27:16.659Z</time>
      </trkpt>
      <trkpt lat="47.45848" lon="-1.67429">
        <ele>58.094657</ele>
        <time>2022-12-15T16:27:19.642Z</time>
      </trkpt>
      <trkpt lat="47.45844" lon="-1.67417">
        <ele>58.180195</ele>
        <time>2022-12-15T16:27:21.647Z</time>
      </trkpt>
      <trkpt lat="47.45839" lon="-1.674">
        <ele>58.296885</ele>
        <time>2022-12-15T16:27:24.628Z</time>
      </trkpt>
      <trkpt lat="47.45835" lon="-1.67383">
        <ele>58.409253</ele>
        <time>2022-12-15T16:27:27.641Z</time>
      </trkpt>
      <trkpt lat="47.45831" lon="-1.67367">
        <ele>58.453635</ele>
        <time>2022-12-15T16:27:30.645Z</time>
      </trkpt>
      <trkpt lat="47.45827" lon="-1.6735">
        <ele>58.303412</ele>
        <time>2022-12-15T16:27:33.644Z</time>
      </trkpt>
      <trkpt lat="47.45823" lon="-1.67333">
        <ele>58.151976</ele>
        <time>2022-12-15T16:27:36.650Z</time>
      </trkpt>
      <trkpt lat="47.45819" lon="-1.67315">
        <ele>57.992641</ele>
        <time>2022-12-15T16:27:39.651Z</time>
      </trkpt>
      <trkpt lat="47.45814" lon="-1.67297">
        <ele>57.836506</ele>
        <time>2022-12-15T16:27:42.635Z</time>
      </trkpt>
      <trkpt lat="47.45811" lon="-1.6728">
        <ele>57.683444</ele>
        <time>2022-12-15T16:27:45.637Z</time>
      </trkpt>
      <trkpt lat="47.45806" lon="-1.67262">
        <ele>57.528663</ele>
        <time>2022-12-15T16:27:48.636Z</time>
      </trkpt>
      <trkpt lat="47.45801" lon="-1.67249">
        <ele>57.401403</ele>
        <time>2022-12-15T16:27:50.651Z</time>
      </trkpt>
      <trkpt lat="47.45798" lon="-1.67236">
        <ele>57.286507</ele>
        <time>2022-12-15T16:27:52.648Z</time>
      </trkpt>
      <trkpt lat="47.45793" lon="-1.6722">
        <ele>57.138522</ele>
        <time>2022-12-15T16:27:55.632Z</time>
      </trkpt>
      <trkpt lat="47.45788" lon="-1.67203">
        <ele>56.983081</ele>
        <time>2022-12-15T16:27:58.626Z</time>
      </trkpt>
      <trkpt lat="47.45784" lon="-1.67184">
        <ele>56.820652</ele>
        <time>2022-12-15T16:28:01.654Z</time>
      </trkpt>
      <trkpt lat="47.45779" lon="-1.67166">
        <ele>56.657114</ele>
        <time>2022-12-15T16:28:04.662Z</time>
      </trkpt>
      <trkpt lat="47.45774" lon="-1.67154">
        <ele>56.538799</ele>
        <time>2022-12-15T16:28:06.657Z</time>
      </trkpt>
      <trkpt lat="47.4577" lon="-1.67142">
        <ele>56.42342</ele>
        <time>2022-12-15T16:28:08.645Z</time>
      </trkpt>
      <trkpt lat="47.45764" lon="-1.67125">
        <ele>56.272594</ele>
        <time>2022-12-15T16:28:11.659Z</time>
      </trkpt>
      <trkpt lat="47.45757" lon="-1.67109">
        <ele>56.342822</ele>
        <time>2022-12-15T16:28:14.644Z</time>
      </trkpt>
      <trkpt lat="47.45751" lon="-1.67096">
        <ele>56.398363</ele>
        <time>2022-12-15T16:28:16.637Z</time>
      </trkpt>
      <trkpt lat="47.45744" lon="-1.6708">
        <ele>56.469213</ele>
        <time>2022-12-15T16:28:19.642Z</time>
      </trkpt>
      <trkpt lat="47.45739" lon="-1.67068">
        <ele>56.518642</ele>
        <time>2022-12-15T16:28:21.641Z</time>
      </trkpt>
      <trkpt lat="47.45732" lon="-1.67054">
        <ele>56.581635</ele>
        <time>2022-12-15T16:28:24.639Z</time>
      </trkpt>
      <trkpt lat="47.45726" lon="-1.67042">
        <ele>56.63839</ele>
        <time>2022-12-15T16:28:27.631Z</time>
      </trkpt>
      <trkpt lat="47.45719" lon="-1.67029">
        <ele>56.695291</ele>
        <time>2022-12-15T16:28:30.654Z</time>
      </trkpt>
      <trkpt lat="47.45713" lon="-1.67018">
        <ele>56.74966</ele>
        <time>2022-12-15T16:28:33.655Z</time>
      </trkpt>
      <trkpt lat="47.45705" lon="-1.67005">
        <ele>56.812983</ele>
        <time>2022-12-15T16:28:36.646Z</time>
      </trkpt>
      <trkpt lat="47.45698" lon="-1.66994">
        <ele>56.868109</ele>
        <time>2022-12-15T16:28:38.629Z</time>
      </trkpt>
      <trkpt lat="47.4569" lon="-1.6698">
        <ele>56.933058</ele>
        <time>2022-12-15T16:28:41.648Z</time>
      </trkpt>
      <trkpt lat="47.45681" lon="-1.66967">
        <ele>57.001005</ele>
        <time>2022-12-15T16:28:44.633Z</time>
      </trkpt>
      <trkpt lat="47.45673" lon="-1.66954">
        <ele>57.064959</ele>
        <time>2022-12-15T16:28:47.629Z</time>
      </trkpt>
      <trkpt lat="47.45664" lon="-1.6694">
        <ele>57.135771</ele>
        <time>2022-12-15T16:28:50.629Z</time>
      </trkpt>
      <trkpt lat="47.45658" lon="-1.66929">
        <ele>57.189005</ele>
        <time>2022-12-15T16:28:52.658Z</time>
      </trkpt>
      <trkpt lat="47.4565" lon="-1.66918">
        <ele>57.230421</ele>
        <time>2022-12-15T16:28:54.661Z</time>
      </trkpt>
      <trkpt lat="47.45641" lon="-1.66904">
        <ele>57.156121</ele>
        <time>2022-12-15T16:28:57.649Z</time>
      </trkpt>
      <trkpt lat="47.45633" lon="-1.66889">
        <ele>57.082924</ele>
        <time>2022-12-15T16:29:00.637Z</time>
      </trkpt>
      <trkpt lat="47.45625" lon="-1.66875">
        <ele>57.01068</ele>
        <time>2022-12-15T16:29:03.649Z</time>
      </trkpt>
      <trkpt lat="47.45617" lon="-1.66863">
        <ele>56.948639</ele>
        <time>2022-12-15T16:29:06.648Z</time>
      </trkpt>
      <trkpt lat="47.4561" lon="-1.66851">
        <ele>56.888401</ele>
        <time>2022-12-15T16:29:09.630Z</time>
      </trkpt>
      <trkpt lat="47.45603" lon="-1.66839">
        <ele>56.825975</ele>
        <time>2022-12-15T16:29:12.640Z</time>
      </trkpt>
      <trkpt lat="47.45594" lon="-1.66826">
        <ele>56.755512</ele>
        <time>2022-12-15T16:29:15.630Z</time>
      </trkpt>
      <trkpt lat="47.45587" lon="-1.66815">
        <ele>56.695848</ele>
        <time>2022-12-15T16:29:18.633Z</time>
      </trkpt>
      <trkpt lat="47.4558" lon="-1.66805">
        <ele>56.643802</ele>
        <time>2022-12-15T16:29:21.657Z</time>
      </trkpt>
      <trkpt lat="47.45573" lon="-1.66795">
        <ele>56.588009</ele>
        <time>2022-12-15T16:29:24.657Z</time>
      </trkpt>
      <trkpt lat="47.45566" lon="-1.66782">
        <ele>56.525726</ele>
        <time>2022-12-15T16:29:27.640Z</time>
      </trkpt>
      <trkpt lat="47.4556" lon="-1.66772">
        <ele>56.469763</ele>
        <time>2022-12-15T16:29:30.631Z</time>
      </trkpt>
      <trkpt lat="47.45552" lon="-1.6676">
        <ele>56.40561</ele>
        <time>2022-12-15T16:29:33.634Z</time>
      </trkpt>
      <trkpt lat="47.45543" lon="-1.66746">
        <ele>56.334641</ele>
        <time>2022-12-15T16:29:36.637Z</time>
      </trkpt>
      <trkpt lat="47.45536" lon="-1.66734">
        <ele>56.270488</ele>
        <time>2022-12-15T16:29:39.633Z</time>
      </trkpt>
      <trkpt lat="47.45528" lon="-1.66722">
        <ele>56.23755</ele>
        <time>2022-12-15T16:29:43.656Z</time>
      </trkpt>
      <trkpt lat="47.45522" lon="-1.66712">
        <ele>56.325373</ele>
        <time>2022-12-15T16:29:46.629Z</time>
      </trkpt>
      <trkpt lat="47.45516" lon="-1.66702">
        <ele>56.414481</ele>
        <time>2022-12-15T16:29:49.646Z</time>
      </trkpt>
      <trkpt lat="47.4551" lon="-1.66688">
        <ele>56.517689</ele>
        <time>2022-12-15T16:29:53.638Z</time>
      </trkpt>
      <trkpt lat="47.45505" lon="-1.66676">
        <ele>56.608761</ele>
        <time>2022-12-15T16:29:57.659Z</time>
      </trkpt>
      <trkpt lat="47.455" lon="-1.66665">
        <ele>56.70422</ele>
        <time>2022-12-15T16:30:01.659Z</time>
      </trkpt>
      <trkpt lat="47.45492" lon="-1.66651">
        <ele>56.822569</ele>
        <time>2022-12-15T16:30:05.643Z</time>
      </trkpt>
      <trkpt lat="47.45483" lon="-1.66638">
        <ele>56.943428</ele>
        <time>2022-12-15T16:30:09.650Z</time>
      </trkpt>
      <trkpt lat="47.45476" lon="-1.66626">
        <ele>57.04771</ele>
        <time>2022-12-15T16:30:12.657Z</time>
      </trkpt>
      <trkpt lat="47.45468" lon="-1.66615">
        <ele>57.154201</ele>
        <time>2022-12-15T16:30:15.634Z</time>
      </trkpt>
      <trkpt lat="47.4546" lon="-1.66602">
        <ele>57.267581</ele>
        <time>2022-12-15T16:30:18.630Z</time>
      </trkpt>
      <trkpt lat="47.45452" lon="-1.66588">
        <ele>57.39125</ele>
        <time>2022-12-15T16:30:21.637Z</time>
      </trkpt>
      <trkpt lat="47.45443" lon="-1.66576">
        <ele>57.511135</ele>
        <time>2022-12-15T16:30:24.660Z</time>
      </trkpt>
      <trkpt lat="47.45435" lon="-1.66562">
        <ele>57.627774</ele>
        <time>2022-12-15T16:30:27.661Z</time>
      </trkpt>
      <trkpt lat="47.45427" lon="-1.66551">
        <ele>57.735678</ele>
        <time>2022-12-15T16:30:30.641Z</time>
      </trkpt>
      <trkpt lat="47.4542" lon="-1.66538">
        <ele>57.839712</ele>
        <time>2022-12-15T16:30:33.662Z</time>
      </trkpt>
      <trkpt lat="47.45412" lon="-1.66526">
        <ele>57.951816</ele>
        <time>2022-12-15T16:30:37.647Z</time>
      </trkpt>
      <trkpt lat="47.45405" lon="-1.66516">
        <ele>58.142972</ele>
        <time>2022-12-15T16:30:40.637Z</time>
      </trkpt>
      <trkpt lat="47.45397" lon="-1.66503">
        <ele>58.406788</ele>
        <time>2022-12-15T16:30:43.633Z</time>
      </trkpt>
      <trkpt lat="47.45388" lon="-1.6649">
        <ele>58.678822</ele>
        <time>2022-12-15T16:30:46.658Z</time>
      </trkpt>
      <trkpt lat="47.45379" lon="-1.66476">
        <ele>58.954851</ele>
        <time>2022-12-15T16:30:49.635Z</time>
      </trkpt>
      <trkpt lat="47.45371" lon="-1.66463">
        <ele>59.218863</ele>
        <time>2022-12-15T16:30:52.636Z</time>
      </trkpt>
      <trkpt lat="47.45362" lon="-1.6645">
        <ele>59.491893</ele>
        <time>2022-12-15T16:30:55.645Z</time>
      </trkpt>
      <trkpt lat="47.45354" lon="-1.66435">
        <ele>59.773642</ele>
        <time>2022-12-15T16:30:58.630Z</time>
      </trkpt>
      <trkpt lat="47.45344" lon="-1.66421">
        <ele>60.062328</ele>
        <time>2022-12-15T16:31:01.643Z</time>
      </trkpt>
      <trkpt lat="47.45338" lon="-1.66411">
        <ele>60.266843</ele>
        <time>2022-12-15T16:31:03.634Z</time>
      </trkpt>
      <trkpt lat="47.45331" lon="-1.664">
        <ele>60.482813</ele>
        <time>2022-12-15T16:31:05.634Z</time>
      </trkpt>
      <trkpt lat="47.45323" lon="-1.66386">
        <ele>60.758769</ele>
        <time>2022-12-15T16:31:08.652Z</time>
      </trkpt>
      <trkpt lat="47.45315" lon="-1.66373">
        <ele>61.008268</ele>
        <time>2022-12-15T16:31:11.652Z</time>
      </trkpt>
      <trkpt lat="47.45306" lon="-1.66359">
        <ele>61.292703</ele>
        <time>2022-12-15T16:31:14.630Z</time>
      </trkpt>
      <trkpt lat="47.45297" lon="-1.66345">
        <ele>61.57301</ele>
        <time>2022-12-15T16:31:17.650Z</time>
      </trkpt>
      <trkpt lat="47.45288" lon="-1.66331">
        <ele>61.859565</ele>
        <time>2022-12-15T16:31:20.644Z</time>
      </trkpt>
      <trkpt lat="47.4528" lon="-1.66318">
        <ele>61.690984</ele>
        <time>2022-12-15T16:31:23.645Z</time>
      </trkpt>
      <trkpt lat="47.45272" lon="-1.66305">
        <ele>61.505212</ele>
        <time>2022-12-15T16:31:26.639Z</time>
      </trkpt>
      <trkpt lat="47.45263" lon="-1.66291">
        <ele>61.309517</ele>
        <time>2022-12-15T16:31:29.641Z</time>
      </trkpt>
      <trkpt lat="47.45257" lon="-1.66281">
        <ele>61.171572</ele>
        <time>2022-12-15T16:31:31.662Z</time>
      </trkpt>
      <trkpt lat="47.45248" lon="-1.66267">
        <ele>60.982515</ele>
        <time>2022-12-15T16:31:34.641Z</time>
      </trkpt>
      <trkpt lat="47.45241" lon="-1.66257">
        <ele>60.831048</ele>
        <time>2022-12-15T16:31:37.631Z</time>
      </trkpt>
      <trkpt lat="47.45235" lon="-1.66246">
        <ele>60.681472</ele>
        <time>2022-12-15T16:31:40.657Z</time>
      </trkpt>
      <trkpt lat="47.45228" lon="-1.66235">
        <ele>60.532131</ele>
        <time>2022-12-15T16:31:43.643Z</time>
      </trkpt>
      <trkpt lat="47.45222" lon="-1.66223">
        <ele>60.37987</ele>
        <time>2022-12-15T16:31:46.634Z</time>
      </trkpt>
      <trkpt lat="47.45214" lon="-1.6621">
        <ele>60.197645</ele>
        <time>2022-12-15T16:31:49.652Z</time>
      </trkpt>
      <trkpt lat="47.45205" lon="-1.66196">
        <ele>60.007067</ele>
        <time>2022-12-15T16:31:52.648Z</time>
      </trkpt>
      <trkpt lat="47.45197" lon="-1.66182">
        <ele>59.814192</ele>
        <time>2022-12-15T16:31:55.631Z</time>
      </trkpt>
      <trkpt lat="47.45189" lon="-1.66167">
        <ele>59.614462</ele>
        <time>2022-12-15T16:31:58.643Z</time>
      </trkpt>
      <trkpt lat="47.45182" lon="-1.66152">
        <ele>59.434079</ele>
        <time>2022-12-15T16:32:01.643Z</time>
      </trkpt>
      <trkpt lat="47.45176" lon="-1.66138">
        <ele>59.26047</ele>
        <time>2022-12-15T16:32:04.644Z</time>
      </trkpt>
      <trkpt lat="47.45168" lon="-1.66122">
        <ele>59.205234</ele>
        <time>2022-12-15T16:32:07.646Z</time>
      </trkpt>
      <trkpt lat="47.45163" lon="-1.66108">
        <ele>59.330824</ele>
        <time>2022-12-15T16:32:10.660Z</time>
      </trkpt>
      <trkpt lat="47.45159" lon="-1.66094">
        <ele>59.44414</ele>
        <time>2022-12-15T16:32:13.630Z</time>
      </trkpt>
      <trkpt lat="47.45154" lon="-1.66079">
        <ele>59.571547</ele>
        <time>2022-12-15T16:32:17.641Z</time>
      </trkpt>
      <trkpt lat="47.4515" lon="-1.66062">
        <ele>59.707796</ele>
        <time>2022-12-15T16:32:21.638Z</time>
      </trkpt>
      <trkpt lat="47.45147" lon="-1.66048">
        <ele>59.81838</ele>
        <time>2022-12-15T16:32:24.645Z</time>
      </trkpt>
      <trkpt lat="47.45144" lon="-1.66033">
        <ele>59.93976</ele>
        <time>2022-12-15T16:32:27.632Z</time>
      </trkpt>
      <trkpt lat="47.45141" lon="-1.66017">
        <ele>60.063111</ele>
        <time>2022-12-15T16:32:30.655Z</time>
      </trkpt>
      <trkpt lat="47.45138" lon="-1.66001">
        <ele>60.18736</ele>
        <time>2022-12-15T16:32:33.663Z</time>
      </trkpt>
      <trkpt lat="47.45136" lon="-1.65987">
        <ele>60.300038</ele>
        <time>2022-12-15T16:32:36.645Z</time>
      </trkpt>
      <trkpt lat="47.45134" lon="-1.65973">
        <ele>60.406033</ele>
        <time>2022-12-15T16:32:39.640Z</time>
      </trkpt>
      <trkpt lat="47.45131" lon="-1.65958">
        <ele>60.519401</ele>
        <time>2022-12-15T16:32:43.649Z</time>
      </trkpt>
      <trkpt lat="47.4513" lon="-1.65945">
        <ele>60.623912</ele>
        <time>2022-12-15T16:32:48.648Z</time>
      </trkpt>
      <trkpt lat="47.4512" lon="-1.65942">
        <ele>60.730136</ele>
        <time>2022-12-15T16:33:13.659Z</time>
      </trkpt>
      <trkpt lat="47.4511" lon="-1.65944">
        <ele>60.84527</ele>
        <time>2022-12-15T16:33:33.636Z</time>
      </trkpt>
      <trkpt lat="47.45104" lon="-1.6593">
        <ele>60.969654</ele>
        <time>2022-12-15T16:33:39.659Z</time>
      </trkpt>
      <trkpt lat="47.45101" lon="-1.65912">
        <ele>61.111615</ele>
        <time>2022-12-15T16:33:42.651Z</time>
      </trkpt>
      <trkpt lat="47.45099" lon="-1.65897">
        <ele>61.223523</ele>
        <time>2022-12-15T16:33:44.650Z</time>
      </trkpt>
      <trkpt lat="47.45097" lon="-1.65882">
        <ele>61.324687</ele>
        <time>2022-12-15T16:33:46.648Z</time>
      </trkpt>
      <trkpt lat="47.45095" lon="-1.65869">
        <ele>61.421767</ele>
        <time>2022-12-15T16:33:48.649Z</time>
      </trkpt>
      <trkpt lat="47.45092" lon="-1.6585">
        <ele>61.552726</ele>
        <time>2022-12-15T16:33:51.658Z</time>
      </trkpt>
      <trkpt lat="47.45089" lon="-1.65834">
        <ele>61.671459</ele>
        <time>2022-12-15T16:33:54.643Z</time>
      </trkpt>
      <trkpt lat="47.45087" lon="-1.65817">
        <ele>61.789699</ele>
        <time>2022-12-15T16:33:57.644Z</time>
      </trkpt>
      <trkpt lat="47.45085" lon="-1.65801">
        <ele>61.906178</ele>
        <time>2022-12-15T16:34:00.656Z</time>
      </trkpt>
      <trkpt lat="47.45082" lon="-1.65783">
        <ele>62.031351</ele>
        <time>2022-12-15T16:34:03.659Z</time>
      </trkpt>
      <trkpt lat="47.45079" lon="-1.65765">
        <ele>62.161636</ele>
        <time>2022-12-15T16:34:06.641Z</time>
      </trkpt>
      <trkpt lat="47.45076" lon="-1.65747">
        <ele>62.290326</ele>
        <time>2022-12-15T16:34:09.643Z</time>
      </trkpt>
      <trkpt lat="47.45073" lon="-1.65729">
        <ele>62.416075</ele>
        <time>2022-12-15T16:34:12.638Z</time>
      </trkpt>
      <trkpt lat="47.4507" lon="-1.65711">
        <ele>62.545537</ele>
        <time>2022-12-15T16:34:15.640Z</time>
      </trkpt>
      <trkpt lat="47.45067" lon="-1.65693">
        <ele>62.67895</ele>
        <time>2022-12-15T16:34:18.643Z</time>
      </trkpt>
      <trkpt lat="47.45063" lon="-1.65675">
        <ele>62.809252</ele>
        <time>2022-12-15T16:34:21.635Z</time>
      </trkpt>
      <trkpt lat="47.4506" lon="-1.65656">
        <ele>62.943341</ele>
        <time>2022-12-15T16:34:24.635Z</time>
      </trkpt>
      <trkpt lat="47.45057" lon="-1.65637">
        <ele>63.073102</ele>
        <time>2022-12-15T16:34:27.661Z</time>
      </trkpt>
      <trkpt lat="47.45054" lon="-1.65619">
        <ele>63.199981</ele>
        <time>2022-12-15T16:34:30.668Z</time>
      </trkpt>
      <trkpt lat="47.45052" lon="-1.65603">
        <ele>63.314764</ele>
        <time>2022-12-15T16:34:33.635Z</time>
      </trkpt>
      <trkpt lat="47.45049" lon="-1.65585">
        <ele>63.436135</ele>
        <time>2022-12-15T16:34:36.637Z</time>
      </trkpt>
      <trkpt lat="47.45047" lon="-1.65568">
        <ele>63.554861</ele>
        <time>2022-12-15T16:34:39.653Z</time>
      </trkpt>
      <trkpt lat="47.45044" lon="-1.65551">
        <ele>63.670724</ele>
        <time>2022-12-15T16:34:42.633Z</time>
      </trkpt>
      <trkpt lat="47.45041" lon="-1.65535">
        <ele>63.786207</ele>
        <time>2022-12-15T16:34:45.656Z</time>
      </trkpt>
      <trkpt lat="47.45039" lon="-1.65518">
        <ele>63.901459</ele>
        <time>2022-12-15T16:34:48.635Z</time>
      </trkpt>
      <trkpt lat="47.45037" lon="-1.65501">
        <ele>64.016661</ele>
        <time>2022-12-15T16:34:51.637Z</time>
      </trkpt>
      <trkpt lat="47.45034" lon="-1.65485">
        <ele>64.130439</ele>
        <time>2022-12-15T16:34:54.660Z</time>
      </trkpt>
      <trkpt lat="47.45031" lon="-1.65471">
        <ele>64.232508</ele>
        <time>2022-12-15T16:34:57.646Z</time>
      </trkpt>
      <trkpt lat="47.45028" lon="-1.65455">
        <ele>64.346287</ele>
        <time>2022-12-15T16:35:00.661Z</time>
      </trkpt>
      <trkpt lat="47.45025" lon="-1.65438">
        <ele>64.464903</ele>
        <time>2022-12-15T16:35:03.640Z</time>
      </trkpt>
      <trkpt lat="47.45022" lon="-1.65421">
        <ele>64.585228</ele>
        <time>2022-12-15T16:35:06.638Z</time>
      </trkpt>
      <trkpt lat="47.45019" lon="-1.65403">
        <ele>64.705499</ele>
        <time>2022-12-15T16:35:09.631Z</time>
      </trkpt>
      <trkpt lat="47.45016" lon="-1.65385">
        <ele>64.812851</ele>
        <time>2022-12-15T16:35:12.650Z</time>
      </trkpt>
      <trkpt lat="47.45014" lon="-1.65368">
        <ele>64.83506</ele>
        <time>2022-12-15T16:35:15.630Z</time>
      </trkpt>
      <trkpt lat="47.45011" lon="-1.65351">
        <ele>64.857406</ele>
        <time>2022-12-15T16:35:18.640Z</time>
      </trkpt>
      <trkpt lat="47.45008" lon="-1.65334">
        <ele>64.878717</ele>
        <time>2022-12-15T16:35:21.637Z</time>
      </trkpt>
      <trkpt lat="47.45006" lon="-1.65316">
        <ele>64.902085</ele>
        <time>2022-12-15T16:35:24.636Z</time>
      </trkpt>
      <trkpt lat="47.45004" lon="-1.65298">
        <ele>64.925481</ele>
        <time>2022-12-15T16:35:27.638Z</time>
      </trkpt>
      <trkpt lat="47.45002" lon="-1.65279">
        <ele>64.948972</ele>
        <time>2022-12-15T16:35:30.629Z</time>
      </trkpt>
      <trkpt lat="47.45001" lon="-1.65261">
        <ele>64.972262</ele>
        <time>2022-12-15T16:35:33.632Z</time>
      </trkpt>
      <trkpt lat="47.44999" lon="-1.65242">
        <ele>64.996322</ele>
        <time>2022-12-15T16:35:36.642Z</time>
      </trkpt>
      <trkpt lat="47.44997" lon="-1.65223">
        <ele>65.020587</ele>
        <time>2022-12-15T16:35:39.648Z</time>
      </trkpt>
      <trkpt lat="47.44996" lon="-1.65203">
        <ele>65.044726</ele>
        <time>2022-12-15T16:35:42.660Z</time>
      </trkpt>
      <trkpt lat="47.44995" lon="-1.65184">
        <ele>65.069653</ele>
        <time>2022-12-15T16:35:45.660Z</time>
      </trkpt>
      <trkpt lat="47.44993" lon="-1.65164">
        <ele>65.093984</ele>
        <time>2022-12-15T16:35:48.650Z</time>
      </trkpt>
      <trkpt lat="47.44993" lon="-1.6515">
        <ele>65.112062</ele>
        <time>2022-12-15T16:35:50.641Z</time>
      </trkpt>
      <trkpt lat="47.44993" lon="-1.65137">
        <ele>65.128825</ele>
        <time>2022-12-15T16:35:52.647Z</time>
      </trkpt>
      <trkpt lat="47.44992" lon="-1.65123">
        <ele>65.143179</ele>
        <time>2022-12-15T16:35:54.654Z</time>
      </trkpt>
      <trkpt lat="47.44991" lon="-1.65109">
        <ele>65.143874</ele>
        <time>2022-12-15T16:35:56.649Z</time>
      </trkpt>
      <trkpt lat="47.44991" lon="-1.65095">
        <ele>65.144577</ele>
        <time>2022-12-15T16:35:58.664Z</time>
      </trkpt>
      <trkpt lat="47.44991" lon="-1.65081">
        <ele>65.145275</ele>
        <time>2022-12-15T16:36:00.646Z</time>
      </trkpt>
      <trkpt lat="47.44991" lon="-1.65062">
        <ele>65.146215</ele>
        <time>2022-12-15T16:36:03.634Z</time>
      </trkpt>
      <trkpt lat="47.4499" lon="-1.65049">
        <ele>65.146881</ele>
        <time>2022-12-15T16:36:05.641Z</time>
      </trkpt>
      <trkpt lat="47.44989" lon="-1.65029">
        <ele>65.147864</ele>
        <time>2022-12-15T16:36:08.645Z</time>
      </trkpt>
      <trkpt lat="47.44989" lon="-1.65015">
        <ele>65.148562</ele>
        <time>2022-12-15T16:36:10.643Z</time>
      </trkpt>
      <trkpt lat="47.44988" lon="-1.65001">
        <ele>65.149256</ele>
        <time>2022-12-15T16:36:12.663Z</time>
      </trkpt>
      <trkpt lat="47.44987" lon="-1.64981">
        <ele>65.150229</ele>
        <time>2022-12-15T16:36:15.661Z</time>
      </trkpt>
      <trkpt lat="47.44986" lon="-1.64963">
        <ele>65.151149</ele>
        <time>2022-12-15T16:36:18.660Z</time>
      </trkpt>
      <trkpt lat="47.44985" lon="-1.64943">
        <ele>65.152097</ele>
        <time>2022-12-15T16:36:21.661Z</time>
      </trkpt>
      <trkpt lat="47.44984" lon="-1.64924">
        <ele>65.153049</ele>
        <time>2022-12-15T16:36:24.653Z</time>
      </trkpt>
      <trkpt lat="47.44984" lon="-1.64906">
        <ele>65.153941</ele>
        <time>2022-12-15T16:36:27.662Z</time>
      </trkpt>
      <trkpt lat="47.44983" lon="-1.64888">
        <ele>65.154843</ele>
        <time>2022-12-15T16:36:30.641Z</time>
      </trkpt>
      <trkpt lat="47.44981" lon="-1.64872">
        <ele>65.15565</ele>
        <time>2022-12-15T16:36:33.643Z</time>
      </trkpt>
      <trkpt lat="47.4498" lon="-1.64855">
        <ele>65.157281</ele>
        <time>2022-12-15T16:36:36.655Z</time>
      </trkpt>
      <trkpt lat="47.44979" lon="-1.64838">
        <ele>65.160659</ele>
        <time>2022-12-15T16:36:39.643Z</time>
      </trkpt>
      <trkpt lat="47.44978" lon="-1.64821">
        <ele>65.164059</ele>
        <time>2022-12-15T16:36:42.638Z</time>
      </trkpt>
      <trkpt lat="47.44977" lon="-1.64805">
        <ele>65.167267</ele>
        <time>2022-12-15T16:36:45.663Z</time>
      </trkpt>
      <trkpt lat="47.44976" lon="-1.64787">
        <ele>65.170737</ele>
        <time>2022-12-15T16:36:48.638Z</time>
      </trkpt>
      <trkpt lat="47.44975" lon="-1.64769">
        <ele>65.174315</ele>
        <time>2022-12-15T16:36:51.631Z</time>
      </trkpt>
      <trkpt lat="47.44974" lon="-1.64752">
        <ele>65.17768</ele>
        <time>2022-12-15T16:36:54.654Z</time>
      </trkpt>
      <trkpt lat="47.44973" lon="-1.64734">
        <ele>65.181353</ele>
        <time>2022-12-15T16:36:57.644Z</time>
      </trkpt>
      <trkpt lat="47.44972" lon="-1.64716">
        <ele>65.185006</ele>
        <time>2022-12-15T16:37:00.638Z</time>
      </trkpt>
      <trkpt lat="47.44972" lon="-1.64698">
        <ele>65.188577</ele>
        <time>2022-12-15T16:37:03.630Z</time>
      </trkpt>
      <trkpt lat="47.44971" lon="-1.64679">
        <ele>65.192278</ele>
        <time>2022-12-15T16:37:06.654Z</time>
      </trkpt>
      <trkpt lat="47.4497" lon="-1.6466">
        <ele>65.196129</ele>
        <time>2022-12-15T16:37:09.634Z</time>
      </trkpt>
      <trkpt lat="47.4497" lon="-1.64645">
        <ele>65.198925</ele>
        <time>2022-12-15T16:37:11.639Z</time>
      </trkpt>
      <trkpt lat="47.4497" lon="-1.64632">
        <ele>65.201602</ele>
        <time>2022-12-15T16:37:13.645Z</time>
      </trkpt>
      <trkpt lat="47.44969" lon="-1.64618">
        <ele>65.204323</ele>
        <time>2022-12-15T16:37:15.649Z</time>
      </trkpt>
      <trkpt lat="47.44968" lon="-1.64605">
        <ele>65.20699</ele>
        <time>2022-12-15T16:37:17.657Z</time>
      </trkpt>
      <trkpt lat="47.44967" lon="-1.64585">
        <ele>65.294052</ele>
        <time>2022-12-15T16:37:20.646Z</time>
      </trkpt>
      <trkpt lat="47.44967" lon="-1.64568">
        <ele>65.446862</ele>
        <time>2022-12-15T16:37:23.638Z</time>
      </trkpt>
      <trkpt lat="47.44966" lon="-1.64554">
        <ele>65.57859</ele>
        <time>2022-12-15T16:37:26.650Z</time>
      </trkpt>
      <trkpt lat="47.44965" lon="-1.64539">
        <ele>65.715092</ele>
        <time>2022-12-15T16:37:29.630Z</time>
      </trkpt>
      <trkpt lat="47.44965" lon="-1.64523">
        <ele>65.856928</ele>
        <time>2022-12-15T16:37:32.655Z</time>
      </trkpt>
      <trkpt lat="47.44965" lon="-1.64506">
        <ele>66.005945</ele>
        <time>2022-12-15T16:37:35.642Z</time>
      </trkpt>
      <trkpt lat="47.44966" lon="-1.6449">
        <ele>66.155334</ele>
        <time>2022-12-15T16:37:38.664Z</time>
      </trkpt>
      <trkpt lat="47.44968" lon="-1.64473">
        <ele>66.303001</ele>
        <time>2022-12-15T16:37:41.647Z</time>
      </trkpt>
      <trkpt lat="47.44969" lon="-1.64458">
        <ele>66.442155</ele>
        <time>2022-12-15T16:37:44.634Z</time>
      </trkpt>
      <trkpt lat="47.4497" lon="-1.64443">
        <ele>66.578634</ele>
        <time>2022-12-15T16:37:47.652Z</time>
      </trkpt>
      <trkpt lat="47.44972" lon="-1.64428">
        <ele>66.710086</ele>
        <time>2022-12-15T16:37:50.654Z</time>
      </trkpt>
      <trkpt lat="47.44974" lon="-1.64415">
        <ele>66.834144</ele>
        <time>2022-12-15T16:37:53.662Z</time>
      </trkpt>
      <trkpt lat="47.44977" lon="-1.644">
        <ele>66.971478</ele>
        <time>2022-12-15T16:37:56.662Z</time>
      </trkpt>
      <trkpt lat="47.44982" lon="-1.64385">
        <ele>67.126423</ele>
        <time>2022-12-15T16:37:59.664Z</time>
      </trkpt>
      <trkpt lat="47.44987" lon="-1.64369">
        <ele>67.288339</ele>
        <time>2022-12-15T16:38:02.635Z</time>
      </trkpt>
      <trkpt lat="47.44993" lon="-1.64355">
        <ele>67.43002</ele>
        <time>2022-12-15T16:38:05.647Z</time>
      </trkpt>
      <trkpt lat="47.44999" lon="-1.64341">
        <ele>67.578098</ele>
        <time>2022-12-15T16:38:08.649Z</time>
      </trkpt>
      <trkpt lat="47.45006" lon="-1.64328">
        <ele>67.658707</ele>
        <time>2022-12-15T16:38:11.659Z</time>
      </trkpt>
      <trkpt lat="47.45014" lon="-1.64316">
        <ele>67.731507</ele>
        <time>2022-12-15T16:38:14.649Z</time>
      </trkpt>
      <trkpt lat="47.45022" lon="-1.64303">
        <ele>67.811167</ele>
        <time>2022-12-15T16:38:17.635Z</time>
      </trkpt>
      <trkpt lat="47.45031" lon="-1.64291">
        <ele>67.889452</ele>
        <time>2022-12-15T16:38:20.657Z</time>
      </trkpt>
      <trkpt lat="47.4504" lon="-1.64278">
        <ele>67.967139</ele>
        <time>2022-12-15T16:38:23.640Z</time>
      </trkpt>
      <trkpt lat="47.45049" lon="-1.64266">
        <ele>68.04436</ele>
        <time>2022-12-15T16:38:26.629Z</time>
      </trkpt>
      <trkpt lat="47.45057" lon="-1.64254">
        <ele>68.119136</ele>
        <time>2022-12-15T16:38:29.634Z</time>
      </trkpt>
      <trkpt lat="47.45065" lon="-1.64243">
        <ele>68.189953</ele>
        <time>2022-12-15T16:38:32.636Z</time>
      </trkpt>
      <trkpt lat="47.45073" lon="-1.64232">
        <ele>68.261851</ele>
        <time>2022-12-15T16:38:35.639Z</time>
      </trkpt>
      <trkpt lat="47.45082" lon="-1.6422">
        <ele>68.337297</ele>
        <time>2022-12-15T16:38:38.653Z</time>
      </trkpt>
      <trkpt lat="47.4509" lon="-1.64209">
        <ele>68.409038</ele>
        <time>2022-12-15T16:38:41.635Z</time>
      </trkpt>
      <trkpt lat="47.45098" lon="-1.64199">
        <ele>68.473934</ele>
        <time>2022-12-15T16:38:44.660Z</time>
      </trkpt>
      <trkpt lat="47.45105" lon="-1.6419">
        <ele>68.534785</ele>
        <time>2022-12-15T16:38:47.630Z</time>
      </trkpt>
      <trkpt lat="47.45112" lon="-1.6418">
        <ele>68.596628</ele>
        <time>2022-12-15T16:38:50.648Z</time>
      </trkpt>
      <trkpt lat="47.45119" lon="-1.64171">
        <ele>68.657824</ele>
        <time>2022-12-15T16:38:53.646Z</time>
      </trkpt>
      <trkpt lat="47.45129" lon="-1.64164">
        <ele>68.725538</ele>
        <time>2022-12-15T16:38:56.637Z</time>
      </trkpt>
      <trkpt lat="47.45139" lon="-1.64158">
        <ele>68.683887</ele>
        <time>2022-12-15T16:38:59.637Z</time>
      </trkpt>
      <trkpt lat="47.45148" lon="-1.64151">
        <ele>68.59127</ele>
        <time>2022-12-15T16:39:02.653Z</time>
      </trkpt>
      <trkpt lat="47.45155" lon="-1.64142">
        <ele>68.506456</ele>
        <time>2022-12-15T16:39:05.636Z</time>
      </trkpt>
      <trkpt lat="47.45162" lon="-1.64133">
        <ele>68.413101</ele>
        <time>2022-12-15T16:39:08.634Z</time>
      </trkpt>
      <trkpt lat="47.45169" lon="-1.64121">
        <ele>68.312556</ele>
        <time>2022-12-15T16:39:11.647Z</time>
      </trkpt>
      <trkpt lat="47.45175" lon="-1.64107">
        <ele>68.21122</ele>
        <time>2022-12-15T16:39:16.645Z</time>
      </trkpt>
      <trkpt lat="47.45179" lon="-1.6409">
        <ele>68.097434</ele>
        <time>2022-12-15T16:39:20.646Z</time>
      </trkpt>
      <trkpt lat="47.45185" lon="-1.64077">
        <ele>67.99789</ele>
        <time>2022-12-15T16:39:23.632Z</time>
      </trkpt>
      <trkpt lat="47.45192" lon="-1.64065">
        <ele>67.900004</ele>
        <time>2022-12-15T16:39:26.634Z</time>
      </trkpt>
      <trkpt lat="47.452" lon="-1.64054">
        <ele>67.800634</ele>
        <time>2022-12-15T16:39:29.636Z</time>
      </trkpt>
      <trkpt lat="47.45207" lon="-1.64044">
        <ele>67.70306</ele>
        <time>2022-12-15T16:39:32.658Z</time>
      </trkpt>
      <trkpt lat="47.45214" lon="-1.64033">
        <ele>67.606168</ele>
        <time>2022-12-15T16:39:35.643Z</time>
      </trkpt>
      <trkpt lat="47.45222" lon="-1.64021">
        <ele>67.504525</ele>
        <time>2022-12-15T16:39:38.649Z</time>
      </trkpt>
      <trkpt lat="47.45229" lon="-1.64009">
        <ele>67.403343</ele>
        <time>2022-12-15T16:39:41.633Z</time>
      </trkpt>
      <trkpt lat="47.45236" lon="-1.63996">
        <ele>67.297969</ele>
        <time>2022-12-15T16:39:44.647Z</time>
      </trkpt>
      <trkpt lat="47.45244" lon="-1.63982">
        <ele>67.182416</ele>
        <time>2022-12-15T16:39:47.649Z</time>
      </trkpt>
      <trkpt lat="47.45251" lon="-1.63968">
        <ele>67.071328</ele>
        <time>2022-12-15T16:39:50.647Z</time>
      </trkpt>
      <trkpt lat="47.45258" lon="-1.63954">
        <ele>66.639589</ele>
        <time>2022-12-15T16:39:53.643Z</time>
      </trkpt>
      <trkpt lat="47.45264" lon="-1.63939">
        <ele>66.225466</ele>
        <time>2022-12-15T16:39:56.639Z</time>
      </trkpt>
      <trkpt lat="47.45269" lon="-1.63926">
        <ele>65.86722</ele>
        <time>2022-12-15T16:39:59.657Z</time>
      </trkpt>
      <trkpt lat="47.45273" lon="-1.63914">
        <ele>65.540363</ele>
        <time>2022-12-15T16:40:02.660Z</time>
      </trkpt>
      <trkpt lat="47.45277" lon="-1.63899">
        <ele>65.125408</ele>
        <time>2022-12-15T16:40:06.659Z</time>
      </trkpt>
      <trkpt lat="47.45279" lon="-1.63885">
        <ele>64.784694</ele>
        <time>2022-12-15T16:40:10.655Z</time>
      </trkpt>
      <trkpt lat="47.45281" lon="-1.63872">
        <ele>64.449122</ele>
        <time>2022-12-15T16:40:14.668Z</time>
      </trkpt>
      <trkpt lat="47.45283" lon="-1.63856">
        <ele>64.051343</ele>
        <time>2022-12-15T16:40:19.635Z</time>
      </trkpt>
      <trkpt lat="47.45284" lon="-1.63841">
        <ele>63.683408</ele>
        <time>2022-12-15T16:40:24.654Z</time>
      </trkpt>
      <trkpt lat="47.45286" lon="-1.63826">
        <ele>63.301831</ele>
        <time>2022-12-15T16:40:30.645Z</time>
      </trkpt>
      <trkpt lat="47.45288" lon="-1.63812">
        <ele>62.962504</ele>
        <time>2022-12-15T16:40:44.650Z</time>
      </trkpt>
      <trkpt lat="47.45289" lon="-1.63802">
        <ele>62.696829</ele>
        <time>2022-12-15T16:41:39.127Z</time>
      </trkpt>
      <trkpt lat="47.45291" lon="-1.6379">
        <ele>62.3811</ele>
        <time>2022-12-15T16:58:24.682Z</time>
      </trkpt>
      <trkpt lat="47.45296" lon="-1.63776">
        <ele>62.005956</ele>
        <time>2022-12-15T16:58:39.638Z</time>
      </trkpt>
      <trkpt lat="47.45299" lon="-1.63761">
        <ele>61.620325</ele>
        <time>2022-12-15T16:58:42.636Z</time>
      </trkpt>
      <trkpt lat="47.45299" lon="-1.63742">
        <ele>61.138238</ele>
        <time>2022-12-15T16:58:45.631Z</time>
      </trkpt>
      <trkpt lat="47.45301" lon="-1.63722">
        <ele>60.663406</ele>
        <time>2022-12-15T16:58:48.641Z</time>
      </trkpt>
      <trkpt lat="47.45303" lon="-1.63707">
        <ele>60.428628</ele>
        <time>2022-12-15T16:58:51.649Z</time>
      </trkpt>
      <trkpt lat="47.45305" lon="-1.63693">
        <ele>60.291142</ele>
        <time>2022-12-15T16:58:54.648Z</time>
      </trkpt>
      <trkpt lat="47.45306" lon="-1.63679">
        <ele>60.149812</ele>
        <time>2022-12-15T16:58:58.631Z</time>
      </trkpt>
      <trkpt lat="47.45309" lon="-1.63664">
        <ele>59.999473</ele>
        <time>2022-12-15T16:59:02.641Z</time>
      </trkpt>
      <trkpt lat="47.45311" lon="-1.63647">
        <ele>59.825854</ele>
        <time>2022-12-15T16:59:06.633Z</time>
      </trkpt>
      <trkpt lat="47.45313" lon="-1.63634">
        <ele>59.693455</ele>
        <time>2022-12-15T16:59:09.646Z</time>
      </trkpt>
      <trkpt lat="47.45316" lon="-1.63619">
        <ele>59.542994</ele>
        <time>2022-12-15T16:59:13.634Z</time>
      </trkpt>
      <trkpt lat="47.45318" lon="-1.63604">
        <ele>59.396813</ele>
        <time>2022-12-15T16:59:16.642Z</time>
      </trkpt>
      <trkpt lat="47.45321" lon="-1.63589">
        <ele>59.247585</ele>
        <time>2022-12-15T16:59:19.631Z</time>
      </trkpt>
      <trkpt lat="47.45323" lon="-1.63574">
        <ele>59.094449</ele>
        <time>2022-12-15T16:59:22.642Z</time>
      </trkpt>
      <trkpt lat="47.45325" lon="-1.63558">
        <ele>58.930621</ele>
        <time>2022-12-15T16:59:25.630Z</time>
      </trkpt>
      <trkpt lat="47.45328" lon="-1.63543">
        <ele>58.778544</ele>
        <time>2022-12-15T16:59:28.636Z</time>
      </trkpt>
      <trkpt lat="47.4533" lon="-1.63526">
        <ele>58.616979</ele>
        <time>2022-12-15T16:59:31.631Z</time>
      </trkpt>
      <trkpt lat="47.45332" lon="-1.63511">
        <ele>58.461091</ele>
        <time>2022-12-15T16:59:34.635Z</time>
      </trkpt>
      <trkpt lat="47.45334" lon="-1.63496">
        <ele>58.310842</ele>
        <time>2022-12-15T16:59:37.646Z</time>
      </trkpt>
      <trkpt lat="47.45335" lon="-1.6348">
        <ele>58.155848</ele>
        <time>2022-12-15T16:59:40.640Z</time>
      </trkpt>
      <trkpt lat="47.45336" lon="-1.63463">
        <ele>57.989461</ele>
        <time>2022-12-15T16:59:43.633Z</time>
      </trkpt>
      <trkpt lat="47.45337" lon="-1.63447">
        <ele>58.004855</ele>
        <time>2022-12-15T16:59:46.628Z</time>
      </trkpt>
      <trkpt lat="47.45338" lon="-1.63432">
        <ele>58.128611</ele>
        <time>2022-12-15T16:59:49.636Z</time>
      </trkpt>
      <trkpt lat="47.45338" lon="-1.63417">
        <ele>58.250668</ele>
        <time>2022-12-15T16:59:52.633Z</time>
      </trkpt>
      <trkpt lat="47.45338" lon="-1.63402">
        <ele>58.372629</ele>
        <time>2022-12-15T16:59:55.646Z</time>
      </trkpt>
      <trkpt lat="47.45337" lon="-1.63386">
        <ele>58.502176</ele>
        <time>2022-12-15T16:59:58.634Z</time>
      </trkpt>
      <trkpt lat="47.45336" lon="-1.6337">
        <ele>58.634455</ele>
        <time>2022-12-15T17:00:01.651Z</time>
      </trkpt>
      <trkpt lat="47.45335" lon="-1.63353">
        <ele>58.776328</ele>
        <time>2022-12-15T17:00:04.652Z</time>
      </trkpt>
      <trkpt lat="47.45334" lon="-1.63337">
        <ele>58.904654</ele>
        <time>2022-12-15T17:00:07.628Z</time>
      </trkpt>
      <trkpt lat="47.45332" lon="-1.63324">
        <ele>59.017194</ele>
        <time>2022-12-15T17:00:10.638Z</time>
      </trkpt>
      <trkpt lat="47.4533" lon="-1.63309">
        <ele>59.138404</ele>
        <time>2022-12-15T17:00:13.643Z</time>
      </trkpt>
      <trkpt lat="47.45327" lon="-1.63294">
        <ele>59.265906</ele>
        <time>2022-12-15T17:00:16.638Z</time>
      </trkpt>
      <trkpt lat="47.45324" lon="-1.6328">
        <ele>59.387991</ele>
        <time>2022-12-15T17:00:19.635Z</time>
      </trkpt>
      <trkpt lat="47.4532" lon="-1.63265">
        <ele>59.523654</ele>
        <time>2022-12-15T17:00:22.649Z</time>
      </trkpt>
      <trkpt lat="47.45316" lon="-1.63249">
        <ele>59.660858</ele>
        <time>2022-12-15T17:00:25.655Z</time>
      </trkpt>
      <trkpt lat="47.45313" lon="-1.63233">
        <ele>59.793401</ele>
        <time>2022-12-15T17:00:28.634Z</time>
      </trkpt>
      <trkpt lat="47.4531" lon="-1.63218">
        <ele>59.923237</ele>
        <time>2022-12-15T17:00:31.648Z</time>
      </trkpt>
      <trkpt lat="47.45306" lon="-1.63202">
        <ele>60.059316</ele>
        <time>2022-12-15T17:00:34.651Z</time>
      </trkpt>
      <trkpt lat="47.45304" lon="-1.63188">
        <ele>60.052028</ele>
        <time>2022-12-15T17:00:37.649Z</time>
      </trkpt>
      <trkpt lat="47.45303" lon="-1.63172">
        <ele>59.970373</ele>
        <time>2022-12-15T17:00:40.635Z</time>
      </trkpt>
      <trkpt lat="47.45301" lon="-1.63156">
        <ele>59.88642</ele>
        <time>2022-12-15T17:00:43.638Z</time>
      </trkpt>
      <trkpt lat="47.453" lon="-1.63138">
        <ele>59.791752</ele>
        <time>2022-12-15T17:00:47.639Z</time>
      </trkpt>
      <trkpt lat="47.45302" lon="-1.63121">
        <ele>59.703693</ele>
        <time>2022-12-15T17:00:50.646Z</time>
      </trkpt>
      <trkpt lat="47.45303" lon="-1.63104">
        <ele>59.615986</ele>
        <time>2022-12-15T17:00:53.633Z</time>
      </trkpt>
      <trkpt lat="47.45306" lon="-1.63087">
        <ele>59.529077</ele>
        <time>2022-12-15T17:00:56.648Z</time>
      </trkpt>
      <trkpt lat="47.45309" lon="-1.63074">
        <ele>59.457026</ele>
        <time>2022-12-15T17:00:59.637Z</time>
      </trkpt>
      <trkpt lat="47.45314" lon="-1.6306">
        <ele>59.375282</ele>
        <time>2022-12-15T17:01:02.658Z</time>
      </trkpt>
      <trkpt lat="47.45319" lon="-1.63047">
        <ele>59.300782</ele>
        <time>2022-12-15T17:01:05.648Z</time>
      </trkpt>
      <trkpt lat="47.45325" lon="-1.63034">
        <ele>59.215328</ele>
        <time>2022-12-15T17:01:08.632Z</time>
      </trkpt>
      <trkpt lat="47.45332" lon="-1.63022">
        <ele>59.136117</ele>
        <time>2022-12-15T17:01:11.648Z</time>
      </trkpt>
      <trkpt lat="47.45339" lon="-1.63008">
        <ele>59.048337</ele>
        <time>2022-12-15T17:01:14.639Z</time>
      </trkpt>
      <trkpt lat="47.45347" lon="-1.62996">
        <ele>58.959965</ele>
        <time>2022-12-15T17:01:17.651Z</time>
      </trkpt>
      <trkpt lat="47.45354" lon="-1.62986">
        <ele>58.888427</ele>
        <time>2022-12-15T17:01:20.644Z</time>
      </trkpt>
      <trkpt lat="47.45361" lon="-1.62977">
        <ele>58.813125</ele>
        <time>2022-12-15T17:01:23.645Z</time>
      </trkpt>
      <trkpt lat="47.45371" lon="-1.62966">
        <ele>58.748119</ele>
        <time>2022-12-15T17:01:26.646Z</time>
      </trkpt>
      <trkpt lat="47.45379" lon="-1.62958">
        <ele>58.912008</ele>
        <time>2022-12-15T17:01:29.638Z</time>
      </trkpt>
      <trkpt lat="47.4539" lon="-1.62949">
        <ele>59.107142</ele>
        <time>2022-12-15T17:01:32.630Z</time>
      </trkpt>
      <trkpt lat="47.45398" lon="-1.62941">
        <ele>59.266403</ele>
        <time>2022-12-15T17:01:35.651Z</time>
      </trkpt>
      <trkpt lat="47.45409" lon="-1.62933">
        <ele>59.45395</ele>
        <time>2022-12-15T17:01:38.639Z</time>
      </trkpt>
      <trkpt lat="47.45419" lon="-1.62926">
        <ele>59.628735</ele>
        <time>2022-12-15T17:01:41.642Z</time>
      </trkpt>
      <trkpt lat="47.45427" lon="-1.6292">
        <ele>59.777722</ele>
        <time>2022-12-15T17:01:43.646Z</time>
      </trkpt>
      <trkpt lat="47.45435" lon="-1.62915">
        <ele>59.923119</ele>
        <time>2022-12-15T17:01:45.643Z</time>
      </trkpt>
      <trkpt lat="47.45444" lon="-1.6291">
        <ele>60.073218</ele>
        <time>2022-12-15T17:01:47.644Z</time>
      </trkpt>
      <trkpt lat="47.45453" lon="-1.62905">
        <ele>60.22557</ele>
        <time>2022-12-15T17:01:50.643Z</time>
      </trkpt>
      <trkpt lat="47.45462" lon="-1.629">
        <ele>60.379799</ele>
        <time>2022-12-15T17:01:53.653Z</time>
      </trkpt>
      <trkpt lat="47.45477" lon="-1.62894">
        <ele>60.622584</ele>
        <time>2022-12-15T17:01:56.645Z</time>
      </trkpt>
      <trkpt lat="47.45489" lon="-1.62889">
        <ele>60.815892</ele>
        <time>2022-12-15T17:01:59.635Z</time>
      </trkpt>
      <trkpt lat="47.45501" lon="-1.62885">
        <ele>61.010669</ele>
        <time>2022-12-15T17:02:02.641Z</time>
      </trkpt>
      <trkpt lat="47.45512" lon="-1.62881">
        <ele>61.201381</ele>
        <time>2022-12-15T17:02:05.650Z</time>
      </trkpt>
      <trkpt lat="47.45524" lon="-1.62879">
        <ele>61.39245</ele>
        <time>2022-12-15T17:02:08.635Z</time>
      </trkpt>
      <trkpt lat="47.45537" lon="-1.62877">
        <ele>61.593627</ele>
        <time>2022-12-15T17:02:11.652Z</time>
      </trkpt>
      <trkpt lat="47.45547" lon="-1.62876">
        <ele>61.474286</ele>
        <time>2022-12-15T17:02:14.640Z</time>
      </trkpt>
      <trkpt lat="47.45557" lon="-1.62875">
        <ele>61.355306</ele>
        <time>2022-12-15T17:02:17.638Z</time>
      </trkpt>
      <trkpt lat="47.45566" lon="-1.62876">
        <ele>61.246976</ele>
        <time>2022-12-15T17:02:20.649Z</time>
      </trkpt>
      <trkpt lat="47.45576" lon="-1.62877">
        <ele>61.132127</ele>
        <time>2022-12-15T17:02:23.635Z</time>
      </trkpt>
      <trkpt lat="47.45587" lon="-1.62878">
        <ele>60.996407</ele>
        <time>2022-12-15T17:02:26.649Z</time>
      </trkpt>
      <trkpt lat="47.45596" lon="-1.62881">
        <ele>60.884408</ele>
        <time>2022-12-15T17:02:29.638Z</time>
      </trkpt>
      <trkpt lat="47.45606" lon="-1.62885">
        <ele>60.762602</ele>
        <time>2022-12-15T17:02:32.642Z</time>
      </trkpt>
      <trkpt lat="47.45618" lon="-1.6289">
        <ele>60.619796</ele>
        <time>2022-12-15T17:02:36.649Z</time>
      </trkpt>
      <trkpt lat="47.45626" lon="-1.62894">
        <ele>60.511244</ele>
        <time>2022-12-15T17:02:38.633Z</time>
      </trkpt>
      <trkpt lat="47.45636" lon="-1.62899">
        <ele>60.388586</ele>
        <time>2022-12-15T17:02:41.646Z</time>
      </trkpt>
      <trkpt lat="47.45647" lon="-1.62905">
        <ele>60.249205</ele>
        <time>2022-12-15T17:02:44.628Z</time>
      </trkpt>
      <trkpt lat="47.45658" lon="-1.62909">
        <ele>60.120087</ele>
        <time>2022-12-15T17:02:46.649Z</time>
      </trkpt>
      <trkpt lat="47.45669" lon="-1.62917">
        <ele>59.968599</ele>
        <time>2022-12-15T17:02:49.644Z</time>
      </trkpt>
      <trkpt lat="47.45678" lon="-1.62923">
        <ele>59.852018</ele>
        <time>2022-12-15T17:02:52.641Z</time>
      </trkpt>
      <trkpt lat="47.45686" lon="-1.62929">
        <ele>59.742897</ele>
        <time>2022-12-15T17:02:55.642Z</time>
      </trkpt>
      <trkpt lat="47.45695" lon="-1.62936">
        <ele>59.62203</ele>
        <time>2022-12-15T17:02:58.635Z</time>
      </trkpt>
      <trkpt lat="47.45705" lon="-1.62943">
        <ele>59.49636</ele>
        <time>2022-12-15T17:03:01.649Z</time>
      </trkpt>
      <trkpt lat="47.45715" lon="-1.62953">
        <ele>59.597927</ele>
        <time>2022-12-15T17:03:04.633Z</time>
      </trkpt>
      <trkpt lat="47.45724" lon="-1.62962">
        <ele>59.792125</ele>
        <time>2022-12-15T17:03:07.649Z</time>
      </trkpt>
      <trkpt lat="47.45733" lon="-1.62974">
        <ele>59.979379</ele>
        <time>2022-12-15T17:03:10.643Z</time>
      </trkpt>
      <trkpt lat="47.45741" lon="-1.62985">
        <ele>60.160664</ele>
        <time>2022-12-15T17:03:13.640Z</time>
      </trkpt>
      <trkpt lat="47.45751" lon="-1.62996">
        <ele>60.378017</ele>
        <time>2022-12-15T17:03:16.648Z</time>
      </trkpt>
      <trkpt lat="47.45762" lon="-1.63007">
        <ele>60.591444</ele>
        <time>2022-12-15T17:03:19.646Z</time>
      </trkpt>
      <trkpt lat="47.45769" lon="-1.63015">
        <ele>60.741254</ele>
        <time>2022-12-15T17:03:21.644Z</time>
      </trkpt>
      <trkpt lat="47.45779" lon="-1.63024">
        <ele>60.931585</ele>
        <time>2022-12-15T17:03:24.638Z</time>
      </trkpt>
      <trkpt lat="47.45789" lon="-1.63031">
        <ele>61.111987</ele>
        <time>2022-12-15T17:03:27.638Z</time>
      </trkpt>
      <trkpt lat="47.45798" lon="-1.63037">
        <ele>61.277154</ele>
        <time>2022-12-15T17:03:30.650Z</time>
      </trkpt>
      <trkpt lat="47.45808" lon="-1.63044">
        <ele>61.463803</ele>
        <time>2022-12-15T17:03:33.632Z</time>
      </trkpt>
      <trkpt lat="47.45819" lon="-1.63049">
        <ele>61.647214</ele>
        <time>2022-12-15T17:03:36.643Z</time>
      </trkpt>
      <trkpt lat="47.45828" lon="-1.63053">
        <ele>61.808915</ele>
        <time>2022-12-15T17:03:39.646Z</time>
      </trkpt>
      <trkpt lat="47.4584" lon="-1.63055">
        <ele>62.008097</ele>
        <time>2022-12-15T17:03:42.634Z</time>
      </trkpt>
      <trkpt lat="47.45853" lon="-1.63055">
        <ele>62.218095</ele>
        <time>2022-12-15T17:03:46.659Z</time>
      </trkpt>
      <trkpt lat="47.45865" lon="-1.63055">
        <ele>62.418176</ele>
        <time>2022-12-15T17:03:50.635Z</time>
      </trkpt>
      <trkpt lat="47.45876" lon="-1.63053">
        <ele>62.316659</ele>
        <time>2022-12-15T17:03:53.636Z</time>
      </trkpt>
      <trkpt lat="47.45885" lon="-1.63051">
        <ele>62.209875</ele>
        <time>2022-12-15T17:03:55.642Z</time>
      </trkpt>
      <trkpt lat="47.45896" lon="-1.63048">
        <ele>62.090237</ele>
        <time>2022-12-15T17:03:57.638Z</time>
      </trkpt>
      <trkpt lat="47.4591" lon="-1.6304">
        <ele>61.92056</ele>
        <time>2022-12-15T17:04:00.639Z</time>
      </trkpt>
      <trkpt lat="47.4592" lon="-1.63035">
        <ele>61.802553</ele>
        <time>2022-12-15T17:04:02.650Z</time>
      </trkpt>
      <trkpt lat="47.45929" lon="-1.63026">
        <ele>61.680842</ele>
        <time>2022-12-15T17:04:06.637Z</time>
      </trkpt>
      <trkpt lat="47.45937" lon="-1.63019">
        <ele>61.57063</ele>
        <time>2022-12-15T17:04:08.635Z</time>
      </trkpt>
      <trkpt lat="47.45949" lon="-1.63008">
        <ele>61.419779</ele>
        <time>2022-12-15T17:04:11.651Z</time>
      </trkpt>
      <trkpt lat="47.45959" lon="-1.62996">
        <ele>61.271081</ele>
        <time>2022-12-15T17:04:14.638Z</time>
      </trkpt>
      <trkpt lat="47.45966" lon="-1.62988">
        <ele>61.167657</ele>
        <time>2022-12-15T17:04:16.652Z</time>
      </trkpt>
      <trkpt lat="47.45976" lon="-1.62975">
        <ele>61.024444</ele>
        <time>2022-12-15T17:04:19.635Z</time>
      </trkpt>
      <trkpt lat="47.45984" lon="-1.62963">
        <ele>60.893579</ele>
        <time>2022-12-15T17:04:22.633Z</time>
      </trkpt>
      <trkpt lat="47.45991" lon="-1.62949">
        <ele>60.76256</ele>
        <time>2022-12-15T17:04:25.639Z</time>
      </trkpt>
      <trkpt lat="47.45996" lon="-1.62933">
        <ele>60.627055</ele>
        <time>2022-12-15T17:04:28.634Z</time>
      </trkpt>
      <trkpt lat="47.46" lon="-1.62918">
        <ele>60.504183</ele>
        <time>2022-12-15T17:04:31.633Z</time>
      </trkpt>
      <trkpt lat="47.46003" lon="-1.62901">
        <ele>60.395435</ele>
        <time>2022-12-15T17:04:34.650Z</time>
      </trkpt>
      <trkpt lat="47.46003" lon="-1.62886">
        <ele>60.348928</ele>
        <time>2022-12-15T17:04:37.632Z</time>
      </trkpt>
      <trkpt lat="47.46004" lon="-1.62872">
        <ele>60.305274</ele>
        <time>2022-12-15T17:04:40.636Z</time>
      </trkpt>
      <trkpt lat="47.46004" lon="-1.62855">
        <ele>60.25229</ele>
        <time>2022-12-15T17:04:43.647Z</time>
      </trkpt>
      <trkpt lat="47.46005" lon="-1.62839">
        <ele>60.201528</ele>
        <time>2022-12-15T17:04:46.641Z</time>
      </trkpt>
      <trkpt lat="47.46004" lon="-1.62823">
        <ele>60.152918</ele>
        <time>2022-12-15T17:04:49.636Z</time>
      </trkpt>
      <trkpt lat="47.46003" lon="-1.62808">
        <ele>60.104825</ele>
        <time>2022-12-15T17:04:52.634Z</time>
      </trkpt>
      <trkpt lat="47.46002" lon="-1.62791">
        <ele>60.050934</ele>
        <time>2022-12-15T17:04:56.646Z</time>
      </trkpt>
      <trkpt lat="47.46" lon="-1.62777">
        <ele>60.005876</ele>
        <time>2022-12-15T17:04:59.640Z</time>
      </trkpt>
      <trkpt lat="47.45998" lon="-1.6276">
        <ele>59.95276</ele>
        <time>2022-12-15T17:05:02.646Z</time>
      </trkpt>
      <trkpt lat="47.45996" lon="-1.62743">
        <ele>59.900482</ele>
        <time>2022-12-15T17:05:05.646Z</time>
      </trkpt>
      <trkpt lat="47.45994" lon="-1.62727">
        <ele>59.848941</ele>
        <time>2022-12-15T17:05:08.640Z</time>
      </trkpt>
      <trkpt lat="47.45991" lon="-1.6271">
        <ele>59.792441</ele>
        <time>2022-12-15T17:05:11.652Z</time>
      </trkpt>
      <trkpt lat="47.45989" lon="-1.62694">
        <ele>59.743085</ele>
        <time>2022-12-15T17:05:14.643Z</time>
      </trkpt>
      <trkpt lat="47.45987" lon="-1.62678">
        <ele>59.69419</ele>
        <time>2022-12-15T17:05:17.637Z</time>
      </trkpt>
      <trkpt lat="47.45985" lon="-1.62662">
        <ele>59.642551</ele>
        <time>2022-12-15T17:05:20.635Z</time>
      </trkpt>
      <trkpt lat="47.45983" lon="-1.62645">
        <ele>59.588655</ele>
        <time>2022-12-15T17:05:23.656Z</time>
      </trkpt>
      <trkpt lat="47.45982" lon="-1.62627">
        <ele>59.478873</ele>
        <time>2022-12-15T17:05:26.644Z</time>
      </trkpt>
      <trkpt lat="47.45981" lon="-1.6261">
        <ele>59.364912</ele>
        <time>2022-12-15T17:05:29.642Z</time>
      </trkpt>
      <trkpt lat="47.45981" lon="-1.62594">
        <ele>59.261952</ele>
        <time>2022-12-15T17:05:32.639Z</time>
      </trkpt>
      <trkpt lat="47.4598" lon="-1.62579">
        <ele>59.16229</ele>
        <time>2022-12-15T17:05:35.641Z</time>
      </trkpt>
      <trkpt lat="47.4598" lon="-1.62563">
        <ele>59.058769</ele>
        <time>2022-12-15T17:05:38.634Z</time>
      </trkpt>
      <trkpt lat="47.45979" lon="-1.62547">
        <ele>58.954598</ele>
        <time>2022-12-15T17:05:41.641Z</time>
      </trkpt>
      <trkpt lat="47.45979" lon="-1.62532">
        <ele>58.858286</ele>
        <time>2022-12-15T17:05:44.633Z</time>
      </trkpt>
      <trkpt lat="47.4598" lon="-1.62515">
        <ele>58.751372</ele>
        <time>2022-12-15T17:05:47.634Z</time>
      </trkpt>
      <trkpt lat="47.4598" lon="-1.62499">
        <ele>58.645953</ele>
        <time>2022-12-15T17:05:50.638Z</time>
      </trkpt>
      <trkpt lat="47.4598" lon="-1.62483">
        <ele>58.541203</ele>
        <time>2022-12-15T17:05:53.648Z</time>
      </trkpt>
      <trkpt lat="47.4598" lon="-1.62466">
        <ele>58.430592</ele>
        <time>2022-12-15T17:05:56.651Z</time>
      </trkpt>
      <trkpt lat="47.45981" lon="-1.62449">
        <ele>58.318634</ele>
        <time>2022-12-15T17:05:59.641Z</time>
      </trkpt>
      <trkpt lat="47.45982" lon="-1.62434">
        <ele>58.221036</ele>
        <time>2022-12-15T17:06:02.645Z</time>
      </trkpt>
      <trkpt lat="47.45982" lon="-1.62419">
        <ele>58.120545</ele>
        <time>2022-12-15T17:06:05.650Z</time>
      </trkpt>
      <trkpt lat="47.45983" lon="-1.62402">
        <ele>58.012473</ele>
        <time>2022-12-15T17:06:08.638Z</time>
      </trkpt>
      <trkpt lat="47.45983" lon="-1.62387">
        <ele>57.912161</ele>
        <time>2022-12-15T17:06:11.640Z</time>
      </trkpt>
      <trkpt lat="47.45984" lon="-1.6237">
        <ele>57.857685</ele>
        <time>2022-12-15T17:06:14.652Z</time>
      </trkpt>
      <trkpt lat="47.45985" lon="-1.62353">
        <ele>57.874451</ele>
        <time>2022-12-15T17:06:17.639Z</time>
      </trkpt>
      <trkpt lat="47.45986" lon="-1.62336">
        <ele>57.891192</ele>
        <time>2022-12-15T17:06:20.643Z</time>
      </trkpt>
      <trkpt lat="47.45986" lon="-1.6232">
        <ele>57.906937</ele>
        <time>2022-12-15T17:06:23.650Z</time>
      </trkpt>
      <trkpt lat="47.45987" lon="-1.62307">
        <ele>57.920765</ele>
        <time>2022-12-15T17:06:26.634Z</time>
      </trkpt>
      <trkpt lat="47.45987" lon="-1.62292">
        <ele>57.934955</ele>
        <time>2022-12-15T17:06:29.641Z</time>
      </trkpt>
      <trkpt lat="47.45987" lon="-1.62277">
        <ele>57.950045</ele>
        <time>2022-12-15T17:06:32.652Z</time>
      </trkpt>
      <trkpt lat="47.45987" lon="-1.62263">
        <ele>57.964734</ele>
        <time>2022-12-15T17:06:35.648Z</time>
      </trkpt>
      <trkpt lat="47.45988" lon="-1.62246">
        <ele>57.981474</ele>
        <time>2022-12-15T17:06:38.639Z</time>
      </trkpt>
      <trkpt lat="47.45988" lon="-1.6223">
        <ele>57.997169</ele>
        <time>2022-12-15T17:06:41.637Z</time>
      </trkpt>
      <trkpt lat="47.45989" lon="-1.62215">
        <ele>58.012858</ele>
        <time>2022-12-15T17:06:44.634Z</time>
      </trkpt>
      <trkpt lat="47.45989" lon="-1.62198">
        <ele>58.029052</ele>
        <time>2022-12-15T17:06:47.637Z</time>
      </trkpt>
      <trkpt lat="47.45989" lon="-1.62181">
        <ele>58.04604</ele>
        <time>2022-12-15T17:06:50.650Z</time>
      </trkpt>
      <trkpt lat="47.45989" lon="-1.62165">
        <ele>58.062628</ele>
        <time>2022-12-15T17:06:53.637Z</time>
      </trkpt>
      <trkpt lat="47.45989" lon="-1.62148">
        <ele>58.07904</ele>
        <time>2022-12-15T17:06:56.639Z</time>
      </trkpt>
      <trkpt lat="47.4599" lon="-1.62132">
        <ele>58.095061</ele>
        <time>2022-12-15T17:06:59.650Z</time>
      </trkpt>
      <trkpt lat="47.45991" lon="-1.62116">
        <ele>58.111204</ele>
        <time>2022-12-15T17:07:02.648Z</time>
      </trkpt>
      <trkpt lat="47.45992" lon="-1.62101">
        <ele>58.11993</ele>
        <time>2022-12-15T17:07:05.654Z</time>
      </trkpt>
      <trkpt lat="47.45992" lon="-1.62086">
        <ele>58.126002</ele>
        <time>2022-12-15T17:07:08.631Z</time>
      </trkpt>
      <trkpt lat="47.45992" lon="-1.6207">
        <ele>58.132153</ele>
        <time>2022-12-15T17:07:11.646Z</time>
      </trkpt>
      <trkpt lat="47.45992" lon="-1.62053">
        <ele>58.138856</ele>
        <time>2022-12-15T17:07:14.643Z</time>
      </trkpt>
      <trkpt lat="47.45991" lon="-1.62037">
        <ele>58.145529</ele>
        <time>2022-12-15T17:07:17.633Z</time>
      </trkpt>
      <trkpt lat="47.45991" lon="-1.62019">
        <ele>58.152351</ele>
        <time>2022-12-15T17:07:20.636Z</time>
      </trkpt>
      <trkpt lat="47.45992" lon="-1.62002">
        <ele>58.159326</ele>
        <time>2022-12-15T17:07:23.633Z</time>
      </trkpt>
      <trkpt lat="47.45993" lon="-1.61985">
        <ele>58.165892</ele>
        <time>2022-12-15T17:07:26.633Z</time>
      </trkpt>
      <trkpt lat="47.45994" lon="-1.61969">
        <ele>58.172286</ele>
        <time>2022-12-15T17:07:29.633Z</time>
      </trkpt>
      <trkpt lat="47.45995" lon="-1.61953">
        <ele>58.178638</ele>
        <time>2022-12-15T17:07:32.634Z</time>
      </trkpt>
      <trkpt lat="47.45994" lon="-1.61939">
        <ele>58.184178</ele>
        <time>2022-12-15T17:07:35.635Z</time>
      </trkpt>
      <trkpt lat="47.45992" lon="-1.61922">
        <ele>58.19105</ele>
        <time>2022-12-15T17:07:39.645Z</time>
      </trkpt>
      <trkpt lat="47.45991" lon="-1.61907">
        <ele>58.196659</ele>
        <time>2022-12-15T17:07:42.645Z</time>
      </trkpt>
      <trkpt lat="47.45991" lon="-1.61893">
        <ele>58.202535</ele>
        <time>2022-12-15T17:07:45.644Z</time>
      </trkpt>
      <trkpt lat="47.45993" lon="-1.61879">
        <ele>58.208037</ele>
        <time>2022-12-15T17:07:48.636Z</time>
      </trkpt>
      <trkpt lat="47.45994" lon="-1.61864">
        <ele>58.214019</ele>
        <time>2022-12-15T17:07:52.649Z</time>
      </trkpt>
      <trkpt lat="47.45996" lon="-1.61849">
        <ele>58.220135</ele>
        <time>2022-12-15T17:07:57.643Z</time>
      </trkpt>
      <trkpt lat="47.45997" lon="-1.61834">
        <ele>58.499245</ele>
        <time>2022-12-15T17:08:02.640Z</time>
      </trkpt>
      <trkpt lat="47.45998" lon="-1.61819">
        <ele>58.794431</ele>
        <time>2022-12-15T17:08:07.653Z</time>
      </trkpt>
      <trkpt lat="47.45998" lon="-1.61802">
        <ele>59.160621</ele>
        <time>2022-12-15T17:08:13.641Z</time>
      </trkpt>
      <trkpt lat="47.45998" lon="-1.61784">
        <ele>59.543659</ele>
        <time>2022-12-15T17:08:16.640Z</time>
      </trkpt>
      <trkpt lat="47.45997" lon="-1.61768">
        <ele>59.877508</ele>
        <time>2022-12-15T17:08:18.642Z</time>
      </trkpt>
      <trkpt lat="47.45996" lon="-1.61753">
        <ele>60.196023</ele>
        <time>2022-12-15T17:08:20.650Z</time>
      </trkpt>
      <trkpt lat="47.45995" lon="-1.61739">
        <ele>60.490683</ele>
        <time>2022-12-15T17:08:22.638Z</time>
      </trkpt>
      <trkpt lat="47.45993" lon="-1.61719">
        <ele>60.896835</ele>
        <time>2022-12-15T17:08:25.631Z</time>
      </trkpt>
      <trkpt lat="47.45992" lon="-1.61704">
        <ele>61.213264</ele>
        <time>2022-12-15T17:08:28.637Z</time>
      </trkpt>
      <trkpt lat="47.45989" lon="-1.61687">
        <ele>61.587055</ele>
        <time>2022-12-15T17:08:31.635Z</time>
      </trkpt>
      <trkpt lat="47.45988" lon="-1.61671">
        <ele>61.926882</ele>
        <time>2022-12-15T17:08:34.651Z</time>
      </trkpt>
      <trkpt lat="47.45987" lon="-1.61655">
        <ele>62.256872</ele>
        <time>2022-12-15T17:08:37.636Z</time>
      </trkpt>
      <trkpt lat="47.45981" lon="-1.61639">
        <ele>62.63586</ele>
        <time>2022-12-15T17:08:40.646Z</time>
      </trkpt>
      <trkpt lat="47.45978" lon="-1.61622">
        <ele>63.008412</ele>
        <time>2022-12-15T17:08:43.644Z</time>
      </trkpt>
      <trkpt lat="47.45976" lon="-1.61608">
        <ele>63.3071</ele>
        <time>2022-12-15T17:08:45.654Z</time>
      </trkpt>
      <trkpt lat="47.45975" lon="-1.61589">
        <ele>63.705779</ele>
        <time>2022-12-15T17:08:48.647Z</time>
      </trkpt>
      <trkpt lat="47.45971" lon="-1.6157">
        <ele>63.862246</ele>
        <time>2022-12-15T17:08:51.641Z</time>
      </trkpt>
      <trkpt lat="47.45969" lon="-1.61551">
        <ele>63.955284</ele>
        <time>2022-12-15T17:08:54.630Z</time>
      </trkpt>
      <trkpt lat="47.45967" lon="-1.61533">
        <ele>64.050279</ele>
        <time>2022-12-15T17:08:57.639Z</time>
      </trkpt>
      <trkpt lat="47.45963" lon="-1.61516">
        <ele>64.135782</ele>
        <time>2022-12-15T17:09:00.639Z</time>
      </trkpt>
      <trkpt lat="47.4596" lon="-1.615">
        <ele>64.221474</ele>
        <time>2022-12-15T17:09:03.633Z</time>
      </trkpt>
      <trkpt lat="47.45957" lon="-1.61483">
        <ele>64.305761</ele>
        <time>2022-12-15T17:09:06.642Z</time>
      </trkpt>
      <trkpt lat="47.45953" lon="-1.61471">
        <ele>64.375146</ele>
        <time>2022-12-15T17:09:09.630Z</time>
      </trkpt>
      <trkpt lat="47.45949" lon="-1.61458">
        <ele>64.447036</ele>
        <time>2022-12-15T17:09:11.634Z</time>
      </trkpt>
      <trkpt lat="47.45944" lon="-1.61441">
        <ele>64.541062</ele>
        <time>2022-12-15T17:09:14.654Z</time>
      </trkpt>
      <trkpt lat="47.45939" lon="-1.61426">
        <ele>64.623265</ele>
        <time>2022-12-15T17:09:17.633Z</time>
      </trkpt>
      <trkpt lat="47.45937" lon="-1.61411">
        <ele>64.697078</ele>
        <time>2022-12-15T17:09:20.637Z</time>
      </trkpt>
      <trkpt lat="47.45935" lon="-1.61396">
        <ele>64.773395</ele>
        <time>2022-12-15T17:09:23.642Z</time>
      </trkpt>
      <trkpt lat="47.45933" lon="-1.6138">
        <ele>64.855516</ele>
        <time>2022-12-15T17:09:26.634Z</time>
      </trkpt>
      <trkpt lat="47.45931" lon="-1.61362">
        <ele>64.945424</ele>
        <time>2022-12-15T17:09:29.637Z</time>
      </trkpt>
      <trkpt lat="47.45928" lon="-1.61346">
        <ele>65.02846</ele>
        <time>2022-12-15T17:09:32.643Z</time>
      </trkpt>
      <trkpt lat="47.45925" lon="-1.61328">
        <ele>65.107985</ele>
        <time>2022-12-15T17:09:35.635Z</time>
      </trkpt>
      <trkpt lat="47.45922" lon="-1.61311">
        <ele>65.122433</ele>
        <time>2022-12-15T17:09:38.637Z</time>
      </trkpt>
      <trkpt lat="47.4592" lon="-1.61294">
        <ele>65.136771</ele>
        <time>2022-12-15T17:09:41.638Z</time>
      </trkpt>
      <trkpt lat="47.45919" lon="-1.61279">
        <ele>65.149331</ele>
        <time>2022-12-15T17:09:44.641Z</time>
      </trkpt>
      <trkpt lat="47.45916" lon="-1.61266">
        <ele>65.16052</ele>
        <time>2022-12-15T17:09:47.650Z</time>
      </trkpt>
      <trkpt lat="47.45919" lon="-1.61253">
        <ele>65.171713</ele>
        <time>2022-12-15T17:09:50.639Z</time>
      </trkpt>
      <trkpt lat="47.45922" lon="-1.61238">
        <ele>65.184472</ele>
        <time>2022-12-15T17:09:53.633Z</time>
      </trkpt>
      <trkpt lat="47.45925" lon="-1.61222">
        <ele>65.198303</ele>
        <time>2022-12-15T17:09:56.634Z</time>
      </trkpt>
      <trkpt lat="47.45928" lon="-1.61207">
        <ele>65.211884</ele>
        <time>2022-12-15T17:09:59.637Z</time>
      </trkpt>
      <trkpt lat="47.45935" lon="-1.61191">
        <ele>65.226838</ele>
        <time>2022-12-15T17:10:02.634Z</time>
      </trkpt>
      <trkpt lat="47.4594" lon="-1.61174">
        <ele>65.242361</ele>
        <time>2022-12-15T17:10:05.634Z</time>
      </trkpt>
      <trkpt lat="47.45945" lon="-1.61159">
        <ele>65.255712</ele>
        <time>2022-12-15T17:10:08.639Z</time>
      </trkpt>
      <trkpt lat="47.45948" lon="-1.61142">
        <ele>65.270604</ele>
        <time>2022-12-15T17:10:11.652Z</time>
      </trkpt>
      <trkpt lat="47.45951" lon="-1.61129">
        <ele>65.282083</ele>
        <time>2022-12-15T17:10:14.643Z</time>
      </trkpt>
      <trkpt lat="47.45956" lon="-1.61117">
        <ele>65.29374</ele>
        <time>2022-12-15T17:10:17.644Z</time>
      </trkpt>
      <trkpt lat="47.4596" lon="-1.61105">
        <ele>65.304882</ele>
        <time>2022-12-15T17:10:20.645Z</time>
      </trkpt>
      <trkpt lat="47.45965" lon="-1.61093">
        <ele>65.316041</ele>
        <time>2022-12-15T17:10:23.634Z</time>
      </trkpt>
      <trkpt lat="47.45969" lon="-1.61079">
        <ele>65.28392</ele>
        <time>2022-12-15T17:10:26.634Z</time>
      </trkpt>
      <trkpt lat="47.45974" lon="-1.61065">
        <ele>65.116488</ele>
        <time>2022-12-15T17:10:29.642Z</time>
      </trkpt>
      <trkpt lat="47.45978" lon="-1.6105">
        <ele>64.949898</ele>
        <time>2022-12-15T17:10:32.639Z</time>
      </trkpt>
      <trkpt lat="47.45982" lon="-1.61034">
        <ele>64.780501</ele>
        <time>2022-12-15T17:10:35.635Z</time>
      </trkpt>
      <trkpt lat="47.45985" lon="-1.61016">
        <ele>64.591974</ele>
        <time>2022-12-15T17:10:38.636Z</time>
      </trkpt>
      <trkpt lat="47.45991" lon="-1.60999">
        <ele>64.394087</ele>
        <time>2022-12-15T17:10:41.649Z</time>
      </trkpt>
      <trkpt lat="47.45998" lon="-1.60984">
        <ele>64.206696</ele>
        <time>2022-12-15T17:10:44.653Z</time>
      </trkpt>
      <trkpt lat="47.46002" lon="-1.60967">
        <ele>64.020137</ele>
        <time>2022-12-15T17:10:47.635Z</time>
      </trkpt>
      <trkpt lat="47.46007" lon="-1.60949">
        <ele>63.830865</ele>
        <time>2022-12-15T17:10:50.638Z</time>
      </trkpt>
      <trkpt lat="47.46012" lon="-1.60932">
        <ele>63.635175</ele>
        <time>2022-12-15T17:10:53.640Z</time>
      </trkpt>
      <trkpt lat="47.46016" lon="-1.60913">
        <ele>63.442952</ele>
        <time>2022-12-15T17:10:56.643Z</time>
      </trkpt>
      <trkpt lat="47.46018" lon="-1.60896">
        <ele>63.256096</ele>
        <time>2022-12-15T17:10:59.640Z</time>
      </trkpt>
      <trkpt lat="47.46019" lon="-1.60878">
        <ele>63.074437</ele>
        <time>2022-12-15T17:11:02.646Z</time>
      </trkpt>
      <trkpt lat="47.46018" lon="-1.60862">
        <ele>62.916058</ele>
        <time>2022-12-15T17:11:05.635Z</time>
      </trkpt>
      <trkpt lat="47.46016" lon="-1.60849">
        <ele>62.776394</ele>
        <time>2022-12-15T17:11:08.633Z</time>
      </trkpt>
      <trkpt lat="47.46014" lon="-1.60831">
        <ele>62.623921</ele>
        <time>2022-12-15T17:11:11.635Z</time>
      </trkpt>
      <trkpt lat="47.46012" lon="-1.60813">
        <ele>62.699558</ele>
        <time>2022-12-15T17:11:14.638Z</time>
      </trkpt>
      <trkpt lat="47.4601" lon="-1.60795">
        <ele>62.775185</ele>
        <time>2022-12-15T17:11:17.652Z</time>
      </trkpt>
      <trkpt lat="47.46009" lon="-1.60778">
        <ele>62.84819</ele>
        <time>2022-12-15T17:11:20.642Z</time>
      </trkpt>
      <trkpt lat="47.46006" lon="-1.60765">
        <ele>62.905699</ele>
        <time>2022-12-15T17:11:22.646Z</time>
      </trkpt>
      <trkpt lat="47.45999" lon="-1.6075">
        <ele>62.978781</ele>
        <time>2022-12-15T17:11:24.638Z</time>
      </trkpt>
      <trkpt lat="47.45996" lon="-1.60734">
        <ele>63.045752</ele>
        <time>2022-12-15T17:11:27.636Z</time>
      </trkpt>
      <trkpt lat="47.45992" lon="-1.60722">
        <ele>63.102498</ele>
        <time>2022-12-15T17:11:29.632Z</time>
      </trkpt>
      <trkpt lat="47.45986" lon="-1.60711">
        <ele>63.161042</ele>
        <time>2022-12-15T17:11:32.659Z</time>
      </trkpt>
      <trkpt lat="47.45979" lon="-1.60698">
        <ele>63.230734</ele>
        <time>2022-12-15T17:11:35.647Z</time>
      </trkpt>
      <trkpt lat="47.45971" lon="-1.60685">
        <ele>63.303433</ele>
        <time>2022-12-15T17:11:38.645Z</time>
      </trkpt>
      <trkpt lat="47.45965" lon="-1.60675">
        <ele>63.359549</ele>
        <time>2022-12-15T17:11:40.630Z</time>
      </trkpt>
      <trkpt lat="47.45958" lon="-1.60662">
        <ele>63.428251</ele>
        <time>2022-12-15T17:11:43.638Z</time>
      </trkpt>
      <trkpt lat="47.45949" lon="-1.60651">
        <ele>63.500725</ele>
        <time>2022-12-15T17:11:47.635Z</time>
      </trkpt>
      <trkpt lat="47.4594" lon="-1.60642">
        <ele>63.566505</ele>
        <time>2022-12-15T17:11:50.635Z</time>
      </trkpt>
      <trkpt lat="47.45933" lon="-1.60633">
        <ele>63.623605</ele>
        <time>2022-12-15T17:11:53.646Z</time>
      </trkpt>
      <trkpt lat="47.45925" lon="-1.60622">
        <ele>63.692195</ele>
        <time>2022-12-15T17:11:56.636Z</time>
      </trkpt>
      <trkpt lat="47.45915" lon="-1.60614">
        <ele>63.691436</ele>
        <time>2022-12-15T17:11:59.636Z</time>
      </trkpt>
      <trkpt lat="47.45905" lon="-1.60603">
        <ele>63.636257</ele>
        <time>2022-12-15T17:12:02.633Z</time>
      </trkpt>
      <trkpt lat="47.45895" lon="-1.60593">
        <ele>63.585066</ele>
        <time>2022-12-15T17:12:05.654Z</time>
      </trkpt>
      <trkpt lat="47.45886" lon="-1.60581">
        <ele>63.529842</ele>
        <time>2022-12-15T17:12:08.635Z</time>
      </trkpt>
      <trkpt lat="47.45875" lon="-1.60571">
        <ele>63.47464</ele>
        <time>2022-12-15T17:12:11.633Z</time>
      </trkpt>
      <trkpt lat="47.45867" lon="-1.60562">
        <ele>63.428263</ele>
        <time>2022-12-15T17:12:14.635Z</time>
      </trkpt>
      <trkpt lat="47.45858" lon="-1.60555">
        <ele>63.38576</ele>
        <time>2022-12-15T17:12:16.641Z</time>
      </trkpt>
      <trkpt lat="47.45847" lon="-1.60544">
        <ele>63.328111</ele>
        <time>2022-12-15T17:12:19.635Z</time>
      </trkpt>
      <trkpt lat="47.45839" lon="-1.60533">
        <ele>63.281825</ele>
        <time>2022-12-15T17:12:22.634Z</time>
      </trkpt>
      <trkpt lat="47.4583" lon="-1.60523">
        <ele>63.23229</ele>
        <time>2022-12-15T17:12:24.640Z</time>
      </trkpt>
      <trkpt lat="47.45822" lon="-1.60517">
        <ele>63.192029</ele>
        <time>2022-12-15T17:12:26.635Z</time>
      </trkpt>
      <trkpt lat="47.45813" lon="-1.60508">
        <ele>63.145949</ele>
        <time>2022-12-15T17:12:28.641Z</time>
      </trkpt>
      <trkpt lat="47.45803" lon="-1.60498">
        <ele>63.091916</ele>
        <time>2022-12-15T17:12:31.644Z</time>
      </trkpt>
      <trkpt lat="47.45793" lon="-1.60489">
        <ele>63.041816</ele>
        <time>2022-12-15T17:12:34.645Z</time>
      </trkpt>
      <trkpt lat="47.45783" lon="-1.60478">
        <ele>62.986637</ele>
        <time>2022-12-15T17:12:37.630Z</time>
      </trkpt>
      <trkpt lat="47.45772" lon="-1.60466">
        <ele>62.945146</ele>
        <time>2022-12-15T17:12:40.638Z</time>
      </trkpt>
      <trkpt lat="47.45761" lon="-1.60455">
        <ele>63.030576</ele>
        <time>2022-12-15T17:12:43.645Z</time>
      </trkpt>
      <trkpt lat="47.45752" lon="-1.60448">
        <ele>63.095572</ele>
        <time>2022-12-15T17:12:45.646Z</time>
      </trkpt>
      <trkpt lat="47.45743" lon="-1.6044">
        <ele>63.159414</ele>
        <time>2022-12-15T17:12:47.632Z</time>
      </trkpt>
      <trkpt lat="47.45733" lon="-1.60428">
        <ele>63.242718</ele>
        <time>2022-12-15T17:12:50.631Z</time>
      </trkpt>
      <trkpt lat="47.45725" lon="-1.6042">
        <ele>63.300301</ele>
        <time>2022-12-15T17:12:52.657Z</time>
      </trkpt>
      <trkpt lat="47.45714" lon="-1.60408">
        <ele>63.388464</ele>
        <time>2022-12-15T17:12:55.641Z</time>
      </trkpt>
      <trkpt lat="47.45704" lon="-1.60397">
        <ele>63.469785</ele>
        <time>2022-12-15T17:12:58.634Z</time>
      </trkpt>
      <trkpt lat="47.45694" lon="-1.60387">
        <ele>63.547768</ele>
        <time>2022-12-15T17:13:01.641Z</time>
      </trkpt>
      <trkpt lat="47.45683" lon="-1.60377">
        <ele>63.629047</ele>
        <time>2022-12-15T17:13:04.650Z</time>
      </trkpt>
      <trkpt lat="47.45674" lon="-1.60367">
        <ele>63.700667</ele>
        <time>2022-12-15T17:13:07.636Z</time>
      </trkpt>
      <trkpt lat="47.45665" lon="-1.60356">
        <ele>63.771675</ele>
        <time>2022-12-15T17:13:10.634Z</time>
      </trkpt>
      <trkpt lat="47.45655" lon="-1.60346">
        <ele>63.849121</ele>
        <time>2022-12-15T17:13:13.647Z</time>
      </trkpt>
      <trkpt lat="47.45645" lon="-1.60336">
        <ele>63.925901</ele>
        <time>2022-12-15T17:13:16.650Z</time>
      </trkpt>
      <trkpt lat="47.45638" lon="-1.60327">
        <ele>63.984247</ele>
        <time>2022-12-15T17:13:18.646Z</time>
      </trkpt>
      <trkpt lat="47.4563" lon="-1.6032">
        <ele>64.041745</ele>
        <time>2022-12-15T17:13:20.641Z</time>
      </trkpt>
      <trkpt lat="47.45618" lon="-1.6031">
        <ele>63.86858</ele>
        <time>2022-12-15T17:13:23.634Z</time>
      </trkpt>
      <trkpt lat="47.45611" lon="-1.60302">
        <ele>63.651035</ele>
        <time>2022-12-15T17:13:25.653Z</time>
      </trkpt>
      <trkpt lat="47.45602" lon="-1.60294">
        <ele>63.405654</ele>
        <time>2022-12-15T17:13:27.634Z</time>
      </trkpt>
      <trkpt lat="47.45591" lon="-1.60283">
        <ele>63.094855</ele>
        <time>2022-12-15T17:13:30.638Z</time>
      </trkpt>
      <trkpt lat="47.45581" lon="-1.60271">
        <ele>62.782984</ele>
        <time>2022-12-15T17:13:33.639Z</time>
      </trkpt>
      <trkpt lat="47.45571" lon="-1.60262">
        <ele>62.51151</ele>
        <time>2022-12-15T17:13:36.635Z</time>
      </trkpt>
      <trkpt lat="47.45562" lon="-1.60253">
        <ele>62.243702</ele>
        <time>2022-12-15T17:13:39.634Z</time>
      </trkpt>
      <trkpt lat="47.45554" lon="-1.60243">
        <ele>61.997954</ele>
        <time>2022-12-15T17:13:42.638Z</time>
      </trkpt>
      <trkpt lat="47.45544" lon="-1.60232">
        <ele>61.709985</ele>
        <time>2022-12-15T17:13:45.651Z</time>
      </trkpt>
      <trkpt lat="47.45534" lon="-1.60222">
        <ele>61.41354</ele>
        <time>2022-12-15T17:13:48.636Z</time>
      </trkpt>
      <trkpt lat="47.45524" lon="-1.60208">
        <ele>61.08512</ele>
        <time>2022-12-15T17:13:51.651Z</time>
      </trkpt>
      <trkpt lat="47.45515" lon="-1.60195">
        <ele>60.786457</ele>
        <time>2022-12-15T17:13:54.646Z</time>
      </trkpt>
      <trkpt lat="47.45507" lon="-1.60185">
        <ele>60.530565</ele>
        <time>2022-12-15T17:13:57.640Z</time>
      </trkpt>
      <trkpt lat="47.45499" lon="-1.60176">
        <ele>60.303927</ele>
        <time>2022-12-15T17:14:00.638Z</time>
      </trkpt>
      <trkpt lat="47.45492" lon="-1.60167">
        <ele>60.075019</ele>
        <time>2022-12-15T17:14:03.654Z</time>
      </trkpt>
      <trkpt lat="47.45485" lon="-1.60154">
        <ele>59.812133</ele>
        <time>2022-12-15T17:14:06.640Z</time>
      </trkpt>
      <trkpt lat="47.45478" lon="-1.60141">
        <ele>59.827406</ele>
        <time>2022-12-15T17:14:09.646Z</time>
      </trkpt>
      <trkpt lat="47.45471" lon="-1.60126">
        <ele>59.86263</ele>
        <time>2022-12-15T17:14:12.643Z</time>
      </trkpt>
      <trkpt lat="47.45467" lon="-1.60113">
        <ele>59.89325</ele>
        <time>2022-12-15T17:14:15.632Z</time>
      </trkpt>
      <trkpt lat="47.4546" lon="-1.60099">
        <ele>59.926486</ele>
        <time>2022-12-15T17:14:18.639Z</time>
      </trkpt>
      <trkpt lat="47.45455" lon="-1.60084">
        <ele>59.960227</ele>
        <time>2022-12-15T17:14:21.635Z</time>
      </trkpt>
      <trkpt lat="47.45447" lon="-1.60068">
        <ele>59.998928</ele>
        <time>2022-12-15T17:14:24.651Z</time>
      </trkpt>
      <trkpt lat="47.45441" lon="-1.60055">
        <ele>60.031836</ele>
        <time>2022-12-15T17:14:27.636Z</time>
      </trkpt>
      <trkpt lat="47.45436" lon="-1.6004">
        <ele>60.065051</ele>
        <time>2022-12-15T17:14:30.632Z</time>
      </trkpt>
      <trkpt lat="47.4543" lon="-1.60026">
        <ele>60.09795</ele>
        <time>2022-12-15T17:14:33.638Z</time>
      </trkpt>
      <trkpt lat="47.45425" lon="-1.6001">
        <ele>60.132129</ele>
        <time>2022-12-15T17:14:36.651Z</time>
      </trkpt>
      <trkpt lat="47.45419" lon="-1.59993">
        <ele>60.169956</ele>
        <time>2022-12-15T17:14:39.634Z</time>
      </trkpt>
      <trkpt lat="47.45414" lon="-1.59978">
        <ele>60.205159</ele>
        <time>2022-12-15T17:14:42.637Z</time>
      </trkpt>
      <trkpt lat="47.45407" lon="-1.59961">
        <ele>60.245057</ele>
        <time>2022-12-15T17:14:45.636Z</time>
      </trkpt>
      <trkpt lat="47.45401" lon="-1.59945">
        <ele>60.281082</ele>
        <time>2022-12-15T17:14:48.642Z</time>
      </trkpt>
      <trkpt lat="47.45395" lon="-1.59928">
        <ele>60.319222</ele>
        <time>2022-12-15T17:14:51.643Z</time>
      </trkpt>
      <trkpt lat="47.4539" lon="-1.5991">
        <ele>60.313635</ele>
        <time>2022-12-15T17:14:54.637Z</time>
      </trkpt>
      <trkpt lat="47.45384" lon="-1.59893">
        <ele>60.296748</ele>
        <time>2022-12-15T17:14:57.634Z</time>
      </trkpt>
      <trkpt lat="47.45377" lon="-1.59878">
        <ele>60.281101</ele>
        <time>2022-12-15T17:15:00.649Z</time>
      </trkpt>
      <trkpt lat="47.45373" lon="-1.59864">
        <ele>60.266771</ele>
        <time>2022-12-15T17:15:03.634Z</time>
      </trkpt>
      <trkpt lat="47.45367" lon="-1.59851">
        <ele>60.253681</ele>
        <time>2022-12-15T17:15:06.645Z</time>
      </trkpt>
      <trkpt lat="47.45362" lon="-1.59836">
        <ele>60.238953</ele>
        <time>2022-12-15T17:15:09.640Z</time>
      </trkpt>
      <trkpt lat="47.45357" lon="-1.59821">
        <ele>60.224112</ele>
        <time>2022-12-15T17:15:12.659Z</time>
      </trkpt>
      <trkpt lat="47.45353" lon="-1.59804">
        <ele>60.20855</ele>
        <time>2022-12-15T17:15:15.652Z</time>
      </trkpt>
      <trkpt lat="47.45348" lon="-1.59789">
        <ele>60.193392</ele>
        <time>2022-12-15T17:15:18.639Z</time>
      </trkpt>
      <trkpt lat="47.45343" lon="-1.59773">
        <ele>60.17788</ele>
        <time>2022-12-15T17:15:21.650Z</time>
      </trkpt>
      <trkpt lat="47.45338" lon="-1.59759">
        <ele>60.163886</ele>
        <time>2022-12-15T17:15:24.663Z</time>
      </trkpt>
      <trkpt lat="47.45333" lon="-1.59747">
        <ele>60.151339</ele>
        <time>2022-12-15T17:15:27.651Z</time>
      </trkpt>
      <trkpt lat="47.45327" lon="-1.59731">
        <ele>60.135514</ele>
        <time>2022-12-15T17:15:31.636Z</time>
      </trkpt>
      <trkpt lat="47.45323" lon="-1.59719">
        <ele>60.12289</ele>
        <time>2022-12-15T17:15:34.641Z</time>
      </trkpt>
      <trkpt lat="47.45318" lon="-1.59704">
        <ele>60.108541</ele>
        <time>2022-12-15T17:15:37.637Z</time>
      </trkpt>
      <trkpt lat="47.45312" lon="-1.59692">
        <ele>60.095373</ele>
        <time>2022-12-15T17:15:40.641Z</time>
      </trkpt>
      <trkpt lat="47.45307" lon="-1.59679">
        <ele>60.115861</ele>
        <time>2022-12-15T17:15:43.633Z</time>
      </trkpt>
      <trkpt lat="47.45302" lon="-1.59665">
        <ele>60.146031</ele>
        <time>2022-12-15T17:15:46.643Z</time>
      </trkpt>
      <trkpt lat="47.45298" lon="-1.5965">
        <ele>60.178818</ele>
        <time>2022-12-15T17:15:49.649Z</time>
      </trkpt>
      <trkpt lat="47.45293" lon="-1.59636">
        <ele>60.209784</ele>
        <time>2022-12-15T17:15:52.654Z</time>
      </trkpt>
      <trkpt lat="47.45287" lon="-1.5962">
        <ele>60.247458</ele>
        <time>2022-12-15T17:15:55.636Z</time>
      </trkpt>
      <trkpt lat="47.45282" lon="-1.59603">
        <ele>60.284846</ele>
        <time>2022-12-15T17:15:58.637Z</time>
      </trkpt>
      <trkpt lat="47.45276" lon="-1.59586">
        <ele>60.320993</ele>
        <time>2022-12-15T17:16:01.648Z</time>
      </trkpt>
      <trkpt lat="47.45271" lon="-1.5957">
        <ele>60.357779</ele>
        <time>2022-12-15T17:16:04.654Z</time>
      </trkpt>
      <trkpt lat="47.45266" lon="-1.59554">
        <ele>60.392861</ele>
        <time>2022-12-15T17:16:07.641Z</time>
      </trkpt>
      <trkpt lat="47.45261" lon="-1.59542">
        <ele>60.420516</ele>
        <time>2022-12-15T17:16:10.636Z</time>
      </trkpt>
      <trkpt lat="47.45255" lon="-1.59526">
        <ele>60.457033</ele>
        <time>2022-12-15T17:16:14.637Z</time>
      </trkpt>
      <trkpt lat="47.45251" lon="-1.59511">
        <ele>60.489178</ele>
        <time>2022-12-15T17:16:17.645Z</time>
      </trkpt>
      <trkpt lat="47.45246" lon="-1.59496">
        <ele>60.52245</ele>
        <time>2022-12-15T17:16:20.634Z</time>
      </trkpt>
      <trkpt lat="47.4524" lon="-1.59479">
        <ele>60.559575</ele>
        <time>2022-12-15T17:16:23.638Z</time>
      </trkpt>
      <trkpt lat="47.45235" lon="-1.59464">
        <ele>60.594307</ele>
        <time>2022-12-15T17:16:26.633Z</time>
      </trkpt>
      <trkpt lat="47.45231" lon="-1.59447">
        <ele>60.657189</ele>
        <time>2022-12-15T17:16:29.635Z</time>
      </trkpt>
      <trkpt lat="47.45227" lon="-1.59431">
        <ele>60.835116</ele>
        <time>2022-12-15T17:16:32.633Z</time>
      </trkpt>
      <trkpt lat="47.45223" lon="-1.59414">
        <ele>61.021947</ele>
        <time>2022-12-15T17:16:35.647Z</time>
      </trkpt>
      <trkpt lat="47.4522" lon="-1.59397">
        <ele>61.204737</ele>
        <time>2022-12-15T17:16:38.638Z</time>
      </trkpt>
      <trkpt lat="47.45216" lon="-1.5938">
        <ele>61.393097</ele>
        <time>2022-12-15T17:16:41.636Z</time>
      </trkpt>
      <trkpt lat="47.45213" lon="-1.59363">
        <ele>61.580731</ele>
        <time>2022-12-15T17:16:44.641Z</time>
      </trkpt>
      <trkpt lat="47.4521" lon="-1.59346">
        <ele>61.761741</ele>
        <time>2022-12-15T17:16:47.637Z</time>
      </trkpt>
      <trkpt lat="47.45207" lon="-1.59328">
        <ele>61.959047</ele>
        <time>2022-12-15T17:16:50.638Z</time>
      </trkpt>
      <trkpt lat="47.45204" lon="-1.5931">
        <ele>62.14887</ele>
        <time>2022-12-15T17:16:53.642Z</time>
      </trkpt>
      <trkpt lat="47.45202" lon="-1.59293">
        <ele>62.330899</ele>
        <time>2022-12-15T17:16:56.648Z</time>
      </trkpt>
      <trkpt lat="47.45199" lon="-1.59278">
        <ele>62.495211</ele>
        <time>2022-12-15T17:16:59.640Z</time>
      </trkpt>
      <trkpt lat="47.45196" lon="-1.59264">
        <ele>62.654305</ele>
        <time>2022-12-15T17:17:02.632Z</time>
      </trkpt>
      <trkpt lat="47.45194" lon="-1.59248">
        <ele>62.825438</ele>
        <time>2022-12-15T17:17:05.633Z</time>
      </trkpt>
      <trkpt lat="47.45192" lon="-1.59232">
        <ele>62.994631</ele>
        <time>2022-12-15T17:17:08.652Z</time>
      </trkpt>
      <trkpt lat="47.45189" lon="-1.59216">
        <ele>63.16678</ele>
        <time>2022-12-15T17:17:11.642Z</time>
      </trkpt>
      <trkpt lat="47.45186" lon="-1.59201">
        <ele>63.326976</ele>
        <time>2022-12-15T17:17:14.645Z</time>
      </trkpt>
      <trkpt lat="47.45184" lon="-1.59185">
        <ele>63.44924</ele>
        <time>2022-12-15T17:17:17.637Z</time>
      </trkpt>
      <trkpt lat="47.45181" lon="-1.59169">
        <ele>63.530049</ele>
        <time>2022-12-15T17:17:20.657Z</time>
      </trkpt>
      <trkpt lat="47.45179" lon="-1.59152">
        <ele>63.610885</ele>
        <time>2022-12-15T17:17:23.644Z</time>
      </trkpt>
      <trkpt lat="47.45176" lon="-1.59136">
        <ele>63.690791</ele>
        <time>2022-12-15T17:17:26.633Z</time>
      </trkpt>
      <trkpt lat="47.45174" lon="-1.59122">
        <ele>63.763971</ele>
        <time>2022-12-15T17:17:29.635Z</time>
      </trkpt>
      <trkpt lat="47.45171" lon="-1.59108">
        <ele>63.833699</ele>
        <time>2022-12-15T17:17:32.633Z</time>
      </trkpt>
      <trkpt lat="47.45168" lon="-1.59093">
        <ele>63.905879</ele>
        <time>2022-12-15T17:17:35.650Z</time>
      </trkpt>
      <trkpt lat="47.45166" lon="-1.59079">
        <ele>63.975865</ele>
        <time>2022-12-15T17:17:38.634Z</time>
      </trkpt>
      <trkpt lat="47.45163" lon="-1.59064">
        <ele>64.051293</ele>
        <time>2022-12-15T17:17:41.634Z</time>
      </trkpt>
      <trkpt lat="47.45161" lon="-1.59048">
        <ele>64.12976</ele>
        <time>2022-12-15T17:17:44.634Z</time>
      </trkpt>
      <trkpt lat="47.45159" lon="-1.59031">
        <ele>64.213873</ele>
        <time>2022-12-15T17:17:47.635Z</time>
      </trkpt>
      <trkpt lat="47.45156" lon="-1.59014">
        <ele>64.300029</ele>
        <time>2022-12-15T17:17:50.638Z</time>
      </trkpt>
      <trkpt lat="47.45153" lon="-1.58997">
        <ele>64.384929</ele>
        <time>2022-12-15T17:17:53.641Z</time>
      </trkpt>
      <trkpt lat="47.45151" lon="-1.58982">
        <ele>64.460236</ele>
        <time>2022-12-15T17:17:56.637Z</time>
      </trkpt>
      <trkpt lat="47.45149" lon="-1.58968">
        <ele>64.525965</ele>
        <time>2022-12-15T17:17:59.640Z</time>
      </trkpt>
      <trkpt lat="47.45147" lon="-1.58952">
        <ele>64.604158</ele>
        <time>2022-12-15T17:18:02.638Z</time>
      </trkpt>
      <trkpt lat="47.45144" lon="-1.58936">
        <ele>64.685439</ele>
        <time>2022-12-15T17:18:05.638Z</time>
      </trkpt>
      <trkpt lat="47.45142" lon="-1.58919">
        <ele>64.675677</ele>
        <time>2022-12-15T17:18:08.638Z</time>
      </trkpt>
      <trkpt lat="47.45139" lon="-1.58902">
        <ele>64.659015</ele>
        <time>2022-12-15T17:18:11.638Z</time>
      </trkpt>
      <trkpt lat="47.45136" lon="-1.58884">
        <ele>64.64138</ele>
        <time>2022-12-15T17:18:14.638Z</time>
      </trkpt>
      <trkpt lat="47.45133" lon="-1.58868">
        <ele>64.625185</ele>
        <time>2022-12-15T17:18:17.654Z</time>
      </trkpt>
      <trkpt lat="47.45131" lon="-1.58851">
        <ele>64.608457</ele>
        <time>2022-12-15T17:18:20.639Z</time>
      </trkpt>
      <trkpt lat="47.45128" lon="-1.58831">
        <ele>64.589457</ele>
        <time>2022-12-15T17:18:23.633Z</time>
      </trkpt>
      <trkpt lat="47.45126" lon="-1.58818">
        <ele>64.576306</ele>
        <time>2022-12-15T17:18:25.649Z</time>
      </trkpt>
      <trkpt lat="47.45124" lon="-1.58799">
        <ele>64.557689</ele>
        <time>2022-12-15T17:18:28.643Z</time>
      </trkpt>
      <trkpt lat="47.45122" lon="-1.58785">
        <ele>64.544834</ele>
        <time>2022-12-15T17:18:31.634Z</time>
      </trkpt>
      <trkpt lat="47.45121" lon="-1.58772">
        <ele>64.531788</ele>
        <time>2022-12-15T17:18:33.636Z</time>
      </trkpt>
      <trkpt lat="47.45121" lon="-1.58758">
        <ele>64.518828</ele>
        <time>2022-12-15T17:18:35.634Z</time>
      </trkpt>
      <trkpt lat="47.45121" lon="-1.58744">
        <ele>64.504819</ele>
        <time>2022-12-15T17:18:37.653Z</time>
      </trkpt>
      <trkpt lat="47.45121" lon="-1.58728">
        <ele>64.489745</ele>
        <time>2022-12-15T17:18:39.637Z</time>
      </trkpt>
      <trkpt lat="47.4512" lon="-1.58713">
        <ele>64.475032</ele>
        <time>2022-12-15T17:18:41.654Z</time>
      </trkpt>
      <trkpt lat="47.4512" lon="-1.58695">
        <ele>64.457665</ele>
        <time>2022-12-15T17:18:44.637Z</time>
      </trkpt>
      <trkpt lat="47.45121" lon="-1.58678">
        <ele>64.441648</ele>
        <time>2022-12-15T17:18:47.633Z</time>
      </trkpt>
      <trkpt lat="47.45122" lon="-1.58661">
        <ele>64.418525</ele>
        <time>2022-12-15T17:18:50.634Z</time>
      </trkpt>
      <trkpt lat="47.45121" lon="-1.58643">
        <ele>64.39092</ele>
        <time>2022-12-15T17:18:53.635Z</time>
      </trkpt>
      <trkpt lat="47.4512" lon="-1.58624">
        <ele>64.362054</ele>
        <time>2022-12-15T17:18:56.638Z</time>
      </trkpt>
      <trkpt lat="47.4512" lon="-1.58605">
        <ele>64.332816</ele>
        <time>2022-12-15T17:18:59.646Z</time>
      </trkpt>
      <trkpt lat="47.4512" lon="-1.58588">
        <ele>64.305699</ele>
        <time>2022-12-15T17:19:02.648Z</time>
      </trkpt>
      <trkpt lat="47.45121" lon="-1.5857">
        <ele>64.2786</ele>
        <time>2022-12-15T17:19:05.657Z</time>
      </trkpt>
      <trkpt lat="47.45119" lon="-1.58554">
        <ele>64.25295</ele>
        <time>2022-12-15T17:19:08.643Z</time>
      </trkpt>
      <trkpt lat="47.45119" lon="-1.5854">
        <ele>64.23155</ele>
        <time>2022-12-15T17:19:11.646Z</time>
      </trkpt>
      <trkpt lat="47.45118" lon="-1.58526">
        <ele>64.21039</ele>
        <time>2022-12-15T17:19:14.643Z</time>
      </trkpt>
      <trkpt lat="47.45118" lon="-1.58512">
        <ele>64.188221</ele>
        <time>2022-12-15T17:19:18.645Z</time>
      </trkpt>
      <trkpt lat="47.45118" lon="-1.58496">
        <ele>64.164044</ele>
        <time>2022-12-15T17:19:22.637Z</time>
      </trkpt>
      <trkpt lat="47.4512" lon="-1.58481">
        <ele>64.141247</ele>
        <time>2022-12-15T17:19:26.644Z</time>
      </trkpt>
      <trkpt lat="47.4512" lon="-1.58466">
        <ele>64.117378</ele>
        <time>2022-12-15T17:19:31.646Z</time>
      </trkpt>
      <trkpt lat="47.45121" lon="-1.58452">
        <ele>64.095715</ele>
        <time>2022-12-15T17:19:37.637Z</time>
      </trkpt>
      <trkpt lat="47.45118" lon="-1.58439">
        <ele>64.074199</ele>
        <time>2022-12-15T17:19:42.646Z</time>
      </trkpt>
      <trkpt lat="47.45117" lon="-1.58424">
        <ele>64.050908</ele>
        <time>2022-12-15T17:19:48.633Z</time>
      </trkpt>
      <trkpt lat="47.45125" lon="-1.58417">
        <ele>64.028891</ele>
        <time>2022-12-15T17:20:21.637Z</time>
      </trkpt>
      <trkpt lat="47.45133" lon="-1.58411">
        <ele>63.957868</ele>
        <time>2022-12-15T17:20:31.637Z</time>
      </trkpt>
      <trkpt lat="47.45134" lon="-1.584">
        <ele>63.893341</ele>
        <time>2022-12-15T17:21:13.715Z</time>
      </trkpt>
      <trkpt lat="47.45131" lon="-1.58386">
        <ele>63.811206</ele>
        <time>2022-12-15T17:25:40.648Z</time>
      </trkpt>
      <trkpt lat="47.45125" lon="-1.58366">
        <ele>63.686929</ele>
        <time>2022-12-15T17:25:43.648Z</time>
      </trkpt>
      <trkpt lat="47.45122" lon="-1.5835">
        <ele>63.592168</ele>
        <time>2022-12-15T17:25:45.653Z</time>
      </trkpt>
      <trkpt lat="47.45118" lon="-1.58337">
        <ele>63.508956</ele>
        <time>2022-12-15T17:25:47.639Z</time>
      </trkpt>
      <trkpt lat="47.45113" lon="-1.58325">
        <ele>63.432641</ele>
        <time>2022-12-15T17:25:49.647Z</time>
      </trkpt>
      <trkpt lat="47.45107" lon="-1.58309">
        <ele>63.325933</ele>
        <time>2022-12-15T17:25:52.634Z</time>
      </trkpt>
      <trkpt lat="47.45101" lon="-1.58295">
        <ele>63.233686</ele>
        <time>2022-12-15T17:25:55.657Z</time>
      </trkpt>
      <trkpt lat="47.45096" lon="-1.58282">
        <ele>63.151362</ele>
        <time>2022-12-15T17:25:58.644Z</time>
      </trkpt>
      <trkpt lat="47.45091" lon="-1.58269">
        <ele>63.062214</ele>
        <time>2022-12-15T17:26:02.651Z</time>
      </trkpt>
      <trkpt lat="47.45086" lon="-1.58256">
        <ele>62.977191</ele>
        <time>2022-12-15T17:26:06.644Z</time>
      </trkpt>
      <trkpt lat="47.4508" lon="-1.58241">
        <ele>62.882488</ele>
        <time>2022-12-15T17:26:10.641Z</time>
      </trkpt>
      <trkpt lat="47.45076" lon="-1.58228">
        <ele>62.799635</ele>
        <time>2022-12-15T17:26:13.654Z</time>
      </trkpt>
      <trkpt lat="47.45071" lon="-1.58214">
        <ele>62.707314</ele>
        <time>2022-12-15T17:26:16.651Z</time>
      </trkpt>
      <trkpt lat="47.45066" lon="-1.58199">
        <ele>62.617152</ele>
        <time>2022-12-15T17:26:19.648Z</time>
      </trkpt>
      <trkpt lat="47.45062" lon="-1.58186">
        <ele>62.53034</ele>
        <time>2022-12-15T17:26:22.642Z</time>
      </trkpt>
      <trkpt lat="47.45054" lon="-1.58158">
        <ele>62.34914</ele>
        <time>2022-12-15T17:26:44.649Z</time>
      </trkpt>
      <trkpt lat="47.45051" lon="-1.58144">
        <ele>62.260796</ele>
        <time>2022-12-15T17:26:48.634Z</time>
      </trkpt>
      <trkpt lat="47.45048" lon="-1.58128">
        <ele>62.156843</ele>
        <time>2022-12-15T17:26:52.650Z</time>
      </trkpt>
      <trkpt lat="47.45045" lon="-1.58113">
        <ele>62.065707</ele>
        <time>2022-12-15T17:26:55.634Z</time>
      </trkpt>
      <trkpt lat="47.45042" lon="-1.58097">
        <ele>61.963534</ele>
        <time>2022-12-15T17:26:58.647Z</time>
      </trkpt>
      <trkpt lat="47.4504" lon="-1.58079">
        <ele>61.855668</ele>
        <time>2022-12-15T17:27:01.641Z</time>
      </trkpt>
      <trkpt lat="47.45037" lon="-1.58062">
        <ele>61.747597</ele>
        <time>2022-12-15T17:27:04.638Z</time>
      </trkpt>
      <trkpt lat="47.45034" lon="-1.58044">
        <ele>61.636177</ele>
        <time>2022-12-15T17:27:07.637Z</time>
      </trkpt>
      <trkpt lat="47.45032" lon="-1.58027">
        <ele>61.527098</ele>
        <time>2022-12-15T17:27:10.648Z</time>
      </trkpt>
      <trkpt lat="47.45029" lon="-1.5801">
        <ele>61.422348</ele>
        <time>2022-12-15T17:27:13.643Z</time>
      </trkpt>
      <trkpt lat="47.45027" lon="-1.57993">
        <ele>61.318386</ele>
        <time>2022-12-15T17:27:16.634Z</time>
      </trkpt>
      <trkpt lat="47.45024" lon="-1.57976">
        <ele>61.212589</ele>
        <time>2022-12-15T17:27:19.644Z</time>
      </trkpt>
      <trkpt lat="47.45021" lon="-1.57959">
        <ele>61.103924</ele>
        <time>2022-12-15T17:27:22.635Z</time>
      </trkpt>
      <trkpt lat="47.45019" lon="-1.57944">
        <ele>61.009848</ele>
        <time>2022-12-15T17:27:25.643Z</time>
      </trkpt>
      <trkpt lat="47.45017" lon="-1.5793">
        <ele>60.923118</ele>
        <time>2022-12-15T17:27:28.645Z</time>
      </trkpt>
      <trkpt lat="47.45014" lon="-1.57915">
        <ele>60.919942</ele>
        <time>2022-12-15T17:27:31.647Z</time>
      </trkpt>
      <trkpt lat="47.45011" lon="-1.57899">
        <ele>60.946906</ele>
        <time>2022-12-15T17:27:34.650Z</time>
      </trkpt>
      <trkpt lat="47.45009" lon="-1.57882">
        <ele>60.974761</ele>
        <time>2022-12-15T17:27:37.641Z</time>
      </trkpt>
      <trkpt lat="47.45007" lon="-1.57865">
        <ele>61.003254</ele>
        <time>2022-12-15T17:27:40.655Z</time>
      </trkpt>
      <trkpt lat="47.45004" lon="-1.57851">
        <ele>61.026601</ele>
        <time>2022-12-15T17:27:43.651Z</time>
      </trkpt>
      <trkpt lat="47.45002" lon="-1.57835">
        <ele>61.053234</ele>
        <time>2022-12-15T17:27:47.649Z</time>
      </trkpt>
      <trkpt lat="47.45" lon="-1.57822">
        <ele>61.075623</ele>
        <time>2022-12-15T17:27:50.652Z</time>
      </trkpt>
      <trkpt lat="47.44997" lon="-1.57807">
        <ele>61.099661</ele>
        <time>2022-12-15T17:27:53.649Z</time>
      </trkpt>
      <trkpt lat="47.44996" lon="-1.57792">
        <ele>61.12456</ele>
        <time>2022-12-15T17:27:56.641Z</time>
      </trkpt>
      <trkpt lat="47.44993" lon="-1.57777">
        <ele>61.150798</ele>
        <time>2022-12-15T17:27:59.658Z</time>
      </trkpt>
      <trkpt lat="47.4499" lon="-1.57761">
        <ele>61.177804</ele>
        <time>2022-12-15T17:28:02.639Z</time>
      </trkpt>
      <trkpt lat="47.44986" lon="-1.57745">
        <ele>61.204389</ele>
        <time>2022-12-15T17:28:05.640Z</time>
      </trkpt>
      <trkpt lat="47.44983" lon="-1.5773">
        <ele>61.23076</ele>
        <time>2022-12-15T17:28:08.639Z</time>
      </trkpt>
      <trkpt lat="47.44979" lon="-1.57715">
        <ele>61.257828</ele>
        <time>2022-12-15T17:28:11.654Z</time>
      </trkpt>
      <trkpt lat="47.44974" lon="-1.57699">
        <ele>61.286008</ele>
        <time>2022-12-15T17:28:14.641Z</time>
      </trkpt>
      <trkpt lat="47.44969" lon="-1.57683">
        <ele>61.314783</ele>
        <time>2022-12-15T17:28:17.661Z</time>
      </trkpt>
      <trkpt lat="47.44964" lon="-1.57668">
        <ele>61.341251</ele>
        <time>2022-12-15T17:28:20.649Z</time>
      </trkpt>
      <trkpt lat="47.44959" lon="-1.57657">
        <ele>61.36609</ele>
        <time>2022-12-15T17:28:23.648Z</time>
      </trkpt>
      <trkpt lat="47.44954" lon="-1.57644">
        <ele>61.393588</ele>
        <time>2022-12-15T17:28:26.639Z</time>
      </trkpt>
      <trkpt lat="47.44947" lon="-1.57631">
        <ele>61.421385</ele>
        <time>2022-12-15T17:28:29.638Z</time>
      </trkpt>
      <trkpt lat="47.44942" lon="-1.57618">
        <ele>61.448472</ele>
        <time>2022-12-15T17:28:32.635Z</time>
      </trkpt>
      <trkpt lat="47.44937" lon="-1.57607">
        <ele>61.472715</ele>
        <time>2022-12-15T17:28:35.647Z</time>
      </trkpt>
      <trkpt lat="47.44931" lon="-1.57594">
        <ele>61.499914</ele>
        <time>2022-12-15T17:28:39.653Z</time>
      </trkpt>
      <trkpt lat="47.44926" lon="-1.57583">
        <ele>61.52401</ele>
        <time>2022-12-15T17:28:46.635Z</time>
      </trkpt>
      <trkpt lat="47.44921" lon="-1.57572">
        <ele>61.548403</ele>
        <time>2022-12-15T17:29:04.637Z</time>
      </trkpt>
      <trkpt lat="47.44917" lon="-1.57562">
        <ele>61.568496</ele>
        <time>2022-12-15T17:29:25.946Z</time>
      </trkpt>
      <trkpt lat="47.4491" lon="-1.57541">
        <ele>61.610479</ele>
        <time>2022-12-15T17:31:51.641Z</time>
      </trkpt>
      <trkpt lat="47.44905" lon="-1.57529">
        <ele>61.635319</ele>
        <time>2022-12-15T17:31:55.640Z</time>
      </trkpt>
      <trkpt lat="47.44898" lon="-1.57514">
        <ele>61.669226</ele>
        <time>2022-12-15T17:31:58.638Z</time>
      </trkpt>
      <trkpt lat="47.4489" lon="-1.57497">
        <ele>61.704999</ele>
        <time>2022-12-15T17:32:01.657Z</time>
      </trkpt>
      <trkpt lat="47.44882" lon="-1.57482">
        <ele>61.739019</ele>
        <time>2022-12-15T17:32:04.647Z</time>
      </trkpt>
      <trkpt lat="47.44877" lon="-1.57467">
        <ele>61.770139</ele>
        <time>2022-12-15T17:32:07.641Z</time>
      </trkpt>
      <trkpt lat="47.44871" lon="-1.57453">
        <ele>61.79852</ele>
        <time>2022-12-15T17:32:10.655Z</time>
      </trkpt>
      <trkpt lat="47.44865" lon="-1.5744">
        <ele>61.84286</ele>
        <time>2022-12-15T17:32:13.632Z</time>
      </trkpt>
      <trkpt lat="47.4486" lon="-1.57428">
        <ele>61.889936</ele>
        <time>2022-12-15T17:32:16.642Z</time>
      </trkpt>
      <trkpt lat="47.44854" lon="-1.57416">
        <ele>61.938691</ele>
        <time>2022-12-15T17:32:19.653Z</time>
      </trkpt>
      <trkpt lat="47.44849" lon="-1.57403">
        <ele>61.989407</ele>
        <time>2022-12-15T17:32:22.650Z</time>
      </trkpt>
      <trkpt lat="47.44843" lon="-1.57389">
        <ele>62.04429</ele>
        <time>2022-12-15T17:32:25.651Z</time>
      </trkpt>
      <trkpt lat="47.44838" lon="-1.57374">
        <ele>62.102213</ele>
        <time>2022-12-15T17:32:28.651Z</time>
      </trkpt>
      <trkpt lat="47.44831" lon="-1.57358">
        <ele>62.163032</ele>
        <time>2022-12-15T17:32:31.645Z</time>
      </trkpt>
      <trkpt lat="47.44825" lon="-1.57342">
        <ele>62.224097</ele>
        <time>2022-12-15T17:32:34.648Z</time>
      </trkpt>
      <trkpt lat="47.44819" lon="-1.57326">
        <ele>62.286905</ele>
        <time>2022-12-15T17:32:37.656Z</time>
      </trkpt>
      <trkpt lat="47.44812" lon="-1.5731">
        <ele>62.349247</ele>
        <time>2022-12-15T17:32:40.653Z</time>
      </trkpt>
      <trkpt lat="47.44805" lon="-1.57294">
        <ele>62.41128</ele>
        <time>2022-12-15T17:32:43.655Z</time>
      </trkpt>
      <trkpt lat="47.44799" lon="-1.57278">
        <ele>62.475114</ele>
        <time>2022-12-15T17:32:46.647Z</time>
      </trkpt>
      <trkpt lat="47.44792" lon="-1.57262">
        <ele>62.538529</ele>
        <time>2022-12-15T17:32:49.650Z</time>
      </trkpt>
      <trkpt lat="47.44784" lon="-1.57247">
        <ele>62.601955</ele>
        <time>2022-12-15T17:32:52.662Z</time>
      </trkpt>
      <trkpt lat="47.44778" lon="-1.57233">
        <ele>62.659005</ele>
        <time>2022-12-15T17:32:55.656Z</time>
      </trkpt>
      <trkpt lat="47.44772" lon="-1.5722">
        <ele>62.702106</ele>
        <time>2022-12-15T17:32:58.640Z</time>
      </trkpt>
      <trkpt lat="47.44767" lon="-1.57208">
        <ele>62.718035</ele>
        <time>2022-12-15T17:33:01.649Z</time>
      </trkpt>
      <trkpt lat="47.44761" lon="-1.57196">
        <ele>62.735388</ele>
        <time>2022-12-15T17:33:04.658Z</time>
      </trkpt>
      <trkpt lat="47.44755" lon="-1.57182">
        <ele>62.754649</ele>
        <time>2022-12-15T17:33:07.640Z</time>
      </trkpt>
      <trkpt lat="47.44748" lon="-1.57167">
        <ele>62.775346</ele>
        <time>2022-12-15T17:33:10.643Z</time>
      </trkpt>
      <trkpt lat="47.44741" lon="-1.57152">
        <ele>62.797182</ele>
        <time>2022-12-15T17:33:13.646Z</time>
      </trkpt>
      <trkpt lat="47.44734" lon="-1.57136">
        <ele>62.818354</ele>
        <time>2022-12-15T17:33:16.661Z</time>
      </trkpt>
      <trkpt lat="47.44728" lon="-1.57122">
        <ele>62.837421</ele>
        <time>2022-12-15T17:33:19.646Z</time>
      </trkpt>
      <trkpt lat="47.44722" lon="-1.5711">
        <ele>62.855155</ele>
        <time>2022-12-15T17:33:22.649Z</time>
      </trkpt>
      <trkpt lat="47.44716" lon="-1.57095">
        <ele>62.874516</ele>
        <time>2022-12-15T17:33:25.645Z</time>
      </trkpt>
      <trkpt lat="47.44709" lon="-1.5708">
        <ele>62.895117</ele>
        <time>2022-12-15T17:33:28.640Z</time>
      </trkpt>
      <trkpt lat="47.44703" lon="-1.57065">
        <ele>62.916296</ele>
        <time>2022-12-15T17:33:31.644Z</time>
      </trkpt>
      <trkpt lat="47.44696" lon="-1.57049">
        <ele>62.938223</ele>
        <time>2022-12-15T17:33:34.661Z</time>
      </trkpt>
      <trkpt lat="47.44688" lon="-1.57033">
        <ele>62.960438</ele>
        <time>2022-12-15T17:33:37.639Z</time>
      </trkpt>
      <trkpt lat="47.44682" lon="-1.57018">
        <ele>62.98028</ele>
        <time>2022-12-15T17:33:40.650Z</time>
      </trkpt>
      <trkpt lat="47.44676" lon="-1.57005">
        <ele>62.998204</ele>
        <time>2022-12-15T17:33:43.648Z</time>
      </trkpt>
      <trkpt lat="47.4467" lon="-1.56991">
        <ele>63.052523</ele>
        <time>2022-12-15T17:33:46.651Z</time>
      </trkpt>
      <trkpt lat="47.44664" lon="-1.56976">
        <ele>63.128624</ele>
        <time>2022-12-15T17:33:49.639Z</time>
      </trkpt>
      <trkpt lat="47.44657" lon="-1.56959">
        <ele>63.208726</ele>
        <time>2022-12-15T17:33:52.642Z</time>
      </trkpt>
      <trkpt lat="47.44652" lon="-1.56948">
        <ele>63.265135</ele>
        <time>2022-12-15T17:33:54.664Z</time>
      </trkpt>
      <trkpt lat="47.44647" lon="-1.56936">
        <ele>63.325984</ele>
        <time>2022-12-15T17:33:56.659Z</time>
      </trkpt>
      <trkpt lat="47.44643" lon="-1.56924">
        <ele>63.384155</ele>
        <time>2022-12-15T17:33:58.643Z</time>
      </trkpt>
      <trkpt lat="47.44636" lon="-1.56909">
        <ele>63.4582</ele>
        <time>2022-12-15T17:34:01.664Z</time>
      </trkpt>
      <trkpt lat="47.4463" lon="-1.56895">
        <ele>63.52675</ele>
        <time>2022-12-15T17:34:04.641Z</time>
      </trkpt>
      <trkpt lat="47.44625" lon="-1.5688">
        <ele>63.598115</ele>
        <time>2022-12-15T17:34:07.641Z</time>
      </trkpt>
      <trkpt lat="47.44619" lon="-1.56865">
        <ele>63.668063</ele>
        <time>2022-12-15T17:34:10.643Z</time>
      </trkpt>
      <trkpt lat="47.44613" lon="-1.5685">
        <ele>63.741892</ele>
        <time>2022-12-15T17:34:13.642Z</time>
      </trkpt>
      <trkpt lat="47.44607" lon="-1.56834">
        <ele>63.818521</ele>
        <time>2022-12-15T17:34:16.639Z</time>
      </trkpt>
      <trkpt lat="47.44601" lon="-1.56818">
        <ele>63.895267</ele>
        <time>2022-12-15T17:34:19.640Z</time>
      </trkpt>
      <trkpt lat="47.44595" lon="-1.56802">
        <ele>63.973565</ele>
        <time>2022-12-15T17:34:22.647Z</time>
      </trkpt>
      <trkpt lat="47.44588" lon="-1.56786">
        <ele>64.052321</ele>
        <time>2022-12-15T17:34:25.648Z</time>
      </trkpt>
      <trkpt lat="47.44583" lon="-1.56771">
        <ele>64.117537</ele>
        <time>2022-12-15T17:34:28.657Z</time>
      </trkpt>
      <trkpt lat="47.44578" lon="-1.56759">
        <ele>64.067654</ele>
        <time>2022-12-15T17:34:31.640Z</time>
      </trkpt>
      <trkpt lat="47.44574" lon="-1.56746">
        <ele>64.015971</ele>
        <time>2022-12-15T17:34:34.650Z</time>
      </trkpt>
      <trkpt lat="47.44568" lon="-1.56732">
        <ele>63.956414</ele>
        <time>2022-12-15T17:34:38.644Z</time>
      </trkpt>
      <trkpt lat="47.44563" lon="-1.5672">
        <ele>63.90851</ele>
        <time>2022-12-15T17:34:42.640Z</time>
      </trkpt>
      <trkpt lat="47.44559" lon="-1.56707">
        <ele>63.85871</ele>
        <time>2022-12-15T17:34:47.649Z</time>
      </trkpt>
      <trkpt lat="47.44554" lon="-1.56693">
        <ele>63.804967</ele>
        <time>2022-12-15T17:34:52.648Z</time>
      </trkpt>
      <trkpt lat="47.44552" lon="-1.56679">
        <ele>63.754451</ele>
        <time>2022-12-15T17:34:57.650Z</time>
      </trkpt>
      <trkpt lat="47.4455" lon="-1.56665">
        <ele>63.701386</ele>
        <time>2022-12-15T17:35:04.648Z</time>
      </trkpt>
      <trkpt lat="47.44547" lon="-1.5665">
        <ele>63.646959</ele>
        <time>2022-12-15T17:35:10.651Z</time>
      </trkpt>
      <trkpt lat="47.44545" lon="-1.56636">
        <ele>63.59735</ele>
        <time>2022-12-15T17:35:12.642Z</time>
      </trkpt>
      <trkpt lat="47.44543" lon="-1.56619">
        <ele>63.536388</ele>
        <time>2022-12-15T17:35:14.653Z</time>
      </trkpt>
      <trkpt lat="47.44542" lon="-1.56601">
        <ele>63.473671</ele>
        <time>2022-12-15T17:35:16.649Z</time>
      </trkpt>
      <trkpt lat="47.44541" lon="-1.56585">
        <ele>63.415212</ele>
        <time>2022-12-15T17:35:18.645Z</time>
      </trkpt>
      <trkpt lat="47.44541" lon="-1.56569">
        <ele>63.359897</ele>
        <time>2022-12-15T17:35:20.648Z</time>
      </trkpt>
      <trkpt lat="47.4454" lon="-1.56554">
        <ele>63.30584</ele>
        <time>2022-12-15T17:35:22.663Z</time>
      </trkpt>
      <trkpt lat="47.4454" lon="-1.5654">
        <ele>63.256146</ele>
        <time>2022-12-15T17:35:24.648Z</time>
      </trkpt>
      <trkpt lat="47.4454" lon="-1.5652">
        <ele>63.185686</ele>
        <time>2022-12-15T17:35:27.647Z</time>
      </trkpt>
      <trkpt lat="47.4454" lon="-1.56505">
        <ele>63.221252</ele>
        <time>2022-12-15T17:35:29.652Z</time>
      </trkpt>
      <trkpt lat="47.44539" lon="-1.56491">
        <ele>63.260562</ele>
        <time>2022-12-15T17:35:31.644Z</time>
      </trkpt>
      <trkpt lat="47.44538" lon="-1.56477">
        <ele>63.299283</ele>
        <time>2022-12-15T17:35:33.646Z</time>
      </trkpt>
      <trkpt lat="47.44538" lon="-1.56464">
        <ele>63.337371</ele>
        <time>2022-12-15T17:35:35.643Z</time>
      </trkpt>
      <trkpt lat="47.44536" lon="-1.56449">
        <ele>63.379098</ele>
        <time>2022-12-15T17:35:37.638Z</time>
      </trkpt>
      <trkpt lat="47.44533" lon="-1.5643">
        <ele>63.433233</ele>
        <time>2022-12-15T17:35:40.651Z</time>
      </trkpt>
      <trkpt lat="47.44529" lon="-1.56414">
        <ele>63.481368</ele>
        <time>2022-12-15T17:35:43.651Z</time>
      </trkpt>
      <trkpt lat="47.44525" lon="-1.564">
        <ele>63.525244</ele>
        <time>2022-12-15T17:35:46.635Z</time>
      </trkpt>
      <trkpt lat="47.44519" lon="-1.56387">
        <ele>63.567426</ele>
        <time>2022-12-15T17:35:49.640Z</time>
      </trkpt>
      <trkpt lat="47.44511" lon="-1.56375">
        <ele>63.616119</ele>
        <time>2022-12-15T17:35:52.652Z</time>
      </trkpt>
      <trkpt lat="47.44501" lon="-1.56364">
        <ele>63.666519</ele>
        <time>2022-12-15T17:35:55.644Z</time>
      </trkpt>
      <trkpt lat="47.4449" lon="-1.56356">
        <ele>63.718596</ele>
        <time>2022-12-15T17:35:58.639Z</time>
      </trkpt>
      <trkpt lat="47.44477" lon="-1.5635">
        <ele>63.773276</ele>
        <time>2022-12-15T17:36:01.643Z</time>
      </trkpt>
      <trkpt lat="47.44468" lon="-1.56346">
        <ele>63.813714</ele>
        <time>2022-12-15T17:36:03.645Z</time>
      </trkpt>
      <trkpt lat="47.44455" lon="-1.56343">
        <ele>63.868332</ele>
        <time>2022-12-15T17:36:06.648Z</time>
      </trkpt>
      <trkpt lat="47.44443" lon="-1.56339">
        <ele>63.919452</ele>
        <time>2022-12-15T17:36:09.648Z</time>
      </trkpt>
      <trkpt lat="47.44431" lon="-1.56335">
        <ele>63.927175</ele>
        <time>2022-12-15T17:36:12.637Z</time>
      </trkpt>
      <trkpt lat="47.44421" lon="-1.56329">
        <ele>63.927175</ele>
        <time>2022-12-15T17:36:15.643Z</time>
      </trkpt>
      <trkpt lat="47.4441" lon="-1.56318">
        <ele>63.927175</ele>
        <time>2022-12-15T17:36:18.645Z</time>
      </trkpt>
      <trkpt lat="47.44404" lon="-1.56308">
        <ele>63.927175</ele>
        <time>2022-12-15T17:36:20.643Z</time>
      </trkpt>
      <trkpt lat="47.444" lon="-1.56296">
        <ele>63.927175</ele>
        <time>2022-12-15T17:36:22.656Z</time>
      </trkpt>
      <trkpt lat="47.44397" lon="-1.56282">
        <ele>63.927175</ele>
        <time>2022-12-15T17:36:24.649Z</time>
      </trkpt>
      <trkpt lat="47.44396" lon="-1.56269">
        <ele>63.927175</ele>
        <time>2022-12-15T17:36:26.649Z</time>
      </trkpt>
      <trkpt lat="47.44396" lon="-1.56255">
        <ele>63.927175</ele>
        <time>2022-12-15T17:36:28.649Z</time>
      </trkpt>
      <trkpt lat="47.44396" lon="-1.5624">
        <ele>63.927175</ele>
        <time>2022-12-15T17:36:30.660Z</time>
      </trkpt>
      <trkpt lat="47.44396" lon="-1.56225">
        <ele>63.927175</ele>
        <time>2022-12-15T17:36:32.652Z</time>
      </trkpt>
      <trkpt lat="47.44396" lon="-1.5621">
        <ele>63.927175</ele>
        <time>2022-12-15T17:36:34.660Z</time>
      </trkpt>
      <trkpt lat="47.44396" lon="-1.56195">
        <ele>63.927175</ele>
        <time>2022-12-15T17:36:36.644Z</time>
      </trkpt>
      <trkpt lat="47.44395" lon="-1.56181">
        <ele>63.927175</ele>
        <time>2022-12-15T17:36:38.636Z</time>
      </trkpt>
      <trkpt lat="47.44391" lon="-1.56164">
        <ele>63.927175</ele>
        <time>2022-12-15T17:36:41.638Z</time>
      </trkpt>
      <trkpt lat="47.44385" lon="-1.56149">
        <ele>63.927175</ele>
        <time>2022-12-15T17:36:44.654Z</time>
      </trkpt>
      <trkpt lat="47.44379" lon="-1.56136">
        <ele>63.927175</ele>
        <time>2022-12-15T17:36:47.642Z</time>
      </trkpt>
      <trkpt lat="47.4437" lon="-1.56124">
        <ele>63.927175</ele>
        <time>2022-12-15T17:36:50.638Z</time>
      </trkpt>
      <trkpt lat="47.4436" lon="-1.56112">
        <ele>63.927175</ele>
        <time>2022-12-15T17:36:53.640Z</time>
      </trkpt>
      <trkpt lat="47.4435" lon="-1.56103">
        <ele>63.927175</ele>
        <time>2022-12-15T17:36:56.642Z</time>
      </trkpt>
      <trkpt lat="47.4434" lon="-1.56094">
        <ele>63.927175</ele>
        <time>2022-12-15T17:36:59.643Z</time>
      </trkpt>
      <trkpt lat="47.44331" lon="-1.56084">
        <ele>63.927175</ele>
        <time>2022-12-15T17:37:02.637Z</time>
      </trkpt>
      <trkpt lat="47.44323" lon="-1.56076">
        <ele>63.927175</ele>
        <time>2022-12-15T17:37:05.653Z</time>
      </trkpt>
      <trkpt lat="47.44313" lon="-1.56068">
        <ele>63.927175</ele>
        <time>2022-12-15T17:37:09.653Z</time>
      </trkpt>
      <trkpt lat="47.44304" lon="-1.56059">
        <ele>63.927175</ele>
        <time>2022-12-15T17:37:14.648Z</time>
      </trkpt>
      <trkpt lat="47.443" lon="-1.5605">
        <ele>63.927175</ele>
        <time>2022-12-15T17:37:29.828Z</time>
        <extensions>
          <visugpx:TrkExtension xmlns:visugpx="https://www.visugpx.com/editgpx/">
            <visugpx:node>1</visugpx:node>
            </visugpx:TrkExtension>
        </extensions>
      </trkpt>
    </trkseg>
  </trk>
</gpx>